<?xml version='1.0' encoding='UTF-8'?><gpx version="1.1" creator="JPX - https://github.com/jenetics/jpx" xmlns="http://www.topografix.com/GPX/1/1"><trk><trkseg><trkpt lat="45.7758483683087" lon="11.448936157310976"><ele>269.25</ele><time>2026-04-06T07:56:01.001Z</time></trkpt><trkpt lat="45.77593605116065" lon="11.448758519725162"><ele>268.5</ele><time>2026-04-06T07:56:03.001Z</time></trkpt><trkpt lat="45.77600270173182" lon="11.448632109797913"><ele>267.75</ele><time>2026-04-06T07:56:04.001Z</time></trkpt><trkpt lat="45.77608723973085" lon="11.448487115958207"><ele>267.0</ele><time>2026-04-06T07:56:05.001Z</time></trkpt><trkpt lat="45.77616714776796" lon="11.44835084283515"><ele>267.0</ele><time>2026-04-06T07:56:06.001Z</time></trkpt><trkpt lat="45.77621345515131" lon="11.448206145550763"><ele>267.0</ele><time>2026-04-06T07:56:07.001Z</time></trkpt><trkpt lat="45.77629801856338" lon="11.448064528722318"><ele>267.0</ele><time>2026-04-06T07:56:08.001Z</time></trkpt><trkpt lat="45.776389318568185" lon="11.44793017507731"><ele>267.0</ele><time>2026-04-06T07:56:09.001Z</time></trkpt><trkpt lat="45.77647086628787" lon="11.447785797325007"><ele>266.5</ele><time>2026-04-06T07:56:10.001Z</time></trkpt><trkpt lat="45.776555405941004" lon="11.447637624053984"><ele>266.0</ele><time>2026-04-06T07:56:11.001Z</time></trkpt><trkpt lat="45.776640383139494" lon="11.447488265295926"><ele>265.5</ele><time>2026-04-06T07:56:12.001Z</time></trkpt><trkpt lat="45.776726118878464" lon="11.44733660113094"><ele>265.0</ele><time>2026-04-06T07:56:13.001Z</time></trkpt><trkpt lat="45.77681072673228" lon="11.447186160250277"><ele>266.0</ele><time>2026-04-06T07:56:14.001Z</time></trkpt><trkpt lat="45.776896890922174" lon="11.447032446080344"><ele>267.0</ele><time>2026-04-06T07:56:15.001Z</time></trkpt><trkpt lat="45.776982944172275" lon="11.44687940124674"><ele>268.0</ele><time>2026-04-06T07:56:16.001Z</time></trkpt><trkpt lat="45.77706995528434" lon="11.44672502249715"><ele>269.0</ele><time>2026-04-06T07:56:17.001Z</time></trkpt><trkpt lat="45.77715754776126" lon="11.44656961260175"><ele>269.0</ele><time>2026-04-06T07:56:18.001Z</time></trkpt><trkpt lat="45.77724215989926" lon="11.446415843441825"><ele>269.0</ele><time>2026-04-06T07:56:19.001Z</time></trkpt><trkpt lat="45.777328650613455" lon="11.446259279309855"><ele>269.0</ele><time>2026-04-06T07:56:20.001Z</time></trkpt><trkpt lat="45.77741244698747" lon="11.446107503953494"><ele>269.0</ele><time>2026-04-06T07:56:21.001Z</time></trkpt><trkpt lat="45.777499077478" lon="11.445950932098143"><ele>269.5</ele><time>2026-04-06T07:56:22.001Z</time></trkpt><trkpt lat="45.77758441114835" lon="11.445796848695423"><ele>270.0</ele><time>2026-04-06T07:56:23.001Z</time></trkpt><trkpt lat="45.77767094479918" lon="11.445640599107774"><ele>270.5</ele><time>2026-04-06T07:56:24.001Z</time></trkpt><trkpt lat="45.77775604982875" lon="11.44548828778701"><ele>271.0</ele><time>2026-04-06T07:56:25Z</time></trkpt><trkpt lat="45.77783094944253" lon="11.445354495130447"><ele>271.8333333333333</ele><time>2026-04-06T07:56:26Z</time></trkpt><trkpt lat="45.77789674138559" lon="11.445236734937586"><ele>272.66666666666663</ele><time>2026-04-06T07:56:27Z</time></trkpt><trkpt lat="45.777941233638366" lon="11.445157025448772"><ele>273.5</ele><time>2026-04-06T07:56:28Z</time></trkpt><trkpt lat="45.77801422508963" lon="11.445026258599569"><ele>274.3333333333333</ele><time>2026-04-06T07:56:30Z</time></trkpt><trkpt lat="45.77806502544273" lon="11.444935247917396"><ele>275.1666666666667</ele><time>2026-04-06T07:56:31Z</time></trkpt><trkpt lat="45.778105581993636" lon="11.444862589404632"><ele>276.0</ele><time>2026-04-06T07:56:32Z</time></trkpt><trkpt lat="45.778186372955616" lon="11.4447178494567"><ele>275.8</ele><time>2026-04-06T07:56:34Z</time></trkpt><trkpt lat="45.77825074559963" lon="11.444602523534376"><ele>275.6</ele><time>2026-04-06T07:56:35Z</time></trkpt><trkpt lat="45.7783176585057" lon="11.444482646617372"><ele>275.4</ele><time>2026-04-06T07:56:36Z</time></trkpt><trkpt lat="45.778388116891605" lon="11.444356417841991"><ele>275.2</ele><time>2026-04-06T07:56:37Z</time></trkpt><trkpt lat="45.77845890920004" lon="11.444230123281592"><ele>275.0</ele><time>2026-04-06T07:56:38Z</time></trkpt><trkpt lat="45.77853143104128" lon="11.444100766341256"><ele>276.5</ele><time>2026-04-06T07:56:39Z</time></trkpt><trkpt lat="45.77860454682932" lon="11.443970349980958"><ele>278.0</ele><time>2026-04-06T07:56:40Z</time></trkpt><trkpt lat="45.778681575790955" lon="11.443832953706126"><ele>279.5</ele><time>2026-04-06T07:56:41Z</time></trkpt><trkpt lat="45.778754961796096" lon="11.443702055356887"><ele>281.0</ele><time>2026-04-06T07:56:42Z</time></trkpt><trkpt lat="45.778816032902974" lon="11.443593123083408"><ele>281.0</ele><time>2026-04-06T07:56:43Z</time></trkpt><trkpt lat="45.77886381614731" lon="11.443507892266924"><ele>281.0</ele><time>2026-04-06T07:56:44Z</time></trkpt><trkpt lat="45.77892910782481" lon="11.443391431738249"><ele>281.0</ele><time>2026-04-06T07:56:46Z</time></trkpt><trkpt lat="45.77897586487866" lon="11.443308529892088"><ele>281.0</ele><time>2026-04-06T07:56:47Z</time></trkpt><trkpt lat="45.77902100630523" lon="11.443228781998492"><ele>281.0</ele><time>2026-04-06T07:56:48Z</time></trkpt><trkpt lat="45.77909661356148" lon="11.443095568885052"><ele>281.0</ele><time>2026-04-06T07:56:50Z</time></trkpt><trkpt lat="45.77915115598351" lon="11.442999478258487"><ele>281.0</ele><time>2026-04-06T07:56:51Z</time></trkpt><trkpt lat="45.77922017225862" lon="11.442879518059495"><ele>281.0</ele><time>2026-04-06T07:56:52Z</time></trkpt><trkpt lat="45.77929454030906" lon="11.442752148264065"><ele>281.0</ele><time>2026-04-06T07:56:53Z</time></trkpt><trkpt lat="45.77937355439808" lon="11.442619547858518"><ele>281.0</ele><time>2026-04-06T07:56:54Z</time></trkpt><trkpt lat="45.77945521617393" lon="11.442485468025065"><ele>283.5</ele><time>2026-04-06T07:56:55Z</time></trkpt><trkpt lat="45.779542419960706" lon="11.442345663876372"><ele>286.0</ele><time>2026-04-06T07:56:56Z</time></trkpt><trkpt lat="45.779627438545404" lon="11.44221119932111"><ele>288.5</ele><time>2026-04-06T07:56:57Z</time></trkpt><trkpt lat="45.779715455536234" lon="11.442071992523134"><ele>291.0</ele><time>2026-04-06T07:56:58Z</time></trkpt><trkpt lat="45.779803422979086" lon="11.44193568659313"><ele>291.0</ele><time>2026-04-06T07:56:59Z</time></trkpt><trkpt lat="45.779894680893946" lon="11.441802963097368"><ele>291.0</ele><time>2026-04-06T07:57:00Z</time></trkpt><trkpt lat="45.7799880441337" lon="11.441675204071684"><ele>291.0</ele><time>2026-04-06T07:57:01Z</time></trkpt><trkpt lat="45.78008317171881" lon="11.441549577637922"><ele>291.0</ele><time>2026-04-06T07:57:02Z</time></trkpt><trkpt lat="45.780180422841354" lon="11.44142540890789"><ele>292.75</ele><time>2026-04-06T07:57:03Z</time></trkpt><trkpt lat="45.780278342402255" lon="11.441303775942957"><ele>294.5</ele><time>2026-04-06T07:57:04Z</time></trkpt><trkpt lat="45.78037582940236" lon="11.441186083297938"><ele>296.25</ele><time>2026-04-06T07:57:05Z</time></trkpt><trkpt lat="45.78047400430084" lon="11.44107207377647"><ele>298.0</ele><time>2026-04-06T07:57:06Z</time></trkpt><trkpt lat="45.78056095876831" lon="11.440948550700385"><ele>298.0</ele><time>2026-04-06T07:57:07Z</time></trkpt><trkpt lat="45.78065311711839" lon="11.440847425032532"><ele>298.0</ele><time>2026-04-06T07:57:08Z</time></trkpt><trkpt lat="45.78074238959969" lon="11.44074475699256"><ele>298.0</ele><time>2026-04-06T07:57:09Z</time></trkpt><trkpt lat="45.78082203422764" lon="11.4406395135649"><ele>298.0</ele><time>2026-04-06T07:57:10Z</time></trkpt><trkpt lat="45.78089355745738" lon="11.440533807031272"><ele>298.0</ele><time>2026-04-06T07:57:11Z</time></trkpt><trkpt lat="45.78096183066222" lon="11.44042421467077"><ele>299.0</ele><time>2026-04-06T07:57:12Z</time></trkpt><trkpt lat="45.78101991349624" lon="11.440304718111072"><ele>300.0</ele><time>2026-04-06T07:57:13Z</time></trkpt><trkpt lat="45.781074406705685" lon="11.440180465955502"><ele>301.0</ele><time>2026-04-06T07:57:14Z</time></trkpt><trkpt lat="45.78113458184951" lon="11.44006777011279"><ele>302.0</ele><time>2026-04-06T07:57:15Z</time></trkpt><trkpt lat="45.781195466962465" lon="11.439941302592086"><ele>303.0</ele><time>2026-04-06T07:57:16Z</time></trkpt><trkpt lat="45.781246811630794" lon="11.439832085594142"><ele>303.0</ele><time>2026-04-06T07:57:17Z</time></trkpt><trkpt lat="45.781282712639445" lon="11.439721320613108"><ele>303.0</ele><time>2026-04-06T07:57:18Z</time></trkpt><trkpt lat="45.7813402011601" lon="11.439634456703065"><ele>303.0</ele><time>2026-04-06T07:57:19Z</time></trkpt><trkpt lat="45.781392658372305" lon="11.439526384531588"><ele>303.0</ele><time>2026-04-06T07:57:20Z</time></trkpt><trkpt lat="45.78144112840391" lon="11.439420218574387"><ele>303.0</ele><time>2026-04-06T07:57:21Z</time></trkpt><trkpt lat="45.78147222603037" lon="11.4392991321948"><ele>303.0</ele><time>2026-04-06T07:57:22Z</time></trkpt><trkpt lat="45.781524388199095" lon="11.439194076813282"><ele>302.6</ele><time>2026-04-06T07:57:23Z</time></trkpt><trkpt lat="45.78152592883595" lon="11.439057227117905"><ele>302.20000000000005</ele><time>2026-04-06T07:57:24Z</time></trkpt><trkpt lat="45.781526490226334" lon="11.438926439922085"><ele>301.8</ele><time>2026-04-06T07:57:25Z</time></trkpt><trkpt lat="45.78151188565792" lon="11.438790947462254"><ele>301.40000000000003</ele><time>2026-04-06T07:57:26Z</time></trkpt><trkpt lat="45.7815129712925" lon="11.438653690781932"><ele>301.0</ele><time>2026-04-06T07:57:27Z</time></trkpt><trkpt lat="45.781492087926495" lon="11.438513390263001"><ele>301.0</ele><time>2026-04-06T07:57:28Z</time></trkpt><trkpt lat="45.78147154234909" lon="11.438387656629333"><ele>301.0</ele><time>2026-04-06T07:57:29Z</time></trkpt><trkpt lat="45.781454055141694" lon="11.438270813157525"><ele>301.0</ele><time>2026-04-06T07:57:30Z</time></trkpt><trkpt lat="45.78143833883105" lon="11.438160851580928"><ele>301.0</ele><time>2026-04-06T07:57:31Z</time></trkpt><trkpt lat="45.78141287939581" lon="11.438036764659843"><ele>301.0</ele><time>2026-04-06T07:57:32Z</time></trkpt><trkpt lat="45.781403997170614" lon="11.437907619215466"><ele>301.0</ele><time>2026-04-06T07:57:33Z</time></trkpt><trkpt lat="45.78139226702859" lon="11.437773213476405"><ele>301.0</ele><time>2026-04-06T07:57:34Z</time></trkpt><trkpt lat="45.781390306552716" lon="11.437644999942076"><ele>301.0</ele><time>2026-04-06T07:57:35Z</time></trkpt><trkpt lat="45.78143184657251" lon="11.43753339548012"><ele>301.0</ele><time>2026-04-06T07:57:36Z</time></trkpt><trkpt lat="45.78153076373445" lon="11.437419894480191"><ele>301.0</ele><time>2026-04-06T07:57:38Z</time></trkpt><trkpt lat="45.781607683686644" lon="11.437425271129882"><ele>301.0</ele><time>2026-04-06T07:57:39Z</time></trkpt><trkpt lat="45.78168018294104" lon="11.437450887500761"><ele>301.0</ele><time>2026-04-06T07:57:40Z</time></trkpt><trkpt lat="45.78181157713247" lon="11.437414578028852"><ele>301.0</ele><time>2026-04-06T07:57:42Z</time></trkpt><trkpt lat="45.781868141115055" lon="11.437306593552309"><ele>301.0</ele><time>2026-04-06T07:57:43Z</time></trkpt><trkpt lat="45.78191025614676" lon="11.437170898830164"><ele>301.0</ele><time>2026-04-06T07:57:44Z</time></trkpt><trkpt lat="45.78194684916944" lon="11.437025261854242"><ele>301.0</ele><time>2026-04-06T07:57:45Z</time></trkpt><trkpt lat="45.781980555673556" lon="11.436868252671388"><ele>303.75</ele><time>2026-04-06T07:57:46.001Z</time></trkpt><trkpt lat="45.782004586873214" lon="11.436701252965799"><ele>306.5</ele><time>2026-04-06T07:57:47.001Z</time></trkpt><trkpt lat="45.78202504279654" lon="11.436527997565962"><ele>309.25</ele><time>2026-04-06T07:57:48.001Z</time></trkpt><trkpt lat="45.78204493487207" lon="11.43634961162108"><ele>312.0</ele><time>2026-04-06T07:57:49.001Z</time></trkpt><trkpt lat="45.78206451364834" lon="11.4361689120375"><ele>312.0</ele><time>2026-04-06T07:57:50.001Z</time></trkpt><trkpt lat="45.78208521350817" lon="11.4359874721941"><ele>312.0</ele><time>2026-04-06T07:57:51.001Z</time></trkpt><trkpt lat="45.782106315258574" lon="11.435810014536335"><ele>312.0</ele><time>2026-04-06T07:57:52.001Z</time></trkpt><trkpt lat="45.78213290877149" lon="11.435633567939519"><ele>312.0</ele><time>2026-04-06T07:57:53.001Z</time></trkpt><trkpt lat="45.78216644741828" lon="11.435461620088159"><ele>311.75</ele><time>2026-04-06T07:57:54.001Z</time></trkpt><trkpt lat="45.78220452161877" lon="11.435288325126102"><ele>311.5</ele><time>2026-04-06T07:57:55.001Z</time></trkpt><trkpt lat="45.782250006778774" lon="11.43510860186343"><ele>311.25</ele><time>2026-04-06T07:57:56.001Z</time></trkpt><trkpt lat="45.78229902271889" lon="11.43492271570745"><ele>311.0</ele><time>2026-04-06T07:57:57.001Z</time></trkpt><trkpt lat="45.78234755511941" lon="11.434738492856242"><ele>309.75</ele><time>2026-04-06T07:57:58.001Z</time></trkpt><trkpt lat="45.782397762452085" lon="11.434547912663826"><ele>308.5</ele><time>2026-04-06T07:57:59.001Z</time></trkpt><trkpt lat="45.782447152061" lon="11.434358799519325"><ele>307.25</ele><time>2026-04-06T07:58:00.001Z</time></trkpt><trkpt lat="45.7824790032181" lon="11.434158624159581"><ele>306.0</ele><time>2026-04-06T07:58:01.001Z</time></trkpt><trkpt lat="45.78253125657437" lon="11.433972267960037"><ele>306.75</ele><time>2026-04-06T07:58:02.001Z</time></trkpt><trkpt lat="45.78258010505741" lon="11.433781182203264"><ele>307.5</ele><time>2026-04-06T07:58:03.001Z</time></trkpt><trkpt lat="45.782629440224966" lon="11.433589613680446"><ele>308.25</ele><time>2026-04-06T07:58:04.001Z</time></trkpt><trkpt lat="45.78269663989519" lon="11.433412843433842"><ele>309.0</ele><time>2026-04-06T07:58:05.001Z</time></trkpt><trkpt lat="45.78274651443258" lon="11.433226049202917"><ele>309.0</ele><time>2026-04-06T07:58:06.001Z</time></trkpt><trkpt lat="45.782798604237804" lon="11.43303092813436"><ele>309.0</ele><time>2026-04-06T07:58:07.001Z</time></trkpt><trkpt lat="45.78285046400821" lon="11.432835342742871"><ele>309.0</ele><time>2026-04-06T07:58:08Z</time></trkpt><trkpt lat="45.782901459047125" lon="11.432640795701824"><ele>309.0</ele><time>2026-04-06T07:58:09Z</time></trkpt><trkpt lat="45.782951495620196" lon="11.432449118724687"><ele>307.59999999999997</ele><time>2026-04-06T07:58:10Z</time></trkpt><trkpt lat="45.78299963379197" lon="11.432265874415407"><ele>306.2</ele><time>2026-04-06T07:58:11Z</time></trkpt><trkpt lat="45.78304122662631" lon="11.432107769745464"><ele>304.79999999999995</ele><time>2026-04-06T07:58:12Z</time></trkpt><trkpt lat="45.783059605671255" lon="11.431985618222352"><ele>303.4</ele><time>2026-04-06T07:58:13Z</time></trkpt><trkpt lat="45.78308451411935" lon="11.431885127833208"><ele>302.0</ele><time>2026-04-06T07:58:14Z</time></trkpt><trkpt lat="45.78312028072574" lon="11.431753750858906"><ele>301.0</ele><time>2026-04-06T07:58:15Z</time></trkpt><trkpt lat="45.78316126353956" lon="11.431601402696522"><ele>300.0</ele><time>2026-04-06T07:58:16Z</time></trkpt><trkpt lat="45.78321946742995" lon="11.431435470236636"><ele>299.0</ele><time>2026-04-06T07:58:17Z</time></trkpt><trkpt lat="45.78326804020096" lon="11.431253275709578"><ele>298.0</ele><time>2026-04-06T07:58:18Z</time></trkpt><trkpt lat="45.783319032524716" lon="11.431062160271791"><ele>297.75</ele><time>2026-04-06T07:58:19Z</time></trkpt><trkpt lat="45.78336909689119" lon="11.430867452910498"><ele>297.5</ele><time>2026-04-06T07:58:20Z</time></trkpt><trkpt lat="45.78341998805126" lon="11.430671450662038"><ele>297.25</ele><time>2026-04-06T07:58:21Z</time></trkpt><trkpt lat="45.783470601184895" lon="11.430480193666618"><ele>297.0</ele><time>2026-04-06T07:58:22Z</time></trkpt><trkpt lat="45.783522713292584" lon="11.430285761621532"><ele>297.0</ele><time>2026-04-06T07:58:23Z</time></trkpt><trkpt lat="45.78357232270493" lon="11.430100667150024"><ele>297.0</ele><time>2026-04-06T07:58:24Z</time></trkpt><trkpt lat="45.78361941568092" lon="11.429924961933928"><ele>297.0</ele><time>2026-04-06T07:58:25Z</time></trkpt><trkpt lat="45.783665558801694" lon="11.429750507146142"><ele>297.0</ele><time>2026-04-06T07:58:26Z</time></trkpt><trkpt lat="45.783713380498924" lon="11.429569021548044"><ele>297.0</ele><time>2026-04-06T07:58:27Z</time></trkpt><trkpt lat="45.78376380307947" lon="11.42937766550831"><ele>297.0</ele><time>2026-04-06T07:58:28Z</time></trkpt><trkpt lat="45.783813817225" lon="11.429187859405356"><ele>297.0</ele><time>2026-04-06T07:58:29Z</time></trkpt><trkpt lat="45.78386437808829" lon="11.428994389681877"><ele>297.0</ele><time>2026-04-06T07:58:30Z</time></trkpt><trkpt lat="45.783914930860874" lon="11.42879931188546"><ele>297.0</ele><time>2026-04-06T07:58:31Z</time></trkpt><trkpt lat="45.783965378955656" lon="11.428604638112539"><ele>297.0</ele><time>2026-04-06T07:58:32Z</time></trkpt><trkpt lat="45.78401513894894" lon="11.428412619617353"><ele>297.0</ele><time>2026-04-06T07:58:33Z</time></trkpt><trkpt lat="45.784064821185986" lon="11.428220901161586"><ele>297.0</ele><time>2026-04-06T07:58:34Z</time></trkpt><trkpt lat="45.78411005135466" lon="11.428033434677346"><ele>297.0</ele><time>2026-04-06T07:58:35Z</time></trkpt><trkpt lat="45.78414916113992" lon="11.4278475597871"><ele>297.0</ele><time>2026-04-06T07:58:36Z</time></trkpt><trkpt lat="45.78416385241028" lon="11.427654338405675"><ele>297.0</ele><time>2026-04-06T07:58:37Z</time></trkpt><trkpt lat="45.78417590957879" lon="11.427470919975502"><ele>297.0</ele><time>2026-04-06T07:58:38Z</time></trkpt><trkpt lat="45.78420325606966" lon="11.427289784774283"><ele>297.75</ele><time>2026-04-06T07:58:39Z</time></trkpt><trkpt lat="45.78422405699121" lon="11.427115695826338"><ele>298.5</ele><time>2026-04-06T07:58:40Z</time></trkpt><trkpt lat="45.78425668516166" lon="11.426946576120569"><ele>299.25</ele><time>2026-04-06T07:58:41Z</time></trkpt><trkpt lat="45.784322799157756" lon="11.426812782249483"><ele>300.0</ele><time>2026-04-06T07:58:42Z</time></trkpt><trkpt lat="45.78438414763285" lon="11.42668451390955"><ele>300.8</ele><time>2026-04-06T07:58:43Z</time></trkpt><trkpt lat="45.784439281631464" lon="11.426577177385838"><ele>301.6</ele><time>2026-04-06T07:58:44Z</time></trkpt><trkpt lat="45.78448130662333" lon="11.426496869536564"><ele>302.4</ele><time>2026-04-06T07:58:45Z</time></trkpt><trkpt lat="45.78456158915831" lon="11.426349682000218"><ele>303.2</ele><time>2026-04-06T07:58:47Z</time></trkpt><trkpt lat="45.78461026593774" lon="11.426252170194127"><ele>304.0</ele><time>2026-04-06T07:58:48Z</time></trkpt><trkpt lat="45.784667138366494" lon="11.426133256126453"><ele>304.0</ele><time>2026-04-06T07:58:49Z</time></trkpt><trkpt lat="45.78471621508041" lon="11.425978422088509"><ele>304.0</ele><time>2026-04-06T07:58:50Z</time></trkpt><trkpt lat="45.78476854244164" lon="11.425826984569722"><ele>304.0</ele><time>2026-04-06T07:58:51Z</time></trkpt><trkpt lat="45.78482146967443" lon="11.425668068031007"><ele>304.0</ele><time>2026-04-06T07:58:52Z</time></trkpt><trkpt lat="45.7848732497966" lon="11.425510903844295"><ele>303.8</ele><time>2026-04-06T07:58:53Z</time></trkpt><trkpt lat="45.78492324289234" lon="11.42535916366854"><ele>303.59999999999997</ele><time>2026-04-06T07:58:54Z</time></trkpt><trkpt lat="45.78496882776224" lon="11.42522080430055"><ele>303.4</ele><time>2026-04-06T07:58:55Z</time></trkpt><trkpt lat="45.78501056578044" lon="11.42509412008516"><ele>303.2</ele><time>2026-04-06T07:58:56Z</time></trkpt><trkpt lat="45.785049836173265" lon="11.424981152512277"><ele>303.0</ele><time>2026-04-06T07:58:57Z</time></trkpt><trkpt lat="45.78508838812899" lon="11.424874993364527"><ele>303.0</ele><time>2026-04-06T07:58:58Z</time></trkpt><trkpt lat="45.78512256835148" lon="11.424775632219916"><ele>303.0</ele><time>2026-04-06T07:58:59Z</time></trkpt><trkpt lat="45.78516522218281" lon="11.424634236864234"><ele>303.0</ele><time>2026-04-06T07:59:01Z</time></trkpt><trkpt lat="45.78519113435702" lon="11.424547471599762"><ele>303.0</ele><time>2026-04-06T07:59:04Z</time></trkpt><trkpt lat="45.785071408349445" lon="11.424446737836007"><ele>303.0</ele><time>2026-04-06T07:59:05Z</time></trkpt><trkpt lat="45.78499010050248" lon="11.424400582159675"><ele>303.0</ele><time>2026-04-06T07:59:06Z</time></trkpt><trkpt lat="45.78489487235396" lon="11.424349674071662"><ele>303.0</ele><time>2026-04-06T07:59:07Z</time></trkpt><trkpt lat="45.78480246463098" lon="11.4242910967447"><ele>303.0</ele><time>2026-04-06T07:59:08Z</time></trkpt><trkpt lat="45.78470631362441" lon="11.42423308197992"><ele>303.0</ele><time>2026-04-06T07:59:09Z</time></trkpt><trkpt lat="45.7846119925142" lon="11.424172704431456"><ele>303.0</ele><time>2026-04-06T07:59:10Z</time></trkpt><trkpt lat="45.784516189664394" lon="11.424108331791228"><ele>303.0</ele><time>2026-04-06T07:59:11Z</time></trkpt><trkpt lat="45.78442456346986" lon="11.424048035671108"><ele>303.0</ele><time>2026-04-06T07:59:12Z</time></trkpt><trkpt lat="45.78433983372263" lon="11.42399297508389"><ele>303.0</ele><time>2026-04-06T07:59:13Z</time></trkpt><trkpt lat="45.78426682282781" lon="11.42393967939434"><ele>303.0</ele><time>2026-04-06T07:59:14Z</time></trkpt><trkpt lat="45.78420966851489" lon="11.423878117499974"><ele>303.0</ele><time>2026-04-06T07:59:15Z</time></trkpt><trkpt lat="45.784173037188765" lon="11.423792186513893"><ele>303.0</ele><time>2026-04-06T07:59:16Z</time></trkpt><trkpt lat="45.784155578737185" lon="11.423673693748533"><ele>302.0</ele><time>2026-04-06T07:59:17Z</time></trkpt><trkpt lat="45.784167328653986" lon="11.423532052990732"><ele>301.0</ele><time>2026-04-06T07:59:18Z</time></trkpt><trkpt lat="45.78420078832997" lon="11.423389255762741"><ele>300.0</ele><time>2026-04-06T07:59:19Z</time></trkpt><trkpt lat="45.784254490651534" lon="11.423247641377753"><ele>299.0</ele><time>2026-04-06T07:59:20Z</time></trkpt><trkpt lat="45.78431730189272" lon="11.42310564769003"><ele>298.0</ele><time>2026-04-06T07:59:21Z</time></trkpt><trkpt lat="45.784377819695735" lon="11.422950046751318"><ele>298.0</ele><time>2026-04-06T07:59:22Z</time></trkpt><trkpt lat="45.784437044818524" lon="11.422781994875006"><ele>298.0</ele><time>2026-04-06T07:59:23Z</time></trkpt><trkpt lat="45.784500179382626" lon="11.422610077197607"><ele>298.0</ele><time>2026-04-06T07:59:24Z</time></trkpt><trkpt lat="45.784564632235266" lon="11.422435601198156"><ele>298.0</ele><time>2026-04-06T07:59:25Z</time></trkpt><trkpt lat="45.78463020976217" lon="11.42225719882702"><ele>298.0</ele><time>2026-04-06T07:59:26Z</time></trkpt><trkpt lat="45.784697349239224" lon="11.422073770967744"><ele>298.0</ele><time>2026-04-06T07:59:27Z</time></trkpt><trkpt lat="45.78476496322639" lon="11.421886538161754"><ele>298.0</ele><time>2026-04-06T07:59:28Z</time></trkpt><trkpt lat="45.7848317060049" lon="11.421698360822868"><ele>298.0</ele><time>2026-04-06T07:59:29Z</time></trkpt><trkpt lat="45.78489739315578" lon="11.421513173868023"><ele>298.0</ele><time>2026-04-06T07:59:30Z</time></trkpt><trkpt lat="45.78497668147525" lon="11.421344285880664"><ele>298.0</ele><time>2026-04-06T07:59:31Z</time></trkpt><trkpt lat="45.78504201325253" lon="11.421164631139757"><ele>298.0</ele><time>2026-04-06T07:59:32Z</time></trkpt><trkpt lat="45.78510670914445" lon="11.420986724913904"><ele>298.0</ele><time>2026-04-06T07:59:33Z</time></trkpt><trkpt lat="45.78517036946182" lon="11.420811666454801"><ele>298.5</ele><time>2026-04-06T07:59:34Z</time></trkpt><trkpt lat="45.78523208968418" lon="11.420642005795532"><ele>299.0</ele><time>2026-04-06T07:59:35Z</time></trkpt><trkpt lat="45.78529183949404" lon="11.42047777277615"><ele>299.5</ele><time>2026-04-06T07:59:36Z</time></trkpt><trkpt lat="45.78534890982332" lon="11.42032090494533"><ele>300.0</ele><time>2026-04-06T07:59:37Z</time></trkpt><trkpt lat="45.785403368437464" lon="11.420168897874763"><ele>300.0</ele><time>2026-04-06T07:59:38Z</time></trkpt><trkpt lat="45.78545255369222" lon="11.420030762929139"><ele>300.0</ele><time>2026-04-06T07:59:39Z</time></trkpt><trkpt lat="45.78549885240015" lon="11.419900735097531"><ele>300.0</ele><time>2026-04-06T07:59:40Z</time></trkpt><trkpt lat="45.785542865135945" lon="11.419780362286193"><ele>300.0</ele><time>2026-04-06T07:59:41Z</time></trkpt><trkpt lat="45.78558215009788" lon="11.419672506547546"><ele>300.0</ele><time>2026-04-06T07:59:42Z</time></trkpt><trkpt lat="45.78561913604849" lon="11.419570518412767"><ele>300.1666666666667</ele><time>2026-04-06T07:59:43Z</time></trkpt><trkpt lat="45.785651987867276" lon="11.419479478825423"><ele>300.3333333333333</ele><time>2026-04-06T07:59:44Z</time></trkpt><trkpt lat="45.785681210077335" lon="11.419398497699904"><ele>300.5</ele><time>2026-04-06T07:59:45Z</time></trkpt><trkpt lat="45.785713648717284" lon="11.419256200192287"><ele>300.66666666666663</ele><time>2026-04-06T07:59:47Z</time></trkpt><trkpt lat="45.785769795411674" lon="11.419114368217878"><ele>300.8333333333333</ele><time>2026-04-06T07:59:53Z</time></trkpt><trkpt lat="45.78580716050572" lon="11.419006325395861"><ele>301.0</ele><time>2026-04-06T07:59:54Z</time></trkpt><trkpt lat="45.785856797694656" lon="11.418873769927563"><ele>301.25</ele><time>2026-04-06T07:59:55Z</time></trkpt><trkpt lat="45.785912837278595" lon="11.418720538359239"><ele>301.5</ele><time>2026-04-06T07:59:56Z</time></trkpt><trkpt lat="45.78597128143193" lon="11.418559997021946"><ele>301.75</ele><time>2026-04-06T07:59:57Z</time></trkpt><trkpt lat="45.786035226131375" lon="11.418391044930116"><ele>302.0</ele><time>2026-04-06T07:59:58Z</time></trkpt><trkpt lat="45.78609964050077" lon="11.418210270106178"><ele>303.25</ele><time>2026-04-06T07:59:59Z</time></trkpt><trkpt lat="45.78616578603105" lon="11.418024048931244"><ele>304.5</ele><time>2026-04-06T08:00:00Z</time></trkpt><trkpt lat="45.78623329512434" lon="11.417832686657936"><ele>305.75</ele><time>2026-04-06T08:00:01Z</time></trkpt><trkpt lat="45.7863006251882" lon="11.417642777389226"><ele>307.0</ele><time>2026-04-06T08:00:02Z</time></trkpt><trkpt lat="45.78636943612564" lon="11.417451308845632"><ele>307.0</ele><time>2026-04-06T08:00:03Z</time></trkpt><trkpt lat="45.786440491329955" lon="11.417256105963672"><ele>307.0</ele><time>2026-04-06T08:00:04Z</time></trkpt><trkpt lat="45.78651295556762" lon="11.417062175376604"><ele>307.0</ele><time>2026-04-06T08:00:05Z</time></trkpt><trkpt lat="45.78658657999373" lon="11.41686058118975"><ele>307.66666666666663</ele><time>2026-04-06T08:00:06Z</time></trkpt><trkpt lat="45.78665780272649" lon="11.416665394675615"><ele>308.3333333333333</ele><time>2026-04-06T08:00:07Z</time></trkpt><trkpt lat="45.786738624566574" lon="11.416465957559904"><ele>309.0</ele><time>2026-04-06T08:00:08Z</time></trkpt><trkpt lat="45.78680040821061" lon="11.416260855664103"><ele>308.6666666666667</ele><time>2026-04-06T08:00:09Z</time></trkpt><trkpt lat="45.78687168057236" lon="11.416063395593929"><ele>308.33333333333337</ele><time>2026-04-06T08:00:10Z</time></trkpt><trkpt lat="45.78694489123013" lon="11.415864809152428"><ele>308.0</ele><time>2026-04-06T08:00:11Z</time></trkpt><trkpt lat="45.78701682424572" lon="11.41566447626557"><ele>307.33333333333337</ele><time>2026-04-06T08:00:12Z</time></trkpt><trkpt lat="45.78709135511652" lon="11.415462818730752"><ele>306.6666666666667</ele><time>2026-04-06T08:00:13Z</time></trkpt><trkpt lat="45.78716427211648" lon="11.415260223603395"><ele>306.0</ele><time>2026-04-06T08:00:14Z</time></trkpt><trkpt lat="45.78723813337745" lon="11.415056561363365"><ele>306.0</ele><time>2026-04-06T08:00:15Z</time></trkpt><trkpt lat="45.78731324247594" lon="11.414852989106532"><ele>306.0</ele><time>2026-04-06T08:00:16Z</time></trkpt><trkpt lat="45.787388132232344" lon="11.414647298986031"><ele>306.0</ele><time>2026-04-06T08:00:17Z</time></trkpt><trkpt lat="45.787463355744976" lon="11.41444216719761"><ele>305.6666666666667</ele><time>2026-04-06T08:00:18Z</time></trkpt><trkpt lat="45.787538652616604" lon="11.414236410299619"><ele>305.33333333333337</ele><time>2026-04-06T08:00:19Z</time></trkpt><trkpt lat="45.78761519672386" lon="11.414028149118913"><ele>305.0</ele><time>2026-04-06T08:00:20Z</time></trkpt><trkpt lat="45.78770771437291" lon="11.41383531985449"><ele>304.0</ele><time>2026-04-06T08:00:21Z</time></trkpt><trkpt lat="45.787790599883955" lon="11.4136356663002"><ele>303.0</ele><time>2026-04-06T08:00:22Z</time></trkpt><trkpt lat="45.78787544545427" lon="11.413438243032264"><ele>302.0</ele><time>2026-04-06T08:00:23Z</time></trkpt><trkpt lat="45.787966546036586" lon="11.413247610391043"><ele>302.0</ele><time>2026-04-06T08:00:24Z</time></trkpt><trkpt lat="45.788051962794725" lon="11.4130493702198"><ele>302.0</ele><time>2026-04-06T08:00:25Z</time></trkpt><trkpt lat="45.78815419529524" lon="11.412869718692422"><ele>302.0</ele><time>2026-04-06T08:00:26Z</time></trkpt><trkpt lat="45.788256509704624" lon="11.412691822913166"><ele>302.33333333333337</ele><time>2026-04-06T08:00:27Z</time></trkpt><trkpt lat="45.78835881640166" lon="11.412514323601608"><ele>302.6666666666667</ele><time>2026-04-06T08:00:28Z</time></trkpt><trkpt lat="45.788458133653116" lon="11.412337115304474"><ele>303.0</ele><time>2026-04-06T08:00:29Z</time></trkpt><trkpt lat="45.7885447010718" lon="11.412186435080004"><ele>302.8333333333333</ele><time>2026-04-06T08:00:30Z</time></trkpt><trkpt lat="45.78861037810348" lon="11.412069036280005"><ele>302.6666666666667</ele><time>2026-04-06T08:00:31Z</time></trkpt><trkpt lat="45.78867161853852" lon="11.411994321370203"><ele>302.5</ele><time>2026-04-06T08:00:32Z</time></trkpt><trkpt lat="45.78873638051983" lon="11.411958873011828"><ele>302.33333333333337</ele><time>2026-04-06T08:00:33Z</time></trkpt><trkpt lat="45.78884796720721" lon="11.411935585349354"><ele>302.1666666666667</ele><time>2026-04-06T08:00:35Z</time></trkpt><trkpt lat="45.788919631189756" lon="11.411939416257741"><ele>302.0</ele><time>2026-04-06T08:00:37Z</time></trkpt><trkpt lat="45.78899523564701" lon="11.411841098332387"><ele>302.0</ele><time>2026-04-06T08:00:42Z</time></trkpt><trkpt lat="45.78907921415277" lon="11.4116478162393"><ele>302.0</ele><time>2026-04-06T08:00:44Z</time></trkpt><trkpt lat="45.78892471004215" lon="11.41184669609934"><ele>302.0</ele><time>2026-04-06T08:00:46Z</time></trkpt><trkpt lat="45.78886404442113" lon="11.411902762940274"><ele>302.0</ele><time>2026-04-06T08:00:49Z</time></trkpt><trkpt lat="45.78878602081465" lon="11.412016470554043"><ele>302.0</ele><time>2026-04-06T08:00:50Z</time></trkpt><trkpt lat="45.788841505803205" lon="11.411832389291714"><ele>302.0</ele><time>2026-04-06T08:00:52Z</time></trkpt><trkpt lat="45.78890552628633" lon="11.411738489855324"><ele>302.0</ele><time>2026-04-06T08:00:54Z</time></trkpt><trkpt lat="45.78896829617016" lon="11.411630591174813"><ele>302.0</ele><time>2026-04-06T08:00:56Z</time></trkpt><trkpt lat="45.78899048857425" lon="11.411523678917236"><ele>302.0</ele><time>2026-04-06T08:00:58Z</time></trkpt><trkpt lat="45.78900549400674" lon="11.41142616876486"><ele>302.5</ele><time>2026-04-06T08:01:00Z</time></trkpt><trkpt lat="45.78908319464819" lon="11.411294037328348"><ele>303.0</ele><time>2026-04-06T08:01:01Z</time></trkpt><trkpt lat="45.78912780794673" lon="11.411174598193142"><ele>303.5</ele><time>2026-04-06T08:01:02Z</time></trkpt><trkpt lat="45.78920281843868" lon="11.411038489407025"><ele>304.0</ele><time>2026-04-06T08:01:03Z</time></trkpt><trkpt lat="45.78928326801158" lon="11.410895629022763"><ele>303.59999999999997</ele><time>2026-04-06T08:01:04Z</time></trkpt><trkpt lat="45.78936460038612" lon="11.410755717171343"><ele>303.2</ele><time>2026-04-06T08:01:05Z</time></trkpt><trkpt lat="45.789430656012165" lon="11.410641187567807"><ele>302.79999999999995</ele><time>2026-04-06T08:01:06Z</time></trkpt><trkpt lat="45.78948596342934" lon="11.410555138901776"><ele>302.4</ele><time>2026-04-06T08:01:07Z</time></trkpt><trkpt lat="45.789543083436115" lon="11.41049949795454"><ele>302.0</ele><time>2026-04-06T08:01:08Z</time></trkpt><trkpt lat="45.78961867159566" lon="11.410498509525638"><ele>301.8</ele><time>2026-04-06T08:01:09Z</time></trkpt><trkpt lat="45.78968147320958" lon="11.410356472037321"><ele>301.6</ele><time>2026-04-06T08:01:11Z</time></trkpt><trkpt lat="45.78972740397512" lon="11.410275875608054"><ele>301.40000000000003</ele><time>2026-04-06T08:01:12Z</time></trkpt><trkpt lat="45.78977611025956" lon="11.410216583876402"><ele>301.2</ele><time>2026-04-06T08:01:13Z</time></trkpt><trkpt lat="45.789775964582056" lon="11.410093903194522"><ele>301.0</ele><time>2026-04-06T08:01:15Z</time></trkpt><trkpt lat="45.78983285562475" lon="11.409931268312672"><ele>301.0</ele><time>2026-04-06T08:01:18Z</time></trkpt><trkpt lat="45.78988318164514" lon="11.40981482732933"><ele>301.0</ele><time>2026-04-06T08:01:19Z</time></trkpt><trkpt lat="45.78994570406521" lon="11.409678363455912"><ele>301.0</ele><time>2026-04-06T08:01:20Z</time></trkpt><trkpt lat="45.790009246575" lon="11.409521448719985"><ele>301.0</ele><time>2026-04-06T08:01:21Z</time></trkpt><trkpt lat="45.7900749362758" lon="11.409363422692957"><ele>301.25</ele><time>2026-04-06T08:01:22Z</time></trkpt><trkpt lat="45.79014025931898" lon="11.409181089352503"><ele>301.5</ele><time>2026-04-06T08:01:23Z</time></trkpt><trkpt lat="45.79020267246796" lon="11.408988380016314"><ele>301.75</ele><time>2026-04-06T08:01:24Z</time></trkpt><trkpt lat="45.79025595679307" lon="11.408774572657927"><ele>302.0</ele><time>2026-04-06T08:01:25Z</time></trkpt><trkpt lat="45.79031988406236" lon="11.408567242248326"><ele>303.33333333333337</ele><time>2026-04-06T08:01:26Z</time></trkpt><trkpt lat="45.79038092819805" lon="11.408354703261354"><ele>304.6666666666667</ele><time>2026-04-06T08:01:27Z</time></trkpt><trkpt lat="45.79043958654118" lon="11.408139363351657"><ele>306.0</ele><time>2026-04-06T08:01:28Z</time></trkpt><trkpt lat="45.79051194370969" lon="11.407925933866476"><ele>306.6666666666667</ele><time>2026-04-06T08:01:29Z</time></trkpt><trkpt lat="45.790559721712604" lon="11.407701956646346"><ele>307.33333333333337</ele><time>2026-04-06T08:01:30Z</time></trkpt><trkpt lat="45.79061739011714" lon="11.407479153999535"><ele>308.0</ele><time>2026-04-06T08:01:31Z</time></trkpt><trkpt lat="45.79067845767777" lon="11.40726041516606"><ele>309.33333333333337</ele><time>2026-04-06T08:01:32Z</time></trkpt><trkpt lat="45.790738640548525" lon="11.40704556881242"><ele>310.6666666666667</ele><time>2026-04-06T08:01:33Z</time></trkpt><trkpt lat="45.79080330643177" lon="11.406827473246972"><ele>312.0</ele><time>2026-04-06T08:01:34Z</time></trkpt><trkpt lat="45.790864632386125" lon="11.40660233429454"><ele>312.0</ele><time>2026-04-06T08:01:35Z</time></trkpt><trkpt lat="45.790927294822886" lon="11.40638398194038"><ele>312.0</ele><time>2026-04-06T08:01:36Z</time></trkpt><trkpt lat="45.790989041765975" lon="11.406159442787105"><ele>312.0</ele><time>2026-04-06T08:01:37Z</time></trkpt><trkpt lat="45.791052875176895" lon="11.405936365254286"><ele>312.0</ele><time>2026-04-06T08:01:38Z</time></trkpt><trkpt lat="45.79111611753754" lon="11.405708334333074"><ele>312.0</ele><time>2026-04-06T08:01:39Z</time></trkpt><trkpt lat="45.79118205923614" lon="11.405480898594767"><ele>312.0</ele><time>2026-04-06T08:01:40Z</time></trkpt><trkpt lat="45.79124789544899" lon="11.40524981145096"><ele>312.0</ele><time>2026-04-06T08:01:41Z</time></trkpt><trkpt lat="45.79131113771323" lon="11.405015070889444"><ele>312.0</ele><time>2026-04-06T08:01:42Z</time></trkpt><trkpt lat="45.791369155839725" lon="11.404773523341918"><ele>312.0</ele><time>2026-04-06T08:01:43Z</time></trkpt><trkpt lat="45.7914223981713" lon="11.404522174036128"><ele>310.3333333333333</ele><time>2026-04-06T08:01:44Z</time></trkpt><trkpt lat="45.79147289233821" lon="11.404264771165634"><ele>308.66666666666663</ele><time>2026-04-06T08:01:45Z</time></trkpt><trkpt lat="45.791526246711385" lon="11.40400175041715"><ele>307.0</ele><time>2026-04-06T08:01:46Z</time></trkpt><trkpt lat="45.79157958104224" lon="11.403734736878382"><ele>305.3333333333333</ele><time>2026-04-06T08:01:47Z</time></trkpt><trkpt lat="45.79163318469506" lon="11.403461999307323"><ele>303.6666666666667</ele><time>2026-04-06T08:01:48Z</time></trkpt><trkpt lat="45.791687630954776" lon="11.403188015379888"><ele>302.0</ele><time>2026-04-06T08:01:49Z</time></trkpt><trkpt lat="45.79174075226614" lon="11.402909999911909"><ele>301.6666666666667</ele><time>2026-04-06T08:01:50Z</time></trkpt><trkpt lat="45.79179547800649" lon="11.402631898087185"><ele>301.3333333333333</ele><time>2026-04-06T08:01:51Z</time></trkpt><trkpt lat="45.79184999694532" lon="11.402353766177919"><ele>301.0</ele><time>2026-04-06T08:01:52Z</time></trkpt><trkpt lat="45.79190581128971" lon="11.402078949150471"><ele>301.0</ele><time>2026-04-06T08:01:53Z</time></trkpt><trkpt lat="45.79196236615335" lon="11.401803958326107"><ele>301.0</ele><time>2026-04-06T08:01:54Z</time></trkpt><trkpt lat="45.792014364700584" lon="11.401524573222192"><ele>301.0</ele><time>2026-04-06T08:01:55Z</time></trkpt><trkpt lat="45.79206925563018" lon="11.401246500356581"><ele>299.66666666666663</ele><time>2026-04-06T08:01:56Z</time></trkpt><trkpt lat="45.79212480662342" lon="11.40096220631506"><ele>298.3333333333333</ele><time>2026-04-06T08:01:57Z</time></trkpt><trkpt lat="45.79218124240212" lon="11.400692475910988"><ele>297.0</ele><time>2026-04-06T08:01:58Z</time></trkpt><trkpt lat="45.79223461972505" lon="11.400416392237398"><ele>295.6666666666667</ele><time>2026-04-06T08:01:59Z</time></trkpt><trkpt lat="45.79228792204094" lon="11.400146733907595"><ele>294.33333333333337</ele><time>2026-04-06T08:02:00Z</time></trkpt><trkpt lat="45.79235607537385" lon="11.399889171002389"><ele>293.0</ele><time>2026-04-06T08:02:01Z</time></trkpt><trkpt lat="45.79240782604237" lon="11.39963266773202"><ele>292.0</ele><time>2026-04-06T08:02:02Z</time></trkpt><trkpt lat="45.79245891251674" lon="11.39937897901841"><ele>291.0</ele><time>2026-04-06T08:02:03Z</time></trkpt><trkpt lat="45.792508798592586" lon="11.399127793233179"><ele>290.0</ele><time>2026-04-06T08:02:04Z</time></trkpt><trkpt lat="45.79254171321024" lon="11.398875227591287"><ele>290.6666666666667</ele><time>2026-04-06T08:02:05Z</time></trkpt><trkpt lat="45.79258323638228" lon="11.398634398862832"><ele>291.3333333333333</ele><time>2026-04-06T08:02:06Z</time></trkpt><trkpt lat="45.79261587017804" lon="11.39838837257634"><ele>292.0</ele><time>2026-04-06T08:02:07Z</time></trkpt><trkpt lat="45.79265762466497" lon="11.398144473525177"><ele>294.0</ele><time>2026-04-06T08:02:08Z</time></trkpt><trkpt lat="45.79267692001257" lon="11.39789786684751"><ele>296.0</ele><time>2026-04-06T08:02:09Z</time></trkpt><trkpt lat="45.792691507055714" lon="11.397648298627093"><ele>298.0</ele><time>2026-04-06T08:02:10Z</time></trkpt><trkpt lat="45.79268204208323" lon="11.397400138837988"><ele>298.0</ele><time>2026-04-06T08:02:11Z</time></trkpt><trkpt lat="45.79268836159858" lon="11.397153534160505"><ele>298.0</ele><time>2026-04-06T08:02:12Z</time></trkpt><trkpt lat="45.79269424304621" lon="11.396907143493975"><ele>298.0</ele><time>2026-04-06T08:02:13Z</time></trkpt><trkpt lat="45.79270029322579" lon="11.396656766934472"><ele>298.0</ele><time>2026-04-06T08:02:14Z</time></trkpt><trkpt lat="45.79272755367349" lon="11.396408116862643"><ele>298.0</ele><time>2026-04-06T08:02:15Z</time></trkpt><trkpt lat="45.79273438516145" lon="11.396157258723266"><ele>298.0</ele><time>2026-04-06T08:02:16Z</time></trkpt><trkpt lat="45.79274136257856" lon="11.395905848627153"><ele>298.66666666666663</ele><time>2026-04-06T08:02:17Z</time></trkpt><trkpt lat="45.792751312010004" lon="11.395650371477581"><ele>299.3333333333333</ele><time>2026-04-06T08:02:18Z</time></trkpt><trkpt lat="45.79276536218033" lon="11.395391992890012"><ele>300.0</ele><time>2026-04-06T08:02:19Z</time></trkpt><trkpt lat="45.79278083349226" lon="11.395138255865213"><ele>298.6666666666667</ele><time>2026-04-06T08:02:20Z</time></trkpt><trkpt lat="45.79281053520712" lon="11.394887344287751"><ele>297.33333333333337</ele><time>2026-04-06T08:02:21Z</time></trkpt><trkpt lat="45.79285140358926" lon="11.394642204694298"><ele>296.0</ele><time>2026-04-06T08:02:22Z</time></trkpt><trkpt lat="45.792900649198636" lon="11.394400386587755"><ele>294.0</ele><time>2026-04-06T08:02:23Z</time></trkpt><trkpt lat="45.79295997890934" lon="11.3941683471284"><ele>292.0</ele><time>2026-04-06T08:02:24Z</time></trkpt><trkpt lat="45.79302908412859" lon="11.393947212721256"><ele>290.0</ele><time>2026-04-06T08:02:25Z</time></trkpt><trkpt lat="45.79310389517764" lon="11.393728251177047"><ele>287.33333333333337</ele><time>2026-04-06T08:02:26Z</time></trkpt><trkpt lat="45.79318985195177" lon="11.39351717033548"><ele>284.6666666666667</ele><time>2026-04-06T08:02:27Z</time></trkpt><trkpt lat="45.79328764068038" lon="11.393312983512256"><ele>282.0</ele><time>2026-04-06T08:02:28Z</time></trkpt><trkpt lat="45.79339340991566" lon="11.393116215334677"><ele>280.6666666666667</ele><time>2026-04-06T08:02:29Z</time></trkpt><trkpt lat="45.79349469242635" lon="11.392909007314403"><ele>279.33333333333337</ele><time>2026-04-06T08:02:30Z</time></trkpt><trkpt lat="45.793626620354495" lon="11.392740836922076"><ele>278.0</ele><time>2026-04-06T08:02:31Z</time></trkpt><trkpt lat="45.793756903898235" lon="11.39257134547507"><ele>278.0</ele><time>2026-04-06T08:02:32Z</time></trkpt><trkpt lat="45.793891860666854" lon="11.392412640247205"><ele>278.0</ele><time>2026-04-06T08:02:33Z</time></trkpt><trkpt lat="45.794033965393695" lon="11.392271051179039"><ele>278.0</ele><time>2026-04-06T08:02:34Z</time></trkpt><trkpt lat="45.79418157173804" lon="11.392138495947583"><ele>274.6666666666667</ele><time>2026-04-06T08:02:35Z</time></trkpt><trkpt lat="45.79432773218767" lon="11.391996953788981"><ele>271.3333333333333</ele><time>2026-04-06T08:02:36Z</time></trkpt><trkpt lat="45.794490083536125" lon="11.391890766974269"><ele>268.0</ele><time>2026-04-06T08:02:37Z</time></trkpt><trkpt lat="45.79465573190048" lon="11.391799225462556"><ele>268.0</ele><time>2026-04-06T08:02:38Z</time></trkpt><trkpt lat="45.79482810939087" lon="11.391720013619294"><ele>268.0</ele><time>2026-04-06T08:02:39Z</time></trkpt><trkpt lat="45.79500285500896" lon="11.391651621261767"><ele>268.0</ele><time>2026-04-06T08:02:40Z</time></trkpt><trkpt lat="45.7951784702092" lon="11.391590894169225"><ele>270.66666666666663</ele><time>2026-04-06T08:02:41Z</time></trkpt><trkpt lat="45.79535317081529" lon="11.39153075585498"><ele>273.3333333333333</ele><time>2026-04-06T08:02:42Z</time></trkpt><trkpt lat="45.79552377264536" lon="11.391471946123133"><ele>276.0</ele><time>2026-04-06T08:02:43Z</time></trkpt><trkpt lat="45.79569109652775" lon="11.391408088307331"><ele>276.0</ele><time>2026-04-06T08:02:44Z</time></trkpt><trkpt lat="45.795856351584376" lon="11.391341177884122"><ele>276.0</ele><time>2026-04-06T08:02:45Z</time></trkpt><trkpt lat="45.7960186916148" lon="11.391260240857344"><ele>276.0</ele><time>2026-04-06T08:02:46Z</time></trkpt><trkpt lat="45.79617440440641" lon="11.391149426515884"><ele>273.3333333333333</ele><time>2026-04-06T08:02:47Z</time></trkpt><trkpt lat="45.79631665780032" lon="11.391013218105021"><ele>270.66666666666663</ele><time>2026-04-06T08:02:48Z</time></trkpt><trkpt lat="45.79644200777932" lon="11.390849283732956"><ele>268.0</ele><time>2026-04-06T08:02:49Z</time></trkpt><trkpt lat="45.79655118396238" lon="11.39066719672863"><ele>265.3333333333333</ele><time>2026-04-06T08:02:50Z</time></trkpt><trkpt lat="45.79664249419535" lon="11.390462581095434"><ele>262.6666666666667</ele><time>2026-04-06T08:02:51Z</time></trkpt><trkpt lat="45.796716340538964" lon="11.390248285734426"><ele>260.0</ele><time>2026-04-06T08:02:52Z</time></trkpt><trkpt lat="45.79679343457747" lon="11.390042587096723"><ele>262.0</ele><time>2026-04-06T08:02:53Z</time></trkpt><trkpt lat="45.796839329264785" lon="11.389853145424842"><ele>264.0</ele><time>2026-04-06T08:02:54Z</time></trkpt><trkpt lat="45.79688350439856" lon="11.389670801874077"><ele>266.0</ele><time>2026-04-06T08:02:55Z</time></trkpt><trkpt lat="45.79692975623183" lon="11.38948142905323"><ele>268.0</ele><time>2026-04-06T08:02:56Z</time></trkpt><trkpt lat="45.796977750533635" lon="11.389284174509756"><ele>268.0</ele><time>2026-04-06T08:02:57Z</time></trkpt><trkpt lat="45.79702806275195" lon="11.389075905426564"><ele>268.0</ele><time>2026-04-06T08:02:58Z</time></trkpt><trkpt lat="45.797080147014185" lon="11.388860300840888"><ele>268.0</ele><time>2026-04-06T08:02:59Z</time></trkpt><trkpt lat="45.797134088823874" lon="11.388637006755117"><ele>265.3333333333333</ele><time>2026-04-06T08:03:00Z</time></trkpt><trkpt lat="45.79718928883569" lon="11.388408504519491"><ele>262.6666666666667</ele><time>2026-04-06T08:03:01Z</time></trkpt><trkpt lat="45.797244805895986" lon="11.388178689672364"><ele>260.0</ele><time>2026-04-06T08:03:02Z</time></trkpt><trkpt lat="45.7973015763818" lon="11.387943686137971"><ele>258.6666666666667</ele><time>2026-04-06T08:03:03Z</time></trkpt><trkpt lat="45.79735882778539" lon="11.387706692029154"><ele>257.3333333333333</ele><time>2026-04-06T08:03:04Z</time></trkpt><trkpt lat="45.7974164927469" lon="11.387467988850842"><ele>256.0</ele><time>2026-04-06T08:03:05Z</time></trkpt><trkpt lat="45.79747453771052" lon="11.38722598035986"><ele>255.66666666666666</ele><time>2026-04-06T08:03:06Z</time></trkpt><trkpt lat="45.79753263491051" lon="11.38698132844592"><ele>255.33333333333331</ele><time>2026-04-06T08:03:07Z</time></trkpt><trkpt lat="45.7975888207014" lon="11.386734331599726"><ele>255.0</ele><time>2026-04-06T08:03:08Z</time></trkpt><trkpt lat="45.79764889127522" lon="11.38648880932257"><ele>257.6666666666667</ele><time>2026-04-06T08:03:09Z</time></trkpt><trkpt lat="45.79770824674562" lon="11.38624110555779"><ele>260.33333333333337</ele><time>2026-04-06T08:03:10Z</time></trkpt><trkpt lat="45.797767413683296" lon="11.385994235754126"><ele>263.0</ele><time>2026-04-06T08:03:11Z</time></trkpt><trkpt lat="45.79782656836293" lon="11.38574741715511"><ele>261.0</ele><time>2026-04-06T08:03:12Z</time></trkpt><trkpt lat="45.79788539347753" lon="11.385501973611232"><ele>259.0</ele><time>2026-04-06T08:03:13Z</time></trkpt><trkpt lat="45.79794363186609" lon="11.385257445878581"><ele>257.0</ele><time>2026-04-06T08:03:14Z</time></trkpt><trkpt lat="45.79800165951897" lon="11.385013196334869"><ele>257.0</ele><time>2026-04-06T08:03:15Z</time></trkpt><trkpt lat="45.79806150911479" lon="11.384769968571828"><ele>257.0</ele><time>2026-04-06T08:03:16Z</time></trkpt><trkpt lat="45.79812644030971" lon="11.3845300054044"><ele>257.0</ele><time>2026-04-06T08:03:17Z</time></trkpt><trkpt lat="45.798202074644564" lon="11.384297739002223"><ele>256.6666666666667</ele><time>2026-04-06T08:03:18Z</time></trkpt><trkpt lat="45.79828491252048" lon="11.384070012149111"><ele>256.3333333333333</ele><time>2026-04-06T08:03:19Z</time></trkpt><trkpt lat="45.79836116000844" lon="11.383837628603477"><ele>256.0</ele><time>2026-04-06T08:03:20Z</time></trkpt><trkpt lat="45.79846156848" lon="11.383623990187388"><ele>257.0</ele><time>2026-04-06T08:03:21Z</time></trkpt><trkpt lat="45.79856373840616" lon="11.383418704754813"><ele>258.0</ele><time>2026-04-06T08:03:22Z</time></trkpt><trkpt lat="45.79866667670529" lon="11.383212681379574"><ele>259.0</ele><time>2026-04-06T08:03:23Z</time></trkpt><trkpt lat="45.798782590121476" lon="11.383024894700263"><ele>258.3333333333333</ele><time>2026-04-06T08:03:24Z</time></trkpt><trkpt lat="45.79888192873636" lon="11.3828231545663"><ele>257.6666666666667</ele><time>2026-04-06T08:03:25Z</time></trkpt><trkpt lat="45.79898046624133" lon="11.38262304021458"><ele>257.0</ele><time>2026-04-06T08:03:26Z</time></trkpt><trkpt lat="45.799079565185764" lon="11.382425039033388"><ele>257.0</ele><time>2026-04-06T08:03:27Z</time></trkpt><trkpt lat="45.7991767796215" lon="11.382230972937585"><ele>257.0</ele><time>2026-04-06T08:03:28Z</time></trkpt><trkpt lat="45.79926732212443" lon="11.382049742558113"><ele>257.0</ele><time>2026-04-06T08:03:29Z</time></trkpt><trkpt lat="45.79934679044559" lon="11.381890156183296"><ele>257.25</ele><time>2026-04-06T08:03:30Z</time></trkpt><trkpt lat="45.79941550287473" lon="11.381746313765024"><ele>257.5</ele><time>2026-04-06T08:03:31Z</time></trkpt><trkpt lat="45.79947933817838" lon="11.381610339487837"><ele>257.75</ele><time>2026-04-06T08:03:32Z</time></trkpt><trkpt lat="45.79954110851156" lon="11.381479157787794"><ele>258.0</ele><time>2026-04-06T08:03:33Z</time></trkpt><trkpt lat="45.79960770534169" lon="11.381339174669034"><ele>258.0</ele><time>2026-04-06T08:03:34Z</time></trkpt><trkpt lat="45.799664998283745" lon="11.381177702232456"><ele>258.0</ele><time>2026-04-06T08:03:35Z</time></trkpt><trkpt lat="45.79974162951098" lon="11.381028493187626"><ele>258.0</ele><time>2026-04-06T08:03:36Z</time></trkpt><trkpt lat="45.79982294517015" lon="11.38086639179476"><ele>258.0</ele><time>2026-04-06T08:03:37Z</time></trkpt><trkpt lat="45.79990306682075" lon="11.380702226262608"><ele>258.0</ele><time>2026-04-06T08:03:38Z</time></trkpt><trkpt lat="45.799985273648325" lon="11.380531102577804"><ele>258.0</ele><time>2026-04-06T08:03:39Z</time></trkpt><trkpt lat="45.800070160541836" lon="11.380355970303375"><ele>258.0</ele><time>2026-04-06T08:03:40Z</time></trkpt><trkpt lat="45.80016847616977" lon="11.380196328396448"><ele>258.0</ele><time>2026-04-06T08:03:41Z</time></trkpt><trkpt lat="45.80025401794137" lon="11.380029559581239"><ele>258.25</ele><time>2026-04-06T08:03:42Z</time></trkpt><trkpt lat="45.80033768408656" lon="11.37986573899639"><ele>258.5</ele><time>2026-04-06T08:03:43Z</time></trkpt><trkpt lat="45.80042259983222" lon="11.379699470103033"><ele>258.75</ele><time>2026-04-06T08:03:44Z</time></trkpt><trkpt lat="45.800509001978334" lon="11.379528700091383"><ele>259.0</ele><time>2026-04-06T08:03:45Z</time></trkpt><trkpt lat="45.80059644476189" lon="11.379357874995693"><ele>259.0</ele><time>2026-04-06T08:03:46Z</time></trkpt><trkpt lat="45.800684973579344" lon="11.37918512486099"><ele>259.0</ele><time>2026-04-06T08:03:47Z</time></trkpt><trkpt lat="45.80076687762414" lon="11.379023089149939"><ele>259.0</ele><time>2026-04-06T08:03:48Z</time></trkpt><trkpt lat="45.800846798020864" lon="11.378863996425657"><ele>259.0</ele><time>2026-04-06T08:03:49Z</time></trkpt><trkpt lat="45.80092229177666" lon="11.37871110730127"><ele>258.75</ele><time>2026-04-06T08:03:50Z</time></trkpt><trkpt lat="45.800997260605456" lon="11.378559257925554"><ele>258.5</ele><time>2026-04-06T08:03:51Z</time></trkpt><trkpt lat="45.801074522407816" lon="11.378403866970077"><ele>258.25</ele><time>2026-04-06T08:03:52Z</time></trkpt><trkpt lat="45.80113205834138" lon="11.378221010382875"><ele>258.0</ele><time>2026-04-06T08:03:53Z</time></trkpt><trkpt lat="45.80121450461887" lon="11.378054501705675"><ele>258.0</ele><time>2026-04-06T08:03:54Z</time></trkpt><trkpt lat="45.8012992025882" lon="11.377881867078225"><ele>258.0</ele><time>2026-04-06T08:03:55Z</time></trkpt><trkpt lat="45.80138659238621" lon="11.377699078970455"><ele>258.0</ele><time>2026-04-06T08:03:56Z</time></trkpt><trkpt lat="45.80148209598033" lon="11.377496793834975"><ele>258.0</ele><time>2026-04-06T08:03:57Z</time></trkpt><trkpt lat="45.801583170717116" lon="11.377283917764457"><ele>258.0</ele><time>2026-04-06T08:03:58Z</time></trkpt><trkpt lat="45.801721720775625" lon="11.377100737048114"><ele>258.0</ele><time>2026-04-06T08:03:59Z</time></trkpt><trkpt lat="45.8018327773077" lon="11.376876849350285"><ele>257.3333333333333</ele><time>2026-04-06T08:04:00Z</time></trkpt><trkpt lat="45.80194651131701" lon="11.376648159341633"><ele>256.66666666666663</ele><time>2026-04-06T08:04:01Z</time></trkpt><trkpt lat="45.80205862888994" lon="11.376422052639679"><ele>256.0</ele><time>2026-04-06T08:04:02Z</time></trkpt><trkpt lat="45.80217154077526" lon="11.37619441344352"><ele>256.0</ele><time>2026-04-06T08:04:03Z</time></trkpt><trkpt lat="45.80228379238253" lon="11.375967347526307"><ele>256.0</ele><time>2026-04-06T08:04:04Z</time></trkpt><trkpt lat="45.80238303389822" lon="11.375729670805788"><ele>256.0</ele><time>2026-04-06T08:04:05Z</time></trkpt><trkpt lat="45.80249531649415" lon="11.375505872112923"><ele>256.3333333333333</ele><time>2026-04-06T08:04:06Z</time></trkpt><trkpt lat="45.802604975575534" lon="11.375280546239493"><ele>256.6666666666667</ele><time>2026-04-06T08:04:07Z</time></trkpt><trkpt lat="45.80271076603164" lon="11.375055028205926"><ele>257.0</ele><time>2026-04-06T08:04:08Z</time></trkpt><trkpt lat="45.80281209748196" lon="11.374827367998712"><ele>258.33333333333337</ele><time>2026-04-06T08:04:09Z</time></trkpt><trkpt lat="45.80290580030783" lon="11.37459515269971"><ele>259.6666666666667</ele><time>2026-04-06T08:04:10Z</time></trkpt><trkpt lat="45.80299209945016" lon="11.374357782007896"><ele>261.0</ele><time>2026-04-06T08:04:11Z</time></trkpt><trkpt lat="45.80306783002322" lon="11.374116612478575"><ele>261.0</ele><time>2026-04-06T08:04:12Z</time></trkpt><trkpt lat="45.80313780465809" lon="11.373870382792326"><ele>261.0</ele><time>2026-04-06T08:04:13Z</time></trkpt><trkpt lat="45.80320244883794" lon="11.373619156592461"><ele>261.0</ele><time>2026-04-06T08:04:14Z</time></trkpt><trkpt lat="45.80326082411322" lon="11.37336401980038"><ele>260.6666666666667</ele><time>2026-04-06T08:04:15Z</time></trkpt><trkpt lat="45.80330911963058" lon="11.373106489450045"><ele>260.33333333333337</ele><time>2026-04-06T08:04:16Z</time></trkpt><trkpt lat="45.80335045334538" lon="11.37284686776547"><ele>260.0</ele><time>2026-04-06T08:04:17Z</time></trkpt><trkpt lat="45.80338635421884" lon="11.372582743241951"><ele>260.0</ele><time>2026-04-06T08:04:18Z</time></trkpt><trkpt lat="45.80341334663414" lon="11.372318104166286"><ele>260.0</ele><time>2026-04-06T08:04:19Z</time></trkpt><trkpt lat="45.80343023433521" lon="11.372050890682049"><ele>260.0</ele><time>2026-04-06T08:04:20Z</time></trkpt><trkpt lat="45.80343826744186" lon="11.371782161255577"><ele>260.0</ele><time>2026-04-06T08:04:21Z</time></trkpt><trkpt lat="45.803442057251914" lon="11.371513161596294"><ele>260.0</ele><time>2026-04-06T08:04:22Z</time></trkpt><trkpt lat="45.803436296017274" lon="11.371241717475007"><ele>260.0</ele><time>2026-04-06T08:04:23Z</time></trkpt><trkpt lat="45.80342672597472" lon="11.37097017079606"><ele>259.6666666666667</ele><time>2026-04-06T08:04:24Z</time></trkpt><trkpt lat="45.80341505012654" lon="11.370698716878014"><ele>259.3333333333333</ele><time>2026-04-06T08:04:25Z</time></trkpt><trkpt lat="45.803420734096925" lon="11.370424315129387"><ele>259.0</ele><time>2026-04-06T08:04:26Z</time></trkpt><trkpt lat="45.803410059165216" lon="11.370152727378454"><ele>260.0</ele><time>2026-04-06T08:04:27Z</time></trkpt><trkpt lat="45.80339944686195" lon="11.369882733325593"><ele>261.0</ele><time>2026-04-06T08:04:28Z</time></trkpt><trkpt lat="45.80338898152009" lon="11.36961647769641"><ele>262.0</ele><time>2026-04-06T08:04:29Z</time></trkpt><trkpt lat="45.80337864349483" lon="11.369353461590768"><ele>262.66666666666663</ele><time>2026-04-06T08:04:30Z</time></trkpt><trkpt lat="45.803368854326806" lon="11.369093863759382"><ele>263.3333333333333</ele><time>2026-04-06T08:04:31Z</time></trkpt><trkpt lat="45.80335931303733" lon="11.368838324809378"><ele>264.0</ele><time>2026-04-06T08:04:32Z</time></trkpt><trkpt lat="45.80334986317747" lon="11.36858523417803"><ele>265.6666666666667</ele><time>2026-04-06T08:04:33Z</time></trkpt><trkpt lat="45.80333989658562" lon="11.36833404917596"><ele>267.33333333333337</ele><time>2026-04-06T08:04:34Z</time></trkpt><trkpt lat="45.803329669603144" lon="11.368086888492506"><ele>269.0</ele><time>2026-04-06T08:04:35Z</time></trkpt><trkpt lat="45.803320729188584" lon="11.367843520300756"><ele>271.6666666666667</ele><time>2026-04-06T08:04:36Z</time></trkpt><trkpt lat="45.80331262938408" lon="11.367607498589264"><ele>274.3333333333333</ele><time>2026-04-06T08:04:37Z</time></trkpt><trkpt lat="45.80330479901664" lon="11.367389966167831"><ele>277.0</ele><time>2026-04-06T08:04:38Z</time></trkpt><trkpt lat="45.8032958063788" lon="11.367187295008288"><ele>277.75</ele><time>2026-04-06T08:04:39Z</time></trkpt><trkpt lat="45.80328786072981" lon="11.366989797911788"><ele>278.5</ele><time>2026-04-06T08:04:40Z</time></trkpt><trkpt lat="45.803279966845025" lon="11.366794353734706"><ele>279.25</ele><time>2026-04-06T08:04:41Z</time></trkpt><trkpt lat="45.80324663672763" lon="11.366604680765032"><ele>280.0</ele><time>2026-04-06T08:04:42Z</time></trkpt><trkpt lat="45.80323740598756" lon="11.366422075948671"><ele>280.25</ele><time>2026-04-06T08:04:43Z</time></trkpt><trkpt lat="45.80323016700026" lon="11.3662451646115"><ele>280.5</ele><time>2026-04-06T08:04:44Z</time></trkpt><trkpt lat="45.80322151690693" lon="11.366079119610198"><ele>280.75</ele><time>2026-04-06T08:04:45Z</time></trkpt><trkpt lat="45.80324381921994" lon="11.365899378034673"><ele>281.0</ele><time>2026-04-06T08:04:46Z</time></trkpt><trkpt lat="45.803236358432166" lon="11.365714657001647"><ele>281.0</ele><time>2026-04-06T08:04:47Z</time></trkpt><trkpt lat="45.80322901865019" lon="11.365532931999391"><ele>281.0</ele><time>2026-04-06T08:04:48Z</time></trkpt><trkpt lat="45.80322315520561" lon="11.365347601590905"><ele>281.0</ele><time>2026-04-06T08:04:49Z</time></trkpt><trkpt lat="45.80321860513452" lon="11.36515952214246"><ele>281.0</ele><time>2026-04-06T08:04:50Z</time></trkpt><trkpt lat="45.803215943824426" lon="11.364964857399055"><ele>282.25</ele><time>2026-04-06T08:04:51Z</time></trkpt><trkpt lat="45.803220804690035" lon="11.364769792249335"><ele>283.5</ele><time>2026-04-06T08:04:52Z</time></trkpt><trkpt lat="45.80323467083596" lon="11.364578387489004"><ele>284.75</ele><time>2026-04-06T08:04:53Z</time></trkpt><trkpt lat="45.80325494508137" lon="11.364387046493484"><ele>286.0</ele><time>2026-04-06T08:04:54Z</time></trkpt><trkpt lat="45.80328292980533" lon="11.364197247655415"><ele>287.0</ele><time>2026-04-06T08:04:55Z</time></trkpt><trkpt lat="45.803305006946" lon="11.364006302605347"><ele>288.0</ele><time>2026-04-06T08:04:56Z</time></trkpt><trkpt lat="45.80336557298918" lon="11.363837877514264"><ele>289.0</ele><time>2026-04-06T08:04:57Z</time></trkpt><trkpt lat="45.803417686735735" lon="11.36366720254268"><ele>290.0</ele><time>2026-04-06T08:04:58Z</time></trkpt><trkpt lat="45.803476169779316" lon="11.363497379218602"><ele>292.75</ele><time>2026-04-06T08:04:59Z</time></trkpt><trkpt lat="45.80353962733362" lon="11.36333788709692"><ele>295.5</ele><time>2026-04-06T08:05:00Z</time></trkpt><trkpt lat="45.80360248051622" lon="11.363181261263065"><ele>298.25</ele><time>2026-04-06T08:05:01Z</time></trkpt><trkpt lat="45.80366639629984" lon="11.363021987518886"><ele>301.0</ele><time>2026-04-06T08:05:02Z</time></trkpt><trkpt lat="45.803731054011614" lon="11.362860937492812"><ele>301.0</ele><time>2026-04-06T08:05:03Z</time></trkpt><trkpt lat="45.8037969356166" lon="11.362699001608185"><ele>301.0</ele><time>2026-04-06T08:05:04Z</time></trkpt><trkpt lat="45.80386349006896" lon="11.36253602403586"><ele>301.0</ele><time>2026-04-06T08:05:05Z</time></trkpt><trkpt lat="45.803929243204024" lon="11.362374893387036"><ele>301.0</ele><time>2026-04-06T08:05:06Z</time></trkpt><trkpt lat="45.80399558629326" lon="11.362212317253647"><ele>302.75</ele><time>2026-04-06T08:05:07Z</time></trkpt><trkpt lat="45.804040222858" lon="11.362034007399197"><ele>304.5</ele><time>2026-04-06T08:05:08Z</time></trkpt><trkpt lat="45.8041061033886" lon="11.361875042882787"><ele>306.25</ele><time>2026-04-06T08:05:09Z</time></trkpt><trkpt lat="45.804170981262615" lon="11.36171266860656"><ele>308.0</ele><time>2026-04-06T08:05:10Z</time></trkpt><trkpt lat="45.80423728977421" lon="11.36154547383339"><ele>308.0</ele><time>2026-04-06T08:05:11Z</time></trkpt><trkpt lat="45.804325137747426" lon="11.361397821895048"><ele>308.0</ele><time>2026-04-06T08:05:12Z</time></trkpt><trkpt lat="45.804391991317814" lon="11.361231839032865"><ele>308.0</ele><time>2026-04-06T08:05:13Z</time></trkpt><trkpt lat="45.80446095319295" lon="11.361060621782038"><ele>308.0</ele><time>2026-04-06T08:05:14Z</time></trkpt><trkpt lat="45.80452768217302" lon="11.36089494832582"><ele>308.25</ele><time>2026-04-06T08:05:15Z</time></trkpt><trkpt lat="45.80459286274375" lon="11.360733119260214"><ele>308.5</ele><time>2026-04-06T08:05:16Z</time></trkpt><trkpt lat="45.80465908499108" lon="11.360572715824377"><ele>308.75</ele><time>2026-04-06T08:05:17Z</time></trkpt><trkpt lat="45.80472974706685" lon="11.36041879490172"><ele>309.0</ele><time>2026-04-06T08:05:18Z</time></trkpt><trkpt lat="45.80480025010873" lon="11.360278301961758"><ele>309.2</ele><time>2026-04-06T08:05:19Z</time></trkpt><trkpt lat="45.80486742418685" lon="11.360158910013661"><ele>309.4</ele><time>2026-04-06T08:05:20Z</time></trkpt><trkpt lat="45.80493479251017" lon="11.360051841974526"><ele>309.6</ele><time>2026-04-06T08:05:21Z</time></trkpt><trkpt lat="45.80500809327654" lon="11.35995333344312"><ele>309.8</ele><time>2026-04-06T08:05:22Z</time></trkpt><trkpt lat="45.805083982375756" lon="11.35986381034178"><ele>310.0</ele><time>2026-04-06T08:05:23Z</time></trkpt><trkpt lat="45.80515404033358" lon="11.359769752215827"><ele>310.0</ele><time>2026-04-06T08:05:24Z</time></trkpt><trkpt lat="45.80524010631313" lon="11.359689024751157"><ele>310.0</ele><time>2026-04-06T08:05:25Z</time></trkpt><trkpt lat="45.805331413266785" lon="11.359610802423076"><ele>310.0</ele><time>2026-04-06T08:05:26Z</time></trkpt><trkpt lat="45.805415310600324" lon="11.359541923218023"><ele>310.0</ele><time>2026-04-06T08:05:27Z</time></trkpt><trkpt lat="45.80550308814107" lon="11.359480142777048"><ele>310.0</ele><time>2026-04-06T08:05:28Z</time></trkpt><trkpt lat="45.80558637911237" lon="11.35942426102711"><ele>310.0</ele><time>2026-04-06T08:05:29Z</time></trkpt><trkpt lat="45.805684713645654" lon="11.35936162869656"><ele>310.0</ele><time>2026-04-06T08:05:30Z</time></trkpt><trkpt lat="45.80580114071322" lon="11.359315475512478"><ele>310.0</ele><time>2026-04-06T08:05:31Z</time></trkpt><trkpt lat="45.80592975143361" lon="11.359290433738531"><ele>310.0</ele><time>2026-04-06T08:05:32Z</time></trkpt><trkpt lat="45.806070677042804" lon="11.359279145600723"><ele>310.3333333333333</ele><time>2026-04-06T08:05:33Z</time></trkpt><trkpt lat="45.80621855577753" lon="11.359283783912323"><ele>310.6666666666667</ele><time>2026-04-06T08:05:34Z</time></trkpt><trkpt lat="45.80636764382819" lon="11.359309417286427"><ele>311.0</ele><time>2026-04-06T08:05:35Z</time></trkpt><trkpt lat="45.80651721311282" lon="11.359355417647667"><ele>311.0</ele><time>2026-04-06T08:05:36Z</time></trkpt><trkpt lat="45.806665922062976" lon="11.359415233881164"><ele>311.0</ele><time>2026-04-06T08:05:37Z</time></trkpt><trkpt lat="45.806816341786664" lon="11.359484016964116"><ele>311.0</ele><time>2026-04-06T08:05:38Z</time></trkpt><trkpt lat="45.80696265834477" lon="11.35956109191081"><ele>311.0</ele><time>2026-04-06T08:05:39Z</time></trkpt><trkpt lat="45.807102812644864" lon="11.3596417439795"><ele>311.0</ele><time>2026-04-06T08:05:40Z</time></trkpt><trkpt lat="45.807236468661365" lon="11.359715729283073"><ele>311.0</ele><time>2026-04-06T08:05:41Z</time></trkpt><trkpt lat="45.80736728204444" lon="11.359783879149717"><ele>311.0</ele><time>2026-04-06T08:05:42Z</time></trkpt><trkpt lat="45.80749273276756" lon="11.359850883820743"><ele>310.8</ele><time>2026-04-06T08:05:43Z</time></trkpt><trkpt lat="45.80761266360757" lon="11.359914548661191"><ele>310.6</ele><time>2026-04-06T08:05:44Z</time></trkpt><trkpt lat="45.80771020248082" lon="11.359962180453875"><ele>310.4</ele><time>2026-04-06T08:05:45Z</time></trkpt><trkpt lat="45.80778770468475" lon="11.360000942971787"><ele>310.2</ele><time>2026-04-06T08:05:46Z</time></trkpt><trkpt lat="45.80786048970694" lon="11.36006498161803"><ele>310.0</ele><time>2026-04-06T08:05:47Z</time></trkpt><trkpt lat="45.80795674219532" lon="11.360119320952089"><ele>310.0</ele><time>2026-04-06T08:05:48Z</time></trkpt><trkpt lat="45.80807056381034" lon="11.360163261992854"><ele>310.0</ele><time>2026-04-06T08:05:49Z</time></trkpt><trkpt lat="45.80819327619113" lon="11.360236118061373"><ele>310.0</ele><time>2026-04-06T08:05:50Z</time></trkpt><trkpt lat="45.80832834966453" lon="11.360315102613198"><ele>310.0</ele><time>2026-04-06T08:05:51Z</time></trkpt><trkpt lat="45.80846983086347" lon="11.360400163045789"><ele>310.3333333333333</ele><time>2026-04-06T08:05:52Z</time></trkpt><trkpt lat="45.80861683783724" lon="11.360486688262416"><ele>310.6666666666667</ele><time>2026-04-06T08:05:53Z</time></trkpt><trkpt lat="45.808769437348" lon="11.360575067596107"><ele>311.0</ele><time>2026-04-06T08:05:54Z</time></trkpt><trkpt lat="45.80892717350499" lon="11.360664791503488"><ele>311.0</ele><time>2026-04-06T08:05:55Z</time></trkpt><trkpt lat="45.80908630369102" lon="11.360755151820685"><ele>311.0</ele><time>2026-04-06T08:05:56Z</time></trkpt><trkpt lat="45.80924737108526" lon="11.360845969723913"><ele>311.0</ele><time>2026-04-06T08:05:57Z</time></trkpt><trkpt lat="45.80940934155542" lon="11.360938110518967"><ele>312.0</ele><time>2026-04-06T08:05:58Z</time></trkpt><trkpt lat="45.80957249188987" lon="11.361029695347634"><ele>313.0</ele><time>2026-04-06T08:05:59Z</time></trkpt><trkpt lat="45.80973866640457" lon="11.361122366816295"><ele>314.0</ele><time>2026-04-06T08:06:00Z</time></trkpt><trkpt lat="45.809904525245635" lon="11.3612175397854"><ele>314.0</ele><time>2026-04-06T08:06:01Z</time></trkpt><trkpt lat="45.81007060547395" lon="11.361312129644341"><ele>314.0</ele><time>2026-04-06T08:06:02Z</time></trkpt><trkpt lat="45.81023756988607" lon="11.361406219788252"><ele>314.0</ele><time>2026-04-06T08:06:03Z</time></trkpt><trkpt lat="45.810404841131735" lon="11.361498620548927"><ele>314.0</ele><time>2026-04-06T08:06:04Z</time></trkpt><trkpt lat="45.81057071978789" lon="11.361589098699245"><ele>314.0</ele><time>2026-04-06T08:06:05Z</time></trkpt><trkpt lat="45.8107374712583" lon="11.36167870492171"><ele>314.0</ele><time>2026-04-06T08:06:06Z</time></trkpt><trkpt lat="45.810903382022325" lon="11.361769943784884"><ele>314.6666666666667</ele><time>2026-04-06T08:06:07Z</time></trkpt><trkpt lat="45.81106676341929" lon="11.361862501808325"><ele>315.3333333333333</ele><time>2026-04-06T08:06:08Z</time></trkpt><trkpt lat="45.811234124401246" lon="11.361953428860732"><ele>316.0</ele><time>2026-04-06T08:06:09Z</time></trkpt><trkpt lat="45.81139770985654" lon="11.3620417412915"><ele>316.0</ele><time>2026-04-06T08:06:10Z</time></trkpt><trkpt lat="45.811559257846326" lon="11.362129929063757"><ele>316.0</ele><time>2026-04-06T08:06:11Z</time></trkpt><trkpt lat="45.81171850676447" lon="11.362218852457291"><ele>316.0</ele><time>2026-04-06T08:06:12Z</time></trkpt><trkpt lat="45.811874926739264" lon="11.362307406445785"><ele>315.3333333333333</ele><time>2026-04-06T08:06:13Z</time></trkpt><trkpt lat="45.8120285098692" lon="11.362390608543679"><ele>314.6666666666667</ele><time>2026-04-06T08:06:14Z</time></trkpt><trkpt lat="45.81217810367034" lon="11.362469436962012"><ele>314.0</ele><time>2026-04-06T08:06:15Z</time></trkpt><trkpt lat="45.812322546249135" lon="11.362549714063876"><ele>314.0</ele><time>2026-04-06T08:06:16Z</time></trkpt><trkpt lat="45.81246374258188" lon="11.362629963812848"><ele>314.0</ele><time>2026-04-06T08:06:17Z</time></trkpt><trkpt lat="45.81260370843244" lon="11.36271061962159"><ele>314.0</ele><time>2026-04-06T08:06:18Z</time></trkpt><trkpt lat="45.812746548396554" lon="11.362792906990373"><ele>315.6666666666667</ele><time>2026-04-06T08:06:19Z</time></trkpt><trkpt lat="45.81289531802946" lon="11.362878160460262"><ele>317.3333333333333</ele><time>2026-04-06T08:06:20Z</time></trkpt><trkpt lat="45.81305040208035" lon="11.362964937420854"><ele>319.0</ele><time>2026-04-06T08:06:21Z</time></trkpt><trkpt lat="45.813207852219165" lon="11.36305430372574"><ele>319.0</ele><time>2026-04-06T08:06:22Z</time></trkpt><trkpt lat="45.8133690161485" lon="11.36314424920654"><ele>319.0</ele><time>2026-04-06T08:06:23Z</time></trkpt><trkpt lat="45.81353149955035" lon="11.363233478677087"><ele>319.0</ele><time>2026-04-06T08:06:24Z</time></trkpt><trkpt lat="45.813695464497435" lon="11.363319935938959"><ele>320.0</ele><time>2026-04-06T08:06:25Z</time></trkpt><trkpt lat="45.81386726735046" lon="11.363391900855705"><ele>321.0</ele><time>2026-04-06T08:06:26Z</time></trkpt><trkpt lat="45.81404201538293" lon="11.36344864006295"><ele>322.0</ele><time>2026-04-06T08:06:27Z</time></trkpt><trkpt lat="45.81422252648438" lon="11.363477038781532"><ele>323.0</ele><time>2026-04-06T08:06:28Z</time></trkpt><trkpt lat="45.81440742816934" lon="11.363504501298582"><ele>324.0</ele><time>2026-04-06T08:06:29Z</time></trkpt><trkpt lat="45.81459298745516" lon="11.363458560602979"><ele>325.0</ele><time>2026-04-06T08:06:30Z</time></trkpt><trkpt lat="45.81477504886978" lon="11.363413385424908"><ele>325.0</ele><time>2026-04-06T08:06:31Z</time></trkpt><trkpt lat="45.81495806608881" lon="11.363354288296575"><ele>325.0</ele><time>2026-04-06T08:06:32Z</time></trkpt><trkpt lat="45.8151405874832" lon="11.363293435744243"><ele>325.0</ele><time>2026-04-06T08:06:33Z</time></trkpt><trkpt lat="45.81532512723675" lon="11.36323172847147"><ele>324.66666666666663</ele><time>2026-04-06T08:06:34Z</time></trkpt><trkpt lat="45.8155086816747" lon="11.363173483191774"><ele>324.3333333333333</ele><time>2026-04-06T08:06:35Z</time></trkpt><trkpt lat="45.81569342091165" lon="11.363123554354091"><ele>324.0</ele><time>2026-04-06T08:06:36Z</time></trkpt><trkpt lat="45.81587899532513" lon="11.36308306106825"><ele>325.0</ele><time>2026-04-06T08:06:37Z</time></trkpt><trkpt lat="45.816065288562676" lon="11.363060084282278"><ele>326.0</ele><time>2026-04-06T08:06:38Z</time></trkpt><trkpt lat="45.816254187661656" lon="11.363050407685215"><ele>327.0</ele><time>2026-04-06T08:06:39Z</time></trkpt><trkpt lat="45.81644370748649" lon="11.363062517992248"><ele>327.0</ele><time>2026-04-06T08:06:40Z</time></trkpt><trkpt lat="45.816631305189794" lon="11.363093068531487"><ele>327.0</ele><time>2026-04-06T08:06:41Z</time></trkpt><trkpt lat="45.81681845561985" lon="11.363138166697434"><ele>327.0</ele><time>2026-04-06T08:06:42Z</time></trkpt><trkpt lat="45.81700324364536" lon="11.363193601746547"><ele>329.6666666666667</ele><time>2026-04-06T08:06:43Z</time></trkpt><trkpt lat="45.81718897580279" lon="11.363254154529491"><ele>332.33333333333337</ele><time>2026-04-06T08:06:44Z</time></trkpt><trkpt lat="45.81737269392318" lon="11.36331015045507"><ele>335.0</ele><time>2026-04-06T08:06:45Z</time></trkpt><trkpt lat="45.81755521927092" lon="11.363351662949603"><ele>338.6666666666667</ele><time>2026-04-06T08:06:46Z</time></trkpt><trkpt lat="45.81773647602624" lon="11.363371764435563"><ele>342.3333333333333</ele><time>2026-04-06T08:06:47Z</time></trkpt><trkpt lat="45.81791205310526" lon="11.363375306297089"><ele>346.0</ele><time>2026-04-06T08:06:48Z</time></trkpt><trkpt lat="45.81809636888994" lon="11.363386803857793"><ele>346.0</ele><time>2026-04-06T08:06:49Z</time></trkpt><trkpt lat="45.81827452321319" lon="11.363424393655972"><ele>346.0</ele><time>2026-04-06T08:06:50Z</time></trkpt><trkpt lat="45.818449373693106" lon="11.363495831108153"><ele>346.0</ele><time>2026-04-06T08:06:51Z</time></trkpt><trkpt lat="45.81860385898637" lon="11.363604357163139"><ele>351.0</ele><time>2026-04-06T08:06:52Z</time></trkpt><trkpt lat="45.81875268709889" lon="11.363731591507163"><ele>356.0</ele><time>2026-04-06T08:06:53Z</time></trkpt><trkpt lat="45.818901402839245" lon="11.363858255553277"><ele>361.0</ele><time>2026-04-06T08:06:54Z</time></trkpt><trkpt lat="45.819060443824284" lon="11.363965973965598"><ele>351.3333333333333</ele><time>2026-04-06T08:06:55Z</time></trkpt><trkpt lat="45.819229866490346" lon="11.364052614435089"><ele>341.6666666666667</ele><time>2026-04-06T08:06:56Z</time></trkpt><trkpt lat="45.819406267590004" lon="11.364134080798227"><ele>332.0</ele><time>2026-04-06T08:06:57Z</time></trkpt><trkpt lat="45.81958672961781" lon="11.364222366896604"><ele>332.0</ele><time>2026-04-06T08:06:58Z</time></trkpt><trkpt lat="45.81976989254611" lon="11.36431816077782"><ele>332.0</ele><time>2026-04-06T08:06:59Z</time></trkpt><trkpt lat="45.81995104397204" lon="11.364417976612849"><ele>332.0</ele><time>2026-04-06T08:07:00Z</time></trkpt><trkpt lat="45.82013061252778" lon="11.364522597453464"><ele>330.6666666666667</ele><time>2026-04-06T08:07:01Z</time></trkpt><trkpt lat="45.82030604146523" lon="11.364629343637802"><ele>329.3333333333333</ele><time>2026-04-06T08:07:02Z</time></trkpt><trkpt lat="45.82048029334522" lon="11.364735052598736"><ele>328.0</ele><time>2026-04-06T08:07:03Z</time></trkpt><trkpt lat="45.82064892065177" lon="11.364836240733101"><ele>328.0</ele><time>2026-04-06T08:07:04Z</time></trkpt><trkpt lat="45.820805765238774" lon="11.364931780156443"><ele>328.0</ele><time>2026-04-06T08:07:05Z</time></trkpt><trkpt lat="45.82094836213464" lon="11.365021692624254"><ele>328.0</ele><time>2026-04-06T08:07:06Z</time></trkpt><trkpt lat="45.821084670016745" lon="11.365106889951601"><ele>330.5</ele><time>2026-04-06T08:07:07Z</time></trkpt><trkpt lat="45.82121976507121" lon="11.365188142085453"><ele>333.0</ele><time>2026-04-06T08:07:08Z</time></trkpt><trkpt lat="45.82135671231874" lon="11.365267669555543"><ele>335.5</ele><time>2026-04-06T08:07:09Z</time></trkpt><trkpt lat="45.82149708264281" lon="11.365344599146729"><ele>338.0</ele><time>2026-04-06T08:07:10Z</time></trkpt><trkpt lat="45.82163204267945" lon="11.365425704909743"><ele>338.0</ele><time>2026-04-06T08:07:11Z</time></trkpt><trkpt lat="45.821764319921925" lon="11.36550829480164"><ele>338.0</ele><time>2026-04-06T08:07:12Z</time></trkpt><trkpt lat="45.82189341095351" lon="11.365588267944148"><ele>338.0</ele><time>2026-04-06T08:07:13Z</time></trkpt><trkpt lat="45.82202153420043" lon="11.365667833978092"><ele>338.0</ele><time>2026-04-06T08:07:14Z</time></trkpt><trkpt lat="45.82214198401459" lon="11.365740923911984"><ele>336.0</ele><time>2026-04-06T08:07:15Z</time></trkpt><trkpt lat="45.82225688012701" lon="11.365812427280904"><ele>334.0</ele><time>2026-04-06T08:07:16Z</time></trkpt><trkpt lat="45.82237527915694" lon="11.36588449248834"><ele>332.0</ele><time>2026-04-06T08:07:17Z</time></trkpt><trkpt lat="45.82249431182124" lon="11.365959170618597"><ele>330.0</ele><time>2026-04-06T08:07:18Z</time></trkpt><trkpt lat="45.822616158618295" lon="11.366035760794695"><ele>329.5</ele><time>2026-04-06T08:07:19Z</time></trkpt><trkpt lat="45.82273952652764" lon="11.366110494030318"><ele>329.0</ele><time>2026-04-06T08:07:20Z</time></trkpt><trkpt lat="45.822867437384765" lon="11.366194196943939"><ele>328.5</ele><time>2026-04-06T08:07:21Z</time></trkpt><trkpt lat="45.823001975264404" lon="11.366294703424847"><ele>328.0</ele><time>2026-04-06T08:07:22Z</time></trkpt><trkpt lat="45.82314100681836" lon="11.366389966484245"><ele>328.0</ele><time>2026-04-06T08:07:23Z</time></trkpt><trkpt lat="45.82328051716107" lon="11.36651983827189"><ele>328.0</ele><time>2026-04-06T08:07:24Z</time></trkpt><trkpt lat="45.82343040563747" lon="11.366640554429228"><ele>328.0</ele><time>2026-04-06T08:07:25Z</time></trkpt><trkpt lat="45.82357950369031" lon="11.366764385496092"><ele>328.66666666666663</ele><time>2026-04-06T08:07:26Z</time></trkpt><trkpt lat="45.8237313754406" lon="11.366893747270275"><ele>329.3333333333333</ele><time>2026-04-06T08:07:27Z</time></trkpt><trkpt lat="45.823886899896955" lon="11.367013160526895"><ele>330.0</ele><time>2026-04-06T08:07:28Z</time></trkpt><trkpt lat="45.82403231931247" lon="11.367145739408732"><ele>328.0</ele><time>2026-04-06T08:07:29Z</time></trkpt><trkpt lat="45.82418204961654" lon="11.367266560549767"><ele>326.0</ele><time>2026-04-06T08:07:30Z</time></trkpt><trkpt lat="45.824332403393974" lon="11.367374207620491"><ele>324.0</ele><time>2026-04-06T08:07:31Z</time></trkpt><trkpt lat="45.82448464679579" lon="11.367478691620162"><ele>324.0</ele><time>2026-04-06T08:07:32Z</time></trkpt><trkpt lat="45.82463555203297" lon="11.367576669576927"><ele>324.0</ele><time>2026-04-06T08:07:33Z</time></trkpt><trkpt lat="45.8247898970541" lon="11.367670953187316"><ele>324.0</ele><time>2026-04-06T08:07:34Z</time></trkpt><trkpt lat="45.8249468572294" lon="11.36776115320235"><ele>324.0</ele><time>2026-04-06T08:07:35Z</time></trkpt><trkpt lat="45.82511291888942" lon="11.367847085624305"><ele>324.0</ele><time>2026-04-06T08:07:36Z</time></trkpt><trkpt lat="45.825277130430635" lon="11.367959193374627"><ele>324.0</ele><time>2026-04-06T08:07:37Z</time></trkpt><trkpt lat="45.825449218657035" lon="11.368058457815712"><ele>321.3333333333333</ele><time>2026-04-06T08:07:38Z</time></trkpt><trkpt lat="45.82562305869856" lon="11.368158232623918"><ele>318.66666666666663</ele><time>2026-04-06T08:07:39Z</time></trkpt><trkpt lat="45.82579996665307" lon="11.368239292893977"><ele>316.0</ele><time>2026-04-06T08:07:40Z</time></trkpt><trkpt lat="45.82597142901631" lon="11.368345170785014"><ele>321.3333333333333</ele><time>2026-04-06T08:07:41Z</time></trkpt><trkpt lat="45.82614342369859" lon="11.368451185927983"><ele>326.6666666666667</ele><time>2026-04-06T08:07:42Z</time></trkpt><trkpt lat="45.82631559486622" lon="11.368550402544763"><ele>332.0</ele><time>2026-04-06T08:07:43Z</time></trkpt><trkpt lat="45.826485387707564" lon="11.36864409377018"><ele>332.0</ele><time>2026-04-06T08:07:44Z</time></trkpt><trkpt lat="45.82665993283667" lon="11.368726352914656"><ele>332.0</ele><time>2026-04-06T08:07:45Z</time></trkpt><trkpt lat="45.82683991515927" lon="11.368793084986828"><ele>332.0</ele><time>2026-04-06T08:07:46Z</time></trkpt><trkpt lat="45.82702713600094" lon="11.368836995446163"><ele>320.6666666666667</ele><time>2026-04-06T08:07:47Z</time></trkpt><trkpt lat="45.82721661354382" lon="11.36886230634871"><ele>309.3333333333333</ele><time>2026-04-06T08:07:48Z</time></trkpt><trkpt lat="45.827408848431205" lon="11.36887066404364"><ele>298.0</ele><time>2026-04-06T08:07:49Z</time></trkpt><trkpt lat="45.82760355838175" lon="11.368871081678828"><ele>298.66666666666663</ele><time>2026-04-06T08:07:50Z</time></trkpt><trkpt lat="45.82779699970892" lon="11.36887391728398"><ele>299.3333333333333</ele><time>2026-04-06T08:07:51Z</time></trkpt><trkpt lat="45.82799124144941" lon="11.368872765243"><ele>300.0</ele><time>2026-04-06T08:07:52Z</time></trkpt><trkpt lat="45.82818709529897" lon="11.36887492145064"><ele>300.0</ele><time>2026-04-06T08:07:53Z</time></trkpt><trkpt lat="45.828380538779115" lon="11.368889266721425"><ele>300.0</ele><time>2026-04-06T08:07:54Z</time></trkpt><trkpt lat="45.82857194128908" lon="11.368903740768959"><ele>300.0</ele><time>2026-04-06T08:07:55Z</time></trkpt><trkpt lat="45.82876361555351" lon="11.368910809665863"><ele>299.6666666666667</ele><time>2026-04-06T08:07:56Z</time></trkpt><trkpt lat="45.82895384057817" lon="11.368910279508608"><ele>299.33333333333337</ele><time>2026-04-06T08:07:57Z</time></trkpt><trkpt lat="45.82914087216152" lon="11.3688958515019"><ele>299.0</ele><time>2026-04-06T08:07:58Z</time></trkpt><trkpt lat="45.829328156913355" lon="11.368854890099561"><ele>321.33333333333337</ele><time>2026-04-06T08:07:59Z</time></trkpt><trkpt lat="45.82951130679428" lon="11.368801030962263"><ele>343.6666666666667</ele><time>2026-04-06T08:08:00Z</time></trkpt><trkpt lat="45.82969079688128" lon="11.368737176199604"><ele>366.0</ele><time>2026-04-06T08:08:01Z</time></trkpt><trkpt lat="45.82987108099294" lon="11.368722171606523"><ele>366.0</ele><time>2026-04-06T08:08:02Z</time></trkpt><trkpt lat="45.83004082982633" lon="11.368754716604236"><ele>366.0</ele><time>2026-04-06T08:08:03Z</time></trkpt><trkpt lat="45.830217703479924" lon="11.368798340374797"><ele>366.0</ele><time>2026-04-06T08:08:04Z</time></trkpt><trkpt lat="45.83038866314628" lon="11.36888719199258"><ele>347.6666666666667</ele><time>2026-04-06T08:08:05Z</time></trkpt><trkpt lat="45.83056461003562" lon="11.368954565342293"><ele>329.33333333333337</ele><time>2026-04-06T08:08:06Z</time></trkpt><trkpt lat="45.83074219659715" lon="11.36900609517606"><ele>311.0</ele><time>2026-04-06T08:08:07Z</time></trkpt><trkpt lat="45.83092363131978" lon="11.369046534479995"><ele>315.0</ele><time>2026-04-06T08:08:08Z</time></trkpt><trkpt lat="45.83110114670124" lon="11.369089934101048"><ele>319.0</ele><time>2026-04-06T08:08:09Z</time></trkpt><trkpt lat="45.831272805963955" lon="11.369142356794068"><ele>323.0</ele><time>2026-04-06T08:08:10Z</time></trkpt><trkpt lat="45.83144147869305" lon="11.369204948273623"><ele>323.0</ele><time>2026-04-06T08:08:11Z</time></trkpt><trkpt lat="45.831604028510974" lon="11.369287286169943"><ele>323.0</ele><time>2026-04-06T08:08:12Z</time></trkpt><trkpt lat="45.83175949526998" lon="11.36938791809274"><ele>323.0</ele><time>2026-04-06T08:08:13Z</time></trkpt><trkpt lat="45.831910012122286" lon="11.369491679643604"><ele>324.33333333333337</ele><time>2026-04-06T08:08:14Z</time></trkpt><trkpt lat="45.83206336531421" lon="11.36958676287151"><ele>325.6666666666667</ele><time>2026-04-06T08:08:15Z</time></trkpt><trkpt lat="45.832219141753825" lon="11.369672848758903"><ele>327.0</ele><time>2026-04-06T08:08:16Z</time></trkpt><trkpt lat="45.832381412102464" lon="11.369741023837001"><ele>319.0</ele><time>2026-04-06T08:08:17Z</time></trkpt><trkpt lat="45.832546377135436" lon="11.369790632087078"><ele>311.0</ele><time>2026-04-06T08:08:18Z</time></trkpt><trkpt lat="45.83271400910662" lon="11.369822633238178"><ele>303.0</ele><time>2026-04-06T08:08:19Z</time></trkpt><trkpt lat="45.83288230571435" lon="11.369848870984326"><ele>302.0</ele><time>2026-04-06T08:08:20Z</time></trkpt><trkpt lat="45.83304854141727" lon="11.36986878123845"><ele>301.0</ele><time>2026-04-06T08:08:21Z</time></trkpt><trkpt lat="45.833213330697944" lon="11.369873465331342"><ele>300.0</ele><time>2026-04-06T08:08:22Z</time></trkpt><trkpt lat="45.833375543517604" lon="11.36984359668678"><ele>298.6666666666667</ele><time>2026-04-06T08:08:23Z</time></trkpt><trkpt lat="45.83353191852055" lon="11.369788635642509"><ele>297.33333333333337</ele><time>2026-04-06T08:08:24Z</time></trkpt><trkpt lat="45.83368382673504" lon="11.369690342273831"><ele>296.0</ele><time>2026-04-06T08:08:25Z</time></trkpt><trkpt lat="45.8338315965674" lon="11.369579716972453"><ele>304.33333333333337</ele><time>2026-04-06T08:08:26Z</time></trkpt><trkpt lat="45.833989537788085" lon="11.369510409498302"><ele>312.6666666666667</ele><time>2026-04-06T08:08:27Z</time></trkpt><trkpt lat="45.8341484663875" lon="11.3694286996561"><ele>321.0</ele><time>2026-04-06T08:08:28Z</time></trkpt><trkpt lat="45.83431990136644" lon="11.369445582694617"><ele>326.0</ele><time>2026-04-06T08:08:29Z</time></trkpt><trkpt lat="45.8344908802206" lon="11.369453902680583"><ele>331.0</ele><time>2026-04-06T08:08:30Z</time></trkpt><trkpt lat="45.83466042014537" lon="11.369505186407451"><ele>336.0</ele><time>2026-04-06T08:08:31Z</time></trkpt><trkpt lat="45.83483128708875" lon="11.3695534736093"><ele>336.0</ele><time>2026-04-06T08:08:32Z</time></trkpt><trkpt lat="45.835002770598976" lon="11.369593374118713"><ele>336.0</ele><time>2026-04-06T08:08:33Z</time></trkpt><trkpt lat="45.83517467517534" lon="11.36963034973181"><ele>336.0</ele><time>2026-04-06T08:08:34Z</time></trkpt><trkpt lat="45.83534811949791" lon="11.369669597046048"><ele>325.6666666666667</ele><time>2026-04-06T08:08:35Z</time></trkpt><trkpt lat="45.83552401519514" lon="11.369707779553828"><ele>315.33333333333337</ele><time>2026-04-06T08:08:36Z</time></trkpt><trkpt lat="45.83570074386919" lon="11.369749303297606"><ele>305.0</ele><time>2026-04-06T08:08:37Z</time></trkpt><trkpt lat="45.835875565528816" lon="11.369792507396323"><ele>310.0</ele><time>2026-04-06T08:08:38Z</time></trkpt><trkpt lat="45.83605072012288" lon="11.369844656963151"><ele>315.0</ele><time>2026-04-06T08:08:39Z</time></trkpt><trkpt lat="45.83622310537412" lon="11.36990088670076"><ele>320.0</ele><time>2026-04-06T08:08:40Z</time></trkpt><trkpt lat="45.83639611895493" lon="11.36996040377504"><ele>320.0</ele><time>2026-04-06T08:08:41Z</time></trkpt><trkpt lat="45.83656656261412" lon="11.370021358265788"><ele>320.0</ele><time>2026-04-06T08:08:42Z</time></trkpt><trkpt lat="45.836737863854815" lon="11.370076698729918"><ele>320.0</ele><time>2026-04-06T08:08:43Z</time></trkpt><trkpt lat="45.836910903181206" lon="11.370122450623754"><ele>322.33333333333337</ele><time>2026-04-06T08:08:44Z</time></trkpt><trkpt lat="45.83708829412598" lon="11.370166037205756"><ele>324.6666666666667</ele><time>2026-04-06T08:08:45Z</time></trkpt><trkpt lat="45.83726282055636" lon="11.370218085273889"><ele>327.0</ele><time>2026-04-06T08:08:46Z</time></trkpt><trkpt lat="45.83743861089275" lon="11.37028479875742"><ele>327.0</ele><time>2026-04-06T08:08:47Z</time></trkpt><trkpt lat="45.83761255187993" lon="11.370357340054577"><ele>327.0</ele><time>2026-04-06T08:08:48Z</time></trkpt><trkpt lat="45.83778559686575" lon="11.370427181133246"><ele>327.0</ele><time>2026-04-06T08:08:49Z</time></trkpt><trkpt lat="45.83795686669246" lon="11.370484477908024"><ele>326.3333333333333</ele><time>2026-04-06T08:08:50Z</time></trkpt><trkpt lat="45.83812824322528" lon="11.370518695438498"><ele>325.66666666666663</ele><time>2026-04-06T08:08:51Z</time></trkpt><trkpt lat="45.8382996320002" lon="11.370529325206418"><ele>325.0</ele><time>2026-04-06T08:08:52Z</time></trkpt><trkpt lat="45.83847053142682" lon="11.3705205127563"><ele>325.0</ele><time>2026-04-06T08:08:53Z</time></trkpt><trkpt lat="45.838637965431644" lon="11.370502561498137"><ele>325.0</ele><time>2026-04-06T08:08:54Z</time></trkpt><trkpt lat="45.83880508284544" lon="11.370486451591248"><ele>325.0</ele><time>2026-04-06T08:08:55Z</time></trkpt><trkpt lat="45.838973001487325" lon="11.370471880902539"><ele>325.0</ele><time>2026-04-06T08:08:56Z</time></trkpt><trkpt lat="45.83913408111658" lon="11.370448650340972"><ele>325.0</ele><time>2026-04-06T08:08:57Z</time></trkpt><trkpt lat="45.83929383420116" lon="11.370413389865762"><ele>325.0</ele><time>2026-04-06T08:08:58Z</time></trkpt><trkpt lat="45.83944774625729" lon="11.370357526201245"><ele>317.3333333333333</ele><time>2026-04-06T08:08:59Z</time></trkpt><trkpt lat="45.8395981563707" lon="11.370278633968168"><ele>309.6666666666667</ele><time>2026-04-06T08:09:00Z</time></trkpt><trkpt lat="45.839746829079765" lon="11.370210842169898"><ele>302.0</ele><time>2026-04-06T08:09:01Z</time></trkpt><trkpt lat="45.83987460801412" lon="11.370079477453206"><ele>302.0</ele><time>2026-04-06T08:09:02Z</time></trkpt><trkpt lat="45.840012735730596" lon="11.369973439567175"><ele>302.0</ele><time>2026-04-06T08:09:03Z</time></trkpt><trkpt lat="45.84015287426416" lon="11.369863738325332"><ele>302.0</ele><time>2026-04-06T08:09:04Z</time></trkpt><trkpt lat="45.84029044427934" lon="11.369737204996474"><ele>302.33333333333337</ele><time>2026-04-06T08:09:05Z</time></trkpt><trkpt lat="45.84042398785636" lon="11.36959418115632"><ele>302.6666666666667</ele><time>2026-04-06T08:09:06Z</time></trkpt><trkpt lat="45.840555120893356" lon="11.369430432289262"><ele>303.0</ele><time>2026-04-06T08:09:07Z</time></trkpt><trkpt lat="45.84069814671527" lon="11.369280432109633"><ele>303.0</ele><time>2026-04-06T08:09:08Z</time></trkpt><trkpt lat="45.84082098457495" lon="11.369096209134517"><ele>303.0</ele><time>2026-04-06T08:09:09Z</time></trkpt><trkpt lat="45.84096421259887" lon="11.368939942609558"><ele>303.0</ele><time>2026-04-06T08:09:10Z</time></trkpt><trkpt lat="45.84111409487895" lon="11.368795771365289"><ele>304.3333333333333</ele><time>2026-04-06T08:09:11Z</time></trkpt><trkpt lat="45.841267080159525" lon="11.368660752561135"><ele>305.66666666666663</ele><time>2026-04-06T08:09:12Z</time></trkpt><trkpt lat="45.84141805873941" lon="11.36852610801633"><ele>307.0</ele><time>2026-04-06T08:09:13Z</time></trkpt><trkpt lat="45.841567784239366" lon="11.368389549174939"><ele>307.0</ele><time>2026-04-06T08:09:14Z</time></trkpt><trkpt lat="45.841716083026746" lon="11.368249770140702"><ele>307.0</ele><time>2026-04-06T08:09:15Z</time></trkpt><trkpt lat="45.841865076840136" lon="11.368110966179712"><ele>307.0</ele><time>2026-04-06T08:09:16Z</time></trkpt><trkpt lat="45.84201487063164" lon="11.367975144326397"><ele>311.3333333333333</ele><time>2026-04-06T08:09:17Z</time></trkpt><trkpt lat="45.84216436801019" lon="11.367839043356893"><ele>315.6666666666667</ele><time>2026-04-06T08:09:18Z</time></trkpt><trkpt lat="45.842321013512304" lon="11.367708086975187"><ele>320.0</ele><time>2026-04-06T08:09:19Z</time></trkpt><trkpt lat="45.84249218128531" lon="11.367611696323904"><ele>315.6666666666667</ele><time>2026-04-06T08:09:20Z</time></trkpt><trkpt lat="45.84265959978056" lon="11.367498266042837"><ele>311.3333333333333</ele><time>2026-04-06T08:09:21Z</time></trkpt><trkpt lat="45.842827784955084" lon="11.367386837839755"><ele>307.0</ele><time>2026-04-06T08:09:22Z</time></trkpt><trkpt lat="45.842996340014" lon="11.367277739805338"><ele>315.0</ele><time>2026-04-06T08:09:23Z</time></trkpt><trkpt lat="45.843163923615975" lon="11.367164351584123"><ele>323.0</ele><time>2026-04-06T08:09:24Z</time></trkpt><trkpt lat="45.84334777671912" lon="11.367128490349945"><ele>331.0</ele><time>2026-04-06T08:09:25Z</time></trkpt><trkpt lat="45.84352951412207" lon="11.367064023069888"><ele>331.0</ele><time>2026-04-06T08:09:26Z</time></trkpt><trkpt lat="45.84371447461262" lon="11.367038237021305"><ele>331.0</ele><time>2026-04-06T08:09:27Z</time></trkpt><trkpt lat="45.84389747762295" lon="11.367012752685138"><ele>331.0</ele><time>2026-04-06T08:09:28Z</time></trkpt><trkpt lat="45.84407899621065" lon="11.366986762992092"><ele>331.0</ele><time>2026-04-06T08:09:29Z</time></trkpt><trkpt lat="45.84425884461237" lon="11.366959661710858"><ele>331.0</ele><time>2026-04-06T08:09:30Z</time></trkpt><trkpt lat="45.8444386359542" lon="11.366928716944324"><ele>331.0</ele><time>2026-04-06T08:09:31Z</time></trkpt><trkpt lat="45.84461753024033" lon="11.366894062094907"><ele>328.0</ele><time>2026-04-06T08:09:32Z</time></trkpt><trkpt lat="45.84479731184602" lon="11.366858697748834"><ele>325.0</ele><time>2026-04-06T08:09:33Z</time></trkpt><trkpt lat="45.8449776752009" lon="11.36682672443304"><ele>322.0</ele><time>2026-04-06T08:09:34Z</time></trkpt><trkpt lat="45.84516187033825" lon="11.366792833463206"><ele>320.66666666666663</ele><time>2026-04-06T08:09:35Z</time></trkpt><trkpt lat="45.84534538906374" lon="11.366756233430436"><ele>319.3333333333333</ele><time>2026-04-06T08:09:36Z</time></trkpt><trkpt lat="45.84553046480673" lon="11.366705034545253"><ele>318.0</ele><time>2026-04-06T08:09:37Z</time></trkpt><trkpt lat="45.84571374098747" lon="11.366631936945586"><ele>318.0</ele><time>2026-04-06T08:09:38Z</time></trkpt><trkpt lat="45.84589321845935" lon="11.366544057237213"><ele>318.0</ele><time>2026-04-06T08:09:39Z</time></trkpt><trkpt lat="45.84608048730346" lon="11.366480149618944"><ele>318.0</ele><time>2026-04-06T08:09:40Z</time></trkpt><trkpt lat="45.84626665203778" lon="11.366413616908423"><ele>321.0</ele><time>2026-04-06T08:09:41Z</time></trkpt><trkpt lat="45.84645394703578" lon="11.366363906578675"><ele>324.0</ele><time>2026-04-06T08:09:42Z</time></trkpt><trkpt lat="45.84664562093794" lon="11.366330590153849"><ele>327.0</ele><time>2026-04-06T08:09:43Z</time></trkpt><trkpt lat="45.846838516051406" lon="11.366303725543261"><ele>327.0</ele><time>2026-04-06T08:09:44Z</time></trkpt><trkpt lat="45.847033762476926" lon="11.366275623459343"><ele>327.0</ele><time>2026-04-06T08:09:45Z</time></trkpt><trkpt lat="45.84723043219284" lon="11.36624502533406"><ele>327.0</ele><time>2026-04-06T08:09:46Z</time></trkpt><trkpt lat="45.84742675098594" lon="11.366212181581856"><ele>327.0</ele><time>2026-04-06T08:09:47Z</time></trkpt><trkpt lat="45.847619691595824" lon="11.366157411871246"><ele>327.0</ele><time>2026-04-06T08:09:48Z</time></trkpt><trkpt lat="45.84781345404765" lon="11.366121649525223"><ele>327.0</ele><time>2026-04-06T08:09:49Z</time></trkpt><trkpt lat="45.848007005834006" lon="11.366083456458618"><ele>325.3333333333333</ele><time>2026-04-06T08:09:50Z</time></trkpt><trkpt lat="45.848200309957164" lon="11.366040062879472"><ele>323.66666666666663</ele><time>2026-04-06T08:09:51Z</time></trkpt><trkpt lat="45.848392237651254" lon="11.365989587234685"><ele>322.0</ele><time>2026-04-06T08:09:52Z</time></trkpt><trkpt lat="45.84858523776599" lon="11.365951211696546"><ele>318.66666666666663</ele><time>2026-04-06T08:09:53Z</time></trkpt><trkpt lat="45.848771111983446" lon="11.365855649441967"><ele>315.3333333333333</ele><time>2026-04-06T08:09:54Z</time></trkpt><trkpt lat="45.848960360309306" lon="11.365775265217176"><ele>312.0</ele><time>2026-04-06T08:09:55Z</time></trkpt><trkpt lat="45.849142821423776" lon="11.365685975514873"><ele>312.6666666666667</ele><time>2026-04-06T08:09:56Z</time></trkpt><trkpt lat="45.84933116486088" lon="11.365593252653566"><ele>313.33333333333337</ele><time>2026-04-06T08:09:57Z</time></trkpt><trkpt lat="45.84951450016559" lon="11.365497912477295"><ele>314.0</ele><time>2026-04-06T08:09:58Z</time></trkpt><trkpt lat="45.84969810508881" lon="11.365394485481522"><ele>314.0</ele><time>2026-04-06T08:09:59Z</time></trkpt><trkpt lat="45.849875295718576" lon="11.365280137929954"><ele>314.0</ele><time>2026-04-06T08:10:00Z</time></trkpt><trkpt lat="45.85006244248629" lon="11.36518319978867"><ele>314.0</ele><time>2026-04-06T08:10:01Z</time></trkpt><trkpt lat="45.85024033964294" lon="11.365062814125817"><ele>312.0</ele><time>2026-04-06T08:10:02Z</time></trkpt><trkpt lat="45.85041513982389" lon="11.364942635393973"><ele>310.0</ele><time>2026-04-06T08:10:03Z</time></trkpt><trkpt lat="45.850591089689175" lon="11.364820188051912"><ele>308.0</ele><time>2026-04-06T08:10:04Z</time></trkpt><trkpt lat="45.85076588214647" lon="11.364702351753508"><ele>310.6666666666667</ele><time>2026-04-06T08:10:05Z</time></trkpt><trkpt lat="45.85094101850387" lon="11.364587561989692"><ele>313.3333333333333</ele><time>2026-04-06T08:10:06Z</time></trkpt><trkpt lat="45.85111738497608" lon="11.364475438015267"><ele>316.0</ele><time>2026-04-06T08:10:07Z</time></trkpt><trkpt lat="45.85129430878902" lon="11.36436968093781"><ele>316.0</ele><time>2026-04-06T08:10:08Z</time></trkpt><trkpt lat="45.851474012894066" lon="11.364265335776148"><ele>316.0</ele><time>2026-04-06T08:10:09Z</time></trkpt><trkpt lat="45.851652471679174" lon="11.36416618188093"><ele>316.0</ele><time>2026-04-06T08:10:10Z</time></trkpt><trkpt lat="45.85183106914103" lon="11.364069913743752"><ele>317.0</ele><time>2026-04-06T08:10:11Z</time></trkpt><trkpt lat="45.8520100740866" lon="11.363978789515796"><ele>318.0</ele><time>2026-04-06T08:10:12Z</time></trkpt><trkpt lat="45.85219029632806" lon="11.36389279362631"><ele>319.0</ele><time>2026-04-06T08:10:13Z</time></trkpt><trkpt lat="45.85237034222104" lon="11.363806880242974"><ele>319.0</ele><time>2026-04-06T08:10:14Z</time></trkpt><trkpt lat="45.85254889274039" lon="11.363723392777192"><ele>319.0</ele><time>2026-04-06T08:10:15Z</time></trkpt><trkpt lat="45.85272638336216" lon="11.36364157998523"><ele>319.0</ele><time>2026-04-06T08:10:16Z</time></trkpt><trkpt lat="45.85290266667872" lon="11.363561467107102"><ele>318.66666666666663</ele><time>2026-04-06T08:10:17Z</time></trkpt><trkpt lat="45.85307877305711" lon="11.363481434727472"><ele>318.3333333333333</ele><time>2026-04-06T08:10:18Z</time></trkpt><trkpt lat="45.85325541432509" lon="11.363400389003473"><ele>318.0</ele><time>2026-04-06T08:10:19Z</time></trkpt><trkpt lat="45.853430041860065" lon="11.363322808463144"><ele>316.6666666666667</ele><time>2026-04-06T08:10:20Z</time></trkpt><trkpt lat="45.85360422282351" lon="11.363246215875746"><ele>315.33333333333337</ele><time>2026-04-06T08:10:21Z</time></trkpt><trkpt lat="45.85377377570836" lon="11.36315174877397"><ele>314.0</ele><time>2026-04-06T08:10:22Z</time></trkpt><trkpt lat="45.853948196973604" lon="11.363079960830875"><ele>314.33333333333337</ele><time>2026-04-06T08:10:23Z</time></trkpt><trkpt lat="45.85412085600275" lon="11.363011040030665"><ele>314.6666666666667</ele><time>2026-04-06T08:10:24Z</time></trkpt><trkpt lat="45.85429458507883" lon="11.362942856092767"><ele>315.0</ele><time>2026-04-06T08:10:25Z</time></trkpt><trkpt lat="45.85446414204119" lon="11.362877251573865"><ele>315.0</ele><time>2026-04-06T08:10:26Z</time></trkpt><trkpt lat="45.85462278878878" lon="11.362817766137017"><ele>315.0</ele><time>2026-04-06T08:10:27Z</time></trkpt><trkpt lat="45.854770360883784" lon="11.362758798738929"><ele>315.0</ele><time>2026-04-06T08:10:28Z</time></trkpt><trkpt lat="45.854913359652016" lon="11.362701739972682"><ele>315.0</ele><time>2026-04-06T08:10:29Z</time></trkpt><trkpt lat="45.85505116363885" lon="11.362647916555598"><ele>315.0</ele><time>2026-04-06T08:10:30Z</time></trkpt><trkpt lat="45.855184813351556" lon="11.362597027039214"><ele>315.0</ele><time>2026-04-06T08:10:31Z</time></trkpt><trkpt lat="45.855313142506496" lon="11.362546691718842"><ele>315.0</ele><time>2026-04-06T08:10:32Z</time></trkpt><trkpt lat="45.855437895233116" lon="11.362495038247957"><ele>315.0</ele><time>2026-04-06T08:10:33Z</time></trkpt><trkpt lat="45.85555913405775" lon="11.3624443092487"><ele>315.0</ele><time>2026-04-06T08:10:34Z</time></trkpt><trkpt lat="45.85568003619948" lon="11.362394936065282"><ele>315.0</ele><time>2026-04-06T08:10:35Z</time></trkpt><trkpt lat="45.85579903939798" lon="11.362344099083375"><ele>315.0</ele><time>2026-04-06T08:10:36Z</time></trkpt><trkpt lat="45.85591567417431" lon="11.36228971723943"><ele>315.0</ele><time>2026-04-06T08:10:37Z</time></trkpt><trkpt lat="45.85602849402704" lon="11.362234641096666"><ele>315.0</ele><time>2026-04-06T08:10:38Z</time></trkpt><trkpt lat="45.856144679560224" lon="11.362177903186959"><ele>315.0</ele><time>2026-04-06T08:10:39Z</time></trkpt><trkpt lat="45.85625686300838" lon="11.36211926126019"><ele>315.0</ele><time>2026-04-06T08:10:40Z</time></trkpt><trkpt lat="45.85637426473703" lon="11.362081154129168"><ele>315.5</ele><time>2026-04-06T08:10:41Z</time></trkpt><trkpt lat="45.85648172773698" lon="11.36201371054748"><ele>316.0</ele><time>2026-04-06T08:10:42Z</time></trkpt><trkpt lat="45.85658657713803" lon="11.361939145242964"><ele>316.5</ele><time>2026-04-06T08:10:43Z</time></trkpt><trkpt lat="45.85668300980763" lon="11.361844514467487"><ele>317.0</ele><time>2026-04-06T08:10:44Z</time></trkpt><trkpt lat="45.85679501110613" lon="11.361797320795926"><ele>317.0</ele><time>2026-04-06T08:10:45Z</time></trkpt><trkpt lat="45.85690636467124" lon="11.361777049225989"><ele>317.0</ele><time>2026-04-06T08:10:46Z</time></trkpt><trkpt lat="45.857019007234165" lon="11.361769949715665"><ele>317.0</ele><time>2026-04-06T08:10:47Z</time></trkpt><trkpt lat="45.85713650845598" lon="11.361762708319672"><ele>317.0</ele><time>2026-04-06T08:10:48Z</time></trkpt><trkpt lat="45.85726074426358" lon="11.361755096646535"><ele>317.0</ele><time>2026-04-06T08:10:49Z</time></trkpt><trkpt lat="45.85738816649602" lon="11.361746373008073"><ele>317.0</ele><time>2026-04-06T08:10:50Z</time></trkpt><trkpt lat="45.85752057650297" lon="11.361738901725705"><ele>317.0</ele><time>2026-04-06T08:10:51Z</time></trkpt><trkpt lat="45.857657311167436" lon="11.36173071455413"><ele>317.0</ele><time>2026-04-06T08:10:52Z</time></trkpt><trkpt lat="45.85780203451232" lon="11.361719558081468"><ele>317.33333333333337</ele><time>2026-04-06T08:10:53Z</time></trkpt><trkpt lat="45.85795161490092" lon="11.36171002425724"><ele>317.6666666666667</ele><time>2026-04-06T08:10:54Z</time></trkpt><trkpt lat="45.858099849721796" lon="11.361698242957795"><ele>318.0</ele><time>2026-04-06T08:10:55Z</time></trkpt><trkpt lat="45.858251475867384" lon="11.361684839145282"><ele>318.0</ele><time>2026-04-06T08:10:56Z</time></trkpt><trkpt lat="45.85840581115303" lon="11.361671939856157"><ele>318.0</ele><time>2026-04-06T08:10:57Z</time></trkpt><trkpt lat="45.85856556822973" lon="11.36166150127544"><ele>318.0</ele><time>2026-04-06T08:10:58Z</time></trkpt><trkpt lat="45.85872768119547" lon="11.361651001887418"><ele>317.6666666666667</ele><time>2026-04-06T08:10:59Z</time></trkpt><trkpt lat="45.85889140685034" lon="11.361637222704658"><ele>317.33333333333337</ele><time>2026-04-06T08:11:00Z</time></trkpt><trkpt lat="45.859055382954175" lon="11.361625926989422"><ele>317.0</ele><time>2026-04-06T08:11:01Z</time></trkpt><trkpt lat="45.8592220110256" lon="11.361615863504879"><ele>317.33333333333337</ele><time>2026-04-06T08:11:02Z</time></trkpt><trkpt lat="45.85939351570808" lon="11.361606171302997"><ele>317.6666666666667</ele><time>2026-04-06T08:11:03Z</time></trkpt><trkpt lat="45.8595639974931" lon="11.361592943233306"><ele>318.0</ele><time>2026-04-06T08:11:04Z</time></trkpt><trkpt lat="45.859736188897706" lon="11.361580425983806"><ele>318.0</ele><time>2026-04-06T08:11:05Z</time></trkpt><trkpt lat="45.85991123754457" lon="11.361569295622438"><ele>318.0</ele><time>2026-04-06T08:11:06Z</time></trkpt><trkpt lat="45.86008818314284" lon="11.36155661338982"><ele>318.0</ele><time>2026-04-06T08:11:07Z</time></trkpt><trkpt lat="45.86026693576554" lon="11.36154327700826"><ele>318.6666666666667</ele><time>2026-04-06T08:11:08Z</time></trkpt><trkpt lat="45.86044785269296" lon="11.361531262721238"><ele>319.33333333333337</ele><time>2026-04-06T08:11:09Z</time></trkpt><trkpt lat="45.86062843778407" lon="11.361521364655577"><ele>320.0</ele><time>2026-04-06T08:11:10Z</time></trkpt><trkpt lat="45.86080619160147" lon="11.361508068558383"><ele>320.6666666666667</ele><time>2026-04-06T08:11:10.999Z</time></trkpt><trkpt lat="45.86098242409774" lon="11.361492737210549"><ele>321.3333333333333</ele><time>2026-04-06T08:11:11.999Z</time></trkpt><trkpt lat="45.86115705747289" lon="11.361478181438262"><ele>322.0</ele><time>2026-04-06T08:11:12.999Z</time></trkpt><trkpt lat="45.86133083745033" lon="11.361467444766486"><ele>322.0</ele><time>2026-04-06T08:11:13.999Z</time></trkpt><trkpt lat="45.86150449078" lon="11.361455823607148"><ele>322.0</ele><time>2026-04-06T08:11:14.999Z</time></trkpt><trkpt lat="45.86167800743842" lon="11.361439889551686"><ele>322.0</ele><time>2026-04-06T08:11:15.999Z</time></trkpt><trkpt lat="45.86185393394838" lon="11.36142015392919"><ele>322.0</ele><time>2026-04-06T08:11:16.999Z</time></trkpt><trkpt lat="45.86203153921571" lon="11.361395536499057"><ele>322.0</ele><time>2026-04-06T08:11:17.999Z</time></trkpt><trkpt lat="45.8622084565829" lon="11.361366354821415"><ele>322.0</ele><time>2026-04-06T08:11:18.999Z</time></trkpt><trkpt lat="45.86239043450427" lon="11.361359013152118"><ele>326.66666666666663</ele><time>2026-04-06T08:11:19.999Z</time></trkpt><trkpt lat="45.862569396739346" lon="11.361334595434537"><ele>331.3333333333333</ele><time>2026-04-06T08:11:20.999Z</time></trkpt><trkpt lat="45.86275093764405" lon="11.36130953203397"><ele>336.0</ele><time>2026-04-06T08:11:21.999Z</time></trkpt><trkpt lat="45.862931237046276" lon="11.361258542581995"><ele>336.0</ele><time>2026-04-06T08:11:22.999Z</time></trkpt><trkpt lat="45.86311697725259" lon="11.361238600726569"><ele>336.0</ele><time>2026-04-06T08:11:23.999Z</time></trkpt><trkpt lat="45.863311769494516" lon="11.361214992353839"><ele>336.0</ele><time>2026-04-06T08:11:24.999Z</time></trkpt><trkpt lat="45.86350729988612" lon="11.361199130059362"><ele>336.0</ele><time>2026-04-06T08:11:25.999Z</time></trkpt><trkpt lat="45.863710511488286" lon="11.361192903953537"><ele>336.0</ele><time>2026-04-06T08:11:26.999Z</time></trkpt><trkpt lat="45.863913091382535" lon="11.361203046027091"><ele>336.0</ele><time>2026-04-06T08:11:27.999Z</time></trkpt><trkpt lat="45.86410691853593" lon="11.361209492109623"><ele>334.6666666666667</ele><time>2026-04-06T08:11:28.999Z</time></trkpt><trkpt lat="45.86430189643084" lon="11.361222480875014"><ele>333.33333333333337</ele><time>2026-04-06T08:11:29.999Z</time></trkpt><trkpt lat="45.86449533331032" lon="11.361237040036377"><ele>332.0</ele><time>2026-04-06T08:11:30.999Z</time></trkpt><trkpt lat="45.864688600550565" lon="11.36124983435756"><ele>332.0</ele><time>2026-04-06T08:11:31.999Z</time></trkpt><trkpt lat="45.86487902991312" lon="11.361261927820557"><ele>332.0</ele><time>2026-04-06T08:11:32.999Z</time></trkpt><trkpt lat="45.86506763977704" lon="11.361272168844803"><ele>332.0</ele><time>2026-04-06T08:11:33.999Z</time></trkpt><trkpt lat="45.86525735923377" lon="11.361284559722247"><ele>332.6666666666667</ele><time>2026-04-06T08:11:34.999Z</time></trkpt><trkpt lat="45.86544608427522" lon="11.361298175303414"><ele>333.3333333333333</ele><time>2026-04-06T08:11:35.999Z</time></trkpt><trkpt lat="45.86563447693939" lon="11.36130732802005"><ele>334.0</ele><time>2026-04-06T08:11:36.999Z</time></trkpt><trkpt lat="45.86582396583145" lon="11.361316591231281"><ele>333.66666666666663</ele><time>2026-04-06T08:11:37.999Z</time></trkpt><trkpt lat="45.86601272417093" lon="11.361325392873708"><ele>333.3333333333333</ele><time>2026-04-06T08:11:38.999Z</time></trkpt><trkpt lat="45.86620041901472" lon="11.361335600834703"><ele>333.0</ele><time>2026-04-06T08:11:39.999Z</time></trkpt><trkpt lat="45.86638866107665" lon="11.36134597951716"><ele>333.0</ele><time>2026-04-06T08:11:40.999Z</time></trkpt><trkpt lat="45.866578627055354" lon="11.361355829539638"><ele>333.0</ele><time>2026-04-06T08:11:41.999Z</time></trkpt><trkpt lat="45.866767184077695" lon="11.361369308035867"><ele>333.0</ele><time>2026-04-06T08:11:42.999Z</time></trkpt><trkpt lat="45.86695622127009" lon="11.361386699566463"><ele>330.6666666666667</ele><time>2026-04-06T08:11:43.999Z</time></trkpt><trkpt lat="45.86714434617265" lon="11.36141046133276"><ele>328.33333333333337</ele><time>2026-04-06T08:11:44.999Z</time></trkpt><trkpt lat="45.86733285678723" lon="11.361431081186831"><ele>326.0</ele><time>2026-04-06T08:11:45.999Z</time></trkpt><trkpt lat="45.86752174045698" lon="11.361451170896705"><ele>327.6666666666667</ele><time>2026-04-06T08:11:46.999Z</time></trkpt><trkpt lat="45.86771012239982" lon="11.361468175177535"><ele>329.3333333333333</ele><time>2026-04-06T08:11:47.999Z</time></trkpt><trkpt lat="45.86789707694188" lon="11.361487362245375"><ele>331.0</ele><time>2026-04-06T08:11:48.999Z</time></trkpt><trkpt lat="45.868085253700706" lon="11.3615060396327"><ele>331.0</ele><time>2026-04-06T08:11:49.999Z</time></trkpt><trkpt lat="45.86827271090567" lon="11.36152531016329"><ele>331.0</ele><time>2026-04-06T08:11:50.999Z</time></trkpt><trkpt lat="45.86846024691383" lon="11.361541796739107"><ele>331.0</ele><time>2026-04-06T08:11:51.999Z</time></trkpt><trkpt lat="45.86864777798628" lon="11.361559998935924"><ele>332.0</ele><time>2026-04-06T08:11:52.999Z</time></trkpt><trkpt lat="45.86883422908184" lon="11.361579905904104"><ele>333.0</ele><time>2026-04-06T08:11:53.999Z</time></trkpt><trkpt lat="45.86902136684395" lon="11.361600669436019"><ele>334.0</ele><time>2026-04-06T08:11:54.999Z</time></trkpt><trkpt lat="45.86920894601908" lon="11.361623566234906"><ele>335.3333333333333</ele><time>2026-04-06T08:11:55.999Z</time></trkpt><trkpt lat="45.86939386819514" lon="11.361655162638932"><ele>336.6666666666667</ele><time>2026-04-06T08:11:56.999Z</time></trkpt><trkpt lat="45.86957665577025" lon="11.361699574493652"><ele>338.0</ele><time>2026-04-06T08:11:57.999Z</time></trkpt><trkpt lat="45.86975622168225" lon="11.361762279349083"><ele>338.0</ele><time>2026-04-06T08:11:58.999Z</time></trkpt><trkpt lat="45.86993295912756" lon="11.361829564303214"><ele>338.0</ele><time>2026-04-06T08:11:59.999Z</time></trkpt><trkpt lat="45.87010655295991" lon="11.361899041074656"><ele>338.0</ele><time>2026-04-06T08:12:00.999Z</time></trkpt><trkpt lat="45.870278416670736" lon="11.361955435050497"><ele>338.0</ele><time>2026-04-06T08:12:01.999Z</time></trkpt><trkpt lat="45.87045140182316" lon="11.361995204982817"><ele>338.0</ele><time>2026-04-06T08:12:02.999Z</time></trkpt><trkpt lat="45.870625349578106" lon="11.362029953239302"><ele>338.0</ele><time>2026-04-06T08:12:03.999Z</time></trkpt><trkpt lat="45.87079791372888" lon="11.362061368053817"><ele>339.0</ele><time>2026-04-06T08:12:04.999Z</time></trkpt><trkpt lat="45.870972953624175" lon="11.362088037838584"><ele>340.0</ele><time>2026-04-06T08:12:05.999Z</time></trkpt><trkpt lat="45.87114672605938" lon="11.362107047295314"><ele>341.0</ele><time>2026-04-06T08:12:06.999Z</time></trkpt><trkpt lat="45.87132364435804" lon="11.3621242111253"><ele>341.0</ele><time>2026-04-06T08:12:07.999Z</time></trkpt><trkpt lat="45.871502712410944" lon="11.362137802591624"><ele>341.0</ele><time>2026-04-06T08:12:08.999Z</time></trkpt><trkpt lat="45.87168281102362" lon="11.362143225600006"><ele>341.0</ele><time>2026-04-06T08:12:09.999Z</time></trkpt><trkpt lat="45.87186473187092" lon="11.36214382235348"><ele>341.6666666666667</ele><time>2026-04-06T08:12:10.999Z</time></trkpt><trkpt lat="45.87204702224117" lon="11.362142612089668"><ele>342.3333333333333</ele><time>2026-04-06T08:12:11.999Z</time></trkpt><trkpt lat="45.8722254501306" lon="11.36213837534371"><ele>343.0</ele><time>2026-04-06T08:12:12.999Z</time></trkpt><trkpt lat="45.87240030315708" lon="11.362112497031568"><ele>343.0</ele><time>2026-04-06T08:12:13.999Z</time></trkpt><trkpt lat="45.872571996690326" lon="11.36205712016291"><ele>343.0</ele><time>2026-04-06T08:12:14.999Z</time></trkpt><trkpt lat="45.87273763242191" lon="11.361966938933278"><ele>343.0</ele><time>2026-04-06T08:12:15.999Z</time></trkpt><trkpt lat="45.87289778814191" lon="11.36184707660397"><ele>340.66666666666663</ele><time>2026-04-06T08:12:16.999Z</time></trkpt><trkpt lat="45.87304512706914" lon="11.361697324447745"><ele>338.3333333333333</ele><time>2026-04-06T08:12:17.999Z</time></trkpt><trkpt lat="45.873182406780934" lon="11.361525809003552"><ele>336.0</ele><time>2026-04-06T08:12:18.999Z</time></trkpt><trkpt lat="45.87332762576452" lon="11.36136723433262"><ele>337.0</ele><time>2026-04-06T08:12:19.999Z</time></trkpt><trkpt lat="45.873464813669905" lon="11.361195974554978"><ele>338.0</ele><time>2026-04-06T08:12:20.999Z</time></trkpt><trkpt lat="45.87360211007599" lon="11.361024579172042"><ele>339.0</ele><time>2026-04-06T08:12:21.999Z</time></trkpt><trkpt lat="45.87372941882837" lon="11.360834841508204"><ele>339.0</ele><time>2026-04-06T08:12:22.999Z</time></trkpt><trkpt lat="45.87386719615668" lon="11.36066184660299"><ele>339.0</ele><time>2026-04-06T08:12:23.999Z</time></trkpt><trkpt lat="45.874015467379465" lon="11.360505526089458"><ele>339.0</ele><time>2026-04-06T08:12:24.999Z</time></trkpt><trkpt lat="45.874152569987736" lon="11.360332200200986"><ele>340.0</ele><time>2026-04-06T08:12:26Z</time></trkpt><trkpt lat="45.8742876849651" lon="11.36016779430199"><ele>341.0</ele><time>2026-04-06T08:12:27Z</time></trkpt><trkpt lat="45.874430273216525" lon="11.360017090815974"><ele>342.0</ele><time>2026-04-06T08:12:28Z</time></trkpt><trkpt lat="45.87457934094245" lon="11.359897818023137"><ele>342.0</ele><time>2026-04-06T08:12:29Z</time></trkpt><trkpt lat="45.87473597591053" lon="11.359807816041267"><ele>342.0</ele><time>2026-04-06T08:12:30Z</time></trkpt><trkpt lat="45.87490118082388" lon="11.35974815133623"><ele>342.0</ele><time>2026-04-06T08:12:31Z</time></trkpt><trkpt lat="45.87507306816954" lon="11.359719225550837"><ele>348.0</ele><time>2026-04-06T08:12:32Z</time></trkpt><trkpt lat="45.875249865110206" lon="11.359674686395406"><ele>354.0</ele><time>2026-04-06T08:12:33Z</time></trkpt><trkpt lat="45.87542175896134" lon="11.359657054048956"><ele>360.0</ele><time>2026-04-06T08:12:34Z</time></trkpt><trkpt lat="45.87559885161787" lon="11.359635243601655"><ele>360.0</ele><time>2026-04-06T08:12:35Z</time></trkpt><trkpt lat="45.87577444882816" lon="11.359620533832068"><ele>360.0</ele><time>2026-04-06T08:12:36Z</time></trkpt><trkpt lat="45.875948793141866" lon="11.359601258313427"><ele>360.0</ele><time>2026-04-06T08:12:37Z</time></trkpt><trkpt lat="45.876124775205234" lon="11.359584396274252"><ele>358.6666666666667</ele><time>2026-04-06T08:12:38Z</time></trkpt><trkpt lat="45.87629929660761" lon="11.359570404503579"><ele>357.33333333333337</ele><time>2026-04-06T08:12:39Z</time></trkpt><trkpt lat="45.87647190749296" lon="11.35955889034094"><ele>356.0</ele><time>2026-04-06T08:12:40Z</time></trkpt><trkpt lat="45.87664297340731" lon="11.359543625197466"><ele>354.33333333333337</ele><time>2026-04-06T08:12:41Z</time></trkpt><trkpt lat="45.87681415801783" lon="11.35952806037106"><ele>352.6666666666667</ele><time>2026-04-06T08:12:42Z</time></trkpt><trkpt lat="45.87698370523908" lon="11.359511791672091"><ele>351.0</ele><time>2026-04-06T08:12:43Z</time></trkpt><trkpt lat="45.877150189505585" lon="11.359497657555258"><ele>351.0</ele><time>2026-04-06T08:12:44Z</time></trkpt><trkpt lat="45.87731410279036" lon="11.359480728254923"><ele>351.0</ele><time>2026-04-06T08:12:45Z</time></trkpt><trkpt lat="45.87747578661657" lon="11.359454325193704"><ele>351.0</ele><time>2026-04-06T08:12:46Z</time></trkpt><trkpt lat="45.877635657810856" lon="11.359408585757986"><ele>350.3333333333333</ele><time>2026-04-06T08:12:47Z</time></trkpt><trkpt lat="45.87779830035744" lon="11.359346140496797"><ele>349.66666666666663</ele><time>2026-04-06T08:12:48Z</time></trkpt><trkpt lat="45.877965288460985" lon="11.359274530402871"><ele>349.0</ele><time>2026-04-06T08:12:49Z</time></trkpt><trkpt lat="45.87813497620863" lon="11.359200616013903"><ele>349.0</ele><time>2026-04-06T08:12:50Z</time></trkpt><trkpt lat="45.878307860554905" lon="11.359128731837917"><ele>349.0</ele><time>2026-04-06T08:12:51Z</time></trkpt><trkpt lat="45.87848346298736" lon="11.359057804799198"><ele>349.0</ele><time>2026-04-06T08:12:52Z</time></trkpt><trkpt lat="45.87865688451828" lon="11.358986263804155"><ele>347.0</ele><time>2026-04-06T08:12:53Z</time></trkpt><trkpt lat="45.87883131521299" lon="11.35891330517351"><ele>345.0</ele><time>2026-04-06T08:12:54Z</time></trkpt><trkpt lat="45.87900602768394" lon="11.3588417423955"><ele>343.0</ele><time>2026-04-06T08:12:55Z</time></trkpt><trkpt lat="45.8791780162111" lon="11.358765936253782"><ele>344.0</ele><time>2026-04-06T08:12:56Z</time></trkpt><trkpt lat="45.87934919717482" lon="11.358681037214582"><ele>345.0</ele><time>2026-04-06T08:12:57Z</time></trkpt><trkpt lat="45.87952060762056" lon="11.358613208151086"><ele>346.0</ele><time>2026-04-06T08:12:58Z</time></trkpt><trkpt lat="45.87968309632914" lon="11.358518519760997"><ele>346.0</ele><time>2026-04-06T08:12:59Z</time></trkpt><trkpt lat="45.87983588581513" lon="11.35840010192184"><ele>346.0</ele><time>2026-04-06T08:13:00Z</time></trkpt><trkpt lat="45.8799956291619" lon="11.358319714010689"><ele>346.0</ele><time>2026-04-06T08:13:01Z</time></trkpt><trkpt lat="45.880143309893775" lon="11.358199582816189"><ele>346.3333333333333</ele><time>2026-04-06T08:13:02Z</time></trkpt><trkpt lat="45.88026894905252" lon="11.3580426855256"><ele>346.6666666666667</ele><time>2026-04-06T08:13:03Z</time></trkpt><trkpt lat="45.88040872416808" lon="11.357910042578307"><ele>347.0</ele><time>2026-04-06T08:13:04Z</time></trkpt><trkpt lat="45.88053542923527" lon="11.357755268937433"><ele>347.0</ele><time>2026-04-06T08:13:05Z</time></trkpt><trkpt lat="45.880663287635336" lon="11.357596831038876"><ele>347.0</ele><time>2026-04-06T08:13:06Z</time></trkpt><trkpt lat="45.8807866924761" lon="11.357436672562029"><ele>347.0</ele><time>2026-04-06T08:13:07Z</time></trkpt><trkpt lat="45.88090678632926" lon="11.357273116309681"><ele>347.0</ele><time>2026-04-06T08:13:08Z</time></trkpt><trkpt lat="45.88102792195889" lon="11.357110649264634"><ele>347.0</ele><time>2026-04-06T08:13:09Z</time></trkpt><trkpt lat="45.88115068905145" lon="11.356956749634085"><ele>347.0</ele><time>2026-04-06T08:13:10Z</time></trkpt><trkpt lat="45.881283256104126" lon="11.35682236003112"><ele>347.0</ele><time>2026-04-06T08:13:11Z</time></trkpt><trkpt lat="45.88142236590953" lon="11.356697586781813"><ele>347.0</ele><time>2026-04-06T08:13:12Z</time></trkpt><trkpt lat="45.88156375259588" lon="11.356585548506576"><ele>347.0</ele><time>2026-04-06T08:13:13Z</time></trkpt><trkpt lat="45.88170825947215" lon="11.356481027885415"><ele>347.0</ele><time>2026-04-06T08:13:14Z</time></trkpt><trkpt lat="45.88185651492144" lon="11.35638476006394"><ele>347.0</ele><time>2026-04-06T08:13:15Z</time></trkpt><trkpt lat="45.88201252563157" lon="11.356298298269415"><ele>347.0</ele><time>2026-04-06T08:13:16Z</time></trkpt><trkpt lat="45.88216841986107" lon="11.356222777746153"><ele>350.33333333333337</ele><time>2026-04-06T08:13:17Z</time></trkpt><trkpt lat="45.88232694347644" lon="11.35615189811362"><ele>353.6666666666667</ele><time>2026-04-06T08:13:18Z</time></trkpt><trkpt lat="45.88248500374482" lon="11.35608310429389"><ele>357.0</ele><time>2026-04-06T08:13:19Z</time></trkpt><trkpt lat="45.88264283502395" lon="11.356020359941029"><ele>357.0</ele><time>2026-04-06T08:13:20Z</time></trkpt><trkpt lat="45.882797600117854" lon="11.355966616026116"><ele>357.0</ele><time>2026-04-06T08:13:21Z</time></trkpt><trkpt lat="45.88295459118109" lon="11.355922488317209"><ele>357.0</ele><time>2026-04-06T08:13:22Z</time></trkpt><trkpt lat="45.88311447912874" lon="11.355889940068375"><ele>357.0</ele><time>2026-04-06T08:13:23Z</time></trkpt><trkpt lat="45.88327466258138" lon="11.355839985164538"><ele>357.0</ele><time>2026-04-06T08:13:24Z</time></trkpt><trkpt lat="45.88343910465186" lon="11.355824429126018"><ele>357.0</ele><time>2026-04-06T08:13:25Z</time></trkpt><trkpt lat="45.88360341859359" lon="11.355805323821151"><ele>356.0</ele><time>2026-04-06T08:13:26Z</time></trkpt><trkpt lat="45.88376732503528" lon="11.355788244862559"><ele>355.0</ele><time>2026-04-06T08:13:27Z</time></trkpt><trkpt lat="45.88393085643511" lon="11.355771427843342"><ele>354.0</ele><time>2026-04-06T08:13:28Z</time></trkpt><trkpt lat="45.88409197195183" lon="11.355761855025422"><ele>354.0</ele><time>2026-04-06T08:13:29Z</time></trkpt><trkpt lat="45.88424887839669" lon="11.355750225258237"><ele>354.0</ele><time>2026-04-06T08:13:30Z</time></trkpt><trkpt lat="45.884405765212676" lon="11.355739003187036"><ele>354.0</ele><time>2026-04-06T08:13:31Z</time></trkpt><trkpt lat="45.88456313503396" lon="11.355730803212394"><ele>354.3333333333333</ele><time>2026-04-06T08:13:32Z</time></trkpt><trkpt lat="45.88472116637711" lon="11.35571980857886"><ele>354.66666666666663</ele><time>2026-04-06T08:13:33Z</time></trkpt><trkpt lat="45.88488336879198" lon="11.355686640874303"><ele>355.0</ele><time>2026-04-06T08:13:34Z</time></trkpt><trkpt lat="45.88503994042163" lon="11.355626559665614"><ele>356.66666666666663</ele><time>2026-04-06T08:13:35Z</time></trkpt><trkpt lat="45.88518923708234" lon="11.355531669241063"><ele>358.3333333333333</ele><time>2026-04-06T08:13:36Z</time></trkpt><trkpt lat="45.88533277467693" lon="11.355421366448807"><ele>360.0</ele><time>2026-04-06T08:13:37Z</time></trkpt><trkpt lat="45.885467278060275" lon="11.35529026493122"><ele>360.0</ele><time>2026-04-06T08:13:38Z</time></trkpt><trkpt lat="45.88559266720795" lon="11.355147778869027"><ele>360.0</ele><time>2026-04-06T08:13:39Z</time></trkpt><trkpt lat="45.885713936631504" lon="11.354994820614964"><ele>360.0</ele><time>2026-04-06T08:13:40Z</time></trkpt><trkpt lat="45.88584720626841" lon="11.354863525470972"><ele>358.6666666666667</ele><time>2026-04-06T08:13:41Z</time></trkpt><trkpt lat="45.885973850095866" lon="11.354705807097075"><ele>357.33333333333337</ele><time>2026-04-06T08:13:42Z</time></trkpt><trkpt lat="45.88609987827449" lon="11.354552327793833"><ele>356.0</ele><time>2026-04-06T08:13:43Z</time></trkpt><trkpt lat="45.88622679347756" lon="11.354401224784638"><ele>356.0</ele><time>2026-04-06T08:13:44Z</time></trkpt><trkpt lat="45.88635465937451" lon="11.354251910416787"><ele>356.0</ele><time>2026-04-06T08:13:45Z</time></trkpt><trkpt lat="45.886478449232776" lon="11.354113191892928"><ele>356.0</ele><time>2026-04-06T08:13:46Z</time></trkpt><trkpt lat="45.88659729684462" lon="11.35398791361849"><ele>356.0</ele><time>2026-04-06T08:13:47Z</time></trkpt><trkpt lat="45.886710425568204" lon="11.353878194526985"><ele>356.0</ele><time>2026-04-06T08:13:48Z</time></trkpt><trkpt lat="45.88682635180207" lon="11.353770379146358"><ele>356.0</ele><time>2026-04-06T08:13:49Z</time></trkpt><trkpt lat="45.8869446125987" lon="11.353661611677305"><ele>356.0</ele><time>2026-04-06T08:13:50Z</time></trkpt><trkpt lat="45.88705378094261" lon="11.353547138965611"><ele>356.75</ele><time>2026-04-06T08:13:51Z</time></trkpt><trkpt lat="45.887164767542984" lon="11.353463919104074"><ele>357.5</ele><time>2026-04-06T08:13:52Z</time></trkpt><trkpt lat="45.887270715748606" lon="11.353391840128374"><ele>358.25</ele><time>2026-04-06T08:13:53Z</time></trkpt><trkpt lat="45.88737462546968" lon="11.353335995216423"><ele>359.0</ele><time>2026-04-06T08:13:54Z</time></trkpt><trkpt lat="45.887470961232474" lon="11.353292632765584"><ele>359.0</ele><time>2026-04-06T08:13:55Z</time></trkpt><trkpt lat="45.88755556113364" lon="11.353261050372417"><ele>359.0</ele><time>2026-04-06T08:13:56Z</time></trkpt><trkpt lat="45.88764581253275" lon="11.353249969292358"><ele>359.0</ele><time>2026-04-06T08:13:57Z</time></trkpt><trkpt lat="45.88774788460613" lon="11.353196338724207"><ele>359.0</ele><time>2026-04-06T08:13:58Z</time></trkpt><trkpt lat="45.887866220504" lon="11.353165027142259"><ele>359.0</ele><time>2026-04-06T08:13:59Z</time></trkpt><trkpt lat="45.88799488095264" lon="11.353133935333869"><ele>358.5</ele><time>2026-04-06T08:14:00Z</time></trkpt><trkpt lat="45.888126782538826" lon="11.353104376227865"><ele>358.0</ele><time>2026-04-06T08:14:01Z</time></trkpt><trkpt lat="45.88826083468844" lon="11.353078362675495"><ele>357.5</ele><time>2026-04-06T08:14:02Z</time></trkpt><trkpt lat="45.88839858325612" lon="11.353047680003957"><ele>357.0</ele><time>2026-04-06T08:14:03Z</time></trkpt><trkpt lat="45.888531063464484" lon="11.35299234678127"><ele>358.3333333333333</ele><time>2026-04-06T08:14:04Z</time></trkpt><trkpt lat="45.88865704847898" lon="11.352892957890985"><ele>359.66666666666663</ele><time>2026-04-06T08:14:05Z</time></trkpt><trkpt lat="45.88878327897416" lon="11.352766003569695"><ele>361.0</ele><time>2026-04-06T08:14:06Z</time></trkpt><trkpt lat="45.88891420424151" lon="11.352638921646555"><ele>361.0</ele><time>2026-04-06T08:14:07Z</time></trkpt><trkpt lat="45.889055285318975" lon="11.352534274232266"><ele>361.0</ele><time>2026-04-06T08:14:08Z</time></trkpt><trkpt lat="45.88918621368762" lon="11.352410936208443"><ele>361.0</ele><time>2026-04-06T08:14:09Z</time></trkpt><trkpt lat="45.889318871886154" lon="11.352285634925208"><ele>364.0</ele><time>2026-04-06T08:14:10Z</time></trkpt><trkpt lat="45.889444670931574" lon="11.352139361430451"><ele>367.0</ele><time>2026-04-06T08:14:11Z</time></trkpt><trkpt lat="45.8895903268175" lon="11.35203269219644"><ele>370.0</ele><time>2026-04-06T08:14:12Z</time></trkpt><trkpt lat="45.88973008711025" lon="11.35190853539902"><ele>370.0</ele><time>2026-04-06T08:14:13Z</time></trkpt><trkpt lat="45.88987147455006" lon="11.351785785779674"><ele>370.0</ele><time>2026-04-06T08:14:14Z</time></trkpt><trkpt lat="45.89001484688599" lon="11.351671354100018"><ele>370.0</ele><time>2026-04-06T08:14:15Z</time></trkpt><trkpt lat="45.89016535591895" lon="11.35157089280896"><ele>367.3333333333333</ele><time>2026-04-06T08:14:16Z</time></trkpt><trkpt lat="45.890320082882006" lon="11.351483333979417"><ele>364.6666666666667</ele><time>2026-04-06T08:14:17Z</time></trkpt><trkpt lat="45.89047955643272" lon="11.351404944010831"><ele>362.0</ele><time>2026-04-06T08:14:18Z</time></trkpt><trkpt lat="45.89063326489428" lon="11.351311718610848"><ele>362.0</ele><time>2026-04-06T08:14:19Z</time></trkpt><trkpt lat="45.890792681530186" lon="11.351242253443866"><ele>362.0</ele><time>2026-04-06T08:14:20Z</time></trkpt><trkpt lat="45.89094067652864" lon="11.351174688293042"><ele>362.0</ele><time>2026-04-06T08:14:21Z</time></trkpt><trkpt lat="45.89106993586944" lon="11.351092528494519"><ele>362.0</ele><time>2026-04-06T08:14:22Z</time></trkpt><trkpt lat="45.89118771888503" lon="11.350982090695352"><ele>362.0</ele><time>2026-04-06T08:14:23Z</time></trkpt><trkpt lat="45.89129056909522" lon="11.350829566204517"><ele>362.0</ele><time>2026-04-06T08:14:24Z</time></trkpt><trkpt lat="45.89138635777179" lon="11.350648607665677"><ele>362.0</ele><time>2026-04-06T08:14:25Z</time></trkpt><trkpt lat="45.89147761340511" lon="11.350457708225576"><ele>364.6666666666667</ele><time>2026-04-06T08:14:26Z</time></trkpt><trkpt lat="45.891565042062744" lon="11.350254177016081"><ele>367.3333333333333</ele><time>2026-04-06T08:14:27Z</time></trkpt><trkpt lat="45.89165228960364" lon="11.350045692244827"><ele>370.0</ele><time>2026-04-06T08:14:28Z</time></trkpt><trkpt lat="45.89170976274266" lon="11.349809102558496"><ele>368.3333333333333</ele><time>2026-04-06T08:14:29Z</time></trkpt><trkpt lat="45.891761989605264" lon="11.349580108180291"><ele>366.6666666666667</ele><time>2026-04-06T08:14:30Z</time></trkpt><trkpt lat="45.89181264948299" lon="11.349340915202594"><ele>365.0</ele><time>2026-04-06T08:14:31Z</time></trkpt><trkpt lat="45.89185499543025" lon="11.349094689397653"><ele>365.0</ele><time>2026-04-06T08:14:32Z</time></trkpt><trkpt lat="45.89188837242563" lon="11.348847337851547"><ele>365.0</ele><time>2026-04-06T08:14:33Z</time></trkpt><trkpt lat="45.89191915485868" lon="11.34859853636369"><ele>365.0</ele><time>2026-04-06T08:14:34Z</time></trkpt><trkpt lat="45.8919498191835" lon="11.34835068946435"><ele>365.0</ele><time>2026-04-06T08:14:35Z</time></trkpt><trkpt lat="45.891980161418" lon="11.348105495027157"><ele>365.0</ele><time>2026-04-06T08:14:36Z</time></trkpt><trkpt lat="45.89201071589261" lon="11.347858617132857"><ele>365.0</ele><time>2026-04-06T08:14:37Z</time></trkpt><trkpt lat="45.89203959199612" lon="11.347613276465243"><ele>366.33333333333337</ele><time>2026-04-06T08:14:38Z</time></trkpt><trkpt lat="45.89206935142359" lon="11.347369556861048"><ele>367.6666666666667</ele><time>2026-04-06T08:14:39Z</time></trkpt><trkpt lat="45.8921042668421" lon="11.34713014790054"><ele>369.0</ele><time>2026-04-06T08:14:40Z</time></trkpt><trkpt lat="45.89215706038195" lon="11.346902727726997"><ele>372.0</ele><time>2026-04-06T08:14:41Z</time></trkpt><trkpt lat="45.892231073875614" lon="11.346688681888267"><ele>375.0</ele><time>2026-04-06T08:14:42Z</time></trkpt><trkpt lat="45.89231792522448" lon="11.346488598955903"><ele>378.0</ele><time>2026-04-06T08:14:43Z</time></trkpt><trkpt lat="45.89241201972769" lon="11.346304369835334"><ele>379.5</ele><time>2026-04-06T08:14:44Z</time></trkpt><trkpt lat="45.89252060232802" lon="11.346153879048543"><ele>381.0</ele><time>2026-04-06T08:14:45Z</time></trkpt><trkpt lat="45.892651667381216" lon="11.346057690253378"><ele>382.5</ele><time>2026-04-06T08:14:46Z</time></trkpt><trkpt lat="45.892794914989544" lon="11.345996263566445"><ele>384.0</ele><time>2026-04-06T08:14:47Z</time></trkpt><trkpt lat="45.892940938468534" lon="11.345932087011953"><ele>384.0</ele><time>2026-04-06T08:14:48Z</time></trkpt><trkpt lat="45.89307102783437" lon="11.345824123888564"><ele>384.0</ele><time>2026-04-06T08:14:49Z</time></trkpt><trkpt lat="45.89320030620257" lon="11.345710594390908"><ele>384.0</ele><time>2026-04-06T08:14:50Z</time></trkpt><trkpt lat="45.89332660259272" lon="11.345597269553416"><ele>384.33333333333337</ele><time>2026-04-06T08:14:51Z</time></trkpt><trkpt lat="45.89343691359564" lon="11.345445863514119"><ele>384.6666666666667</ele><time>2026-04-06T08:14:52Z</time></trkpt><trkpt lat="45.893520727893495" lon="11.345262576568874"><ele>385.0</ele><time>2026-04-06T08:14:53Z</time></trkpt><trkpt lat="45.89361490320845" lon="11.345085562770313"><ele>385.0</ele><time>2026-04-06T08:14:54Z</time></trkpt><trkpt lat="45.89372274959139" lon="11.344923573429337"><ele>385.0</ele><time>2026-04-06T08:14:55Z</time></trkpt><trkpt lat="45.89381658747627" lon="11.344745616336652"><ele>385.0</ele><time>2026-04-06T08:14:56Z</time></trkpt><trkpt lat="45.89390888421474" lon="11.34456166773569"><ele>387.33333333333337</ele><time>2026-04-06T08:14:57Z</time></trkpt><trkpt lat="45.89399527385895" lon="11.344369683811834"><ele>389.66666666666663</ele><time>2026-04-06T08:14:58Z</time></trkpt><trkpt lat="45.89406919862506" lon="11.344168573702566"><ele>392.0</ele><time>2026-04-06T08:14:59Z</time></trkpt><trkpt lat="45.89413778247285" lon="11.343962404451803"><ele>392.3333333333333</ele><time>2026-04-06T08:15:00Z</time></trkpt><trkpt lat="45.89420346907989" lon="11.343751346647757"><ele>392.66666666666663</ele><time>2026-04-06T08:15:01Z</time></trkpt><trkpt lat="45.89426946172315" lon="11.343538362615076"><ele>393.0</ele><time>2026-04-06T08:15:02Z</time></trkpt><trkpt lat="45.894337930215144" lon="11.3433251626653"><ele>393.0</ele><time>2026-04-06T08:15:03Z</time></trkpt><trkpt lat="45.89440661668953" lon="11.343110112951704"><ele>393.0</ele><time>2026-04-06T08:15:04Z</time></trkpt><trkpt lat="45.89447541308311" lon="11.342893115218063"><ele>393.0</ele><time>2026-04-06T08:15:05Z</time></trkpt><trkpt lat="45.89454402243479" lon="11.342674220115821"><ele>395.0</ele><time>2026-04-06T08:15:06Z</time></trkpt><trkpt lat="45.894610087315016" lon="11.34245867004853"><ele>397.0</ele><time>2026-04-06T08:15:07Z</time></trkpt><trkpt lat="45.894667225390954" lon="11.342248568539858"><ele>399.0</ele><time>2026-04-06T08:15:08Z</time></trkpt><trkpt lat="45.89471240165166" lon="11.342046595088686"><ele>399.0</ele><time>2026-04-06T08:15:09Z</time></trkpt><trkpt lat="45.89472364533008" lon="11.341838695151885"><ele>399.0</ele><time>2026-04-06T08:15:10Z</time></trkpt><trkpt lat="45.894752080176524" lon="11.341631623204195"><ele>399.0</ele><time>2026-04-06T08:15:11Z</time></trkpt><trkpt lat="45.894762879975325" lon="11.341404790418181"><ele>399.33333333333337</ele><time>2026-04-06T08:15:12Z</time></trkpt><trkpt lat="45.89477313570941" lon="11.341171786983464"><ele>399.6666666666667</ele><time>2026-04-06T08:15:13Z</time></trkpt><trkpt lat="45.894800697741076" lon="11.340942374039994"><ele>400.0</ele><time>2026-04-06T08:15:14Z</time></trkpt><trkpt lat="45.89481431754103" lon="11.340712461569776"><ele>401.0</ele><time>2026-04-06T08:15:15Z</time></trkpt><trkpt lat="45.89482878646892" lon="11.340485004815482"><ele>402.0</ele><time>2026-04-06T08:15:16Z</time></trkpt><trkpt lat="45.894847842111616" lon="11.340256159387641"><ele>403.0</ele><time>2026-04-06T08:15:17Z</time></trkpt><trkpt lat="45.894866408556204" lon="11.340032713581294"><ele>403.0</ele><time>2026-04-06T08:15:18Z</time></trkpt><trkpt lat="45.89486737761974" lon="11.33981505504547"><ele>403.0</ele><time>2026-04-06T08:15:19Z</time></trkpt><trkpt lat="45.894898926293926" lon="11.339600837534194"><ele>403.0</ele><time>2026-04-06T08:15:20Z</time></trkpt><trkpt lat="45.89490835439504" lon="11.339378036752523"><ele>404.6666666666667</ele><time>2026-04-06T08:15:21Z</time></trkpt><trkpt lat="45.894894268976216" lon="11.339155637582449"><ele>406.33333333333337</ele><time>2026-04-06T08:15:22Z</time></trkpt><trkpt lat="45.89489183036227" lon="11.338933947659445"><ele>408.0</ele><time>2026-04-06T08:15:23Z</time></trkpt><trkpt lat="45.89490504202866" lon="11.338710474779631"><ele>409.0</ele><time>2026-04-06T08:15:24Z</time></trkpt><trkpt lat="45.89490256773801" lon="11.33849098878524"><ele>410.0</ele><time>2026-04-06T08:15:25Z</time></trkpt><trkpt lat="45.8948998741794" lon="11.338269203639204"><ele>411.0</ele><time>2026-04-06T08:15:26Z</time></trkpt><trkpt lat="45.89489702625593" lon="11.338045882704938"><ele>411.75</ele><time>2026-04-06T08:15:27Z</time></trkpt><trkpt lat="45.89489457235547" lon="11.33783361832299"><ele>412.5</ele><time>2026-04-06T08:15:28Z</time></trkpt><trkpt lat="45.89489290375236" lon="11.337632194206003"><ele>413.25</ele><time>2026-04-06T08:15:29Z</time></trkpt><trkpt lat="45.89489430473322" lon="11.337434246849407"><ele>414.0</ele><time>2026-04-06T08:15:30Z</time></trkpt><trkpt lat="45.89490796900138" lon="11.337234214723964"><ele>413.5</ele><time>2026-04-06T08:15:31Z</time></trkpt><trkpt lat="45.89493588865344" lon="11.337028153422757"><ele>413.0</ele><time>2026-04-06T08:15:32Z</time></trkpt><trkpt lat="45.89497517144194" lon="11.336824131113861"><ele>412.5</ele><time>2026-04-06T08:15:33Z</time></trkpt><trkpt lat="45.89501221153902" lon="11.336618438450824"><ele>412.0</ele><time>2026-04-06T08:15:34Z</time></trkpt><trkpt lat="45.895035254168036" lon="11.336419572463681"><ele>412.75</ele><time>2026-04-06T08:15:35Z</time></trkpt><trkpt lat="45.895022218842946" lon="11.336222656619428"><ele>413.5</ele><time>2026-04-06T08:15:36Z</time></trkpt><trkpt lat="45.89501019294264" lon="11.336036226825348"><ele>414.25</ele><time>2026-04-06T08:15:37Z</time></trkpt><trkpt lat="45.8950178333129" lon="11.335848509059218"><ele>415.0</ele><time>2026-04-06T08:15:38Z</time></trkpt><trkpt lat="45.895026180788406" lon="11.33566095144237"><ele>412.75</ele><time>2026-04-06T08:15:39Z</time></trkpt><trkpt lat="45.8950472185648" lon="11.335474176441055"><ele>410.5</ele><time>2026-04-06T08:15:40Z</time></trkpt><trkpt lat="45.89508464911727" lon="11.335291084087945"><ele>408.25</ele><time>2026-04-06T08:15:41Z</time></trkpt><trkpt lat="45.895143045686524" lon="11.335112644732602"><ele>406.0</ele><time>2026-04-06T08:15:42Z</time></trkpt><trkpt lat="45.89521228433764" lon="11.334928053532353"><ele>406.0</ele><time>2026-04-06T08:15:43Z</time></trkpt><trkpt lat="45.895291753173154" lon="11.334755670261249"><ele>406.0</ele><time>2026-04-06T08:15:44Z</time></trkpt><trkpt lat="45.89536291568687" lon="11.334567129795863"><ele>406.0</ele><time>2026-04-06T08:15:45Z</time></trkpt><trkpt lat="45.89546564599039" lon="11.334414966404525"><ele>406.0</ele><time>2026-04-06T08:15:46Z</time></trkpt><trkpt lat="45.895581985335454" lon="11.334284900073687"><ele>406.33333333333337</ele><time>2026-04-06T08:15:47Z</time></trkpt><trkpt lat="45.89571599271041" lon="11.334177405265757"><ele>406.66666666666663</ele><time>2026-04-06T08:15:48Z</time></trkpt><trkpt lat="45.89587211472167" lon="11.334122634357279"><ele>407.0</ele><time>2026-04-06T08:15:49Z</time></trkpt><trkpt lat="45.896025772261794" lon="11.334040816898773"><ele>407.0</ele><time>2026-04-06T08:15:50Z</time></trkpt><trkpt lat="45.89617384100774" lon="11.33396189807092"><ele>407.0</ele><time>2026-04-06T08:15:51Z</time></trkpt><trkpt lat="45.89631414944381" lon="11.33386512817485"><ele>407.0</ele><time>2026-04-06T08:15:52Z</time></trkpt><trkpt lat="45.8964637585002" lon="11.333787077242253"><ele>407.25</ele><time>2026-04-06T08:15:53Z</time></trkpt><trkpt lat="45.896606111572346" lon="11.333708506121615"><ele>407.5</ele><time>2026-04-06T08:15:54Z</time></trkpt><trkpt lat="45.89673948446089" lon="11.333639354633457"><ele>407.75</ele><time>2026-04-06T08:15:55Z</time></trkpt><trkpt lat="45.89687126322485" lon="11.333564285575518"><ele>408.0</ele><time>2026-04-06T08:15:56Z</time></trkpt><trkpt lat="45.89700879308845" lon="11.333494946114186"><ele>408.0</ele><time>2026-04-06T08:15:57Z</time></trkpt><trkpt lat="45.89713719327781" lon="11.333379476567458"><ele>408.0</ele><time>2026-04-06T08:15:58Z</time></trkpt><trkpt lat="45.897249517388424" lon="11.333234647888593"><ele>408.0</ele><time>2026-04-06T08:15:59Z</time></trkpt><trkpt lat="45.89733249078636" lon="11.333046285909203"><ele>408.33333333333337</ele><time>2026-04-06T08:16:00Z</time></trkpt><trkpt lat="45.89742326680836" lon="11.332849759025292"><ele>408.6666666666667</ele><time>2026-04-06T08:16:01Z</time></trkpt><trkpt lat="45.897509602625426" lon="11.33264115757505"><ele>409.0</ele><time>2026-04-06T08:16:02Z</time></trkpt><trkpt lat="45.897611854168126" lon="11.332438963529414"><ele>409.0</ele><time>2026-04-06T08:16:03Z</time></trkpt><trkpt lat="45.897698685688866" lon="11.332223878343447"><ele>409.0</ele><time>2026-04-06T08:16:04Z</time></trkpt><trkpt lat="45.897776941505796" lon="11.331993420381771"><ele>409.0</ele><time>2026-04-06T08:16:05Z</time></trkpt><trkpt lat="45.89786754524636" lon="11.331771497959974"><ele>409.6666666666667</ele><time>2026-04-06T08:16:06Z</time></trkpt><trkpt lat="45.89795932669878" lon="11.33153619355429"><ele>410.33333333333337</ele><time>2026-04-06T08:16:07Z</time></trkpt><trkpt lat="45.898056405842006" lon="11.331299950923855"><ele>411.0</ele><time>2026-04-06T08:16:08Z</time></trkpt><trkpt lat="45.89817390973082" lon="11.331078510346309"><ele>411.0</ele><time>2026-04-06T08:16:09Z</time></trkpt><trkpt lat="45.89829244836483" lon="11.33084625834797"><ele>411.0</ele><time>2026-04-06T08:16:10Z</time></trkpt><trkpt lat="45.89842375297892" lon="11.330602784126368"><ele>411.0</ele><time>2026-04-06T08:16:11Z</time></trkpt><trkpt lat="45.8985622509186" lon="11.330360908619413"><ele>413.5</ele><time>2026-04-06T08:16:12Z</time></trkpt><trkpt lat="45.89870886062065" lon="11.33011246955829"><ele>416.0</ele><time>2026-04-06T08:16:13Z</time></trkpt><trkpt lat="45.898857565990085" lon="11.329862919591282"><ele>419.0</ele><time>2026-04-06T08:16:14Z</time></trkpt><trkpt lat="45.89901007836154" lon="11.329606980873924"><ele>422.0</ele><time>2026-04-06T08:16:15Z</time></trkpt><trkpt lat="45.89916610381561" lon="11.329345146687482"><ele>420.5</ele><time>2026-04-06T08:16:16Z</time></trkpt><trkpt lat="45.89932650255357" lon="11.329075973438622"><ele>419.0</ele><time>2026-04-06T08:16:17Z</time></trkpt><trkpt lat="45.899488976506184" lon="11.328804372289326"><ele>419.0</ele><time>2026-04-06T08:16:18Z</time></trkpt><trkpt lat="45.89965404583835" lon="11.328528615229027"><ele>419.0</ele><time>2026-04-06T08:16:19Z</time></trkpt><trkpt lat="45.899820915380914" lon="11.328249850550268"><ele>417.5</ele><time>2026-04-06T08:16:20Z</time></trkpt><trkpt lat="45.89998702382147" lon="11.327972358502812"><ele>416.0</ele><time>2026-04-06T08:16:21Z</time></trkpt><trkpt lat="45.90015494492944" lon="11.327693631772783"><ele>416.0</ele><time>2026-04-06T08:16:22Z</time></trkpt><trkpt lat="45.90032155997845" lon="11.327417096259165"><ele>416.0</ele><time>2026-04-06T08:16:23Z</time></trkpt><trkpt lat="45.90048402358676" lon="11.327139235833073"><ele>421.5</ele><time>2026-04-06T08:16:24Z</time></trkpt><trkpt lat="45.90061889889552" lon="11.326833673519268"><ele>427.0</ele><time>2026-04-06T08:16:25Z</time></trkpt><trkpt lat="45.90074776354695" lon="11.326529733031991"><ele>422.0</ele><time>2026-04-06T08:16:26Z</time></trkpt><trkpt lat="45.9008681395832" lon="11.326214614342812"><ele>417.0</ele><time>2026-04-06T08:16:27Z</time></trkpt><trkpt lat="45.90098917670791" lon="11.325903052784641"><ele>417.0</ele><time>2026-04-06T08:16:28Z</time></trkpt><trkpt lat="45.901127011931116" lon="11.325601625973889"><ele>417.0</ele><time>2026-04-06T08:16:29Z</time></trkpt><trkpt lat="45.901249559403446" lon="11.32529214777591"><ele>420.5</ele><time>2026-04-06T08:16:30Z</time></trkpt><trkpt lat="45.90137204283141" lon="11.324983069614387"><ele>424.0</ele><time>2026-04-06T08:16:31Z</time></trkpt><trkpt lat="45.9014949916938" lon="11.324673216198748"><ele>430.5</ele><time>2026-04-06T08:16:32Z</time></trkpt><trkpt lat="45.901616963939226" lon="11.324365875049983"><ele>437.0</ele><time>2026-04-06T08:16:33Z</time></trkpt><trkpt lat="45.90173914620685" lon="11.324059782949726"><ele>430.0</ele><time>2026-04-06T08:16:34Z</time></trkpt><trkpt lat="45.90186038416637" lon="11.323756473870445"><ele>423.0</ele><time>2026-04-06T08:16:35Z</time></trkpt><trkpt lat="45.901981577403696" lon="11.323453309141476"><ele>423.0</ele><time>2026-04-06T08:16:36Z</time></trkpt><trkpt lat="45.90210157475614" lon="11.323151220938078"><ele>423.0</ele><time>2026-04-06T08:16:37Z</time></trkpt><trkpt lat="45.90222067424087" lon="11.322849208993103"><ele>428.0</ele><time>2026-04-06T08:16:38Z</time></trkpt><trkpt lat="45.9023372496256" lon="11.322549695706197"><ele>433.0</ele><time>2026-04-06T08:16:39Z</time></trkpt><trkpt lat="45.90243281427275" lon="11.322241470630402"><ele>438.0</ele><time>2026-04-06T08:16:40Z</time></trkpt><trkpt lat="45.902535912743545" lon="11.321942278985635"><ele>443.0</ele><time>2026-04-06T08:16:41Z</time></trkpt><trkpt lat="45.90264845702518" lon="11.321653190389537"><ele>436.66666666666663</ele><time>2026-04-06T08:16:42Z</time></trkpt><trkpt lat="45.9027427783186" lon="11.321355272706468"><ele>430.33333333333337</ele><time>2026-04-06T08:16:43Z</time></trkpt><trkpt lat="45.90283259588899" lon="11.321065659877306"><ele>424.0</ele><time>2026-04-06T08:16:44Z</time></trkpt><trkpt lat="45.902918530958466" lon="11.320785688608188"><ele>425.33333333333337</ele><time>2026-04-06T08:16:45Z</time></trkpt><trkpt lat="45.903001825993194" lon="11.320514319685303"><ele>426.66666666666663</ele><time>2026-04-06T08:16:46Z</time></trkpt><trkpt lat="45.90308293095673" lon="11.320250085749077"><ele>428.0</ele><time>2026-04-06T08:16:47Z</time></trkpt><trkpt lat="45.90316041154024" lon="11.319994559833239"><ele>428.0</ele><time>2026-04-06T08:16:48Z</time></trkpt><trkpt lat="45.90321903630983" lon="11.319738805175454"><ele>428.0</ele><time>2026-04-06T08:16:49Z</time></trkpt><trkpt lat="45.90329029545303" lon="11.319510234747108"><ele>428.0</ele><time>2026-04-06T08:16:50Z</time></trkpt><trkpt lat="45.903354200215695" lon="11.319298503907024"><ele>428.75</ele><time>2026-04-06T08:16:51Z</time></trkpt><trkpt lat="45.90341164429024" lon="11.31909955856727"><ele>429.5</ele><time>2026-04-06T08:16:52Z</time></trkpt><trkpt lat="45.90344412101558" lon="11.318899801183104"><ele>430.25</ele><time>2026-04-06T08:16:53Z</time></trkpt><trkpt lat="45.903432468707564" lon="11.31868829981337"><ele>431.0</ele><time>2026-04-06T08:16:54Z</time></trkpt><trkpt lat="45.90338841445108" lon="11.318471349698912"><ele>432.66666666666663</ele><time>2026-04-06T08:16:55Z</time></trkpt><trkpt lat="45.90332497729054" lon="11.318251222158725"><ele>434.33333333333337</ele><time>2026-04-06T08:16:56Z</time></trkpt><trkpt lat="45.903277590441" lon="11.318012437895883"><ele>436.0</ele><time>2026-04-06T08:16:57Z</time></trkpt><trkpt lat="45.90322854326287" lon="11.3177702132701"><ele>436.6666666666667</ele><time>2026-04-06T08:16:58Z</time></trkpt><trkpt lat="45.90319684641693" lon="11.3175222089524"><ele>437.33333333333337</ele><time>2026-04-06T08:16:59Z</time></trkpt><trkpt lat="45.9031810713465" lon="11.317269015304197"><ele>438.0</ele><time>2026-04-06T08:17:00Z</time></trkpt><trkpt lat="45.90317471040696" lon="11.317010590970801"><ele>438.0</ele><time>2026-04-06T08:17:01Z</time></trkpt><trkpt lat="45.90317547189848" lon="11.316753383559917"><ele>438.0</ele><time>2026-04-06T08:17:02Z</time></trkpt><trkpt lat="45.90318404503981" lon="11.316501186581498"><ele>438.0</ele><time>2026-04-06T08:17:03Z</time></trkpt><trkpt lat="45.9032070264618" lon="11.316254632134227"><ele>436.33333333333337</ele><time>2026-04-06T08:17:04Z</time></trkpt><trkpt lat="45.903258966870254" lon="11.316023467447783"><ele>434.6666666666667</ele><time>2026-04-06T08:17:05Z</time></trkpt><trkpt lat="45.90333450343572" lon="11.315799103028425"><ele>433.0</ele><time>2026-04-06T08:17:06Z</time></trkpt><trkpt lat="45.9034221678019" lon="11.315584804882835"><ele>435.33333333333337</ele><time>2026-04-06T08:17:07Z</time></trkpt><trkpt lat="45.90352394078076" lon="11.31538190792663"><ele>437.66666666666663</ele><time>2026-04-06T08:17:08Z</time></trkpt><trkpt lat="45.903649338607" lon="11.315198686635151"><ele>440.0</ele><time>2026-04-06T08:17:09Z</time></trkpt><trkpt lat="45.90378611520786" lon="11.31502940151624"><ele>440.0</ele><time>2026-04-06T08:17:10Z</time></trkpt><trkpt lat="45.903918599595684" lon="11.314856654603686"><ele>440.0</ele><time>2026-04-06T08:17:11Z</time></trkpt><trkpt lat="45.90406652676342" lon="11.314708254868608"><ele>440.0</ele><time>2026-04-06T08:17:12Z</time></trkpt><trkpt lat="45.90421501642832" lon="11.314563382955559"><ele>438.66666666666663</ele><time>2026-04-06T08:17:13Z</time></trkpt><trkpt lat="45.90436376640339" lon="11.314416674231964"><ele>437.33333333333337</ele><time>2026-04-06T08:17:14Z</time></trkpt><trkpt lat="45.90451375256382" lon="11.31426862911339"><ele>436.0</ele><time>2026-04-06T08:17:15Z</time></trkpt><trkpt lat="45.90466287968779" lon="11.314122045986407"><ele>436.0</ele><time>2026-04-06T08:17:16Z</time></trkpt><trkpt lat="45.904813032076426" lon="11.313979342243728"><ele>436.0</ele><time>2026-04-06T08:17:17Z</time></trkpt><trkpt lat="45.904963380034104" lon="11.313832041557694"><ele>436.0</ele><time>2026-04-06T08:17:18Z</time></trkpt><trkpt lat="45.905109275770585" lon="11.313688581628945"><ele>437.33333333333337</ele><time>2026-04-06T08:17:19Z</time></trkpt><trkpt lat="45.905247027422305" lon="11.313554530932677"><ele>438.66666666666663</ele><time>2026-04-06T08:17:20Z</time></trkpt><trkpt lat="45.90538770350949" lon="11.313458551813303"><ele>440.0</ele><time>2026-04-06T08:17:21Z</time></trkpt><trkpt lat="45.905521267889824" lon="11.31336505354613"><ele>440.0</ele><time>2026-04-06T08:17:22Z</time></trkpt><trkpt lat="45.90566883259261" lon="11.313310437785857"><ele>440.0</ele><time>2026-04-06T08:17:23Z</time></trkpt><trkpt lat="45.905824253149625" lon="11.313278322029623"><ele>440.0</ele><time>2026-04-06T08:17:24Z</time></trkpt><trkpt lat="45.90598620462071" lon="11.313271946669685"><ele>443.0</ele><time>2026-04-06T08:17:25Z</time></trkpt><trkpt lat="45.906145498520885" lon="11.313314934247169"><ele>446.0</ele><time>2026-04-06T08:17:26Z</time></trkpt><trkpt lat="45.906309679020026" lon="11.31335838762103"><ele>449.0</ele><time>2026-04-06T08:17:27Z</time></trkpt><trkpt lat="45.90646372879594" lon="11.313441715583382"><ele>449.0</ele><time>2026-04-06T08:17:28Z</time></trkpt><trkpt lat="45.90661884470891" lon="11.313521249477025"><ele>449.0</ele><time>2026-04-06T08:17:29Z</time></trkpt><trkpt lat="45.90676933754992" lon="11.313601441158356"><ele>449.0</ele><time>2026-04-06T08:17:30Z</time></trkpt><trkpt lat="45.90690688888151" lon="11.31369091861439"><ele>448.0</ele><time>2026-04-06T08:17:31Z</time></trkpt><trkpt lat="45.907026599044684" lon="11.31377704045801"><ele>447.0</ele><time>2026-04-06T08:17:32Z</time></trkpt><trkpt lat="45.90712634031917" lon="11.313845223089556"><ele>446.0</ele><time>2026-04-06T08:17:33Z</time></trkpt><trkpt lat="45.907207433104645" lon="11.313873803277168"><ele>445.0</ele><time>2026-04-06T08:17:34Z</time></trkpt><trkpt lat="45.90728720660504" lon="11.313855059017424"><ele>444.0</ele><time>2026-04-06T08:17:35Z</time></trkpt><trkpt lat="45.907363064485715" lon="11.313806147801433"><ele>444.0</ele><time>2026-04-06T08:17:36Z</time></trkpt><trkpt lat="45.907424217311586" lon="11.313696956877296"><ele>444.0</ele><time>2026-04-06T08:17:37Z</time></trkpt><trkpt lat="45.90741251624797" lon="11.313522670786734"><ele>444.0</ele><time>2026-04-06T08:17:38Z</time></trkpt><trkpt lat="45.90739319514384" lon="11.313356948787629"><ele>444.0</ele><time>2026-04-06T08:17:39Z</time></trkpt><trkpt lat="45.90735813223569" lon="11.313173643729224"><ele>444.0</ele><time>2026-04-06T08:17:40Z</time></trkpt><trkpt lat="45.907350333463185" lon="11.31297557945004"><ele>444.0</ele><time>2026-04-06T08:17:41Z</time></trkpt><trkpt lat="45.907330639631304" lon="11.312766889107701"><ele>444.0</ele><time>2026-04-06T08:17:42Z</time></trkpt><trkpt lat="45.90731022223573" lon="11.312550531348727"><ele>444.0</ele><time>2026-04-06T08:17:43Z</time></trkpt><trkpt lat="45.90729063996037" lon="11.312322691301542"><ele>443.33333333333337</ele><time>2026-04-06T08:17:44Z</time></trkpt><trkpt lat="45.907273537578895" lon="11.312090056178992"><ele>442.6666666666667</ele><time>2026-04-06T08:17:45Z</time></trkpt><trkpt lat="45.90725719191731" lon="11.31185138541681"><ele>442.0</ele><time>2026-04-06T08:17:46Z</time></trkpt><trkpt lat="45.90724314484401" lon="11.311607328463692"><ele>442.0</ele><time>2026-04-06T08:17:47Z</time></trkpt><trkpt lat="45.90722882133552" lon="11.311359791332762"><ele>442.0</ele><time>2026-04-06T08:17:48Z</time></trkpt><trkpt lat="45.907216662490974" lon="11.31111011948539"><ele>442.0</ele><time>2026-04-06T08:17:49Z</time></trkpt><trkpt lat="45.90718965947936" lon="11.310859445936796"><ele>442.0</ele><time>2026-04-06T08:17:50Z</time></trkpt><trkpt lat="45.90719473018552" lon="11.310604094037025"><ele>442.0</ele><time>2026-04-06T08:17:51Z</time></trkpt><trkpt lat="45.90718496479809" lon="11.310345704541625"><ele>442.0</ele><time>2026-04-06T08:17:52Z</time></trkpt><trkpt lat="45.90717628374518" lon="11.310086443212116"><ele>442.0</ele><time>2026-04-06T08:17:53Z</time></trkpt><trkpt lat="45.90716881314887" lon="11.309826951415694"><ele>442.0</ele><time>2026-04-06T08:17:54Z</time></trkpt><trkpt lat="45.907162173683496" lon="11.309568190503317"><ele>442.0</ele><time>2026-04-06T08:17:55Z</time></trkpt><trkpt lat="45.907155475005425" lon="11.309308903615081"><ele>442.0</ele><time>2026-04-06T08:17:56Z</time></trkpt><trkpt lat="45.90714813821627" lon="11.309046482397319"><ele>442.0</ele><time>2026-04-06T08:17:57Z</time></trkpt><trkpt lat="45.90714088836066" lon="11.30878717063403"><ele>442.0</ele><time>2026-04-06T08:17:58Z</time></trkpt><trkpt lat="45.90713304916497" lon="11.308529903506967"><ele>442.6666666666667</ele><time>2026-04-06T08:17:59Z</time></trkpt><trkpt lat="45.90712504890319" lon="11.308273691101705"><ele>443.33333333333337</ele><time>2026-04-06T08:18:00Z</time></trkpt><trkpt lat="45.907117757242155" lon="11.308018919320764"><ele>444.0</ele><time>2026-04-06T08:18:01Z</time></trkpt><trkpt lat="45.90711217256309" lon="11.307776717769203"><ele>444.66666666666663</ele><time>2026-04-06T08:18:02Z</time></trkpt><trkpt lat="45.90710825231919" lon="11.30754612059825"><ele>445.3333333333333</ele><time>2026-04-06T08:18:03Z</time></trkpt><trkpt lat="45.9071080416398" lon="11.30733080589131"><ele>446.0</ele><time>2026-04-06T08:18:04Z</time></trkpt><trkpt lat="45.907116377924915" lon="11.307119740523019"><ele>446.3333333333333</ele><time>2026-04-06T08:18:05Z</time></trkpt><trkpt lat="45.90714225633673" lon="11.306907634864821"><ele>446.66666666666663</ele><time>2026-04-06T08:18:06Z</time></trkpt><trkpt lat="45.90717888546299" lon="11.306684625453522"><ele>447.0</ele><time>2026-04-06T08:18:07Z</time></trkpt><trkpt lat="45.90722420498385" lon="11.306469602208349"><ele>448.66666666666663</ele><time>2026-04-06T08:18:08Z</time></trkpt><trkpt lat="45.90727674013555" lon="11.306258883261536"><ele>450.3333333333333</ele><time>2026-04-06T08:18:09Z</time></trkpt><trkpt lat="45.90733450211345" lon="11.306056917535422"><ele>452.0</ele><time>2026-04-06T08:18:10Z</time></trkpt><trkpt lat="45.90740233343523" lon="11.305860061856084"><ele>452.0</ele><time>2026-04-06T08:18:11Z</time></trkpt><trkpt lat="45.90748422007976" lon="11.305648953390248"><ele>452.0</ele><time>2026-04-06T08:18:12Z</time></trkpt><trkpt lat="45.90757426878498" lon="11.305451883719797"><ele>452.0</ele><time>2026-04-06T08:18:13Z</time></trkpt><trkpt lat="45.907667945160945" lon="11.305265843470323"><ele>452.3333333333333</ele><time>2026-04-06T08:18:14Z</time></trkpt><trkpt lat="45.90776587146612" lon="11.305092174531275"><ele>452.66666666666663</ele><time>2026-04-06T08:18:15Z</time></trkpt><trkpt lat="45.90787080928132" lon="11.30492449109673"><ele>453.0</ele><time>2026-04-06T08:18:16Z</time></trkpt><trkpt lat="45.90797691542715" lon="11.30475505027769"><ele>453.66666666666663</ele><time>2026-04-06T08:18:17Z</time></trkpt><trkpt lat="45.90807111343431" lon="11.304570505328703"><ele>454.3333333333333</ele><time>2026-04-06T08:18:18Z</time></trkpt><trkpt lat="45.90818123231277" lon="11.304393716276195"><ele>455.0</ele><time>2026-04-06T08:18:19Z</time></trkpt><trkpt lat="45.90831229422703" lon="11.304219484110451"><ele>454.66666666666663</ele><time>2026-04-06T08:18:20Z</time></trkpt><trkpt lat="45.90843738774956" lon="11.304015610346887"><ele>454.33333333333337</ele><time>2026-04-06T08:18:21Z</time></trkpt><trkpt lat="45.90855662953498" lon="11.303793300961427"><ele>454.0</ele><time>2026-04-06T08:18:22Z</time></trkpt><trkpt lat="45.90867109168531" lon="11.303558446617796"><ele>453.6666666666667</ele><time>2026-04-06T08:18:23Z</time></trkpt><trkpt lat="45.90878600162334" lon="11.303320802428418"><ele>453.33333333333337</ele><time>2026-04-06T08:18:24Z</time></trkpt><trkpt lat="45.908902619633224" lon="11.30307860323074"><ele>453.0</ele><time>2026-04-06T08:18:25Z</time></trkpt><trkpt lat="45.90901861180177" lon="11.30283481950264"><ele>453.66666666666663</ele><time>2026-04-06T08:18:26Z</time></trkpt><trkpt lat="45.90913428815641" lon="11.302593294542698"><ele>454.3333333333333</ele><time>2026-04-06T08:18:27Z</time></trkpt><trkpt lat="45.90923857754366" lon="11.302339587150364"><ele>455.0</ele><time>2026-04-06T08:18:28Z</time></trkpt><trkpt lat="45.90935434502365" lon="11.30210173485482"><ele>455.0</ele><time>2026-04-06T08:18:29Z</time></trkpt><trkpt lat="45.90946822900828" lon="11.301865578819871"><ele>455.0</ele><time>2026-04-06T08:18:30Z</time></trkpt><trkpt lat="45.90958374361223" lon="11.301631444708333"><ele>455.0</ele><time>2026-04-06T08:18:31Z</time></trkpt><trkpt lat="45.909706696004505" lon="11.301405789528477"><ele>455.3333333333333</ele><time>2026-04-06T08:18:32Z</time></trkpt><trkpt lat="45.90984905961572" lon="11.301208236837017"><ele>455.66666666666663</ele><time>2026-04-06T08:18:33Z</time></trkpt><trkpt lat="45.909973730043454" lon="11.30098818486663"><ele>456.0</ele><time>2026-04-06T08:18:34Z</time></trkpt><trkpt lat="45.91009988191421" lon="11.300779946107982"><ele>456.0</ele><time>2026-04-06T08:18:35Z</time></trkpt><trkpt lat="45.910213188822745" lon="11.300558889359692"><ele>456.0</ele><time>2026-04-06T08:18:36Z</time></trkpt><trkpt lat="45.91031922943798" lon="11.300329607388017"><ele>456.0</ele><time>2026-04-06T08:18:37Z</time></trkpt><trkpt lat="45.910423184647364" lon="11.300094921041623"><ele>456.0</ele><time>2026-04-06T08:18:38Z</time></trkpt><trkpt lat="45.91052374573408" lon="11.299858577444981"><ele>456.0</ele><time>2026-04-06T08:18:39Z</time></trkpt><trkpt lat="45.91061798809221" lon="11.299619098918223"><ele>456.0</ele><time>2026-04-06T08:18:40Z</time></trkpt><trkpt lat="45.91070609356837" lon="11.299372341678476"><ele>457.66666666666663</ele><time>2026-04-06T08:18:41Z</time></trkpt><trkpt lat="45.91078972591442" lon="11.299121380422525"><ele>459.3333333333333</ele><time>2026-04-06T08:18:42Z</time></trkpt><trkpt lat="45.910872682550696" lon="11.298870868979579"><ele>461.0</ele><time>2026-04-06T08:18:43Z</time></trkpt><trkpt lat="45.910970778130796" lon="11.29863257071919"><ele>461.0</ele><time>2026-04-06T08:18:44Z</time></trkpt><trkpt lat="45.91105265094934" lon="11.298384391340544"><ele>461.0</ele><time>2026-04-06T08:18:45Z</time></trkpt><trkpt lat="45.911133485483035" lon="11.298137439884822"><ele>461.0</ele><time>2026-04-06T08:18:46Z</time></trkpt><trkpt lat="45.911200272964706" lon="11.29788217259168"><ele>462.66666666666663</ele><time>2026-04-06T08:18:47Z</time></trkpt><trkpt lat="45.91128158434693" lon="11.297638999636899"><ele>464.33333333333337</ele><time>2026-04-06T08:18:48Z</time></trkpt><trkpt lat="45.9113758776001" lon="11.297406093772356"><ele>466.0</ele><time>2026-04-06T08:18:49Z</time></trkpt><trkpt lat="45.91145438487182" lon="11.29716492700472"><ele>470.0</ele><time>2026-04-06T08:18:50Z</time></trkpt><trkpt lat="45.91153362660006" lon="11.296925302246724"><ele>474.0</ele><time>2026-04-06T08:18:51Z</time></trkpt><trkpt lat="45.91161101824385" lon="11.296691288285425"><ele>478.0</ele><time>2026-04-06T08:18:52Z</time></trkpt><trkpt lat="45.91167269025931" lon="11.296451479818716"><ele>475.0</ele><time>2026-04-06T08:18:53Z</time></trkpt><trkpt lat="45.911751983834584" lon="11.2962259496429"><ele>472.0</ele><time>2026-04-06T08:18:54Z</time></trkpt><trkpt lat="45.9118489414159" lon="11.296023822714975"><ele>469.0</ele><time>2026-04-06T08:18:55Z</time></trkpt><trkpt lat="45.91194281427074" lon="11.29582262134873"><ele>469.0</ele><time>2026-04-06T08:18:56Z</time></trkpt><trkpt lat="45.912041162615324" lon="11.295635566961735"><ele>469.0</ele><time>2026-04-06T08:18:57Z</time></trkpt><trkpt lat="45.91215142364788" lon="11.295460349721274"><ele>469.0</ele><time>2026-04-06T08:18:58Z</time></trkpt><trkpt lat="45.912264579553465" lon="11.295284815832943"><ele>471.6666666666667</ele><time>2026-04-06T08:18:59Z</time></trkpt><trkpt lat="45.91237780484779" lon="11.295109905094115"><ele>474.33333333333337</ele><time>2026-04-06T08:19:00Z</time></trkpt><trkpt lat="45.91247995409407" lon="11.294920393117478"><ele>477.0</ele><time>2026-04-06T08:19:01Z</time></trkpt><trkpt lat="45.912592678563435" lon="11.294757133340372"><ele>476.66666666666663</ele><time>2026-04-06T08:19:02Z</time></trkpt><trkpt lat="45.91271083353285" lon="11.294604678131936"><ele>476.3333333333333</ele><time>2026-04-06T08:19:03Z</time></trkpt><trkpt lat="45.912789618248596" lon="11.294425198104248"><ele>476.0</ele><time>2026-04-06T08:19:04Z</time></trkpt><trkpt lat="45.91287704931067" lon="11.294255431930253"><ele>476.0</ele><time>2026-04-06T08:19:05Z</time></trkpt><trkpt lat="45.912956732424426" lon="11.294076712710588"><ele>476.0</ele><time>2026-04-06T08:19:06Z</time></trkpt><trkpt lat="45.91302785322452" lon="11.293888616524333"><ele>476.0</ele><time>2026-04-06T08:19:07Z</time></trkpt><trkpt lat="45.91311882142772" lon="11.293708265392235"><ele>476.0</ele><time>2026-04-06T08:19:08Z</time></trkpt><trkpt lat="45.91318977871378" lon="11.293508488109483"><ele>476.0</ele><time>2026-04-06T08:19:09Z</time></trkpt><trkpt lat="45.91322827461819" lon="11.293295702704931"><ele>476.0</ele><time>2026-04-06T08:19:10Z</time></trkpt><trkpt lat="45.913267306178156" lon="11.293089196911586"><ele>477.25</ele><time>2026-04-06T08:19:11Z</time></trkpt><trkpt lat="45.91329515006383" lon="11.292879438000508"><ele>478.5</ele><time>2026-04-06T08:19:12Z</time></trkpt><trkpt lat="45.913341614432404" lon="11.292666489159965"><ele>479.75</ele><time>2026-04-06T08:19:13Z</time></trkpt><trkpt lat="45.913372756211" lon="11.292473799186359"><ele>481.0</ele><time>2026-04-06T08:19:14Z</time></trkpt><trkpt lat="45.91339257074427" lon="11.292267392748961"><ele>481.5</ele><time>2026-04-06T08:19:15Z</time></trkpt><trkpt lat="45.91340049376754" lon="11.292077159040659"><ele>482.0</ele><time>2026-04-06T08:19:16Z</time></trkpt><trkpt lat="45.91339207279683" lon="11.291876887437727"><ele>482.5</ele><time>2026-04-06T08:19:17Z</time></trkpt><trkpt lat="45.913373221392696" lon="11.291677070347019"><ele>483.0</ele><time>2026-04-06T08:19:18Z</time></trkpt><trkpt lat="45.91334749117541" lon="11.291485210977605"><ele>482.0</ele><time>2026-04-06T08:19:19Z</time></trkpt><trkpt lat="45.91332248075955" lon="11.29129399814707"><ele>481.0</ele><time>2026-04-06T08:19:20Z</time></trkpt><trkpt lat="45.9132969645415" lon="11.29110115241913"><ele>480.0</ele><time>2026-04-06T08:19:21Z</time></trkpt><trkpt lat="45.91326834215489" lon="11.290911525162162"><ele>479.0</ele><time>2026-04-06T08:19:22Z</time></trkpt><trkpt lat="45.9132298979386" lon="11.290710013998993"><ele>479.75</ele><time>2026-04-06T08:19:23Z</time></trkpt><trkpt lat="45.91318064805556" lon="11.290513332969347"><ele>480.5</ele><time>2026-04-06T08:19:24Z</time></trkpt><trkpt lat="45.913128551949114" lon="11.290316118307507"><ele>481.25</ele><time>2026-04-06T08:19:25Z</time></trkpt><trkpt lat="45.91307632496549" lon="11.290116006932932"><ele>482.0</ele><time>2026-04-06T08:19:26Z</time></trkpt><trkpt lat="45.91302786857051" lon="11.28990525416278"><ele>482.0</ele><time>2026-04-06T08:19:27Z</time></trkpt><trkpt lat="45.91299032771041" lon="11.289688025465992"><ele>482.0</ele><time>2026-04-06T08:19:28Z</time></trkpt><trkpt lat="45.912945109655766" lon="11.289470145270649"><ele>482.0</ele><time>2026-04-06T08:19:29Z</time></trkpt><trkpt lat="45.91294539634404" lon="11.289246713094917"><ele>482.0</ele><time>2026-04-06T08:19:30Z</time></trkpt><trkpt lat="45.912915861340075" lon="11.289029584509207"><ele>482.0</ele><time>2026-04-06T08:19:31Z</time></trkpt><trkpt lat="45.91292131387267" lon="11.288809708695434"><ele>482.0</ele><time>2026-04-06T08:19:32Z</time></trkpt><trkpt lat="45.91291053858215" lon="11.288595172357471"><ele>483.25</ele><time>2026-04-06T08:19:33Z</time></trkpt><trkpt lat="45.91290109856737" lon="11.288396384216679"><ele>484.5</ele><time>2026-04-06T08:19:34Z</time></trkpt><trkpt lat="45.91289914296093" lon="11.288217403348744"><ele>485.75</ele><time>2026-04-06T08:19:35Z</time></trkpt><trkpt lat="45.91291310932079" lon="11.288051588606859"><ele>487.0</ele><time>2026-04-06T08:19:36Z</time></trkpt><trkpt lat="45.91293757879498" lon="11.287883049508698"><ele>487.75</ele><time>2026-04-06T08:19:37Z</time></trkpt><trkpt lat="45.91297902954367" lon="11.287722757657223"><ele>488.5</ele><time>2026-04-06T08:19:38Z</time></trkpt><trkpt lat="45.913023969422966" lon="11.28756527490754"><ele>489.25</ele><time>2026-04-06T08:19:39Z</time></trkpt><trkpt lat="45.91307155914167" lon="11.287403710025432"><ele>490.0</ele><time>2026-04-06T08:19:40Z</time></trkpt><trkpt lat="45.91312188845039" lon="11.287234814665057"><ele>491.25</ele><time>2026-04-06T08:19:41Z</time></trkpt><trkpt lat="45.913174308838386" lon="11.28705894845889"><ele>492.5</ele><time>2026-04-06T08:19:42Z</time></trkpt><trkpt lat="45.91322604283789" lon="11.286882004440274"><ele>493.75</ele><time>2026-04-06T08:19:43Z</time></trkpt><trkpt lat="45.91327614448999" lon="11.286710643497932"><ele>495.0</ele><time>2026-04-06T08:19:44Z</time></trkpt><trkpt lat="45.91332444889866" lon="11.286547391010828"><ele>494.75</ele><time>2026-04-06T08:19:45Z</time></trkpt><trkpt lat="45.913368878227836" lon="11.286377471633518"><ele>494.5</ele><time>2026-04-06T08:19:46Z</time></trkpt><trkpt lat="45.91339903752538" lon="11.28619307525355"><ele>494.25</ele><time>2026-04-06T08:19:47Z</time></trkpt><trkpt lat="45.913410647965364" lon="11.286002050100228"><ele>494.0</ele><time>2026-04-06T08:19:48Z</time></trkpt><trkpt lat="45.913405499050285" lon="11.285811418744752"><ele>495.5</ele><time>2026-04-06T08:19:49Z</time></trkpt><trkpt lat="45.91339661768928" lon="11.28562006140455"><ele>497.0</ele><time>2026-04-06T08:19:50Z</time></trkpt><trkpt lat="45.913383620135576" lon="11.28542020715994"><ele>498.5</ele><time>2026-04-06T08:19:51Z</time></trkpt><trkpt lat="45.9133670807985" lon="11.285217436464222"><ele>500.0</ele><time>2026-04-06T08:19:52Z</time></trkpt><trkpt lat="45.913346316886106" lon="11.285016465514982"><ele>501.0</ele><time>2026-04-06T08:19:53Z</time></trkpt><trkpt lat="45.913324928075134" lon="11.284822930270616"><ele>502.0</ele><time>2026-04-06T08:19:54Z</time></trkpt><trkpt lat="45.91330542389835" lon="11.284644448852436"><ele>503.0</ele><time>2026-04-06T08:19:55Z</time></trkpt><trkpt lat="45.91329724126474" lon="11.28447024449663"><ele>504.0</ele><time>2026-04-06T08:19:56Z</time></trkpt><trkpt lat="45.9132897918076" lon="11.284293759992861"><ele>504.5</ele><time>2026-04-06T08:19:57Z</time></trkpt><trkpt lat="45.913339378690644" lon="11.284124708325134"><ele>505.0</ele><time>2026-04-06T08:19:58Z</time></trkpt><trkpt lat="45.91338292776844" lon="11.283955407930064"><ele>505.5</ele><time>2026-04-06T08:19:59Z</time></trkpt><trkpt lat="45.91342955639709" lon="11.283785888268282"><ele>506.0</ele><time>2026-04-06T08:20:00Z</time></trkpt><trkpt lat="45.9134743212923" lon="11.283611266926195"><ele>506.0</ele><time>2026-04-06T08:20:01Z</time></trkpt><trkpt lat="45.913516780841405" lon="11.28343153663989"><ele>506.0</ele><time>2026-04-06T08:20:02Z</time></trkpt><trkpt lat="45.9135523058145" lon="11.283242072744324"><ele>506.0</ele><time>2026-04-06T08:20:03Z</time></trkpt><trkpt lat="45.913577999265335" lon="11.283046639444798"><ele>506.0</ele><time>2026-04-06T08:20:04Z</time></trkpt><trkpt lat="45.913581342914405" lon="11.28284862975644"><ele>506.5</ele><time>2026-04-06T08:20:05Z</time></trkpt><trkpt lat="45.91357913363955" lon="11.282666554286958"><ele>507.0</ele><time>2026-04-06T08:20:06Z</time></trkpt><trkpt lat="45.91359636848674" lon="11.282495896458496"><ele>507.5</ele><time>2026-04-06T08:20:07Z</time></trkpt><trkpt lat="45.913631317813106" lon="11.282328080922916"><ele>508.0</ele><time>2026-04-06T08:20:08Z</time></trkpt><trkpt lat="45.91367878369229" lon="11.282158143548555"><ele>508.5</ele><time>2026-04-06T08:20:09Z</time></trkpt><trkpt lat="45.91372820831245" lon="11.281981921030665"><ele>509.0</ele><time>2026-04-06T08:20:10Z</time></trkpt><trkpt lat="45.913809799293986" lon="11.281827100202856"><ele>509.5</ele><time>2026-04-06T08:20:11Z</time></trkpt><trkpt lat="45.913903613916325" lon="11.281677443137845"><ele>510.0</ele><time>2026-04-06T08:20:12Z</time></trkpt><trkpt lat="45.913995319031855" lon="11.281522768341539"><ele>510.75</ele><time>2026-04-06T08:20:13Z</time></trkpt><trkpt lat="45.91407780071491" lon="11.28137958757117"><ele>511.5</ele><time>2026-04-06T08:20:14Z</time></trkpt><trkpt lat="45.91415567921158" lon="11.281242156150745"><ele>512.25</ele><time>2026-04-06T08:20:15Z</time></trkpt><trkpt lat="45.914229040514414" lon="11.281109293934131"><ele>513.0</ele><time>2026-04-06T08:20:16Z</time></trkpt><trkpt lat="45.91429697590828" lon="11.280987547776624"><ele>512.8</ele><time>2026-04-06T08:20:17Z</time></trkpt><trkpt lat="45.91429993924969" lon="11.280846801894294"><ele>512.5999999999999</ele><time>2026-04-06T08:20:18Z</time></trkpt><trkpt lat="45.9142951691417" lon="11.280707381952707"><ele>512.4000000000001</ele><time>2026-04-06T08:20:19Z</time></trkpt><trkpt lat="45.91426081599872" lon="11.280553765529216"><ele>512.2</ele><time>2026-04-06T08:20:20Z</time></trkpt><trkpt lat="45.91420764776104" lon="11.28037812981187"><ele>512.0</ele><time>2026-04-06T08:20:21Z</time></trkpt><trkpt lat="45.9141485775094" lon="11.280182308878308"><ele>511.66666666666663</ele><time>2026-04-06T08:20:22Z</time></trkpt><trkpt lat="45.91413856885813" lon="11.279943805386619"><ele>511.33333333333337</ele><time>2026-04-06T08:20:23Z</time></trkpt><trkpt lat="45.914074034624115" lon="11.279720873960281"><ele>511.0</ele><time>2026-04-06T08:20:24Z</time></trkpt><trkpt lat="45.913994419739524" lon="11.279496021330457"><ele>511.0</ele><time>2026-04-06T08:20:25Z</time></trkpt><trkpt lat="45.91392925619662" lon="11.279274092219342"><ele>511.0</ele><time>2026-04-06T08:20:26Z</time></trkpt><trkpt lat="45.91389484929738" lon="11.279052864439443"><ele>511.0</ele><time>2026-04-06T08:20:27Z</time></trkpt><trkpt lat="45.913885280975364" lon="11.278829387623437"><ele>511.25</ele><time>2026-04-06T08:20:28Z</time></trkpt><trkpt lat="45.9138794930196" lon="11.278605210892279"><ele>511.5</ele><time>2026-04-06T08:20:29Z</time></trkpt><trkpt lat="45.91387447608196" lon="11.278388308413723"><ele>511.75</ele><time>2026-04-06T08:20:30Z</time></trkpt><trkpt lat="45.91387334071854" lon="11.278187718298405"><ele>512.0</ele><time>2026-04-06T08:20:31Z</time></trkpt><trkpt lat="45.913889467682026" lon="11.278016814167161"><ele>513.75</ele><time>2026-04-06T08:20:32Z</time></trkpt><trkpt lat="45.913937427550685" lon="11.277873204458622"><ele>515.5</ele><time>2026-04-06T08:20:33Z</time></trkpt><trkpt lat="45.9140258110461" lon="11.277775958866995"><ele>517.25</ele><time>2026-04-06T08:20:34Z</time></trkpt><trkpt lat="45.91412609318473" lon="11.27765884598723"><ele>519.0</ele><time>2026-04-06T08:20:35Z</time></trkpt><trkpt lat="45.914242998616196" lon="11.27755300342166"><ele>519.75</ele><time>2026-04-06T08:20:36Z</time></trkpt><trkpt lat="45.91436024669393" lon="11.277431127147443"><ele>520.5</ele><time>2026-04-06T08:20:37Z</time></trkpt><trkpt lat="45.91448571128026" lon="11.277332702256482"><ele>521.25</ele><time>2026-04-06T08:20:38Z</time></trkpt><trkpt lat="45.91461211879785" lon="11.277229556130504"><ele>522.0</ele><time>2026-04-06T08:20:39Z</time></trkpt><trkpt lat="45.914734928734426" lon="11.277131775829028"><ele>524.25</ele><time>2026-04-06T08:20:40Z</time></trkpt><trkpt lat="45.91484839141674" lon="11.277041385784614"><ele>526.5</ele><time>2026-04-06T08:20:41Z</time></trkpt><trkpt lat="45.91494203396687" lon="11.276949691853332"><ele>528.75</ele><time>2026-04-06T08:20:42Z</time></trkpt><trkpt lat="45.91501060488006" lon="11.276833655959281"><ele>531.0</ele><time>2026-04-06T08:20:43Z</time></trkpt><trkpt lat="45.91505819591664" lon="11.27669237701718"><ele>532.25</ele><time>2026-04-06T08:20:44Z</time></trkpt><trkpt lat="45.91507344841925" lon="11.276527458439796"><ele>533.5</ele><time>2026-04-06T08:20:45Z</time></trkpt><trkpt lat="45.915064780239376" lon="11.276361190699461"><ele>534.75</ele><time>2026-04-06T08:20:46Z</time></trkpt><trkpt lat="45.91504218936874" lon="11.276181374037304"><ele>536.0</ele><time>2026-04-06T08:20:47Z</time></trkpt><trkpt lat="45.91502183936133" lon="11.276007451849326"><ele>536.2</ele><time>2026-04-06T08:20:48Z</time></trkpt><trkpt lat="45.91498078388415" lon="11.275844700287145"><ele>536.4000000000001</ele><time>2026-04-06T08:20:49Z</time></trkpt><trkpt lat="45.91491713185928" lon="11.275697258108606"><ele>536.6</ele><time>2026-04-06T08:20:50Z</time></trkpt><trkpt lat="45.91486984512763" lon="11.27555488584581"><ele>536.8000000000001</ele><time>2026-04-06T08:20:51Z</time></trkpt><trkpt lat="45.914827749244466" lon="11.275434770389504"><ele>537.0</ele><time>2026-04-06T08:20:52Z</time></trkpt><trkpt lat="45.91483554281311" lon="11.275308660593847"><ele>538.2</ele><time>2026-04-06T08:20:53Z</time></trkpt><trkpt lat="45.91487758013887" lon="11.275182794776649"><ele>539.4000000000001</ele><time>2026-04-06T08:20:54Z</time></trkpt><trkpt lat="45.914962431868325" lon="11.275089535463733"><ele>540.5999999999999</ele><time>2026-04-06T08:20:55Z</time></trkpt><trkpt lat="45.9150491437597" lon="11.274972590498178"><ele>541.8</ele><time>2026-04-06T08:20:56Z</time></trkpt><trkpt lat="45.91514497928753" lon="11.274862383947253"><ele>543.0</ele><time>2026-04-06T08:20:57Z</time></trkpt><trkpt lat="45.91524799398908" lon="11.274759284186029"><ele>544.75</ele><time>2026-04-06T08:20:58Z</time></trkpt><trkpt lat="45.91535618988715" lon="11.274650785513533"><ele>546.5</ele><time>2026-04-06T08:20:59Z</time></trkpt><trkpt lat="45.915458536353356" lon="11.27452582263931"><ele>548.25</ele><time>2026-04-06T08:21:00Z</time></trkpt><trkpt lat="45.91557064981957" lon="11.274417246030428"><ele>550.0</ele><time>2026-04-06T08:21:01Z</time></trkpt><trkpt lat="45.91568001240676" lon="11.274308326260183"><ele>550.0</ele><time>2026-04-06T08:21:02Z</time></trkpt><trkpt lat="45.915780588644786" lon="11.2741978181129"><ele>550.0</ele><time>2026-04-06T08:21:03Z</time></trkpt><trkpt lat="45.9158602825628" lon="11.27409366097899"><ele>550.0</ele><time>2026-04-06T08:21:04Z</time></trkpt><trkpt lat="45.915923571694556" lon="11.273984093663184"><ele>550.0</ele><time>2026-04-06T08:21:05Z</time></trkpt><trkpt lat="45.91595701178495" lon="11.273866010552961"><ele>550.0</ele><time>2026-04-06T08:21:06Z</time></trkpt><trkpt lat="45.915962090595485" lon="11.273752457253194"><ele>550.3333333333334</ele><time>2026-04-06T08:21:07Z</time></trkpt><trkpt lat="45.91596448907147" lon="11.273644351426395"><ele>550.6666666666667</ele><time>2026-04-06T08:21:08Z</time></trkpt><trkpt lat="45.91590098489395" lon="11.27354625999218"><ele>551.0</ele><time>2026-04-06T08:21:09Z</time></trkpt><trkpt lat="45.91581169354986" lon="11.273503592060187"><ele>551.3333333333334</ele><time>2026-04-06T08:21:10Z</time></trkpt><trkpt lat="45.91571985046835" lon="11.273494642420166"><ele>551.6666666666666</ele><time>2026-04-06T08:21:11Z</time></trkpt><trkpt lat="45.91563439557799" lon="11.27354361771416"><ele>552.0</ele><time>2026-04-06T08:21:12Z</time></trkpt><trkpt lat="45.91557886759236" lon="11.273634299550519"><ele>551.6</ele><time>2026-04-06T08:21:13Z</time></trkpt><trkpt lat="45.91554901519107" lon="11.273757195598838"><ele>551.2</ele><time>2026-04-06T08:21:14Z</time></trkpt><trkpt lat="45.915517590842995" lon="11.273880082349166"><ele>550.8</ele><time>2026-04-06T08:21:15Z</time></trkpt><trkpt lat="45.91546569743057" lon="11.273983865430104"><ele>550.4</ele><time>2026-04-06T08:21:16Z</time></trkpt><trkpt lat="45.91538854277601" lon="11.274071894118046"><ele>550.0</ele><time>2026-04-06T08:21:17Z</time></trkpt><trkpt lat="45.915302968637114" lon="11.274141876987027"><ele>550.0</ele><time>2026-04-06T08:21:18Z</time></trkpt><trkpt lat="45.915214711545886" lon="11.274190774613398"><ele>550.0</ele><time>2026-04-06T08:21:19Z</time></trkpt><trkpt lat="45.91514685482585" lon="11.274221380245073"><ele>550.0</ele><time>2026-04-06T08:21:20Z</time></trkpt><trkpt lat="45.91505492988308" lon="11.274281308384305"><ele>550.0</ele><time>2026-04-06T08:21:22Z</time></trkpt><trkpt lat="45.914934789641634" lon="11.274316580428387"><ele>550.0</ele><time>2026-04-06T08:21:24Z</time></trkpt><trkpt lat="45.91487222841869" lon="11.27429526686853"><ele>553.0</ele><time>2026-04-06T08:21:25Z</time></trkpt><trkpt lat="45.914818409694" lon="11.274227821260721"><ele>556.0</ele><time>2026-04-06T08:21:26Z</time></trkpt><trkpt lat="45.9147838772871" lon="11.274133251363311"><ele>559.0</ele><time>2026-04-06T08:21:27Z</time></trkpt><trkpt lat="45.91479384655769" lon="11.274015369756855"><ele>562.0</ele><time>2026-04-06T08:21:28Z</time></trkpt><trkpt lat="45.91485405949905" lon="11.273933206782624"><ele>565.0</ele><time>2026-04-06T08:21:29Z</time></trkpt><trkpt lat="45.914914596150176" lon="11.273867812692522"><ele>568.0</ele><time>2026-04-06T08:21:30Z</time></trkpt><trkpt lat="45.9149766704047" lon="11.273771934133887"><ele>567.8333333333334</ele><time>2026-04-06T08:21:31Z</time></trkpt><trkpt lat="45.9150475359484" lon="11.273693273067455"><ele>567.6666666666667</ele><time>2026-04-06T08:21:32Z</time></trkpt><trkpt lat="45.915121653141604" lon="11.27362202718265"><ele>567.5</ele><time>2026-04-06T08:21:33Z</time></trkpt><trkpt lat="45.91518119977631" lon="11.273527877770862"><ele>567.3333333333334</ele><time>2026-04-06T08:21:34Z</time></trkpt><trkpt lat="45.915227894885696" lon="11.273412112095839"><ele>567.1666666666666</ele><time>2026-04-06T08:21:35Z</time></trkpt><trkpt lat="45.91525461508696" lon="11.273292390922142"><ele>567.0</ele><time>2026-04-06T08:21:36Z</time></trkpt><trkpt lat="45.91527239151007" lon="11.273171782269728"><ele>568.8333333333334</ele><time>2026-04-06T08:21:37Z</time></trkpt><trkpt lat="45.915248299161846" lon="11.273050667274813"><ele>570.6666666666666</ele><time>2026-04-06T08:21:38Z</time></trkpt><trkpt lat="45.9152247493165" lon="11.272946416525967"><ele>572.5</ele><time>2026-04-06T08:21:39Z</time></trkpt><trkpt lat="45.9152174393251" lon="11.272831667271438"><ele>574.3333333333333</ele><time>2026-04-06T08:21:40Z</time></trkpt><trkpt lat="45.91517054577472" lon="11.272733983021356"><ele>576.1666666666666</ele><time>2026-04-06T08:21:41Z</time></trkpt><trkpt lat="45.91515702663895" lon="11.272628440356048"><ele>578.0</ele><time>2026-04-06T08:21:42Z</time></trkpt><trkpt lat="45.91515270550048" lon="11.272456728173914"><ele>578.0</ele><time>2026-04-06T08:21:44Z</time></trkpt><trkpt lat="45.915188179621445" lon="11.272294252857776"><ele>578.0</ele><time>2026-04-06T08:21:46Z</time></trkpt><trkpt lat="45.915267367612735" lon="11.272192785581288"><ele>578.0</ele><time>2026-04-06T08:21:48Z</time></trkpt><trkpt lat="45.91535630728082" lon="11.272116117059475"><ele>578.0</ele><time>2026-04-06T08:21:50Z</time></trkpt><trkpt lat="45.91541877255615" lon="11.272082326043504"><ele>578.0</ele><time>2026-04-06T08:21:51Z</time></trkpt><trkpt lat="45.91548793937907" lon="11.272063830372888"><ele>579.6</ele><time>2026-04-06T08:21:52Z</time></trkpt><trkpt lat="45.915566893461076" lon="11.272050382799994"><ele>581.1999999999999</ele><time>2026-04-06T08:21:53Z</time></trkpt><trkpt lat="45.91565126601263" lon="11.27199804008265"><ele>582.8</ele><time>2026-04-06T08:21:54Z</time></trkpt><trkpt lat="45.91573310404269" lon="11.271932521238519"><ele>584.4</ele><time>2026-04-06T08:21:55Z</time></trkpt><trkpt lat="45.91581710145044" lon="11.271868795950322"><ele>586.0</ele><time>2026-04-06T08:21:56Z</time></trkpt><trkpt lat="45.91586422600516" lon="11.271755419630352"><ele>584.1666666666667</ele><time>2026-04-06T08:21:57Z</time></trkpt><trkpt lat="45.915904402082525" lon="11.271663709043251"><ele>582.3333333333334</ele><time>2026-04-06T08:21:58Z</time></trkpt><trkpt lat="45.915945585883826" lon="11.271576162204093"><ele>580.5</ele><time>2026-04-06T08:21:59Z</time></trkpt><trkpt lat="45.91596843315239" lon="11.271460823189283"><ele>578.6666666666666</ele><time>2026-04-06T08:22:00Z</time></trkpt><trkpt lat="45.91597594180774" lon="11.271336906019325"><ele>576.8333333333333</ele><time>2026-04-06T08:22:01Z</time></trkpt><trkpt lat="45.91595903010939" lon="11.271227870809806"><ele>575.0</ele><time>2026-04-06T08:22:02Z</time></trkpt><trkpt lat="45.91595008340429" lon="11.27112099468525"><ele>575.0</ele><time>2026-04-06T08:22:03Z</time></trkpt><trkpt lat="45.915967989491904" lon="11.271017800182593"><ele>575.0</ele><time>2026-04-06T08:22:04Z</time></trkpt><trkpt lat="45.91601630785156" lon="11.270913429119197"><ele>575.0</ele><time>2026-04-06T08:22:05Z</time></trkpt><trkpt lat="45.916079277885245" lon="11.270789878119757"><ele>575.0</ele><time>2026-04-06T08:22:06Z</time></trkpt><trkpt lat="45.91612955343059" lon="11.270656302824621"><ele>575.0</ele><time>2026-04-06T08:22:07Z</time></trkpt><trkpt lat="45.91616224448231" lon="11.270490440261787"><ele>576.0</ele><time>2026-04-06T08:22:08Z</time></trkpt><trkpt lat="45.916177707137095" lon="11.270303713470065"><ele>577.0</ele><time>2026-04-06T08:22:09Z</time></trkpt><trkpt lat="45.91617676076379" lon="11.270112141065237"><ele>578.0</ele><time>2026-04-06T08:22:10Z</time></trkpt><trkpt lat="45.91617255804562" lon="11.26992015739742"><ele>579.0</ele><time>2026-04-06T08:22:11Z</time></trkpt><trkpt lat="45.91616630499606" lon="11.269726397874466"><ele>579.0</ele><time>2026-04-06T08:22:12Z</time></trkpt><trkpt lat="45.91615964247453" lon="11.269531253224155"><ele>579.0</ele><time>2026-04-06T08:22:13Z</time></trkpt><trkpt lat="45.91615269075991" lon="11.269337869170792"><ele>579.0</ele><time>2026-04-06T08:22:14Z</time></trkpt><trkpt lat="45.916146752775546" lon="11.269153929705103"><ele>579.0</ele><time>2026-04-06T08:22:15Z</time></trkpt><trkpt lat="45.91614398699719" lon="11.268989602762963"><ele>580.0</ele><time>2026-04-06T08:22:16Z</time></trkpt><trkpt lat="45.91615619517165" lon="11.268835219801549"><ele>581.0</ele><time>2026-04-06T08:22:17Z</time></trkpt><trkpt lat="45.91619653583981" lon="11.268685473547345"><ele>582.0</ele><time>2026-04-06T08:22:18Z</time></trkpt><trkpt lat="45.91625565791352" lon="11.268540634095304"><ele>583.0</ele><time>2026-04-06T08:22:19Z</time></trkpt><trkpt lat="45.91632113283704" lon="11.268389023033388"><ele>583.0</ele><time>2026-04-06T08:22:20Z</time></trkpt><trkpt lat="45.916377041465985" lon="11.268224432868282"><ele>583.0</ele><time>2026-04-06T08:22:21Z</time></trkpt><trkpt lat="45.916406402292644" lon="11.268048070375555"><ele>583.0</ele><time>2026-04-06T08:22:22Z</time></trkpt><trkpt lat="45.916417723701834" lon="11.267869291474852"><ele>583.0</ele><time>2026-04-06T08:22:23Z</time></trkpt><trkpt lat="45.91640888669506" lon="11.267675402587376"><ele>583.75</ele><time>2026-04-06T08:22:24Z</time></trkpt><trkpt lat="45.91640224267019" lon="11.26748434128525"><ele>584.5</ele><time>2026-04-06T08:22:25Z</time></trkpt><trkpt lat="45.91640906364818" lon="11.267289941468633"><ele>585.25</ele><time>2026-04-06T08:22:26Z</time></trkpt><trkpt lat="45.916424196433944" lon="11.267087096600543"><ele>586.0</ele><time>2026-04-06T08:22:27Z</time></trkpt><trkpt lat="45.916439875176614" lon="11.266880029058552"><ele>587.75</ele><time>2026-04-06T08:22:28Z</time></trkpt><trkpt lat="45.91645467594309" lon="11.266684556832642"><ele>589.5</ele><time>2026-04-06T08:22:29Z</time></trkpt><trkpt lat="45.916468255567985" lon="11.26650521209642"><ele>591.25</ele><time>2026-04-06T08:22:30Z</time></trkpt><trkpt lat="45.91648292114434" lon="11.266324668252679"><ele>593.0</ele><time>2026-04-06T08:22:31Z</time></trkpt><trkpt lat="45.916501363625734" lon="11.266129748230295"><ele>591.25</ele><time>2026-04-06T08:22:32Z</time></trkpt><trkpt lat="45.91652467734534" lon="11.265938203880248"><ele>589.5</ele><time>2026-04-06T08:22:33Z</time></trkpt><trkpt lat="45.91660128265576" lon="11.26576130815424"><ele>587.75</ele><time>2026-04-06T08:22:34Z</time></trkpt><trkpt lat="45.916679493196234" lon="11.265567689250297"><ele>586.0</ele><time>2026-04-06T08:22:35Z</time></trkpt><trkpt lat="45.916768286267356" lon="11.265365371826615"><ele>586.0</ele><time>2026-04-06T08:22:36Z</time></trkpt><trkpt lat="45.91686913854652" lon="11.265155084762265"><ele>586.0</ele><time>2026-04-06T08:22:37Z</time></trkpt><trkpt lat="45.91697385231132" lon="11.26494006757137"><ele>586.0</ele><time>2026-04-06T08:22:38Z</time></trkpt><trkpt lat="45.917076452643066" lon="11.264729004033077"><ele>591.3333333333334</ele><time>2026-04-06T08:22:39Z</time></trkpt><trkpt lat="45.917172820211064" lon="11.264529710995074"><ele>596.6666666666666</ele><time>2026-04-06T08:22:40Z</time></trkpt><trkpt lat="45.91726263775575" lon="11.264343166927855"><ele>602.0</ele><time>2026-04-06T08:22:41Z</time></trkpt><trkpt lat="45.91734921477204" lon="11.264163542754204"><ele>602.0</ele><time>2026-04-06T08:22:42Z</time></trkpt><trkpt lat="45.91743333394577" lon="11.263989295837563"><ele>602.0</ele><time>2026-04-06T08:22:43Z</time></trkpt><trkpt lat="45.917517106792594" lon="11.263815766458533"><ele>602.0</ele><time>2026-04-06T08:22:44Z</time></trkpt><trkpt lat="45.91759658390865" lon="11.26364352835016"><ele>602.0</ele><time>2026-04-06T08:22:45Z</time></trkpt><trkpt lat="45.91765871369501" lon="11.263462071108167"><ele>602.25</ele><time>2026-04-06T08:22:46Z</time></trkpt><trkpt lat="45.91770518697101" lon="11.263274813565847"><ele>602.5</ele><time>2026-04-06T08:22:47Z</time></trkpt><trkpt lat="45.91774468528328" lon="11.263103956597869"><ele>602.75</ele><time>2026-04-06T08:22:48Z</time></trkpt><trkpt lat="45.91778671445887" lon="11.262937644724502"><ele>603.0</ele><time>2026-04-06T08:22:49Z</time></trkpt><trkpt lat="45.917822279743405" lon="11.26277045932147"><ele>603.0</ele><time>2026-04-06T08:22:50Z</time></trkpt><trkpt lat="45.917894865235695" lon="11.26264637625096"><ele>603.0</ele><time>2026-04-06T08:22:51Z</time></trkpt><trkpt lat="45.917982824920415" lon="11.26254484174802"><ele>603.0</ele><time>2026-04-06T08:22:52Z</time></trkpt><trkpt lat="45.918076016216965" lon="11.262459058251979"><ele>603.0</ele><time>2026-04-06T08:22:53Z</time></trkpt><trkpt lat="45.91817189192762" lon="11.262375412877649"><ele>603.0</ele><time>2026-04-06T08:22:54Z</time></trkpt><trkpt lat="45.91825940546086" lon="11.262272404418447"><ele>603.5</ele><time>2026-04-06T08:22:55Z</time></trkpt><trkpt lat="45.918334137248884" lon="11.262140901498444"><ele>604.0</ele><time>2026-04-06T08:22:56Z</time></trkpt><trkpt lat="45.918413016052774" lon="11.262008259268457"><ele>604.5</ele><time>2026-04-06T08:22:57Z</time></trkpt><trkpt lat="45.918467572294475" lon="11.26184650684764"><ele>605.0</ele><time>2026-04-06T08:22:58Z</time></trkpt><trkpt lat="45.9185171415716" lon="11.261679231531636"><ele>605.0</ele><time>2026-04-06T08:22:59Z</time></trkpt><trkpt lat="45.91856820165898" lon="11.261506925350691"><ele>605.0</ele><time>2026-04-06T08:23:00Z</time></trkpt><trkpt lat="45.9186203236468" lon="11.261331035641637"><ele>605.0</ele><time>2026-04-06T08:23:01Z</time></trkpt><trkpt lat="45.91867069125711" lon="11.261161066312146"><ele>605.0</ele><time>2026-04-06T08:23:02Z</time></trkpt><trkpt lat="45.9187173823977" lon="11.261003503507578"><ele>604.75</ele><time>2026-04-06T08:23:03Z</time></trkpt><trkpt lat="45.91876521501243" lon="11.260861151086047"><ele>604.5</ele><time>2026-04-06T08:23:04Z</time></trkpt><trkpt lat="45.91883178310119" lon="11.260712939309753"><ele>604.25</ele><time>2026-04-06T08:23:05Z</time></trkpt><trkpt lat="45.91892064963118" lon="11.2605593444746"><ele>604.0</ele><time>2026-04-06T08:23:06Z</time></trkpt><trkpt lat="45.919030781939206" lon="11.260411360181694"><ele>608.0</ele><time>2026-04-06T08:23:07Z</time></trkpt><trkpt lat="45.91914607880268" lon="11.260249092167337"><ele>612.0</ele><time>2026-04-06T08:23:08Z</time></trkpt><trkpt lat="45.91926925882049" lon="11.260075729387358"><ele>616.0</ele><time>2026-04-06T08:23:09Z</time></trkpt><trkpt lat="45.91938835099899" lon="11.25990763193871"><ele>616.25</ele><time>2026-04-06T08:23:10Z</time></trkpt><trkpt lat="45.91950079047939" lon="11.259751456895101"><ele>616.5</ele><time>2026-04-06T08:23:11Z</time></trkpt><trkpt lat="45.919611127864144" lon="11.259603977281381"><ele>616.75</ele><time>2026-04-06T08:23:12Z</time></trkpt><trkpt lat="45.9197142534821" lon="11.25947717425424"><ele>617.0</ele><time>2026-04-06T08:23:13Z</time></trkpt><trkpt lat="45.919816090954235" lon="11.259357933207955"><ele>617.0</ele><time>2026-04-06T08:23:14Z</time></trkpt><trkpt lat="45.919915420381784" lon="11.259239279436205"><ele>617.0</ele><time>2026-04-06T08:23:15Z</time></trkpt><trkpt lat="45.920011428422626" lon="11.259123660485338"><ele>617.0</ele><time>2026-04-06T08:23:16Z</time></trkpt><trkpt lat="45.92010298271032" lon="11.25900932777936"><ele>617.0</ele><time>2026-04-06T08:23:17Z</time></trkpt><trkpt lat="45.9201905170635" lon="11.258895094960302"><ele>619.0</ele><time>2026-04-06T08:23:18Z</time></trkpt><trkpt lat="45.920271653428365" lon="11.258787397999779"><ele>621.0</ele><time>2026-04-06T08:23:19Z</time></trkpt><trkpt lat="45.920346910905664" lon="11.258686685061171"><ele>623.0</ele><time>2026-04-06T08:23:20Z</time></trkpt><trkpt lat="45.92041070168079" lon="11.258596757174212"><ele>625.0</ele><time>2026-04-06T08:23:21Z</time></trkpt><trkpt lat="45.92046302374029" lon="11.258491631080602"><ele>627.0</ele><time>2026-04-06T08:23:22Z</time></trkpt><trkpt lat="45.920501456458794" lon="11.258372332026132"><ele>627.0</ele><time>2026-04-06T08:23:23Z</time></trkpt><trkpt lat="45.9205092355213" lon="11.258231918017174"><ele>627.0</ele><time>2026-04-06T08:23:24Z</time></trkpt><trkpt lat="45.92054311663809" lon="11.258126641919873"><ele>627.0</ele><time>2026-04-06T08:23:25Z</time></trkpt><trkpt lat="45.920557048973656" lon="11.258016782731426"><ele>627.0</ele><time>2026-04-06T08:23:26Z</time></trkpt><trkpt lat="45.92057129372225" lon="11.257902514559815"><ele>627.0</ele><time>2026-04-06T08:23:27Z</time></trkpt><trkpt lat="45.920585986165236" lon="11.257784655084427"><ele>627.0</ele><time>2026-04-06T08:23:28Z</time></trkpt><trkpt lat="45.92060104366937" lon="11.257663867175507"><ele>628.2</ele><time>2026-04-06T08:23:29Z</time></trkpt><trkpt lat="45.92061682521568" lon="11.257540108741196"><ele>629.4000000000001</ele><time>2026-04-06T08:23:30Z</time></trkpt><trkpt lat="45.92063350096098" lon="11.257409938370564"><ele>630.5999999999999</ele><time>2026-04-06T08:23:31Z</time></trkpt><trkpt lat="45.92065180191813" lon="11.257275682511992"><ele>631.8</ele><time>2026-04-06T08:23:32Z</time></trkpt><trkpt lat="45.92067310933325" lon="11.257132336081943"><ele>633.0</ele><time>2026-04-06T08:23:33Z</time></trkpt><trkpt lat="45.92069484372246" lon="11.256985000691373"><ele>634.5999999999999</ele><time>2026-04-06T08:23:34Z</time></trkpt><trkpt lat="45.92075213621908" lon="11.256860660279644"><ele>636.1999999999999</ele><time>2026-04-06T08:23:35Z</time></trkpt><trkpt lat="45.92082696279036" lon="11.256758821880124"><ele>637.8</ele><time>2026-04-06T08:23:36Z</time></trkpt><trkpt lat="45.92090659347807" lon="11.25666476709546"><ele>639.4</ele><time>2026-04-06T08:23:37Z</time></trkpt><trkpt lat="45.92098408546338" lon="11.256572295721915"><ele>641.0</ele><time>2026-04-06T08:23:38Z</time></trkpt><trkpt lat="45.92106175604595" lon="11.256509241231013"><ele>642.0</ele><time>2026-04-06T08:23:39Z</time></trkpt><trkpt lat="45.92111248113856" lon="11.256451300439986"><ele>643.0</ele><time>2026-04-06T08:23:40Z</time></trkpt><trkpt lat="45.92118145393665" lon="11.256342371405324"><ele>644.0</ele><time>2026-04-06T08:23:42Z</time></trkpt><trkpt lat="45.921258849170144" lon="11.256255387001268"><ele>645.0</ele><time>2026-04-06T08:23:44Z</time></trkpt><trkpt lat="45.92132908718831" lon="11.256123580983452"><ele>646.0</ele><time>2026-04-06T08:23:46Z</time></trkpt><trkpt lat="45.92132080082901" lon="11.256029923750317"><ele>647.0</ele><time>2026-04-06T08:23:47Z</time></trkpt><trkpt lat="45.921272224428066" lon="11.255944610778073"><ele>647.0</ele><time>2026-04-06T08:23:48Z</time></trkpt><trkpt lat="45.921187770932455" lon="11.255924934913594"><ele>647.0</ele><time>2026-04-06T08:23:49Z</time></trkpt><trkpt lat="45.921107896681654" lon="11.255965588115199"><ele>647.0</ele><time>2026-04-06T08:23:50Z</time></trkpt><trkpt lat="45.921034329490915" lon="11.256077555015597"><ele>647.0</ele><time>2026-04-06T08:23:51Z</time></trkpt><trkpt lat="45.92097353655575" lon="11.256209077077779"><ele>647.0</ele><time>2026-04-06T08:23:52Z</time></trkpt><trkpt lat="45.92089122252254" lon="11.256338023751734"><ele>646.0</ele><time>2026-04-06T08:23:53Z</time></trkpt><trkpt lat="45.92078536744868" lon="11.256470352883616"><ele>645.0</ele><time>2026-04-06T08:23:54Z</time></trkpt><trkpt lat="45.920693821894716" lon="11.256643812302848"><ele>644.0</ele><time>2026-04-06T08:23:55Z</time></trkpt><trkpt lat="45.92058214745351" lon="11.256806677057497"><ele>644.0</ele><time>2026-04-06T08:23:56Z</time></trkpt><trkpt lat="45.92048272007081" lon="11.256986237729846"><ele>644.0</ele><time>2026-04-06T08:23:57Z</time></trkpt><trkpt lat="45.92039592214579" lon="11.25719263328442"><ele>644.0</ele><time>2026-04-06T08:23:58Z</time></trkpt><trkpt lat="45.92031744157979" lon="11.257388351856298"><ele>641.8000000000001</ele><time>2026-04-06T08:23:59Z</time></trkpt><trkpt lat="45.92025184259375" lon="11.257556936061166"><ele>639.6</ele><time>2026-04-06T08:24:00Z</time></trkpt><trkpt lat="45.92020953190537" lon="11.257672500347988"><ele>637.4</ele><time>2026-04-06T08:24:01Z</time></trkpt><trkpt lat="45.92014765031812" lon="11.257729622075086"><ele>635.2</ele><time>2026-04-06T08:24:02Z</time></trkpt><trkpt lat="45.92004473715814" lon="11.25765002588145"><ele>633.0</ele><time>2026-04-06T08:24:04Z</time></trkpt><trkpt lat="45.92004030982835" lon="11.257548069884402"><ele>633.0</ele><time>2026-04-06T08:24:05Z</time></trkpt><trkpt lat="45.92011157380335" lon="11.257476679020892"><ele>633.0</ele><time>2026-04-06T08:24:06Z</time></trkpt><trkpt lat="45.92017421704653" lon="11.257395884859553"><ele>633.0</ele><time>2026-04-06T08:24:07Z</time></trkpt><trkpt lat="45.9202430266238" lon="11.257268570463827"><ele>633.0</ele><time>2026-04-06T08:24:08Z</time></trkpt><trkpt lat="45.92032640785103" lon="11.257137217368497"><ele>633.0</ele><time>2026-04-06T08:24:09Z</time></trkpt><trkpt lat="45.920363415303726" lon="11.25694934951605"><ele>635.75</ele><time>2026-04-06T08:24:10Z</time></trkpt><trkpt lat="45.92042798235521" lon="11.256769551378675"><ele>638.5</ele><time>2026-04-06T08:24:11Z</time></trkpt><trkpt lat="45.92048076022561" lon="11.256578567128695"><ele>641.25</ele><time>2026-04-06T08:24:12Z</time></trkpt><trkpt lat="45.92053305470097" lon="11.256382848011802"><ele>644.0</ele><time>2026-04-06T08:24:13Z</time></trkpt><trkpt lat="45.92063496784672" lon="11.256227240096182"><ele>653.3333333333333</ele><time>2026-04-06T08:24:14Z</time></trkpt><trkpt lat="45.920735965505095" lon="11.256063610780256"><ele>662.6666666666666</ele><time>2026-04-06T08:24:15Z</time></trkpt><trkpt lat="45.92081477065186" lon="11.255871802277731"><ele>672.0</ele><time>2026-04-06T08:24:16Z</time></trkpt><trkpt lat="45.92089482720832" lon="11.255676632929783"><ele>669.3333333333334</ele><time>2026-04-06T08:24:17Z</time></trkpt><trkpt lat="45.92097342690215" lon="11.255465223597747"><ele>666.6666666666667</ele><time>2026-04-06T08:24:18Z</time></trkpt><trkpt lat="45.92107802531971" lon="11.255267882254206"><ele>664.0</ele><time>2026-04-06T08:24:19Z</time></trkpt><trkpt lat="45.92115805229342" lon="11.255123555432982"><ele>664.0</ele><time>2026-04-06T08:24:20Z</time></trkpt><trkpt lat="45.92126479557953" lon="11.254949497847955"><ele>664.0</ele><time>2026-04-06T08:24:21Z</time></trkpt><trkpt lat="45.92136875160766" lon="11.254781558753036"><ele>664.0</ele><time>2026-04-06T08:24:22Z</time></trkpt><trkpt lat="45.92147425710508" lon="11.254611266970553"><ele>666.0</ele><time>2026-04-06T08:24:23Z</time></trkpt><trkpt lat="45.92158022371413" lon="11.254438498157747"><ele>668.0</ele><time>2026-04-06T08:24:24Z</time></trkpt><trkpt lat="45.92168429948868" lon="11.254266026667008"><ele>670.0</ele><time>2026-04-06T08:24:25Z</time></trkpt><trkpt lat="45.921786706662914" lon="11.254095367437278"><ele>674.5</ele><time>2026-04-06T08:24:26Z</time></trkpt><trkpt lat="45.92189744461317" lon="11.253940248137576"><ele>679.0</ele><time>2026-04-06T08:24:27Z</time></trkpt><trkpt lat="45.922016090918284" lon="11.253810815321657"><ele>683.5</ele><time>2026-04-06T08:24:28Z</time></trkpt><trkpt lat="45.922138217201784" lon="11.253700249136568"><ele>688.0</ele><time>2026-04-06T08:24:29Z</time></trkpt><trkpt lat="45.92225173380094" lon="11.253597985061804"><ele>688.0</ele><time>2026-04-06T08:24:30Z</time></trkpt><trkpt lat="45.922329099033306" lon="11.253497896842203"><ele>688.0</ele><time>2026-04-06T08:24:31Z</time></trkpt><trkpt lat="45.92238555775046" lon="11.253437174578245"><ele>688.0</ele><time>2026-04-06T08:24:32Z</time></trkpt><trkpt lat="45.922406457960186" lon="11.253351425873797"><ele>688.0</ele><time>2026-04-06T08:24:33Z</time></trkpt><trkpt lat="45.92238174581328" lon="11.253252903305786"><ele>688.0</ele><time>2026-04-06T08:24:34Z</time></trkpt><trkpt lat="45.92222012677634" lon="11.253193064137436"><ele>688.0</ele><time>2026-04-06T08:24:36Z</time></trkpt><trkpt lat="45.922120886668544" lon="11.253270830642023"><ele>688.0</ele><time>2026-04-06T08:24:37Z</time></trkpt><trkpt lat="45.92201403381909" lon="11.253373529501408"><ele>688.0</ele><time>2026-04-06T08:24:38Z</time></trkpt><trkpt lat="45.92190814993005" lon="11.253490538828448"><ele>688.0</ele><time>2026-04-06T08:24:39Z</time></trkpt><trkpt lat="45.92179460565177" lon="11.253610051055873"><ele>686.3333333333334</ele><time>2026-04-06T08:24:40Z</time></trkpt><trkpt lat="45.92167756031058" lon="11.253730175201449"><ele>684.6666666666666</ele><time>2026-04-06T08:24:41Z</time></trkpt><trkpt lat="45.92155563592773" lon="11.253850421004003"><ele>683.0</ele><time>2026-04-06T08:24:42Z</time></trkpt><trkpt lat="45.92142652271275" lon="11.253986727848131"><ele>683.0</ele><time>2026-04-06T08:24:43Z</time></trkpt><trkpt lat="45.92132169980714" lon="11.254130106422602"><ele>683.0</ele><time>2026-04-06T08:24:44Z</time></trkpt><trkpt lat="45.92122350407221" lon="11.254295173546707"><ele>683.0</ele><time>2026-04-06T08:24:45Z</time></trkpt><trkpt lat="45.92113422440242" lon="11.254459584992228"><ele>683.0</ele><time>2026-04-06T08:24:46Z</time></trkpt><trkpt lat="45.92104560916369" lon="11.254631737893064"><ele>683.0</ele><time>2026-04-06T08:24:47Z</time></trkpt><trkpt lat="45.9209608849305" lon="11.254781344617708"><ele>683.0</ele><time>2026-04-06T08:24:48Z</time></trkpt><trkpt lat="45.920888347596275" lon="11.254902875979406"><ele>683.0</ele><time>2026-04-06T08:24:49Z</time></trkpt><trkpt lat="45.92083586335724" lon="11.254985419747017"><ele>683.0</ele><time>2026-04-06T08:24:50Z</time></trkpt><trkpt lat="45.92077599143301" lon="11.255023318233444"><ele>683.0</ele><time>2026-04-06T08:24:51Z</time></trkpt><trkpt lat="45.92071104776185" lon="11.255007042584474"><ele>683.0</ele><time>2026-04-06T08:24:52Z</time></trkpt><trkpt lat="45.920673127923635" lon="11.254927733468666"><ele>683.0</ele><time>2026-04-06T08:24:53Z</time></trkpt><trkpt lat="45.920672740427214" lon="11.254835569501932"><ele>683.0</ele><time>2026-04-06T08:24:54Z</time></trkpt><trkpt lat="45.92071772001211" lon="11.254745424924593"><ele>683.0</ele><time>2026-04-06T08:24:55Z</time></trkpt><trkpt lat="45.92081526465119" lon="11.254708412119145"><ele>683.0</ele><time>2026-04-06T08:24:56Z</time></trkpt><trkpt lat="45.92091122435186" lon="11.254621797400015"><ele>683.0</ele><time>2026-04-06T08:24:57Z</time></trkpt><trkpt lat="45.92099353940462" lon="11.254494778094736"><ele>683.0</ele><time>2026-04-06T08:24:58Z</time></trkpt><trkpt lat="45.921086321608996" lon="11.254361621864556"><ele>683.0</ele><time>2026-04-06T08:24:59Z</time></trkpt><trkpt lat="45.9211423491018" lon="11.254174746688722"><ele>683.0</ele><time>2026-04-06T08:25:00Z</time></trkpt><trkpt lat="45.92121064805843" lon="11.254002455217101"><ele>683.0</ele><time>2026-04-06T08:25:01Z</time></trkpt><trkpt lat="45.92129940909381" lon="11.253838377264481"><ele>692.6666666666666</ele><time>2026-04-06T08:25:02Z</time></trkpt><trkpt lat="45.921388042052214" lon="11.253668240611727"><ele>702.3333333333334</ele><time>2026-04-06T08:25:03Z</time></trkpt><trkpt lat="45.92148965004832" lon="11.25350867174136"><ele>712.0</ele><time>2026-04-06T08:25:04Z</time></trkpt><trkpt lat="45.921596381575895" lon="11.253345137058837"><ele>712.0</ele><time>2026-04-06T08:25:05Z</time></trkpt><trkpt lat="45.92170391840883" lon="11.253178733245669"><ele>712.0</ele><time>2026-04-06T08:25:06Z</time></trkpt><trkpt lat="45.921810229003064" lon="11.253013126719162"><ele>712.0</ele><time>2026-04-06T08:25:07Z</time></trkpt><trkpt lat="45.92190341068603" lon="11.25283378988894"><ele>711.6666666666667</ele><time>2026-04-06T08:25:08Z</time></trkpt><trkpt lat="45.921997120392" lon="11.25265984849945"><ele>711.3333333333334</ele><time>2026-04-06T08:25:09Z</time></trkpt><trkpt lat="45.92207017324462" lon="11.252469917882744"><ele>711.0</ele><time>2026-04-06T08:25:10Z</time></trkpt><trkpt lat="45.92212890115311" lon="11.252273901770506"><ele>711.0</ele><time>2026-04-06T08:25:11Z</time></trkpt><trkpt lat="45.92214409518136" lon="11.252052755826094"><ele>711.0</ele><time>2026-04-06T08:25:12Z</time></trkpt><trkpt lat="45.92216672021194" lon="11.251829667633915"><ele>711.0</ele><time>2026-04-06T08:25:13Z</time></trkpt><trkpt lat="45.922172335595896" lon="11.251593374619311"><ele>713.3333333333334</ele><time>2026-04-06T08:25:14Z</time></trkpt><trkpt lat="45.92217869389255" lon="11.251354087882623"><ele>715.6666666666667</ele><time>2026-04-06T08:25:15Z</time></trkpt><trkpt lat="45.92218418776643" lon="11.25111289371984"><ele>718.0</ele><time>2026-04-06T08:25:16Z</time></trkpt><trkpt lat="45.92218891051839" lon="11.250868135720852"><ele>722.0</ele><time>2026-04-06T08:25:17Z</time></trkpt><trkpt lat="45.922194585360735" lon="11.25061582449177"><ele>726.0</ele><time>2026-04-06T08:25:18Z</time></trkpt><trkpt lat="45.92220239057021" lon="11.25036628537032"><ele>730.0</ele><time>2026-04-06T08:25:19Z</time></trkpt><trkpt lat="45.92221539718962" lon="11.25012526859798"><ele>730.0</ele><time>2026-04-06T08:25:20Z</time></trkpt><trkpt lat="45.922237804119845" lon="11.249888446686287"><ele>730.0</ele><time>2026-04-06T08:25:21Z</time></trkpt><trkpt lat="45.92227449215519" lon="11.249660447065885"><ele>730.0</ele><time>2026-04-06T08:25:22Z</time></trkpt><trkpt lat="45.92232706862747" lon="11.249444413110737"><ele>735.25</ele><time>2026-04-06T08:25:23Z</time></trkpt><trkpt lat="45.92238235684294" lon="11.24923816302901"><ele>740.5</ele><time>2026-04-06T08:25:24Z</time></trkpt><trkpt lat="45.92243395017925" lon="11.249051778928186"><ele>745.75</ele><time>2026-04-06T08:25:25Z</time></trkpt><trkpt lat="45.922481157219984" lon="11.248884440089029"><ele>751.0</ele><time>2026-04-06T08:25:26Z</time></trkpt><trkpt lat="45.92252875413176" lon="11.248724894658578"><ele>752.25</ele><time>2026-04-06T08:25:27Z</time></trkpt><trkpt lat="45.92256446211912" lon="11.248548317923735"><ele>753.5</ele><time>2026-04-06T08:25:28Z</time></trkpt><trkpt lat="45.922616608206724" lon="11.248373010440567"><ele>754.75</ele><time>2026-04-06T08:25:29Z</time></trkpt><trkpt lat="45.9226818711359" lon="11.248203303552804"><ele>756.0</ele><time>2026-04-06T08:25:30Z</time></trkpt><trkpt lat="45.922725449950896" lon="11.24801995531051"><ele>756.0</ele><time>2026-04-06T08:25:31Z</time></trkpt><trkpt lat="45.92276485629962" lon="11.247830233699037"><ele>756.0</ele><time>2026-04-06T08:25:32Z</time></trkpt><trkpt lat="45.92279995961956" lon="11.247640077325416"><ele>756.0</ele><time>2026-04-06T08:25:33Z</time></trkpt><trkpt lat="45.92283913874925" lon="11.247454458094175"><ele>756.0</ele><time>2026-04-06T08:25:34Z</time></trkpt><trkpt lat="45.92287782141666" lon="11.247267654560577"><ele>756.25</ele><time>2026-04-06T08:25:35Z</time></trkpt><trkpt lat="45.92289880644575" lon="11.247082050847025"><ele>756.5</ele><time>2026-04-06T08:25:36Z</time></trkpt><trkpt lat="45.92293287200604" lon="11.246901005995236"><ele>756.75</ele><time>2026-04-06T08:25:37Z</time></trkpt><trkpt lat="45.92297093260854" lon="11.2467211895689"><ele>757.0</ele><time>2026-04-06T08:25:38Z</time></trkpt><trkpt lat="45.92301681810978" lon="11.246540887822807"><ele>759.0</ele><time>2026-04-06T08:25:39Z</time></trkpt><trkpt lat="45.9230977150941" lon="11.24638695922636"><ele>761.0</ele><time>2026-04-06T08:25:40Z</time></trkpt><trkpt lat="45.92316503083156" lon="11.246224085854363"><ele>763.0</ele><time>2026-04-06T08:25:41Z</time></trkpt><trkpt lat="45.92320915580094" lon="11.24604791512353"><ele>765.0</ele><time>2026-04-06T08:25:42Z</time></trkpt><trkpt lat="45.92324134115412" lon="11.245868505076833"><ele>765.0</ele><time>2026-04-06T08:25:43Z</time></trkpt><trkpt lat="45.923275612673095" lon="11.2456819796795"><ele>765.0</ele><time>2026-04-06T08:25:44Z</time></trkpt><trkpt lat="45.9232930483447" lon="11.245486801100158"><ele>765.0</ele><time>2026-04-06T08:25:45Z</time></trkpt><trkpt lat="45.923320540705525" lon="11.245297246350898"><ele>765.0</ele><time>2026-04-06T08:25:46Z</time></trkpt><trkpt lat="45.923380275104165" lon="11.245115700704966"><ele>766.6666666666667</ele><time>2026-04-06T08:25:47Z</time></trkpt><trkpt lat="45.92346001512211" lon="11.24491134879938"><ele>768.3333333333334</ele><time>2026-04-06T08:25:48Z</time></trkpt><trkpt lat="45.923544145132" lon="11.244693708032978"><ele>770.0</ele><time>2026-04-06T08:25:49Z</time></trkpt><trkpt lat="45.92362510315696" lon="11.244481213103901"><ele>770.5</ele><time>2026-04-06T08:25:50Z</time></trkpt><trkpt lat="45.92370099150148" lon="11.244282024708296"><ele>771.0</ele><time>2026-04-06T08:25:51Z</time></trkpt><trkpt lat="45.92376980452398" lon="11.24409557823091"><ele>771.5</ele><time>2026-04-06T08:25:52Z</time></trkpt><trkpt lat="45.92382564026733" lon="11.243917186681312"><ele>772.0</ele><time>2026-04-06T08:25:53Z</time></trkpt><trkpt lat="45.92387020039247" lon="11.243746453797133"><ele>772.0</ele><time>2026-04-06T08:25:54Z</time></trkpt><trkpt lat="45.92391049571293" lon="11.243585242069491"><ele>772.0</ele><time>2026-04-06T08:25:55Z</time></trkpt><trkpt lat="45.92395392905651" lon="11.243433520552719"><ele>772.0</ele><time>2026-04-06T08:25:56Z</time></trkpt><trkpt lat="45.924023188159616" lon="11.243288471506016"><ele>772.0</ele><time>2026-04-06T08:25:57Z</time></trkpt><trkpt lat="45.92410704084808" lon="11.243158348541488"><ele>770.25</ele><time>2026-04-06T08:25:58Z</time></trkpt><trkpt lat="45.9241985308763" lon="11.243033842453244"><ele>768.5</ele><time>2026-04-06T08:25:59Z</time></trkpt><trkpt lat="45.92428658616282" lon="11.24290749996216"><ele>766.75</ele><time>2026-04-06T08:26:00Z</time></trkpt><trkpt lat="45.92439081389189" lon="11.242810374706604"><ele>765.0</ele><time>2026-04-06T08:26:01Z</time></trkpt><trkpt lat="45.92450042231914" lon="11.242726471815057"><ele>765.0</ele><time>2026-04-06T08:26:02Z</time></trkpt><trkpt lat="45.92461481202241" lon="11.242657223738574"><ele>765.0</ele><time>2026-04-06T08:26:03Z</time></trkpt><trkpt lat="45.92472275087471" lon="11.242582392039038"><ele>765.0</ele><time>2026-04-06T08:26:04Z</time></trkpt><trkpt lat="45.924830006097714" lon="11.24250682372038"><ele>765.0</ele><time>2026-04-06T08:26:05Z</time></trkpt><trkpt lat="45.924923966117966" lon="11.242401061991258"><ele>766.25</ele><time>2026-04-06T08:26:06Z</time></trkpt><trkpt lat="45.92499986963876" lon="11.242274822238516"><ele>767.5</ele><time>2026-04-06T08:26:07Z</time></trkpt><trkpt lat="45.92505679129827" lon="11.242117700289917"><ele>768.75</ele><time>2026-04-06T08:26:08Z</time></trkpt><trkpt lat="45.925120227869755" lon="11.241960924684918"><ele>770.0</ele><time>2026-04-06T08:26:09Z</time></trkpt><trkpt lat="45.925174674371355" lon="11.241799209523796"><ele>770.0</ele><time>2026-04-06T08:26:10Z</time></trkpt><trkpt lat="45.925255689538886" lon="11.241636287764136"><ele>770.0</ele><time>2026-04-06T08:26:11Z</time></trkpt><trkpt lat="45.92535825832178" lon="11.241469698575445"><ele>770.0</ele><time>2026-04-06T08:26:12Z</time></trkpt><trkpt lat="45.92547400389616" lon="11.241297551122727"><ele>773.3333333333334</ele><time>2026-04-06T08:26:13Z</time></trkpt><trkpt lat="45.92559481919062" lon="11.241111918943028"><ele>776.6666666666667</ele><time>2026-04-06T08:26:14Z</time></trkpt><trkpt lat="45.925717363891344" lon="11.240921889331764"><ele>780.0</ele><time>2026-04-06T08:26:15Z</time></trkpt><trkpt lat="45.925845133144115" lon="11.240724230686263"><ele>783.0</ele><time>2026-04-06T08:26:16Z</time></trkpt><trkpt lat="45.92597254799153" lon="11.240524599878022"><ele>786.0</ele><time>2026-04-06T08:26:17Z</time></trkpt><trkpt lat="45.926100174022544" lon="11.240336048545126"><ele>789.0</ele><time>2026-04-06T08:26:18Z</time></trkpt><trkpt lat="45.92622846857236" lon="11.240189417191232"><ele>789.0</ele><time>2026-04-06T08:26:19Z</time></trkpt><trkpt lat="45.92637084342914" lon="11.24008384592309"><ele>789.0</ele><time>2026-04-06T08:26:20Z</time></trkpt><trkpt lat="45.92652385231183" lon="11.240027284231166"><ele>789.0</ele><time>2026-04-06T08:26:21Z</time></trkpt><trkpt lat="45.926682563323254" lon="11.240024942681766"><ele>789.6666666666667</ele><time>2026-04-06T08:26:22Z</time></trkpt><trkpt lat="45.926845832236985" lon="11.240040168302558"><ele>790.3333333333334</ele><time>2026-04-06T08:26:23Z</time></trkpt><trkpt lat="45.927004926601896" lon="11.240046169312093"><ele>791.0</ele><time>2026-04-06T08:26:24Z</time></trkpt><trkpt lat="45.9271601720608" lon="11.24005190912904"><ele>791.0</ele><time>2026-04-06T08:26:25Z</time></trkpt><trkpt lat="45.92731308817563" lon="11.240011694380216"><ele>791.0</ele><time>2026-04-06T08:26:26Z</time></trkpt><trkpt lat="45.92746326480032" lon="11.239973264859794"><ele>791.0</ele><time>2026-04-06T08:26:27Z</time></trkpt><trkpt lat="45.927590314647524" lon="11.239933876932852"><ele>791.0</ele><time>2026-04-06T08:26:28Z</time></trkpt><trkpt lat="45.927683319161595" lon="11.239921966177869"><ele>792.4</ele><time>2026-04-06T08:26:29Z</time></trkpt><trkpt lat="45.9277660657956" lon="11.239942183369955"><ele>793.8</ele><time>2026-04-06T08:26:30Z</time></trkpt><trkpt lat="45.927841220548636" lon="11.240015968730985"><ele>795.1999999999999</ele><time>2026-04-06T08:26:31Z</time></trkpt><trkpt lat="45.92788501848328" lon="11.240146252844344"><ele>796.5999999999999</ele><time>2026-04-06T08:26:32Z</time></trkpt><trkpt lat="45.92789113333522" lon="11.240298104808783"><ele>798.0</ele><time>2026-04-06T08:26:33Z</time></trkpt><trkpt lat="45.92786374552756" lon="11.24046117785365"><ele>798.0</ele><time>2026-04-06T08:26:34Z</time></trkpt><trkpt lat="45.92782288812801" lon="11.24062771140393"><ele>798.0</ele><time>2026-04-06T08:26:35Z</time></trkpt><trkpt lat="45.92777507401534" lon="11.24078744558225"><ele>798.0</ele><time>2026-04-06T08:26:36Z</time></trkpt><trkpt lat="45.92770622587463" lon="11.240937870835495"><ele>798.0</ele><time>2026-04-06T08:26:37Z</time></trkpt><trkpt lat="45.92762464420255" lon="11.241077652618367"><ele>795.5999999999999</ele><time>2026-04-06T08:26:38Z</time></trkpt><trkpt lat="45.92753345093652" lon="11.241211610506731"><ele>793.1999999999999</ele><time>2026-04-06T08:26:39Z</time></trkpt><trkpt lat="45.92745483617832" lon="11.241341290050233"><ele>790.8</ele><time>2026-04-06T08:26:40Z</time></trkpt><trkpt lat="45.92739424600136" lon="11.241443840832504"><ele>788.4</ele><time>2026-04-06T08:26:41Z</time></trkpt><trkpt lat="45.92737499382841" lon="11.241543475023906"><ele>786.0</ele><time>2026-04-06T08:26:42Z</time></trkpt><trkpt lat="45.92738451917417" lon="11.241635958295767"><ele>792.1999999999999</ele><time>2026-04-06T08:26:43Z</time></trkpt><trkpt lat="45.9274389067259" lon="11.24170398970736"><ele>798.4</ele><time>2026-04-06T08:26:44Z</time></trkpt><trkpt lat="45.92751835987596" lon="11.241707574762307"><ele>804.6</ele><time>2026-04-06T08:26:45Z</time></trkpt><trkpt lat="45.92760325448093" lon="11.241641186929208"><ele>810.8</ele><time>2026-04-06T08:26:46Z</time></trkpt><trkpt lat="45.92766857351845" lon="11.241524627881248"><ele>817.0</ele><time>2026-04-06T08:26:47Z</time></trkpt><trkpt lat="45.927732968925454" lon="11.241382975512181"><ele>817.0</ele><time>2026-04-06T08:26:48Z</time></trkpt><trkpt lat="45.92782461059332" lon="11.241259279132256"><ele>817.0</ele><time>2026-04-06T08:26:49Z</time></trkpt><trkpt lat="45.92792487288055" lon="11.241145537101715"><ele>817.0</ele><time>2026-04-06T08:26:50Z</time></trkpt><trkpt lat="45.9280361605913" lon="11.241038121741187"><ele>817.0</ele><time>2026-04-06T08:26:51Z</time></trkpt><trkpt lat="45.92815370286098" lon="11.240925289640336"><ele>817.0</ele><time>2026-04-06T08:26:52Z</time></trkpt><trkpt lat="45.928267867372824" lon="11.240810939493405"><ele>817.0</ele><time>2026-04-06T08:26:53Z</time></trkpt><trkpt lat="45.92838511815697" lon="11.240693315123579"><ele>817.0</ele><time>2026-04-06T08:26:54Z</time></trkpt><trkpt lat="45.92850463278052" lon="11.240576175521975"><ele>817.0</ele><time>2026-04-06T08:26:55Z</time></trkpt><trkpt lat="45.92862187107191" lon="11.240457925937188"><ele>818.0</ele><time>2026-04-06T08:26:56Z</time></trkpt><trkpt lat="45.92873309600274" lon="11.240323554372326"><ele>819.0</ele><time>2026-04-06T08:26:57Z</time></trkpt><trkpt lat="45.92882804617467" lon="11.240157827389988"><ele>820.0</ele><time>2026-04-06T08:26:58Z</time></trkpt><trkpt lat="45.928906359769364" lon="11.239987702514282"><ele>821.0</ele><time>2026-04-06T08:26:59Z</time></trkpt><trkpt lat="45.92897960252309" lon="11.23981341399738"><ele>820.5</ele><time>2026-04-06T08:27:00Z</time></trkpt><trkpt lat="45.92905665547931" lon="11.239639873965764"><ele>820.0</ele><time>2026-04-06T08:27:01Z</time></trkpt><trkpt lat="45.929139670254074" lon="11.239483212564434"><ele>819.5</ele><time>2026-04-06T08:27:02Z</time></trkpt><trkpt lat="45.92924224466443" lon="11.239355561312419"><ele>819.0</ele><time>2026-04-06T08:27:03Z</time></trkpt><trkpt lat="45.92936583120693" lon="11.239266264816628"><ele>821.0</ele><time>2026-04-06T08:27:04Z</time></trkpt><trkpt lat="45.92949513809252" lon="11.239216768169257"><ele>823.0</ele><time>2026-04-06T08:27:05Z</time></trkpt><trkpt lat="45.929633896373474" lon="11.23920201362742"><ele>825.0</ele><time>2026-04-06T08:27:06Z</time></trkpt><trkpt lat="45.92978325731963" lon="11.23917847172266"><ele>827.0</ele><time>2026-04-06T08:27:07Z</time></trkpt><trkpt lat="45.929934414544036" lon="11.239180616321196"><ele>834.0</ele><time>2026-04-06T08:27:08Z</time></trkpt><trkpt lat="45.93008349613305" lon="11.239169973309204"><ele>841.0</ele><time>2026-04-06T08:27:09Z</time></trkpt><trkpt lat="45.93023162135666" lon="11.239154979360634"><ele>848.0</ele><time>2026-04-06T08:27:10Z</time></trkpt><trkpt lat="45.93037486232998" lon="11.23912207401642"><ele>855.0</ele><time>2026-04-06T08:27:11Z</time></trkpt><trkpt lat="45.93051098230888" lon="11.23904813990234"><ele>853.0</ele><time>2026-04-06T08:27:12Z</time></trkpt><trkpt lat="45.93063982251777" lon="11.238936202679985"><ele>851.0</ele><time>2026-04-06T08:27:13Z</time></trkpt><trkpt lat="45.93076429334838" lon="11.23880250717382"><ele>849.0</ele><time>2026-04-06T08:27:14Z</time></trkpt><trkpt lat="45.930893822341524" lon="11.23867648559017"><ele>849.0</ele><time>2026-04-06T08:27:15Z</time></trkpt><trkpt lat="45.93103668983761" lon="11.238574934581104"><ele>849.0</ele><time>2026-04-06T08:27:16Z</time></trkpt><trkpt lat="45.931170067065736" lon="11.238454655297835"><ele>849.0</ele><time>2026-04-06T08:27:17Z</time></trkpt><trkpt lat="45.931302425637135" lon="11.23833523233555"><ele>849.0</ele><time>2026-04-06T08:27:18Z</time></trkpt><trkpt lat="45.93143566720467" lon="11.238214639455308"><ele>849.0</ele><time>2026-04-06T08:27:19Z</time></trkpt><trkpt lat="45.931568112987875" lon="11.238094766767825"><ele>849.0</ele><time>2026-04-06T08:27:20Z</time></trkpt><trkpt lat="45.93169677424464" lon="11.237976884088692"><ele>851.0</ele><time>2026-04-06T08:27:21Z</time></trkpt><trkpt lat="45.9318210923952" lon="11.237855779512628"><ele>853.0</ele><time>2026-04-06T08:27:22Z</time></trkpt><trkpt lat="45.931928530933654" lon="11.237740997554692"><ele>855.0</ele><time>2026-04-06T08:27:23Z</time></trkpt><trkpt lat="45.93200824823881" lon="11.237592579680856"><ele>857.0</ele><time>2026-04-06T08:27:24Z</time></trkpt><trkpt lat="45.93207605753266" lon="11.237425853124716"><ele>855.5</ele><time>2026-04-06T08:27:25Z</time></trkpt><trkpt lat="45.932116893291216" lon="11.237230697613011"><ele>854.0</ele><time>2026-04-06T08:27:26Z</time></trkpt><trkpt lat="45.93216828689115" lon="11.237037147038375"><ele>852.5</ele><time>2026-04-06T08:27:27Z</time></trkpt><trkpt lat="45.93220974347074" lon="11.236841332202582"><ele>851.0</ele><time>2026-04-06T08:27:28Z</time></trkpt><trkpt lat="45.93224978187707" lon="11.236645549135458"><ele>851.5999999999999</ele><time>2026-04-06T08:27:29Z</time></trkpt><trkpt lat="45.9322868283433" lon="11.236466533898005"><ele>852.2</ele><time>2026-04-06T08:27:30Z</time></trkpt><trkpt lat="45.93231831788799" lon="11.23631806773896"><ele>852.8000000000001</ele><time>2026-04-06T08:27:31Z</time></trkpt><trkpt lat="45.93234978092414" lon="11.236203198223722"><ele>853.4000000000001</ele><time>2026-04-06T08:27:32Z</time></trkpt><trkpt lat="45.932447875914455" lon="11.23610653527949"><ele>854.0</ele><time>2026-04-06T08:27:34Z</time></trkpt><trkpt lat="45.93251975849246" lon="11.236153767242241"><ele>853.4000000000001</ele><time>2026-04-06T08:27:35Z</time></trkpt><trkpt lat="45.93257180097696" lon="11.236258851584823"><ele>852.8000000000001</ele><time>2026-04-06T08:27:36Z</time></trkpt><trkpt lat="45.93258758092274" lon="11.236394271340847"><ele>852.2</ele><time>2026-04-06T08:27:37Z</time></trkpt><trkpt lat="45.93254492034605" lon="11.236541326699225"><ele>851.5999999999999</ele><time>2026-04-06T08:27:38Z</time></trkpt><trkpt lat="45.93252381199922" lon="11.236703251266839"><ele>851.0</ele><time>2026-04-06T08:27:39Z</time></trkpt><trkpt lat="45.93248477192886" lon="11.236870341271295"><ele>851.0</ele><time>2026-04-06T08:27:40Z</time></trkpt><trkpt lat="45.93244970730556" lon="11.237049661893069"><ele>851.0</ele><time>2026-04-06T08:27:41Z</time></trkpt><trkpt lat="45.93241704298163" lon="11.237218551620595"><ele>851.0</ele><time>2026-04-06T08:27:42Z</time></trkpt><trkpt lat="45.93236074885113" lon="11.237385641604348"><ele>851.0</ele><time>2026-04-06T08:27:43Z</time></trkpt><trkpt lat="45.93229602093894" lon="11.237539416094474"><ele>852.0000000000001</ele><time>2026-04-06T08:27:44Z</time></trkpt><trkpt lat="45.93224346913981" lon="11.237667857331425"><ele>853.0</ele><time>2026-04-06T08:27:45Z</time></trkpt><trkpt lat="45.932225126827184" lon="11.237767440856736"><ele>854.0</ele><time>2026-04-06T08:27:46Z</time></trkpt><trkpt lat="45.93225681591364" lon="11.237849170892671"><ele>855.0</ele><time>2026-04-06T08:27:47Z</time></trkpt><trkpt lat="45.93232888135198" lon="11.237891948510734"><ele>856.0000000000001</ele><time>2026-04-06T08:27:48Z</time></trkpt><trkpt lat="45.93240902792022" lon="11.237887045670313"><ele>857.0</ele><time>2026-04-06T08:27:49Z</time></trkpt><trkpt lat="45.932494736506904" lon="11.237841537520033"><ele>857.0</ele><time>2026-04-06T08:27:50Z</time></trkpt><trkpt lat="45.93255194531899" lon="11.237676642784855"><ele>857.0</ele><time>2026-04-06T08:27:51Z</time></trkpt><trkpt lat="45.93262223458392" lon="11.237542860043577"><ele>857.0</ele><time>2026-04-06T08:27:52Z</time></trkpt><trkpt lat="45.93271403194224" lon="11.237422932967258"><ele>857.0</ele><time>2026-04-06T08:27:53Z</time></trkpt><trkpt lat="45.93279101354573" lon="11.237278471957866"><ele>863.0</ele><time>2026-04-06T08:27:54Z</time></trkpt><trkpt lat="45.93285906023403" lon="11.237116500149572"><ele>869.0</ele><time>2026-04-06T08:27:55Z</time></trkpt><trkpt lat="45.93289597905884" lon="11.236927283545102"><ele>875.0</ele><time>2026-04-06T08:27:56Z</time></trkpt><trkpt lat="45.93293181989955" lon="11.236736978475879"><ele>881.0</ele><time>2026-04-06T08:27:57Z</time></trkpt><trkpt lat="45.9329548522612" lon="11.236534767901901"><ele>878.25</ele><time>2026-04-06T08:27:58Z</time></trkpt><trkpt lat="45.932994415036" lon="11.236337469333353"><ele>875.5</ele><time>2026-04-06T08:27:59Z</time></trkpt><trkpt lat="45.93301589586622" lon="11.236135353743105"><ele>872.75</ele><time>2026-04-06T08:28:00Z</time></trkpt><trkpt lat="45.933053479590335" lon="11.235951455933938"><ele>870.0</ele><time>2026-04-06T08:28:01Z</time></trkpt><trkpt lat="45.93311554019884" lon="11.235785432819144"><ele>870.0</ele><time>2026-04-06T08:28:02Z</time></trkpt><trkpt lat="45.93319574966398" lon="11.235637320781635"><ele>870.0</ele><time>2026-04-06T08:28:03Z</time></trkpt><trkpt lat="45.93326501751189" lon="11.23548067849191"><ele>870.0</ele><time>2026-04-06T08:28:04Z</time></trkpt><trkpt lat="45.93332362312313" lon="11.23533786501579"><ele>870.0</ele><time>2026-04-06T08:28:05Z</time></trkpt><trkpt lat="45.93334152212434" lon="11.23517123143626"><ele>870.0</ele><time>2026-04-06T08:28:06Z</time></trkpt><trkpt lat="45.93332687711992" lon="11.2349984995391"><ele>870.0</ele><time>2026-04-06T08:28:07Z</time></trkpt><trkpt lat="45.93331537275812" lon="11.234832471978132"><ele>870.0</ele><time>2026-04-06T08:28:08Z</time></trkpt><trkpt lat="45.93330976278125" lon="11.234692999069884"><ele>870.0</ele><time>2026-04-06T08:28:09Z</time></trkpt><trkpt lat="45.933330842725276" lon="11.234593478653055"><ele>870.0</ele><time>2026-04-06T08:28:10Z</time></trkpt><trkpt lat="45.933383167468854" lon="11.234539702813427"><ele>876.8</ele><time>2026-04-06T08:28:11Z</time></trkpt><trkpt lat="45.93346407462232" lon="11.2345421796419"><ele>883.6</ele><time>2026-04-06T08:28:12Z</time></trkpt><trkpt lat="45.9335380331668" lon="11.234621440913344"><ele>890.4000000000001</ele><time>2026-04-06T08:28:13Z</time></trkpt><trkpt lat="45.93356570529269" lon="11.234770395371752"><ele>897.2</ele><time>2026-04-06T08:28:14Z</time></trkpt><trkpt lat="45.9336205507056" lon="11.234906684328218"><ele>904.0</ele><time>2026-04-06T08:28:15Z</time></trkpt><trkpt lat="45.93363957158516" lon="11.235066456576336"><ele>904.0</ele><time>2026-04-06T08:28:16Z</time></trkpt><trkpt lat="45.93367569876541" lon="11.23524156049624"><ele>904.0</ele><time>2026-04-06T08:28:17Z</time></trkpt><trkpt lat="45.9337103106615" lon="11.235424592990771"><ele>904.0</ele><time>2026-04-06T08:28:18Z</time></trkpt><trkpt lat="45.9337205405288" lon="11.23560622235333"><ele>904.0</ele><time>2026-04-06T08:28:19Z</time></trkpt><trkpt lat="45.93369375551445" lon="11.23580451563691"><ele>903.75</ele><time>2026-04-06T08:28:20Z</time></trkpt><trkpt lat="45.93364736974295" lon="11.236001971786061"><ele>903.5</ele><time>2026-04-06T08:28:21Z</time></trkpt><trkpt lat="45.93360452321137" lon="11.236201678583829"><ele>903.25</ele><time>2026-04-06T08:28:22Z</time></trkpt><trkpt lat="45.93356862340917" lon="11.236406475090295"><ele>903.0</ele><time>2026-04-06T08:28:23Z</time></trkpt><trkpt lat="45.93352951986154" lon="11.236616033228586"><ele>902.0</ele><time>2026-04-06T08:28:24Z</time></trkpt><trkpt lat="45.93349205672967" lon="11.23682252258557"><ele>901.0</ele><time>2026-04-06T08:28:25Z</time></trkpt><trkpt lat="45.933455597263546" lon="11.237014287659262"><ele>900.0</ele><time>2026-04-06T08:28:26Z</time></trkpt><trkpt lat="45.93341299989184" lon="11.237181015228572"><ele>899.0</ele><time>2026-04-06T08:28:27Z</time></trkpt><trkpt lat="45.93335722597208" lon="11.23731908639515"><ele>899.0000000000001</ele><time>2026-04-06T08:28:28Z</time></trkpt><trkpt lat="45.93329660141704" lon="11.237427092157533"><ele>899.0</ele><time>2026-04-06T08:28:29Z</time></trkpt><trkpt lat="45.933260898710344" lon="11.237508354055946"><ele>899.0</ele><time>2026-04-06T08:28:30Z</time></trkpt><trkpt lat="45.933286163557895" lon="11.237660894024684"><ele>899.0</ele><time>2026-04-06T08:28:32Z</time></trkpt><trkpt lat="45.933339596304805" lon="11.237719449207054"><ele>899.0000000000001</ele><time>2026-04-06T08:28:33Z</time></trkpt><trkpt lat="45.93341108246757" lon="11.237748560481892"><ele>899.0</ele><time>2026-04-06T08:28:34Z</time></trkpt><trkpt lat="45.933484268039756" lon="11.237700278793142"><ele>902.0</ele><time>2026-04-06T08:28:35Z</time></trkpt><trkpt lat="45.93351307031616" lon="11.237547732218621"><ele>905.0000000000001</ele><time>2026-04-06T08:28:36Z</time></trkpt><trkpt lat="45.933544918758194" lon="11.237397211493711"><ele>908.0000000000001</ele><time>2026-04-06T08:28:37Z</time></trkpt><trkpt lat="45.93357042346415" lon="11.23724782487066"><ele>911.0</ele><time>2026-04-06T08:28:38Z</time></trkpt><trkpt lat="45.93359913108102" lon="11.2370931087687"><ele>914.0</ele><time>2026-04-06T08:28:39Z</time></trkpt><trkpt lat="45.93364116718313" lon="11.236929585966159"><ele>914.0</ele><time>2026-04-06T08:28:40Z</time></trkpt><trkpt lat="45.93369612084054" lon="11.236778520091143"><ele>914.0</ele><time>2026-04-06T08:28:41Z</time></trkpt><trkpt lat="45.93376267103615" lon="11.236638164933192"><ele>914.0</ele><time>2026-04-06T08:28:42Z</time></trkpt><trkpt lat="45.933844198235086" lon="11.236518210408576"><ele>914.0</ele><time>2026-04-06T08:28:43Z</time></trkpt><trkpt lat="45.93393374554991" lon="11.236414915590192"><ele>911.8000000000001</ele><time>2026-04-06T08:28:44Z</time></trkpt><trkpt lat="45.934024313802304" lon="11.236316307249865"><ele>909.6000000000001</ele><time>2026-04-06T08:28:45Z</time></trkpt><trkpt lat="45.934111186112794" lon="11.236212720490323"><ele>907.4</ele><time>2026-04-06T08:28:46Z</time></trkpt><trkpt lat="45.93418082085827" lon="11.236094734335476"><ele>905.2</ele><time>2026-04-06T08:28:47Z</time></trkpt><trkpt lat="45.93423733192744" lon="11.235966912306075"><ele>903.0</ele><time>2026-04-06T08:28:48Z</time></trkpt><trkpt lat="45.934281311853915" lon="11.235831486696815"><ele>915.25</ele><time>2026-04-06T08:28:49Z</time></trkpt><trkpt lat="45.93431805046583" lon="11.235692524293405"><ele>927.5</ele><time>2026-04-06T08:28:50Z</time></trkpt><trkpt lat="45.93436710400181" lon="11.235510137497425"><ele>939.75</ele><time>2026-04-06T08:28:51Z</time></trkpt><trkpt lat="45.93440744570955" lon="11.235356493134532"><ele>952.0</ele><time>2026-04-06T08:28:52Z</time></trkpt><trkpt lat="45.934417662730155" lon="11.235218884017927"><ele>952.2</ele><time>2026-04-06T08:28:53Z</time></trkpt><trkpt lat="45.93442147698483" lon="11.235096796731703"><ele>952.4000000000001</ele><time>2026-04-06T08:28:54Z</time></trkpt><trkpt lat="45.934419918100424" lon="11.234955297422431"><ele>952.5999999999999</ele><time>2026-04-06T08:28:55Z</time></trkpt><trkpt lat="45.93436882748825" lon="11.23482189733784"><ele>952.8</ele><time>2026-04-06T08:28:56Z</time></trkpt><trkpt lat="45.93435261948323" lon="11.234665274981257"><ele>953.0</ele><time>2026-04-06T08:28:57Z</time></trkpt><trkpt lat="45.934320464333034" lon="11.234512612685123"><ele>953.2</ele><time>2026-04-06T08:28:58Z</time></trkpt><trkpt lat="45.934286898863256" lon="11.234353254777247"><ele>953.4</ele><time>2026-04-06T08:28:59Z</time></trkpt><trkpt lat="45.93425329512427" lon="11.234197098611514"><ele>953.6000000000001</ele><time>2026-04-06T08:29:00Z</time></trkpt><trkpt lat="45.93420253278043" lon="11.234063668379191"><ele>953.8000000000001</ele><time>2026-04-06T08:29:01Z</time></trkpt><trkpt lat="45.93416262539247" lon="11.233944503755305"><ele>954.0</ele><time>2026-04-06T08:29:02Z</time></trkpt><trkpt lat="45.93409490965408" lon="11.233840821236788"><ele>954.0</ele><time>2026-04-06T08:29:03Z</time></trkpt><trkpt lat="45.934012147854716" lon="11.23375070406545"><ele>954.0000000000001</ele><time>2026-04-06T08:29:04Z</time></trkpt><trkpt lat="45.93392427088712" lon="11.233669430901513"><ele>954.0000000000001</ele><time>2026-04-06T08:29:05Z</time></trkpt><trkpt lat="45.93383016990358" lon="11.23359673608995"><ele>954.0</ele><time>2026-04-06T08:29:06Z</time></trkpt><trkpt lat="45.933739419884354" lon="11.233535926774817"><ele>954.0</ele><time>2026-04-06T08:29:07Z</time></trkpt><trkpt lat="45.933658897125945" lon="11.2334991208025"><ele>954.0</ele><time>2026-04-06T08:29:08Z</time></trkpt><trkpt lat="45.93357852678691" lon="11.233487065605885"><ele>954.0</ele><time>2026-04-06T08:29:09Z</time></trkpt><trkpt lat="45.93349789556441" lon="11.233495230946708"><ele>954.0</ele><time>2026-04-06T08:29:10Z</time></trkpt><trkpt lat="45.933433004409345" lon="11.233515369241426"><ele>954.0</ele><time>2026-04-06T08:29:11Z</time></trkpt><trkpt lat="45.93333611745058" lon="11.233496018637519"><ele>954.0</ele><time>2026-04-06T08:29:13Z</time></trkpt><trkpt lat="45.9333043962751" lon="11.23335821630508"><ele>954.0</ele><time>2026-04-06T08:29:15Z</time></trkpt><trkpt lat="45.933391876451466" lon="11.233234798967512"><ele>954.0</ele><time>2026-04-06T08:29:17Z</time></trkpt><trkpt lat="45.93347371233069" lon="11.233275450521894"><ele>954.0000000000001</ele><time>2026-04-06T08:29:18Z</time></trkpt><trkpt lat="45.933554223487405" lon="11.233347358564371"><ele>954.0000000000001</ele><time>2026-04-06T08:29:19Z</time></trkpt><trkpt lat="45.93365421114992" lon="11.233392063656286"><ele>954.0</ele><time>2026-04-06T08:29:20Z</time></trkpt><trkpt lat="45.93376410854458" lon="11.233448966613766"><ele>954.0</ele><time>2026-04-06T08:29:21Z</time></trkpt><trkpt lat="45.933875988248936" lon="11.233518506666316"><ele>954.0</ele><time>2026-04-06T08:29:22Z</time></trkpt><trkpt lat="45.9339862761412" lon="11.233589294692216"><ele>954.0</ele><time>2026-04-06T08:29:23Z</time></trkpt><trkpt lat="45.93409859672402" lon="11.233663760529241"><ele>954.0</ele><time>2026-04-06T08:29:24Z</time></trkpt><trkpt lat="45.93421127476028" lon="11.233748729463866"><ele>954.0</ele><time>2026-04-06T08:29:25Z</time></trkpt><trkpt lat="45.934315940773466" lon="11.233846076827374"><ele>956.25</ele><time>2026-04-06T08:29:26Z</time></trkpt><trkpt lat="45.93441266659746" lon="11.233957830474564"><ele>958.5</ele><time>2026-04-06T08:29:27Z</time></trkpt><trkpt lat="45.93450080943837" lon="11.234081759753007"><ele>960.75</ele><time>2026-04-06T08:29:28Z</time></trkpt><trkpt lat="45.934600981019884" lon="11.234217464468793"><ele>963.0</ele><time>2026-04-06T08:29:29Z</time></trkpt><trkpt lat="45.93465913472958" lon="11.234368371566847"><ele>963.0</ele><time>2026-04-06T08:29:30Z</time></trkpt><trkpt lat="45.93472930457368" lon="11.234529467911731"><ele>963.0</ele><time>2026-04-06T08:29:31Z</time></trkpt><trkpt lat="45.9347810226532" lon="11.234711939344077"><ele>963.0</ele><time>2026-04-06T08:29:32Z</time></trkpt><trkpt lat="45.93482566601473" lon="11.234897412184734"><ele>963.0</ele><time>2026-04-06T08:29:33Z</time></trkpt><trkpt lat="45.93486188073977" lon="11.235096560778647"><ele>959.6666666666667</ele><time>2026-04-06T08:29:34Z</time></trkpt><trkpt lat="45.934873457582896" lon="11.235313863556769"><ele>956.3333333333334</ele><time>2026-04-06T08:29:35Z</time></trkpt><trkpt lat="45.934907136922504" lon="11.235535923084123"><ele>953.0</ele><time>2026-04-06T08:29:36Z</time></trkpt><trkpt lat="45.93492292948273" lon="11.235775047476327"><ele>952.6666666666667</ele><time>2026-04-06T08:29:37Z</time></trkpt><trkpt lat="45.934946618365096" lon="11.236016325180474"><ele>952.3333333333333</ele><time>2026-04-06T08:29:38Z</time></trkpt><trkpt lat="45.93496163824063" lon="11.23625882768524"><ele>952.0</ele><time>2026-04-06T08:29:39Z</time></trkpt><trkpt lat="45.934972102004565" lon="11.236503829752852"><ele>953.0</ele><time>2026-04-06T08:29:40Z</time></trkpt><trkpt lat="45.93495647834246" lon="11.23675355696085"><ele>954.0</ele><time>2026-04-06T08:29:41Z</time></trkpt><trkpt lat="45.934915570301655" lon="11.236999832635998"><ele>955.0</ele><time>2026-04-06T08:29:42Z</time></trkpt><trkpt lat="45.934855936123384" lon="11.237237287105495"><ele>959.3333333333333</ele><time>2026-04-06T08:29:43Z</time></trkpt><trkpt lat="45.93477744709652" lon="11.23746493596149"><ele>963.6666666666667</ele><time>2026-04-06T08:29:44Z</time></trkpt><trkpt lat="45.93469213373979" lon="11.237687715006912"><ele>968.0</ele><time>2026-04-06T08:29:45Z</time></trkpt><trkpt lat="45.93461105239959" lon="11.23790498453797"><ele>968.0</ele><time>2026-04-06T08:29:46Z</time></trkpt><trkpt lat="45.93452446529269" lon="11.238108473139809"><ele>968.0</ele><time>2026-04-06T08:29:47Z</time></trkpt><trkpt lat="45.93440581353497" lon="11.238278870504967"><ele>968.0</ele><time>2026-04-06T08:29:48Z</time></trkpt><trkpt lat="45.9342754666662" lon="11.238415646599021"><ele>964.0</ele><time>2026-04-06T08:29:49Z</time></trkpt><trkpt lat="45.934147455319085" lon="11.23856953999122"><ele>960.0</ele><time>2026-04-06T08:29:50Z</time></trkpt><trkpt lat="45.9340313013848" lon="11.23872497722446"><ele>956.0</ele><time>2026-04-06T08:29:51Z</time></trkpt><trkpt lat="45.93393944841811" lon="11.23892761339202"><ele>960.6666666666667</ele><time>2026-04-06T08:29:52Z</time></trkpt><trkpt lat="45.933864323290145" lon="11.239152576102677"><ele>965.3333333333333</ele><time>2026-04-06T08:29:53Z</time></trkpt><trkpt lat="45.93378896972523" lon="11.239379606150793"><ele>970.0</ele><time>2026-04-06T08:29:54Z</time></trkpt><trkpt lat="45.93370901885027" lon="11.239606983940066"><ele>977.0</ele><time>2026-04-06T08:29:55Z</time></trkpt><trkpt lat="45.933628011679055" lon="11.239831564346595"><ele>984.0</ele><time>2026-04-06T08:29:56Z</time></trkpt><trkpt lat="45.93354141705441" lon="11.240055239390456"><ele>991.0</ele><time>2026-04-06T08:29:57Z</time></trkpt><trkpt lat="45.93345930911102" lon="11.240280631340744"><ele>987.6666666666666</ele><time>2026-04-06T08:29:58Z</time></trkpt><trkpt lat="45.93337748084662" lon="11.240509668289146"><ele>984.3333333333333</ele><time>2026-04-06T08:29:59Z</time></trkpt><trkpt lat="45.933295442544974" lon="11.240736305193717"><ele>981.0</ele><time>2026-04-06T08:30:00Z</time></trkpt><trkpt lat="45.93321373376987" lon="11.24095558616657"><ele>981.0</ele><time>2026-04-06T08:30:01Z</time></trkpt><trkpt lat="45.933136419612204" lon="11.24116223925938"><ele>981.0</ele><time>2026-04-06T08:30:02Z</time></trkpt><trkpt lat="45.93305174400571" lon="11.241346515908658"><ele>981.0</ele><time>2026-04-06T08:30:03Z</time></trkpt><trkpt lat="45.93294597992047" lon="11.241503898377749"><ele>982.0</ele><time>2026-04-06T08:30:04Z</time></trkpt><trkpt lat="45.93281172962462" lon="11.241639108573894"><ele>983.0</ele><time>2026-04-06T08:30:05Z</time></trkpt><trkpt lat="45.93266305879728" lon="11.241737357521458"><ele>984.0</ele><time>2026-04-06T08:30:06Z</time></trkpt><trkpt lat="45.93250628960108" lon="11.241805510297125"><ele>984.0</ele><time>2026-04-06T08:30:07Z</time></trkpt><trkpt lat="45.932350638203246" lon="11.241859977724507"><ele>984.0</ele><time>2026-04-06T08:30:08Z</time></trkpt><trkpt lat="45.93220636992323" lon="11.241932417506735"><ele>984.0</ele><time>2026-04-06T08:30:09Z</time></trkpt><trkpt lat="45.9320774416157" lon="11.24204388229551"><ele>984.0</ele><time>2026-04-06T08:30:10Z</time></trkpt><trkpt lat="45.93196156390594" lon="11.242184772402332"><ele>984.0</ele><time>2026-04-06T08:30:11Z</time></trkpt><trkpt lat="45.931867628546655" lon="11.242356158007908"><ele>984.0</ele><time>2026-04-06T08:30:12Z</time></trkpt><trkpt lat="45.93178866687993" lon="11.242553998550003"><ele>983.0</ele><time>2026-04-06T08:30:13Z</time></trkpt><trkpt lat="45.93173781189932" lon="11.242768993772636"><ele>982.0</ele><time>2026-04-06T08:30:14Z</time></trkpt><trkpt lat="45.93170905858412" lon="11.242993049674325"><ele>981.0</ele><time>2026-04-06T08:30:15Z</time></trkpt><trkpt lat="45.93171024409593" lon="11.243212091430342"><ele>989.5</ele><time>2026-04-06T08:30:16Z</time></trkpt><trkpt lat="45.931734605631505" lon="11.243418291516896"><ele>998.0</ele><time>2026-04-06T08:30:17Z</time></trkpt><trkpt lat="45.93177954905146" lon="11.243604351178897"><ele>1006.5</ele><time>2026-04-06T08:30:18Z</time></trkpt><trkpt lat="45.931784058427134" lon="11.243778181830136"><ele>1015.0</ele><time>2026-04-06T08:30:19Z</time></trkpt><trkpt lat="45.931755068135764" lon="11.243944184471857"><ele>1010.25</ele><time>2026-04-06T08:30:20Z</time></trkpt><trkpt lat="45.93168853229147" lon="11.244097483500871"><ele>1005.5</ele><time>2026-04-06T08:30:21Z</time></trkpt><trkpt lat="45.93160498348591" lon="11.24424609644028"><ele>1000.75</ele><time>2026-04-06T08:30:22Z</time></trkpt><trkpt lat="45.93149484085247" lon="11.244370192219279"><ele>996.0</ele><time>2026-04-06T08:30:23Z</time></trkpt><trkpt lat="45.93138463774942" lon="11.244494751946302"><ele>996.0</ele><time>2026-04-06T08:30:24Z</time></trkpt><trkpt lat="45.93129164164488" lon="11.244616990671002"><ele>996.0</ele><time>2026-04-06T08:30:25Z</time></trkpt><trkpt lat="45.93122369973959" lon="11.244709694472593"><ele>996.0</ele><time>2026-04-06T08:30:26Z</time></trkpt><trkpt lat="45.93118203451659" lon="11.244794880205227"><ele>996.0</ele><time>2026-04-06T08:30:27Z</time></trkpt><trkpt lat="45.931180223624665" lon="11.244888812886845"><ele>996.0</ele><time>2026-04-06T08:30:28Z</time></trkpt><trkpt lat="45.931218516801344" lon="11.244977057502908"><ele>996.0</ele><time>2026-04-06T08:30:29Z</time></trkpt><trkpt lat="45.93129239361302" lon="11.245024368514969"><ele>996.0</ele><time>2026-04-06T08:30:30Z</time></trkpt><trkpt lat="45.931374637679305" lon="11.24502212291186"><ele>995.9999999999999</ele><time>2026-04-06T08:30:31Z</time></trkpt><trkpt lat="45.931439556008996" lon="11.244917494838772"><ele>995.9999999999999</ele><time>2026-04-06T08:30:32Z</time></trkpt><trkpt lat="45.93148749150995" lon="11.244797419382405"><ele>996.0</ele><time>2026-04-06T08:30:33Z</time></trkpt><trkpt lat="45.93153392170124" lon="11.244652024490234"><ele>996.0</ele><time>2026-04-06T08:30:34Z</time></trkpt><trkpt lat="45.93159799228426" lon="11.244502859709112"><ele>996.0</ele><time>2026-04-06T08:30:35Z</time></trkpt><trkpt lat="45.9317007774222" lon="11.244380741741761"><ele>996.0</ele><time>2026-04-06T08:30:36Z</time></trkpt><trkpt lat="45.931806539828656" lon="11.24425040730452"><ele>996.0</ele><time>2026-04-06T08:30:37Z</time></trkpt><trkpt lat="45.931917126488536" lon="11.24411591123122"><ele>996.0</ele><time>2026-04-06T08:30:38Z</time></trkpt><trkpt lat="45.932017280126345" lon="11.243963585841827"><ele>1002.3333333333333</ele><time>2026-04-06T08:30:39Z</time></trkpt><trkpt lat="45.93213063042277" lon="11.243825920584603"><ele>1008.6666666666666</ele><time>2026-04-06T08:30:40Z</time></trkpt><trkpt lat="45.932256106105186" lon="11.243701139587758"><ele>1015.0</ele><time>2026-04-06T08:30:41Z</time></trkpt><trkpt lat="45.932359870503724" lon="11.2435445943454"><ele>1015.0</ele><time>2026-04-06T08:30:42Z</time></trkpt><trkpt lat="45.93248640730767" lon="11.243427186814968"><ele>1015.0</ele><time>2026-04-06T08:30:43Z</time></trkpt><trkpt lat="45.932604439507976" lon="11.243298542584698"><ele>1015.0</ele><time>2026-04-06T08:30:44Z</time></trkpt><trkpt lat="45.93272879266884" lon="11.24317522854419"><ele>1019.3333333333333</ele><time>2026-04-06T08:30:45Z</time></trkpt><trkpt lat="45.93286409400235" lon="11.243050607436858"><ele>1023.6666666666667</ele><time>2026-04-06T08:30:46Z</time></trkpt><trkpt lat="45.932998852476835" lon="11.242919264276225"><ele>1028.0</ele><time>2026-04-06T08:30:47Z</time></trkpt><trkpt lat="45.93313139950633" lon="11.242777981661105"><ele>1028.0</ele><time>2026-04-06T08:30:48Z</time></trkpt><trkpt lat="45.93325077704432" lon="11.242606080030924"><ele>1028.0</ele><time>2026-04-06T08:30:49Z</time></trkpt><trkpt lat="45.9333598017838" lon="11.242434343931608"><ele>1028.0</ele><time>2026-04-06T08:30:50Z</time></trkpt><trkpt lat="45.933470962502774" lon="11.24226436016226"><ele>1028.5</ele><time>2026-04-06T08:30:51Z</time></trkpt><trkpt lat="45.93357692412086" lon="11.242094251841186"><ele>1029.0</ele><time>2026-04-06T08:30:52Z</time></trkpt><trkpt lat="45.93367658307113" lon="11.241941784631525"><ele>1029.5</ele><time>2026-04-06T08:30:53Z</time></trkpt><trkpt lat="45.93378628587929" lon="11.241817934379858"><ele>1030.0</ele><time>2026-04-06T08:30:54Z</time></trkpt><trkpt lat="45.933907600985805" lon="11.241725941647395"><ele>1030.0</ele><time>2026-04-06T08:30:55Z</time></trkpt><trkpt lat="45.934028226049094" lon="11.24163364400615"><ele>1030.0</ele><time>2026-04-06T08:30:56Z</time></trkpt><trkpt lat="45.93414593519402" lon="11.241543577576865"><ele>1030.0</ele><time>2026-04-06T08:30:57Z</time></trkpt><trkpt lat="45.934256100259276" lon="11.241449731727462"><ele>1030.0</ele><time>2026-04-06T08:30:58Z</time></trkpt><trkpt lat="45.934347200372635" lon="11.241304881593612"><ele>1031.25</ele><time>2026-04-06T08:30:59Z</time></trkpt><trkpt lat="45.93441470708927" lon="11.241124645033144"><ele>1032.5</ele><time>2026-04-06T08:31:00Z</time></trkpt><trkpt lat="45.93446408978099" lon="11.240924086732552"><ele>1033.75</ele><time>2026-04-06T08:31:01Z</time></trkpt><trkpt lat="45.93451940164447" lon="11.240727358685957"><ele>1035.0</ele><time>2026-04-06T08:31:02Z</time></trkpt><trkpt lat="45.93459663039763" lon="11.240542834135939"><ele>1035.0</ele><time>2026-04-06T08:31:03Z</time></trkpt><trkpt lat="45.93469397497016" lon="11.240360980258567"><ele>1035.0</ele><time>2026-04-06T08:31:04Z</time></trkpt><trkpt lat="45.93479317017726" lon="11.2401816410066"><ele>1035.0</ele><time>2026-04-06T08:31:05Z</time></trkpt><trkpt lat="45.9348968660029" lon="11.24000230109114"><ele>1035.0</ele><time>2026-04-06T08:31:06Z</time></trkpt><trkpt lat="45.93500851461652" lon="11.239829098181382"><ele>1035.0</ele><time>2026-04-06T08:31:07Z</time></trkpt><trkpt lat="45.93512899170603" lon="11.239661930589952"><ele>1035.0</ele><time>2026-04-06T08:31:08Z</time></trkpt><trkpt lat="45.93525081703324" lon="11.23949756775001"><ele>1039.0</ele><time>2026-04-06T08:31:09Z</time></trkpt><trkpt lat="45.935373617063696" lon="11.239326633640967"><ele>1043.0</ele><time>2026-04-06T08:31:10Z</time></trkpt><trkpt lat="45.935496445278126" lon="11.23915709944283"><ele>1047.0</ele><time>2026-04-06T08:31:11Z</time></trkpt><trkpt lat="45.93562164016119" lon="11.238987260343631"><ele>1055.0</ele><time>2026-04-06T08:31:12Z</time></trkpt><trkpt lat="45.93574701591602" lon="11.238817200194546"><ele>1063.0</ele><time>2026-04-06T08:31:13Z</time></trkpt><trkpt lat="45.93587072965014" lon="11.238646892079117"><ele>1071.0</ele><time>2026-04-06T08:31:14Z</time></trkpt><trkpt lat="45.93599675189849" lon="11.238474509486958"><ele>1071.0</ele><time>2026-04-06T08:31:15Z</time></trkpt><trkpt lat="45.936118762542094" lon="11.238307520900818"><ele>1071.0</ele><time>2026-04-06T08:31:16Z</time></trkpt><trkpt lat="45.936238090174776" lon="11.238139339232998"><ele>1071.0</ele><time>2026-04-06T08:31:17Z</time></trkpt><trkpt lat="45.9363448206105" lon="11.237959481345035"><ele>1063.3333333333333</ele><time>2026-04-06T08:31:18Z</time></trkpt><trkpt lat="45.936415316566645" lon="11.237737570321066"><ele>1055.6666666666665</ele><time>2026-04-06T08:31:19Z</time></trkpt><trkpt lat="45.93648635034895" lon="11.237518428911722"><ele>1048.0</ele><time>2026-04-06T08:31:20Z</time></trkpt><trkpt lat="45.93656731720767" lon="11.237309748529954"><ele>1046.75</ele><time>2026-04-06T08:31:21Z</time></trkpt><trkpt lat="45.93662794530265" lon="11.23710087145272"><ele>1045.5</ele><time>2026-04-06T08:31:22Z</time></trkpt><trkpt lat="45.936663630689836" lon="11.236896726665256"><ele>1044.25</ele><time>2026-04-06T08:31:23Z</time></trkpt><trkpt lat="45.936678472125" lon="11.23669811261413"><ele>1043.0</ele><time>2026-04-06T08:31:24Z</time></trkpt><trkpt lat="45.936658588988344" lon="11.236493792129851"><ele>1044.0</ele><time>2026-04-06T08:31:25Z</time></trkpt><trkpt lat="45.936632869721194" lon="11.236270309126269"><ele>1045.0</ele><time>2026-04-06T08:31:26Z</time></trkpt><trkpt lat="45.93660562812259" lon="11.236037275788744"><ele>1046.0</ele><time>2026-04-06T08:31:27Z</time></trkpt><trkpt lat="45.93658228121198" lon="11.235798645911261"><ele>1048.3333333333335</ele><time>2026-04-06T08:31:28Z</time></trkpt><trkpt lat="45.93657242321185" lon="11.235557330582417"><ele>1050.6666666666667</ele><time>2026-04-06T08:31:29Z</time></trkpt><trkpt lat="45.936571125829516" lon="11.235309442512198"><ele>1053.0</ele><time>2026-04-06T08:31:30Z</time></trkpt><trkpt lat="45.93656946794159" lon="11.235055830608399"><ele>1054.6666666666667</ele><time>2026-04-06T08:31:31Z</time></trkpt><trkpt lat="45.936567123740346" lon="11.234800625462084"><ele>1056.3333333333335</ele><time>2026-04-06T08:31:32Z</time></trkpt><trkpt lat="45.93656492347145" lon="11.234549716715938"><ele>1058.0</ele><time>2026-04-06T08:31:33Z</time></trkpt><trkpt lat="45.93655987939859" lon="11.234310934060781"><ele>1058.0</ele><time>2026-04-06T08:31:34Z</time></trkpt><trkpt lat="45.936545349590475" lon="11.234080500513377"><ele>1058.0</ele><time>2026-04-06T08:31:35Z</time></trkpt><trkpt lat="45.93648829247876" lon="11.233865971475568"><ele>1058.0</ele><time>2026-04-06T08:31:36Z</time></trkpt><trkpt lat="45.93641709574606" lon="11.23364746681813"><ele>1064.0</ele><time>2026-04-06T08:31:37Z</time></trkpt><trkpt lat="45.93633029045732" lon="11.233437108218803"><ele>1070.0</ele><time>2026-04-06T08:31:38Z</time></trkpt><trkpt lat="45.93625866797717" lon="11.23321112696871"><ele>1076.0</ele><time>2026-04-06T08:31:39Z</time></trkpt><trkpt lat="45.93617564139621" lon="11.232992564008006"><ele>1067.3333333333335</ele><time>2026-04-06T08:31:40Z</time></trkpt><trkpt lat="45.936074015576324" lon="11.23279117892228"><ele>1058.6666666666667</ele><time>2026-04-06T08:31:41Z</time></trkpt><trkpt lat="45.93597901330194" lon="11.23259070042606"><ele>1050.0</ele><time>2026-04-06T08:31:42Z</time></trkpt><trkpt lat="45.93586356836559" lon="11.2324059250142"><ele>1065.6666666666667</ele><time>2026-04-06T08:31:43Z</time></trkpt><trkpt lat="45.93573348797675" lon="11.232237240840519"><ele>1081.3333333333335</ele><time>2026-04-06T08:31:44Z</time></trkpt><trkpt lat="45.93559947293025" lon="11.232074176291464"><ele>1097.0</ele><time>2026-04-06T08:31:45Z</time></trkpt><trkpt lat="45.93546449436901" lon="11.23190884589714"><ele>1097.0</ele><time>2026-04-06T08:31:46Z</time></trkpt><trkpt lat="45.93533458474104" lon="11.231739918974908"><ele>1097.0</ele><time>2026-04-06T08:31:47Z</time></trkpt><trkpt lat="45.93520291581712" lon="11.231573380000032"><ele>1097.0</ele><time>2026-04-06T08:31:48Z</time></trkpt><trkpt lat="45.93507844217425" lon="11.231409252916542"><ele>1092.75</ele><time>2026-04-06T08:31:49Z</time></trkpt><trkpt lat="45.93495586062944" lon="11.231251851133834"><ele>1088.5</ele><time>2026-04-06T08:31:50Z</time></trkpt><trkpt lat="45.9348436293873" lon="11.23110922349296"><ele>1084.25</ele><time>2026-04-06T08:31:51Z</time></trkpt><trkpt lat="45.93474184563022" lon="11.230984442523384"><ele>1080.0</ele><time>2026-04-06T08:31:52Z</time></trkpt><trkpt lat="45.934634214601644" lon="11.230893744237472"><ele>1080.0</ele><time>2026-04-06T08:31:53Z</time></trkpt><trkpt lat="45.93451026991858" lon="11.230838470034742"><ele>1080.0</ele><time>2026-04-06T08:31:54Z</time></trkpt><trkpt lat="45.93437670499833" lon="11.230826032294626"><ele>1080.0</ele><time>2026-04-06T08:31:55Z</time></trkpt><trkpt lat="45.934253572761186" lon="11.230794035495988"><ele>1080.0</ele><time>2026-04-06T08:31:56Z</time></trkpt><trkpt lat="45.93414565104696" lon="11.23074880847866"><ele>1076.75</ele><time>2026-04-06T08:31:57Z</time></trkpt><trkpt lat="45.934048400791546" lon="11.230688964911137"><ele>1073.5</ele><time>2026-04-06T08:31:58Z</time></trkpt><trkpt lat="45.93396801891984" lon="11.23056511034516"><ele>1070.25</ele><time>2026-04-06T08:31:59Z</time></trkpt><trkpt lat="45.9339045281537" lon="11.230419933548935"><ele>1067.0</ele><time>2026-04-06T08:32:00Z</time></trkpt><trkpt lat="45.933888078659585" lon="11.230244640758844"><ele>1067.0</ele><time>2026-04-06T08:32:01Z</time></trkpt><trkpt lat="45.93387228418907" lon="11.23008313896683"><ele>1067.0</ele><time>2026-04-06T08:32:02Z</time></trkpt><trkpt lat="45.93391602852554" lon="11.22990541250095"><ele>1067.0</ele><time>2026-04-06T08:32:03Z</time></trkpt><trkpt lat="45.933950887523146" lon="11.229730664502926"><ele>1067.0</ele><time>2026-04-06T08:32:04Z</time></trkpt><trkpt lat="45.93399206039815" lon="11.229545978947952"><ele>1067.0</ele><time>2026-04-06T08:32:05Z</time></trkpt><trkpt lat="45.934033262944816" lon="11.229355861394815"><ele>1067.0</ele><time>2026-04-06T08:32:06Z</time></trkpt><trkpt lat="45.93407142964524" lon="11.229161835864597"><ele>1067.0</ele><time>2026-04-06T08:32:07Z</time></trkpt><trkpt lat="45.93411106656422" lon="11.228973466225352"><ele>1067.0</ele><time>2026-04-06T08:32:08Z</time></trkpt><trkpt lat="45.9341507074179" lon="11.22878768388661"><ele>1067.25</ele><time>2026-04-06T08:32:09Z</time></trkpt><trkpt lat="45.934187670228134" lon="11.228605082528844"><ele>1067.5</ele><time>2026-04-06T08:32:10Z</time></trkpt><trkpt lat="45.93422379955771" lon="11.228432124594372"><ele>1067.75</ele><time>2026-04-06T08:32:11Z</time></trkpt><trkpt lat="45.934267640393905" lon="11.228278343758063"><ele>1068.0</ele><time>2026-04-06T08:32:12Z</time></trkpt><trkpt lat="45.93433313586808" lon="11.228148842506348"><ele>1068.8</ele><time>2026-04-06T08:32:13Z</time></trkpt><trkpt lat="45.93441881869161" lon="11.228052679709632"><ele>1069.6</ele><time>2026-04-06T08:32:14Z</time></trkpt><trkpt lat="45.93451351295216" lon="11.22797569796695"><ele>1070.4</ele><time>2026-04-06T08:32:15Z</time></trkpt><trkpt lat="45.93461622278346" lon="11.227903787423765"><ele>1071.2</ele><time>2026-04-06T08:32:16Z</time></trkpt><trkpt lat="45.93471185565058" lon="11.227813643954867"><ele>1072.0</ele><time>2026-04-06T08:32:17Z</time></trkpt><trkpt lat="45.93479749273482" lon="11.227729504111812"><ele>1072.0</ele><time>2026-04-06T08:32:18Z</time></trkpt><trkpt lat="45.9348607622292" lon="11.227630673039522"><ele>1072.0</ele><time>2026-04-06T08:32:19Z</time></trkpt><trkpt lat="45.93492558263632" lon="11.227515794527749"><ele>1072.0</ele><time>2026-04-06T08:32:20Z</time></trkpt><trkpt lat="45.93494121582503" lon="11.22735390926071"><ele>1072.0</ele><time>2026-04-06T08:32:21Z</time></trkpt><trkpt lat="45.9349688015523" lon="11.227201301567197"><ele>1072.0</ele><time>2026-04-06T08:32:22Z</time></trkpt><trkpt lat="45.93499287130844" lon="11.227062585326623"><ele>1072.2</ele><time>2026-04-06T08:32:23Z</time></trkpt><trkpt lat="45.935011592125186" lon="11.226968962063845"><ele>1072.4</ele><time>2026-04-06T08:32:24Z</time></trkpt><trkpt lat="45.93503418012068" lon="11.22687522188511"><ele>1072.6</ele><time>2026-04-06T08:32:27Z</time></trkpt><trkpt lat="45.935057688199116" lon="11.22676101979106"><ele>1072.8</ele><time>2026-04-06T08:32:33Z</time></trkpt><trkpt lat="45.93483890148841" lon="11.226687430817764"><ele>1073.0</ele><time>2026-04-06T08:32:35Z</time></trkpt><trkpt lat="45.9347443079174" lon="11.226663166029883"><ele>1073.0</ele><time>2026-04-06T08:32:36Z</time></trkpt><trkpt lat="45.934643581569304" lon="11.226634180981721"><ele>1073.0</ele><time>2026-04-06T08:32:37Z</time></trkpt><trkpt lat="45.934538897502165" lon="11.22660437265981"><ele>1073.0</ele><time>2026-04-06T08:32:38Z</time></trkpt><trkpt lat="45.934423564738964" lon="11.22656835066522"><ele>1073.0</ele><time>2026-04-06T08:32:39Z</time></trkpt><trkpt lat="45.934304674660574" lon="11.226515929112567"><ele>1074.0</ele><time>2026-04-06T08:32:40Z</time></trkpt><trkpt lat="45.93418213347873" lon="11.22644856908768"><ele>1075.0</ele><time>2026-04-06T08:32:41Z</time></trkpt><trkpt lat="45.934056384844105" lon="11.226377997758863"><ele>1076.0</ele><time>2026-04-06T08:32:42Z</time></trkpt><trkpt lat="45.93393444399567" lon="11.226301124119413"><ele>1077.0</ele><time>2026-04-06T08:32:43Z</time></trkpt><trkpt lat="45.93381386549207" lon="11.22623415379095"><ele>1077.0</ele><time>2026-04-06T08:32:44Z</time></trkpt><trkpt lat="45.933688822257416" lon="11.226188506239179"><ele>1077.0</ele><time>2026-04-06T08:32:45Z</time></trkpt><trkpt lat="45.93355879935711" lon="11.226160672432618"><ele>1077.0</ele><time>2026-04-06T08:32:46Z</time></trkpt><trkpt lat="45.93343140702868" lon="11.22612697741655"><ele>1077.0</ele><time>2026-04-06T08:32:47Z</time></trkpt><trkpt lat="45.93331971583438" lon="11.226062065658338"><ele>1078.5</ele><time>2026-04-06T08:32:48Z</time></trkpt><trkpt lat="45.93322987570697" lon="11.225967772644392"><ele>1080.0</ele><time>2026-04-06T08:32:49Z</time></trkpt><trkpt lat="45.93316791579877" lon="11.22583092352256"><ele>1081.5</ele><time>2026-04-06T08:32:50Z</time></trkpt><trkpt lat="45.93312496106154" lon="11.225667259711294"><ele>1083.0</ele><time>2026-04-06T08:32:51Z</time></trkpt><trkpt lat="45.933076843093225" lon="11.225500748873733"><ele>1083.0</ele><time>2026-04-06T08:32:52Z</time></trkpt><trkpt lat="45.93302808400496" lon="11.22533918995272"><ele>1083.0</ele><time>2026-04-06T08:32:53Z</time></trkpt><trkpt lat="45.9329844718442" lon="11.225191433535363"><ele>1083.0</ele><time>2026-04-06T08:32:54Z</time></trkpt><trkpt lat="45.93293244274773" lon="11.225079042870046"><ele>1083.0</ele><time>2026-04-06T08:32:55Z</time></trkpt><trkpt lat="45.93285285147883" lon="11.225007967918389"><ele>1083.0</ele><time>2026-04-06T08:32:56Z</time></trkpt><trkpt lat="45.93275093290139" lon="11.224970309157007"><ele>1083.0</ele><time>2026-04-06T08:32:57Z</time></trkpt><trkpt lat="45.932639799268365" lon="11.224935242739459"><ele>1083.0</ele><time>2026-04-06T08:32:58Z</time></trkpt><trkpt lat="45.93252368435634" lon="11.224895622036245"><ele>1083.0</ele><time>2026-04-06T08:32:59Z</time></trkpt><trkpt lat="45.93240665787267" lon="11.22485078283868"><ele>1083.0</ele><time>2026-04-06T08:33:00Z</time></trkpt><trkpt lat="45.93229547879271" lon="11.224800404160257"><ele>1085.4</ele><time>2026-04-06T08:33:01Z</time></trkpt><trkpt lat="45.932197698800856" lon="11.224768022066051"><ele>1087.8</ele><time>2026-04-06T08:33:02Z</time></trkpt><trkpt lat="45.93212149034445" lon="11.224786798067932"><ele>1090.2</ele><time>2026-04-06T08:33:03Z</time></trkpt><trkpt lat="45.93205972747399" lon="11.224861827123446"><ele>1092.6</ele><time>2026-04-06T08:33:04Z</time></trkpt><trkpt lat="45.932022121852015" lon="11.224978700129377"><ele>1095.0</ele><time>2026-04-06T08:33:05Z</time></trkpt><trkpt lat="45.932012039032124" lon="11.22512618834704"><ele>1095.0</ele><time>2026-04-06T08:33:06Z</time></trkpt><trkpt lat="45.93200741235032" lon="11.225281634385665"><ele>1095.0</ele><time>2026-04-06T08:33:07Z</time></trkpt><trkpt lat="45.93198870675906" lon="11.225444627689985"><ele>1095.0</ele><time>2026-04-06T08:33:08Z</time></trkpt><trkpt lat="45.931955100238966" lon="11.225604524859474"><ele>1095.0</ele><time>2026-04-06T08:33:09Z</time></trkpt><trkpt lat="45.93192185431669" lon="11.225761264436745"><ele>1094.1666666666667</ele><time>2026-04-06T08:33:10Z</time></trkpt><trkpt lat="45.93187221882198" lon="11.225887384371877"><ele>1093.3333333333333</ele><time>2026-04-06T08:33:11Z</time></trkpt><trkpt lat="45.931846264791076" lon="11.225988645347519"><ele>1092.5</ele><time>2026-04-06T08:33:12Z</time></trkpt><trkpt lat="45.93178303929042" lon="11.226034093029533"><ele>1091.6666666666665</ele><time>2026-04-06T08:33:13Z</time></trkpt><trkpt lat="45.9317085245013" lon="11.226025701390931"><ele>1090.8333333333333</ele><time>2026-04-06T08:33:14Z</time></trkpt><trkpt lat="45.93163710179949" lon="11.22595681914088"><ele>1090.0</ele><time>2026-04-06T08:33:15Z</time></trkpt><trkpt lat="45.93159170809478" lon="11.225850761344995"><ele>1094.0</ele><time>2026-04-06T08:33:16Z</time></trkpt><trkpt lat="45.93161745841465" lon="11.225704515414245"><ele>1098.0</ele><time>2026-04-06T08:33:17Z</time></trkpt><trkpt lat="45.93158907954427" lon="11.225578565993107"><ele>1102.0</ele><time>2026-04-06T08:33:18Z</time></trkpt><trkpt lat="45.931576201061944" lon="11.225440793752364"><ele>1106.0</ele><time>2026-04-06T08:33:19Z</time></trkpt><trkpt lat="45.93152578732549" lon="11.225304120230243"><ele>1110.0</ele><time>2026-04-06T08:33:20Z</time></trkpt><trkpt lat="45.931454577990074" lon="11.225180980449945"><ele>1110.0</ele><time>2026-04-06T08:33:21Z</time></trkpt><trkpt lat="45.931357969517556" lon="11.225076850108685"><ele>1110.0</ele><time>2026-04-06T08:33:22Z</time></trkpt><trkpt lat="45.93126216260412" lon="11.224969886136927"><ele>1110.0</ele><time>2026-04-06T08:33:23Z</time></trkpt><trkpt lat="45.93116796091839" lon="11.224858371582956"><ele>1110.0</ele><time>2026-04-06T08:33:24Z</time></trkpt><trkpt lat="45.93107033751365" lon="11.224756190182093"><ele>1112.25</ele><time>2026-04-06T08:33:25Z</time></trkpt><trkpt lat="45.9309665003072" lon="11.224688450684495"><ele>1114.5</ele><time>2026-04-06T08:33:26Z</time></trkpt><trkpt lat="45.930850006486956" lon="11.224667447419067"><ele>1116.75</ele><time>2026-04-06T08:33:27Z</time></trkpt><trkpt lat="45.930730664656835" lon="11.224672136359818"><ele>1119.0</ele><time>2026-04-06T08:33:28Z</time></trkpt><trkpt lat="45.930612497558144" lon="11.224673002239065"><ele>1121.0</ele><time>2026-04-06T08:33:29Z</time></trkpt><trkpt lat="45.93052507697795" lon="11.224652233449556"><ele>1123.0</ele><time>2026-04-06T08:33:30Z</time></trkpt><trkpt lat="45.93046456108216" lon="11.224599835398312"><ele>1125.0</ele><time>2026-04-06T08:33:31Z</time></trkpt><trkpt lat="45.93042809941762" lon="11.224505432192743"><ele>1127.0</ele><time>2026-04-06T08:33:32Z</time></trkpt><trkpt lat="45.93042037548263" lon="11.224391982976073"><ele>1129.0</ele><time>2026-04-06T08:33:33Z</time></trkpt><trkpt lat="45.93045404746024" lon="11.224281170300396"><ele>1131.0</ele><time>2026-04-06T08:33:34Z</time></trkpt><trkpt lat="45.930529735680565" lon="11.224196545704405"><ele>1131.0</ele><time>2026-04-06T08:33:35Z</time></trkpt><trkpt lat="45.93062498832833" lon="11.224141110565231"><ele>1131.0</ele><time>2026-04-06T08:33:36Z</time></trkpt><trkpt lat="45.93073222360209" lon="11.22409657266525"><ele>1131.0</ele><time>2026-04-06T08:33:37Z</time></trkpt><trkpt lat="45.930841804176076" lon="11.224034957715025"><ele>1131.0</ele><time>2026-04-06T08:33:38Z</time></trkpt><trkpt lat="45.930954440606754" lon="11.223962090664468"><ele>1131.8</ele><time>2026-04-06T08:33:39Z</time></trkpt><trkpt lat="45.93106849148808" lon="11.223892122597038"><ele>1132.6</ele><time>2026-04-06T08:33:40Z</time></trkpt><trkpt lat="45.93115938180799" lon="11.223829832278573"><ele>1133.4</ele><time>2026-04-06T08:33:41Z</time></trkpt><trkpt lat="45.93123424148492" lon="11.223767141793918"><ele>1134.2</ele><time>2026-04-06T08:33:42Z</time></trkpt><trkpt lat="45.931285683737634" lon="11.223687902520295"><ele>1135.0</ele><time>2026-04-06T08:33:43Z</time></trkpt><trkpt lat="45.93129834881045" lon="11.223585847245175"><ele>1135.0</ele><time>2026-04-06T08:33:44Z</time></trkpt><trkpt lat="45.93128064347138" lon="11.223484987012906"><ele>1135.0</ele><time>2026-04-06T08:33:45Z</time></trkpt><trkpt lat="45.931221298463406" lon="11.223409328359683"><ele>1135.0</ele><time>2026-04-06T08:33:46Z</time></trkpt><trkpt lat="45.931142908814145" lon="11.223378762118477"><ele>1135.0</ele><time>2026-04-06T08:33:47Z</time></trkpt><trkpt lat="45.93104395578457" lon="11.223394286724192"><ele>1135.0</ele><time>2026-04-06T08:33:48Z</time></trkpt><trkpt lat="45.93093722558864" lon="11.223430094223861"><ele>1135.0</ele><time>2026-04-06T08:33:49Z</time></trkpt><trkpt lat="45.93082324803926" lon="11.22346413314191"><ele>1137.4</ele><time>2026-04-06T08:33:50Z</time></trkpt><trkpt lat="45.93070572210381" lon="11.223495003678517"><ele>1139.8</ele><time>2026-04-06T08:33:51Z</time></trkpt><trkpt lat="45.930592289154106" lon="11.223531417858823"><ele>1142.2</ele><time>2026-04-06T08:33:52Z</time></trkpt><trkpt lat="45.93048636340177" lon="11.223550638757027"><ele>1144.6</ele><time>2026-04-06T08:33:53Z</time></trkpt><trkpt lat="45.930384780770275" lon="11.223519670149601"><ele>1147.0</ele><time>2026-04-06T08:33:54Z</time></trkpt><trkpt lat="45.93029544115239" lon="11.223446930299259"><ele>1147.0</ele><time>2026-04-06T08:33:55Z</time></trkpt><trkpt lat="45.930228743014254" lon="11.223330750314148"><ele>1147.0</ele><time>2026-04-06T08:33:56Z</time></trkpt><trkpt lat="45.930171759014186" lon="11.223193661946807"><ele>1147.0</ele><time>2026-04-06T08:33:57Z</time></trkpt><trkpt lat="45.930114774553445" lon="11.223039609790938"><ele>1147.0</ele><time>2026-04-06T08:33:58Z</time></trkpt><trkpt lat="45.93007024011145" lon="11.222870513303286"><ele>1148.5</ele><time>2026-04-06T08:33:59Z</time></trkpt><trkpt lat="45.93001075084949" lon="11.222707832150668"><ele>1150.0</ele><time>2026-04-06T08:34:00Z</time></trkpt><trkpt lat="45.929949481700085" lon="11.222540283740084"><ele>1151.5</ele><time>2026-04-06T08:34:01Z</time></trkpt><trkpt lat="45.92987268925941" lon="11.2223714626595"><ele>1153.0</ele><time>2026-04-06T08:34:02Z</time></trkpt><trkpt lat="45.929807567992356" lon="11.222188999255701"><ele>1155.25</ele><time>2026-04-06T08:34:03Z</time></trkpt><trkpt lat="45.92974025633178" lon="11.222007014250204"><ele>1157.5</ele><time>2026-04-06T08:34:04Z</time></trkpt><trkpt lat="45.92967519852718" lon="11.221826249749142"><ele>1159.75</ele><time>2026-04-06T08:34:05Z</time></trkpt><trkpt lat="45.929612993506375" lon="11.221654764401421"><ele>1162.0</ele><time>2026-04-06T08:34:06Z</time></trkpt><trkpt lat="45.929542704850554" lon="11.22150276256203"><ele>1164.75</ele><time>2026-04-06T08:34:07Z</time></trkpt><trkpt lat="45.92946673519843" lon="11.22134751215728"><ele>1167.5</ele><time>2026-04-06T08:34:08Z</time></trkpt><trkpt lat="45.929350862619096" lon="11.221230299715128"><ele>1170.25</ele><time>2026-04-06T08:34:09Z</time></trkpt><trkpt lat="45.92924073019931" lon="11.221087526567477"><ele>1173.0</ele><time>2026-04-06T08:34:10Z</time></trkpt><trkpt lat="45.92913170162623" lon="11.220979018583531"><ele>1173.0</ele><time>2026-04-06T08:34:11Z</time></trkpt><trkpt lat="45.92900520942589" lon="11.2208752447081"><ele>1173.0</ele><time>2026-04-06T08:34:12Z</time></trkpt><trkpt lat="45.928874832905755" lon="11.220779363371705"><ele>1173.0</ele><time>2026-04-06T08:34:13Z</time></trkpt><trkpt lat="45.92874945142233" lon="11.220679000515666"><ele>1173.0</ele><time>2026-04-06T08:34:14Z</time></trkpt><trkpt lat="45.92864743297157" lon="11.220556040315836"><ele>1175.25</ele><time>2026-04-06T08:34:15Z</time></trkpt><trkpt lat="45.92856940008049" lon="11.220407449663453"><ele>1177.5</ele><time>2026-04-06T08:34:16Z</time></trkpt><trkpt lat="45.92850713504196" lon="11.220249227902126"><ele>1179.75</ele><time>2026-04-06T08:34:17Z</time></trkpt><trkpt lat="45.92844747123239" lon="11.220094914264221"><ele>1182.0</ele><time>2026-04-06T08:34:18Z</time></trkpt><trkpt lat="45.92837569459926" lon="11.219971455582426"><ele>1182.0</ele><time>2026-04-06T08:34:19Z</time></trkpt><trkpt lat="45.92827949991006" lon="11.219892262149191"><ele>1182.0</ele><time>2026-04-06T08:34:20Z</time></trkpt><trkpt lat="45.92816874235183" lon="11.21985534545049"><ele>1182.0</ele><time>2026-04-06T08:34:21Z</time></trkpt><trkpt lat="45.92804942564003" lon="11.219842155731804"><ele>1182.0</ele><time>2026-04-06T08:34:22Z</time></trkpt><trkpt lat="45.92792013589528" lon="11.219798878494172"><ele>1190.75</ele><time>2026-04-06T08:34:23Z</time></trkpt><trkpt lat="45.92778300247055" lon="11.219777926732494"><ele>1199.5</ele><time>2026-04-06T08:34:24Z</time></trkpt><trkpt lat="45.9276400417225" lon="11.219755371775225"><ele>1208.25</ele><time>2026-04-06T08:34:25Z</time></trkpt><trkpt lat="45.92749409345001" lon="11.219730888953794"><ele>1217.0</ele><time>2026-04-06T08:34:26Z</time></trkpt><trkpt lat="45.927346316469546" lon="11.219707937809591"><ele>1217.75</ele><time>2026-04-06T08:34:27Z</time></trkpt><trkpt lat="45.92720102733507" lon="11.219708806252331"><ele>1218.5</ele><time>2026-04-06T08:34:28Z</time></trkpt><trkpt lat="45.927061419677244" lon="11.219660894584983"><ele>1219.25</ele><time>2026-04-06T08:34:29Z</time></trkpt><trkpt lat="45.92693111392548" lon="11.219596003369094"><ele>1220.0</ele><time>2026-04-06T08:34:30Z</time></trkpt><trkpt lat="45.926812825519974" lon="11.219492915932697"><ele>1216.75</ele><time>2026-04-06T08:34:31Z</time></trkpt><trkpt lat="45.92668516134599" lon="11.219385265511065"><ele>1213.5</ele><time>2026-04-06T08:34:32Z</time></trkpt><trkpt lat="45.92656661627161" lon="11.219267341479421"><ele>1210.25</ele><time>2026-04-06T08:34:33Z</time></trkpt><trkpt lat="45.926454546985866" lon="11.21916368225439"><ele>1207.0</ele><time>2026-04-06T08:34:34Z</time></trkpt><trkpt lat="45.92635431987939" lon="11.219085211038333"><ele>1207.0</ele><time>2026-04-06T08:34:35Z</time></trkpt><trkpt lat="45.9262261117233" lon="11.21907335260819"><ele>1207.0</ele><time>2026-04-06T08:34:36Z</time></trkpt><trkpt lat="45.92609729387602" lon="11.219134997568442"><ele>1207.0</ele><time>2026-04-06T08:34:37Z</time></trkpt><trkpt lat="45.925966754710096" lon="11.219146177575507"><ele>1207.0</ele><time>2026-04-06T08:34:38Z</time></trkpt><trkpt lat="45.92583659358234" lon="11.219074493578217"><ele>1205.75</ele><time>2026-04-06T08:34:39Z</time></trkpt><trkpt lat="45.92569870077743" lon="11.219005888313967"><ele>1204.5</ele><time>2026-04-06T08:34:40Z</time></trkpt><trkpt lat="45.925555036221" lon="11.218954194637996"><ele>1203.25</ele><time>2026-04-06T08:34:41Z</time></trkpt><trkpt lat="45.9254180853727" lon="11.218868790909472"><ele>1202.0</ele><time>2026-04-06T08:34:42Z</time></trkpt><trkpt lat="45.92528416171912" lon="11.218773397071521"><ele>1205.5</ele><time>2026-04-06T08:34:43Z</time></trkpt><trkpt lat="45.925150600211566" lon="11.218669696411117"><ele>1209.0</ele><time>2026-04-06T08:34:44Z</time></trkpt><trkpt lat="45.925017394874445" lon="11.218570231445078"><ele>1212.5</ele><time>2026-04-06T08:34:45Z</time></trkpt><trkpt lat="45.92489452434162" lon="11.218479347727781"><ele>1216.0</ele><time>2026-04-06T08:34:46Z</time></trkpt><trkpt lat="45.9248034741326" lon="11.218373011599708"><ele>1216.0</ele><time>2026-04-06T08:34:47Z</time></trkpt><trkpt lat="45.92471736617673" lon="11.218293164561"><ele>1216.0</ele><time>2026-04-06T08:34:48Z</time></trkpt><trkpt lat="45.92466945011722" lon="11.218158141563483"><ele>1216.0</ele><time>2026-04-06T08:34:49Z</time></trkpt><trkpt lat="45.92465477976847" lon="11.217997881455108"><ele>1216.0</ele><time>2026-04-06T08:34:50Z</time></trkpt><trkpt lat="45.9246511607878" lon="11.2178314833537"><ele>1216.0</ele><time>2026-04-06T08:34:51Z</time></trkpt><trkpt lat="45.924625606073164" lon="11.217664366567037"><ele>1220.0</ele><time>2026-04-06T08:34:52Z</time></trkpt><trkpt lat="45.92456048707873" lon="11.217501896352584"><ele>1224.0</ele><time>2026-04-06T08:34:53Z</time></trkpt><trkpt lat="45.92448680826717" lon="11.217340137946065"><ele>1228.0</ele><time>2026-04-06T08:34:54Z</time></trkpt><trkpt lat="45.92441120670851" lon="11.217188286954979"><ele>1232.0</ele><time>2026-04-06T08:34:55Z</time></trkpt><trkpt lat="45.92433030345238" lon="11.217044081365147"><ele>1230.75</ele><time>2026-04-06T08:34:56Z</time></trkpt><trkpt lat="45.92424107495003" lon="11.216897173700957"><ele>1229.5</ele><time>2026-04-06T08:34:57Z</time></trkpt><trkpt lat="45.92411172929346" lon="11.216824250896106"><ele>1228.25</ele><time>2026-04-06T08:34:58Z</time></trkpt><trkpt lat="45.9239889554447" lon="11.216761969184004"><ele>1227.0</ele><time>2026-04-06T08:34:59Z</time></trkpt><trkpt lat="45.92387297025604" lon="11.216708235239057"><ele>1227.0</ele><time>2026-04-06T08:35:00Z</time></trkpt><trkpt lat="45.92378484364866" lon="11.216628955504147"><ele>1227.0</ele><time>2026-04-06T08:35:01Z</time></trkpt><trkpt lat="45.923714775343214" lon="11.216564730530399"><ele>1227.0</ele><time>2026-04-06T08:35:02Z</time></trkpt><trkpt lat="45.92364336908144" lon="11.216449014487722"><ele>1227.0</ele><time>2026-04-06T08:35:04Z</time></trkpt><trkpt lat="45.92370284836518" lon="11.216296735989886"><ele>1227.0</ele><time>2026-04-06T08:35:06Z</time></trkpt><trkpt lat="45.92377469874189" lon="11.21629543633456"><ele>1227.0</ele><time>2026-04-06T08:35:07Z</time></trkpt><trkpt lat="45.92383650664174" lon="11.216386714419459"><ele>1227.0</ele><time>2026-04-06T08:35:08Z</time></trkpt><trkpt lat="45.923907199074286" lon="11.216480056758583"><ele>1227.0</ele><time>2026-04-06T08:35:09Z</time></trkpt><trkpt lat="45.92400672571452" lon="11.216547073711245"><ele>1227.0</ele><time>2026-04-06T08:35:10Z</time></trkpt><trkpt lat="45.92412090801315" lon="11.21658766584172"><ele>1227.0</ele><time>2026-04-06T08:35:11Z</time></trkpt><trkpt lat="45.92424161981822" lon="11.216593672419737"><ele>1232.25</ele><time>2026-04-06T08:35:12Z</time></trkpt><trkpt lat="45.92435931506425" lon="11.216629458741684"><ele>1237.5</ele><time>2026-04-06T08:35:13Z</time></trkpt><trkpt lat="45.92447464839191" lon="11.216694010933505"><ele>1242.75</ele><time>2026-04-06T08:35:14Z</time></trkpt><trkpt lat="45.92458407164456" lon="11.216785330619476"><ele>1248.0</ele><time>2026-04-06T08:35:15Z</time></trkpt><trkpt lat="45.92469120380397" lon="11.216878353901185"><ele>1248.0</ele><time>2026-04-06T08:35:16Z</time></trkpt><trkpt lat="45.92479818037092" lon="11.216968379121996"><ele>1248.0</ele><time>2026-04-06T08:35:17Z</time></trkpt><trkpt lat="45.924902083583376" lon="11.21705997223813"><ele>1248.0</ele><time>2026-04-06T08:35:18Z</time></trkpt><trkpt lat="45.925000091473784" lon="11.217144708762042"><ele>1248.0</ele><time>2026-04-06T08:35:19Z</time></trkpt><trkpt lat="45.92508397031262" lon="11.217216697279337"><ele>1250.5</ele><time>2026-04-06T08:35:20Z</time></trkpt><trkpt lat="45.92515699929238" lon="11.21726657694185"><ele>1253.0</ele><time>2026-04-06T08:35:21Z</time></trkpt><trkpt lat="45.92522361145527" lon="11.21726982626085"><ele>1255.5</ele><time>2026-04-06T08:35:22Z</time></trkpt><trkpt lat="45.92530929255899" lon="11.217148159341336"><ele>1258.0</ele><time>2026-04-06T08:35:24Z</time></trkpt><trkpt lat="45.92532211934844" lon="11.217053296284787"><ele>1260.5</ele><time>2026-04-06T08:35:25Z</time></trkpt><trkpt lat="45.92527066659761" lon="11.216934011848151"><ele>1263.0</ele><time>2026-04-06T08:35:26Z</time></trkpt><trkpt lat="45.92518175543674" lon="11.216855035333149"><ele>1263.0</ele><time>2026-04-06T08:35:27Z</time></trkpt><trkpt lat="45.92508801500162" lon="11.216768681207466"><ele>1263.0</ele><time>2026-04-06T08:35:28Z</time></trkpt><trkpt lat="45.92498014726478" lon="11.216683538535994"><ele>1263.0</ele><time>2026-04-06T08:35:29Z</time></trkpt><trkpt lat="45.92487110719831" lon="11.216595317861504"><ele>1263.0</ele><time>2026-04-06T08:35:30Z</time></trkpt><trkpt lat="45.92476290105625" lon="11.216504008798688"><ele>1262.5</ele><time>2026-04-06T08:35:31Z</time></trkpt><trkpt lat="45.924663948452576" lon="11.216388050329176"><ele>1262.0</ele><time>2026-04-06T08:35:32Z</time></trkpt><trkpt lat="45.92458152480963" lon="11.216246099811453"><ele>1261.5</ele><time>2026-04-06T08:35:33Z</time></trkpt><trkpt lat="45.924518981144466" lon="11.21608101142767"><ele>1261.0</ele><time>2026-04-06T08:35:34Z</time></trkpt><trkpt lat="45.924482670457" lon="11.21589954233616"><ele>1261.0</ele><time>2026-04-06T08:35:35Z</time></trkpt><trkpt lat="45.924470642569624" lon="11.215710462650613"><ele>1261.0</ele><time>2026-04-06T08:35:36Z</time></trkpt><trkpt lat="45.924463225020624" lon="11.215517059455822"><ele>1261.0</ele><time>2026-04-06T08:35:37Z</time></trkpt><trkpt lat="45.9244570563229" lon="11.215321712549002"><ele>1261.0</ele><time>2026-04-06T08:35:38Z</time></trkpt><trkpt lat="45.924449527574936" lon="11.215122610377737"><ele>1262.5</ele><time>2026-04-06T08:35:39Z</time></trkpt><trkpt lat="45.92444068141195" lon="11.214924736298414"><ele>1264.0</ele><time>2026-04-06T08:35:40Z</time></trkpt><trkpt lat="45.92443255478566" lon="11.21472203540899"><ele>1265.5</ele><time>2026-04-06T08:35:41Z</time></trkpt><trkpt lat="45.924426031794276" lon="11.214517182683633"><ele>1267.0</ele><time>2026-04-06T08:35:42Z</time></trkpt><trkpt lat="45.9244186117855" lon="11.214312329707214"><ele>1270.0</ele><time>2026-04-06T08:35:43Z</time></trkpt><trkpt lat="45.92440737252643" lon="11.214100614051349"><ele>1273.0</ele><time>2026-04-06T08:35:44Z</time></trkpt><trkpt lat="45.924411546117724" lon="11.21387534387031"><ele>1276.0</ele><time>2026-04-06T08:35:45Z</time></trkpt><trkpt lat="45.924402785956886" lon="11.213647342710033"><ele>1279.3333333333333</ele><time>2026-04-06T08:35:46Z</time></trkpt><trkpt lat="45.92439366793184" lon="11.213410027538874"><ele>1282.6666666666667</ele><time>2026-04-06T08:35:47Z</time></trkpt><trkpt lat="45.92438441207215" lon="11.213169124807719"><ele>1286.0</ele><time>2026-04-06T08:35:48Z</time></trkpt><trkpt lat="45.92437499304662" lon="11.212923975395764"><ele>1286.6666666666667</ele><time>2026-04-06T08:35:49Z</time></trkpt><trkpt lat="45.92436539444472" lon="11.21267415217589"><ele>1287.3333333333333</ele><time>2026-04-06T08:35:50Z</time></trkpt><trkpt lat="45.92435563544643" lon="11.21242015436115"><ele>1288.0</ele><time>2026-04-06T08:35:51Z</time></trkpt><trkpt lat="45.92434578502016" lon="11.212163844063902"><ele>1290.3333333333333</ele><time>2026-04-06T08:35:52Z</time></trkpt><trkpt lat="45.924322730431165" lon="11.211906331611784"><ele>1292.6666666666667</ele><time>2026-04-06T08:35:53Z</time></trkpt><trkpt lat="45.92431582097955" lon="11.211647151305835"><ele>1295.0</ele><time>2026-04-06T08:35:54Z</time></trkpt><trkpt lat="45.92430739357069" lon="11.211388522039877"><ele>1295.6666666666667</ele><time>2026-04-06T08:35:55Z</time></trkpt><trkpt lat="45.924293970951936" lon="11.211134594597768"><ele>1296.3333333333333</ele><time>2026-04-06T08:35:56Z</time></trkpt><trkpt lat="45.92428233156249" lon="11.210877851312695"><ele>1297.0</ele><time>2026-04-06T08:35:57Z</time></trkpt><trkpt lat="45.92427341739028" lon="11.21062178474961"><ele>1298.6666666666665</ele><time>2026-04-06T08:35:58Z</time></trkpt><trkpt lat="45.924265680647956" lon="11.210377642270986"><ele>1300.3333333333333</ele><time>2026-04-06T08:35:59Z</time></trkpt><trkpt lat="45.92426972589945" lon="11.21015053249667"><ele>1302.0</ele><time>2026-04-06T08:36:00Z</time></trkpt><trkpt lat="45.924266689803005" lon="11.209948111563714"><ele>1303.75</ele><time>2026-04-06T08:36:01Z</time></trkpt><trkpt lat="45.92429070940733" lon="11.209767868656117"><ele>1305.5</ele><time>2026-04-06T08:36:02Z</time></trkpt><trkpt lat="45.92435255660427" lon="11.209611309604776"><ele>1307.25</ele><time>2026-04-06T08:36:03Z</time></trkpt><trkpt lat="45.924434590844704" lon="11.209475347092436"><ele>1309.0</ele><time>2026-04-06T08:36:04Z</time></trkpt><trkpt lat="45.92453776410721" lon="11.209367104625269"><ele>1309.0</ele><time>2026-04-06T08:36:05Z</time></trkpt><trkpt lat="45.9246412408746" lon="11.20925579669212"><ele>1309.0</ele><time>2026-04-06T08:36:06Z</time></trkpt><trkpt lat="45.92473747461216" lon="11.209174397752756"><ele>1309.0</ele><time>2026-04-06T08:36:07Z</time></trkpt><trkpt lat="45.924819562474894" lon="11.209078615096168"><ele>1309.0</ele><time>2026-04-06T08:36:08Z</time></trkpt><trkpt lat="45.92486605495249" lon="11.208994252217353"><ele>1309.0</ele><time>2026-04-06T08:36:09Z</time></trkpt><trkpt lat="45.92487810968613" lon="11.208874679434542"><ele>1312.6</ele><time>2026-04-06T08:36:10Z</time></trkpt><trkpt lat="45.9248461561551" lon="11.208757235674614"><ele>1316.2</ele><time>2026-04-06T08:36:11Z</time></trkpt><trkpt lat="45.92478232015376" lon="11.208660479413806"><ele>1319.8</ele><time>2026-04-06T08:36:12Z</time></trkpt><trkpt lat="45.924670652098214" lon="11.208650662938775"><ele>1323.3999999999999</ele><time>2026-04-06T08:36:13Z</time></trkpt><trkpt lat="45.9245606617785" lon="11.208640696900671"><ele>1327.0</ele><time>2026-04-06T08:36:14Z</time></trkpt><trkpt lat="45.92443652754187" lon="11.208641010712682"><ele>1327.0</ele><time>2026-04-06T08:36:15Z</time></trkpt><trkpt lat="45.924307069955034" lon="11.208643827824844"><ele>1327.0</ele><time>2026-04-06T08:36:16Z</time></trkpt><trkpt lat="45.924175881750344" lon="11.208650267060348"><ele>1327.0</ele><time>2026-04-06T08:36:17Z</time></trkpt><trkpt lat="45.924050833840425" lon="11.20864554139482"><ele>1327.0</ele><time>2026-04-06T08:36:18Z</time></trkpt><trkpt lat="45.9239422924562" lon="11.208621201148716"><ele>1325.6</ele><time>2026-04-06T08:36:19Z</time></trkpt><trkpt lat="45.92384436585138" lon="11.208563444586225"><ele>1324.1999999999998</ele><time>2026-04-06T08:36:20Z</time></trkpt><trkpt lat="45.92376958080096" lon="11.208454387675616"><ele>1322.8</ele><time>2026-04-06T08:36:21Z</time></trkpt><trkpt lat="45.92372118850129" lon="11.208323380551096"><ele>1321.4</ele><time>2026-04-06T08:36:22Z</time></trkpt><trkpt lat="45.92367564083698" lon="11.208184297982047"><ele>1320.0</ele><time>2026-04-06T08:36:23Z</time></trkpt><trkpt lat="45.92362867612261" lon="11.208064167952825"><ele>1320.5</ele><time>2026-04-06T08:36:24Z</time></trkpt><trkpt lat="45.92357689172171" lon="11.207989997173065"><ele>1321.0</ele><time>2026-04-06T08:36:25Z</time></trkpt><trkpt lat="45.923512017639716" lon="11.207955028113107"><ele>1321.5</ele><time>2026-04-06T08:36:26Z</time></trkpt><trkpt lat="45.923443458819996" lon="11.207968232414167"><ele>1322.0</ele><time>2026-04-06T08:36:27Z</time></trkpt><trkpt lat="45.92338155637358" lon="11.208027093470282"><ele>1322.5</ele><time>2026-04-06T08:36:28Z</time></trkpt><trkpt lat="45.92333570380958" lon="11.208139875015977"><ele>1323.0</ele><time>2026-04-06T08:36:29Z</time></trkpt><trkpt lat="45.92329063530779" lon="11.208277541416551"><ele>1323.0</ele><time>2026-04-06T08:36:30Z</time></trkpt><trkpt lat="45.923254620654504" lon="11.208426218055388"><ele>1323.0</ele><time>2026-04-06T08:36:31Z</time></trkpt><trkpt lat="45.9231878465078" lon="11.208542397476885"><ele>1323.0</ele><time>2026-04-06T08:36:32Z</time></trkpt><trkpt lat="45.923129256644685" lon="11.208659040656"><ele>1323.0</ele><time>2026-04-06T08:36:33Z</time></trkpt><trkpt lat="45.92302170367105" lon="11.208710644865763"><ele>1323.0</ele><time>2026-04-06T08:36:34Z</time></trkpt><trkpt lat="45.922913564650486" lon="11.208705598977128"><ele>1323.0</ele><time>2026-04-06T08:36:35Z</time></trkpt><trkpt lat="45.922811635149415" lon="11.208656030489342"><ele>1323.0</ele><time>2026-04-06T08:36:36Z</time></trkpt><trkpt lat="45.92273292245264" lon="11.208556048469635"><ele>1323.0</ele><time>2026-04-06T08:36:37Z</time></trkpt><trkpt lat="45.92265628668313" lon="11.208431410844046"><ele>1323.0</ele><time>2026-04-06T08:36:38Z</time></trkpt><trkpt lat="45.922578922005876" lon="11.208281513087263"><ele>1328.75</ele><time>2026-04-06T08:36:39Z</time></trkpt><trkpt lat="45.9224940602928" lon="11.208136007400219"><ele>1334.5</ele><time>2026-04-06T08:36:40Z</time></trkpt><trkpt lat="45.922402387977876" lon="11.207986847556695"><ele>1340.25</ele><time>2026-04-06T08:36:41Z</time></trkpt><trkpt lat="45.92230877548142" lon="11.207836277172005"><ele>1346.0</ele><time>2026-04-06T08:36:42Z</time></trkpt><trkpt lat="45.92221699876689" lon="11.20768461202251"><ele>1346.0</ele><time>2026-04-06T08:36:43Z</time></trkpt><trkpt lat="45.92211769576774" lon="11.20755131118208"><ele>1346.0</ele><time>2026-04-06T08:36:44Z</time></trkpt><trkpt lat="45.92201157145556" lon="11.207434712680532"><ele>1346.0</ele><time>2026-04-06T08:36:45Z</time></trkpt><trkpt lat="45.92189403555362" lon="11.207355872719713"><ele>1346.0</ele><time>2026-04-06T08:36:46Z</time></trkpt><trkpt lat="45.921755583775095" lon="11.20732118564971"><ele>1344.0</ele><time>2026-04-06T08:36:47Z</time></trkpt><trkpt lat="45.92161506623069" lon="11.207311964592895"><ele>1342.0</ele><time>2026-04-06T08:36:48Z</time></trkpt><trkpt lat="45.92147973296923" lon="11.207337394896282"><ele>1340.0</ele><time>2026-04-06T08:36:49Z</time></trkpt><trkpt lat="45.92134697759512" lon="11.20740323812173"><ele>1338.0</ele><time>2026-04-06T08:36:50Z</time></trkpt><trkpt lat="45.92121676048601" lon="11.207478595400092"><ele>1338.0</ele><time>2026-04-06T08:36:51Z</time></trkpt><trkpt lat="45.921093033624814" lon="11.207553072663057"><ele>1338.0</ele><time>2026-04-06T08:36:52Z</time></trkpt><trkpt lat="45.920984730837" lon="11.20758916045506"><ele>1338.0</ele><time>2026-04-06T08:36:53Z</time></trkpt><trkpt lat="45.920877241824755" lon="11.207600744110305"><ele>1338.0</ele><time>2026-04-06T08:36:54Z</time></trkpt><trkpt lat="45.92076723407764" lon="11.207572942050524"><ele>1338.75</ele><time>2026-04-06T08:36:55Z</time></trkpt><trkpt lat="45.92065947321126" lon="11.207506978776125"><ele>1339.5</ele><time>2026-04-06T08:36:56Z</time></trkpt><trkpt lat="45.92055435067321" lon="11.207403799343114"><ele>1340.25</ele><time>2026-04-06T08:36:57Z</time></trkpt><trkpt lat="45.920453299047026" lon="11.207280134644781"><ele>1341.0</ele><time>2026-04-06T08:36:58Z</time></trkpt><trkpt lat="45.9203426373442" lon="11.207163194258923"><ele>1344.0</ele><time>2026-04-06T08:36:59Z</time></trkpt><trkpt lat="45.920223492537176" lon="11.207054596185806"><ele>1347.0</ele><time>2026-04-06T08:37:00Z</time></trkpt><trkpt lat="45.92010903999908" lon="11.206941092895102"><ele>1350.0</ele><time>2026-04-06T08:37:01Z</time></trkpt><trkpt lat="45.919997124686965" lon="11.206826078743662"><ele>1353.0</ele><time>2026-04-06T08:37:02Z</time></trkpt><trkpt lat="45.919894807346516" lon="11.206710692271256"><ele>1353.0</ele><time>2026-04-06T08:37:03Z</time></trkpt><trkpt lat="45.919799577632176" lon="11.206586654079528"><ele>1353.0</ele><time>2026-04-06T08:37:04Z</time></trkpt><trkpt lat="45.91971426947334" lon="11.206455148343487"><ele>1353.0</ele><time>2026-04-06T08:37:05Z</time></trkpt><trkpt lat="45.9196381263396" lon="11.206316131525833"><ele>1353.0</ele><time>2026-04-06T08:37:06Z</time></trkpt><trkpt lat="45.91956506897769" lon="11.206173815602744"><ele>1354.25</ele><time>2026-04-06T08:37:07Z</time></trkpt><trkpt lat="45.919495952844635" lon="11.206015076297755"><ele>1355.5</ele><time>2026-04-06T08:37:08Z</time></trkpt><trkpt lat="45.91943361870358" lon="11.205847218621617"><ele>1356.75</ele><time>2026-04-06T08:37:09Z</time></trkpt><trkpt lat="45.919375957514426" lon="11.205666461845585"><ele>1358.0</ele><time>2026-04-06T08:37:10Z</time></trkpt><trkpt lat="45.9193155191774" lon="11.205474606809608"><ele>1357.3333333333335</ele><time>2026-04-06T08:37:11Z</time></trkpt><trkpt lat="45.91924886109344" lon="11.20527778734418"><ele>1356.6666666666667</ele><time>2026-04-06T08:37:12Z</time></trkpt><trkpt lat="45.919178125110996" lon="11.205075192680244"><ele>1356.0</ele><time>2026-04-06T08:37:13Z</time></trkpt><trkpt lat="45.91910589179846" lon="11.204865213112496"><ele>1357.6666666666667</ele><time>2026-04-06T08:37:14Z</time></trkpt><trkpt lat="45.91903504082341" lon="11.204654193631708"><ele>1359.3333333333335</ele><time>2026-04-06T08:37:15Z</time></trkpt><trkpt lat="45.918958620560765" lon="11.204438219224176"><ele>1361.0</ele><time>2026-04-06T08:37:16Z</time></trkpt><trkpt lat="45.918880741549984" lon="11.204220483321981"><ele>1363.6666666666667</ele><time>2026-04-06T08:37:17Z</time></trkpt><trkpt lat="45.91880593281272" lon="11.203994924005233"><ele>1366.3333333333333</ele><time>2026-04-06T08:37:18Z</time></trkpt><trkpt lat="45.91873096561874" lon="11.203771006257496"><ele>1369.0</ele><time>2026-04-06T08:37:19Z</time></trkpt><trkpt lat="45.918658185539535" lon="11.203549949291201"><ele>1369.0</ele><time>2026-04-06T08:37:20Z</time></trkpt><trkpt lat="45.91858339351162" lon="11.20333886718906"><ele>1369.0</ele><time>2026-04-06T08:37:21Z</time></trkpt><trkpt lat="45.91851712851147" lon="11.203124297048927"><ele>1369.0</ele><time>2026-04-06T08:37:22Z</time></trkpt><trkpt lat="45.918452803792135" lon="11.202909678963424"><ele>1360.0</ele><time>2026-04-06T08:37:23Z</time></trkpt><trkpt lat="45.91839016169706" lon="11.20269585119669"><ele>1351.0</ele><time>2026-04-06T08:37:24Z</time></trkpt><trkpt lat="45.9183278281794" lon="11.20248266019752"><ele>1342.0</ele><time>2026-04-06T08:37:25Z</time></trkpt><trkpt lat="45.918267731366846" lon="11.202272256772684"><ele>1341.25</ele><time>2026-04-06T08:37:26Z</time></trkpt><trkpt lat="45.91820915674385" lon="11.202059702454452"><ele>1340.5</ele><time>2026-04-06T08:37:27Z</time></trkpt><trkpt lat="45.918169715758715" lon="11.201853952975043"><ele>1339.75</ele><time>2026-04-06T08:37:28Z</time></trkpt><trkpt lat="45.91812757047077" lon="11.20167285502132"><ele>1339.0</ele><time>2026-04-06T08:37:29Z</time></trkpt><trkpt lat="45.9181106187494" lon="11.201486559237878"><ele>1336.25</ele><time>2026-04-06T08:37:30Z</time></trkpt><trkpt lat="45.9181161997284" lon="11.201292225239227"><ele>1333.5</ele><time>2026-04-06T08:37:31Z</time></trkpt><trkpt lat="45.91815274094463" lon="11.201102487848242"><ele>1330.75</ele><time>2026-04-06T08:37:32Z</time></trkpt><trkpt lat="45.91821572176686" lon="11.200913955043848"><ele>1328.0</ele><time>2026-04-06T08:37:33Z</time></trkpt><trkpt lat="45.918297685136956" lon="11.200732474616643"><ele>1330.0</ele><time>2026-04-06T08:37:34Z</time></trkpt><trkpt lat="45.91838211073024" lon="11.20054375853818"><ele>1332.0</ele><time>2026-04-06T08:37:35Z</time></trkpt><trkpt lat="45.91847388341971" lon="11.200350278279279"><ele>1334.0</ele><time>2026-04-06T08:37:36Z</time></trkpt><trkpt lat="45.91854449318485" lon="11.200133841435107"><ele>1334.0</ele><time>2026-04-06T08:37:37Z</time></trkpt><trkpt lat="45.918623908454165" lon="11.199919207309781"><ele>1334.0</ele><time>2026-04-06T08:37:38Z</time></trkpt><trkpt lat="45.918686974205805" lon="11.199683593243343"><ele>1334.0</ele><time>2026-04-06T08:37:39Z</time></trkpt><trkpt lat="45.918755340544124" lon="11.199452858765897"><ele>1330.3333333333335</ele><time>2026-04-06T08:37:40Z</time></trkpt><trkpt lat="45.91882022877453" lon="11.199212572647614"><ele>1326.6666666666667</ele><time>2026-04-06T08:37:41Z</time></trkpt><trkpt lat="45.91888164284737" lon="11.198967072917307"><ele>1323.0</ele><time>2026-04-06T08:37:42Z</time></trkpt><trkpt lat="45.918924115687595" lon="11.198714256398436"><ele>1319.6666666666667</ele><time>2026-04-06T08:37:43Z</time></trkpt><trkpt lat="45.918978358973845" lon="11.198464505073428"><ele>1316.3333333333335</ele><time>2026-04-06T08:37:44Z</time></trkpt><trkpt lat="45.9190196172121" lon="11.198211264609991"><ele>1313.0</ele><time>2026-04-06T08:37:45Z</time></trkpt><trkpt lat="45.91907787427693" lon="11.197964039831076"><ele>1308.3333333333335</ele><time>2026-04-06T08:37:46Z</time></trkpt><trkpt lat="45.91911991492385" lon="11.19771020705197"><ele>1303.6666666666667</ele><time>2026-04-06T08:37:47Z</time></trkpt><trkpt lat="45.91915828663941" lon="11.197460020682103"><ele>1299.0</ele><time>2026-04-06T08:37:48Z</time></trkpt><trkpt lat="45.91918019316807" lon="11.19720836651254"><ele>1298.3333333333333</ele><time>2026-04-06T08:37:49Z</time></trkpt><trkpt lat="45.91923455475779" lon="11.196972571577744"><ele>1297.6666666666665</ele><time>2026-04-06T08:37:50Z</time></trkpt><trkpt lat="45.9192573721474" lon="11.196729636604946"><ele>1297.0</ele><time>2026-04-06T08:37:51Z</time></trkpt><trkpt lat="45.91930121789531" lon="11.196498153195781"><ele>1297.0</ele><time>2026-04-06T08:37:52Z</time></trkpt><trkpt lat="45.919369494639994" lon="11.1962815245134"><ele>1297.0</ele><time>2026-04-06T08:37:53Z</time></trkpt><trkpt lat="45.919431313794696" lon="11.196057864683088"><ele>1297.0</ele><time>2026-04-06T08:37:54Z</time></trkpt><trkpt lat="45.919491645304184" lon="11.195835930937871"><ele>1293.3333333333333</ele><time>2026-04-06T08:37:55Z</time></trkpt><trkpt lat="45.91953523849922" lon="11.195605432324289"><ele>1289.6666666666667</ele><time>2026-04-06T08:37:56Z</time></trkpt><trkpt lat="45.919594985139234" lon="11.195385417997493"><ele>1286.0</ele><time>2026-04-06T08:37:57Z</time></trkpt><trkpt lat="45.91965770277113" lon="11.195169802546634"><ele>1286.0</ele><time>2026-04-06T08:37:58Z</time></trkpt><trkpt lat="45.91974256676611" lon="11.194969152977059"><ele>1286.0</ele><time>2026-04-06T08:37:59Z</time></trkpt><trkpt lat="45.9198566288024" lon="11.194800194355372"><ele>1286.0</ele><time>2026-04-06T08:38:00Z</time></trkpt><trkpt lat="45.91994488112711" lon="11.194603536955972"><ele>1288.6666666666667</ele><time>2026-04-06T08:38:01Z</time></trkpt><trkpt lat="45.92004295172442" lon="11.194425144446578"><ele>1291.3333333333333</ele><time>2026-04-06T08:38:02Z</time></trkpt><trkpt lat="45.92013780033033" lon="11.194245192872856"><ele>1294.0</ele><time>2026-04-06T08:38:03Z</time></trkpt><trkpt lat="45.92023145272556" lon="11.194066922214285"><ele>1289.0</ele><time>2026-04-06T08:38:04Z</time></trkpt><trkpt lat="45.92032503621544" lon="11.193889040510175"><ele>1284.0</ele><time>2026-04-06T08:38:05Z</time></trkpt><trkpt lat="45.92041956350625" lon="11.193716896830185"><ele>1279.0</ele><time>2026-04-06T08:38:06Z</time></trkpt><trkpt lat="45.9205090755869" lon="11.19353712662755"><ele>1279.0</ele><time>2026-04-06T08:38:07Z</time></trkpt><trkpt lat="45.92059274723638" lon="11.193344841748013"><ele>1279.0</ele><time>2026-04-06T08:38:08Z</time></trkpt><trkpt lat="45.920667991276375" lon="11.193139076453187"><ele>1279.0</ele><time>2026-04-06T08:38:09Z</time></trkpt><trkpt lat="45.92075303250769" lon="11.19294196334115"><ele>1278.3333333333333</ele><time>2026-04-06T08:38:10Z</time></trkpt><trkpt lat="45.92082603025377" lon="11.192733059457353"><ele>1277.6666666666667</ele><time>2026-04-06T08:38:11Z</time></trkpt><trkpt lat="45.92089498617396" lon="11.192522738719386"><ele>1277.0</ele><time>2026-04-06T08:38:12Z</time></trkpt><trkpt lat="45.92094847064063" lon="11.192299484856747"><ele>1277.0</ele><time>2026-04-06T08:38:13Z</time></trkpt><trkpt lat="45.92101329763498" lon="11.19208715557798"><ele>1277.0</ele><time>2026-04-06T08:38:14Z</time></trkpt><trkpt lat="45.92107521818728" lon="11.191882281633058"><ele>1277.0</ele><time>2026-04-06T08:38:15Z</time></trkpt><trkpt lat="45.921129630041435" lon="11.191694174102011"><ele>1277.0</ele><time>2026-04-06T08:38:16Z</time></trkpt><trkpt lat="45.921165448065544" lon="11.191526077230424"><ele>1277.0</ele><time>2026-04-06T08:38:17Z</time></trkpt><trkpt lat="45.92117786869414" lon="11.191342313677444"><ele>1277.0</ele><time>2026-04-06T08:38:18Z</time></trkpt><trkpt lat="45.92114874351554" lon="11.191162268563508"><ele>1277.0</ele><time>2026-04-06T08:38:19Z</time></trkpt><trkpt lat="45.92109919027212" lon="11.190977805278253"><ele>1275.25</ele><time>2026-04-06T08:38:20Z</time></trkpt><trkpt lat="45.92104064286418" lon="11.190802223306672"><ele>1273.5</ele><time>2026-04-06T08:38:21Z</time></trkpt><trkpt lat="45.920975164864956" lon="11.19062318586146"><ele>1271.75</ele><time>2026-04-06T08:38:22Z</time></trkpt><trkpt lat="45.920910021972595" lon="11.190442345855494"><ele>1270.0</ele><time>2026-04-06T08:38:23Z</time></trkpt><trkpt lat="45.9208490395437" lon="11.190256603386551"><ele>1266.75</ele><time>2026-04-06T08:38:24Z</time></trkpt><trkpt lat="45.92078552837615" lon="11.190074486609495"><ele>1263.5</ele><time>2026-04-06T08:38:25Z</time></trkpt><trkpt lat="45.92071499804746" lon="11.189898119811579"><ele>1260.25</ele><time>2026-04-06T08:38:26Z</time></trkpt><trkpt lat="45.92064231323071" lon="11.18972708990882"><ele>1257.0</ele><time>2026-04-06T08:38:27Z</time></trkpt><trkpt lat="45.92057567451119" lon="11.189558086918291"><ele>1256.75</ele><time>2026-04-06T08:38:28Z</time></trkpt><trkpt lat="45.92051063508921" lon="11.189396307721829"><ele>1256.5</ele><time>2026-04-06T08:38:29Z</time></trkpt><trkpt lat="45.920461811928554" lon="11.189221497965892"><ele>1256.25</ele><time>2026-04-06T08:38:30Z</time></trkpt><trkpt lat="45.92040853712522" lon="11.189050342375529"><ele>1256.0</ele><time>2026-04-06T08:38:31Z</time></trkpt><trkpt lat="45.92036449437999" lon="11.188890838876251"><ele>1256.0</ele><time>2026-04-06T08:38:32Z</time></trkpt><trkpt lat="45.92033287481934" lon="11.188774532421922"><ele>1256.0</ele><time>2026-04-06T08:38:33Z</time></trkpt><trkpt lat="45.920307297366776" lon="11.188672841907925"><ele>1256.0</ele><time>2026-04-06T08:38:34Z</time></trkpt><trkpt lat="45.92028115250781" lon="11.188562123705728"><ele>1256.0</ele><time>2026-04-06T08:38:35Z</time></trkpt><trkpt lat="45.9202600693866" lon="11.188434706133732"><ele>1256.0</ele><time>2026-04-06T08:38:36Z</time></trkpt><trkpt lat="45.92023940145121" lon="11.188281687350527"><ele>1256.0</ele><time>2026-04-06T08:38:37Z</time></trkpt><trkpt lat="45.92020561856859" lon="11.188122615153068"><ele>1257.25</ele><time>2026-04-06T08:38:38Z</time></trkpt><trkpt lat="45.92018184285307" lon="11.187952288214909"><ele>1258.5</ele><time>2026-04-06T08:38:39Z</time></trkpt><trkpt lat="45.92016169082263" lon="11.187777553799494"><ele>1259.75</ele><time>2026-04-06T08:38:40Z</time></trkpt><trkpt lat="45.92013290644402" lon="11.187601263106004"><ele>1261.0</ele><time>2026-04-06T08:38:41Z</time></trkpt><trkpt lat="45.920089842382474" lon="11.187430734202916"><ele>1258.5</ele><time>2026-04-06T08:38:42Z</time></trkpt><trkpt lat="45.92003002822488" lon="11.18726694431928"><ele>1256.0</ele><time>2026-04-06T08:38:43Z</time></trkpt><trkpt lat="45.91995577173606" lon="11.187112809731875"><ele>1253.5</ele><time>2026-04-06T08:38:44Z</time></trkpt><trkpt lat="45.91986507879867" lon="11.186966732291484"><ele>1251.0</ele><time>2026-04-06T08:38:45Z</time></trkpt><trkpt lat="45.91975919963637" lon="11.186833480540393"><ele>1251.0</ele><time>2026-04-06T08:38:46Z</time></trkpt><trkpt lat="45.9196461658529" lon="11.186717447012652"><ele>1251.0</ele><time>2026-04-06T08:38:47Z</time></trkpt><trkpt lat="45.919527074092926" lon="11.18660441991504"><ele>1251.0</ele><time>2026-04-06T08:38:48Z</time></trkpt><trkpt lat="45.91940834683666" lon="11.186490458154156"><ele>1251.0</ele><time>2026-04-06T08:38:49Z</time></trkpt><trkpt lat="45.919285486121204" lon="11.186386529462299"><ele>1250.25</ele><time>2026-04-06T08:38:50Z</time></trkpt><trkpt lat="45.91916290653473" lon="11.186312364241177"><ele>1249.5</ele><time>2026-04-06T08:38:51Z</time></trkpt><trkpt lat="45.91903624869892" lon="11.186273403300673"><ele>1248.75</ele><time>2026-04-06T08:38:52Z</time></trkpt><trkpt lat="45.91889610720818" lon="11.18626086997308"><ele>1248.0</ele><time>2026-04-06T08:38:53Z</time></trkpt><trkpt lat="45.9187559406912" lon="11.186254414019805"><ele>1248.0</ele><time>2026-04-06T08:38:54Z</time></trkpt><trkpt lat="45.918611375221516" lon="11.186253562073938"><ele>1248.0</ele><time>2026-04-06T08:38:55Z</time></trkpt><trkpt lat="45.91846758461449" lon="11.18625946334877"><ele>1248.0</ele><time>2026-04-06T08:38:56Z</time></trkpt><trkpt lat="45.918320245243514" lon="11.186263667308161"><ele>1248.0</ele><time>2026-04-06T08:38:57Z</time></trkpt><trkpt lat="45.91817043425433" lon="11.186267040043605"><ele>1246.75</ele><time>2026-04-06T08:38:58Z</time></trkpt><trkpt lat="45.91802394577662" lon="11.18626890468713"><ele>1245.5</ele><time>2026-04-06T08:38:59Z</time></trkpt><trkpt lat="45.91787989618808" lon="11.18627544946431"><ele>1244.25</ele><time>2026-04-06T08:39:00Z</time></trkpt><trkpt lat="45.91772889959856" lon="11.186263517596988"><ele>1243.0</ele><time>2026-04-06T08:39:01Z</time></trkpt><trkpt lat="45.91756533823902" lon="11.186266615532858"><ele>1242.6666666666665</ele><time>2026-04-06T08:39:02Z</time></trkpt><trkpt lat="45.9173971393984" lon="11.186267895731586"><ele>1242.3333333333333</ele><time>2026-04-06T08:39:03Z</time></trkpt><trkpt lat="45.91723242988457" lon="11.186269972190386"><ele>1242.0</ele><time>2026-04-06T08:39:04Z</time></trkpt><trkpt lat="45.917077625051135" lon="11.186272789349683"><ele>1242.0</ele><time>2026-04-06T08:39:05Z</time></trkpt><trkpt lat="45.91692042085416" lon="11.186293904735958"><ele>1242.0</ele><time>2026-04-06T08:39:06Z</time></trkpt><trkpt lat="45.91676446026742" lon="11.186293396837518"><ele>1242.0</ele><time>2026-04-06T08:39:07Z</time></trkpt><trkpt lat="45.91660857860156" lon="11.186297336366474"><ele>1239.3333333333333</ele><time>2026-04-06T08:39:08Z</time></trkpt><trkpt lat="45.916453479584405" lon="11.186296998494162"><ele>1236.6666666666665</ele><time>2026-04-06T08:39:09Z</time></trkpt><trkpt lat="45.91629987855501" lon="11.186277383059252"><ele>1234.0</ele><time>2026-04-06T08:39:10Z</time></trkpt><trkpt lat="45.91614960776006" lon="11.186237997706916"><ele>1234.0</ele><time>2026-04-06T08:39:11Z</time></trkpt><trkpt lat="45.91600013837838" lon="11.186166333379914"><ele>1234.0</ele><time>2026-04-06T08:39:12Z</time></trkpt><trkpt lat="45.91585239660217" lon="11.186070628492592"><ele>1234.0</ele><time>2026-04-06T08:39:13Z</time></trkpt><trkpt lat="45.91571065047222" lon="11.185948518932864"><ele>1231.6666666666665</ele><time>2026-04-06T08:39:14Z</time></trkpt><trkpt lat="45.9155731127471" lon="11.1858084917255"><ele>1229.3333333333333</ele><time>2026-04-06T08:39:15Z</time></trkpt><trkpt lat="45.915439436738126" lon="11.185656683157351"><ele>1227.0</ele><time>2026-04-06T08:39:16Z</time></trkpt><trkpt lat="45.915301594885086" lon="11.185517711005485"><ele>1226.6666666666667</ele><time>2026-04-06T08:39:17Z</time></trkpt><trkpt lat="45.91516619784154" lon="11.185381608002041"><ele>1226.3333333333335</ele><time>2026-04-06T08:39:18Z</time></trkpt><trkpt lat="45.91503253325203" lon="11.185248105306679"><ele>1226.0</ele><time>2026-04-06T08:39:19Z</time></trkpt><trkpt lat="45.91490875233403" lon="11.185121490751207"><ele>1223.75</ele><time>2026-04-06T08:39:20Z</time></trkpt><trkpt lat="45.914795935020976" lon="11.18498843813803"><ele>1221.5</ele><time>2026-04-06T08:39:21Z</time></trkpt><trkpt lat="45.914686119958674" lon="11.18484104869041"><ele>1219.25</ele><time>2026-04-06T08:39:22Z</time></trkpt><trkpt lat="45.91459223210497" lon="11.184690070123812"><ele>1217.0</ele><time>2026-04-06T08:39:23Z</time></trkpt><trkpt lat="45.91451860035312" lon="11.184541495577296"><ele>1217.0</ele><time>2026-04-06T08:39:24Z</time></trkpt><trkpt lat="45.91446319014641" lon="11.184398396235872"><ele>1217.0</ele><time>2026-04-06T08:39:25Z</time></trkpt><trkpt lat="45.91441892147955" lon="11.18425737499151"><ele>1217.0</ele><time>2026-04-06T08:39:26Z</time></trkpt><trkpt lat="45.91436562254467" lon="11.184117900921654"><ele>1217.0</ele><time>2026-04-06T08:39:27Z</time></trkpt><trkpt lat="45.914291561423816" lon="11.18398914298063"><ele>1217.0</ele><time>2026-04-06T08:39:28Z</time></trkpt><trkpt lat="45.91420604026145" lon="11.18386246454486"><ele>1213.25</ele><time>2026-04-06T08:39:29Z</time></trkpt><trkpt lat="45.91412248223947" lon="11.183709124958806"><ele>1209.5</ele><time>2026-04-06T08:39:30Z</time></trkpt><trkpt lat="45.91404876472486" lon="11.183531756243685"><ele>1205.75</ele><time>2026-04-06T08:39:31Z</time></trkpt><trkpt lat="45.913979662680056" lon="11.18333657551758"><ele>1202.0</ele><time>2026-04-06T08:39:32Z</time></trkpt><trkpt lat="45.91390692113991" lon="11.18313344760882"><ele>1200.6666666666667</ele><time>2026-04-06T08:39:33Z</time></trkpt><trkpt lat="45.91382635592125" lon="11.182921969824614"><ele>1199.3333333333333</ele><time>2026-04-06T08:39:34Z</time></trkpt><trkpt lat="45.91374297760365" lon="11.182718109748231"><ele>1198.0</ele><time>2026-04-06T08:39:35Z</time></trkpt><trkpt lat="45.91365552179522" lon="11.182519479176918"><ele>1196.6666666666665</ele><time>2026-04-06T08:39:36Z</time></trkpt><trkpt lat="45.91356794556519" lon="11.182321668391047"><ele>1195.3333333333333</ele><time>2026-04-06T08:39:37Z</time></trkpt><trkpt lat="45.91347352101247" lon="11.18212364768444"><ele>1194.0</ele><time>2026-04-06T08:39:38Z</time></trkpt><trkpt lat="45.91337294498411" lon="11.181928062882845"><ele>1192.3333333333333</ele><time>2026-04-06T08:39:39Z</time></trkpt><trkpt lat="45.913271515179524" lon="11.181734014425805"><ele>1190.6666666666665</ele><time>2026-04-06T08:39:40Z</time></trkpt><trkpt lat="45.91316931143467" lon="11.18153922695255"><ele>1189.0</ele><time>2026-04-06T08:39:41Z</time></trkpt><trkpt lat="45.91306631464928" lon="11.181344861554114"><ele>1187.0</ele><time>2026-04-06T08:39:42Z</time></trkpt><trkpt lat="45.91296536102555" lon="11.18114814805859"><ele>1185.0</ele><time>2026-04-06T08:39:43Z</time></trkpt><trkpt lat="45.912872453199164" lon="11.180960589663963"><ele>1183.0</ele><time>2026-04-06T08:39:44Z</time></trkpt><trkpt lat="45.912791178438546" lon="11.18077225592374"><ele>1181.0</ele><time>2026-04-06T08:39:45Z</time></trkpt><trkpt lat="45.91273170004007" lon="11.180579191468983"><ele>1179.0</ele><time>2026-04-06T08:39:46Z</time></trkpt><trkpt lat="45.91268584153002" lon="11.180370688902022"><ele>1177.0</ele><time>2026-04-06T08:39:47Z</time></trkpt><trkpt lat="45.912658666728575" lon="11.180154729527471"><ele>1177.0</ele><time>2026-04-06T08:39:48Z</time></trkpt><trkpt lat="45.91263744046875" lon="11.179936392013595"><ele>1177.0</ele><time>2026-04-06T08:39:49Z</time></trkpt><trkpt lat="45.912633080466" lon="11.179719819783797"><ele>1177.0</ele><time>2026-04-06T08:39:50Z</time></trkpt><trkpt lat="45.91266006335103" lon="11.17951442210445"><ele>1175.75</ele><time>2026-04-06T08:39:51Z</time></trkpt><trkpt lat="45.91268346518326" lon="11.179328757022166"><ele>1174.5</ele><time>2026-04-06T08:39:52Z</time></trkpt><trkpt lat="45.91271429222936" lon="11.179158425405307"><ele>1173.25</ele><time>2026-04-06T08:39:53Z</time></trkpt><trkpt lat="45.91275280543492" lon="11.179006496969885"><ele>1172.0</ele><time>2026-04-06T08:39:54Z</time></trkpt><trkpt lat="45.91277847498262" lon="11.178865422218848"><ele>1171.5</ele><time>2026-04-06T08:39:55Z</time></trkpt><trkpt lat="45.91280709535562" lon="11.17876499843782"><ele>1171.0</ele><time>2026-04-06T08:39:56Z</time></trkpt><trkpt lat="45.91282835649771" lon="11.17866963990303"><ele>1170.5</ele><time>2026-04-06T08:39:57Z</time></trkpt><trkpt lat="45.91284900995516" lon="11.178562147308618"><ele>1170.0</ele><time>2026-04-06T08:39:58Z</time></trkpt><trkpt lat="45.91286605653985" lon="11.178436255448418"><ele>1169.5</ele><time>2026-04-06T08:39:59Z</time></trkpt><trkpt lat="45.91285162630487" lon="11.178298004054325"><ele>1169.0</ele><time>2026-04-06T08:40:00Z</time></trkpt><trkpt lat="45.91283794808558" lon="11.178176929680292"><ele>1168.4</ele><time>2026-04-06T08:40:01Z</time></trkpt><trkpt lat="45.912833802481984" lon="11.17805769576006"><ele>1167.8000000000002</ele><time>2026-04-06T08:40:02Z</time></trkpt><trkpt lat="45.91286485528391" lon="11.177942023663926"><ele>1167.1999999999998</ele><time>2026-04-06T08:40:03Z</time></trkpt><trkpt lat="45.91291921416446" lon="11.177813006177917"><ele>1166.6</ele><time>2026-04-06T08:40:04Z</time></trkpt><trkpt lat="45.912985833029694" lon="11.177668880490938"><ele>1166.0</ele><time>2026-04-06T08:40:05Z</time></trkpt><trkpt lat="45.91300767001081" lon="11.17748754451803"><ele>1164.25</ele><time>2026-04-06T08:40:06Z</time></trkpt><trkpt lat="45.9130458680012" lon="11.177298606148735"><ele>1162.5</ele><time>2026-04-06T08:40:07Z</time></trkpt><trkpt lat="45.91308670927452" lon="11.177098739206556"><ele>1160.75</ele><time>2026-04-06T08:40:08Z</time></trkpt><trkpt lat="45.91312535814782" lon="11.176893978533112"><ele>1159.0</ele><time>2026-04-06T08:40:09Z</time></trkpt><trkpt lat="45.91316363717657" lon="11.176676591467182"><ele>1157.0</ele><time>2026-04-06T08:40:10Z</time></trkpt><trkpt lat="45.913203662219175" lon="11.176454011696048"><ele>1155.0</ele><time>2026-04-06T08:40:11Z</time></trkpt><trkpt lat="45.91324420011245" lon="11.176229517177717"><ele>1153.0</ele><time>2026-04-06T08:40:12Z</time></trkpt><trkpt lat="45.91328302311941" lon="11.175998297320259"><ele>1153.0</ele><time>2026-04-06T08:40:13Z</time></trkpt><trkpt lat="45.913323384194506" lon="11.17576579982641"><ele>1153.0</ele><time>2026-04-06T08:40:14Z</time></trkpt><trkpt lat="45.913360702219975" lon="11.175529435531976"><ele>1153.0</ele><time>2026-04-06T08:40:15Z</time></trkpt><trkpt lat="45.91338709100813" lon="11.175287687128455"><ele>1152.6666666666665</ele><time>2026-04-06T08:40:16Z</time></trkpt><trkpt lat="45.91340020779453" lon="11.175039543690547"><ele>1152.3333333333333</ele><time>2026-04-06T08:40:17Z</time></trkpt><trkpt lat="45.91340807154239" lon="11.174791277205152"><ele>1152.0</ele><time>2026-04-06T08:40:18Z</time></trkpt><trkpt lat="45.91341576767826" lon="11.174541696326845"><ele>1152.0</ele><time>2026-04-06T08:40:19Z</time></trkpt><trkpt lat="45.913427160466384" lon="11.174294959601879"><ele>1152.0</ele><time>2026-04-06T08:40:20Z</time></trkpt><trkpt lat="45.913438376038755" lon="11.174055390507824"><ele>1152.0</ele><time>2026-04-06T08:40:21Z</time></trkpt><trkpt lat="45.913448424485225" lon="11.173841971121497"><ele>1151.6</ele><time>2026-04-06T08:40:22Z</time></trkpt><trkpt lat="45.913458010605694" lon="11.173666755871757"><ele>1151.2</ele><time>2026-04-06T08:40:23Z</time></trkpt><trkpt lat="45.9134653349818" lon="11.173497788112014"><ele>1150.8</ele><time>2026-04-06T08:40:24Z</time></trkpt><trkpt lat="45.913474184715206" lon="11.173329283215649"><ele>1150.4</ele><time>2026-04-06T08:40:25Z</time></trkpt><trkpt lat="45.91348113320503" lon="11.173199813692786"><ele>1150.0</ele><time>2026-04-06T08:40:26Z</time></trkpt><trkpt lat="45.91348655322433" lon="11.173098000056509"><ele>1148.75</ele><time>2026-04-06T08:40:27Z</time></trkpt><trkpt lat="45.913500523300065" lon="11.172982932133783"><ele>1147.5</ele><time>2026-04-06T08:40:29Z</time></trkpt><trkpt lat="45.91349761832268" lon="11.172741943872037"><ele>1146.25</ele><time>2026-04-06T08:40:31Z</time></trkpt><trkpt lat="45.91350120800189" lon="11.172562318878587"><ele>1145.0</ele><time>2026-04-06T08:40:32Z</time></trkpt><trkpt lat="45.91351549938573" lon="11.172364219834591"><ele>1143.3333333333335</ele><time>2026-04-06T08:40:33Z</time></trkpt><trkpt lat="45.91353309747144" lon="11.172152433778098"><ele>1141.6666666666667</ele><time>2026-04-06T08:40:34Z</time></trkpt><trkpt lat="45.913558229840774" lon="11.171932628876336"><ele>1140.0</ele><time>2026-04-06T08:40:35Z</time></trkpt><trkpt lat="45.91359095912386" lon="11.17170528274452"><ele>1138.3333333333333</ele><time>2026-04-06T08:40:36Z</time></trkpt><trkpt lat="45.91363067484762" lon="11.171474360916008"><ele>1136.6666666666665</ele><time>2026-04-06T08:40:37Z</time></trkpt><trkpt lat="45.91367265994183" lon="11.171243198818459"><ele>1135.0</ele><time>2026-04-06T08:40:38Z</time></trkpt><trkpt lat="45.913715777831555" lon="11.171006436353451"><ele>1135.0</ele><time>2026-04-06T08:40:39Z</time></trkpt><trkpt lat="45.913755813903016" lon="11.170765293270804"><ele>1135.0</ele><time>2026-04-06T08:40:40Z</time></trkpt><trkpt lat="45.91379523691147" lon="11.170520130103643"><ele>1135.0</ele><time>2026-04-06T08:40:41Z</time></trkpt><trkpt lat="45.91383423174685" lon="11.170272461808269"><ele>1134.3333333333333</ele><time>2026-04-06T08:40:42Z</time></trkpt><trkpt lat="45.91387508132371" lon="11.170022072750026"><ele>1133.6666666666667</ele><time>2026-04-06T08:40:43Z</time></trkpt><trkpt lat="45.91391621387549" lon="11.16976898891553"><ele>1133.0</ele><time>2026-04-06T08:40:44Z</time></trkpt><trkpt lat="45.91395656015334" lon="11.169514452496848"><ele>1130.6666666666667</ele><time>2026-04-06T08:40:45Z</time></trkpt><trkpt lat="45.913997481871" lon="11.169258235029083"><ele>1128.3333333333333</ele><time>2026-04-06T08:40:46Z</time></trkpt><trkpt lat="45.9140391647607" lon="11.169002412870071"><ele>1126.0</ele><time>2026-04-06T08:40:47Z</time></trkpt><trkpt lat="45.91407899885455" lon="11.16874266010094"><ele>1125.0</ele><time>2026-04-06T08:40:48Z</time></trkpt><trkpt lat="45.914118575546496" lon="11.168484745738311"><ele>1124.0</ele><time>2026-04-06T08:40:49Z</time></trkpt><trkpt lat="45.91415852887894" lon="11.168231064279743"><ele>1123.0</ele><time>2026-04-06T08:40:50Z</time></trkpt><trkpt lat="45.91420187786842" lon="11.167978089121139"><ele>1125.3333333333333</ele><time>2026-04-06T08:40:51Z</time></trkpt><trkpt lat="45.91424485214075" lon="11.167727807202358"><ele>1127.6666666666667</ele><time>2026-04-06T08:40:52Z</time></trkpt><trkpt lat="45.914286122041375" lon="11.167478648091675"><ele>1130.0</ele><time>2026-04-06T08:40:53Z</time></trkpt><trkpt lat="45.914324621466534" lon="11.167228343497388"><ele>1130.0</ele><time>2026-04-06T08:40:54Z</time></trkpt><trkpt lat="45.91436269298304" lon="11.166978208608592"><ele>1130.0</ele><time>2026-04-06T08:40:55Z</time></trkpt><trkpt lat="45.914400863576766" lon="11.166732159917306"><ele>1130.0</ele><time>2026-04-06T08:40:56Z</time></trkpt><trkpt lat="45.91443762881446" lon="11.166487769776705"><ele>1127.6666666666667</ele><time>2026-04-06T08:40:57Z</time></trkpt><trkpt lat="45.914475558588535" lon="11.166246377889111"><ele>1125.3333333333333</ele><time>2026-04-06T08:40:58Z</time></trkpt><trkpt lat="45.91451662689093" lon="11.166010147490638"><ele>1123.0</ele><time>2026-04-06T08:40:59Z</time></trkpt><trkpt lat="45.91455786317251" lon="11.16577339828657"><ele>1120.6666666666665</ele><time>2026-04-06T08:41:00Z</time></trkpt><trkpt lat="45.91460002316709" lon="11.165535687724008"><ele>1118.3333333333333</ele><time>2026-04-06T08:41:01Z</time></trkpt><trkpt lat="45.91463840360715" lon="11.16529666116993"><ele>1116.0</ele><time>2026-04-06T08:41:02Z</time></trkpt><trkpt lat="45.91467028401556" lon="11.165053119792047"><ele>1114.0</ele><time>2026-04-06T08:41:03Z</time></trkpt><trkpt lat="45.9146943327254" lon="11.164811755476562"><ele>1112.0</ele><time>2026-04-06T08:41:04Z</time></trkpt><trkpt lat="45.914705009817226" lon="11.164562115061804"><ele>1110.0</ele><time>2026-04-06T08:41:05Z</time></trkpt><trkpt lat="45.91470769129105" lon="11.164304383501776"><ele>1110.0</ele><time>2026-04-06T08:41:06Z</time></trkpt><trkpt lat="45.91470594066139" lon="11.164041965282044"><ele>1110.0</ele><time>2026-04-06T08:41:07Z</time></trkpt><trkpt lat="45.91470233398178" lon="11.163774879215385"><ele>1110.0</ele><time>2026-04-06T08:41:08Z</time></trkpt><trkpt lat="45.91470230943756" lon="11.163504098794517"><ele>1109.0</ele><time>2026-04-06T08:41:09Z</time></trkpt><trkpt lat="45.91470595767439" lon="11.163232048556075"><ele>1108.0</ele><time>2026-04-06T08:41:10Z</time></trkpt><trkpt lat="45.914706689905344" lon="11.162967948170914"><ele>1107.0</ele><time>2026-04-06T08:41:11Z</time></trkpt><trkpt lat="45.914710913868596" lon="11.16271173414036"><ele>1105.6666666666667</ele><time>2026-04-06T08:41:12Z</time></trkpt><trkpt lat="45.91472583674238" lon="11.162456619538512"><ele>1104.3333333333335</ele><time>2026-04-06T08:41:13Z</time></trkpt><trkpt lat="45.91477788612251" lon="11.16221555854022"><ele>1103.0</ele><time>2026-04-06T08:41:14Z</time></trkpt><trkpt lat="45.91482614491272" lon="11.161968775610891"><ele>1100.0</ele><time>2026-04-06T08:41:15Z</time></trkpt><trkpt lat="45.91487777055857" lon="11.161717798328413"><ele>1097.0</ele><time>2026-04-06T08:41:16Z</time></trkpt><trkpt lat="45.91492641339924" lon="11.161469622982857"><ele>1094.0</ele><time>2026-04-06T08:41:17Z</time></trkpt><trkpt lat="45.91498388120934" lon="11.161228100299635"><ele>1096.0</ele><time>2026-04-06T08:41:18Z</time></trkpt><trkpt lat="45.915030414899924" lon="11.160983153612744"><ele>1098.0</ele><time>2026-04-06T08:41:19Z</time></trkpt><trkpt lat="45.91510065839576" lon="11.16075403752007"><ele>1100.0</ele><time>2026-04-06T08:41:20Z</time></trkpt><trkpt lat="45.91519454573865" lon="11.160542938135366"><ele>1096.0</ele><time>2026-04-06T08:41:21Z</time></trkpt><trkpt lat="45.91527571301971" lon="11.160328086870607"><ele>1092.0</ele><time>2026-04-06T08:41:22Z</time></trkpt><trkpt lat="45.91536061056494" lon="11.160119245596196"><ele>1088.0</ele><time>2026-04-06T08:41:23Z</time></trkpt><trkpt lat="45.91545359565813" lon="11.159919504267462"><ele>1083.6666666666667</ele><time>2026-04-06T08:41:24Z</time></trkpt><trkpt lat="45.91553948907416" lon="11.159714537406328"><ele>1079.3333333333333</ele><time>2026-04-06T08:41:25Z</time></trkpt><trkpt lat="45.91564340149105" lon="11.15953147821565"><ele>1075.0</ele><time>2026-04-06T08:41:26Z</time></trkpt><trkpt lat="45.9157427454328" lon="11.159350302082247"><ele>1075.0</ele><time>2026-04-06T08:41:27Z</time></trkpt><trkpt lat="45.91583835468696" lon="11.159184561810179"><ele>1075.0</ele><time>2026-04-06T08:41:28Z</time></trkpt><trkpt lat="45.91592035358554" lon="11.159033011339794"><ele>1075.0</ele><time>2026-04-06T08:41:29Z</time></trkpt><trkpt lat="45.91598302454993" lon="11.158886442745104"><ele>1075.0</ele><time>2026-04-06T08:41:30Z</time></trkpt><trkpt lat="45.91602281520341" lon="11.158743354148578"><ele>1075.0</ele><time>2026-04-06T08:41:31Z</time></trkpt><trkpt lat="45.91603813577795" lon="11.158603018549519"><ele>1075.0</ele><time>2026-04-06T08:41:32Z</time></trkpt><trkpt lat="45.91604511156587" lon="11.158465351981139"><ele>1075.0</ele><time>2026-04-06T08:41:33Z</time></trkpt><trkpt lat="45.915978711078836" lon="11.158335975783862"><ele>1075.0</ele><time>2026-04-06T08:41:34Z</time></trkpt><trkpt lat="45.91590294910119" lon="11.158220461007163"><ele>1075.0</ele><time>2026-04-06T08:41:35Z</time></trkpt><trkpt lat="45.915818682865044" lon="11.15813289149034"><ele>1073.25</ele><time>2026-04-06T08:41:36Z</time></trkpt><trkpt lat="45.9157131540983" lon="11.158110086559127"><ele>1071.5</ele><time>2026-04-06T08:41:37Z</time></trkpt><trkpt lat="45.91560010493541" lon="11.158132059731676"><ele>1069.75</ele><time>2026-04-06T08:41:38Z</time></trkpt><trkpt lat="45.91548556955409" lon="11.158201868392837"><ele>1068.0</ele><time>2026-04-06T08:41:39Z</time></trkpt><trkpt lat="45.915368439194864" lon="11.15829008135195"><ele>1068.0</ele><time>2026-04-06T08:41:40Z</time></trkpt><trkpt lat="45.91524485380725" lon="11.158387149509693"><ele>1068.0</ele><time>2026-04-06T08:41:41Z</time></trkpt><trkpt lat="45.91511845991155" lon="11.158491024181735"><ele>1068.0</ele><time>2026-04-06T08:41:42Z</time></trkpt><trkpt lat="45.91499632158738" lon="11.158598551606188"><ele>1068.0</ele><time>2026-04-06T08:41:43Z</time></trkpt><trkpt lat="45.91487478326337" lon="11.158698946081103"><ele>1065.0</ele><time>2026-04-06T08:41:44Z</time></trkpt><trkpt lat="45.91474222006895" lon="11.158774812040697"><ele>1062.0</ele><time>2026-04-06T08:41:45Z</time></trkpt><trkpt lat="45.91460213383972" lon="11.158798449939935"><ele>1059.0</ele><time>2026-04-06T08:41:46Z</time></trkpt><trkpt lat="45.91446150949962" lon="11.158842298848812"><ele>1056.0</ele><time>2026-04-06T08:41:47Z</time></trkpt><trkpt lat="45.91431888905287" lon="11.158847726768595"><ele>1055.0</ele><time>2026-04-06T08:41:48Z</time></trkpt><trkpt lat="45.914188821273044" lon="11.158878761038977"><ele>1054.0</ele><time>2026-04-06T08:41:49Z</time></trkpt><trkpt lat="45.91406549504461" lon="11.158944609640422"><ele>1053.0</ele><time>2026-04-06T08:41:50Z</time></trkpt><trkpt lat="45.91394328917271" lon="11.159038674247135"><ele>1052.0</ele><time>2026-04-06T08:41:51Z</time></trkpt><trkpt lat="45.91382350592275" lon="11.159143872162518"><ele>1052.0</ele><time>2026-04-06T08:41:52Z</time></trkpt><trkpt lat="45.91370822985305" lon="11.159248947532006"><ele>1052.0</ele><time>2026-04-06T08:41:53Z</time></trkpt><trkpt lat="45.91361089487061" lon="11.159360059425431"><ele>1052.0</ele><time>2026-04-06T08:41:54Z</time></trkpt><trkpt lat="45.91352423484455" lon="11.159492078589507"><ele>1052.0</ele><time>2026-04-06T08:41:55Z</time></trkpt><trkpt lat="45.91344364858732" lon="11.15963705405036"><ele>1050.2</ele><time>2026-04-06T08:41:56Z</time></trkpt><trkpt lat="45.91337368965543" lon="11.159767308120921"><ele>1048.4</ele><time>2026-04-06T08:41:57Z</time></trkpt><trkpt lat="45.91331012680316" lon="11.159872036247744"><ele>1046.6</ele><time>2026-04-06T08:41:58Z</time></trkpt><trkpt lat="45.91324393616168" lon="11.159967083362146"><ele>1044.8</ele><time>2026-04-06T08:41:59Z</time></trkpt><trkpt lat="45.91316405334146" lon="11.160048165976157"><ele>1043.0</ele><time>2026-04-06T08:42:00Z</time></trkpt><trkpt lat="45.913070645901655" lon="11.160113203221247"><ele>1043.0</ele><time>2026-04-06T08:42:01Z</time></trkpt><trkpt lat="45.91296979694032" lon="11.160149677342538"><ele>1043.0</ele><time>2026-04-06T08:42:02Z</time></trkpt><trkpt lat="45.912865779652094" lon="11.160121958367798"><ele>1043.0</ele><time>2026-04-06T08:42:03Z</time></trkpt><trkpt lat="45.91277033029286" lon="11.160110297797308"><ele>1043.0</ele><time>2026-04-06T08:42:04Z</time></trkpt><trkpt lat="45.912702848433774" lon="11.159999997438657"><ele>1043.0</ele><time>2026-04-06T08:42:05Z</time></trkpt><trkpt lat="45.91265767797628" lon="11.15988418226849"><ele>1042.0</ele><time>2026-04-06T08:42:06Z</time></trkpt><trkpt lat="45.9126100566356" lon="11.159758559433087"><ele>1041.0</ele><time>2026-04-06T08:42:07Z</time></trkpt><trkpt lat="45.91258575325951" lon="11.15962063415093"><ele>1040.0</ele><time>2026-04-06T08:42:08Z</time></trkpt><trkpt lat="45.912570384897336" lon="11.159464856522108"><ele>1039.0</ele><time>2026-04-06T08:42:09Z</time></trkpt><trkpt lat="45.91256794154662" lon="11.159304865657168"><ele>1038.0</ele><time>2026-04-06T08:42:10Z</time></trkpt><trkpt lat="45.91257165696191" lon="11.159136308421402"><ele>1036.0</ele><time>2026-04-06T08:42:11Z</time></trkpt><trkpt lat="45.91258351319392" lon="11.158969355699606"><ele>1034.0</ele><time>2026-04-06T08:42:12Z</time></trkpt><trkpt lat="45.912603042414666" lon="11.158813482960245"><ele>1032.0</ele><time>2026-04-06T08:42:13Z</time></trkpt><trkpt lat="45.912626609977956" lon="11.158638077826614"><ele>1030.0</ele><time>2026-04-06T08:42:14Z</time></trkpt><trkpt lat="45.912637777668806" lon="11.158448674820011"><ele>1030.0</ele><time>2026-04-06T08:42:15Z</time></trkpt><trkpt lat="45.91269586244988" lon="11.158279640917522"><ele>1030.0</ele><time>2026-04-06T08:42:16Z</time></trkpt><trkpt lat="45.91274078150583" lon="11.158098958778893"><ele>1030.0</ele><time>2026-04-06T08:42:17Z</time></trkpt><trkpt lat="45.91278552584935" lon="11.157912275020967"><ele>1030.0</ele><time>2026-04-06T08:42:18Z</time></trkpt><trkpt lat="45.912826439211315" lon="11.157724554171153"><ele>1028.0</ele><time>2026-04-06T08:42:19Z</time></trkpt><trkpt lat="45.91285729481148" lon="11.157531914334122"><ele>1026.0</ele><time>2026-04-06T08:42:20Z</time></trkpt><trkpt lat="45.912858795711436" lon="11.15733284122196"><ele>1024.0</ele><time>2026-04-06T08:42:21Z</time></trkpt><trkpt lat="45.912862949527195" lon="11.157135060501322"><ele>1022.0</ele><time>2026-04-06T08:42:22Z</time></trkpt><trkpt lat="45.912877807024145" lon="11.156927683248387"><ele>1021.4000000000001</ele><time>2026-04-06T08:42:23Z</time></trkpt><trkpt lat="45.9128813582406" lon="11.15672862514194"><ele>1020.8000000000001</ele><time>2026-04-06T08:42:24Z</time></trkpt><trkpt lat="45.91288234159474" lon="11.156556578565962"><ele>1020.2</ele><time>2026-04-06T08:42:25Z</time></trkpt><trkpt lat="45.91288021870606" lon="11.15642280639045"><ele>1019.6</ele><time>2026-04-06T08:42:26Z</time></trkpt><trkpt lat="45.91287250908632" lon="11.15629961084669"><ele>1019.0</ele><time>2026-04-06T08:42:27Z</time></trkpt><trkpt lat="45.9128438940342" lon="11.156173323167556"><ele>1017.6</ele><time>2026-04-06T08:42:28Z</time></trkpt><trkpt lat="45.91282314453529" lon="11.156030123574125"><ele>1016.2</ele><time>2026-04-06T08:42:29Z</time></trkpt><trkpt lat="45.91279121153954" lon="11.155887778839363"><ele>1014.8000000000001</ele><time>2026-04-06T08:42:30Z</time></trkpt><trkpt lat="45.912773356787454" lon="11.155736814180004"><ele>1013.4000000000001</ele><time>2026-04-06T08:42:31Z</time></trkpt><trkpt lat="45.91274450611663" lon="11.155586883611015"><ele>1012.0</ele><time>2026-04-06T08:42:32Z</time></trkpt><trkpt lat="45.912718839931465" lon="11.155434656554585"><ele>1010.0</ele><time>2026-04-06T08:42:33Z</time></trkpt><trkpt lat="45.912701062707896" lon="11.1552693948452"><ele>1008.0</ele><time>2026-04-06T08:42:34Z</time></trkpt><trkpt lat="45.91269536401267" lon="11.155108205672022"><ele>1006.0</ele><time>2026-04-06T08:42:35Z</time></trkpt><trkpt lat="45.91269820183894" lon="11.15495559666519"><ele>1004.0</ele><time>2026-04-06T08:42:36Z</time></trkpt><trkpt lat="45.912711112676085" lon="11.154808558425175"><ele>1002.0</ele><time>2026-04-06T08:42:37Z</time></trkpt><trkpt lat="45.912731396671674" lon="11.154651586012928"><ele>1000.6</ele><time>2026-04-06T08:42:38Z</time></trkpt><trkpt lat="45.912755915067116" lon="11.154494978621889"><ele>999.2</ele><time>2026-04-06T08:42:39Z</time></trkpt><trkpt lat="45.91278660457947" lon="11.154342627390832"><ele>997.8</ele><time>2026-04-06T08:42:40Z</time></trkpt><trkpt lat="45.91281449142589" lon="11.154189122194396"><ele>996.4</ele><time>2026-04-06T08:42:41Z</time></trkpt><trkpt lat="45.912866580476205" lon="11.154049818077485"><ele>995.0</ele><time>2026-04-06T08:42:42Z</time></trkpt><trkpt lat="45.912927251339674" lon="11.153929002702919"><ele>992.8</ele><time>2026-04-06T08:42:43Z</time></trkpt><trkpt lat="45.912997119160345" lon="11.153827690462304"><ele>990.6</ele><time>2026-04-06T08:42:44Z</time></trkpt><trkpt lat="45.913075370891114" lon="11.153733755864327"><ele>988.4000000000001</ele><time>2026-04-06T08:42:45Z</time></trkpt><trkpt lat="45.91315229220013" lon="11.153646789281177"><ele>986.2</ele><time>2026-04-06T08:42:46Z</time></trkpt><trkpt lat="45.913233417940155" lon="11.153565951360438"><ele>984.0</ele><time>2026-04-06T08:42:47Z</time></trkpt><trkpt lat="45.913316728373005" lon="11.15348380542598"><ele>983.2</ele><time>2026-04-06T08:42:48Z</time></trkpt><trkpt lat="45.913406462153084" lon="11.153418516163013"><ele>982.4000000000001</ele><time>2026-04-06T08:42:49Z</time></trkpt><trkpt lat="45.91347550835365" lon="11.153315771197798"><ele>981.6</ele><time>2026-04-06T08:42:50Z</time></trkpt><trkpt lat="45.913539548985796" lon="11.153194086335583"><ele>980.8</ele><time>2026-04-06T08:42:51Z</time></trkpt><trkpt lat="45.9136018306429" lon="11.153058429808588"><ele>980.0</ele><time>2026-04-06T08:42:52Z</time></trkpt><trkpt lat="45.91365986683785" lon="11.15291841182571"><ele>980.0</ele><time>2026-04-06T08:42:53Z</time></trkpt><trkpt lat="45.91371742583959" lon="11.152777658642231"><ele>980.0</ele><time>2026-04-06T08:42:54Z</time></trkpt><trkpt lat="45.9137622824889" lon="11.152627119016717"><ele>980.0</ele><time>2026-04-06T08:42:55Z</time></trkpt><trkpt lat="45.9138463037578" lon="11.15250083997511"><ele>980.0</ele><time>2026-04-06T08:42:56Z</time></trkpt><trkpt lat="45.913929043155" lon="11.15238088944633"><ele>977.75</ele><time>2026-04-06T08:42:57Z</time></trkpt><trkpt lat="45.914015542986014" lon="11.1522569748734"><ele>975.5</ele><time>2026-04-06T08:42:58Z</time></trkpt><trkpt lat="45.91410859662305" lon="11.152129221408396"><ele>973.25</ele><time>2026-04-06T08:42:59Z</time></trkpt><trkpt lat="45.91420802449326" lon="11.15199595279488"><ele>971.0</ele><time>2026-04-06T08:43:00Z</time></trkpt><trkpt lat="45.9143109476807" lon="11.151859679557528"><ele>971.0</ele><time>2026-04-06T08:43:01Z</time></trkpt><trkpt lat="45.91437978007548" lon="11.151766628343985"><ele>971.0</ele><time>2026-04-06T08:43:02Z</time></trkpt><trkpt lat="45.9144698464802" lon="11.151647526969006"><ele>971.0</ele><time>2026-04-06T08:43:03Z</time></trkpt><trkpt lat="45.914562947783324" lon="11.151546374733973"><ele>971.0</ele><time>2026-04-06T08:43:04Z</time></trkpt><trkpt lat="45.91466192870264" lon="11.151452359156169"><ele>966.3333333333334</ele><time>2026-04-06T08:43:05Z</time></trkpt><trkpt lat="45.91476848016819" lon="11.151358643433323"><ele>961.6666666666667</ele><time>2026-04-06T08:43:06Z</time></trkpt><trkpt lat="45.914903748335846" lon="11.151245624998028"><ele>957.0</ele><time>2026-04-06T08:43:07Z</time></trkpt><trkpt lat="45.91506240480294" lon="11.151121317472354"><ele>957.3333333333333</ele><time>2026-04-06T08:43:08Z</time></trkpt><trkpt lat="45.915228653099796" lon="11.150996956840988"><ele>957.6666666666666</ele><time>2026-04-06T08:43:09Z</time></trkpt><trkpt lat="45.91540287822704" lon="11.150866228941313"><ele>958.0</ele><time>2026-04-06T08:43:10Z</time></trkpt><trkpt lat="45.91557646067344" lon="11.150735041401271"><ele>955.0</ele><time>2026-04-06T08:43:11Z</time></trkpt><trkpt lat="45.91574915301012" lon="11.150602179254575"><ele>952.0</ele><time>2026-04-06T08:43:12Z</time></trkpt><trkpt lat="45.91591195067974" lon="11.150455785753655"><ele>949.0</ele><time>2026-04-06T08:43:13Z</time></trkpt><trkpt lat="45.91607712841073" lon="11.150340055654537"><ele>949.0</ele><time>2026-04-06T08:43:14Z</time></trkpt><trkpt lat="45.916247101587636" lon="11.150245212855399"><ele>949.0</ele><time>2026-04-06T08:43:15Z</time></trkpt><trkpt lat="45.916423573668624" lon="11.150167521879418"><ele>949.0</ele><time>2026-04-06T08:43:16Z</time></trkpt><trkpt lat="45.91659981356664" lon="11.150094273517254"><ele>951.3333333333333</ele><time>2026-04-06T08:43:17Z</time></trkpt><trkpt lat="45.91677375303148" lon="11.150023318702152"><ele>953.6666666666667</ele><time>2026-04-06T08:43:18Z</time></trkpt><trkpt lat="45.91693971942799" lon="11.149933401697195"><ele>956.0</ele><time>2026-04-06T08:43:19Z</time></trkpt><trkpt lat="45.91710881144007" lon="11.149870194677206"><ele>952.6666666666667</ele><time>2026-04-06T08:43:20Z</time></trkpt><trkpt lat="45.91727495599926" lon="11.149793638156204"><ele>949.3333333333333</ele><time>2026-04-06T08:43:21Z</time></trkpt><trkpt lat="45.91743966293692" lon="11.149704225752028"><ele>946.0</ele><time>2026-04-06T08:43:22Z</time></trkpt><trkpt lat="45.91758275320144" lon="11.14958840158041"><ele>946.0</ele><time>2026-04-06T08:43:23Z</time></trkpt><trkpt lat="45.91772606320744" lon="11.149459085463718"><ele>946.0</ele><time>2026-04-06T08:43:24Z</time></trkpt><trkpt lat="45.91786669426467" lon="11.149319516435199"><ele>946.0</ele><time>2026-04-06T08:43:25Z</time></trkpt><trkpt lat="45.91798974092001" lon="11.149155247429334"><ele>942.25</ele><time>2026-04-06T08:43:26Z</time></trkpt><trkpt lat="45.91808925351822" lon="11.149000341099233"><ele>938.5</ele><time>2026-04-06T08:43:27Z</time></trkpt><trkpt lat="45.91818101922606" lon="11.148875041042901"><ele>934.75</ele><time>2026-04-06T08:43:28Z</time></trkpt><trkpt lat="45.918287680238095" lon="11.148800251833714"><ele>931.0</ele><time>2026-04-06T08:43:29Z</time></trkpt><trkpt lat="45.918407301260316" lon="11.148744079285546"><ele>930.9999999999999</ele><time>2026-04-06T08:43:30Z</time></trkpt><trkpt lat="45.91851855320718" lon="11.148694390675326"><ele>931.0</ele><time>2026-04-06T08:43:31Z</time></trkpt><trkpt lat="45.9186017345978" lon="11.148659005587678"><ele>931.0</ele><time>2026-04-06T08:43:32Z</time></trkpt><trkpt lat="45.918654615630864" lon="11.148590361121524"><ele>931.0</ele><time>2026-04-06T08:43:33Z</time></trkpt><trkpt lat="45.91867082459794" lon="11.148472219849982"><ele>930.9999999999999</ele><time>2026-04-06T08:43:34Z</time></trkpt><trkpt lat="45.91867816238768" lon="11.148353162831999"><ele>931.0</ele><time>2026-04-06T08:43:35Z</time></trkpt><trkpt lat="45.9186213230854" lon="11.148233780302435"><ele>931.0</ele><time>2026-04-06T08:43:36Z</time></trkpt><trkpt lat="45.918511320696446" lon="11.148205442637519"><ele>931.0</ele><time>2026-04-06T08:43:37Z</time></trkpt><trkpt lat="45.918406425687415" lon="11.148264662624385"><ele>931.0</ele><time>2026-04-06T08:43:38Z</time></trkpt><trkpt lat="45.91829377069347" lon="11.148339787855274"><ele>931.0</ele><time>2026-04-06T08:43:39Z</time></trkpt><trkpt lat="45.9181701223177" lon="11.148419708558588"><ele>928.75</ele><time>2026-04-06T08:43:40Z</time></trkpt><trkpt lat="45.91803939263549" lon="11.148508992645572"><ele>926.5</ele><time>2026-04-06T08:43:41Z</time></trkpt><trkpt lat="45.91790391261035" lon="11.1485896636018"><ele>924.25</ele><time>2026-04-06T08:43:42Z</time></trkpt><trkpt lat="45.91777615087703" lon="11.148663237485879"><ele>922.0</ele><time>2026-04-06T08:43:43Z</time></trkpt><trkpt lat="45.917658279639284" lon="11.148683894972661"><ele>917.6666666666666</ele><time>2026-04-06T08:43:44Z</time></trkpt><trkpt lat="45.91750677375942" lon="11.148625620948398"><ele>913.3333333333333</ele><time>2026-04-06T08:43:45Z</time></trkpt><trkpt lat="45.91735006660881" lon="11.148595472146445"><ele>909.0</ele><time>2026-04-06T08:43:46Z</time></trkpt><trkpt lat="45.91720216748253" lon="11.148533113145982"><ele>909.0</ele><time>2026-04-06T08:43:47Z</time></trkpt><trkpt lat="45.91706360421619" lon="11.14848848539838"><ele>909.0</ele><time>2026-04-06T08:43:48Z</time></trkpt><trkpt lat="45.916939673112225" lon="11.148467751553369"><ele>909.0</ele><time>2026-04-06T08:43:49Z</time></trkpt><trkpt lat="45.91681940568944" lon="11.148500434871211"><ele>909.0</ele><time>2026-04-06T08:43:50Z</time></trkpt><trkpt lat="45.91669136124892" lon="11.148575576659818"><ele>906.3333333333333</ele><time>2026-04-06T08:43:50.999Z</time></trkpt><trkpt lat="45.916525768847116" lon="11.14863637970582"><ele>903.6666666666666</ele><time>2026-04-06T08:43:51.999Z</time></trkpt><trkpt lat="45.91636554940132" lon="11.148670938427088"><ele>901.0</ele><time>2026-04-06T08:43:52.999Z</time></trkpt><trkpt lat="45.91620795125518" lon="11.148676780200871"><ele>901.0</ele><time>2026-04-06T08:43:54Z</time></trkpt><trkpt lat="45.916042896210186" lon="11.148667205309986"><ele>901.0</ele><time>2026-04-06T08:43:55Z</time></trkpt><trkpt lat="45.91587385134187" lon="11.14866211865377"><ele>901.0</ele><time>2026-04-06T08:43:56Z</time></trkpt><trkpt lat="45.91570080716263" lon="11.148663129281383"><ele>898.0</ele><time>2026-04-06T08:43:57Z</time></trkpt><trkpt lat="45.915529175475235" lon="11.14866309215094"><ele>895.0</ele><time>2026-04-06T08:43:58Z</time></trkpt><trkpt lat="45.91535974462332" lon="11.148660918604962"><ele>892.0</ele><time>2026-04-06T08:43:59Z</time></trkpt><trkpt lat="45.91519360386331" lon="11.148662891404307"><ele>891.5</ele><time>2026-04-06T08:44:00Z</time></trkpt><trkpt lat="45.91503638017681" lon="11.14866529297134"><ele>891.0</ele><time>2026-04-06T08:44:01Z</time></trkpt><trkpt lat="45.91488861004243" lon="11.148667140146074"><ele>890.5</ele><time>2026-04-06T08:44:02Z</time></trkpt><trkpt lat="45.91475647895924" lon="11.148665931531204"><ele>890.0</ele><time>2026-04-06T08:44:03Z</time></trkpt><trkpt lat="45.91465556313597" lon="11.148663374836659"><ele>890.0</ele><time>2026-04-06T08:44:04Z</time></trkpt><trkpt lat="45.91457105529759" lon="11.148648603860792"><ele>890.0</ele><time>2026-04-06T08:44:05Z</time></trkpt><trkpt lat="45.914492352004316" lon="11.148591836651283"><ele>890.0</ele><time>2026-04-06T08:44:06Z</time></trkpt><trkpt lat="45.91444961664541" lon="11.148460808412425"><ele>890.0</ele><time>2026-04-06T08:44:07Z</time></trkpt><trkpt lat="45.914421603329174" lon="11.14833803969431"><ele>890.0</ele><time>2026-04-06T08:44:08Z</time></trkpt><trkpt lat="45.9144285214107" lon="11.148198685833046"><ele>886.2</ele><time>2026-04-06T08:44:09Z</time></trkpt><trkpt lat="45.914486983712756" lon="11.148083419822264"><ele>882.4</ele><time>2026-04-06T08:44:10Z</time></trkpt><trkpt lat="45.91457428261858" lon="11.14801423933527"><ele>878.5999999999999</ele><time>2026-04-06T08:44:11Z</time></trkpt><trkpt lat="45.914679182358235" lon="11.148010310295486"><ele>874.8</ele><time>2026-04-06T08:44:12Z</time></trkpt><trkpt lat="45.91478233723964" lon="11.148086694165565"><ele>871.0</ele><time>2026-04-06T08:44:13Z</time></trkpt><trkpt lat="45.9148941611618" lon="11.148158575918252"><ele>875.75</ele><time>2026-04-06T08:44:14Z</time></trkpt><trkpt lat="45.91501624164905" lon="11.148248974271143"><ele>880.5</ele><time>2026-04-06T08:44:15Z</time></trkpt><trkpt lat="45.91514241823004" lon="11.148324627419008"><ele>885.25</ele><time>2026-04-06T08:44:16Z</time></trkpt><trkpt lat="45.9152823752004" lon="11.148347739950886"><ele>890.0</ele><time>2026-04-06T08:44:17Z</time></trkpt><trkpt lat="45.91543309936372" lon="11.148336045972185"><ele>890.6666666666667</ele><time>2026-04-06T08:44:18Z</time></trkpt><trkpt lat="45.91559153192467" lon="11.148292844133747"><ele>891.3333333333333</ele><time>2026-04-06T08:44:19Z</time></trkpt><trkpt lat="45.91575054206734" lon="11.148278834058196"><ele>892.0</ele><time>2026-04-06T08:44:20Z</time></trkpt><trkpt lat="45.915912893161924" lon="11.148236763566514"><ele>884.6666666666666</ele><time>2026-04-06T08:44:21Z</time></trkpt><trkpt lat="45.916071841996946" lon="11.148136934898215"><ele>877.3333333333333</ele><time>2026-04-06T08:44:22Z</time></trkpt><trkpt lat="45.91623113329819" lon="11.148043591691161"><ele>870.0</ele><time>2026-04-06T08:44:23Z</time></trkpt><trkpt lat="45.91640045519755" lon="11.147966255916433"><ele>870.0</ele><time>2026-04-06T08:44:24Z</time></trkpt><trkpt lat="45.91656049594488" lon="11.147872039149233"><ele>870.0</ele><time>2026-04-06T08:44:25Z</time></trkpt><trkpt lat="45.916717444018424" lon="11.14778014953751"><ele>870.0</ele><time>2026-04-06T08:44:26Z</time></trkpt><trkpt lat="45.916877309208104" lon="11.147689524445294"><ele>872.0</ele><time>2026-04-06T08:44:27Z</time></trkpt><trkpt lat="45.91703575715177" lon="11.147597326790109"><ele>874.0</ele><time>2026-04-06T08:44:28Z</time></trkpt><trkpt lat="45.9171931616847" lon="11.147504758455916"><ele>876.0</ele><time>2026-04-06T08:44:29Z</time></trkpt><trkpt lat="45.917348618396645" lon="11.147413683237291"><ele>869.3333333333333</ele><time>2026-04-06T08:44:30Z</time></trkpt><trkpt lat="45.917499536592814" lon="11.147325398487746"><ele>862.6666666666666</ele><time>2026-04-06T08:44:31Z</time></trkpt><trkpt lat="45.91764778508485" lon="11.147231124171883"><ele>856.0</ele><time>2026-04-06T08:44:32Z</time></trkpt><trkpt lat="45.91778281437308" lon="11.147106256443179"><ele>856.0</ele><time>2026-04-06T08:44:33Z</time></trkpt><trkpt lat="45.91789724296378" lon="11.146933704772405"><ele>856.0</ele><time>2026-04-06T08:44:34Z</time></trkpt><trkpt lat="45.91800140864937" lon="11.146766801499146"><ele>856.0</ele><time>2026-04-06T08:44:35Z</time></trkpt><trkpt lat="45.9181039893327" lon="11.146599794733199"><ele>852.75</ele><time>2026-04-06T08:44:36Z</time></trkpt><trkpt lat="45.91819926861942" lon="11.146439273862358"><ele>849.5</ele><time>2026-04-06T08:44:37Z</time></trkpt><trkpt lat="45.918293055517104" lon="11.14631049459174"><ele>846.25</ele><time>2026-04-06T08:44:38Z</time></trkpt><trkpt lat="45.91838811432686" lon="11.14623222896098"><ele>843.0</ele><time>2026-04-06T08:44:39Z</time></trkpt><trkpt lat="45.918497450869154" lon="11.146208437291456"><ele>843.0</ele><time>2026-04-06T08:44:40Z</time></trkpt><trkpt lat="45.91861576821213" lon="11.146198288080308"><ele>843.0</ele><time>2026-04-06T08:44:41Z</time></trkpt><trkpt lat="45.918730365544576" lon="11.1461626194476"><ele>843.0</ele><time>2026-04-06T08:44:42Z</time></trkpt><trkpt lat="45.918834444932585" lon="11.146084693583573"><ele>843.0</ele><time>2026-04-06T08:44:43Z</time></trkpt><trkpt lat="45.918902853786435" lon="11.145917619821931"><ele>843.0</ele><time>2026-04-06T08:44:44Z</time></trkpt><trkpt lat="45.91893056869631" lon="11.145734019232064"><ele>843.0</ele><time>2026-04-06T08:44:45Z</time></trkpt><trkpt lat="45.918987239638305" lon="11.145566586361644"><ele>843.0</ele><time>2026-04-06T08:44:46Z</time></trkpt><trkpt lat="45.919035352517064" lon="11.145396366495982"><ele>843.0</ele><time>2026-04-06T08:44:47Z</time></trkpt><trkpt lat="45.91909595102441" lon="11.145247701477116"><ele>844.0</ele><time>2026-04-06T08:44:48Z</time></trkpt><trkpt lat="45.919183905456016" lon="11.14513507107587"><ele>845.0</ele><time>2026-04-06T08:44:49Z</time></trkpt><trkpt lat="45.91928114700217" lon="11.145024670881122"><ele>846.0</ele><time>2026-04-06T08:44:50Z</time></trkpt><trkpt lat="45.91937959398007" lon="11.144916024982908"><ele>847.0</ele><time>2026-04-06T08:44:51Z</time></trkpt><trkpt lat="45.919468397378026" lon="11.144796396521752"><ele>843.75</ele><time>2026-04-06T08:44:52Z</time></trkpt><trkpt lat="45.91953981150249" lon="11.144647800481195"><ele>840.5</ele><time>2026-04-06T08:44:53Z</time></trkpt><trkpt lat="45.9195916128122" lon="11.144480814196656"><ele>837.25</ele><time>2026-04-06T08:44:54Z</time></trkpt><trkpt lat="45.919642641506194" lon="11.14431343671124"><ele>834.0</ele><time>2026-04-06T08:44:55Z</time></trkpt><trkpt lat="45.91969594694445" lon="11.144152362120012"><ele>828.5</ele><time>2026-04-06T08:44:56Z</time></trkpt><trkpt lat="45.919751894188835" lon="11.143993045797545"><ele>823.0</ele><time>2026-04-06T08:44:57Z</time></trkpt><trkpt lat="45.91982033859442" lon="11.143840860080473"><ele>817.5</ele><time>2026-04-06T08:44:58Z</time></trkpt><trkpt lat="45.919921114085916" lon="11.143708321378982"><ele>812.0</ele><time>2026-04-06T08:44:59Z</time></trkpt><trkpt lat="45.92003140910111" lon="11.143580340097033"><ele>810.5</ele><time>2026-04-06T08:45:00Z</time></trkpt><trkpt lat="45.92014064294943" lon="11.14346038414175"><ele>809.0</ele><time>2026-04-06T08:45:01Z</time></trkpt><trkpt lat="45.92024906687302" lon="11.143340909743953"><ele>807.5</ele><time>2026-04-06T08:45:02Z</time></trkpt><trkpt lat="45.92034338636562" lon="11.14320368590239"><ele>806.0</ele><time>2026-04-06T08:45:03Z</time></trkpt><trkpt lat="45.92044345614335" lon="11.143095124456377"><ele>806.0</ele><time>2026-04-06T08:45:04Z</time></trkpt><trkpt lat="45.920532304451115" lon="11.143000689279564"><ele>806.0</ele><time>2026-04-06T08:45:05Z</time></trkpt><trkpt lat="45.92062181933614" lon="11.142912812470485"><ele>806.0</ele><time>2026-04-06T08:45:06Z</time></trkpt><trkpt lat="45.92072442532213" lon="11.142852090358284"><ele>806.0</ele><time>2026-04-06T08:45:07Z</time></trkpt><trkpt lat="45.920833001521316" lon="11.142809586734698"><ele>806.0</ele><time>2026-04-06T08:45:08Z</time></trkpt><trkpt lat="45.92094190560568" lon="11.142777326725595"><ele>806.1428571428572</ele><time>2026-04-06T08:45:09Z</time></trkpt><trkpt lat="45.92104047310731" lon="11.142745948723972"><ele>806.2857142857142</ele><time>2026-04-06T08:45:10Z</time></trkpt><trkpt lat="45.92111763083597" lon="11.142717136305457"><ele>806.4285714285714</ele><time>2026-04-06T08:45:11Z</time></trkpt><trkpt lat="45.92117822762176" lon="11.142670233843653"><ele>806.5714285714287</ele><time>2026-04-06T08:45:12Z</time></trkpt><trkpt lat="45.921213030009085" lon="11.142591639808082"><ele>806.7142857142858</ele><time>2026-04-06T08:45:13Z</time></trkpt><trkpt lat="45.9212177713712" lon="11.142496819286984"><ele>806.8571428571429</ele><time>2026-04-06T08:45:14Z</time></trkpt><trkpt lat="45.92120720685401" lon="11.142400504151357"><ele>807.0</ele><time>2026-04-06T08:45:15Z</time></trkpt><trkpt lat="45.921143048213374" lon="11.14230955729407"><ele>807.0</ele><time>2026-04-06T08:45:16Z</time></trkpt><trkpt lat="45.92105632862449" lon="11.14227851746651"><ele>807.0</ele><time>2026-04-06T08:45:17Z</time></trkpt><trkpt lat="45.920952488136955" lon="11.142343360804942"><ele>807.0</ele><time>2026-04-06T08:45:18Z</time></trkpt><trkpt lat="45.92084810972423" lon="11.142427730583758"><ele>807.0</ele><time>2026-04-06T08:45:19Z</time></trkpt><trkpt lat="45.920723136492015" lon="11.14249401003496"><ele>806.75</ele><time>2026-04-06T08:45:20Z</time></trkpt><trkpt lat="45.92059971931139" lon="11.142593056967751"><ele>806.5</ele><time>2026-04-06T08:45:21Z</time></trkpt><trkpt lat="45.920465643308354" lon="11.142669750499014"><ele>806.25</ele><time>2026-04-06T08:45:22Z</time></trkpt><trkpt lat="45.92031284111188" lon="11.142718316252733"><ele>806.0</ele><time>2026-04-06T08:45:23Z</time></trkpt><trkpt lat="45.920144220446936" lon="11.142769858243698"><ele>800.6666666666667</ele><time>2026-04-06T08:45:24Z</time></trkpt><trkpt lat="45.91995627784289" lon="11.142820578992575"><ele>795.3333333333333</ele><time>2026-04-06T08:45:25Z</time></trkpt><trkpt lat="45.919780397135064" lon="11.14288651693912"><ele>790.0</ele><time>2026-04-06T08:45:26Z</time></trkpt><trkpt lat="45.91960905351681" lon="11.142919126242777"><ele>790.0</ele><time>2026-04-06T08:45:27Z</time></trkpt><trkpt lat="45.91944406547475" lon="11.142977663150454"><ele>790.0</ele><time>2026-04-06T08:45:28Z</time></trkpt><trkpt lat="45.919288001346196" lon="11.143064269728429"><ele>790.0</ele><time>2026-04-06T08:45:29Z</time></trkpt><trkpt lat="45.919139088796086" lon="11.143160772798593"><ele>792.6666666666666</ele><time>2026-04-06T08:45:30Z</time></trkpt><trkpt lat="45.91899576792361" lon="11.143260906179693"><ele>795.3333333333333</ele><time>2026-04-06T08:45:31Z</time></trkpt><trkpt lat="45.91885584387554" lon="11.143360019412343"><ele>798.0</ele><time>2026-04-06T08:45:32Z</time></trkpt><trkpt lat="45.91873540435879" lon="11.143476927249331"><ele>798.0</ele><time>2026-04-06T08:45:33Z</time></trkpt><trkpt lat="45.91864080254702" lon="11.143594739810819"><ele>798.0</ele><time>2026-04-06T08:45:34Z</time></trkpt><trkpt lat="45.918577394513626" lon="11.143698816452178"><ele>798.0</ele><time>2026-04-06T08:45:35Z</time></trkpt><trkpt lat="45.918519280883295" lon="11.143760430692163"><ele>798.0</ele><time>2026-04-06T08:45:36Z</time></trkpt><trkpt lat="45.918443165443236" lon="11.143754728079593"><ele>798.0</ele><time>2026-04-06T08:45:37Z</time></trkpt><trkpt lat="45.918382709891915" lon="11.14371574505557"><ele>798.0</ele><time>2026-04-06T08:45:38Z</time></trkpt><trkpt lat="45.9183319492029" lon="11.143568535412681"><ele>798.0</ele><time>2026-04-06T08:45:39Z</time></trkpt><trkpt lat="45.91837070891041" lon="11.143430975667638"><ele>798.0</ele><time>2026-04-06T08:45:40Z</time></trkpt><trkpt lat="45.91842738429626" lon="11.143323472242962"><ele>798.0</ele><time>2026-04-06T08:45:41Z</time></trkpt><trkpt lat="45.91852686934511" lon="11.143243792155042"><ele>798.0</ele><time>2026-04-06T08:45:42Z</time></trkpt><trkpt lat="45.91863535770108" lon="11.143164165078531"><ele>798.0</ele><time>2026-04-06T08:45:43Z</time></trkpt><trkpt lat="45.91874933444734" lon="11.143056005620835"><ele>792.5</ele><time>2026-04-06T08:45:44Z</time></trkpt><trkpt lat="45.91886201259082" lon="11.142931081467353"><ele>787.0</ele><time>2026-04-06T08:45:45Z</time></trkpt><trkpt lat="45.918970538137955" lon="11.142798660289413"><ele>781.5</ele><time>2026-04-06T08:45:46Z</time></trkpt><trkpt lat="45.91905864013515" lon="11.142626006795947"><ele>776.0</ele><time>2026-04-06T08:45:47Z</time></trkpt><trkpt lat="45.919136313339216" lon="11.14243774515638"><ele>776.0</ele><time>2026-04-06T08:45:48Z</time></trkpt><trkpt lat="45.91921365781421" lon="11.142253168405025"><ele>776.0</ele><time>2026-04-06T08:45:49Z</time></trkpt><trkpt lat="45.91932975646193" lon="11.142105766929571"><ele>776.0</ele><time>2026-04-06T08:45:50Z</time></trkpt><trkpt lat="45.91946082806335" lon="11.141985609513178"><ele>776.0</ele><time>2026-04-06T08:45:51Z</time></trkpt><trkpt lat="45.91959707316113" lon="11.14188182292338"><ele>776.0</ele><time>2026-04-06T08:45:52Z</time></trkpt><trkpt lat="45.91971858941847" lon="11.141786875752622"><ele>776.0</ele><time>2026-04-06T08:45:53Z</time></trkpt><trkpt lat="45.91983587809375" lon="11.141682715727057"><ele>776.0</ele><time>2026-04-06T08:45:53.999Z</time></trkpt><trkpt lat="45.91992858735709" lon="11.141522034612159"><ele>777.0</ele><time>2026-04-06T08:45:54.999Z</time></trkpt><trkpt lat="45.91997462644947" lon="11.141309475086954"><ele>778.0</ele><time>2026-04-06T08:45:55.999Z</time></trkpt><trkpt lat="45.92001691780992" lon="11.141101932419437"><ele>779.0</ele><time>2026-04-06T08:45:56.999Z</time></trkpt><trkpt lat="45.920070881773384" lon="11.140903893890258"><ele>771.3333333333334</ele><time>2026-04-06T08:45:57.999Z</time></trkpt><trkpt lat="45.920149164958005" lon="11.140715335677493"><ele>763.6666666666667</ele><time>2026-04-06T08:45:59Z</time></trkpt><trkpt lat="45.92025396495867" lon="11.140544626151295"><ele>756.0</ele><time>2026-04-06T08:46:00Z</time></trkpt><trkpt lat="45.92036970899096" lon="11.140378513096156"><ele>756.0</ele><time>2026-04-06T08:46:01Z</time></trkpt><trkpt lat="45.92048730242264" lon="11.140210411165882"><ele>756.0</ele><time>2026-04-06T08:46:02Z</time></trkpt><trkpt lat="45.92060597325758" lon="11.140038689564202"><ele>756.0</ele><time>2026-04-06T08:46:03Z</time></trkpt><trkpt lat="45.92072390072051" lon="11.139862940455698"><ele>757.3333333333334</ele><time>2026-04-06T08:46:04Z</time></trkpt><trkpt lat="45.9208253556957" lon="11.139657499545608"><ele>758.6666666666667</ele><time>2026-04-06T08:46:05Z</time></trkpt><trkpt lat="45.92092025141551" lon="11.139452046858782"><ele>760.0</ele><time>2026-04-06T08:46:06Z</time></trkpt><trkpt lat="45.921009996666214" lon="11.139235708582051"><ele>754.0</ele><time>2026-04-06T08:46:07Z</time></trkpt><trkpt lat="45.92112180053556" lon="11.139030702105163"><ele>748.0</ele><time>2026-04-06T08:46:08Z</time></trkpt><trkpt lat="45.92122118457296" lon="11.138822428541056"><ele>742.0</ele><time>2026-04-06T08:46:09Z</time></trkpt><trkpt lat="45.92133102046362" lon="11.138627710566732"><ele>742.0</ele><time>2026-04-06T08:46:10Z</time></trkpt><trkpt lat="45.921442866009166" lon="11.138434641461673"><ele>742.0</ele><time>2026-04-06T08:46:11Z</time></trkpt><trkpt lat="45.92155316484298" lon="11.138243543494545"><ele>742.0</ele><time>2026-04-06T08:46:12Z</time></trkpt><trkpt lat="45.9216482599356" lon="11.138049771228324"><ele>739.6666666666667</ele><time>2026-04-06T08:46:13Z</time></trkpt><trkpt lat="45.9217573891505" lon="11.137852402886038"><ele>737.3333333333334</ele><time>2026-04-06T08:46:14Z</time></trkpt><trkpt lat="45.92187096306964" lon="11.13768886105481"><ele>735.0</ele><time>2026-04-06T08:46:15Z</time></trkpt><trkpt lat="45.92194890952766" lon="11.137522989662042"><ele>735.0</ele><time>2026-04-06T08:46:16Z</time></trkpt><trkpt lat="45.92206279768354" lon="11.137410006415964"><ele>735.0</ele><time>2026-04-06T08:46:17Z</time></trkpt><trkpt lat="45.92218254007579" lon="11.13729985021019"><ele>735.0</ele><time>2026-04-06T08:46:18Z</time></trkpt><trkpt lat="45.922332276161185" lon="11.137262443838901"><ele>735.0</ele><time>2026-04-06T08:46:19Z</time></trkpt><trkpt lat="45.92247875638409" lon="11.137187604547263"><ele>732.5</ele><time>2026-04-06T08:46:20Z</time></trkpt><trkpt lat="45.92262835193983" lon="11.137143578843304"><ele>730.0</ele><time>2026-04-06T08:46:21Z</time></trkpt><trkpt lat="45.92277304173892" lon="11.137088738922897"><ele>727.5</ele><time>2026-04-06T08:46:22Z</time></trkpt><trkpt lat="45.92291147411785" lon="11.137040710540102"><ele>725.0</ele><time>2026-04-06T08:46:23Z</time></trkpt><trkpt lat="45.92302911959808" lon="11.137000068377377"><ele>725.0</ele><time>2026-04-06T08:46:24Z</time></trkpt><trkpt lat="45.92312176092139" lon="11.13696157142913"><ele>725.0</ele><time>2026-04-06T08:46:25Z</time></trkpt><trkpt lat="45.92319502493674" lon="11.136915638208821"><ele>725.0</ele><time>2026-04-06T08:46:26Z</time></trkpt><trkpt lat="45.92323779754074" lon="11.136821501338664"><ele>725.0</ele><time>2026-04-06T08:46:27Z</time></trkpt><trkpt lat="45.923269975732765" lon="11.136701147529575"><ele>725.0</ele><time>2026-04-06T08:46:28Z</time></trkpt><trkpt lat="45.92324574796226" lon="11.136535165243409"><ele>724.0</ele><time>2026-04-06T08:46:29Z</time></trkpt><trkpt lat="45.92318374026758" lon="11.136382471970947"><ele>723.0</ele><time>2026-04-06T08:46:30Z</time></trkpt><trkpt lat="45.92314693043226" lon="11.136204429601763"><ele>722.0</ele><time>2026-04-06T08:46:31Z</time></trkpt><trkpt lat="45.92308329470876" lon="11.136032979670233"><ele>721.0</ele><time>2026-04-06T08:46:32Z</time></trkpt><trkpt lat="45.92303735435399" lon="11.135846100938137"><ele>718.4</ele><time>2026-04-06T08:46:33Z</time></trkpt><trkpt lat="45.922993178573215" lon="11.13568110277616"><ele>715.8</ele><time>2026-04-06T08:46:34Z</time></trkpt><trkpt lat="45.92295510119505" lon="11.135539339800928"><ele>713.1999999999999</ele><time>2026-04-06T08:46:35Z</time></trkpt><trkpt lat="45.92292140856728" lon="11.135434421511611"><ele>710.5999999999999</ele><time>2026-04-06T08:46:36Z</time></trkpt><trkpt lat="45.92279490033717" lon="11.135386683434245"><ele>708.0</ele><time>2026-04-06T08:46:38Z</time></trkpt><trkpt lat="45.92272356154934" lon="11.135443815339626"><ele>708.0</ele><time>2026-04-06T08:46:39Z</time></trkpt><trkpt lat="45.92267652814293" lon="11.135585295382942"><ele>708.0</ele><time>2026-04-06T08:46:40Z</time></trkpt><trkpt lat="45.92265413803948" lon="11.135723036056122"><ele>708.0</ele><time>2026-04-06T08:46:41Z</time></trkpt><trkpt lat="45.922637349866264" lon="11.135864462577354"><ele>708.0</ele><time>2026-04-06T08:46:42Z</time></trkpt><trkpt lat="45.92260124043722" lon="11.135996527368858"><ele>708.0</ele><time>2026-04-06T08:46:43Z</time></trkpt><trkpt lat="45.92253136375957" lon="11.136092989156744"><ele>706.0</ele><time>2026-04-06T08:46:44Z</time></trkpt><trkpt lat="45.9224349879391" lon="11.1361362763414"><ele>704.0</ele><time>2026-04-06T08:46:45Z</time></trkpt><trkpt lat="45.92232732050502" lon="11.136101596887885"><ele>702.0</ele><time>2026-04-06T08:46:46Z</time></trkpt><trkpt lat="45.92221075485108" lon="11.136096534461316"><ele>700.0</ele><time>2026-04-06T08:46:47Z</time></trkpt><trkpt lat="45.922084854736624" lon="11.13606764762712"><ele>700.0</ele><time>2026-04-06T08:46:48Z</time></trkpt><trkpt lat="45.92194898891359" lon="11.13604757952422"><ele>700.0</ele><time>2026-04-06T08:46:49Z</time></trkpt><trkpt lat="45.921807057095144" lon="11.136033609610632"><ele>700.0</ele><time>2026-04-06T08:46:50Z</time></trkpt><trkpt lat="45.92166914637296" lon="11.136019834724342"><ele>700.0</ele><time>2026-04-06T08:46:51Z</time></trkpt><trkpt lat="45.92154736593165" lon="11.136013415873759"><ele>696.4</ele><time>2026-04-06T08:46:52Z</time></trkpt><trkpt lat="45.921438664427264" lon="11.136010980268747"><ele>692.8</ele><time>2026-04-06T08:46:53Z</time></trkpt><trkpt lat="45.92133313932382" lon="11.136038611935833"><ele>689.2</ele><time>2026-04-06T08:46:54Z</time></trkpt><trkpt lat="45.92122834684214" lon="11.136104266578132"><ele>685.6</ele><time>2026-04-06T08:46:55Z</time></trkpt><trkpt lat="45.92114218010046" lon="11.136215283010864"><ele>682.0</ele><time>2026-04-06T08:46:56Z</time></trkpt><trkpt lat="45.92104145462693" lon="11.136339748614112"><ele>682.0</ele><time>2026-04-06T08:46:57Z</time></trkpt><trkpt lat="45.92094984527047" lon="11.136460497977396"><ele>682.0</ele><time>2026-04-06T08:46:58Z</time></trkpt><trkpt lat="45.92084201453691" lon="11.136619333126747"><ele>682.0</ele><time>2026-04-06T08:46:59Z</time></trkpt><trkpt lat="45.92074442616818" lon="11.136740148995623"><ele>682.0</ele><time>2026-04-06T08:47:00Z</time></trkpt><trkpt lat="45.92065083917757" lon="11.136853473201349"><ele>681.5</ele><time>2026-04-06T08:47:01Z</time></trkpt><trkpt lat="45.920555380609684" lon="11.136959984686694"><ele>681.0</ele><time>2026-04-06T08:47:02Z</time></trkpt><trkpt lat="45.92044815653636" lon="11.137054228527042"><ele>680.5</ele><time>2026-04-06T08:47:03Z</time></trkpt><trkpt lat="45.92033605433174" lon="11.137135988526738"><ele>680.0</ele><time>2026-04-06T08:47:04Z</time></trkpt><trkpt lat="45.92022681619434" lon="11.137228280196563"><ele>680.0</ele><time>2026-04-06T08:47:05Z</time></trkpt><trkpt lat="45.92012714485042" lon="11.137325627199004"><ele>680.0</ele><time>2026-04-06T08:47:06Z</time></trkpt><trkpt lat="45.92004221738377" lon="11.137435152397513"><ele>680.0</ele><time>2026-04-06T08:47:07Z</time></trkpt><trkpt lat="45.91996727895714" lon="11.137562171565486"><ele>680.0</ele><time>2026-04-06T08:47:08Z</time></trkpt><trkpt lat="45.91989930138883" lon="11.137692749294814"><ele>681.4</ele><time>2026-04-06T08:47:09Z</time></trkpt><trkpt lat="45.919826327436745" lon="11.137818607515925"><ele>682.8</ele><time>2026-04-06T08:47:10Z</time></trkpt><trkpt lat="45.9197519757161" lon="11.137945241210316"><ele>684.2</ele><time>2026-04-06T08:47:11Z</time></trkpt><trkpt lat="45.91968230819838" lon="11.138061271058458"><ele>685.6</ele><time>2026-04-06T08:47:12Z</time></trkpt><trkpt lat="45.91961983766842" lon="11.138160174892807"><ele>687.0</ele><time>2026-04-06T08:47:13Z</time></trkpt><trkpt lat="45.91955026506575" lon="11.138233978213314"><ele>687.0</ele><time>2026-04-06T08:47:14Z</time></trkpt><trkpt lat="45.91946607452386" lon="11.138284606160015"><ele>687.0</ele><time>2026-04-06T08:47:15Z</time></trkpt><trkpt lat="45.91937147219438" lon="11.138293650643103"><ele>687.0</ele><time>2026-04-06T08:47:16Z</time></trkpt><trkpt lat="45.919284681100066" lon="11.138270115105675"><ele>687.0</ele><time>2026-04-06T08:47:17Z</time></trkpt><trkpt lat="45.91918662488414" lon="11.13823396058491"><ele>687.0</ele><time>2026-04-06T08:47:18Z</time></trkpt><trkpt lat="45.919079306643894" lon="11.138209219403826"><ele>681.25</ele><time>2026-04-06T08:47:19Z</time></trkpt><trkpt lat="45.91896717363627" lon="11.138197585631254"><ele>675.5</ele><time>2026-04-06T08:47:20Z</time></trkpt><trkpt lat="45.91885312110979" lon="11.138214916106351"><ele>669.75</ele><time>2026-04-06T08:47:21Z</time></trkpt><trkpt lat="45.918743042790915" lon="11.138264255283133"><ele>664.0</ele><time>2026-04-06T08:47:22Z</time></trkpt><trkpt lat="45.91863906947028" lon="11.138322805361284"><ele>664.0</ele><time>2026-04-06T08:47:23Z</time></trkpt><trkpt lat="45.91853531384793" lon="11.138387819458169"><ele>664.0</ele><time>2026-04-06T08:47:24Z</time></trkpt><trkpt lat="45.91843155426266" lon="11.138454696990467"><ele>664.0</ele><time>2026-04-06T08:47:25Z</time></trkpt><trkpt lat="45.9183302876039" lon="11.138524526728421"><ele>664.0</ele><time>2026-04-06T08:47:26Z</time></trkpt><trkpt lat="45.918227861192044" lon="11.138592763418618"><ele>658.5</ele><time>2026-04-06T08:47:27Z</time></trkpt><trkpt lat="45.91812486046719" lon="11.13866633136313"><ele>653.0</ele><time>2026-04-06T08:47:28Z</time></trkpt><trkpt lat="45.91802338516083" lon="11.138743489069782"><ele>647.5</ele><time>2026-04-06T08:47:29Z</time></trkpt><trkpt lat="45.91792281571282" lon="11.138818778005678"><ele>642.0</ele><time>2026-04-06T08:47:30Z</time></trkpt><trkpt lat="45.91782133354041" lon="11.13888439487314"><ele>642.0</ele><time>2026-04-06T08:47:31Z</time></trkpt><trkpt lat="45.91771403413138" lon="11.13892537169361"><ele>642.0</ele><time>2026-04-06T08:47:32Z</time></trkpt><trkpt lat="45.9176062057988" lon="11.138941870819167"><ele>642.0</ele><time>2026-04-06T08:47:33Z</time></trkpt><trkpt lat="45.91750252245159" lon="11.138949374425408"><ele>642.0</ele><time>2026-04-06T08:47:34Z</time></trkpt><trkpt lat="45.917411258991685" lon="11.13897523713391"><ele>642.0</ele><time>2026-04-06T08:47:35Z</time></trkpt><trkpt lat="45.917333212884664" lon="11.13902883314766"><ele>642.6</ele><time>2026-04-06T08:47:36Z</time></trkpt><trkpt lat="45.91726036627861" lon="11.139107965688801"><ele>643.2</ele><time>2026-04-06T08:47:37Z</time></trkpt><trkpt lat="45.91718743423706" lon="11.139192228832824"><ele>643.8</ele><time>2026-04-06T08:47:38Z</time></trkpt><trkpt lat="45.91710964727856" lon="11.13926793597633"><ele>644.4</ele><time>2026-04-06T08:47:39Z</time></trkpt><trkpt lat="45.91702127788411" lon="11.139317237094733"><ele>645.0</ele><time>2026-04-06T08:47:40Z</time></trkpt><trkpt lat="45.91692728967282" lon="11.139342677699322"><ele>645.0</ele><time>2026-04-06T08:47:41Z</time></trkpt><trkpt lat="45.91683493293958" lon="11.139323927319253"><ele>645.0</ele><time>2026-04-06T08:47:42Z</time></trkpt><trkpt lat="45.91674897281859" lon="11.139343925471037"><ele>645.0</ele><time>2026-04-06T08:47:43Z</time></trkpt><trkpt lat="45.916663860498645" lon="11.139339141076151"><ele>645.0</ele><time>2026-04-06T08:47:44Z</time></trkpt><trkpt lat="45.91659298105785" lon="11.139317553075122"><ele>645.0</ele><time>2026-04-06T08:47:45Z</time></trkpt><trkpt lat="45.9165505267268" lon="11.139250115384012"><ele>645.0</ele><time>2026-04-06T08:47:46Z</time></trkpt><trkpt lat="45.916516293927465" lon="11.1390904699753"><ele>641.1666666666666</ele><time>2026-04-06T08:47:48Z</time></trkpt><trkpt lat="45.91654736885081" lon="11.138937911342687"><ele>637.3333333333334</ele><time>2026-04-06T08:47:50Z</time></trkpt><trkpt lat="45.916608556231346" lon="11.138876082860463"><ele>633.5</ele><time>2026-04-06T08:47:51Z</time></trkpt><trkpt lat="45.916680327787" lon="11.13882200114"><ele>629.6666666666667</ele><time>2026-04-06T08:47:52Z</time></trkpt><trkpt lat="45.91675280624768" lon="11.138771521029506"><ele>625.8333333333334</ele><time>2026-04-06T08:47:53Z</time></trkpt><trkpt lat="45.91682888845" lon="11.138727108649196"><ele>622.0</ele><time>2026-04-06T08:47:53.999Z</time></trkpt><trkpt lat="45.916905537371676" lon="11.138672120748893"><ele>622.0</ele><time>2026-04-06T08:47:54.999Z</time></trkpt><trkpt lat="45.91697898980176" lon="11.13861163495617"><ele>622.0</ele><time>2026-04-06T08:47:55.999Z</time></trkpt><trkpt lat="45.91705185247764" lon="11.138547838723756"><ele>622.0</ele><time>2026-04-06T08:47:56.999Z</time></trkpt><trkpt lat="45.917121101916116" lon="11.13847421679129"><ele>622.0</ele><time>2026-04-06T08:47:57.999Z</time></trkpt><trkpt lat="45.91718786028675" lon="11.138397061431705"><ele>622.0</ele><time>2026-04-06T08:47:58.999Z</time></trkpt><trkpt lat="45.917261296836195" lon="11.138309387893807"><ele>622.0</ele><time>2026-04-06T08:47:59.999Z</time></trkpt><trkpt lat="45.917336930958555" lon="11.138218599164164"><ele>622.0</ele><time>2026-04-06T08:48:00.999Z</time></trkpt><trkpt lat="45.91741736764473" lon="11.138119626715469"><ele>622.0</ele><time>2026-04-06T08:48:01.999Z</time></trkpt><trkpt lat="45.9174962217" lon="11.137996541334369"><ele>622.0</ele><time>2026-04-06T08:48:02.999Z</time></trkpt><trkpt lat="45.91760624576504" lon="11.137873935801835"><ele>622.0</ele><time>2026-04-06T08:48:03.999Z</time></trkpt><trkpt lat="45.9176863888382" lon="11.137712481235488"><ele>622.0</ele><time>2026-04-06T08:48:05Z</time></trkpt><trkpt lat="45.91776834987415" lon="11.13754412765921"><ele>622.0</ele><time>2026-04-06T08:48:06Z</time></trkpt><trkpt lat="45.91785231718824" lon="11.137370512450435"><ele>622.0</ele><time>2026-04-06T08:48:07Z</time></trkpt><trkpt lat="45.91793872492748" lon="11.13719280457613"><ele>622.0</ele><time>2026-04-06T08:48:08Z</time></trkpt><trkpt lat="45.918013775281416" lon="11.137001531116487"><ele>618.75</ele><time>2026-04-06T08:48:09Z</time></trkpt><trkpt lat="45.9181001624235" lon="11.136828265931154"><ele>615.5</ele><time>2026-04-06T08:48:10Z</time></trkpt><trkpt lat="45.91819973145198" lon="11.136666446528789"><ele>612.25</ele><time>2026-04-06T08:48:11Z</time></trkpt><trkpt lat="45.91828881679551" lon="11.136494586289576"><ele>609.0</ele><time>2026-04-06T08:48:12Z</time></trkpt><trkpt lat="45.91840856349724" lon="11.136355644023988"><ele>609.0</ele><time>2026-04-06T08:48:13Z</time></trkpt><trkpt lat="45.91853283977336" lon="11.136221183075254"><ele>609.0</ele><time>2026-04-06T08:48:14Z</time></trkpt><trkpt lat="45.91865210807574" lon="11.1360778018807"><ele>609.0</ele><time>2026-04-06T08:48:15Z</time></trkpt><trkpt lat="45.91877531379831" lon="11.135933745329794"><ele>609.0</ele><time>2026-04-06T08:48:16Z</time></trkpt><trkpt lat="45.91886811693487" lon="11.135740256300895"><ele>609.0</ele><time>2026-04-06T08:48:17Z</time></trkpt><trkpt lat="45.91897305268406" lon="11.135561697117334"><ele>609.0</ele><time>2026-04-06T08:48:18Z</time></trkpt><trkpt lat="45.91907650263904" lon="11.135380938971599"><ele>608.3333333333334</ele><time>2026-04-06T08:48:19Z</time></trkpt><trkpt lat="45.91917874423278" lon="11.135199360825766"><ele>607.6666666666667</ele><time>2026-04-06T08:48:20Z</time></trkpt><trkpt lat="45.91928076892742" lon="11.135017291549575"><ele>607.0</ele><time>2026-04-06T08:48:21Z</time></trkpt><trkpt lat="45.919380929560454" lon="11.13483969489118"><ele>603.25</ele><time>2026-04-06T08:48:22Z</time></trkpt><trkpt lat="45.91947917384631" lon="11.134671099037172"><ele>599.5</ele><time>2026-04-06T08:48:23Z</time></trkpt><trkpt lat="45.91956880723788" lon="11.134508856494724"><ele>595.75</ele><time>2026-04-06T08:48:24Z</time></trkpt><trkpt lat="45.919644396609" lon="11.134344750401032"><ele>592.0</ele><time>2026-04-06T08:48:25Z</time></trkpt><trkpt lat="45.91969952874803" lon="11.13416840395851"><ele>589.25</ele><time>2026-04-06T08:48:26Z</time></trkpt><trkpt lat="45.919749493269606" lon="11.133994388197797"><ele>586.5</ele><time>2026-04-06T08:48:27Z</time></trkpt><trkpt lat="45.91980455164385" lon="11.13382445545747"><ele>583.75</ele><time>2026-04-06T08:48:28Z</time></trkpt><trkpt lat="45.91984751726718" lon="11.133575459852482"><ele>581.0</ele><time>2026-04-06T08:48:29Z</time></trkpt><trkpt lat="45.91990448443756" lon="11.133413083857889"><ele>581.0</ele><time>2026-04-06T08:48:30Z</time></trkpt><trkpt lat="45.91995855125714" lon="11.1332886258617"><ele>581.0</ele><time>2026-04-06T08:48:31Z</time></trkpt><trkpt lat="45.91999816234783" lon="11.133194130776845"><ele>581.0</ele><time>2026-04-06T08:48:32Z</time></trkpt><trkpt lat="45.91998881079473" lon="11.133030120755985"><ele>581.0</ele><time>2026-04-06T08:48:34Z</time></trkpt><trkpt lat="45.919922644998444" lon="11.132977920239815"><ele>581.0</ele><time>2026-04-06T08:48:35Z</time></trkpt><trkpt lat="45.91984206471933" lon="11.13304532456686"><ele>581.0</ele><time>2026-04-06T08:48:36Z</time></trkpt><trkpt lat="45.91979142848186" lon="11.133135330030912"><ele>581.0</ele><time>2026-04-06T08:48:37Z</time></trkpt><trkpt lat="45.91974917601164" lon="11.133264497456366"><ele>581.0</ele><time>2026-04-06T08:48:38Z</time></trkpt><trkpt lat="45.919702964750016" lon="11.133411412598551"><ele>581.0</ele><time>2026-04-06T08:48:39Z</time></trkpt><trkpt lat="45.91964701402425" lon="11.133566357665813"><ele>581.0</ele><time>2026-04-06T08:48:40Z</time></trkpt><trkpt lat="45.91958978140434" lon="11.133717113405021"><ele>581.0</ele><time>2026-04-06T08:48:41Z</time></trkpt><trkpt lat="45.91952331371457" lon="11.133857447825694"><ele>581.0</ele><time>2026-04-06T08:48:42Z</time></trkpt><trkpt lat="45.9194335927208" lon="11.13397708502689"><ele>581.0</ele><time>2026-04-06T08:48:43Z</time></trkpt><trkpt lat="45.919318912208496" lon="11.134064338383912"><ele>581.0</ele><time>2026-04-06T08:48:44Z</time></trkpt><trkpt lat="45.919190976051794" lon="11.134126378417902"><ele>575.3333333333333</ele><time>2026-04-06T08:48:45Z</time></trkpt><trkpt lat="45.91904992413246" lon="11.134178020482096"><ele>569.6666666666666</ele><time>2026-04-06T08:48:46Z</time></trkpt><trkpt lat="45.91890763418387" lon="11.13424415587117"><ele>564.0</ele><time>2026-04-06T08:48:47Z</time></trkpt><trkpt lat="45.91875972653382" lon="11.13431102107605"><ele>564.0</ele><time>2026-04-06T08:48:48Z</time></trkpt><trkpt lat="45.91860424298581" lon="11.134378825180445"><ele>564.0</ele><time>2026-04-06T08:48:49Z</time></trkpt><trkpt lat="45.91844856836251" lon="11.134445304778575"><ele>564.0</ele><time>2026-04-06T08:48:50Z</time></trkpt><trkpt lat="45.91828668472087" lon="11.134514921811625"><ele>557.6666666666666</ele><time>2026-04-06T08:48:51Z</time></trkpt><trkpt lat="45.918130182201836" lon="11.13458706159928"><ele>551.3333333333333</ele><time>2026-04-06T08:48:52Z</time></trkpt><trkpt lat="45.91797477321882" lon="11.134653744921808"><ele>545.0</ele><time>2026-04-06T08:48:53Z</time></trkpt><trkpt lat="45.91782216482131" lon="11.134715026408767"><ele>545.0</ele><time>2026-04-06T08:48:54Z</time></trkpt><trkpt lat="45.9176821137556" lon="11.134773353522542"><ele>545.0</ele><time>2026-04-06T08:48:55Z</time></trkpt><trkpt lat="45.91754784795231" lon="11.134839452841279"><ele>545.0</ele><time>2026-04-06T08:48:56Z</time></trkpt><trkpt lat="45.917422211985986" lon="11.1349282900816"><ele>545.0</ele><time>2026-04-06T08:48:57Z</time></trkpt><trkpt lat="45.917309088881886" lon="11.135054915196168"><ele>545.6</ele><time>2026-04-06T08:48:58Z</time></trkpt><trkpt lat="45.917203665485346" lon="11.135185852066943"><ele>546.2</ele><time>2026-04-06T08:48:59Z</time></trkpt><trkpt lat="45.917119237024444" lon="11.135297344604904"><ele>546.8</ele><time>2026-04-06T08:49:00Z</time></trkpt><trkpt lat="45.91704605624956" lon="11.135377578209138"><ele>547.4</ele><time>2026-04-06T08:49:01Z</time></trkpt><trkpt lat="45.91697571653151" lon="11.135412924504752"><ele>548.0</ele><time>2026-04-06T08:49:02Z</time></trkpt><trkpt lat="45.91690114072657" lon="11.135400515493947"><ele>548.0</ele><time>2026-04-06T08:49:03Z</time></trkpt><trkpt lat="45.91683861475068" lon="11.135328140286289"><ele>548.0</ele><time>2026-04-06T08:49:04Z</time></trkpt><trkpt lat="45.91682458873832" lon="11.135198715058149"><ele>548.0</ele><time>2026-04-06T08:49:05Z</time></trkpt><trkpt lat="45.91682209638717" lon="11.135092293434283"><ele>548.0</ele><time>2026-04-06T08:49:06Z</time></trkpt><trkpt lat="45.916899223583684" lon="11.13500061544085"><ele>548.0</ele><time>2026-04-06T08:49:07Z</time></trkpt><trkpt lat="45.91699132678164" lon="11.134931842534483"><ele>548.0</ele><time>2026-04-06T08:49:08Z</time></trkpt><trkpt lat="45.91707607018178" lon="11.134845383158833"><ele>541.25</ele><time>2026-04-06T08:49:09Z</time></trkpt><trkpt lat="45.91718025670035" lon="11.134757818086818"><ele>534.5</ele><time>2026-04-06T08:49:10Z</time></trkpt><trkpt lat="45.91728699249439" lon="11.134666678321256"><ele>527.75</ele><time>2026-04-06T08:49:11Z</time></trkpt><trkpt lat="45.91739538943443" lon="11.134574526449413"><ele>521.0</ele><time>2026-04-06T08:49:12Z</time></trkpt><trkpt lat="45.91748656881503" lon="11.134478877511276"><ele>521.0</ele><time>2026-04-06T08:49:13Z</time></trkpt><trkpt lat="45.91756535222818" lon="11.134357102417317"><ele>521.0</ele><time>2026-04-06T08:49:14Z</time></trkpt><trkpt lat="45.91762025164783" lon="11.134195891565215"><ele>521.0</ele><time>2026-04-06T08:49:15Z</time></trkpt><trkpt lat="45.91766327947574" lon="11.134028379342007"><ele>521.0</ele><time>2026-04-06T08:49:16Z</time></trkpt><trkpt lat="45.917698690201696" lon="11.133876550330355"><ele>520.5</ele><time>2026-04-06T08:49:17Z</time></trkpt><trkpt lat="45.91775758645681" lon="11.13375206043114"><ele>520.0</ele><time>2026-04-06T08:49:18Z</time></trkpt><trkpt lat="45.91786528434483" lon="11.133698227862078"><ele>519.5</ele><time>2026-04-06T08:49:19Z</time></trkpt><trkpt lat="45.91798142048259" lon="11.13363836155105"><ele>519.0</ele><time>2026-04-06T08:49:20Z</time></trkpt><trkpt lat="45.91809599643566" lon="11.133544447717238"><ele>519.0</ele><time>2026-04-06T08:49:21Z</time></trkpt><trkpt lat="45.918214288382266" lon="11.133440107261707"><ele>519.0</ele><time>2026-04-06T08:49:22Z</time></trkpt><trkpt lat="45.91833271775259" lon="11.133312046868227"><ele>519.0</ele><time>2026-04-06T08:49:23Z</time></trkpt><trkpt lat="45.91845240861021" lon="11.133185244689457"><ele>519.0</ele><time>2026-04-06T08:49:24Z</time></trkpt><trkpt lat="45.91856188871272" lon="11.133073509745481"><ele>521.25</ele><time>2026-04-06T08:49:25Z</time></trkpt><trkpt lat="45.918653345158894" lon="11.132965605768158"><ele>523.5</ele><time>2026-04-06T08:49:26Z</time></trkpt><trkpt lat="45.91873970507902" lon="11.132853702659606"><ele>525.75</ele><time>2026-04-06T08:49:27Z</time></trkpt><trkpt lat="45.91876876619544" lon="11.132660679633426"><ele>528.0</ele><time>2026-04-06T08:49:28Z</time></trkpt><trkpt lat="45.91878235862718" lon="11.13246388940004"><ele>523.0</ele><time>2026-04-06T08:49:29Z</time></trkpt><trkpt lat="45.91880412197066" lon="11.132279156791235"><ele>518.0</ele><time>2026-04-06T08:49:30Z</time></trkpt><trkpt lat="45.9187957599235" lon="11.132101910997854"><ele>513.0</ele><time>2026-04-06T08:49:31Z</time></trkpt><trkpt lat="45.91884190275909" lon="11.131944094196069"><ele>508.0</ele><time>2026-04-06T08:49:32Z</time></trkpt><trkpt lat="45.9189309878843" lon="11.13179385451829"><ele>508.0</ele><time>2026-04-06T08:49:33Z</time></trkpt><trkpt lat="45.919036941305016" lon="11.131641822982923"><ele>508.0</ele><time>2026-04-06T08:49:34Z</time></trkpt><trkpt lat="45.91915649706978" lon="11.131497297521417"><ele>508.0</ele><time>2026-04-06T08:49:35Z</time></trkpt><trkpt lat="45.91926463394725" lon="11.131325682599964"><ele>508.33333333333337</ele><time>2026-04-06T08:49:36Z</time></trkpt><trkpt lat="45.919378509611825" lon="11.131151704543312"><ele>508.66666666666663</ele><time>2026-04-06T08:49:37Z</time></trkpt><trkpt lat="45.9194854604774" lon="11.130964612722737"><ele>509.0</ele><time>2026-04-06T08:49:38Z</time></trkpt><trkpt lat="45.91960155718449" lon="11.130792865896904"><ele>498.75</ele><time>2026-04-06T08:49:39Z</time></trkpt><trkpt lat="45.91972398405315" lon="11.130639381331815"><ele>488.5</ele><time>2026-04-06T08:49:40Z</time></trkpt><trkpt lat="45.91982872003998" lon="11.130482980843672"><ele>478.25</ele><time>2026-04-06T08:49:41Z</time></trkpt><trkpt lat="45.91990521455578" lon="11.130336633599212"><ele>468.0</ele><time>2026-04-06T08:49:42Z</time></trkpt><trkpt lat="45.92000208752368" lon="11.13025217640963"><ele>472.0</ele><time>2026-04-06T08:49:43Z</time></trkpt><trkpt lat="45.92008315034392" lon="11.130175568459416"><ele>475.99999999999994</ele><time>2026-04-06T08:49:44Z</time></trkpt><trkpt lat="45.92017712603019" lon="11.130174680587029"><ele>479.99999999999994</ele><time>2026-04-06T08:49:45Z</time></trkpt><trkpt lat="45.92029143348922" lon="11.130211256195059"><ele>484.0</ele><time>2026-04-06T08:49:46Z</time></trkpt><trkpt lat="45.920382145282446" lon="11.130185827593259"><ele>488.0</ele><time>2026-04-06T08:49:47Z</time></trkpt><trkpt lat="45.92047753462282" lon="11.130136831674422"><ele>488.0</ele><time>2026-04-06T08:49:48Z</time></trkpt><trkpt lat="45.920556896259534" lon="11.130007779170306"><ele>488.0</ele><time>2026-04-06T08:49:49Z</time></trkpt><trkpt lat="45.92062127846409" lon="11.129837104804377"><ele>488.0</ele><time>2026-04-06T08:49:50Z</time></trkpt><trkpt lat="45.92068515822094" lon="11.129666335843151"><ele>488.0</ele><time>2026-04-06T08:49:51Z</time></trkpt><trkpt lat="45.92074729572508" lon="11.129479813624696"><ele>481.0</ele><time>2026-04-06T08:49:52Z</time></trkpt><trkpt lat="45.92084790115243" lon="11.129320115176528"><ele>474.0</ele><time>2026-04-06T08:49:53Z</time></trkpt><trkpt lat="45.920961799282686" lon="11.129178190891308"><ele>467.0</ele><time>2026-04-06T08:49:54Z</time></trkpt><trkpt lat="45.921083808888305" lon="11.129043607386409"><ele>463.25</ele><time>2026-04-06T08:49:55Z</time></trkpt><trkpt lat="45.92120721108858" lon="11.128929183926944"><ele>459.5</ele><time>2026-04-06T08:49:56Z</time></trkpt><trkpt lat="45.92131986897788" lon="11.128839160543913"><ele>455.75</ele><time>2026-04-06T08:49:57Z</time></trkpt><trkpt lat="45.92141541405061" lon="11.128736859584842"><ele>452.0</ele><time>2026-04-06T08:49:58Z</time></trkpt><trkpt lat="45.921484427973716" lon="11.12859245084979"><ele>452.0</ele><time>2026-04-06T08:49:59Z</time></trkpt><trkpt lat="45.92154919078403" lon="11.128442724050764"><ele>452.00000000000006</ele><time>2026-04-06T08:50:00Z</time></trkpt><trkpt lat="45.921590177308914" lon="11.128307037578521"><ele>452.00000000000006</ele><time>2026-04-06T08:50:01Z</time></trkpt><trkpt lat="45.921670380332266" lon="11.12822602160152"><ele>452.0</ele><time>2026-04-06T08:50:02Z</time></trkpt><trkpt lat="45.921770339045736" lon="11.128196516511549"><ele>452.0</ele><time>2026-04-06T08:50:03Z</time></trkpt><trkpt lat="45.92186879812307" lon="11.128228027753794"><ele>444.20000000000005</ele><time>2026-04-06T08:50:03.999Z</time></trkpt><trkpt lat="45.92194552511985" lon="11.128303523521366"><ele>436.40000000000003</ele><time>2026-04-06T08:50:04.999Z</time></trkpt><trkpt lat="45.92200513121277" lon="11.12841891086786"><ele>428.6</ele><time>2026-04-06T08:50:05.999Z</time></trkpt><trkpt lat="45.92203722122004" lon="11.128551931817299"><ele>420.79999999999995</ele><time>2026-04-06T08:50:06.999Z</time></trkpt><trkpt lat="45.92202158821892" lon="11.128678485103455"><ele>413.0</ele><time>2026-04-06T08:50:07.999Z</time></trkpt><trkpt lat="45.92196885664557" lon="11.128810255181323"><ele>413.0</ele><time>2026-04-06T08:50:08.999Z</time></trkpt><trkpt lat="45.9218978621828" lon="11.128933449228734"><ele>413.0</ele><time>2026-04-06T08:50:09.999Z</time></trkpt><trkpt lat="45.92182532525392" lon="11.129057105137543"><ele>413.0</ele><time>2026-04-06T08:50:11Z</time></trkpt><trkpt lat="45.921771552043275" lon="11.129161782025452"><ele>413.0</ele><time>2026-04-06T08:50:12Z</time></trkpt><trkpt lat="45.92176372888753" lon="11.129265269806766"><ele>413.0</ele><time>2026-04-06T08:50:13Z</time></trkpt><trkpt lat="45.92179101429344" lon="11.129363598950686"><ele>418.0</ele><time>2026-04-06T08:50:14Z</time></trkpt><trkpt lat="45.921853245359664" lon="11.129441119604067"><ele>423.0</ele><time>2026-04-06T08:50:15Z</time></trkpt><trkpt lat="45.92194600068006" lon="11.129482088175104"><ele>427.99999999999994</ele><time>2026-04-06T08:50:16Z</time></trkpt><trkpt lat="45.92205545010268" lon="11.129510069267207"><ele>433.0</ele><time>2026-04-06T08:50:17Z</time></trkpt><trkpt lat="45.92218530867307" lon="11.12954481446751"><ele>438.0</ele><time>2026-04-06T08:50:18Z</time></trkpt><trkpt lat="45.922324519870784" lon="11.129589812883736"><ele>438.0</ele><time>2026-04-06T08:50:19Z</time></trkpt><trkpt lat="45.92246833128348" lon="11.129630268404012"><ele>438.0</ele><time>2026-04-06T08:50:20Z</time></trkpt><trkpt lat="45.92261451723565" lon="11.129671613054576"><ele>438.0</ele><time>2026-04-06T08:50:21Z</time></trkpt><trkpt lat="45.922760462919896" lon="11.129721133119183"><ele>438.0</ele><time>2026-04-06T08:50:22Z</time></trkpt><trkpt lat="45.92290461761992" lon="11.129775166792237"><ele>438.5</ele><time>2026-04-06T08:50:23Z</time></trkpt><trkpt lat="45.923047767921965" lon="11.129842695996825"><ele>439.0</ele><time>2026-04-06T08:50:24Z</time></trkpt><trkpt lat="45.923189540766934" lon="11.129909672336995"><ele>439.5</ele><time>2026-04-06T08:50:25Z</time></trkpt><trkpt lat="45.923325538398" lon="11.129996065052566"><ele>440.0</ele><time>2026-04-06T08:50:26Z</time></trkpt><trkpt lat="45.92347420530378" lon="11.130045827190049"><ele>438.0</ele><time>2026-04-06T08:50:27Z</time></trkpt><trkpt lat="45.92360721476051" lon="11.130110690709436"><ele>436.0</ele><time>2026-04-06T08:50:28Z</time></trkpt><trkpt lat="45.9237240032871" lon="11.130164270263537"><ele>434.0</ele><time>2026-04-06T08:50:29Z</time></trkpt><trkpt lat="45.923838578850564" lon="11.130214214841558"><ele>432.0</ele><time>2026-04-06T08:50:30Z</time></trkpt><trkpt lat="45.92395980651675" lon="11.13017543918225"><ele>432.0</ele><time>2026-04-06T08:50:31Z</time></trkpt><trkpt lat="45.92407822378802" lon="11.130120109999316"><ele>432.00000000000006</ele><time>2026-04-06T08:50:32Z</time></trkpt><trkpt lat="45.924185909632655" lon="11.130063399370895"><ele>432.00000000000006</ele><time>2026-04-06T08:50:33Z</time></trkpt><trkpt lat="45.924274667111995" lon="11.130012813188559"><ele>432.0</ele><time>2026-04-06T08:50:34Z</time></trkpt><trkpt lat="45.924366983003516" lon="11.130036372242195"><ele>432.0</ele><time>2026-04-06T08:50:35Z</time></trkpt><trkpt lat="45.924454088706725" lon="11.130102039248431"><ele>432.8</ele><time>2026-04-06T08:50:36Z</time></trkpt><trkpt lat="45.924531572720916" lon="11.130194304726277"><ele>433.6</ele><time>2026-04-06T08:50:37Z</time></trkpt><trkpt lat="45.924598926939765" lon="11.130252491861338"><ele>434.40000000000003</ele><time>2026-04-06T08:50:38Z</time></trkpt><trkpt lat="45.92467737398059" lon="11.130278505804611"><ele>435.20000000000005</ele><time>2026-04-06T08:50:39Z</time></trkpt><trkpt lat="45.92476741161666" lon="11.130311937529916"><ele>436.0</ele><time>2026-04-06T08:50:40Z</time></trkpt><trkpt lat="45.92487191271199" lon="11.130262170961638"><ele>436.0</ele><time>2026-04-06T08:50:41Z</time></trkpt><trkpt lat="45.92495889390059" lon="11.13012580753149"><ele>436.0</ele><time>2026-04-06T08:50:42Z</time></trkpt><trkpt lat="45.92502690861424" lon="11.130008237729438"><ele>436.0</ele><time>2026-04-06T08:50:43Z</time></trkpt><trkpt lat="45.92506487842866" lon="11.129878157857828"><ele>436.0</ele><time>2026-04-06T08:50:44Z</time></trkpt><trkpt lat="45.92504071942373" lon="11.12973726558772"><ele>436.0</ele><time>2026-04-06T08:50:45Z</time></trkpt><trkpt lat="45.924983728358065" lon="11.129586496531457"><ele>444.5</ele><time>2026-04-06T08:50:46Z</time></trkpt><trkpt lat="45.924930618594864" lon="11.12945571227307"><ele>453.0</ele><time>2026-04-06T08:50:47Z</time></trkpt><trkpt lat="45.924863317335415" lon="11.129320463829037"><ele>461.5</ele><time>2026-04-06T08:50:48Z</time></trkpt><trkpt lat="45.92477563687092" lon="11.129204941117532"><ele>470.0</ele><time>2026-04-06T08:50:49Z</time></trkpt><trkpt lat="45.924647907184486" lon="11.129137067034488"><ele>470.0</ele><time>2026-04-06T08:50:50Z</time></trkpt><trkpt lat="45.92451655734542" lon="11.129076348295305"><ele>470.0</ele><time>2026-04-06T08:50:51Z</time></trkpt><trkpt lat="45.92435293253275" lon="11.129017632895351"><ele>470.0</ele><time>2026-04-06T08:50:53Z</time></trkpt><trkpt lat="45.92421549092418" lon="11.128966719956559"><ele>470.0</ele><time>2026-04-06T08:50:54Z</time></trkpt><trkpt lat="45.92407844239526" lon="11.128968348869282"><ele>470.75</ele><time>2026-04-06T08:50:55Z</time></trkpt><trkpt lat="45.923943718587324" lon="11.129011218214789"><ele>471.5</ele><time>2026-04-06T08:50:56Z</time></trkpt><trkpt lat="45.92382344130753" lon="11.12901710145262"><ele>472.25</ele><time>2026-04-06T08:50:57Z</time></trkpt><trkpt lat="45.92371892048166" lon="11.129018013654715"><ele>473.0</ele><time>2026-04-06T08:50:58Z</time></trkpt><trkpt lat="45.92362542695363" lon="11.128999056170711"><ele>472.99999999999994</ele><time>2026-04-06T08:50:59Z</time></trkpt><trkpt lat="45.92356038449015" lon="11.128927820521142"><ele>473.0</ele><time>2026-04-06T08:51:00Z</time></trkpt><trkpt lat="45.923507711065035" lon="11.128832063617937"><ele>473.0</ele><time>2026-04-06T08:51:01Z</time></trkpt><trkpt lat="45.92351228456159" lon="11.128730390324561"><ele>473.0</ele><time>2026-04-06T08:51:02Z</time></trkpt><trkpt lat="45.92353095282373" lon="11.12861223761359"><ele>472.99999999999994</ele><time>2026-04-06T08:51:03Z</time></trkpt><trkpt lat="45.92351184732751" lon="11.128471926452324"><ele>473.0</ele><time>2026-04-06T08:51:04Z</time></trkpt><trkpt lat="45.923444475127" lon="11.128328768087155"><ele>460.5</ele><time>2026-04-06T08:51:05Z</time></trkpt><trkpt lat="45.92337010088727" lon="11.12821498114663"><ele>448.0</ele><time>2026-04-06T08:51:06Z</time></trkpt><trkpt lat="45.923276308714534" lon="11.128098641475503"><ele>435.5</ele><time>2026-04-06T08:51:07Z</time></trkpt><trkpt lat="45.92318672106132" lon="11.127989213433066"><ele>423.0</ele><time>2026-04-06T08:51:08Z</time></trkpt><trkpt lat="45.923129118983525" lon="11.127865090007477"><ele>423.0</ele><time>2026-04-06T08:51:09Z</time></trkpt><trkpt lat="45.92311205503292" lon="11.127729634290223"><ele>423.0</ele><time>2026-04-06T08:51:10Z</time></trkpt><trkpt lat="45.92311825597329" lon="11.12756091909281"><ele>423.0</ele><time>2026-04-06T08:51:11Z</time></trkpt><trkpt lat="45.92311061474063" lon="11.127369744133832"><ele>423.0</ele><time>2026-04-06T08:51:12Z</time></trkpt><trkpt lat="45.923109243147856" lon="11.12717407754928"><ele>424.0</ele><time>2026-04-06T08:51:13Z</time></trkpt><trkpt lat="45.92311728236675" lon="11.126978403668495"><ele>425.0</ele><time>2026-04-06T08:51:14Z</time></trkpt><trkpt lat="45.92314233331838" lon="11.126792628672467"><ele>426.0</ele><time>2026-04-06T08:51:15Z</time></trkpt><trkpt lat="45.92315980125011" lon="11.12660121079558"><ele>427.0</ele><time>2026-04-06T08:51:16Z</time></trkpt><trkpt lat="45.92319324140397" lon="11.126423845340712"><ele>427.5</ele><time>2026-04-06T08:51:17Z</time></trkpt><trkpt lat="45.92319507346539" lon="11.126258086146272"><ele>428.0</ele><time>2026-04-06T08:51:18Z</time></trkpt><trkpt lat="45.92314671825993" lon="11.126081461670628"><ele>428.5</ele><time>2026-04-06T08:51:19Z</time></trkpt><trkpt lat="45.923127115508485" lon="11.125859514983826"><ele>429.0</ele><time>2026-04-06T08:51:20Z</time></trkpt><trkpt lat="45.92303250294412" lon="11.125698223068799"><ele>426.25</ele><time>2026-04-06T08:51:21Z</time></trkpt><trkpt lat="45.92296712605872" lon="11.12551493318203"><ele>423.5</ele><time>2026-04-06T08:51:22Z</time></trkpt><trkpt lat="45.92294293238365" lon="11.125343458967574"><ele>420.75</ele><time>2026-04-06T08:51:23Z</time></trkpt><trkpt lat="45.922936857155236" lon="11.125190683834894"><ele>418.0</ele><time>2026-04-06T08:51:24Z</time></trkpt><trkpt lat="45.92298438294301" lon="11.125029533757486"><ele>409.75</ele><time>2026-04-06T08:51:25Z</time></trkpt><trkpt lat="45.92302930039946" lon="11.124841175445782"><ele>401.5</ele><time>2026-04-06T08:51:26Z</time></trkpt><trkpt lat="45.92307571161727" lon="11.124664781437101"><ele>393.25</ele><time>2026-04-06T08:51:27Z</time></trkpt><trkpt lat="45.92312634372086" lon="11.12450773665137"><ele>385.0</ele><time>2026-04-06T08:51:28Z</time></trkpt><trkpt lat="45.923205504053676" lon="11.124389599292282"><ele>385.0</ele><time>2026-04-06T08:51:29Z</time></trkpt><trkpt lat="45.92329003059908" lon="11.124328135406568"><ele>385.0</ele><time>2026-04-06T08:51:30Z</time></trkpt><trkpt lat="45.92343750245643" lon="11.1241897867543"><ele>385.0</ele><time>2026-04-06T08:51:31Z</time></trkpt><trkpt lat="45.923546469469606" lon="11.124091643098062"><ele>385.0</ele><time>2026-04-06T08:51:32Z</time></trkpt><trkpt lat="45.923635168205074" lon="11.123941797160832"><ele>392.0</ele><time>2026-04-06T08:51:33Z</time></trkpt><trkpt lat="45.92369533708342" lon="11.123748898810451"><ele>399.0</ele><time>2026-04-06T08:51:34Z</time></trkpt><trkpt lat="45.92373704373992" lon="11.123532248140707"><ele>406.0</ele><time>2026-04-06T08:51:35Z</time></trkpt><trkpt lat="45.923805409478916" lon="11.123331268006464"><ele>400.25</ele><time>2026-04-06T08:51:36Z</time></trkpt><trkpt lat="45.92386317973101" lon="11.123138721652113"><ele>394.5</ele><time>2026-04-06T08:51:37Z</time></trkpt><trkpt lat="45.92392349717866" lon="11.122960266227425"><ele>388.75</ele><time>2026-04-06T08:51:38Z</time></trkpt><trkpt lat="45.92400869769591" lon="11.122822000982412"><ele>383.0</ele><time>2026-04-06T08:51:39Z</time></trkpt><trkpt lat="45.924061081239806" lon="11.122695882836526"><ele>383.0</ele><time>2026-04-06T08:51:40Z</time></trkpt><trkpt lat="45.92406953320054" lon="11.122540779140692"><ele>383.0</ele><time>2026-04-06T08:51:41Z</time></trkpt><trkpt lat="45.92403080385672" lon="11.12238281890162"><ele>383.0</ele><time>2026-04-06T08:51:42Z</time></trkpt><trkpt lat="45.92397033505183" lon="11.122233239077035"><ele>383.0</ele><time>2026-04-06T08:51:43Z</time></trkpt><trkpt lat="45.92395497570504" lon="11.12207097686977"><ele>376.5</ele><time>2026-04-06T08:51:44Z</time></trkpt><trkpt lat="45.92396512082695" lon="11.121919934114613"><ele>370.0</ele><time>2026-04-06T08:51:45Z</time></trkpt><trkpt lat="45.92401394532683" lon="11.12177067116329"><ele>363.5</ele><time>2026-04-06T08:51:46Z</time></trkpt><trkpt lat="45.92410373444259" lon="11.121629527116813"><ele>357.0</ele><time>2026-04-06T08:51:47Z</time></trkpt><trkpt lat="45.924186001492025" lon="11.121453086739235"><ele>358.75</ele><time>2026-04-06T08:51:48Z</time></trkpt><trkpt lat="45.92428173533187" lon="11.121286783559121"><ele>360.5</ele><time>2026-04-06T08:51:49Z</time></trkpt><trkpt lat="45.924372829845844" lon="11.12111986126349"><ele>362.25</ele><time>2026-04-06T08:51:50Z</time></trkpt><trkpt lat="45.92448235441209" lon="11.120993693420845"><ele>364.0</ele><time>2026-04-06T08:51:51Z</time></trkpt><trkpt lat="45.92459252190271" lon="11.120904975811358"><ele>364.0</ele><time>2026-04-06T08:51:52Z</time></trkpt><trkpt lat="45.92471505154096" lon="11.120814776366341"><ele>364.0</ele><time>2026-04-06T08:51:53Z</time></trkpt><trkpt lat="45.924847039002756" lon="11.120757584337309"><ele>364.0</ele><time>2026-04-06T08:51:54Z</time></trkpt><trkpt lat="45.92496587204387" lon="11.120682937027002"><ele>364.0</ele><time>2026-04-06T08:51:55Z</time></trkpt><trkpt lat="45.925076296666255" lon="11.120587902557679"><ele>364.75</ele><time>2026-04-06T08:51:56Z</time></trkpt><trkpt lat="45.925171612601396" lon="11.120480016744636"><ele>365.5</ele><time>2026-04-06T08:51:57Z</time></trkpt><trkpt lat="45.925258548910854" lon="11.120356820115639"><ele>366.25</ele><time>2026-04-06T08:51:58Z</time></trkpt><trkpt lat="45.9253414213009" lon="11.120215114616041"><ele>367.0</ele><time>2026-04-06T08:51:59Z</time></trkpt><trkpt lat="45.925452119763854" lon="11.120119064684056"><ele>367.0</ele><time>2026-04-06T08:52:00Z</time></trkpt><trkpt lat="45.92556826754945" lon="11.12002293282723"><ele>367.0</ele><time>2026-04-06T08:52:01Z</time></trkpt><trkpt lat="45.925687709316975" lon="11.119922378691696"><ele>367.0</ele><time>2026-04-06T08:52:02Z</time></trkpt><trkpt lat="45.92580295624725" lon="11.11980523207224"><ele>367.0</ele><time>2026-04-06T08:52:03Z</time></trkpt><trkpt lat="45.92592983964595" lon="11.119702823124639"><ele>365.5</ele><time>2026-04-06T08:52:04Z</time></trkpt><trkpt lat="45.92605912948124" lon="11.11960617210934"><ele>364.0</ele><time>2026-04-06T08:52:04.999Z</time></trkpt><trkpt lat="45.92618669699194" lon="11.1195195796551"><ele>362.5</ele><time>2026-04-06T08:52:05.999Z</time></trkpt><trkpt lat="45.92631257441788" lon="11.119452185861736"><ele>361.0</ele><time>2026-04-06T08:52:06.999Z</time></trkpt><trkpt lat="45.926431974501554" lon="11.119378370067162"><ele>361.0</ele><time>2026-04-06T08:52:07.999Z</time></trkpt><trkpt lat="45.92654392484385" lon="11.119277510188088"><ele>361.0</ele><time>2026-04-06T08:52:08.999Z</time></trkpt><trkpt lat="45.92664603281118" lon="11.11914295409172"><ele>361.0</ele><time>2026-04-06T08:52:09.999Z</time></trkpt><trkpt lat="45.926754268712436" lon="11.119014536403037"><ele>361.0</ele><time>2026-04-06T08:52:10.999Z</time></trkpt><trkpt lat="45.92684475760067" lon="11.118860524685333"><ele>360.25</ele><time>2026-04-06T08:52:11.999Z</time></trkpt><trkpt lat="45.92694899490146" lon="11.11872066858099"><ele>359.5</ele><time>2026-04-06T08:52:12.999Z</time></trkpt><trkpt lat="45.927061434314105" lon="11.118601904912882"><ele>358.75</ele><time>2026-04-06T08:52:13.999Z</time></trkpt><trkpt lat="45.92715927767963" lon="11.11847661913878"><ele>358.0</ele><time>2026-04-06T08:52:14.999Z</time></trkpt><trkpt lat="45.92724948887771" lon="11.118359288814537"><ele>358.0</ele><time>2026-04-06T08:52:15.999Z</time></trkpt><trkpt lat="45.92731128509203" lon="11.118240010216175"><ele>358.0</ele><time>2026-04-06T08:52:17Z</time></trkpt><trkpt lat="45.92737733622169" lon="11.118163503945162"><ele>358.0</ele><time>2026-04-06T08:52:18Z</time></trkpt><trkpt lat="45.927461464497135" lon="11.11813669045"><ele>358.0</ele><time>2026-04-06T08:52:19Z</time></trkpt><trkpt lat="45.92755191489075" lon="11.118147273414214"><ele>358.0</ele><time>2026-04-06T08:52:20Z</time></trkpt><trkpt lat="45.9276386996532" lon="11.118178809619897"><ele>360.16666666666663</ele><time>2026-04-06T08:52:21Z</time></trkpt><trkpt lat="45.927720901592174" lon="11.118203672403489"><ele>362.3333333333333</ele><time>2026-04-06T08:52:22Z</time></trkpt><trkpt lat="45.927791274158125" lon="11.118176224435578"><ele>364.5</ele><time>2026-04-06T08:52:23Z</time></trkpt><trkpt lat="45.92784893942173" lon="11.118103117328095"><ele>366.6666666666667</ele><time>2026-04-06T08:52:24Z</time></trkpt><trkpt lat="45.92787588378438" lon="11.117984332752842"><ele>368.83333333333337</ele><time>2026-04-06T08:52:25Z</time></trkpt><trkpt lat="45.92786922195933" lon="11.117831738553429"><ele>371.0</ele><time>2026-04-06T08:52:26Z</time></trkpt><trkpt lat="45.927876161826326" lon="11.117668648486566"><ele>371.0</ele><time>2026-04-06T08:52:27Z</time></trkpt><trkpt lat="45.92787294328855" lon="11.117490281601945"><ele>371.0</ele><time>2026-04-06T08:52:28Z</time></trkpt><trkpt lat="45.92789131713497" lon="11.1173116943405"><ele>371.0</ele><time>2026-04-06T08:52:29Z</time></trkpt><trkpt lat="45.927912553979695" lon="11.117125371046082"><ele>371.0</ele><time>2026-04-06T08:52:30Z</time></trkpt><trkpt lat="45.92793669272131" lon="11.116958159727798"><ele>368.20000000000005</ele><time>2026-04-06T08:52:31Z</time></trkpt><trkpt lat="45.92797773776503" lon="11.11682710094127"><ele>365.40000000000003</ele><time>2026-04-06T08:52:32Z</time></trkpt><trkpt lat="45.928040738725485" lon="11.116716990948138"><ele>362.6</ele><time>2026-04-06T08:52:33Z</time></trkpt><trkpt lat="45.928130213769066" lon="11.116611598876046"><ele>359.8</ele><time>2026-04-06T08:52:34Z</time></trkpt><trkpt lat="45.92821388684767" lon="11.116481955942403"><ele>357.0</ele><time>2026-04-06T08:52:35Z</time></trkpt><trkpt lat="45.928290721510315" lon="11.11632378281522"><ele>360.75</ele><time>2026-04-06T08:52:36Z</time></trkpt><trkpt lat="45.92835015773678" lon="11.116147180157053"><ele>364.5</ele><time>2026-04-06T08:52:37Z</time></trkpt><trkpt lat="45.928423293704356" lon="11.115966394835437"><ele>368.25</ele><time>2026-04-06T08:52:38Z</time></trkpt><trkpt lat="45.928485983339726" lon="11.11577629582977"><ele>372.0</ele><time>2026-04-06T08:52:39Z</time></trkpt><trkpt lat="45.92854563007066" lon="11.115581552778362"><ele>362.5</ele><time>2026-04-06T08:52:40Z</time></trkpt><trkpt lat="45.92865742789898" lon="11.115445612828271"><ele>353.0</ele><time>2026-04-06T08:52:41Z</time></trkpt><trkpt lat="45.928763517216105" lon="11.1153101651476"><ele>343.5</ele><time>2026-04-06T08:52:42Z</time></trkpt><trkpt lat="45.9288620338328" lon="11.115163117389566"><ele>334.0</ele><time>2026-04-06T08:52:43Z</time></trkpt><trkpt lat="45.92897625720743" lon="11.115050905490733"><ele>334.0</ele><time>2026-04-06T08:52:44Z</time></trkpt><trkpt lat="45.92907542994755" lon="11.114958552868263"><ele>334.0</ele><time>2026-04-06T08:52:45Z</time></trkpt><trkpt lat="45.92918528151189" lon="11.114906918820532"><ele>334.0</ele><time>2026-04-06T08:52:46Z</time></trkpt><trkpt lat="45.92930518319396" lon="11.114895141738916"><ele>334.0</ele><time>2026-04-06T08:52:47Z</time></trkpt><trkpt lat="45.929419300184954" lon="11.114870495865242"><ele>333.25</ele><time>2026-04-06T08:52:48Z</time></trkpt><trkpt lat="45.929519257634624" lon="11.114781244188906"><ele>332.5</ele><time>2026-04-06T08:52:49Z</time></trkpt><trkpt lat="45.9296064575252" lon="11.114638221376424"><ele>331.75</ele><time>2026-04-06T08:52:50Z</time></trkpt><trkpt lat="45.9296812285878" lon="11.11447266464971"><ele>331.0</ele><time>2026-04-06T08:52:51Z</time></trkpt><trkpt lat="45.929778937872555" lon="11.11432753496522"><ele>331.0</ele><time>2026-04-06T08:52:52Z</time></trkpt><trkpt lat="45.92986265286558" lon="11.114176868299522"><ele>331.0</ele><time>2026-04-06T08:52:53Z</time></trkpt><trkpt lat="45.92997703137934" lon="11.114093094478113"><ele>331.0</ele><time>2026-04-06T08:52:54Z</time></trkpt><trkpt lat="45.93005818999484" lon="11.113983970343094"><ele>331.0</ele><time>2026-04-06T08:52:55Z</time></trkpt><trkpt lat="45.930119502772015" lon="11.113868828296958"><ele>328.25</ele><time>2026-04-06T08:52:56Z</time></trkpt><trkpt lat="45.93014317522708" lon="11.113721637559554"><ele>325.5</ele><time>2026-04-06T08:52:57Z</time></trkpt><trkpt lat="45.93013226792741" lon="11.113563946301982"><ele>322.75</ele><time>2026-04-06T08:52:58Z</time></trkpt><trkpt lat="45.93007833302301" lon="11.11341050135698"><ele>320.0</ele><time>2026-04-06T08:52:59Z</time></trkpt><trkpt lat="45.93003237641479" lon="11.113256359920424"><ele>318.0</ele><time>2026-04-06T08:53:00Z</time></trkpt><trkpt lat="45.929991881716326" lon="11.113123971736442"><ele>316.0</ele><time>2026-04-06T08:53:01Z</time></trkpt><trkpt lat="45.92996398485698" lon="11.112988468752242"><ele>314.0</ele><time>2026-04-06T08:53:02Z</time></trkpt><trkpt lat="45.93003705142216" lon="11.112858039242976"><ele>312.0</ele><time>2026-04-06T08:53:03Z</time></trkpt><trkpt lat="45.930098364467185" lon="11.112702512303184"><ele>310.0</ele><time>2026-04-06T08:53:04Z</time></trkpt><trkpt lat="45.93013852967353" lon="11.112529168826464"><ele>324.0</ele><time>2026-04-06T08:53:05Z</time></trkpt><trkpt lat="45.93017620992272" lon="11.112353390292846"><ele>338.0</ele><time>2026-04-06T08:53:06Z</time></trkpt><trkpt lat="45.930184790822544" lon="11.112176376137539"><ele>352.0</ele><time>2026-04-06T08:53:07Z</time></trkpt><trkpt lat="45.93018374680438" lon="11.11201869640032"><ele>366.0</ele><time>2026-04-06T08:53:08Z</time></trkpt><trkpt lat="45.93016657820671" lon="11.111887375650815"><ele>366.0</ele><time>2026-04-06T08:53:09Z</time></trkpt><trkpt lat="45.9301084731979" lon="11.111776061176913"><ele>366.0</ele><time>2026-04-06T08:53:10Z</time></trkpt><trkpt lat="45.93002091876033" lon="11.111694105312003"><ele>366.0</ele><time>2026-04-06T08:53:11Z</time></trkpt><trkpt lat="45.929925318404116" lon="11.111635120748472"><ele>366.0</ele><time>2026-04-06T08:53:12Z</time></trkpt><trkpt lat="45.9298400681397" lon="11.111598030567395"><ele>366.0</ele><time>2026-04-06T08:53:13Z</time></trkpt><trkpt lat="45.9297663332037" lon="11.111536679972874"><ele>360.0</ele><time>2026-04-06T08:53:14Z</time></trkpt><trkpt lat="45.92975656762143" lon="11.111429092465183"><ele>354.0</ele><time>2026-04-06T08:53:15Z</time></trkpt><trkpt lat="45.929726244775445" lon="11.111298311933679"><ele>348.0</ele><time>2026-04-06T08:53:16Z</time></trkpt><trkpt lat="45.929688279799876" lon="11.111143599157964"><ele>342.0</ele><time>2026-04-06T08:53:17Z</time></trkpt><trkpt lat="45.92967582797741" lon="11.111011883745162"><ele>336.0</ele><time>2026-04-06T08:53:18Z</time></trkpt><trkpt lat="45.92971415373568" lon="11.110883043501024"><ele>342.0</ele><time>2026-04-06T08:53:19Z</time></trkpt><trkpt lat="45.92976148643466" lon="11.110734281500289"><ele>348.0</ele><time>2026-04-06T08:53:20Z</time></trkpt><trkpt lat="45.929784603143816" lon="11.110596469451398"><ele>354.0</ele><time>2026-04-06T08:53:21Z</time></trkpt><trkpt lat="45.92977173609792" lon="11.110464653139209"><ele>360.0</ele><time>2026-04-06T08:53:22Z</time></trkpt><trkpt lat="45.92973012493067" lon="11.110358400158468"><ele>366.0</ele><time>2026-04-06T08:53:23Z</time></trkpt><trkpt lat="45.92967535510121" lon="11.110225055496937"><ele>366.0</ele><time>2026-04-06T08:53:24Z</time></trkpt><trkpt lat="45.92961422048514" lon="11.110082106456334"><ele>366.0</ele><time>2026-04-06T08:53:25Z</time></trkpt><trkpt lat="45.929551593764074" lon="11.109928793992413"><ele>366.0</ele><time>2026-04-06T08:53:26Z</time></trkpt><trkpt lat="45.9294881019144" lon="11.109774146132901"><ele>366.0</ele><time>2026-04-06T08:53:27Z</time></trkpt><trkpt lat="45.929423523587765" lon="11.109622996675107"><ele>379.66666666666663</ele><time>2026-04-06T08:53:28Z</time></trkpt><trkpt lat="45.929328099448526" lon="11.109439143473251"><ele>393.3333333333333</ele><time>2026-04-06T08:53:29Z</time></trkpt><trkpt lat="45.929249388093" lon="11.109264549284557"><ele>407.0</ele><time>2026-04-06T08:53:30Z</time></trkpt><trkpt lat="45.929155306467415" lon="11.10908138884872"><ele>385.3333333333333</ele><time>2026-04-06T08:53:31Z</time></trkpt><trkpt lat="45.929065702327954" lon="11.108902229473161"><ele>363.66666666666663</ele><time>2026-04-06T08:53:32Z</time></trkpt><trkpt lat="45.928961488592705" lon="11.108739546100473"><ele>342.0</ele><time>2026-04-06T08:53:33Z</time></trkpt><trkpt lat="45.928852177232386" lon="11.10858894442814"><ele>342.0</ele><time>2026-04-06T08:53:34Z</time></trkpt><trkpt lat="45.92874154138654" lon="11.108442657833741"><ele>342.0</ele><time>2026-04-06T08:53:35Z</time></trkpt><trkpt lat="45.928639334014065" lon="11.108310065554237"><ele>342.0</ele><time>2026-04-06T08:53:36Z</time></trkpt><trkpt lat="45.92855879333918" lon="11.108201922733123"><ele>342.0</ele><time>2026-04-06T08:53:37Z</time></trkpt><trkpt lat="45.92850457628867" lon="11.10809932005165"><ele>336.75</ele><time>2026-04-06T08:53:38Z</time></trkpt><trkpt lat="45.92847471305941" lon="11.107955652103355"><ele>331.5</ele><time>2026-04-06T08:53:39Z</time></trkpt><trkpt lat="45.928495797133586" lon="11.107803540455796"><ele>326.25</ele><time>2026-04-06T08:53:40Z</time></trkpt><trkpt lat="45.928529117688015" lon="11.107643729232398"><ele>321.0</ele><time>2026-04-06T08:53:41Z</time></trkpt><trkpt lat="45.928601475795794" lon="11.107487619363932"><ele>311.5</ele><time>2026-04-06T08:53:42Z</time></trkpt><trkpt lat="45.92869284967629" lon="11.10734652270417"><ele>302.0</ele><time>2026-04-06T08:53:43Z</time></trkpt><trkpt lat="45.9287870336587" lon="11.107197219560742"><ele>292.5</ele><time>2026-04-06T08:53:44Z</time></trkpt><trkpt lat="45.9288597559786" lon="11.107017679291285"><ele>283.0</ele><time>2026-04-06T08:53:45Z</time></trkpt><trkpt lat="45.92892284303517" lon="11.10681461113083"><ele>283.0</ele><time>2026-04-06T08:53:46Z</time></trkpt><trkpt lat="45.929004513647655" lon="11.106636641508903"><ele>283.0</ele><time>2026-04-06T08:53:47Z</time></trkpt><trkpt lat="45.929084950168836" lon="11.10646471813995"><ele>283.0</ele><time>2026-04-06T08:53:48Z</time></trkpt><trkpt lat="45.92915288455474" lon="11.106287275704295"><ele>283.0</ele><time>2026-04-06T08:53:49Z</time></trkpt><trkpt lat="45.92926140239626" lon="11.10616875564882"><ele>281.75</ele><time>2026-04-06T08:53:50Z</time></trkpt><trkpt lat="45.929342551927526" lon="11.10601571233704"><ele>280.5</ele><time>2026-04-06T08:53:51Z</time></trkpt><trkpt lat="45.92939270086049" lon="11.105867310437198"><ele>279.25</ele><time>2026-04-06T08:53:52Z</time></trkpt><trkpt lat="45.92942320060975" lon="11.105676545200327"><ele>278.0</ele><time>2026-04-06T08:53:53Z</time></trkpt><trkpt lat="45.92943314659698" lon="11.105474834112798"><ele>278.0</ele><time>2026-04-06T08:53:54Z</time></trkpt><trkpt lat="45.929436222406395" lon="11.105276938796248"><ele>278.0</ele><time>2026-04-06T08:53:55Z</time></trkpt><trkpt lat="45.92943004321795" lon="11.105089933527468"><ele>278.0</ele><time>2026-04-06T08:53:56Z</time></trkpt><trkpt lat="45.92938283962715" lon="11.104911181924264"><ele>278.0</ele><time>2026-04-06T08:53:57Z</time></trkpt><trkpt lat="45.92931675357822" lon="11.104740219457932"><ele>271.25</ele><time>2026-04-06T08:53:58Z</time></trkpt><trkpt lat="45.92928106205751" lon="11.104556701367407"><ele>264.5</ele><time>2026-04-06T08:53:59Z</time></trkpt><trkpt lat="45.92927394333712" lon="11.104375625999312"><ele>257.75</ele><time>2026-04-06T08:54:00Z</time></trkpt><trkpt lat="45.92927016706682" lon="11.104210439009293"><ele>251.0</ele><time>2026-04-06T08:54:01Z</time></trkpt><trkpt lat="45.92927566309912" lon="11.1040850947348"><ele>247.0</ele><time>2026-04-06T08:54:02Z</time></trkpt><trkpt lat="45.92928328828344" lon="11.103978985340367"><ele>243.00000000000003</ele><time>2026-04-06T08:54:03Z</time></trkpt><trkpt lat="45.9293534246183" lon="11.103897186958298"><ele>239.00000000000003</ele><time>2026-04-06T08:54:03.999Z</time></trkpt><trkpt lat="45.929454736092154" lon="11.103861917901405"><ele>235.0</ele><time>2026-04-06T08:54:04.999Z</time></trkpt><trkpt lat="45.929556340824014" lon="11.103918565606536"><ele>231.0</ele><time>2026-04-06T08:54:05.999Z</time></trkpt><trkpt lat="45.92967486572809" lon="11.10394435413769"><ele>231.0</ele><time>2026-04-06T08:54:06.999Z</time></trkpt><trkpt lat="45.929781224185426" lon="11.104014216939097"><ele>231.00000000000003</ele><time>2026-04-06T08:54:07.999Z</time></trkpt><trkpt lat="45.92986566757996" lon="11.104052984507462"><ele>231.00000000000003</ele><time>2026-04-06T08:54:08.999Z</time></trkpt><trkpt lat="45.929948704470846" lon="11.104064558679035"><ele>231.0</ele><time>2026-04-06T08:54:09.999Z</time></trkpt><trkpt lat="45.93004615438655" lon="11.103949618978389"><ele>231.0</ele><time>2026-04-06T08:54:11.999Z</time></trkpt><trkpt lat="45.930053486891225" lon="11.103838770955704"><ele>231.0</ele><time>2026-04-06T08:54:12.999Z</time></trkpt><trkpt lat="45.930026044493935" lon="11.103727814475796"><ele>231.00000000000003</ele><time>2026-04-06T08:54:13.999Z</time></trkpt><trkpt lat="45.92996572816211" lon="11.103634787350579"><ele>231.00000000000003</ele><time>2026-04-06T08:54:14.999Z</time></trkpt><trkpt lat="45.92987806995255" lon="11.10356462921209"><ele>231.0</ele><time>2026-04-06T08:54:15.999Z</time></trkpt><trkpt lat="45.92978368308096" lon="11.103500509743263"><ele>231.0</ele><time>2026-04-06T08:54:16.999Z</time></trkpt><trkpt lat="45.92970101146363" lon="11.103410271005117"><ele>231.0</ele><time>2026-04-06T08:54:17.999Z</time></trkpt><trkpt lat="45.92965046887239" lon="11.103267296382896"><ele>231.0</ele><time>2026-04-06T08:54:18.999Z</time></trkpt><trkpt lat="45.929654125961704" lon="11.103091679690335"><ele>231.0</ele><time>2026-04-06T08:54:19.999Z</time></trkpt><trkpt lat="45.929642393698416" lon="11.102911301769447"><ele>231.0</ele><time>2026-04-06T08:54:20.999Z</time></trkpt><trkpt lat="45.929652062353135" lon="11.102731761455026"><ele>230.0</ele><time>2026-04-06T08:54:22Z</time></trkpt><trkpt lat="45.92968090216016" lon="11.102555058844967"><ele>229.0</ele><time>2026-04-06T08:54:23Z</time></trkpt><trkpt lat="45.929711520590345" lon="11.102377023875347"><ele>228.0</ele><time>2026-04-06T08:54:24Z</time></trkpt><trkpt lat="45.92977396309343" lon="11.102217456639393"><ele>227.0</ele><time>2026-04-06T08:54:25Z</time></trkpt><trkpt lat="45.929869672617606" lon="11.10209409111995"><ele>226.25</ele><time>2026-04-06T08:54:26Z</time></trkpt><trkpt lat="45.929983317103364" lon="11.10198904449829"><ele>225.5</ele><time>2026-04-06T08:54:27Z</time></trkpt><trkpt lat="45.93009746977856" lon="11.101867727465235"><ele>224.75</ele><time>2026-04-06T08:54:28Z</time></trkpt><trkpt lat="45.93023311168915" lon="11.101776574027642"><ele>224.0</ele><time>2026-04-06T08:54:29Z</time></trkpt><trkpt lat="45.930366596131954" lon="11.101670298050621"><ele>221.0</ele><time>2026-04-06T08:54:30Z</time></trkpt><trkpt lat="45.930501434239055" lon="11.101560947290332"><ele>218.0</ele><time>2026-04-06T08:54:31Z</time></trkpt><trkpt lat="45.93063320565701" lon="11.10144897769037"><ele>215.0</ele><time>2026-04-06T08:54:32Z</time></trkpt><trkpt lat="45.93075738061261" lon="11.101334433366743"><ele>215.0</ele><time>2026-04-06T08:54:33Z</time></trkpt><trkpt lat="45.9308718700716" lon="11.101200596021693"><ele>215.0</ele><time>2026-04-06T08:54:34Z</time></trkpt><trkpt lat="45.93097173848073" lon="11.101042078085824"><ele>215.0</ele><time>2026-04-06T08:54:35Z</time></trkpt><trkpt lat="45.931051555792685" lon="11.100868097365757"><ele>215.0</ele><time>2026-04-06T08:54:36Z</time></trkpt><trkpt lat="45.93112261314759" lon="11.100676860227049"><ele>213.33333333333334</ele><time>2026-04-06T08:54:37Z</time></trkpt><trkpt lat="45.93119737899096" lon="11.100487469196478"><ele>211.66666666666669</ele><time>2026-04-06T08:54:38Z</time></trkpt><trkpt lat="45.93127611765167" lon="11.100291041019029"><ele>210.0</ele><time>2026-04-06T08:54:39Z</time></trkpt><trkpt lat="45.931363384457754" lon="11.100103096494598"><ele>208.33333333333331</ele><time>2026-04-06T08:54:40Z</time></trkpt><trkpt lat="45.93143861811693" lon="11.099916504239859"><ele>206.66666666666666</ele><time>2026-04-06T08:54:41Z</time></trkpt><trkpt lat="45.931517253152904" lon="11.099725522725254"><ele>205.0</ele><time>2026-04-06T08:54:42Z</time></trkpt><trkpt lat="45.931594364432115" lon="11.099535563767002"><ele>205.0</ele><time>2026-04-06T08:54:43Z</time></trkpt><trkpt lat="45.93167282679359" lon="11.0993520865121"><ele>205.0</ele><time>2026-04-06T08:54:44Z</time></trkpt><trkpt lat="45.93175187137543" lon="11.099166535681507"><ele>205.0</ele><time>2026-04-06T08:54:45Z</time></trkpt><trkpt lat="45.931830770712516" lon="11.098982041975596"><ele>204.0</ele><time>2026-04-06T08:54:46Z</time></trkpt><trkpt lat="45.93190712559066" lon="11.09879718239377"><ele>203.0</ele><time>2026-04-06T08:54:47Z</time></trkpt><trkpt lat="45.93198424038881" lon="11.098609927421741"><ele>202.0</ele><time>2026-04-06T08:54:48Z</time></trkpt><trkpt lat="45.932063760423866" lon="11.098431329622349"><ele>201.0</ele><time>2026-04-06T08:54:49Z</time></trkpt><trkpt lat="45.93214729780395" lon="11.098258152110352"><ele>199.75</ele><time>2026-04-06T08:54:50Z</time></trkpt><trkpt lat="45.93223852526685" lon="11.098089988049386"><ele>198.5</ele><time>2026-04-06T08:54:51Z</time></trkpt><trkpt lat="45.93233410247434" lon="11.097933101745333"><ele>197.25</ele><time>2026-04-06T08:54:52Z</time></trkpt><trkpt lat="45.93243110141625" lon="11.097785513476282"><ele>196.0</ele><time>2026-04-06T08:54:53Z</time></trkpt><trkpt lat="45.93251890007426" lon="11.097632739906823"><ele>195.75</ele><time>2026-04-06T08:54:54Z</time></trkpt><trkpt lat="45.93260622063843" lon="11.097486078291002"><ele>195.5</ele><time>2026-04-06T08:54:55Z</time></trkpt><trkpt lat="45.932691425826036" lon="11.097340918990412"><ele>195.25</ele><time>2026-04-06T08:54:56Z</time></trkpt><trkpt lat="45.932774831471036" lon="11.097200334466196"><ele>195.0</ele><time>2026-04-06T08:54:57Z</time></trkpt><trkpt lat="45.93285452974603" lon="11.09706711363508"><ele>195.0</ele><time>2026-04-06T08:54:58Z</time></trkpt><trkpt lat="45.932934225976446" lon="11.09693235070004"><ele>195.0</ele><time>2026-04-06T08:54:59Z</time></trkpt><trkpt lat="45.93301222753248" lon="11.096800477005955"><ele>195.0</ele><time>2026-04-06T08:55:00Z</time></trkpt><trkpt lat="45.93309447516643" lon="11.096667277713925"><ele>195.0</ele><time>2026-04-06T08:55:01Z</time></trkpt><trkpt lat="45.933175926258585" lon="11.096531961799787"><ele>194.4</ele><time>2026-04-06T08:55:02Z</time></trkpt><trkpt lat="45.93325709382697" lon="11.09639891988885"><ele>193.8</ele><time>2026-04-06T08:55:03Z</time></trkpt><trkpt lat="45.93333190730219" lon="11.096273810719111"><ele>193.2</ele><time>2026-04-06T08:55:04Z</time></trkpt><trkpt lat="45.93340515286361" lon="11.096156745542624"><ele>192.6</ele><time>2026-04-06T08:55:05Z</time></trkpt><trkpt lat="45.93347020374247" lon="11.096059144894435"><ele>192.0</ele><time>2026-04-06T08:55:06Z</time></trkpt><trkpt lat="45.93352814127417" lon="11.095976051533116"><ele>192.0</ele><time>2026-04-06T08:55:07Z</time></trkpt><trkpt lat="45.93357842193299" lon="11.095867326937096"><ele>192.0</ele><time>2026-04-06T08:55:09Z</time></trkpt><trkpt lat="45.93350464131883" lon="11.095685126557537"><ele>192.0</ele><time>2026-04-06T08:55:24Z</time></trkpt><trkpt lat="45.933399648415964" lon="11.095634860796231"><ele>192.0</ele><time>2026-04-06T08:55:26Z</time></trkpt><trkpt lat="45.93328212180497" lon="11.095565842939541"><ele>191.8</ele><time>2026-04-06T08:55:28Z</time></trkpt><trkpt lat="45.93319844440112" lon="11.095534104152234"><ele>191.6</ele><time>2026-04-06T08:55:29Z</time></trkpt><trkpt lat="45.93310716514648" lon="11.09545348665506"><ele>191.4</ele><time>2026-04-06T08:55:30Z</time></trkpt><trkpt lat="45.933003771448675" lon="11.095369303098797"><ele>191.20000000000002</ele><time>2026-04-06T08:55:31Z</time></trkpt><trkpt lat="45.93288934396951" lon="11.095284638183761"><ele>191.0</ele><time>2026-04-06T08:55:32Z</time></trkpt><trkpt lat="45.93276839382338" lon="11.095195053000932"><ele>191.0</ele><time>2026-04-06T08:55:33Z</time></trkpt><trkpt lat="45.932646990367154" lon="11.095100439267553"><ele>191.0</ele><time>2026-04-06T08:55:34Z</time></trkpt><trkpt lat="45.932515682491974" lon="11.095003077331649"><ele>191.0</ele><time>2026-04-06T08:55:35Z</time></trkpt><trkpt lat="45.932385271373235" lon="11.094906666948544"><ele>191.0</ele><time>2026-04-06T08:55:36Z</time></trkpt><trkpt lat="45.93225724974337" lon="11.094807083216773"><ele>190.75</ele><time>2026-04-06T08:55:37Z</time></trkpt><trkpt lat="45.93213150437896" lon="11.094711584504267"><ele>190.5</ele><time>2026-04-06T08:55:38Z</time></trkpt><trkpt lat="45.93200898754463" lon="11.094619543371769"><ele>190.25</ele><time>2026-04-06T08:55:39Z</time></trkpt><trkpt lat="45.931889804856596" lon="11.09452885001808"><ele>190.0</ele><time>2026-04-06T08:55:40Z</time></trkpt><trkpt lat="45.93177536857201" lon="11.094442776392249"><ele>190.25</ele><time>2026-04-06T08:55:41Z</time></trkpt><trkpt lat="45.931671152764714" lon="11.09436091518087"><ele>190.5</ele><time>2026-04-06T08:55:42Z</time></trkpt><trkpt lat="45.93156994018684" lon="11.09428348167161"><ele>190.75</ele><time>2026-04-06T08:55:43Z</time></trkpt><trkpt lat="45.93147203265571" lon="11.0942068232029"><ele>191.0</ele><time>2026-04-06T08:55:44Z</time></trkpt><trkpt lat="45.93137577945139" lon="11.094131969688155"><ele>191.4</ele><time>2026-04-06T08:55:45Z</time></trkpt><trkpt lat="45.93127983813276" lon="11.09405674237172"><ele>191.8</ele><time>2026-04-06T08:55:46Z</time></trkpt><trkpt lat="45.9311872005881" lon="11.093983105500996"><ele>192.20000000000002</ele><time>2026-04-06T08:55:47Z</time></trkpt><trkpt lat="45.931099034385845" lon="11.09391598129944"><ele>192.60000000000002</ele><time>2026-04-06T08:55:48Z</time></trkpt><trkpt lat="45.93100960120916" lon="11.0938459133838"><ele>193.0</ele><time>2026-04-06T08:55:49Z</time></trkpt><trkpt lat="45.93092025847368" lon="11.093774582270465"><ele>194.0</ele><time>2026-04-06T08:55:50Z</time></trkpt><trkpt lat="45.9308223774346" lon="11.093695510025654"><ele>195.0</ele><time>2026-04-06T08:55:51Z</time></trkpt><trkpt lat="45.93072181254003" lon="11.093622224187799"><ele>196.0</ele><time>2026-04-06T08:55:52Z</time></trkpt><trkpt lat="45.93062369061254" lon="11.093545621349843"><ele>197.0</ele><time>2026-04-06T08:55:53Z</time></trkpt><trkpt lat="45.93052273322302" lon="11.09346705337276"><ele>197.0</ele><time>2026-04-06T08:55:54Z</time></trkpt><trkpt lat="45.93041578039221" lon="11.093386224043087"><ele>197.0</ele><time>2026-04-06T08:55:55Z</time></trkpt><trkpt lat="45.930307439033975" lon="11.093315135880049"><ele>197.0</ele><time>2026-04-06T08:55:56Z</time></trkpt><trkpt lat="45.93019235164763" lon="11.093248569675444"><ele>197.0</ele><time>2026-04-06T08:55:57Z</time></trkpt><trkpt lat="45.93007293109373" lon="11.093189183607334"><ele>196.75</ele><time>2026-04-06T08:55:58Z</time></trkpt><trkpt lat="45.92995924353562" lon="11.093138946521027"><ele>196.5</ele><time>2026-04-06T08:55:59Z</time></trkpt><trkpt lat="45.929843902795476" lon="11.093097319317733"><ele>196.25</ele><time>2026-04-06T08:56:00Z</time></trkpt><trkpt lat="45.929728231884546" lon="11.093067154545295"><ele>196.0</ele><time>2026-04-06T08:56:01Z</time></trkpt><trkpt lat="45.92961171099038" lon="11.093055681043069"><ele>196.0</ele><time>2026-04-06T08:56:01.999Z</time></trkpt><trkpt lat="45.92949175758413" lon="11.093055964215337"><ele>196.0</ele><time>2026-04-06T08:56:02.999Z</time></trkpt><trkpt lat="45.92936972307106" lon="11.093058227912048"><ele>196.0</ele><time>2026-04-06T08:56:03.999Z</time></trkpt><trkpt lat="45.929247443697534" lon="11.093061922639532"><ele>196.0</ele><time>2026-04-06T08:56:04.999Z</time></trkpt><trkpt lat="45.92912235869433" lon="11.093068495782672"><ele>195.25</ele><time>2026-04-06T08:56:05.999Z</time></trkpt><trkpt lat="45.9289954110323" lon="11.093070984506577"><ele>194.5</ele><time>2026-04-06T08:56:06.999Z</time></trkpt><trkpt lat="45.92886839227514" lon="11.093074488163715"><ele>193.75</ele><time>2026-04-06T08:56:07.999Z</time></trkpt><trkpt lat="45.92874023290562" lon="11.09307828302703"><ele>193.0</ele><time>2026-04-06T08:56:08.999Z</time></trkpt><trkpt lat="45.928610153099825" lon="11.093086209483658"><ele>193.0</ele><time>2026-04-06T08:56:09.999Z</time></trkpt><trkpt lat="45.9284809418601" lon="11.093092677932733"><ele>193.0</ele><time>2026-04-06T08:56:10.999Z</time></trkpt><trkpt lat="45.92835063788737" lon="11.09309784350992"><ele>193.0</ele><time>2026-04-06T08:56:11.999Z</time></trkpt><trkpt lat="45.928222117063136" lon="11.093101030673076"><ele>193.0</ele><time>2026-04-06T08:56:12.999Z</time></trkpt><trkpt lat="45.928087014147515" lon="11.093108810103034"><ele>191.5</ele><time>2026-04-06T08:56:13.999Z</time></trkpt><trkpt lat="45.927952399264605" lon="11.093117014605216"><ele>190.0</ele><time>2026-04-06T08:56:14.999Z</time></trkpt><trkpt lat="45.92781772117983" lon="11.093122830723457"><ele>188.5</ele><time>2026-04-06T08:56:15.999Z</time></trkpt><trkpt lat="45.927683157455505" lon="11.093124837942097"><ele>187.0</ele><time>2026-04-06T08:56:16.999Z</time></trkpt><trkpt lat="45.92754899987017" lon="11.093127793989549"><ele>185.75</ele><time>2026-04-06T08:56:17.999Z</time></trkpt><trkpt lat="45.927408093972765" lon="11.093130430426353"><ele>184.5</ele><time>2026-04-06T08:56:18.999Z</time></trkpt><trkpt lat="45.92726095370458" lon="11.093132319520322"><ele>183.25</ele><time>2026-04-06T08:56:19.999Z</time></trkpt><trkpt lat="45.92711149999605" lon="11.09313494209286"><ele>182.0</ele><time>2026-04-06T08:56:20.999Z</time></trkpt><trkpt lat="45.926959658109574" lon="11.093141905336726"><ele>182.0</ele><time>2026-04-06T08:56:21.999Z</time></trkpt><trkpt lat="45.926806140798824" lon="11.093146679118147"><ele>182.0</ele><time>2026-04-06T08:56:22.999Z</time></trkpt><trkpt lat="45.92665425925601" lon="11.093151033008088"><ele>182.0</ele><time>2026-04-06T08:56:23.999Z</time></trkpt><trkpt lat="45.92650069056036" lon="11.093155598587419"><ele>181.33333333333331</ele><time>2026-04-06T08:56:24.999Z</time></trkpt><trkpt lat="45.9263473872781" lon="11.093158545802345"><ele>180.66666666666666</ele><time>2026-04-06T08:56:25.999Z</time></trkpt><trkpt lat="45.926192637329926" lon="11.09316261388245"><ele>180.0</ele><time>2026-04-06T08:56:26.999Z</time></trkpt><trkpt lat="45.926036671227564" lon="11.093165336946166"><ele>179.33333333333334</ele><time>2026-04-06T08:56:28Z</time></trkpt><trkpt lat="45.925882487186364" lon="11.093160629246682"><ele>178.66666666666669</ele><time>2026-04-06T08:56:29Z</time></trkpt><trkpt lat="45.92572431607301" lon="11.093148182678652"><ele>178.0</ele><time>2026-04-06T08:56:30Z</time></trkpt><trkpt lat="45.92556705707781" lon="11.093126079238088"><ele>178.0</ele><time>2026-04-06T08:56:31Z</time></trkpt><trkpt lat="45.92541078084659" lon="11.093098402919702"><ele>178.0</ele><time>2026-04-06T08:56:32Z</time></trkpt><trkpt lat="45.925254136716845" lon="11.093067090324586"><ele>178.0</ele><time>2026-04-06T08:56:33Z</time></trkpt><trkpt lat="45.92509649731327" lon="11.093030191463958"><ele>178.66666666666669</ele><time>2026-04-06T08:56:34Z</time></trkpt><trkpt lat="45.924940465529154" lon="11.092988106465846"><ele>179.33333333333334</ele><time>2026-04-06T08:56:35Z</time></trkpt><trkpt lat="45.92478395347506" lon="11.092944058768268"><ele>180.0</ele><time>2026-04-06T08:56:36Z</time></trkpt><trkpt lat="45.92462406847847" lon="11.092897640040064"><ele>180.0</ele><time>2026-04-06T08:56:37Z</time></trkpt><trkpt lat="45.92446194510488" lon="11.0928512478456"><ele>180.0</ele><time>2026-04-06T08:56:38Z</time></trkpt><trkpt lat="45.92429688619053" lon="11.09280963693745"><ele>180.0</ele><time>2026-04-06T08:56:39Z</time></trkpt><trkpt lat="45.92413283743857" lon="11.092766946827124"><ele>181.33333333333334</ele><time>2026-04-06T08:56:40Z</time></trkpt><trkpt lat="45.923967020819305" lon="11.092718594015691"><ele>182.66666666666669</ele><time>2026-04-06T08:56:41Z</time></trkpt><trkpt lat="45.92380245118945" lon="11.092667805702334"><ele>184.0</ele><time>2026-04-06T08:56:42Z</time></trkpt><trkpt lat="45.92363757895457" lon="11.09261473935443"><ele>184.0</ele><time>2026-04-06T08:56:43Z</time></trkpt><trkpt lat="45.92347199924686" lon="11.092560497810794"><ele>184.0</ele><time>2026-04-06T08:56:44Z</time></trkpt><trkpt lat="45.923310489674" lon="11.092498540210334"><ele>184.0</ele><time>2026-04-06T08:56:45Z</time></trkpt><trkpt lat="45.92314930558291" lon="11.092428814175632"><ele>182.33333333333334</ele><time>2026-04-06T08:56:46Z</time></trkpt><trkpt lat="45.92299011716169" lon="11.092349324594743"><ele>180.66666666666666</ele><time>2026-04-06T08:56:47Z</time></trkpt><trkpt lat="45.92283376639353" lon="11.092257599934623"><ele>179.0</ele><time>2026-04-06T08:56:48Z</time></trkpt><trkpt lat="45.922683179250306" lon="11.09215950125342"><ele>181.0</ele><time>2026-04-06T08:56:49Z</time></trkpt><trkpt lat="45.92253867360139" lon="11.09205255475738"><ele>183.0</ele><time>2026-04-06T08:56:50Z</time></trkpt><trkpt lat="45.9223947541145" lon="11.091936167616263"><ele>185.0</ele><time>2026-04-06T08:56:51Z</time></trkpt><trkpt lat="45.92225651376882" lon="11.091815308431206"><ele>185.0</ele><time>2026-04-06T08:56:52Z</time></trkpt><trkpt lat="45.92212633652001" lon="11.091684748410126"><ele>185.0</ele><time>2026-04-06T08:56:53Z</time></trkpt><trkpt lat="45.921997032584095" lon="11.09155230324109"><ele>185.0</ele><time>2026-04-06T08:56:54Z</time></trkpt><trkpt lat="45.92186957701211" lon="11.091413373940046"><ele>183.66666666666666</ele><time>2026-04-06T08:56:55Z</time></trkpt><trkpt lat="45.92174648129987" lon="11.091265165775763"><ele>182.33333333333334</ele><time>2026-04-06T08:56:56Z</time></trkpt><trkpt lat="45.921626052104706" lon="11.091109305195348"><ele>181.0</ele><time>2026-04-06T08:56:57Z</time></trkpt><trkpt lat="45.92150724229064" lon="11.09095017263297"><ele>181.0</ele><time>2026-04-06T08:56:58Z</time></trkpt><trkpt lat="45.92139195052786" lon="11.090789952054251"><ele>181.0</ele><time>2026-04-06T08:56:59Z</time></trkpt><trkpt lat="45.921279962405634" lon="11.090633201814208"><ele>181.0</ele><time>2026-04-06T08:57:00Z</time></trkpt><trkpt lat="45.921174288374495" lon="11.090474343854087"><ele>181.0</ele><time>2026-04-06T08:57:01Z</time></trkpt><trkpt lat="45.92107381474798" lon="11.090307178719733"><ele>181.0</ele><time>2026-04-06T08:57:02Z</time></trkpt><trkpt lat="45.920978265041406" lon="11.090133043477927"><ele>181.0</ele><time>2026-04-06T08:57:03Z</time></trkpt><trkpt lat="45.92088441150618" lon="11.089955570011027"><ele>179.66666666666669</ele><time>2026-04-06T08:57:04Z</time></trkpt><trkpt lat="45.92079495938416" lon="11.08977037654812"><ele>178.33333333333334</ele><time>2026-04-06T08:57:05Z</time></trkpt><trkpt lat="45.920707693724395" lon="11.08958375084391"><ele>177.0</ele><time>2026-04-06T08:57:06Z</time></trkpt><trkpt lat="45.92061695710604" lon="11.089404232171198"><ele>177.0</ele><time>2026-04-06T08:57:07Z</time></trkpt><trkpt lat="45.920526909979635" lon="11.089223627511306"><ele>177.0</ele><time>2026-04-06T08:57:08Z</time></trkpt><trkpt lat="45.92043639298717" lon="11.089036938818326"><ele>177.0</ele><time>2026-04-06T08:57:09Z</time></trkpt><trkpt lat="45.92034902832284" lon="11.088849354524582"><ele>176.33333333333334</ele><time>2026-04-06T08:57:10Z</time></trkpt><trkpt lat="45.92026581497237" lon="11.088657402607314"><ele>175.66666666666669</ele><time>2026-04-06T08:57:11Z</time></trkpt><trkpt lat="45.92019032057899" lon="11.088458471061259"><ele>175.0</ele><time>2026-04-06T08:57:12Z</time></trkpt><trkpt lat="45.92012031033922" lon="11.088256233228803"><ele>175.66666666666669</ele><time>2026-04-06T08:57:13Z</time></trkpt><trkpt lat="45.92004951617437" lon="11.088052255666295"><ele>176.33333333333334</ele><time>2026-04-06T08:57:14Z</time></trkpt><trkpt lat="45.91997680134646" lon="11.087846967472585"><ele>177.0</ele><time>2026-04-06T08:57:15Z</time></trkpt><trkpt lat="45.9199053951875" lon="11.087643662537749"><ele>177.0</ele><time>2026-04-06T08:57:16Z</time></trkpt><trkpt lat="45.91983474217184" lon="11.087442735760062"><ele>177.0</ele><time>2026-04-06T08:57:17Z</time></trkpt><trkpt lat="45.919771834182896" lon="11.087239291188462"><ele>177.0</ele><time>2026-04-06T08:57:18Z</time></trkpt><trkpt lat="45.9197208737207" lon="11.087039789500826"><ele>176.33333333333334</ele><time>2026-04-06T08:57:19Z</time></trkpt><trkpt lat="45.91967430919841" lon="11.086834802972986"><ele>175.66666666666669</ele><time>2026-04-06T08:57:20Z</time></trkpt><trkpt lat="45.919635470238205" lon="11.086626730484944"><ele>175.0</ele><time>2026-04-06T08:57:21Z</time></trkpt><trkpt lat="45.91959378134566" lon="11.086403630573049"><ele>175.0</ele><time>2026-04-06T08:57:22Z</time></trkpt><trkpt lat="45.91955692222641" lon="11.086174881412935"><ele>175.0</ele><time>2026-04-06T08:57:23Z</time></trkpt><trkpt lat="45.919522147847246" lon="11.085939705230427"><ele>175.0</ele><time>2026-04-06T08:57:24Z</time></trkpt><trkpt lat="45.91948941654304" lon="11.085698684859105"><ele>175.33333333333334</ele><time>2026-04-06T08:57:25Z</time></trkpt><trkpt lat="45.91945423358091" lon="11.085457739746532"><ele>175.66666666666666</ele><time>2026-04-06T08:57:26Z</time></trkpt><trkpt lat="45.91942039502644" lon="11.085217269979498"><ele>176.0</ele><time>2026-04-06T08:57:27Z</time></trkpt><trkpt lat="45.919388710846334" lon="11.084979347399766"><ele>176.0</ele><time>2026-04-06T08:57:28Z</time></trkpt><trkpt lat="45.91935707072587" lon="11.08474135086144"><ele>176.0</ele><time>2026-04-06T08:57:29Z</time></trkpt><trkpt lat="45.91932549772099" lon="11.08449957563122"><ele>176.0</ele><time>2026-04-06T08:57:30Z</time></trkpt><trkpt lat="45.919294953675426" lon="11.08426329560698"><ele>176.0</ele><time>2026-04-06T08:57:31Z</time></trkpt><trkpt lat="45.91926319836233" lon="11.084025672738857"><ele>176.0</ele><time>2026-04-06T08:57:32Z</time></trkpt><trkpt lat="45.91922759804077" lon="11.083794185259439"><ele>176.0</ele><time>2026-04-06T08:57:33Z</time></trkpt><trkpt lat="45.91918812999562" lon="11.083560105737993"><ele>176.0</ele><time>2026-04-06T08:57:34Z</time></trkpt><trkpt lat="45.9191456611941" lon="11.083328500142745"><ele>176.0</ele><time>2026-04-06T08:57:35Z</time></trkpt><trkpt lat="45.91909158442571" lon="11.083093892035826"><ele>176.0</ele><time>2026-04-06T08:57:36Z</time></trkpt><trkpt lat="45.919022336421904" lon="11.082872045819578"><ele>175.66666666666666</ele><time>2026-04-06T08:57:37Z</time></trkpt><trkpt lat="45.9189520963013" lon="11.082649766610318"><ele>175.33333333333334</ele><time>2026-04-06T08:57:38Z</time></trkpt><trkpt lat="45.91888296309949" lon="11.082428022255394"><ele>175.0</ele><time>2026-04-06T08:57:39Z</time></trkpt><trkpt lat="45.91881618138682" lon="11.08221340455681"><ele>175.0</ele><time>2026-04-06T08:57:40Z</time></trkpt><trkpt lat="45.918750157054085" lon="11.082005221319347"><ele>175.0</ele><time>2026-04-06T08:57:41Z</time></trkpt><trkpt lat="45.918686017702605" lon="11.081800084649052"><ele>175.0</ele><time>2026-04-06T08:57:42Z</time></trkpt><trkpt lat="45.918626091412314" lon="11.081603336539915"><ele>175.5</ele><time>2026-04-06T08:57:43Z</time></trkpt><trkpt lat="45.918566531444796" lon="11.081408438160432"><ele>176.0</ele><time>2026-04-06T08:57:44Z</time></trkpt><trkpt lat="45.91850893431529" lon="11.08121618909109"><ele>176.5</ele><time>2026-04-06T08:57:45Z</time></trkpt><trkpt lat="45.91844685744497" lon="11.081018352040962"><ele>177.0</ele><time>2026-04-06T08:57:46Z</time></trkpt><trkpt lat="45.918386504564" lon="11.080822572105035"><ele>177.25</ele><time>2026-04-06T08:57:47Z</time></trkpt><trkpt lat="45.91832693257844" lon="11.080625223750447"><ele>177.5</ele><time>2026-04-06T08:57:48Z</time></trkpt><trkpt lat="45.91826455738904" lon="11.080435585864855"><ele>177.75</ele><time>2026-04-06T08:57:49Z</time></trkpt><trkpt lat="45.91821062504545" lon="11.080254835614411"><ele>178.0</ele><time>2026-04-06T08:57:50Z</time></trkpt><trkpt lat="45.91815631406921" lon="11.080069540721494"><ele>178.0</ele><time>2026-04-06T08:57:51Z</time></trkpt><trkpt lat="45.918106691997004" lon="11.079877441975711"><ele>178.0</ele><time>2026-04-06T08:57:52Z</time></trkpt><trkpt lat="45.918067684131266" lon="11.079682624376517"><ele>178.0</ele><time>2026-04-06T08:57:53Z</time></trkpt><trkpt lat="45.91803347700599" lon="11.079482508292637"><ele>178.0</ele><time>2026-04-06T08:57:54Z</time></trkpt><trkpt lat="45.91800919150343" lon="11.07927852771551"><ele>177.5</ele><time>2026-04-06T08:57:55Z</time></trkpt><trkpt lat="45.91799387827172" lon="11.07907045247726"><ele>177.0</ele><time>2026-04-06T08:57:56Z</time></trkpt><trkpt lat="45.91798269953019" lon="11.078859009073875"><ele>176.5</ele><time>2026-04-06T08:57:57Z</time></trkpt><trkpt lat="45.91798153240594" lon="11.078641581073526"><ele>176.0</ele><time>2026-04-06T08:57:58Z</time></trkpt><trkpt lat="45.91799071531476" lon="11.07842718720046"><ele>175.66666666666666</ele><time>2026-04-06T08:57:59Z</time></trkpt><trkpt lat="45.917997320301836" lon="11.078206616460335"><ele>175.33333333333334</ele><time>2026-04-06T08:57:59.999Z</time></trkpt><trkpt lat="45.918005037280594" lon="11.07798630954044"><ele>175.0</ele><time>2026-04-06T08:58:00.999Z</time></trkpt><trkpt lat="45.9180107101824" lon="11.077761545105306"><ele>175.0</ele><time>2026-04-06T08:58:01.999Z</time></trkpt><trkpt lat="45.91801753412682" lon="11.077539316038763"><ele>175.0</ele><time>2026-04-06T08:58:02.999Z</time></trkpt><trkpt lat="45.91802416468095" lon="11.077325246482426"><ele>175.0</ele><time>2026-04-06T08:58:03.999Z</time></trkpt><trkpt lat="45.9180299963952" lon="11.077113661877025"><ele>175.0</ele><time>2026-04-06T08:58:04.999Z</time></trkpt><trkpt lat="45.91803611730254" lon="11.076912707766114"><ele>175.0</ele><time>2026-04-06T08:58:05.999Z</time></trkpt><trkpt lat="45.918039409018995" lon="11.076713202021992"><ele>175.0</ele><time>2026-04-06T08:58:06.999Z</time></trkpt><trkpt lat="45.9180407195082" lon="11.076507783700198"><ele>175.0</ele><time>2026-04-06T08:58:07.999Z</time></trkpt><trkpt lat="45.91803963885976" lon="11.076296198933123"><ele>175.0</ele><time>2026-04-06T08:58:08.999Z</time></trkpt><trkpt lat="45.91803444066219" lon="11.0760815459427"><ele>175.0</ele><time>2026-04-06T08:58:09.999Z</time></trkpt><trkpt lat="45.91802694201777" lon="11.07586105698935"><ele>175.0</ele><time>2026-04-06T08:58:10.999Z</time></trkpt><trkpt lat="45.91800881594513" lon="11.075636580408473"><ele>175.0</ele><time>2026-04-06T08:58:11.999Z</time></trkpt><trkpt lat="45.91798118635804" lon="11.07541221237213"><ele>175.0</ele><time>2026-04-06T08:58:12.999Z</time></trkpt><trkpt lat="45.917942985297685" lon="11.075191988948244"><ele>175.0</ele><time>2026-04-06T08:58:13.999Z</time></trkpt><trkpt lat="45.91789671594435" lon="11.07497806673055"><ele>174.5</ele><time>2026-04-06T08:58:14.999Z</time></trkpt><trkpt lat="45.917840476479356" lon="11.074775543445112"><ele>174.0</ele><time>2026-04-06T08:58:15.999Z</time></trkpt><trkpt lat="45.91777281162201" lon="11.074587000030247"><ele>173.5</ele><time>2026-04-06T08:58:16.999Z</time></trkpt><trkpt lat="45.91769685307223" lon="11.074414729648133"><ele>173.0</ele><time>2026-04-06T08:58:17.999Z</time></trkpt><trkpt lat="45.917616002559946" lon="11.074251346074352"><ele>173.5</ele><time>2026-04-06T08:58:18.999Z</time></trkpt><trkpt lat="45.91753395903177" lon="11.074097062179433"><ele>174.0</ele><time>2026-04-06T08:58:19.999Z</time></trkpt><trkpt lat="45.91745749599904" lon="11.073947329394661"><ele>174.5</ele><time>2026-04-06T08:58:20.999Z</time></trkpt><trkpt lat="45.917388359751364" lon="11.073803629209118"><ele>175.0</ele><time>2026-04-06T08:58:21.999Z</time></trkpt><trkpt lat="45.9173261702732" lon="11.07365079027478"><ele>175.0</ele><time>2026-04-06T08:58:22.999Z</time></trkpt><trkpt lat="45.91726731978031" lon="11.073483508201564"><ele>175.0</ele><time>2026-04-06T08:58:23.999Z</time></trkpt><trkpt lat="45.91721887290802" lon="11.073308173614828"><ele>175.0</ele><time>2026-04-06T08:58:24.999Z</time></trkpt><trkpt lat="45.91718299614292" lon="11.073118196988696"><ele>175.0</ele><time>2026-04-06T08:58:25.999Z</time></trkpt><trkpt lat="45.91716007562712" lon="11.07292433000677"><ele>174.75</ele><time>2026-04-06T08:58:26.999Z</time></trkpt><trkpt lat="45.91714913889727" lon="11.072723367442903"><ele>174.5</ele><time>2026-04-06T08:58:27.999Z</time></trkpt><trkpt lat="45.91714933745126" lon="11.072515578677635"><ele>174.25</ele><time>2026-04-06T08:58:28.999Z</time></trkpt><trkpt lat="45.91715505274794" lon="11.07230662626715"><ele>174.0</ele><time>2026-04-06T08:58:29.999Z</time></trkpt><trkpt lat="45.9171591944649" lon="11.072103588105083"><ele>174.0</ele><time>2026-04-06T08:58:30.999Z</time></trkpt><trkpt lat="45.9171604944758" lon="11.071908184977907"><ele>174.0</ele><time>2026-04-06T08:58:31.999Z</time></trkpt><trkpt lat="45.91716452418163" lon="11.071718519949357"><ele>174.0</ele><time>2026-04-06T08:58:32.999Z</time></trkpt><trkpt lat="45.91717499111852" lon="11.071530066688796"><ele>174.0</ele><time>2026-04-06T08:58:34Z</time></trkpt><trkpt lat="45.917191518221195" lon="11.071347197791596"><ele>174.0</ele><time>2026-04-06T08:58:35Z</time></trkpt><trkpt lat="45.91721456684042" lon="11.071170516890794"><ele>174.0</ele><time>2026-04-06T08:58:36Z</time></trkpt><trkpt lat="45.917247104148444" lon="11.070993869119217"><ele>174.0</ele><time>2026-04-06T08:58:37Z</time></trkpt><trkpt lat="45.91728440696596" lon="11.07081252110751"><ele>174.0</ele><time>2026-04-06T08:58:38Z</time></trkpt><trkpt lat="45.91731785664285" lon="11.070637857940465"><ele>174.0</ele><time>2026-04-06T08:58:39Z</time></trkpt><trkpt lat="45.91735221370478" lon="11.070468967817364"><ele>174.0</ele><time>2026-04-06T08:58:40Z</time></trkpt><trkpt lat="45.91738477188405" lon="11.070297052486591"><ele>174.0</ele><time>2026-04-06T08:58:41Z</time></trkpt><trkpt lat="45.9174186218695" lon="11.070111297565354"><ele>174.0</ele><time>2026-04-06T08:58:42Z</time></trkpt><trkpt lat="45.91745515210318" lon="11.069921481324492"><ele>174.25</ele><time>2026-04-06T08:58:43Z</time></trkpt><trkpt lat="45.91749038727835" lon="11.069737591458473"><ele>174.5</ele><time>2026-04-06T08:58:44Z</time></trkpt><trkpt lat="45.91752582821675" lon="11.069549705898305"><ele>174.75</ele><time>2026-04-06T08:58:45Z</time></trkpt><trkpt lat="45.91756089558084" lon="11.069368176562396"><ele>175.0</ele><time>2026-04-06T08:58:46Z</time></trkpt><trkpt lat="45.91759454585948" lon="11.069188018251449"><ele>175.25</ele><time>2026-04-06T08:58:47Z</time></trkpt><trkpt lat="45.91762719905549" lon="11.069014312410483"><ele>175.5</ele><time>2026-04-06T08:58:48Z</time></trkpt><trkpt lat="45.91765869719632" lon="11.068844146399076"><ele>175.75</ele><time>2026-04-06T08:58:49Z</time></trkpt><trkpt lat="45.917692096058246" lon="11.068667235505794"><ele>176.0</ele><time>2026-04-06T08:58:50Z</time></trkpt><trkpt lat="45.917727103759546" lon="11.068482725353466"><ele>176.0</ele><time>2026-04-06T08:58:51Z</time></trkpt><trkpt lat="45.917759204104485" lon="11.068299138973083"><ele>176.0</ele><time>2026-04-06T08:58:52Z</time></trkpt><trkpt lat="45.91779142246736" lon="11.068116811877248"><ele>176.0</ele><time>2026-04-06T08:58:53Z</time></trkpt><trkpt lat="45.91782261126012" lon="11.067948537758655"><ele>176.0</ele><time>2026-04-06T08:58:54Z</time></trkpt><trkpt lat="45.91785066052563" lon="11.067782546814918"><ele>176.5</ele><time>2026-04-06T08:58:55Z</time></trkpt><trkpt lat="45.91787933224347" lon="11.067620763982525"><ele>177.0</ele><time>2026-04-06T08:58:56Z</time></trkpt><trkpt lat="45.91790720640099" lon="11.067460984959167"><ele>177.5</ele><time>2026-04-06T08:58:57Z</time></trkpt><trkpt lat="45.91793474627197" lon="11.067304444739934"><ele>178.0</ele><time>2026-04-06T08:58:58Z</time></trkpt><trkpt lat="45.91796342087871" lon="11.067150705613113"><ele>178.25</ele><time>2026-04-06T08:58:59Z</time></trkpt><trkpt lat="45.917992818569324" lon="11.066995801001447"><ele>178.5</ele><time>2026-04-06T08:59:00Z</time></trkpt><trkpt lat="45.91802089679606" lon="11.066838277313924"><ele>178.75</ele><time>2026-04-06T08:59:01Z</time></trkpt><trkpt lat="45.91803966249798" lon="11.066671654661281"><ele>179.0</ele><time>2026-04-06T08:59:02Z</time></trkpt><trkpt lat="45.918043354986416" lon="11.066504287385373"><ele>180.0</ele><time>2026-04-06T08:59:03Z</time></trkpt><trkpt lat="45.91805956935114" lon="11.066335985441555"><ele>181.0</ele><time>2026-04-06T08:59:04Z</time></trkpt><trkpt lat="45.9180540679178" lon="11.066159138076836"><ele>182.0</ele><time>2026-04-06T08:59:05Z</time></trkpt><trkpt lat="45.91804312042748" lon="11.06597578310836"><ele>183.0</ele><time>2026-04-06T08:59:06Z</time></trkpt><trkpt lat="45.91802784794045" lon="11.065767774782966"><ele>183.33333333333334</ele><time>2026-04-06T08:59:07Z</time></trkpt><trkpt lat="45.918009478662434" lon="11.065542155019491"><ele>183.66666666666669</ele><time>2026-04-06T08:59:08Z</time></trkpt><trkpt lat="45.917988801908315" lon="11.065303583438753"><ele>184.0</ele><time>2026-04-06T08:59:09Z</time></trkpt><trkpt lat="45.917967977608114" lon="11.065068460486433"><ele>183.66666666666669</ele><time>2026-04-06T08:59:10Z</time></trkpt><trkpt lat="45.91793454951499" lon="11.06483495570195"><ele>183.33333333333334</ele><time>2026-04-06T08:59:11Z</time></trkpt><trkpt lat="45.91792557353895" lon="11.06459665209826"><ele>183.0</ele><time>2026-04-06T08:59:12Z</time></trkpt><trkpt lat="45.91790997618551" lon="11.064360172774727"><ele>183.0</ele><time>2026-04-06T08:59:13Z</time></trkpt><trkpt lat="45.91789439959257" lon="11.064131880531017"><ele>183.0</ele><time>2026-04-06T08:59:14Z</time></trkpt><trkpt lat="45.91787706415432" lon="11.063914533381762"><ele>183.0</ele><time>2026-04-06T08:59:15Z</time></trkpt><trkpt lat="45.917856314885015" lon="11.06369959571563"><ele>183.25</ele><time>2026-04-06T08:59:16Z</time></trkpt><trkpt lat="45.917829223488674" lon="11.063490710831237"><ele>183.5</ele><time>2026-04-06T08:59:17Z</time></trkpt><trkpt lat="45.91779493028988" lon="11.063283821171495"><ele>183.75</ele><time>2026-04-06T08:59:18Z</time></trkpt><trkpt lat="45.9177522038343" lon="11.06308012926073"><ele>184.0</ele><time>2026-04-06T08:59:19Z</time></trkpt><trkpt lat="45.91770055393678" lon="11.062866056939356"><ele>184.0</ele><time>2026-04-06T08:59:20Z</time></trkpt><trkpt lat="45.91764800591177" lon="11.062654696473"><ele>184.0</ele><time>2026-04-06T08:59:21Z</time></trkpt><trkpt lat="45.917590690814244" lon="11.062441168731185"><ele>184.0</ele><time>2026-04-06T08:59:22Z</time></trkpt><trkpt lat="45.91753798412917" lon="11.062224917254484"><ele>184.33333333333334</ele><time>2026-04-06T08:59:23Z</time></trkpt><trkpt lat="45.91749151546596" lon="11.062005289699286"><ele>184.66666666666666</ele><time>2026-04-06T08:59:24Z</time></trkpt><trkpt lat="45.91745128815765" lon="11.06178657834899"><ele>185.0</ele><time>2026-04-06T08:59:25Z</time></trkpt><trkpt lat="45.917415310632485" lon="11.061568601694262"><ele>185.0</ele><time>2026-04-06T08:59:26Z</time></trkpt><trkpt lat="45.91738091174555" lon="11.061348595766708"><ele>185.0</ele><time>2026-04-06T08:59:27Z</time></trkpt><trkpt lat="45.91734927407139" lon="11.061126706552988"><ele>185.0</ele><time>2026-04-06T08:59:28Z</time></trkpt><trkpt lat="45.91732710458789" lon="11.060904687703971"><ele>185.33333333333331</ele><time>2026-04-06T08:59:29Z</time></trkpt><trkpt lat="45.91731425415639" lon="11.06067801729094"><ele>185.66666666666666</ele><time>2026-04-06T08:59:30Z</time></trkpt><trkpt lat="45.91730559686579" lon="11.060451204288631"><ele>186.0</ele><time>2026-04-06T08:59:31Z</time></trkpt><trkpt lat="45.91730058265217" lon="11.06022480486666"><ele>186.0</ele><time>2026-04-06T08:59:32Z</time></trkpt><trkpt lat="45.91729713525574" lon="11.059998758403099"><ele>186.0</ele><time>2026-04-06T08:59:33Z</time></trkpt><trkpt lat="45.917296098145506" lon="11.059770607431211"><ele>186.0</ele><time>2026-04-06T08:59:34Z</time></trkpt><trkpt lat="45.91729663916054" lon="11.059540815637172"><ele>186.33333333333334</ele><time>2026-04-06T08:59:35Z</time></trkpt><trkpt lat="45.917298742454854" lon="11.059308311283456"><ele>186.66666666666669</ele><time>2026-04-06T08:59:36Z</time></trkpt><trkpt lat="45.917299911894446" lon="11.059074125111081"><ele>187.0</ele><time>2026-04-06T08:59:37Z</time></trkpt><trkpt lat="45.91729769206004" lon="11.058838105304522"><ele>187.0</ele><time>2026-04-06T08:59:38Z</time></trkpt><trkpt lat="45.917295828933156" lon="11.058603897822445"><ele>187.0</ele><time>2026-04-06T08:59:39Z</time></trkpt><trkpt lat="45.917293671432375" lon="11.058367228058499"><ele>187.0</ele><time>2026-04-06T08:59:40Z</time></trkpt><trkpt lat="45.91729254733465" lon="11.058127395468683"><ele>186.33333333333334</ele><time>2026-04-06T08:59:41Z</time></trkpt><trkpt lat="45.91729416142774" lon="11.057888070752584"><ele>185.66666666666666</ele><time>2026-04-06T08:59:42Z</time></trkpt><trkpt lat="45.91729385722037" lon="11.057643731474874"><ele>185.0</ele><time>2026-04-06T08:59:43Z</time></trkpt><trkpt lat="45.91729153363729" lon="11.057398924881596"><ele>185.0</ele><time>2026-04-06T08:59:44Z</time></trkpt><trkpt lat="45.917289646293554" lon="11.057154073436834"><ele>185.0</ele><time>2026-04-06T08:59:45Z</time></trkpt><trkpt lat="45.91728515464105" lon="11.056904245946926"><ele>185.0</ele><time>2026-04-06T08:59:46Z</time></trkpt><trkpt lat="45.9172747694729" lon="11.056657764123935"><ele>185.0</ele><time>2026-04-06T08:59:47Z</time></trkpt><trkpt lat="45.91725804288989" lon="11.056408526870165"><ele>185.0</ele><time>2026-04-06T08:59:48Z</time></trkpt><trkpt lat="45.91723895777178" lon="11.05616074378371"><ele>185.0</ele><time>2026-04-06T08:59:49Z</time></trkpt><trkpt lat="45.91722080425856" lon="11.05591279485188"><ele>184.66666666666666</ele><time>2026-04-06T08:59:50Z</time></trkpt><trkpt lat="45.9172029396019" lon="11.055665675964894"><ele>184.33333333333334</ele><time>2026-04-06T08:59:51Z</time></trkpt><trkpt lat="45.9171889831099" lon="11.05541779585728"><ele>184.0</ele><time>2026-04-06T08:59:52Z</time></trkpt><trkpt lat="45.91718017463752" lon="11.055170126372122"><ele>184.33333333333334</ele><time>2026-04-06T08:59:53Z</time></trkpt><trkpt lat="45.917169737368916" lon="11.054928368538771"><ele>184.66666666666666</ele><time>2026-04-06T08:59:54Z</time></trkpt><trkpt lat="45.91715246952758" lon="11.054685466508989"><ele>185.0</ele><time>2026-04-06T08:59:55Z</time></trkpt><trkpt lat="45.91713671218584" lon="11.05444552930025"><ele>185.0</ele><time>2026-04-06T08:59:56Z</time></trkpt><trkpt lat="45.917121823492316" lon="11.054203435374319"><ele>185.0</ele><time>2026-04-06T08:59:57Z</time></trkpt><trkpt lat="45.91710855239442" lon="11.053960193009274"><ele>185.0</ele><time>2026-04-06T08:59:58Z</time></trkpt><trkpt lat="45.9170960979157" lon="11.05371890837101"><ele>185.33333333333331</ele><time>2026-04-06T08:59:59Z</time></trkpt><trkpt lat="45.91707910599028" lon="11.0534812060027"><ele>185.66666666666666</ele><time>2026-04-06T09:00:00Z</time></trkpt><trkpt lat="45.917054506450455" lon="11.053240275704233"><ele>186.0</ele><time>2026-04-06T09:00:01Z</time></trkpt><trkpt lat="45.9170306234148" lon="11.053002084364106"><ele>185.33333333333334</ele><time>2026-04-06T09:00:01.999Z</time></trkpt><trkpt lat="45.917002047702425" lon="11.052760584184963"><ele>184.66666666666669</ele><time>2026-04-06T09:00:02.999Z</time></trkpt><trkpt lat="45.9169640426155" lon="11.05251977218341"><ele>184.0</ele><time>2026-04-06T09:00:03.999Z</time></trkpt><trkpt lat="45.91691514438237" lon="11.052279035639074"><ele>182.66666666666669</ele><time>2026-04-06T09:00:04.999Z</time></trkpt><trkpt lat="45.91685306593093" lon="11.052038391670758"><ele>181.33333333333334</ele><time>2026-04-06T09:00:05.999Z</time></trkpt><trkpt lat="45.91679007925479" lon="11.05179659653241"><ele>180.0</ele><time>2026-04-06T09:00:06.999Z</time></trkpt><trkpt lat="45.91672319803107" lon="11.051556131215495"><ele>183.33333333333334</ele><time>2026-04-06T09:00:07.999Z</time></trkpt><trkpt lat="45.91665563470403" lon="11.051313625755311"><ele>186.66666666666669</ele><time>2026-04-06T09:00:08.999Z</time></trkpt><trkpt lat="45.91659944909821" lon="11.051068473761578"><ele>190.0</ele><time>2026-04-06T09:00:09.999Z</time></trkpt><trkpt lat="45.916555012560906" lon="11.050816754915845"><ele>189.66666666666669</ele><time>2026-04-06T09:00:10.999Z</time></trkpt><trkpt lat="45.91652799480532" lon="11.050563372895692"><ele>189.33333333333334</ele><time>2026-04-06T09:00:11.999Z</time></trkpt><trkpt lat="45.91649969580667" lon="11.05030518131067"><ele>189.0</ele><time>2026-04-06T09:00:12.999Z</time></trkpt><trkpt lat="45.916468414761354" lon="11.050051781168346"><ele>188.33333333333334</ele><time>2026-04-06T09:00:13.999Z</time></trkpt><trkpt lat="45.91642481257589" lon="11.049804378663147"><ele>187.66666666666669</ele><time>2026-04-06T09:00:14.999Z</time></trkpt><trkpt lat="45.91636197197722" lon="11.049567985200355"><ele>187.0</ele><time>2026-04-06T09:00:15.999Z</time></trkpt><trkpt lat="45.91627447762929" lon="11.049342966357187"><ele>187.0</ele><time>2026-04-06T09:00:16.999Z</time></trkpt><trkpt lat="45.916171283535235" lon="11.049130878237621"><ele>187.0</ele><time>2026-04-06T09:00:17.999Z</time></trkpt><trkpt lat="45.91605898162118" lon="11.048931797391036"><ele>187.0</ele><time>2026-04-06T09:00:18.999Z</time></trkpt><trkpt lat="45.915930396526456" lon="11.048750220334641"><ele>187.0</ele><time>2026-04-06T09:00:19.999Z</time></trkpt><trkpt lat="45.91579284320551" lon="11.048583773273606"><ele>187.0</ele><time>2026-04-06T09:00:20.999Z</time></trkpt><trkpt lat="45.91564847783249" lon="11.048422601248143"><ele>187.0</ele><time>2026-04-06T09:00:21.999Z</time></trkpt><trkpt lat="45.91550438845745" lon="11.048259696079505"><ele>187.0</ele><time>2026-04-06T09:00:22.999Z</time></trkpt><trkpt lat="45.91536352257991" lon="11.048090322012076"><ele>187.0</ele><time>2026-04-06T09:00:23.999Z</time></trkpt><trkpt lat="45.91522661749621" lon="11.047913184820764"><ele>187.0</ele><time>2026-04-06T09:00:24.999Z</time></trkpt><trkpt lat="45.91509917457694" lon="11.047722579482308"><ele>189.33333333333334</ele><time>2026-04-06T09:00:25.999Z</time></trkpt><trkpt lat="45.914985579639186" lon="11.047513048270725"><ele>191.66666666666669</ele><time>2026-04-06T09:00:26.999Z</time></trkpt><trkpt lat="45.91488256690821" lon="11.047296710016616"><ele>194.0</ele><time>2026-04-06T09:00:27.999Z</time></trkpt><trkpt lat="45.914790090576986" lon="11.047079794782263"><ele>194.0</ele><time>2026-04-06T09:00:28.999Z</time></trkpt><trkpt lat="45.91471015838384" lon="11.04685606531531"><ele>194.0</ele><time>2026-04-06T09:00:29.999Z</time></trkpt><trkpt lat="45.91463548014563" lon="11.046633640941854"><ele>194.0</ele><time>2026-04-06T09:00:30.999Z</time></trkpt><trkpt lat="45.91455933115677" lon="11.046417145322067"><ele>194.0</ele><time>2026-04-06T09:00:31.999Z</time></trkpt><trkpt lat="45.91446355650475" lon="11.04622074768101"><ele>194.0</ele><time>2026-04-06T09:00:32.999Z</time></trkpt><trkpt lat="45.914349141078" lon="11.046043942763555"><ele>194.0</ele><time>2026-04-06T09:00:33.999Z</time></trkpt><trkpt lat="45.914220790978746" lon="11.045879245016216"><ele>196.0</ele><time>2026-04-06T09:00:34.999Z</time></trkpt><trkpt lat="45.91408455890165" lon="11.045721427009962"><ele>198.0</ele><time>2026-04-06T09:00:35.999Z</time></trkpt><trkpt lat="45.91394197317297" lon="11.045570106114017"><ele>200.0</ele><time>2026-04-06T09:00:36.999Z</time></trkpt><trkpt lat="45.913800610323804" lon="11.04541729033283"><ele>200.0</ele><time>2026-04-06T09:00:37.999Z</time></trkpt><trkpt lat="45.9136596405247" lon="11.045255724863217"><ele>200.0</ele><time>2026-04-06T09:00:38.999Z</time></trkpt><trkpt lat="45.913523439945884" lon="11.045088618955784"><ele>200.0</ele><time>2026-04-06T09:00:40Z</time></trkpt><trkpt lat="45.91339121348322" lon="11.044917746492416"><ele>200.33333333333334</ele><time>2026-04-06T09:00:41Z</time></trkpt><trkpt lat="45.91325861317786" lon="11.044748899566999"><ele>200.66666666666669</ele><time>2026-04-06T09:00:42Z</time></trkpt><trkpt lat="45.91313007918589" lon="11.044575936452231"><ele>201.0</ele><time>2026-04-06T09:00:43Z</time></trkpt><trkpt lat="45.913008641612365" lon="11.044399108601032"><ele>201.0</ele><time>2026-04-06T09:00:44Z</time></trkpt><trkpt lat="45.91289325242237" lon="11.044221421910255"><ele>201.0</ele><time>2026-04-06T09:00:45Z</time></trkpt><trkpt lat="45.91276731526939" lon="11.044053193560066"><ele>201.0</ele><time>2026-04-06T09:00:46Z</time></trkpt><trkpt lat="45.91262379939798" lon="11.04391993269129"><ele>201.0</ele><time>2026-04-06T09:00:47Z</time></trkpt><trkpt lat="45.912468217104845" lon="11.043805943336874"><ele>201.0</ele><time>2026-04-06T09:00:48Z</time></trkpt><trkpt lat="45.91231449325837" lon="11.0436814856164"><ele>201.0</ele><time>2026-04-06T09:00:49Z</time></trkpt><trkpt lat="45.91218111446774" lon="11.04351808067903"><ele>201.0</ele><time>2026-04-06T09:00:50Z</time></trkpt><trkpt lat="45.912053636621685" lon="11.043344841752798"><ele>201.0</ele><time>2026-04-06T09:00:51Z</time></trkpt><trkpt lat="45.91192607479914" lon="11.043180483242507"><ele>201.0</ele><time>2026-04-06T09:00:52Z</time></trkpt><trkpt lat="45.91181897398641" lon="11.043004799048177"><ele>202.33333333333331</ele><time>2026-04-06T09:00:53Z</time></trkpt><trkpt lat="45.91171741903558" lon="11.042839262075406"><ele>203.66666666666666</ele><time>2026-04-06T09:00:54Z</time></trkpt><trkpt lat="45.91160893875328" lon="11.042679723196969"><ele>205.0</ele><time>2026-04-06T09:00:55Z</time></trkpt><trkpt lat="45.911497554382784" lon="11.042544497064624"><ele>204.4</ele><time>2026-04-06T09:00:56Z</time></trkpt><trkpt lat="45.91139381366181" lon="11.042431846739358"><ele>203.8</ele><time>2026-04-06T09:00:57Z</time></trkpt><trkpt lat="45.91130011202028" lon="11.04234136729262"><ele>203.2</ele><time>2026-04-06T09:00:58Z</time></trkpt><trkpt lat="45.91121096635603" lon="11.042260823125401"><ele>202.6</ele><time>2026-04-06T09:00:59Z</time></trkpt><trkpt lat="45.91112440043294" lon="11.042192553496566"><ele>202.0</ele><time>2026-04-06T09:01:00Z</time></trkpt><trkpt lat="45.91104062081086" lon="11.04212841139916"><ele>201.99999999999997</ele><time>2026-04-06T09:01:01Z</time></trkpt><trkpt lat="45.91096046901241" lon="11.042070551892394"><ele>202.0</ele><time>2026-04-06T09:01:02Z</time></trkpt><trkpt lat="45.91089285554628" lon="11.042018100662045"><ele>202.0</ele><time>2026-04-06T09:01:03Z</time></trkpt><trkpt lat="45.910822006206914" lon="11.041967217462398"><ele>202.0</ele><time>2026-04-06T09:01:04Z</time></trkpt><trkpt lat="45.910754903002235" lon="11.041917692505763"><ele>201.99999999999997</ele><time>2026-04-06T09:01:05Z</time></trkpt><trkpt lat="45.91068966074955" lon="11.041874654870455"><ele>202.0</ele><time>2026-04-06T09:01:06Z</time></trkpt><trkpt lat="45.910626970271686" lon="11.041839591924148"><ele>202.49999999999997</ele><time>2026-04-06T09:01:07Z</time></trkpt><trkpt lat="45.910565007576835" lon="11.041808891434025"><ele>203.0</ele><time>2026-04-06T09:01:08Z</time></trkpt><trkpt lat="45.910451798629765" lon="11.041766879266634"><ele>203.5</ele><time>2026-04-06T09:01:10Z</time></trkpt><trkpt lat="45.91039078800216" lon="11.041744384023445"><ele>204.0</ele><time>2026-04-06T09:01:11Z</time></trkpt><trkpt lat="45.910324761228914" lon="11.041720478251495"><ele>204.49999999999997</ele><time>2026-04-06T09:01:12Z</time></trkpt><trkpt lat="45.91025434684473" lon="11.041698755759668"><ele>205.0</ele><time>2026-04-06T09:01:13Z</time></trkpt><trkpt lat="45.910187484444194" lon="11.041673620676347"><ele>205.0</ele><time>2026-04-06T09:01:14Z</time></trkpt><trkpt lat="45.9101246372561" lon="11.041641584246515"><ele>205.0</ele><time>2026-04-06T09:01:15Z</time></trkpt><trkpt lat="45.91001447783306" lon="11.04158247183644"><ele>205.0</ele><time>2026-04-06T09:01:17Z</time></trkpt><trkpt lat="45.90991184364998" lon="11.041512336630413"><ele>205.0</ele><time>2026-04-06T09:01:19Z</time></trkpt><trkpt lat="45.90982044734611" lon="11.041453454645271"><ele>205.0</ele><time>2026-04-06T09:01:21Z</time></trkpt><trkpt lat="45.90969475177058" lon="11.041409041590724"><ele>204.83333333333331</ele><time>2026-04-06T09:01:23Z</time></trkpt><trkpt lat="45.909613339091024" lon="11.041365943591613"><ele>204.66666666666666</ele><time>2026-04-06T09:01:24Z</time></trkpt><trkpt lat="45.90953119901147" lon="11.041314769874809"><ele>204.5</ele><time>2026-04-06T09:01:25Z</time></trkpt><trkpt lat="45.909452846809764" lon="11.041267674869497"><ele>204.33333333333331</ele><time>2026-04-06T09:01:26Z</time></trkpt><trkpt lat="45.90938341069597" lon="11.041198746083412"><ele>204.16666666666666</ele><time>2026-04-06T09:01:27Z</time></trkpt><trkpt lat="45.9093091408301" lon="11.041156961032891"><ele>204.0</ele><time>2026-04-06T09:01:28Z</time></trkpt><trkpt lat="45.90923883716295" lon="11.041119270363483"><ele>204.0</ele><time>2026-04-06T09:01:29Z</time></trkpt><trkpt lat="45.90917254226569" lon="11.041084931150941"><ele>204.0</ele><time>2026-04-06T09:01:30Z</time></trkpt><trkpt lat="45.909072139914485" lon="11.041032926004481"><ele>204.0</ele><time>2026-04-06T09:01:32Z</time></trkpt><trkpt lat="45.9090092804548" lon="11.04100032178682"><ele>204.0</ele><time>2026-04-06T09:01:34Z</time></trkpt><trkpt lat="45.90894064076453" lon="11.040992493393288"><ele>204.0</ele><time>2026-04-06T09:01:36Z</time></trkpt><trkpt lat="45.908858428896046" lon="11.040922341010576"><ele>204.0</ele><time>2026-04-06T09:01:38Z</time></trkpt><trkpt lat="45.908820598307926" lon="11.040848193523148"><ele>202.6</ele><time>2026-04-06T09:01:39Z</time></trkpt><trkpt lat="45.90873000983235" lon="11.040724984147941"><ele>201.2</ele><time>2026-04-06T09:01:41Z</time></trkpt><trkpt lat="45.9086553099353" lon="11.040706349237906"><ele>199.79999999999998</ele><time>2026-04-06T09:01:42Z</time></trkpt><trkpt lat="45.90856801518759" lon="11.040700853721107"><ele>198.39999999999998</ele><time>2026-04-06T09:01:43Z</time></trkpt><trkpt lat="45.90848551347737" lon="11.040686113041513"><ele>197.0</ele><time>2026-04-06T09:01:44Z</time></trkpt><trkpt lat="45.90839969533457" lon="11.040665719287428"><ele>197.00000000000003</ele><time>2026-04-06T09:01:45Z</time></trkpt><trkpt lat="45.908312640775236" lon="11.040637938324451"><ele>197.0</ele><time>2026-04-06T09:01:46Z</time></trkpt><trkpt lat="45.908235290548404" lon="11.04060380035836"><ele>197.0</ele><time>2026-04-06T09:01:47Z</time></trkpt><trkpt lat="45.9081549861463" lon="11.040567866754676"><ele>197.0</ele><time>2026-04-06T09:01:48Z</time></trkpt><trkpt lat="45.9080669050676" lon="11.040526480265108"><ele>197.00000000000003</ele><time>2026-04-06T09:01:49Z</time></trkpt><trkpt lat="45.90797130637249" lon="11.040472734785912"><ele>197.0</ele><time>2026-04-06T09:01:50Z</time></trkpt><trkpt lat="45.90787112294747" lon="11.040414215369315"><ele>197.0</ele><time>2026-04-06T09:01:51Z</time></trkpt><trkpt lat="45.90777117376473" lon="11.040361336582263"><ele>197.0</ele><time>2026-04-06T09:01:52Z</time></trkpt><trkpt lat="45.90766450203519" lon="11.04030396677128"><ele>197.0</ele><time>2026-04-06T09:01:53Z</time></trkpt><trkpt lat="45.907557606805675" lon="11.040239993534442"><ele>197.0</ele><time>2026-04-06T09:01:54Z</time></trkpt><trkpt lat="45.90744799522205" lon="11.040173597188316"><ele>197.5</ele><time>2026-04-06T09:01:55Z</time></trkpt><trkpt lat="45.90733724360482" lon="11.040103786473985"><ele>198.0</ele><time>2026-04-06T09:01:56Z</time></trkpt><trkpt lat="45.907224188661225" lon="11.040021151229647"><ele>198.5</ele><time>2026-04-06T09:01:57Z</time></trkpt><trkpt lat="45.90711255591618" lon="11.039929037876142"><ele>199.0</ele><time>2026-04-06T09:01:58Z</time></trkpt><trkpt lat="45.90700037853616" lon="11.03983374635383"><ele>197.5</ele><time>2026-04-06T09:01:59Z</time></trkpt><trkpt lat="45.90689369089847" lon="11.039739766154002"><ele>196.0</ele><time>2026-04-06T09:02:00Z</time></trkpt><trkpt lat="45.906791734159455" lon="11.03964248029212"><ele>194.5</ele><time>2026-04-06T09:02:01Z</time></trkpt><trkpt lat="45.906690246364704" lon="11.039536349138249"><ele>193.0</ele><time>2026-04-06T09:02:02Z</time></trkpt><trkpt lat="45.906591708791865" lon="11.03942249312618"><ele>193.0</ele><time>2026-04-06T09:02:02.999Z</time></trkpt><trkpt lat="45.90649269639408" lon="11.039309083479289"><ele>193.0</ele><time>2026-04-06T09:02:03.999Z</time></trkpt><trkpt lat="45.90639542181135" lon="11.039197572425913"><ele>193.0</ele><time>2026-04-06T09:02:04.999Z</time></trkpt><trkpt lat="45.90629435299723" lon="11.03907591419878"><ele>193.0</ele><time>2026-04-06T09:02:05.999Z</time></trkpt><trkpt lat="45.90618360019649" lon="11.03894461744052"><ele>191.33333333333331</ele><time>2026-04-06T09:02:06.999Z</time></trkpt><trkpt lat="45.90606828442229" lon="11.038811474055025"><ele>189.66666666666666</ele><time>2026-04-06T09:02:07.999Z</time></trkpt><trkpt lat="45.905946848591284" lon="11.038673911521336"><ele>188.0</ele><time>2026-04-06T09:02:08.999Z</time></trkpt><trkpt lat="45.905833499304954" lon="11.03850398743417"><ele>188.0</ele><time>2026-04-06T09:02:09.999Z</time></trkpt><trkpt lat="45.90570954355861" lon="11.03835453623274"><ele>188.0</ele><time>2026-04-06T09:02:10.999Z</time></trkpt><trkpt lat="45.90558499647875" lon="11.038204372069284"><ele>188.0</ele><time>2026-04-06T09:02:11.999Z</time></trkpt><trkpt lat="45.9054614808458" lon="11.038055451537433"><ele>185.0</ele><time>2026-04-06T09:02:12.999Z</time></trkpt><trkpt lat="45.90532723867391" lon="11.037920637045563"><ele>182.0</ele><time>2026-04-06T09:02:13.999Z</time></trkpt><trkpt lat="45.905206566538496" lon="11.037773229320555"><ele>179.0</ele><time>2026-04-06T09:02:14.999Z</time></trkpt><trkpt lat="45.90508852029642" lon="11.037629214895475"><ele>180.25</ele><time>2026-04-06T09:02:15.999Z</time></trkpt><trkpt lat="45.904972064178835" lon="11.037492248561643"><ele>181.5</ele><time>2026-04-06T09:02:16.999Z</time></trkpt><trkpt lat="45.90485629975522" lon="11.037355997463289"><ele>182.75</ele><time>2026-04-06T09:02:17.999Z</time></trkpt><trkpt lat="45.90474394547469" lon="11.037222396077716"><ele>184.0</ele><time>2026-04-06T09:02:18.999Z</time></trkpt><trkpt lat="45.90463295112817" lon="11.03709179227065"><ele>184.0</ele><time>2026-04-06T09:02:19.999Z</time></trkpt><trkpt lat="45.904525369473845" lon="11.036963813156696"><ele>184.0</ele><time>2026-04-06T09:02:20.999Z</time></trkpt><trkpt lat="45.904423610686806" lon="11.03684081032601"><ele>184.0</ele><time>2026-04-06T09:02:21.999Z</time></trkpt><trkpt lat="45.904325121612096" lon="11.036727170312101"><ele>184.0</ele><time>2026-04-06T09:02:22.999Z</time></trkpt><trkpt lat="45.904221219007816" lon="11.03662517425588"><ele>182.75</ele><time>2026-04-06T09:02:23.999Z</time></trkpt><trkpt lat="45.90411072400114" lon="11.036534849648735"><ele>181.5</ele><time>2026-04-06T09:02:24.999Z</time></trkpt><trkpt lat="45.90399388889759" lon="11.036458762541328"><ele>180.25</ele><time>2026-04-06T09:02:25.999Z</time></trkpt><trkpt lat="45.90387724861565" lon="11.036392919209502"><ele>179.0</ele><time>2026-04-06T09:02:26.999Z</time></trkpt><trkpt lat="45.90375128512398" lon="11.036334956425168"><ele>179.0</ele><time>2026-04-06T09:02:27.999Z</time></trkpt><trkpt lat="45.90361794119853" lon="11.036284592716639"><ele>179.0</ele><time>2026-04-06T09:02:28.999Z</time></trkpt><trkpt lat="45.90347588418712" lon="11.03624319059693"><ele>179.0</ele><time>2026-04-06T09:02:29.999Z</time></trkpt><trkpt lat="45.90331969660488" lon="11.036209250310156"><ele>179.0</ele><time>2026-04-06T09:02:30.999Z</time></trkpt><trkpt lat="45.90315306856667" lon="11.036173801152707"><ele>179.0</ele><time>2026-04-06T09:02:31.999Z</time></trkpt><trkpt lat="45.90297852972497" lon="11.036134694008501"><ele>179.0</ele><time>2026-04-06T09:02:32.999Z</time></trkpt><trkpt lat="45.90280174398046" lon="11.036093355224178"><ele>179.0</ele><time>2026-04-06T09:02:33.999Z</time></trkpt><trkpt lat="45.90262262484688" lon="11.036055854546277"><ele>178.33333333333331</ele><time>2026-04-06T09:02:34.999Z</time></trkpt><trkpt lat="45.90244528572911" lon="11.036020246881073"><ele>177.66666666666666</ele><time>2026-04-06T09:02:35.999Z</time></trkpt><trkpt lat="45.90227235082353" lon="11.03598261331867"><ele>177.0</ele><time>2026-04-06T09:02:36.999Z</time></trkpt><trkpt lat="45.90209656465216" lon="11.035948506450472"><ele>177.0</ele><time>2026-04-06T09:02:37.999Z</time></trkpt><trkpt lat="45.90192348316731" lon="11.035911118359982"><ele>177.0</ele><time>2026-04-06T09:02:38.999Z</time></trkpt><trkpt lat="45.90175122495461" lon="11.035874190612443"><ele>177.0</ele><time>2026-04-06T09:02:39.999Z</time></trkpt><trkpt lat="45.901579738531034" lon="11.03583612780176"><ele>176.0</ele><time>2026-04-06T09:02:40.999Z</time></trkpt><trkpt lat="45.90140775468739" lon="11.035800200353696"><ele>175.0</ele><time>2026-04-06T09:02:41.999Z</time></trkpt><trkpt lat="45.90123506973131" lon="11.03576529448718"><ele>174.0</ele><time>2026-04-06T09:02:42.999Z</time></trkpt><trkpt lat="45.90106344740121" lon="11.035727912795195"><ele>173.66666666666666</ele><time>2026-04-06T09:02:43.999Z</time></trkpt><trkpt lat="45.900890427381285" lon="11.03569158575479"><ele>173.33333333333331</ele><time>2026-04-06T09:02:44.999Z</time></trkpt><trkpt lat="45.900721533749866" lon="11.035657673035022"><ele>173.0</ele><time>2026-04-06T09:02:46Z</time></trkpt><trkpt lat="45.90056776114749" lon="11.03562790852592"><ele>173.0</ele><time>2026-04-06T09:02:47Z</time></trkpt><trkpt lat="45.90041611522243" lon="11.035596023894522"><ele>173.0</ele><time>2026-04-06T09:02:48Z</time></trkpt><trkpt lat="45.900270393166785" lon="11.035568391871116"><ele>173.0</ele><time>2026-04-06T09:02:49Z</time></trkpt><trkpt lat="45.90013430100466" lon="11.035543749931879"><ele>173.0</ele><time>2026-04-06T09:02:50Z</time></trkpt><trkpt lat="45.89999403018702" lon="11.035515064949319"><ele>174.0</ele><time>2026-04-06T09:02:51Z</time></trkpt><trkpt lat="45.899853251749875" lon="11.035483401941734"><ele>175.0</ele><time>2026-04-06T09:02:52Z</time></trkpt><trkpt lat="45.89971143646176" lon="11.035446136264495"><ele>176.0</ele><time>2026-04-06T09:02:53Z</time></trkpt><trkpt lat="45.89956790877838" lon="11.035410814786411"><ele>177.0</ele><time>2026-04-06T09:02:54Z</time></trkpt><trkpt lat="45.899422842250424" lon="11.035378903739092"><ele>177.0</ele><time>2026-04-06T09:02:55Z</time></trkpt><trkpt lat="45.89927619989051" lon="11.035347862350738"><ele>177.0</ele><time>2026-04-06T09:02:56Z</time></trkpt><trkpt lat="45.89912517949193" lon="11.03531590690322"><ele>177.0</ele><time>2026-04-06T09:02:57Z</time></trkpt><trkpt lat="45.89897673289165" lon="11.035282744928109"><ele>177.75</ele><time>2026-04-06T09:02:58Z</time></trkpt><trkpt lat="45.898829378775964" lon="11.035248895552014"><ele>178.5</ele><time>2026-04-06T09:02:59Z</time></trkpt><trkpt lat="45.89868866717171" lon="11.035216255122602"><ele>179.25</ele><time>2026-04-06T09:03:00Z</time></trkpt><trkpt lat="45.898551004903716" lon="11.035187697799275"><ele>180.0</ele><time>2026-04-06T09:03:01Z</time></trkpt><trkpt lat="45.89841181194494" lon="11.03515241841819"><ele>180.75</ele><time>2026-04-06T09:03:02Z</time></trkpt><trkpt lat="45.89826916692181" lon="11.0351254097866"><ele>181.5</ele><time>2026-04-06T09:03:03Z</time></trkpt><trkpt lat="45.89812758962176" lon="11.035091250990757"><ele>182.25</ele><time>2026-04-06T09:03:04Z</time></trkpt><trkpt lat="45.897987182885046" lon="11.035056321937494"><ele>183.0</ele><time>2026-04-06T09:03:05Z</time></trkpt><trkpt lat="45.897845717297464" lon="11.035024306258663"><ele>183.0</ele><time>2026-04-06T09:03:06Z</time></trkpt><trkpt lat="45.89770214874122" lon="11.03499484857249"><ele>183.0</ele><time>2026-04-06T09:03:07Z</time></trkpt><trkpt lat="45.897555220975356" lon="11.034964688935057"><ele>183.0</ele><time>2026-04-06T09:03:08Z</time></trkpt><trkpt lat="45.89741139938947" lon="11.03493659050768"><ele>183.0</ele><time>2026-04-06T09:03:09Z</time></trkpt><trkpt lat="45.89726677350485" lon="11.034912103212568"><ele>183.0</ele><time>2026-04-06T09:03:10Z</time></trkpt><trkpt lat="45.897120975461256" lon="11.034884779671405"><ele>183.0</ele><time>2026-04-06T09:03:11Z</time></trkpt><trkpt lat="45.89697443431833" lon="11.034855623969499"><ele>183.0</ele><time>2026-04-06T09:03:12Z</time></trkpt><trkpt lat="45.89682632763912" lon="11.034824653201431"><ele>183.0</ele><time>2026-04-06T09:03:13Z</time></trkpt><trkpt lat="45.896677433111726" lon="11.034795855580006"><ele>183.25</ele><time>2026-04-06T09:03:14Z</time></trkpt><trkpt lat="45.896534820288316" lon="11.034769257880248"><ele>183.5</ele><time>2026-04-06T09:03:15Z</time></trkpt><trkpt lat="45.89639865551543" lon="11.034737128002227"><ele>183.75</ele><time>2026-04-06T09:03:16Z</time></trkpt><trkpt lat="45.896269200661955" lon="11.034705345868867"><ele>184.0</ele><time>2026-04-06T09:03:17Z</time></trkpt><trkpt lat="45.89614764899489" lon="11.034678345841055"><ele>184.0</ele><time>2026-04-06T09:03:18Z</time></trkpt><trkpt lat="45.896029698139834" lon="11.0346535261038"><ele>184.0</ele><time>2026-04-06T09:03:19Z</time></trkpt><trkpt lat="45.89591564434411" lon="11.034627920542556"><ele>184.0</ele><time>2026-04-06T09:03:20Z</time></trkpt><trkpt lat="45.89580058809913" lon="11.03460444129838"><ele>184.0</ele><time>2026-04-06T09:03:21Z</time></trkpt><trkpt lat="45.895684127117974" lon="11.034575031760733"><ele>184.0</ele><time>2026-04-06T09:03:22Z</time></trkpt><trkpt lat="45.89555878233704" lon="11.03455363015326"><ele>184.0</ele><time>2026-04-06T09:03:23Z</time></trkpt><trkpt lat="45.895430043397546" lon="11.034527001757812"><ele>184.0</ele><time>2026-04-06T09:03:24Z</time></trkpt><trkpt lat="45.895296196868685" lon="11.0344995528353"><ele>184.0</ele><time>2026-04-06T09:03:25Z</time></trkpt><trkpt lat="45.89515877691985" lon="11.034471007803546"><ele>184.75</ele><time>2026-04-06T09:03:26Z</time></trkpt><trkpt lat="45.895016268299486" lon="11.034439207475971"><ele>185.5</ele><time>2026-04-06T09:03:27Z</time></trkpt><trkpt lat="45.89487247260858" lon="11.034404698057566"><ele>186.25</ele><time>2026-04-06T09:03:28Z</time></trkpt><trkpt lat="45.89473059215478" lon="11.034371440045671"><ele>187.0</ele><time>2026-04-06T09:03:29Z</time></trkpt><trkpt lat="45.89459345717524" lon="11.034341637605884"><ele>187.0</ele><time>2026-04-06T09:03:30Z</time></trkpt><trkpt lat="45.89446409388679" lon="11.034315240060225"><ele>187.0</ele><time>2026-04-06T09:03:31Z</time></trkpt><trkpt lat="45.894341224292205" lon="11.03428946638115"><ele>187.0</ele><time>2026-04-06T09:03:32Z</time></trkpt><trkpt lat="45.89422519691336" lon="11.034261065498196"><ele>187.0</ele><time>2026-04-06T09:03:33Z</time></trkpt><trkpt lat="45.89410853041785" lon="11.034238180196319"><ele>187.0</ele><time>2026-04-06T09:03:34Z</time></trkpt><trkpt lat="45.89399178812311" lon="11.034224793368377"><ele>187.0</ele><time>2026-04-06T09:03:35Z</time></trkpt><trkpt lat="45.893884875767455" lon="11.034221719032802"><ele>187.0</ele><time>2026-04-06T09:03:36Z</time></trkpt><trkpt lat="45.89379009342943" lon="11.034227452502945"><ele>187.0</ele><time>2026-04-06T09:03:37Z</time></trkpt><trkpt lat="45.89370167534779" lon="11.034235092355678"><ele>187.0</ele><time>2026-04-06T09:03:38Z</time></trkpt><trkpt lat="45.89361856649473" lon="11.034239103613384"><ele>187.0</ele><time>2026-04-06T09:03:39Z</time></trkpt><trkpt lat="45.89354375193613" lon="11.03424048754311"><ele>187.0</ele><time>2026-04-06T09:03:40Z</time></trkpt><trkpt lat="45.89347490027763" lon="11.034240452091838"><ele>187.0</ele><time>2026-04-06T09:03:41Z</time></trkpt><trkpt lat="45.893392590049295" lon="11.034247620272609"><ele>187.0</ele><time>2026-04-06T09:03:42Z</time></trkpt><trkpt lat="45.89329724528186" lon="11.034257348973668"><ele>187.0</ele><time>2026-04-06T09:03:43Z</time></trkpt><trkpt lat="45.89319679307669" lon="11.034267596418065"><ele>187.0</ele><time>2026-04-06T09:03:44Z</time></trkpt><trkpt lat="45.89308302867686" lon="11.034254682816139"><ele>187.25</ele><time>2026-04-06T09:03:45Z</time></trkpt><trkpt lat="45.89295594075845" lon="11.03425900216228"><ele>187.5</ele><time>2026-04-06T09:03:46Z</time></trkpt><trkpt lat="45.89282801301" lon="11.034263442205436"><ele>187.75</ele><time>2026-04-06T09:03:47Z</time></trkpt><trkpt lat="45.89271071785089" lon="11.034267038309107"><ele>188.0</ele><time>2026-04-06T09:03:48Z</time></trkpt><trkpt lat="45.892598182796625" lon="11.034293057090474"><ele>188.0</ele><time>2026-04-06T09:03:49Z</time></trkpt><trkpt lat="45.892491179426955" lon="11.03429302384052"><ele>188.0</ele><time>2026-04-06T09:03:50Z</time></trkpt><trkpt lat="45.892390106112344" lon="11.034290845279846"><ele>188.0</ele><time>2026-04-06T09:03:51Z</time></trkpt><trkpt lat="45.89229618859681" lon="11.034287915033456"><ele>188.0</ele><time>2026-04-06T09:03:52Z</time></trkpt><trkpt lat="45.89220460572247" lon="11.034286245193496"><ele>188.0</ele><time>2026-04-06T09:03:53Z</time></trkpt><trkpt lat="45.89212034035174" lon="11.034285110274675"><ele>188.0</ele><time>2026-04-06T09:03:54Z</time></trkpt><trkpt lat="45.89203202255054" lon="11.034283130778713"><ele>188.0</ele><time>2026-04-06T09:03:55Z</time></trkpt><trkpt lat="45.89193846977297" lon="11.0342702522139"><ele>188.0</ele><time>2026-04-06T09:03:56Z</time></trkpt><trkpt lat="45.89184801850743" lon="11.03425552041348"><ele>188.0</ele><time>2026-04-06T09:03:57Z</time></trkpt><trkpt lat="45.89176321769761" lon="11.03424570138172"><ele>188.0</ele><time>2026-04-06T09:03:58Z</time></trkpt><trkpt lat="45.89168296551703" lon="11.034241531652787"><ele>188.0</ele><time>2026-04-06T09:03:59Z</time></trkpt><trkpt lat="45.89160737528644" lon="11.034239163212339"><ele>188.28571428571428</ele><time>2026-04-06T09:04:00Z</time></trkpt><trkpt lat="45.891534024631405" lon="11.034240812632184"><ele>188.57142857142856</ele><time>2026-04-06T09:04:01Z</time></trkpt><trkpt lat="45.891458698899974" lon="11.03425533902029"><ele>188.85714285714286</ele><time>2026-04-06T09:04:02Z</time></trkpt><trkpt lat="45.89138121241205" lon="11.034283325790993"><ele>189.14285714285714</ele><time>2026-04-06T09:04:03Z</time></trkpt><trkpt lat="45.89131264438517" lon="11.034311566036068"><ele>189.42857142857144</ele><time>2026-04-06T09:04:04Z</time></trkpt><trkpt lat="45.89124919759552" lon="11.034342975650807"><ele>189.71428571428572</ele><time>2026-04-06T09:04:05Z</time></trkpt><trkpt lat="45.891185407214024" lon="11.03437930193153"><ele>190.0</ele><time>2026-04-06T09:04:06Z</time></trkpt><trkpt lat="45.89112373788971" lon="11.034414239051202"><ele>190.0</ele><time>2026-04-06T09:04:07Z</time></trkpt><trkpt lat="45.89105022371983" lon="11.034430314330038"><ele>190.0</ele><time>2026-04-06T09:04:08Z</time></trkpt><trkpt lat="45.89096791429221" lon="11.034432101897009"><ele>190.0</ele><time>2026-04-06T09:04:09Z</time></trkpt><trkpt lat="45.890880822285986" lon="11.03441902293888"><ele>190.0</ele><time>2026-04-06T09:04:10Z</time></trkpt><trkpt lat="45.89079465049153" lon="11.034374217937016"><ele>190.0</ele><time>2026-04-06T09:04:11Z</time></trkpt><trkpt lat="45.89070339808362" lon="11.034308663468856"><ele>190.0</ele><time>2026-04-06T09:04:12Z</time></trkpt><trkpt lat="45.890595317882" lon="11.03422002933886"><ele>190.0</ele><time>2026-04-06T09:04:13Z</time></trkpt><trkpt lat="45.8904694548563" lon="11.034133284012968"><ele>190.0</ele><time>2026-04-06T09:04:13.999Z</time></trkpt><trkpt lat="45.89033563998657" lon="11.034053306458997"><ele>190.0</ele><time>2026-04-06T09:04:14.999Z</time></trkpt><trkpt lat="45.89019454211201" lon="11.033994454975415"><ele>190.0</ele><time>2026-04-06T09:04:15.999Z</time></trkpt><trkpt lat="45.890053666303565" lon="11.033952367855356"><ele>190.0</ele><time>2026-04-06T09:04:16.999Z</time></trkpt><trkpt lat="45.889914091507826" lon="11.033923283209731"><ele>190.0</ele><time>2026-04-06T09:04:17.999Z</time></trkpt><trkpt lat="45.8897814255346" lon="11.03389646973448"><ele>190.0</ele><time>2026-04-06T09:04:18.999Z</time></trkpt><trkpt lat="45.889661984249315" lon="11.033781018645922"><ele>190.0</ele><time>2026-04-06T09:04:19.999Z</time></trkpt><trkpt lat="45.88953787396893" lon="11.033758066989979"><ele>190.0</ele><time>2026-04-06T09:04:20.999Z</time></trkpt><trkpt lat="45.889409291521865" lon="11.033822561562218"><ele>190.0</ele><time>2026-04-06T09:04:21.999Z</time></trkpt><trkpt lat="45.88928400537364" lon="11.033799146874712"><ele>190.0</ele><time>2026-04-06T09:04:22.999Z</time></trkpt><trkpt lat="45.88915477631758" lon="11.033778336054143"><ele>190.0</ele><time>2026-04-06T09:04:23.999Z</time></trkpt><trkpt lat="45.8890282039573" lon="11.033760528253161"><ele>190.0</ele><time>2026-04-06T09:04:24.999Z</time></trkpt><trkpt lat="45.88891469632012" lon="11.033712990228853"><ele>190.0</ele><time>2026-04-06T09:04:25.999Z</time></trkpt><trkpt lat="45.88880145701034" lon="11.03368588655204"><ele>190.0</ele><time>2026-04-06T09:04:26.999Z</time></trkpt><trkpt lat="45.88868560349407" lon="11.033655784858787"><ele>190.0</ele><time>2026-04-06T09:04:27.999Z</time></trkpt><trkpt lat="45.8885697194474" lon="11.033619862875803"><ele>190.0</ele><time>2026-04-06T09:04:28.999Z</time></trkpt><trkpt lat="45.88844770691653" lon="11.033575368057983"><ele>190.0</ele><time>2026-04-06T09:04:29.999Z</time></trkpt><trkpt lat="45.88831667672643" lon="11.033520286453294"><ele>190.0</ele><time>2026-04-06T09:04:30.999Z</time></trkpt><trkpt lat="45.888182001946525" lon="11.033460063970931"><ele>190.0</ele><time>2026-04-06T09:04:31.999Z</time></trkpt><trkpt lat="45.88804902772055" lon="11.033398243707024"><ele>190.0</ele><time>2026-04-06T09:04:32.999Z</time></trkpt><trkpt lat="45.88791677236991" lon="11.033341129689028"><ele>190.0</ele><time>2026-04-06T09:04:33.999Z</time></trkpt><trkpt lat="45.887783155590576" lon="11.033310650521225"><ele>190.0</ele><time>2026-04-06T09:04:34.999Z</time></trkpt><trkpt lat="45.88766915080257" lon="11.033268114631305"><ele>190.0</ele><time>2026-04-06T09:04:35.999Z</time></trkpt><trkpt lat="45.887570929898104" lon="11.033240591223436"><ele>190.2</ele><time>2026-04-06T09:04:36.999Z</time></trkpt><trkpt lat="45.88748619757544" lon="11.033219686169645"><ele>190.4</ele><time>2026-04-06T09:04:37.999Z</time></trkpt><trkpt lat="45.88740150129171" lon="11.033200042714022"><ele>190.60000000000002</ele><time>2026-04-06T09:04:38.999Z</time></trkpt><trkpt lat="45.88730920768488" lon="11.033178733952168"><ele>190.8</ele><time>2026-04-06T09:04:39.999Z</time></trkpt><trkpt lat="45.88721388720928" lon="11.033155950848508"><ele>191.0</ele><time>2026-04-06T09:04:40.999Z</time></trkpt><trkpt lat="45.887111407804575" lon="11.033122227879677"><ele>191.0</ele><time>2026-04-06T09:04:41.999Z</time></trkpt><trkpt lat="45.8869970648042" lon="11.033100215186552"><ele>191.0</ele><time>2026-04-06T09:04:42.999Z</time></trkpt><trkpt lat="45.886883885444206" lon="11.033079057504384"><ele>191.0</ele><time>2026-04-06T09:04:43.999Z</time></trkpt><trkpt lat="45.886764279787435" lon="11.033058837122956"><ele>191.0</ele><time>2026-04-06T09:04:44.999Z</time></trkpt><trkpt lat="45.88663777021109" lon="11.033040548980779"><ele>190.25</ele><time>2026-04-06T09:04:45.999Z</time></trkpt><trkpt lat="45.88650671169847" lon="11.033020975690778"><ele>189.5</ele><time>2026-04-06T09:04:46.999Z</time></trkpt><trkpt lat="45.88637261567814" lon="11.032999310961129"><ele>188.75</ele><time>2026-04-06T09:04:47.999Z</time></trkpt><trkpt lat="45.886231148054264" lon="11.032976271306524"><ele>188.0</ele><time>2026-04-06T09:04:48.999Z</time></trkpt><trkpt lat="45.88609065657541" lon="11.032954442789427"><ele>188.0</ele><time>2026-04-06T09:04:49.999Z</time></trkpt><trkpt lat="45.885952190468956" lon="11.032932336062371"><ele>188.0</ele><time>2026-04-06T09:04:50.999Z</time></trkpt><trkpt lat="45.88581334994587" lon="11.032908654789068"><ele>188.0</ele><time>2026-04-06T09:04:52Z</time></trkpt><trkpt lat="45.88567153491623" lon="11.032882864079319"><ele>188.0</ele><time>2026-04-06T09:04:53Z</time></trkpt><trkpt lat="45.885526928222795" lon="11.032856927170162"><ele>187.5</ele><time>2026-04-06T09:04:54Z</time></trkpt><trkpt lat="45.88538196234653" lon="11.03283164092682"><ele>187.0</ele><time>2026-04-06T09:04:55Z</time></trkpt><trkpt lat="45.88523514440773" lon="11.032808058189476"><ele>186.5</ele><time>2026-04-06T09:04:56Z</time></trkpt><trkpt lat="45.88508565423084" lon="11.032786265022166"><ele>186.0</ele><time>2026-04-06T09:04:57Z</time></trkpt><trkpt lat="45.88493753358672" lon="11.032762871994713"><ele>186.0</ele><time>2026-04-06T09:04:58Z</time></trkpt><trkpt lat="45.8847894948132" lon="11.032739786752376"><ele>186.0</ele><time>2026-04-06T09:04:59Z</time></trkpt><trkpt lat="45.88463656435072" lon="11.032717056000175"><ele>186.0</ele><time>2026-04-06T09:05:00Z</time></trkpt><trkpt lat="45.884481148903" lon="11.032689830164276"><ele>186.0</ele><time>2026-04-06T09:05:01Z</time></trkpt><trkpt lat="45.88432165375843" lon="11.032667066705647"><ele>186.0</ele><time>2026-04-06T09:05:02Z</time></trkpt><trkpt lat="45.88416275672202" lon="11.032640877024061"><ele>186.0</ele><time>2026-04-06T09:05:03Z</time></trkpt><trkpt lat="45.88400618000891" lon="11.032616248681514"><ele>185.66666666666666</ele><time>2026-04-06T09:05:04Z</time></trkpt><trkpt lat="45.88384919662796" lon="11.032591003928648"><ele>185.33333333333331</ele><time>2026-04-06T09:05:05Z</time></trkpt><trkpt lat="45.883693405536825" lon="11.032566218411079"><ele>185.0</ele><time>2026-04-06T09:05:06Z</time></trkpt><trkpt lat="45.88354189732141" lon="11.032537205915535"><ele>184.5</ele><time>2026-04-06T09:05:07Z</time></trkpt><trkpt lat="45.883393668899" lon="11.032508061561302"><ele>184.0</ele><time>2026-04-06T09:05:08Z</time></trkpt><trkpt lat="45.8832450707293" lon="11.03247634326522"><ele>183.5</ele><time>2026-04-06T09:05:09Z</time></trkpt><trkpt lat="45.883096612420935" lon="11.032451718844058"><ele>183.0</ele><time>2026-04-06T09:05:10Z</time></trkpt><trkpt lat="45.88295710155757" lon="11.032425842026075"><ele>182.75</ele><time>2026-04-06T09:05:11Z</time></trkpt><trkpt lat="45.88281458673335" lon="11.03240063639313"><ele>182.5</ele><time>2026-04-06T09:05:12Z</time></trkpt><trkpt lat="45.88267038507872" lon="11.032368074060349"><ele>182.25</ele><time>2026-04-06T09:05:13Z</time></trkpt><trkpt lat="45.88252427491211" lon="11.032324134654141"><ele>182.0</ele><time>2026-04-06T09:05:14Z</time></trkpt><trkpt lat="45.88237989931569" lon="11.032269547440452"><ele>182.0</ele><time>2026-04-06T09:05:15Z</time></trkpt><trkpt lat="45.88224017698732" lon="11.032216930964793"><ele>182.0</ele><time>2026-04-06T09:05:16Z</time></trkpt><trkpt lat="45.88210767584398" lon="11.032167600200935"><ele>182.0</ele><time>2026-04-06T09:05:17Z</time></trkpt><trkpt lat="45.88198044385043" lon="11.03212030282343"><ele>182.0</ele><time>2026-04-06T09:05:18Z</time></trkpt><trkpt lat="45.8818585648669" lon="11.032078421775903"><ele>182.39999999999998</ele><time>2026-04-06T09:05:19Z</time></trkpt><trkpt lat="45.88174636634365" lon="11.032040070225209"><ele>182.79999999999998</ele><time>2026-04-06T09:05:20Z</time></trkpt><trkpt lat="45.88163605709978" lon="11.032002667396066"><ele>183.2</ele><time>2026-04-06T09:05:21Z</time></trkpt><trkpt lat="45.88154631030415" lon="11.031967525249621"><ele>183.6</ele><time>2026-04-06T09:05:22Z</time></trkpt><trkpt lat="45.881462518022815" lon="11.03193556670903"><ele>184.0</ele><time>2026-04-06T09:05:23Z</time></trkpt><trkpt lat="45.88138544527749" lon="11.031907458453796"><ele>184.0</ele><time>2026-04-06T09:05:24Z</time></trkpt><trkpt lat="45.88131191342317" lon="11.031881275710864"><ele>184.0</ele><time>2026-04-06T09:05:25Z</time></trkpt><trkpt lat="45.881232830615716" lon="11.031855183195487"><ele>184.0</ele><time>2026-04-06T09:05:26Z</time></trkpt><trkpt lat="45.88115498743449" lon="11.031826829248383"><ele>184.0</ele><time>2026-04-06T09:05:27Z</time></trkpt><trkpt lat="45.88107759797857" lon="11.031796328555645"><ele>184.0</ele><time>2026-04-06T09:05:28Z</time></trkpt><trkpt lat="45.88100756593164" lon="11.031768754293594"><ele>184.0</ele><time>2026-04-06T09:05:29Z</time></trkpt><trkpt lat="45.8808986174277" lon="11.031722020330223"><ele>184.0</ele><time>2026-04-06T09:05:31Z</time></trkpt><trkpt lat="45.88080020372501" lon="11.031657375992841"><ele>184.0</ele><time>2026-04-06T09:05:33Z</time></trkpt><trkpt lat="45.880711732036225" lon="11.031520535103395"><ele>184.0</ele><time>2026-04-06T09:05:35Z</time></trkpt><trkpt lat="45.880670572377106" lon="11.031433418434622"><ele>184.0</ele><time>2026-04-06T09:05:36Z</time></trkpt><trkpt lat="45.880611974166996" lon="11.031356765134163"><ele>184.0</ele><time>2026-04-06T09:05:37Z</time></trkpt><trkpt lat="45.88053494053074" lon="11.031312441565744"><ele>183.25</ele><time>2026-04-06T09:05:38Z</time></trkpt><trkpt lat="45.88044263122361" lon="11.031280347473597"><ele>182.5</ele><time>2026-04-06T09:05:39Z</time></trkpt><trkpt lat="45.8803401253609" lon="11.031211974047604"><ele>181.75</ele><time>2026-04-06T09:05:40Z</time></trkpt><trkpt lat="45.88023424594599" lon="11.031091764425017"><ele>181.0</ele><time>2026-04-06T09:05:41Z</time></trkpt><trkpt lat="45.88013557160468" lon="11.030943398333308"><ele>181.66666666666669</ele><time>2026-04-06T09:05:42Z</time></trkpt><trkpt lat="45.8800170211042" lon="11.030800173332374"><ele>182.33333333333334</ele><time>2026-04-06T09:05:43Z</time></trkpt><trkpt lat="45.879881024701334" lon="11.030653367088448"><ele>183.0</ele><time>2026-04-06T09:05:44Z</time></trkpt><trkpt lat="45.87973906350189" lon="11.030500586218112"><ele>183.0</ele><time>2026-04-06T09:05:45Z</time></trkpt><trkpt lat="45.879597385695384" lon="11.030339062960495"><ele>183.0</ele><time>2026-04-06T09:05:46Z</time></trkpt><trkpt lat="45.87945419777919" lon="11.030173785648525"><ele>183.0</ele><time>2026-04-06T09:05:47Z</time></trkpt><trkpt lat="45.87931131455123" lon="11.03000106380667"><ele>183.0</ele><time>2026-04-06T09:05:48Z</time></trkpt><trkpt lat="45.879171486927895" lon="11.02982160979032"><ele>183.0</ele><time>2026-04-06T09:05:49Z</time></trkpt><trkpt lat="45.87903384893648" lon="11.029639715315312"><ele>183.0</ele><time>2026-04-06T09:05:50Z</time></trkpt><trkpt lat="45.87889798564477" lon="11.029452702978427"><ele>183.0</ele><time>2026-04-06T09:05:51Z</time></trkpt><trkpt lat="45.8787624801794" lon="11.029264156788575"><ele>183.0</ele><time>2026-04-06T09:05:52Z</time></trkpt><trkpt lat="45.878624916955204" lon="11.029075663522878"><ele>183.0</ele><time>2026-04-06T09:05:53Z</time></trkpt><trkpt lat="45.87848399057298" lon="11.028888974515805"><ele>182.66666666666666</ele><time>2026-04-06T09:05:54Z</time></trkpt><trkpt lat="45.878342226857065" lon="11.028698199109154"><ele>182.33333333333331</ele><time>2026-04-06T09:05:55Z</time></trkpt><trkpt lat="45.878199862452306" lon="11.028505148666769"><ele>182.0</ele><time>2026-04-06T09:05:56Z</time></trkpt><trkpt lat="45.878056593832284" lon="11.028309515176066"><ele>181.33333333333331</ele><time>2026-04-06T09:05:57Z</time></trkpt><trkpt lat="45.87791239549061" lon="11.028114196128483"><ele>180.66666666666666</ele><time>2026-04-06T09:05:58Z</time></trkpt><trkpt lat="45.87776757747356" lon="11.027917110934915"><ele>180.0</ele><time>2026-04-06T09:05:59Z</time></trkpt><trkpt lat="45.87762242445848" lon="11.027719809731737"><ele>180.0</ele><time>2026-04-06T09:06:00Z</time></trkpt><trkpt lat="45.87747588222903" lon="11.027522114687384"><ele>180.0</ele><time>2026-04-06T09:06:01Z</time></trkpt><trkpt lat="45.877328502594196" lon="11.02732402917367"><ele>180.0</ele><time>2026-04-06T09:06:02Z</time></trkpt><trkpt lat="45.877184213338914" lon="11.027125913600559"><ele>179.33333333333334</ele><time>2026-04-06T09:06:03Z</time></trkpt><trkpt lat="45.8770413734078" lon="11.026929515780166"><ele>178.66666666666669</ele><time>2026-04-06T09:06:04Z</time></trkpt><trkpt lat="45.87689809535284" lon="11.026734211412107"><ele>178.0</ele><time>2026-04-06T09:06:05Z</time></trkpt><trkpt lat="45.876755725106065" lon="11.026538011837381"><ele>178.0</ele><time>2026-04-06T09:06:06Z</time></trkpt><trkpt lat="45.87661140787246" lon="11.026339406505857"><ele>178.0</ele><time>2026-04-06T09:06:07Z</time></trkpt><trkpt lat="45.876470051296685" lon="11.02613717056776"><ele>178.0</ele><time>2026-04-06T09:06:08Z</time></trkpt><trkpt lat="45.87633157766042" lon="11.025928259670682"><ele>177.66666666666669</ele><time>2026-04-06T09:06:09Z</time></trkpt><trkpt lat="45.87619164786634" lon="11.0257136374303"><ele>177.33333333333334</ele><time>2026-04-06T09:06:10Z</time></trkpt><trkpt lat="45.87605238750302" lon="11.025499758403836"><ele>177.0</ele><time>2026-04-06T09:06:11Z</time></trkpt><trkpt lat="45.875911372362786" lon="11.025282236003596"><ele>177.0</ele><time>2026-04-06T09:06:12Z</time></trkpt><trkpt lat="45.87577036127" lon="11.025066801796031"><ele>177.0</ele><time>2026-04-06T09:06:13Z</time></trkpt><trkpt lat="45.87562956713354" lon="11.024845886382488"><ele>177.0</ele><time>2026-04-06T09:06:14Z</time></trkpt><trkpt lat="45.875488688971636" lon="11.024624784077274"><ele>176.66666666666666</ele><time>2026-04-06T09:06:15Z</time></trkpt><trkpt lat="45.875346072322394" lon="11.02439860570874"><ele>176.33333333333331</ele><time>2026-04-06T09:06:16Z</time></trkpt><trkpt lat="45.87521010118297" lon="11.024172823477857"><ele>176.0</ele><time>2026-04-06T09:06:17Z</time></trkpt><trkpt lat="45.875064532744695" lon="11.023952546994371"><ele>176.0</ele><time>2026-04-06T09:06:18Z</time></trkpt><trkpt lat="45.874920574090005" lon="11.023731483309742"><ele>176.0</ele><time>2026-04-06T09:06:18.999Z</time></trkpt><trkpt lat="45.87477592262556" lon="11.02350748586018"><ele>176.0</ele><time>2026-04-06T09:06:19.999Z</time></trkpt><trkpt lat="45.874633588934074" lon="11.023281183256529"><ele>175.0</ele><time>2026-04-06T09:06:20.999Z</time></trkpt><trkpt lat="45.87449215263032" lon="11.023056591799882"><ele>174.0</ele><time>2026-04-06T09:06:21.999Z</time></trkpt><trkpt lat="45.87435062348057" lon="11.022831963734067"><ele>173.0</ele><time>2026-04-06T09:06:22.999Z</time></trkpt><trkpt lat="45.87420962964926" lon="11.022607707019269"><ele>173.33333333333331</ele><time>2026-04-06T09:06:23.999Z</time></trkpt><trkpt lat="45.87407065123481" lon="11.022387528034931"><ele>173.66666666666666</ele><time>2026-04-06T09:06:24.999Z</time></trkpt><trkpt lat="45.87393131393086" lon="11.02216788605965"><ele>174.0</ele><time>2026-04-06T09:06:25.999Z</time></trkpt><trkpt lat="45.8737916878805" lon="11.021951662647073"><ele>174.0</ele><time>2026-04-06T09:06:26.999Z</time></trkpt><trkpt lat="45.87365771120137" lon="11.021744221387141"><ele>174.0</ele><time>2026-04-06T09:06:27.999Z</time></trkpt><trkpt lat="45.873535654457406" lon="11.021549048232233"><ele>174.0</ele><time>2026-04-06T09:06:28.999Z</time></trkpt><trkpt lat="45.87341806233904" lon="11.021363614232511"><ele>173.75</ele><time>2026-04-06T09:06:29.999Z</time></trkpt><trkpt lat="45.873310683666986" lon="11.02120404390932"><ele>173.5</ele><time>2026-04-06T09:06:30.999Z</time></trkpt><trkpt lat="45.87320563771266" lon="11.021058119768114"><ele>173.25</ele><time>2026-04-06T09:06:31.999Z</time></trkpt><trkpt lat="45.87312422746243" lon="11.020899449516248"><ele>173.0</ele><time>2026-04-06T09:06:32.999Z</time></trkpt><trkpt lat="45.87303889533843" lon="11.020766380761245"><ele>173.0</ele><time>2026-04-06T09:06:33.999Z</time></trkpt><trkpt lat="45.87297483495608" lon="11.020666483619227"><ele>173.0</ele><time>2026-04-06T09:06:34.999Z</time></trkpt><trkpt lat="45.87281945076063" lon="11.020727334619535"><ele>173.0</ele><time>2026-04-06T09:06:35.999Z</time></trkpt><trkpt lat="45.87275882645751" lon="11.0206994231025"><ele>173.0</ele><time>2026-04-06T09:06:36.999Z</time></trkpt><trkpt lat="45.87265186005292" lon="11.020612377045008"><ele>173.0</ele><time>2026-04-06T09:06:38.999Z</time></trkpt><trkpt lat="45.87260102787582" lon="11.020527165679075"><ele>173.0</ele><time>2026-04-06T09:06:39.999Z</time></trkpt><trkpt lat="45.87253600543563" lon="11.020453352196512"><ele>173.0</ele><time>2026-04-06T09:06:40.999Z</time></trkpt><trkpt lat="45.8724612970439" lon="11.02040090456426"><ele>173.0</ele><time>2026-04-06T09:06:41.999Z</time></trkpt><trkpt lat="45.872377425587885" lon="11.020364752227444"><ele>173.0</ele><time>2026-04-06T09:06:42.999Z</time></trkpt><trkpt lat="45.87229975914385" lon="11.020309056192831"><ele>173.0</ele><time>2026-04-06T09:06:43.999Z</time></trkpt><trkpt lat="45.87224494902838" lon="11.0202214198083"><ele>173.0</ele><time>2026-04-06T09:06:44.999Z</time></trkpt><trkpt lat="45.87220646889118" lon="11.020100995377291"><ele>173.0</ele><time>2026-04-06T09:06:45.999Z</time></trkpt><trkpt lat="45.87216098226642" lon="11.019968219832762"><ele>173.0</ele><time>2026-04-06T09:06:46.999Z</time></trkpt><trkpt lat="45.872112568578146" lon="11.019844264991972"><ele>173.0</ele><time>2026-04-06T09:06:47.999Z</time></trkpt><trkpt lat="45.872058068263556" lon="11.019711699136138"><ele>173.0</ele><time>2026-04-06T09:06:48.999Z</time></trkpt><trkpt lat="45.872000940489514" lon="11.019579455474583"><ele>173.0</ele><time>2026-04-06T09:06:49.999Z</time></trkpt><trkpt lat="45.87193892791632" lon="11.019447852870469"><ele>173.0</ele><time>2026-04-06T09:06:50.999Z</time></trkpt><trkpt lat="45.87187006514081" lon="11.019322462865244"><ele>173.0</ele><time>2026-04-06T09:06:51.999Z</time></trkpt><trkpt lat="45.871795112539786" lon="11.019205728952025"><ele>173.0</ele><time>2026-04-06T09:06:52.999Z</time></trkpt><trkpt lat="45.87172274737147" lon="11.019094520233372"><ele>173.0</ele><time>2026-04-06T09:06:53.999Z</time></trkpt><trkpt lat="45.8716514950353" lon="11.018977452826855"><ele>173.0</ele><time>2026-04-06T09:06:54.999Z</time></trkpt><trkpt lat="45.87158126961278" lon="11.018863558415017"><ele>173.0</ele><time>2026-04-06T09:06:55.999Z</time></trkpt><trkpt lat="45.871514078190685" lon="11.018760323346871"><ele>173.0</ele><time>2026-04-06T09:06:56.999Z</time></trkpt><trkpt lat="45.871451895712376" lon="11.018664445819395"><ele>173.0</ele><time>2026-04-06T09:06:58Z</time></trkpt><trkpt lat="45.87139060252073" lon="11.018569119569978"><ele>173.0</ele><time>2026-04-06T09:06:59Z</time></trkpt><trkpt lat="45.87132628325995" lon="11.018466588467334"><ele>173.0</ele><time>2026-04-06T09:07:00Z</time></trkpt><trkpt lat="45.871275154296804" lon="11.018372709399408"><ele>172.83333333333331</ele><time>2026-04-06T09:07:01Z</time></trkpt><trkpt lat="45.87124895279456" lon="11.018289535420628"><ele>172.66666666666666</ele><time>2026-04-06T09:07:02Z</time></trkpt><trkpt lat="45.87122497328976" lon="11.018159249448933"><ele>172.5</ele><time>2026-04-06T09:07:04Z</time></trkpt><trkpt lat="45.87118643212882" lon="11.018063137567639"><ele>172.33333333333334</ele><time>2026-04-06T09:07:06Z</time></trkpt><trkpt lat="45.871141868814085" lon="11.017995872732401"><ele>172.16666666666669</ele><time>2026-04-06T09:07:09Z</time></trkpt><trkpt lat="45.871079104767276" lon="11.017929863280873"><ele>172.0</ele><time>2026-04-06T09:07:18Z</time></trkpt><trkpt lat="45.87097789631318" lon="11.017886528306654"><ele>172.2</ele><time>2026-04-06T09:07:20Z</time></trkpt><trkpt lat="45.87091446168699" lon="11.017841423254522"><ele>172.39999999999998</ele><time>2026-04-06T09:07:21Z</time></trkpt><trkpt lat="45.870851551830775" lon="11.017747270477706"><ele>172.60000000000002</ele><time>2026-04-06T09:07:22Z</time></trkpt><trkpt lat="45.870786048001484" lon="11.017646497376822"><ele>172.8</ele><time>2026-04-06T09:07:23Z</time></trkpt><trkpt lat="45.87071790193603" lon="11.017540193797165"><ele>173.0</ele><time>2026-04-06T09:07:24Z</time></trkpt><trkpt lat="45.87064835350665" lon="11.017432391672958"><ele>172.5</ele><time>2026-04-06T09:07:25Z</time></trkpt><trkpt lat="45.87057131102679" lon="11.017319824670292"><ele>172.0</ele><time>2026-04-06T09:07:26Z</time></trkpt><trkpt lat="45.87049607474592" lon="11.017203180092748"><ele>171.5</ele><time>2026-04-06T09:07:27Z</time></trkpt><trkpt lat="45.87041843470694" lon="11.017075531543249"><ele>171.0</ele><time>2026-04-06T09:07:28Z</time></trkpt><trkpt lat="45.87033306184449" lon="11.016941371283636"><ele>171.0</ele><time>2026-04-06T09:07:29Z</time></trkpt><trkpt lat="45.870247491208296" lon="11.016805251879125"><ele>171.0</ele><time>2026-04-06T09:07:30Z</time></trkpt><trkpt lat="45.87016287845045" lon="11.016672213462876"><ele>171.0</ele><time>2026-04-06T09:07:31Z</time></trkpt><trkpt lat="45.8700810376721" lon="11.016546528228082"><ele>171.0</ele><time>2026-04-06T09:07:32Z</time></trkpt><trkpt lat="45.87000039704514" lon="11.01641830270577"><ele>170.75</ele><time>2026-04-06T09:07:33Z</time></trkpt><trkpt lat="45.86991659528723" lon="11.01628252335599"><ele>170.5</ele><time>2026-04-06T09:07:34Z</time></trkpt><trkpt lat="45.86982950104349" lon="11.01614227908076"><ele>170.25</ele><time>2026-04-06T09:07:35Z</time></trkpt><trkpt lat="45.869738995790044" lon="11.01599723176961"><ele>170.0</ele><time>2026-04-06T09:07:36Z</time></trkpt><trkpt lat="45.86964472827783" lon="11.015846470617651"><ele>170.0</ele><time>2026-04-06T09:07:37Z</time></trkpt><trkpt lat="45.869550869653814" lon="11.015696356086375"><ele>170.0</ele><time>2026-04-06T09:07:38Z</time></trkpt><trkpt lat="45.869452976919845" lon="11.015541406482622"><ele>170.0</ele><time>2026-04-06T09:07:39Z</time></trkpt><trkpt lat="45.86935578502171" lon="11.015388894703259"><ele>170.0</ele><time>2026-04-06T09:07:40Z</time></trkpt><trkpt lat="45.86926230962812" lon="11.015234619118218"><ele>170.0</ele><time>2026-04-06T09:07:41Z</time></trkpt><trkpt lat="45.869167643640786" lon="11.015074599556407"><ele>170.0</ele><time>2026-04-06T09:07:42Z</time></trkpt><trkpt lat="45.86907533785659" lon="11.014915608120573"><ele>170.0</ele><time>2026-04-06T09:07:43Z</time></trkpt><trkpt lat="45.8689872794551" lon="11.01475062475036"><ele>170.0</ele><time>2026-04-06T09:07:44Z</time></trkpt><trkpt lat="45.868904445822324" lon="11.014589583822671"><ele>170.0</ele><time>2026-04-06T09:07:45Z</time></trkpt><trkpt lat="45.868826361138076" lon="11.014424582330959"><ele>170.0</ele><time>2026-04-06T09:07:46Z</time></trkpt><trkpt lat="45.86875387365081" lon="11.014258800060153"><ele>170.0</ele><time>2026-04-06T09:07:47Z</time></trkpt><trkpt lat="45.8686850728694" lon="11.014095797084057"><ele>170.0</ele><time>2026-04-06T09:07:48Z</time></trkpt><trkpt lat="45.868623163016586" lon="11.013935960279266"><ele>169.75</ele><time>2026-04-06T09:07:49Z</time></trkpt><trkpt lat="45.86856730782847" lon="11.013778045041196"><ele>169.5</ele><time>2026-04-06T09:07:50Z</time></trkpt><trkpt lat="45.868519370035635" lon="11.01361865286772"><ele>169.25</ele><time>2026-04-06T09:07:51Z</time></trkpt><trkpt lat="45.86847316884455" lon="11.013456320988691"><ele>169.0</ele><time>2026-04-06T09:07:52Z</time></trkpt><trkpt lat="45.86842996677655" lon="11.013306575132024"><ele>168.66666666666669</ele><time>2026-04-06T09:07:53Z</time></trkpt><trkpt lat="45.86839396261712" lon="11.013180658257685"><ele>168.33333333333334</ele><time>2026-04-06T09:07:54Z</time></trkpt><trkpt lat="45.86837215003764" lon="11.013058003223382"><ele>168.0</ele><time>2026-04-06T09:07:55Z</time></trkpt><trkpt lat="45.86836613490488" lon="11.012935898682619"><ele>167.66666666666666</ele><time>2026-04-06T09:07:56Z</time></trkpt><trkpt lat="45.868374085314144" lon="11.012810186702978"><ele>167.33333333333331</ele><time>2026-04-06T09:07:57Z</time></trkpt><trkpt lat="45.868359390765804" lon="11.01269782571407"><ele>167.0</ele><time>2026-04-06T09:07:58Z</time></trkpt><trkpt lat="45.868325126068925" lon="11.012611398236158"><ele>167.0</ele><time>2026-04-06T09:07:59Z</time></trkpt><trkpt lat="45.868269846064884" lon="11.012537055829153"><ele>167.0</ele><time>2026-04-06T09:08:00Z</time></trkpt><trkpt lat="45.86819233768512" lon="11.012468490842215"><ele>167.0</ele><time>2026-04-06T09:08:01Z</time></trkpt><trkpt lat="45.86810277117419" lon="11.012373700294196"><ele>167.0</ele><time>2026-04-06T09:08:02Z</time></trkpt><trkpt lat="45.868027862461645" lon="11.012234536321023"><ele>167.0</ele><time>2026-04-06T09:08:03Z</time></trkpt><trkpt lat="45.867987468722994" lon="11.012052086564642"><ele>166.75</ele><time>2026-04-06T09:08:04Z</time></trkpt><trkpt lat="45.86791655798049" lon="11.011875630211543"><ele>166.5</ele><time>2026-04-06T09:08:05Z</time></trkpt><trkpt lat="45.86785414734932" lon="11.011685143283007"><ele>166.25</ele><time>2026-04-06T09:08:06Z</time></trkpt><trkpt lat="45.867791312868285" lon="11.011493783553009"><ele>166.0</ele><time>2026-04-06T09:08:07Z</time></trkpt><trkpt lat="45.867727201267144" lon="11.011301960732876"><ele>165.66666666666669</ele><time>2026-04-06T09:08:08Z</time></trkpt><trkpt lat="45.86764964577272" lon="11.011107274579677"><ele>165.33333333333334</ele><time>2026-04-06T09:08:09Z</time></trkpt><trkpt lat="45.86756495211645" lon="11.010920427869998"><ele>165.0</ele><time>2026-04-06T09:08:10Z</time></trkpt><trkpt lat="45.867473457550616" lon="11.010727972201568"><ele>166.33333333333334</ele><time>2026-04-06T09:08:11Z</time></trkpt><trkpt lat="45.86737859821882" lon="11.010533688691648"><ele>167.66666666666669</ele><time>2026-04-06T09:08:12Z</time></trkpt><trkpt lat="45.86728210568745" lon="11.010348411995292"><ele>169.0</ele><time>2026-04-06T09:08:13Z</time></trkpt><trkpt lat="45.86716782148202" lon="11.010169965707897"><ele>169.0</ele><time>2026-04-06T09:08:14Z</time></trkpt><trkpt lat="45.867051954035084" lon="11.009999942674499"><ele>169.0</ele><time>2026-04-06T09:08:14.999Z</time></trkpt><trkpt lat="45.86693921860752" lon="11.009828533629598"><ele>169.0</ele><time>2026-04-06T09:08:15.999Z</time></trkpt><trkpt lat="45.86682994786093" lon="11.009659607901987"><ele>168.75</ele><time>2026-04-06T09:08:16.999Z</time></trkpt><trkpt lat="45.86672622949011" lon="11.009498431919766"><ele>168.5</ele><time>2026-04-06T09:08:17.999Z</time></trkpt><trkpt lat="45.866634573119" lon="11.009343284150486"><ele>168.25</ele><time>2026-04-06T09:08:18.999Z</time></trkpt><trkpt lat="45.86654925782492" lon="11.009182868381162"><ele>168.0</ele><time>2026-04-06T09:08:19.999Z</time></trkpt><trkpt lat="45.86647392083013" lon="11.009034202638189"><ele>168.4</ele><time>2026-04-06T09:08:20.999Z</time></trkpt><trkpt lat="45.86640409569597" lon="11.008887607335843"><ele>168.8</ele><time>2026-04-06T09:08:21.999Z</time></trkpt><trkpt lat="45.86634954386876" lon="11.008744892858092"><ele>169.2</ele><time>2026-04-06T09:08:22.999Z</time></trkpt><trkpt lat="45.866311651831936" lon="11.008600562941437"><ele>169.6</ele><time>2026-04-06T09:08:23.999Z</time></trkpt><trkpt lat="45.866294158649005" lon="11.008467294516949"><ele>170.0</ele><time>2026-04-06T09:08:24.999Z</time></trkpt><trkpt lat="45.866293985261954" lon="11.008355985375877"><ele>169.6</ele><time>2026-04-06T09:08:25.999Z</time></trkpt><trkpt lat="45.86632036217191" lon="11.008262708884546"><ele>169.2</ele><time>2026-04-06T09:08:26.999Z</time></trkpt><trkpt lat="45.86641420896403" lon="11.008066290016787"><ele>168.8</ele><time>2026-04-06T09:08:28.999Z</time></trkpt><trkpt lat="45.86648025080989" lon="11.007984716775947"><ele>168.4</ele><time>2026-04-06T09:08:29.999Z</time></trkpt><trkpt lat="45.866481124301934" lon="11.007844097321094"><ele>168.0</ele><time>2026-04-06T09:08:30.999Z</time></trkpt><trkpt lat="45.86645541256908" lon="11.007708026628672"><ele>168.0</ele><time>2026-04-06T09:08:31.999Z</time></trkpt><trkpt lat="45.86640507205136" lon="11.007566950279594"><ele>168.0</ele><time>2026-04-06T09:08:32.999Z</time></trkpt><trkpt lat="45.86633181999189" lon="11.007417058600394"><ele>168.0</ele><time>2026-04-06T09:08:33.999Z</time></trkpt><trkpt lat="45.86624145862483" lon="11.007268891016837"><ele>168.0</ele><time>2026-04-06T09:08:34.999Z</time></trkpt><trkpt lat="45.86614334359906" lon="11.007122428524166"><ele>167.66666666666666</ele><time>2026-04-06T09:08:35.999Z</time></trkpt><trkpt lat="45.866046123464464" lon="11.006947007081576"><ele>167.33333333333331</ele><time>2026-04-06T09:08:36.999Z</time></trkpt><trkpt lat="45.86593779234135" lon="11.006772971830497"><ele>167.0</ele><time>2026-04-06T09:08:37.999Z</time></trkpt><trkpt lat="45.86580820785882" lon="11.006621582714534"><ele>168.0</ele><time>2026-04-06T09:08:38.999Z</time></trkpt><trkpt lat="45.86569070488379" lon="11.006451113822534"><ele>169.0</ele><time>2026-04-06T09:08:39.999Z</time></trkpt><trkpt lat="45.86558844103286" lon="11.006250404572308"><ele>170.0</ele><time>2026-04-06T09:08:40.999Z</time></trkpt><trkpt lat="45.865479120507906" lon="11.006051639981775"><ele>170.0</ele><time>2026-04-06T09:08:41.999Z</time></trkpt><trkpt lat="45.865355645531785" lon="11.005860174370063"><ele>170.0</ele><time>2026-04-06T09:08:42.999Z</time></trkpt><trkpt lat="45.86524511076527" lon="11.005652459741068"><ele>170.0</ele><time>2026-04-06T09:08:43.999Z</time></trkpt><trkpt lat="45.8651328642307" lon="11.00544597466864"><ele>170.33333333333331</ele><time>2026-04-06T09:08:44.999Z</time></trkpt><trkpt lat="45.86501999795157" lon="11.005236785997347"><ele>170.66666666666666</ele><time>2026-04-06T09:08:45.999Z</time></trkpt><trkpt lat="45.8649063394937" lon="11.005028793446417"><ele>171.0</ele><time>2026-04-06T09:08:46.999Z</time></trkpt><trkpt lat="45.86479243053375" lon="11.004820443347924"><ele>171.0</ele><time>2026-04-06T09:08:47.999Z</time></trkpt><trkpt lat="45.864676899728174" lon="11.004613659158698"><ele>171.0</ele><time>2026-04-06T09:08:48.999Z</time></trkpt><trkpt lat="45.86455989626284" lon="11.004412300402182"><ele>171.0</ele><time>2026-04-06T09:08:49.999Z</time></trkpt><trkpt lat="45.864436755915435" lon="11.004219313272563"><ele>170.66666666666666</ele><time>2026-04-06T09:08:50.999Z</time></trkpt><trkpt lat="45.86430754144709" lon="11.004035425617147"><ele>170.33333333333331</ele><time>2026-04-06T09:08:51.999Z</time></trkpt><trkpt lat="45.86417382579993" lon="11.00385761772669"><ele>170.0</ele><time>2026-04-06T09:08:52.999Z</time></trkpt><trkpt lat="45.86404251869816" lon="11.003677944559326"><ele>170.0</ele><time>2026-04-06T09:08:53.999Z</time></trkpt><trkpt lat="45.86390853215458" lon="11.003505865871308"><ele>170.0</ele><time>2026-04-06T09:08:54.999Z</time></trkpt><trkpt lat="45.86376843169587" lon="11.003347873698154"><ele>170.0</ele><time>2026-04-06T09:08:55.999Z</time></trkpt><trkpt lat="45.863619990304464" lon="11.003204656352583"><ele>170.0</ele><time>2026-04-06T09:08:56.999Z</time></trkpt><trkpt lat="45.86346163581334" lon="11.003082696905583"><ele>170.0</ele><time>2026-04-06T09:08:57.999Z</time></trkpt><trkpt lat="45.86329490522668" lon="11.002987566929766"><ele>170.0</ele><time>2026-04-06T09:08:58.999Z</time></trkpt><trkpt lat="45.86312642616346" lon="11.002906887888223"><ele>169.33333333333331</ele><time>2026-04-06T09:08:59.999Z</time></trkpt><trkpt lat="45.86295858802038" lon="11.002822032577793"><ele>168.66666666666666</ele><time>2026-04-06T09:09:00.999Z</time></trkpt><trkpt lat="45.862794025865696" lon="11.002731545725759"><ele>168.0</ele><time>2026-04-06T09:09:01.999Z</time></trkpt><trkpt lat="45.862630221743736" lon="11.002643777842726"><ele>168.0</ele><time>2026-04-06T09:09:02.999Z</time></trkpt><trkpt lat="45.862474078434616" lon="11.00255947608041"><ele>168.0</ele><time>2026-04-06T09:09:04Z</time></trkpt><trkpt lat="45.86232975794274" lon="11.002478522299548"><ele>168.0</ele><time>2026-04-06T09:09:05Z</time></trkpt><trkpt lat="45.86219147747483" lon="11.00240553553198"><ele>168.0</ele><time>2026-04-06T09:09:06Z</time></trkpt><trkpt lat="45.86207063322782" lon="11.002337805385332"><ele>168.0</ele><time>2026-04-06T09:09:07Z</time></trkpt><trkpt lat="45.8619767119046" lon="11.002279270428907"><ele>168.0</ele><time>2026-04-06T09:09:08Z</time></trkpt><trkpt lat="45.86190439433195" lon="11.002204120912184"><ele>168.0</ele><time>2026-04-06T09:09:09Z</time></trkpt><trkpt lat="45.86185232958957" lon="11.002096876639094"><ele>168.0</ele><time>2026-04-06T09:09:10Z</time></trkpt><trkpt lat="45.86181436985808" lon="11.001972146922663"><ele>168.16666666666666</ele><time>2026-04-06T09:09:11Z</time></trkpt><trkpt lat="45.86177815321866" lon="11.001861778285457"><ele>168.33333333333334</ele><time>2026-04-06T09:09:12Z</time></trkpt><trkpt lat="45.861715211509406" lon="11.001818640931836"><ele>168.5</ele><time>2026-04-06T09:09:13Z</time></trkpt><trkpt lat="45.86164455686212" lon="11.001802732614301"><ele>168.66666666666669</ele><time>2026-04-06T09:09:14Z</time></trkpt><trkpt lat="45.86156582779133" lon="11.001835790528936"><ele>168.83333333333334</ele><time>2026-04-06T09:09:15Z</time></trkpt><trkpt lat="45.8614907314268" lon="11.001902736650216"><ele>169.0</ele><time>2026-04-06T09:09:16Z</time></trkpt><trkpt lat="45.861406083429486" lon="11.001946739675954"><ele>169.0</ele><time>2026-04-06T09:09:17Z</time></trkpt><trkpt lat="45.86130448955613" lon="11.00195350129789"><ele>169.0</ele><time>2026-04-06T09:09:18Z</time></trkpt><trkpt lat="45.8612047688642" lon="11.001913515598224"><ele>169.0</ele><time>2026-04-06T09:09:19Z</time></trkpt><trkpt lat="45.861105922058634" lon="11.001841667916887"><ele>169.0</ele><time>2026-04-06T09:09:20Z</time></trkpt><trkpt lat="45.861004208186245" lon="11.001767538923755"><ele>169.0</ele><time>2026-04-06T09:09:21Z</time></trkpt><trkpt lat="45.8608951632544" lon="11.001694569369734"><ele>168.75</ele><time>2026-04-06T09:09:22Z</time></trkpt><trkpt lat="45.86078407697262" lon="11.001612683405684"><ele>168.5</ele><time>2026-04-06T09:09:23Z</time></trkpt><trkpt lat="45.860670886559355" lon="11.001528954895592"><ele>168.25</ele><time>2026-04-06T09:09:24Z</time></trkpt><trkpt lat="45.86055153106809" lon="11.001445528995042"><ele>168.0</ele><time>2026-04-06T09:09:25Z</time></trkpt><trkpt lat="45.860429280109955" lon="11.00135506165815"><ele>168.0</ele><time>2026-04-06T09:09:26Z</time></trkpt><trkpt lat="45.86030414932731" lon="11.001260702852408"><ele>168.0</ele><time>2026-04-06T09:09:27Z</time></trkpt><trkpt lat="45.86017422747219" lon="11.001167596029676"><ele>168.0</ele><time>2026-04-06T09:09:28Z</time></trkpt><trkpt lat="45.86004042644843" lon="11.001084313005117"><ele>168.0</ele><time>2026-04-06T09:09:29Z</time></trkpt><trkpt lat="45.85990203325943" lon="11.00100942245938"><ele>168.33333333333334</ele><time>2026-04-06T09:09:30Z</time></trkpt><trkpt lat="45.8597545921797" lon="11.000949582313055"><ele>168.66666666666669</ele><time>2026-04-06T09:09:31Z</time></trkpt><trkpt lat="45.85960304485779" lon="11.000906053552747"><ele>169.0</ele><time>2026-04-06T09:09:32Z</time></trkpt><trkpt lat="45.859444640076646" lon="11.000871328832767"><ele>169.0</ele><time>2026-04-06T09:09:33Z</time></trkpt><trkpt lat="45.85928456020473" lon="11.00084478204606"><ele>169.0</ele><time>2026-04-06T09:09:34Z</time></trkpt><trkpt lat="45.85912157023945" lon="11.000824428256278"><ele>169.0</ele><time>2026-04-06T09:09:35Z</time></trkpt><trkpt lat="45.85895617068717" lon="11.000819102557015"><ele>168.0</ele><time>2026-04-06T09:09:36Z</time></trkpt><trkpt lat="45.858788113128654" lon="11.000814979082154"><ele>167.0</ele><time>2026-04-06T09:09:37Z</time></trkpt><trkpt lat="45.8586192986084" lon="11.000813152836464"><ele>166.0</ele><time>2026-04-06T09:09:38Z</time></trkpt><trkpt lat="45.858448945526675" lon="11.000813912804263"><ele>165.33333333333334</ele><time>2026-04-06T09:09:39Z</time></trkpt><trkpt lat="45.85827880862841" lon="11.00081276801559"><ele>164.66666666666666</ele><time>2026-04-06T09:09:40Z</time></trkpt><trkpt lat="45.858109288679" lon="11.000811923750748"><ele>164.0</ele><time>2026-04-06T09:09:41Z</time></trkpt><trkpt lat="45.857941019530536" lon="11.00082593175859"><ele>165.66666666666666</ele><time>2026-04-06T09:09:42Z</time></trkpt><trkpt lat="45.85777239278441" lon="11.000865947861914"><ele>167.33333333333334</ele><time>2026-04-06T09:09:43Z</time></trkpt><trkpt lat="45.85761049630997" lon="11.00093051231703"><ele>169.0</ele><time>2026-04-06T09:09:44Z</time></trkpt><trkpt lat="45.85745392331195" lon="11.001015059795105"><ele>169.0</ele><time>2026-04-06T09:09:45Z</time></trkpt><trkpt lat="45.85729647015757" lon="11.001107678374305"><ele>169.0</ele><time>2026-04-06T09:09:46Z</time></trkpt><trkpt lat="45.857141002641846" lon="11.001204970571326"><ele>169.0</ele><time>2026-04-06T09:09:47Z</time></trkpt><trkpt lat="45.85698446892679" lon="11.001299071193392"><ele>169.0</ele><time>2026-04-06T09:09:48Z</time></trkpt><trkpt lat="45.856827920996025" lon="11.001389067834745"><ele>169.0</ele><time>2026-04-06T09:09:49Z</time></trkpt><trkpt lat="45.85666891048452" lon="11.001482541228317"><ele>169.0</ele><time>2026-04-06T09:09:50Z</time></trkpt><trkpt lat="45.85651152257943" lon="11.001575246076191"><ele>170.0</ele><time>2026-04-06T09:09:51Z</time></trkpt><trkpt lat="45.85635169774779" lon="11.001663189897869"><ele>171.0</ele><time>2026-04-06T09:09:52Z</time></trkpt><trkpt lat="45.856189525867016" lon="11.001736852874195"><ele>172.0</ele><time>2026-04-06T09:09:53Z</time></trkpt><trkpt lat="45.85602747045447" lon="11.001801048978743"><ele>171.0</ele><time>2026-04-06T09:09:54Z</time></trkpt><trkpt lat="45.8558652562992" lon="11.001853437604556"><ele>170.0</ele><time>2026-04-06T09:09:55Z</time></trkpt><trkpt lat="45.855702740533545" lon="11.001889885033036"><ele>169.0</ele><time>2026-04-06T09:09:56Z</time></trkpt><trkpt lat="45.85553695386656" lon="11.001917226373429"><ele>169.0</ele><time>2026-04-06T09:09:57Z</time></trkpt><trkpt lat="45.8553722468678" lon="11.001932557046997"><ele>169.0</ele><time>2026-04-06T09:09:58Z</time></trkpt><trkpt lat="45.85520688117273" lon="11.001936746996016"><ele>169.0</ele><time>2026-04-06T09:09:59Z</time></trkpt><trkpt lat="45.85504147266649" lon="11.00193084572734"><ele>168.33333333333334</ele><time>2026-04-06T09:10:00Z</time></trkpt><trkpt lat="45.854875748115845" lon="11.00191324288993"><ele>167.66666666666666</ele><time>2026-04-06T09:10:01Z</time></trkpt><trkpt lat="45.854707944480495" lon="11.001888265262663"><ele>167.0</ele><time>2026-04-06T09:10:02Z</time></trkpt><trkpt lat="45.854537593925045" lon="11.001853480475624"><ele>167.0</ele><time>2026-04-06T09:10:03Z</time></trkpt><trkpt lat="45.854366435437036" lon="11.001812124987612"><ele>167.0</ele><time>2026-04-06T09:10:04Z</time></trkpt><trkpt lat="45.854195441195245" lon="11.001768158309888"><ele>167.0</ele><time>2026-04-06T09:10:05Z</time></trkpt><trkpt lat="45.854026531031586" lon="11.001726786859344"><ele>166.0</ele><time>2026-04-06T09:10:06Z</time></trkpt><trkpt lat="45.853861492575476" lon="11.001694800122143"><ele>165.0</ele><time>2026-04-06T09:10:07Z</time></trkpt><trkpt lat="45.85369846257224" lon="11.001675129492126"><ele>164.0</ele><time>2026-04-06T09:10:08Z</time></trkpt><trkpt lat="45.853543104089695" lon="11.001665743775673"><ele>162.5</ele><time>2026-04-06T09:10:09Z</time></trkpt><trkpt lat="45.853391678380454" lon="11.001658524318184"><ele>161.0</ele><time>2026-04-06T09:10:10Z</time></trkpt><trkpt lat="45.85324769711015" lon="11.001650080792706"><ele>159.5</ele><time>2026-04-06T09:10:11Z</time></trkpt><trkpt lat="45.853108588243536" lon="11.001637729341011"><ele>158.0</ele><time>2026-04-06T09:10:12Z</time></trkpt><trkpt lat="45.8529712578629" lon="11.001626025030738"><ele>158.0</ele><time>2026-04-06T09:10:13Z</time></trkpt><trkpt lat="45.85283581453468" lon="11.001616302409946"><ele>158.0</ele><time>2026-04-06T09:10:14Z</time></trkpt><trkpt lat="45.852706197116134" lon="11.001607522491923"><ele>158.0</ele><time>2026-04-06T09:10:15Z</time></trkpt><trkpt lat="45.852575914935855" lon="11.001600362721199"><ele>158.0</ele><time>2026-04-06T09:10:16Z</time></trkpt><trkpt lat="45.852445144818795" lon="11.001591883300788"><ele>157.75</ele><time>2026-04-06T09:10:17Z</time></trkpt><trkpt lat="45.852316548761976" lon="11.001586098604719"><ele>157.5</ele><time>2026-04-06T09:10:18Z</time></trkpt><trkpt lat="45.852188497189246" lon="11.00158262937472"><ele>157.25</ele><time>2026-04-06T09:10:19Z</time></trkpt><trkpt lat="45.8520519426829" lon="11.00157804067605"><ele>157.0</ele><time>2026-04-06T09:10:20Z</time></trkpt><trkpt lat="45.85189931084837" lon="11.001553919589526"><ele>157.33333333333334</ele><time>2026-04-06T09:10:20.999Z</time></trkpt><trkpt lat="45.85174420797676" lon="11.001501960963692"><ele>157.66666666666666</ele><time>2026-04-06T09:10:21.999Z</time></trkpt><trkpt lat="45.85158430880206" lon="11.001426185314024"><ele>158.0</ele><time>2026-04-06T09:10:22.999Z</time></trkpt><trkpt lat="45.85142108354391" lon="11.00134974966479"><ele>158.0</ele><time>2026-04-06T09:10:23.999Z</time></trkpt><trkpt lat="45.85125148665583" lon="11.001267835880789"><ele>158.0</ele><time>2026-04-06T09:10:24.999Z</time></trkpt><trkpt lat="45.85108314840405" lon="11.001188593303837"><ele>158.0</ele><time>2026-04-06T09:10:25.999Z</time></trkpt><trkpt lat="45.850914373016636" lon="11.001108641341062"><ele>158.33333333333331</ele><time>2026-04-06T09:10:26.999Z</time></trkpt><trkpt lat="45.85074162681757" lon="11.001029705526593"><ele>158.66666666666666</ele><time>2026-04-06T09:10:27.999Z</time></trkpt><trkpt lat="45.850568047061486" lon="11.000953279114"><ele>159.0</ele><time>2026-04-06T09:10:28.999Z</time></trkpt><trkpt lat="45.850393137716836" lon="11.000881594005316"><ele>158.66666666666666</ele><time>2026-04-06T09:10:29.999Z</time></trkpt><trkpt lat="45.8502159563705" lon="11.000814390883267"><ele>158.33333333333331</ele><time>2026-04-06T09:10:30.999Z</time></trkpt><trkpt lat="45.85003599403847" lon="11.000752481358582"><ele>158.0</ele><time>2026-04-06T09:10:31.999Z</time></trkpt><trkpt lat="45.8498565551806" lon="11.000693008221711"><ele>158.0</ele><time>2026-04-06T09:10:32.999Z</time></trkpt><trkpt lat="45.84967470505742" lon="11.00064106163886"><ele>158.0</ele><time>2026-04-06T09:10:33.999Z</time></trkpt><trkpt lat="45.8494919986824" lon="11.000600412205396"><ele>158.0</ele><time>2026-04-06T09:10:34.999Z</time></trkpt><trkpt lat="45.8493063855401" lon="11.000562755621157"><ele>158.66666666666666</ele><time>2026-04-06T09:10:35.999Z</time></trkpt><trkpt lat="45.84911929068526" lon="11.000526645508375"><ele>159.33333333333334</ele><time>2026-04-06T09:10:36.999Z</time></trkpt><trkpt lat="45.848929742655905" lon="11.000488529150585"><ele>160.0</ele><time>2026-04-06T09:10:37.999Z</time></trkpt><trkpt lat="45.84874585491892" lon="11.00044683383401"><ele>160.0</ele><time>2026-04-06T09:10:38.999Z</time></trkpt><trkpt lat="45.84855949436522" lon="11.000405582643255"><ele>160.0</ele><time>2026-04-06T09:10:39.999Z</time></trkpt><trkpt lat="45.84837447103582" lon="11.000372079513914"><ele>160.0</ele><time>2026-04-06T09:10:40.999Z</time></trkpt><trkpt lat="45.84818872858386" lon="11.000340205369266"><ele>159.0</ele><time>2026-04-06T09:10:41.999Z</time></trkpt><trkpt lat="45.848003484306545" lon="11.000310642977865"><ele>158.0</ele><time>2026-04-06T09:10:42.999Z</time></trkpt><trkpt lat="45.8478231784263" lon="11.000272857960116"><ele>157.0</ele><time>2026-04-06T09:10:43.999Z</time></trkpt><trkpt lat="45.84764461306401" lon="11.000223547970228"><ele>157.0</ele><time>2026-04-06T09:10:44.999Z</time></trkpt><trkpt lat="45.847475419410394" lon="11.00014429008474"><ele>157.0</ele><time>2026-04-06T09:10:45.999Z</time></trkpt><trkpt lat="45.847317501150144" lon="11.000026815622014"><ele>157.0</ele><time>2026-04-06T09:10:46.999Z</time></trkpt><trkpt lat="45.847178113378675" lon="10.999874094226533"><ele>157.0</ele><time>2026-04-06T09:10:47.999Z</time></trkpt><trkpt lat="45.84705836770214" lon="10.999688679884454"><ele>157.0</ele><time>2026-04-06T09:10:48.999Z</time></trkpt><trkpt lat="45.84695969465775" lon="10.99948202293813"><ele>157.0</ele><time>2026-04-06T09:10:49.999Z</time></trkpt><trkpt lat="45.846883552300994" lon="10.99925660490615"><ele>157.33333333333334</ele><time>2026-04-06T09:10:50.999Z</time></trkpt><trkpt lat="45.84683045489601" lon="10.999015534519184"><ele>157.66666666666666</ele><time>2026-04-06T09:10:51.999Z</time></trkpt><trkpt lat="45.84680071973735" lon="10.99876256506774"><ele>158.0</ele><time>2026-04-06T09:10:52.999Z</time></trkpt><trkpt lat="45.84678723073606" lon="10.99850495352231"><ele>157.66666666666666</ele><time>2026-04-06T09:10:53.999Z</time></trkpt><trkpt lat="45.84678156519147" lon="10.998242218973283"><ele>157.33333333333334</ele><time>2026-04-06T09:10:54.999Z</time></trkpt><trkpt lat="45.84677392998474" lon="10.997979285146027"><ele>157.0</ele><time>2026-04-06T09:10:55.999Z</time></trkpt><trkpt lat="45.8467620521241" lon="10.997716641586214"><ele>156.33333333333334</ele><time>2026-04-06T09:10:56.999Z</time></trkpt><trkpt lat="45.846748554548974" lon="10.997451983211255"><ele>155.66666666666666</ele><time>2026-04-06T09:10:57.999Z</time></trkpt><trkpt lat="45.846733180409" lon="10.997182887182468"><ele>155.0</ele><time>2026-04-06T09:10:58.999Z</time></trkpt><trkpt lat="45.84672086738091" lon="10.99691363744409"><ele>155.0</ele><time>2026-04-06T09:10:59.999Z</time></trkpt><trkpt lat="45.846706659233824" lon="10.996642219761826"><ele>155.0</ele><time>2026-04-06T09:11:00.999Z</time></trkpt><trkpt lat="45.846692789209754" lon="10.996371631669682"><ele>155.0</ele><time>2026-04-06T09:11:01.999Z</time></trkpt><trkpt lat="45.84668015512687" lon="10.996098767139479"><ele>155.33333333333331</ele><time>2026-04-06T09:11:02.999Z</time></trkpt><trkpt lat="45.846669716118285" lon="10.995828500898329"><ele>155.66666666666666</ele><time>2026-04-06T09:11:03.999Z</time></trkpt><trkpt lat="45.84665643088414" lon="10.995561386856979"><ele>156.0</ele><time>2026-04-06T09:11:04.999Z</time></trkpt><trkpt lat="45.846641535824695" lon="10.995296391995904"><ele>156.0</ele><time>2026-04-06T09:11:05.999Z</time></trkpt><trkpt lat="45.846629061142316" lon="10.995027906989309"><ele>156.0</ele><time>2026-04-06T09:11:06.999Z</time></trkpt><trkpt lat="45.84661729760312" lon="10.99475961483038"><ele>156.0</ele><time>2026-04-06T09:11:07.999Z</time></trkpt><trkpt lat="45.84660546956017" lon="10.994492870438606"><ele>158.0</ele><time>2026-04-06T09:11:09Z</time></trkpt><trkpt lat="45.84659132597921" lon="10.994229756140843"><ele>160.0</ele><time>2026-04-06T09:11:10Z</time></trkpt><trkpt lat="45.84657366712924" lon="10.99396818620105"><ele>162.0</ele><time>2026-04-06T09:11:11Z</time></trkpt><trkpt lat="45.84655382186044" lon="10.993709930701892"><ele>166.0</ele><time>2026-04-06T09:11:12Z</time></trkpt><trkpt lat="45.84652239487419" lon="10.993448804711631"><ele>170.0</ele><time>2026-04-06T09:11:13Z</time></trkpt><trkpt lat="45.84647885741872" lon="10.993194048920865"><ele>174.0</ele><time>2026-04-06T09:11:14Z</time></trkpt><trkpt lat="45.84642318037198" lon="10.992941638554642"><ele>176.0</ele><time>2026-04-06T09:11:15Z</time></trkpt><trkpt lat="45.84636318666943" lon="10.992690011421919"><ele>178.0</ele><time>2026-04-06T09:11:16Z</time></trkpt><trkpt lat="45.846293360058816" lon="10.992444210920631"><ele>180.0</ele><time>2026-04-06T09:11:17Z</time></trkpt><trkpt lat="45.84620913136996" lon="10.992204438836417"><ele>181.0</ele><time>2026-04-06T09:11:18Z</time></trkpt><trkpt lat="45.846113437601176" lon="10.99197566694246"><ele>182.0</ele><time>2026-04-06T09:11:19Z</time></trkpt><trkpt lat="45.8460099653511" lon="10.991747624528617"><ele>183.0</ele><time>2026-04-06T09:11:20Z</time></trkpt><trkpt lat="45.84589827456165" lon="10.991527718048301"><ele>185.0</ele><time>2026-04-06T09:11:21Z</time></trkpt><trkpt lat="45.84577772027345" lon="10.991315189500941"><ele>187.0</ele><time>2026-04-06T09:11:22Z</time></trkpt><trkpt lat="45.84564489169731" lon="10.991115574617357"><ele>189.0</ele><time>2026-04-06T09:11:23Z</time></trkpt><trkpt lat="45.8455066917995" lon="10.990919645393522"><ele>190.66666666666669</ele><time>2026-04-06T09:11:24Z</time></trkpt><trkpt lat="45.8453667925587" lon="10.990724169578087"><ele>192.33333333333334</ele><time>2026-04-06T09:11:25Z</time></trkpt><trkpt lat="45.845226289316386" lon="10.990529196289799"><ele>194.0</ele><time>2026-04-06T09:11:26Z</time></trkpt><trkpt lat="45.84508677844707" lon="10.990332544905577"><ele>194.0</ele><time>2026-04-06T09:11:27Z</time></trkpt><trkpt lat="45.844948279981146" lon="10.990138275436951"><ele>194.0</ele><time>2026-04-06T09:11:28Z</time></trkpt><trkpt lat="45.8448117196611" lon="10.989942691506451"><ele>194.0</ele><time>2026-04-06T09:11:29Z</time></trkpt><trkpt lat="45.84467943970682" lon="10.989749886801796"><ele>194.33333333333334</ele><time>2026-04-06T09:11:30Z</time></trkpt><trkpt lat="45.8445438430843" lon="10.98955734105384"><ele>194.66666666666669</ele><time>2026-04-06T09:11:31Z</time></trkpt><trkpt lat="45.84440847293827" lon="10.98936109469752"><ele>195.0</ele><time>2026-04-06T09:11:32Z</time></trkpt><trkpt lat="45.84427767628208" lon="10.98917065385568"><ele>195.66666666666669</ele><time>2026-04-06T09:11:33Z</time></trkpt><trkpt lat="45.844148133036235" lon="10.988982149246954"><ele>196.33333333333334</ele><time>2026-04-06T09:11:34Z</time></trkpt><trkpt lat="45.84403182356622" lon="10.988785867118226"><ele>197.0</ele><time>2026-04-06T09:11:35Z</time></trkpt><trkpt lat="45.843924213330205" lon="10.988579150023552"><ele>197.0</ele><time>2026-04-06T09:11:36Z</time></trkpt><trkpt lat="45.843820596461775" lon="10.988367590929663"><ele>197.0</ele><time>2026-04-06T09:11:37Z</time></trkpt><trkpt lat="45.84372230277761" lon="10.988147763509678"><ele>197.0</ele><time>2026-04-06T09:11:38Z</time></trkpt><trkpt lat="45.84363262763194" lon="10.987914935874622"><ele>198.0</ele><time>2026-04-06T09:11:39Z</time></trkpt><trkpt lat="45.84355047892264" lon="10.987672885792328"><ele>199.0</ele><time>2026-04-06T09:11:40Z</time></trkpt><trkpt lat="45.84347297981619" lon="10.987424089542571"><ele>200.0</ele><time>2026-04-06T09:11:41Z</time></trkpt><trkpt lat="45.84340354961155" lon="10.987169773681133"><ele>203.33333333333334</ele><time>2026-04-06T09:11:42Z</time></trkpt><trkpt lat="45.84334711241491" lon="10.98690827309007"><ele>206.66666666666669</ele><time>2026-04-06T09:11:43Z</time></trkpt><trkpt lat="45.843288557908465" lon="10.98664108831851"><ele>210.0</ele><time>2026-04-06T09:11:44Z</time></trkpt><trkpt lat="45.843222311594204" lon="10.986370504479602"><ele>212.33333333333331</ele><time>2026-04-06T09:11:45Z</time></trkpt><trkpt lat="45.84315529605099" lon="10.986097729794412"><ele>214.66666666666666</ele><time>2026-04-06T09:11:46Z</time></trkpt><trkpt lat="45.843087391179225" lon="10.985823158910739"><ele>217.0</ele><time>2026-04-06T09:11:47Z</time></trkpt><trkpt lat="45.843022846983885" lon="10.98555036205214"><ele>224.0</ele><time>2026-04-06T09:11:48Z</time></trkpt><trkpt lat="45.8429571442637" lon="10.98527685523125"><ele>231.0</ele><time>2026-04-06T09:11:49Z</time></trkpt><trkpt lat="45.84288513124595" lon="10.984981769798297"><ele>238.0</ele><time>2026-04-06T09:11:50.072Z</time></trkpt><trkpt lat="45.84282516812578" lon="10.984719025370852"><ele>239.66666666666666</ele><time>2026-04-06T09:11:51.069Z</time></trkpt><trkpt lat="45.84275975166367" lon="10.984448237759038"><ele>241.33333333333331</ele><time>2026-04-06T09:11:52.065Z</time></trkpt><trkpt lat="45.84269339757049" lon="10.98417948834734"><ele>243.0</ele><time>2026-04-06T09:11:53.064Z</time></trkpt><trkpt lat="45.84262518463327" lon="10.983915037060871"><ele>246.5</ele><time>2026-04-06T09:11:54.037Z</time></trkpt><trkpt lat="45.84258944671244" lon="10.98363734702633"><ele>250.0</ele><time>2026-04-06T09:11:55.035Z</time></trkpt><trkpt lat="45.842397644360354" lon="10.980761748041662"><ele>250.0</ele><time>2026-04-06T09:11:58.848Z</time></trkpt><trkpt lat="45.842480946565125" lon="10.97960989896776"><ele>245.0</ele><time>2026-04-06T09:11:59.848Z</time></trkpt><trkpt lat="45.84265471188586" lon="10.978481279201542"><ele>247.0</ele><time>2026-04-06T09:12:00.846Z</time></trkpt><trkpt lat="45.8429188476348" lon="10.977384230115247"><ele>248.0</ele><time>2026-04-06T09:12:01.849Z</time></trkpt><trkpt lat="45.84326831080209" lon="10.97634417023419"><ele>251.0</ele><time>2026-04-06T09:12:02.845Z</time></trkpt><trkpt lat="45.843701334993916" lon="10.975362819858699"><ele>267.0</ele><time>2026-04-06T09:12:03.847Z</time></trkpt><trkpt lat="45.84419637337755" lon="10.97444546470403"><ele>274.0</ele><time>2026-04-06T09:12:04.848Z</time></trkpt><trkpt lat="45.844698307881146" lon="10.973535665525818"><ele>283.0</ele><time>2026-04-06T09:12:05.849Z</time></trkpt><trkpt lat="45.84520062555457" lon="10.97262680993968"><ele>309.0</ele><time>2026-04-06T09:12:06.849Z</time></trkpt><trkpt lat="45.8457023469925" lon="10.97171738629853"><ele>356.0</ele><time>2026-04-06T09:12:07.849Z</time></trkpt><trkpt lat="45.84620429010456" lon="10.970811562254237"><ele>418.0</ele><time>2026-04-06T09:12:08.846Z</time></trkpt><trkpt lat="45.846703506143946" lon="10.969896053307714"><ele>392.0</ele><time>2026-04-06T09:12:09.849Z</time></trkpt><trkpt lat="45.847205997456115" lon="10.968987524781445"><ele>381.0</ele><time>2026-04-06T09:12:10.849Z</time></trkpt><trkpt lat="45.847706875749736" lon="10.968077183970927"><ele>384.0</ele><time>2026-04-06T09:12:11.849Z</time></trkpt><trkpt lat="45.848207238558935" lon="10.967172593566824"><ele>335.0</ele><time>2026-04-06T09:12:12.844Z</time></trkpt><trkpt lat="45.8487086885706" lon="10.966260895379872"><ele>316.0</ele><time>2026-04-06T09:12:13.846Z</time></trkpt><trkpt lat="45.84920955544603" lon="10.965346951729165"><ele>255.0</ele><time>2026-04-06T09:12:14.848Z</time></trkpt><trkpt lat="45.84968766591576" lon="10.964411291562145"><ele>214.0</ele><time>2026-04-06T09:12:15.849Z</time></trkpt><trkpt lat="45.850152799815774" lon="10.963468587178566"><ele>208.0</ele><time>2026-04-06T09:12:16.845Z</time></trkpt><trkpt lat="45.85055100277344" lon="10.962686495707317"><ele>207.99999999999997</ele><time>2026-04-06T09:16:10.999Z</time></trkpt><trkpt lat="45.85061500577545" lon="10.962582984963328"><ele>208.0</ele><time>2026-04-06T09:16:11.999Z</time></trkpt><trkpt lat="45.85065040364258" lon="10.962499532987795"><ele>208.0</ele><time>2026-04-06T09:16:12.999Z</time></trkpt><trkpt lat="45.85070382721826" lon="10.962437170323675"><ele>208.0</ele><time>2026-04-06T09:16:13.999Z</time></trkpt><trkpt lat="45.850739604239365" lon="10.962352871938851"><ele>207.99999999999997</ele><time>2026-04-06T09:16:14.999Z</time></trkpt><trkpt lat="45.85079623639242" lon="10.962264737788624"><ele>208.0</ele><time>2026-04-06T09:16:17Z</time></trkpt><trkpt lat="45.85085768336432" lon="10.962175266588448"><ele>207.8</ele><time>2026-04-06T09:16:22Z</time></trkpt><trkpt lat="45.85094087344589" lon="10.962010053603539"><ele>207.60000000000002</ele><time>2026-04-06T09:16:24Z</time></trkpt><trkpt lat="45.85100384748089" lon="10.96189489929466"><ele>207.39999999999998</ele><time>2026-04-06T09:16:25Z</time></trkpt><trkpt lat="45.85106413606438" lon="10.961794053757266"><ele>207.2</ele><time>2026-04-06T09:16:26Z</time></trkpt><trkpt lat="45.851116041275176" lon="10.96170379245932"><ele>207.0</ele><time>2026-04-06T09:16:27Z</time></trkpt><trkpt lat="45.851160454283544" lon="10.961620517401947"><ele>205.66666666666666</ele><time>2026-04-06T09:16:28Z</time></trkpt><trkpt lat="45.851233966861656" lon="10.961493179403531"><ele>204.33333333333331</ele><time>2026-04-06T09:16:30Z</time></trkpt><trkpt lat="45.85127343801909" lon="10.961385364230633"><ele>203.0</ele><time>2026-04-06T09:16:33Z</time></trkpt><trkpt lat="45.851323545829445" lon="10.961303332206079"><ele>201.66666666666666</ele><time>2026-04-06T09:16:39Z</time></trkpt><trkpt lat="45.85136431592684" lon="10.961218708176666"><ele>200.33333333333331</ele><time>2026-04-06T09:16:44Z</time></trkpt><trkpt lat="45.85141139409875" lon="10.961147405391765"><ele>199.0</ele><time>2026-04-06T09:16:50Z</time></trkpt><trkpt lat="45.85146508783131" lon="10.96108330856633"><ele>199.0</ele><time>2026-04-06T09:17:11Z</time></trkpt><trkpt lat="45.85155550811235" lon="10.960980130917727"><ele>199.0</ele><time>2026-04-06T09:17:13Z</time></trkpt><trkpt lat="45.8516126399845" lon="10.960879789306183"><ele>199.0</ele><time>2026-04-06T09:17:14Z</time></trkpt><trkpt lat="45.8516861484079" lon="10.960763152972437"><ele>199.0</ele><time>2026-04-06T09:17:15Z</time></trkpt><trkpt lat="45.85175576330568" lon="10.96066626287786"><ele>199.0</ele><time>2026-04-06T09:17:16Z</time></trkpt><trkpt lat="45.85182391365268" lon="10.9605591863397"><ele>199.0</ele><time>2026-04-06T09:17:17Z</time></trkpt><trkpt lat="45.85189297561598" lon="10.960451316727665"><ele>199.0</ele><time>2026-04-06T09:17:18Z</time></trkpt><trkpt lat="45.85196385059547" lon="10.960349771284502"><ele>199.0</ele><time>2026-04-06T09:17:19Z</time></trkpt><trkpt lat="45.85203078602126" lon="10.960260322483707"><ele>199.0</ele><time>2026-04-06T09:17:20Z</time></trkpt><trkpt lat="45.85209673012506" lon="10.96016954200732"><ele>199.0</ele><time>2026-04-06T09:17:21Z</time></trkpt><trkpt lat="45.852165771383376" lon="10.960077518864761"><ele>199.2</ele><time>2026-04-06T09:17:22Z</time></trkpt><trkpt lat="45.85223450223813" lon="10.959985077252446"><ele>199.39999999999998</ele><time>2026-04-06T09:17:23Z</time></trkpt><trkpt lat="45.85230111259084" lon="10.959896478332753"><ele>199.6</ele><time>2026-04-06T09:17:24Z</time></trkpt><trkpt lat="45.85237283457668" lon="10.959800130699122"><ele>199.8</ele><time>2026-04-06T09:17:25Z</time></trkpt><trkpt lat="45.85244483468583" lon="10.95970946784696"><ele>200.0</ele><time>2026-04-06T09:17:26Z</time></trkpt><trkpt lat="45.85251942700597" lon="10.959618045997184"><ele>200.0</ele><time>2026-04-06T09:17:27Z</time></trkpt><trkpt lat="45.852593895798584" lon="10.959532697354964"><ele>200.0</ele><time>2026-04-06T09:17:28Z</time></trkpt><trkpt lat="45.852666426660136" lon="10.959447556652414"><ele>200.0</ele><time>2026-04-06T09:17:29Z</time></trkpt><trkpt lat="45.85273847922961" lon="10.959365127107802"><ele>200.0</ele><time>2026-04-06T09:17:30Z</time></trkpt><trkpt lat="45.85281387414332" lon="10.959282771752784"><ele>200.0</ele><time>2026-04-06T09:17:31Z</time></trkpt><trkpt lat="45.85288721175496" lon="10.959208128999984"><ele>200.2</ele><time>2026-04-06T09:17:32Z</time></trkpt><trkpt lat="45.85295838190469" lon="10.959132360244697"><ele>200.4</ele><time>2026-04-06T09:17:33Z</time></trkpt><trkpt lat="45.853036438811024" lon="10.959054100791635"><ele>200.60000000000002</ele><time>2026-04-06T09:17:34Z</time></trkpt><trkpt lat="45.85311480318482" lon="10.958972895003928"><ele>200.8</ele><time>2026-04-06T09:17:35Z</time></trkpt><trkpt lat="45.853191686671835" lon="10.958889608039298"><ele>201.0</ele><time>2026-04-06T09:17:36Z</time></trkpt><trkpt lat="45.85326940775571" lon="10.958806107460829"><ele>201.0</ele><time>2026-04-06T09:17:37Z</time></trkpt><trkpt lat="45.853347878843806" lon="10.95872910239022"><ele>201.0</ele><time>2026-04-06T09:17:38Z</time></trkpt><trkpt lat="45.853423020092876" lon="10.95864756192824"><ele>201.0</ele><time>2026-04-06T09:17:39Z</time></trkpt><trkpt lat="45.853498880080565" lon="10.95856903847951"><ele>201.0</ele><time>2026-04-06T09:17:40Z</time></trkpt><trkpt lat="45.85357139513725" lon="10.958490444732046"><ele>201.0</ele><time>2026-04-06T09:17:41Z</time></trkpt><trkpt lat="45.8536410749965" lon="10.958415526607952"><ele>201.0</ele><time>2026-04-06T09:17:42Z</time></trkpt><trkpt lat="45.85369514683938" lon="10.958346593672657"><ele>201.0</ele><time>2026-04-06T09:17:42.999Z</time></trkpt><trkpt lat="45.85376802837767" lon="10.958220764453177"><ele>201.0</ele><time>2026-04-06T09:17:44.999Z</time></trkpt><trkpt lat="45.85383717136187" lon="10.958052943220842"><ele>201.0</ele><time>2026-04-06T09:17:46.999Z</time></trkpt><trkpt lat="45.85389657686861" lon="10.9579593944288"><ele>201.0</ele><time>2026-04-06T09:17:47.999Z</time></trkpt><trkpt lat="45.85395297521356" lon="10.957876273883024"><ele>201.0</ele><time>2026-04-06T09:17:48.999Z</time></trkpt><trkpt lat="45.85399793085238" lon="10.957800169775322"><ele>201.0</ele><time>2026-04-06T09:17:49.999Z</time></trkpt><trkpt lat="45.85403706599599" lon="10.957710777695143"><ele>201.0</ele><time>2026-04-06T09:17:50.999Z</time></trkpt><trkpt lat="45.854083664222586" lon="10.957613542589145"><ele>201.0</ele><time>2026-04-06T09:17:51.999Z</time></trkpt><trkpt lat="45.85413116442525" lon="10.957515823855369"><ele>201.0</ele><time>2026-04-06T09:17:52.999Z</time></trkpt><trkpt lat="45.85419067164308" lon="10.957432687380702"><ele>201.0</ele><time>2026-04-06T09:17:53.999Z</time></trkpt><trkpt lat="45.85423914084945" lon="10.957329650813115"><ele>201.16666666666666</ele><time>2026-04-06T09:17:54.999Z</time></trkpt><trkpt lat="45.85427804038831" lon="10.957231207871505"><ele>201.33333333333331</ele><time>2026-04-06T09:17:55.999Z</time></trkpt><trkpt lat="45.85431054098118" lon="10.957139702670398"><ele>201.5</ele><time>2026-04-06T09:17:56.999Z</time></trkpt><trkpt lat="45.85434453998632" lon="10.95702914779136"><ele>201.66666666666666</ele><time>2026-04-06T09:17:58.999Z</time></trkpt><trkpt lat="45.85437919663395" lon="10.956912600074933"><ele>201.83333333333331</ele><time>2026-04-06T09:18:02.999Z</time></trkpt><trkpt lat="45.85441392117259" lon="10.956795822979833"><ele>202.0</ele><time>2026-04-06T09:18:04.999Z</time></trkpt><trkpt lat="45.85444812809184" lon="10.956673564877393"><ele>203.99999999999997</ele><time>2026-04-06T09:18:06.999Z</time></trkpt><trkpt lat="45.85447424607057" lon="10.956574864252698"><ele>206.0</ele><time>2026-04-06T09:18:08.999Z</time></trkpt><trkpt lat="45.85450689987412" lon="10.956449314315499"><ele>208.0</ele><time>2026-04-06T09:18:11.999Z</time></trkpt><trkpt lat="45.854530184131555" lon="10.956352238397237"><ele>210.0</ele><time>2026-04-06T09:18:12.999Z</time></trkpt><trkpt lat="45.85455943047748" lon="10.956224960869621"><ele>211.99999999999997</ele><time>2026-04-06T09:18:13.999Z</time></trkpt><trkpt lat="45.85458757993676" lon="10.95609312863913"><ele>214.0</ele><time>2026-04-06T09:18:14.999Z</time></trkpt><trkpt lat="45.85461028089567" lon="10.955972560084511"><ele>213.2</ele><time>2026-04-06T09:18:15.999Z</time></trkpt><trkpt lat="45.85462547005461" lon="10.95586530781639"><ele>212.39999999999998</ele><time>2026-04-06T09:18:16.999Z</time></trkpt><trkpt lat="45.85463970701583" lon="10.955703378683893"><ele>211.6</ele><time>2026-04-06T09:18:18.999Z</time></trkpt><trkpt lat="45.85464596524364" lon="10.955556465147739"><ele>210.8</ele><time>2026-04-06T09:18:20.999Z</time></trkpt><trkpt lat="45.854645416043084" lon="10.955437089130474"><ele>210.0</ele><time>2026-04-06T09:18:23Z</time></trkpt><trkpt lat="45.85463960737988" lon="10.955314270719919"><ele>210.0</ele><time>2026-04-06T09:18:26Z</time></trkpt><trkpt lat="45.854631986479" lon="10.95521325327681"><ele>210.0</ele><time>2026-04-06T09:18:29Z</time></trkpt><trkpt lat="45.8546237716327" lon="10.955116383984283"><ele>210.0</ele><time>2026-04-06T09:18:31Z</time></trkpt><trkpt lat="45.85461389457745" lon="10.955014954219891"><ele>210.0</ele><time>2026-04-06T09:18:32Z</time></trkpt><trkpt lat="45.85459694578249" lon="10.954875730409809"><ele>210.0</ele><time>2026-04-06T09:18:33Z</time></trkpt><trkpt lat="45.854577480695504" lon="10.954728430704604"><ele>210.0</ele><time>2026-04-06T09:18:34Z</time></trkpt><trkpt lat="45.854558498439864" lon="10.954602193548043"><ele>210.42857142857142</ele><time>2026-04-06T09:18:35Z</time></trkpt><trkpt lat="45.854542956967656" lon="10.9544988391193"><ele>210.85714285714286</ele><time>2026-04-06T09:18:36Z</time></trkpt><trkpt lat="45.85452894462601" lon="10.954405653187996"><ele>211.28571428571428</ele><time>2026-04-06T09:18:38Z</time></trkpt><trkpt lat="45.854511563482696" lon="10.954290068497038"><ele>211.71428571428572</ele><time>2026-04-06T09:18:43Z</time></trkpt><trkpt lat="45.85449810334542" lon="10.95420056111025"><ele>212.14285714285714</ele><time>2026-04-06T09:18:45Z</time></trkpt><trkpt lat="45.8544818005897" lon="10.954105291385531"><ele>212.57142857142856</ele><time>2026-04-06T09:18:47Z</time></trkpt><trkpt lat="45.85446677362462" lon="10.954010357545549"><ele>213.0</ele><time>2026-04-06T09:18:49Z</time></trkpt><trkpt lat="45.85445134554203" lon="10.953912889531223"><ele>213.33333333333334</ele><time>2026-04-06T09:18:51Z</time></trkpt><trkpt lat="45.85440846369197" lon="10.953822038670944"><ele>213.66666666666669</ele><time>2026-04-06T09:18:54Z</time></trkpt><trkpt lat="45.85439371749169" lon="10.953726164399573"><ele>214.0</ele><time>2026-04-06T09:18:58Z</time></trkpt><trkpt lat="45.854364487670374" lon="10.9536277630853"><ele>214.33333333333334</ele><time>2026-04-06T09:19:09Z</time></trkpt><trkpt lat="45.8543392321276" lon="10.9534202055108"><ele>214.66666666666669</ele><time>2026-04-06T09:19:11Z</time></trkpt><trkpt lat="45.85432873539093" lon="10.953318356803411"><ele>215.0</ele><time>2026-04-06T09:19:12Z</time></trkpt><trkpt lat="45.85432022765381" lon="10.95322284964773"><ele>215.85714285714286</ele><time>2026-04-06T09:19:30Z</time></trkpt><trkpt lat="45.854307463517074" lon="10.953120963654857"><ele>216.71428571428572</ele><time>2026-04-06T09:19:32Z</time></trkpt><trkpt lat="45.85429504354801" lon="10.953027995535413"><ele>217.57142857142858</ele><time>2026-04-06T09:19:33.999Z</time></trkpt><trkpt lat="45.854310690298654" lon="10.952923661255763"><ele>218.42857142857144</ele><time>2026-04-06T09:19:36.999Z</time></trkpt><trkpt lat="45.85430228718052" lon="10.952802142349261"><ele>219.28571428571428</ele><time>2026-04-06T09:19:40.999Z</time></trkpt><trkpt lat="45.85429850333336" lon="10.952697211882008"><ele>220.14285714285717</ele><time>2026-04-06T09:19:43.999Z</time></trkpt><trkpt lat="45.85429794644542" lon="10.95259053263509"><ele>221.0</ele><time>2026-04-06T09:19:50.999Z</time></trkpt><trkpt lat="45.85430034870585" lon="10.95248809365678"><ele>221.60000000000002</ele><time>2026-04-06T09:19:54.999Z</time></trkpt><trkpt lat="45.854306876390346" lon="10.952382683366848"><ele>222.20000000000002</ele><time>2026-04-06T09:19:58.999Z</time></trkpt><trkpt lat="45.85431949741497" lon="10.952243570230713"><ele>222.79999999999998</ele><time>2026-04-06T09:20:01.999Z</time></trkpt><trkpt lat="45.854333121068876" lon="10.952127511952611"><ele>223.39999999999998</ele><time>2026-04-06T09:20:03.999Z</time></trkpt><trkpt lat="45.85434654565367" lon="10.95201314998838"><ele>224.0</ele><time>2026-04-06T09:20:05.999Z</time></trkpt><trkpt lat="45.8543525284758" lon="10.951842775533285"><ele>223.79999999999998</ele><time>2026-04-06T09:20:07.999Z</time></trkpt><trkpt lat="45.85437130584564" lon="10.951682660682373"><ele>223.59999999999997</ele><time>2026-04-06T09:20:09.999Z</time></trkpt><trkpt lat="45.85439426914797" lon="10.951546666955181"><ele>223.4</ele><time>2026-04-06T09:20:11.999Z</time></trkpt><trkpt lat="45.85440903032132" lon="10.951421873017036"><ele>223.2</ele><time>2026-04-06T09:20:13.999Z</time></trkpt><trkpt lat="45.85442245111336" lon="10.951262012406335"><ele>223.0</ele><time>2026-04-06T09:20:15.999Z</time></trkpt><trkpt lat="45.85445041190924" lon="10.951169015773456"><ele>223.0</ele><time>2026-04-06T09:20:16.999Z</time></trkpt><trkpt lat="45.85446556379135" lon="10.951044961803094"><ele>223.0</ele><time>2026-04-06T09:20:18.999Z</time></trkpt><trkpt lat="45.8544787247664" lon="10.950937206823252"><ele>223.0</ele><time>2026-04-06T09:20:20.999Z</time></trkpt><trkpt lat="45.854502843075835" lon="10.950739740230437"><ele>223.0</ele><time>2026-04-06T09:20:22.999Z</time></trkpt><trkpt lat="45.854521656841136" lon="10.95058743900145"><ele>223.0</ele><time>2026-04-06T09:20:23.999Z</time></trkpt><trkpt lat="45.85454341105075" lon="10.950413733731976"><ele>223.2</ele><time>2026-04-06T09:20:24.999Z</time></trkpt><trkpt lat="45.85456746629367" lon="10.95022165459166"><ele>223.4</ele><time>2026-04-06T09:20:25.999Z</time></trkpt><trkpt lat="45.85458690805318" lon="10.950066414029646"><ele>223.59999999999997</ele><time>2026-04-06T09:20:26.999Z</time></trkpt><trkpt lat="45.854601766397394" lon="10.949947771422432"><ele>223.79999999999998</ele><time>2026-04-06T09:20:28Z</time></trkpt><trkpt lat="45.85461291241203" lon="10.949858771552377"><ele>224.0</ele><time>2026-04-06T09:20:29Z</time></trkpt><trkpt lat="45.85463706047095" lon="10.949665951643626"><ele>226.5</ele><time>2026-04-06T09:20:31Z</time></trkpt><trkpt lat="45.85465679182081" lon="10.949508398206186"><ele>229.0</ele><time>2026-04-06T09:20:32Z</time></trkpt><trkpt lat="45.85467864484872" lon="10.949333768520468"><ele>231.5</ele><time>2026-04-06T09:20:33Z</time></trkpt><trkpt lat="45.85470090112727" lon="10.949155902160241"><ele>234.0</ele><time>2026-04-06T09:20:34Z</time></trkpt><trkpt lat="45.85472250056005" lon="10.948983468677344"><ele>235.39999999999998</ele><time>2026-04-06T09:20:35Z</time></trkpt><trkpt lat="45.85471869089215" lon="10.948826256462011"><ele>236.79999999999998</ele><time>2026-04-06T09:20:36Z</time></trkpt><trkpt lat="45.854736692982144" lon="10.948697722697238"><ele>238.20000000000002</ele><time>2026-04-06T09:20:37Z</time></trkpt><trkpt lat="45.8547515625807" lon="10.948580899156445"><ele>239.60000000000002</ele><time>2026-04-06T09:20:38Z</time></trkpt><trkpt lat="45.85476400887699" lon="10.94846756960764"><ele>241.0</ele><time>2026-04-06T09:20:39Z</time></trkpt><trkpt lat="45.85478050756034" lon="10.948341010299508"><ele>241.20000000000002</ele><time>2026-04-06T09:20:40Z</time></trkpt><trkpt lat="45.85481888259221" lon="10.948212205078907"><ele>241.40000000000003</ele><time>2026-04-06T09:20:41Z</time></trkpt><trkpt lat="45.85483658897882" lon="10.948069553899826"><ele>241.6</ele><time>2026-04-06T09:20:42Z</time></trkpt><trkpt lat="45.854854743770034" lon="10.94792328984661"><ele>241.8</ele><time>2026-04-06T09:20:43Z</time></trkpt><trkpt lat="45.854872528473344" lon="10.947780007562582"><ele>242.0</ele><time>2026-04-06T09:20:44Z</time></trkpt><trkpt lat="45.85488782847268" lon="10.947656743188766"><ele>241.33333333333334</ele><time>2026-04-06T09:20:45Z</time></trkpt><trkpt lat="45.85490250189321" lon="10.947539579254672"><ele>240.66666666666669</ele><time>2026-04-06T09:20:46Z</time></trkpt><trkpt lat="45.85491776924852" lon="10.94741803659423"><ele>240.0</ele><time>2026-04-06T09:20:47Z</time></trkpt><trkpt lat="45.854933445984976" lon="10.947293234771035"><ele>239.33333333333331</ele><time>2026-04-06T09:20:48Z</time></trkpt><trkpt lat="45.85494742554959" lon="10.947181944089811"><ele>238.66666666666666</ele><time>2026-04-06T09:20:49Z</time></trkpt><trkpt lat="45.854960253292276" lon="10.947079822535407"><ele>238.0</ele><time>2026-04-06T09:20:50Z</time></trkpt><trkpt lat="45.85497360830708" lon="10.94697350406565"><ele>238.0</ele><time>2026-04-06T09:20:51Z</time></trkpt><trkpt lat="45.85498564369821" lon="10.946877690577647"><ele>238.0</ele><time>2026-04-06T09:20:52Z</time></trkpt><trkpt lat="45.85499753532679" lon="10.946782580692895"><ele>238.0</ele><time>2026-04-06T09:20:53Z</time></trkpt><trkpt lat="45.855020002433406" lon="10.946602109482312"><ele>238.0</ele><time>2026-04-06T09:20:55Z</time></trkpt><trkpt lat="45.85504175784678" lon="10.94642735496158"><ele>238.0</ele><time>2026-04-06T09:20:57Z</time></trkpt><trkpt lat="45.855053130182036" lon="10.946336004489105"><ele>236.0</ele><time>2026-04-06T09:20:58Z</time></trkpt><trkpt lat="45.85506661809432" lon="10.946227664692202"><ele>234.0</ele><time>2026-04-06T09:20:59Z</time></trkpt><trkpt lat="45.85508623548736" lon="10.946074101287799"><ele>232.0</ele><time>2026-04-06T09:21:00Z</time></trkpt><trkpt lat="45.8551093083381" lon="10.945892132550227"><ele>230.0</ele><time>2026-04-06T09:21:01Z</time></trkpt><trkpt lat="45.85513432599622" lon="10.945694824477012"><ele>243.0</ele><time>2026-04-06T09:21:02Z</time></trkpt><trkpt lat="45.85514802048992" lon="10.94547888504565"><ele>256.0</ele><time>2026-04-06T09:21:03Z</time></trkpt><trkpt lat="45.85518101405712" lon="10.945260874777027"><ele>269.0</ele><time>2026-04-06T09:21:04Z</time></trkpt><trkpt lat="45.855209608928995" lon="10.94503841852411"><ele>269.0</ele><time>2026-04-06T09:21:05Z</time></trkpt><trkpt lat="45.85523404817783" lon="10.944816351820153"><ele>269.0</ele><time>2026-04-06T09:21:06Z</time></trkpt><trkpt lat="45.85525789730315" lon="10.944602110257945"><ele>269.0</ele><time>2026-04-06T09:21:06.999Z</time></trkpt><trkpt lat="45.85529894154139" lon="10.944405810452745"><ele>269.0</ele><time>2026-04-06T09:21:07.999Z</time></trkpt><trkpt lat="45.85532296262006" lon="10.944213701242168"><ele>269.0</ele><time>2026-04-06T09:21:08.999Z</time></trkpt><trkpt lat="45.855343012701766" lon="10.944051975345355"><ele>269.0</ele><time>2026-04-06T09:21:09.999Z</time></trkpt><trkpt lat="45.85536129211171" lon="10.943904668357499"><ele>269.0</ele><time>2026-04-06T09:21:10.999Z</time></trkpt><trkpt lat="45.85537833042492" lon="10.943767362692661"><ele>267.1666666666667</ele><time>2026-04-06T09:21:11.999Z</time></trkpt><trkpt lat="45.85538033323668" lon="10.943634910591076"><ele>265.33333333333337</ele><time>2026-04-06T09:21:12.999Z</time></trkpt><trkpt lat="45.85539383472022" lon="10.943512168544379"><ele>263.5</ele><time>2026-04-06T09:21:13.999Z</time></trkpt><trkpt lat="45.8554087695121" lon="10.943405025806538"><ele>261.6666666666667</ele><time>2026-04-06T09:21:14.999Z</time></trkpt><trkpt lat="45.85542203883242" lon="10.943302473607392"><ele>259.8333333333333</ele><time>2026-04-06T09:21:15.999Z</time></trkpt><trkpt lat="45.855431264539824" lon="10.943211544059858"><ele>258.0</ele><time>2026-04-06T09:21:16.999Z</time></trkpt><trkpt lat="45.85546718061879" lon="10.943052436053273"><ele>257.0</ele><time>2026-04-06T09:21:18.999Z</time></trkpt><trkpt lat="45.85547975238546" lon="10.942951462802057"><ele>256.0</ele><time>2026-04-06T09:21:19.999Z</time></trkpt><trkpt lat="45.85549415736399" lon="10.942835765115468"><ele>255.0</ele><time>2026-04-06T09:21:20.999Z</time></trkpt><trkpt lat="45.85550986684662" lon="10.942709590772798"><ele>254.0</ele><time>2026-04-06T09:21:21.999Z</time></trkpt><trkpt lat="45.85552434297181" lon="10.942581396773662"><ele>253.0</ele><time>2026-04-06T09:21:22.999Z</time></trkpt><trkpt lat="45.85553473938381" lon="10.942472550565439"><ele>252.0</ele><time>2026-04-06T09:21:23.999Z</time></trkpt><trkpt lat="45.8555396090943" lon="10.942322605513807"><ele>251.39999999999998</ele><time>2026-04-06T09:21:25.999Z</time></trkpt><trkpt lat="45.85553849992068" lon="10.942164509849317"><ele>250.79999999999998</ele><time>2026-04-06T09:21:28.999Z</time></trkpt><trkpt lat="45.85553091458394" lon="10.942007802616194"><ele>250.2</ele><time>2026-04-06T09:21:30.999Z</time></trkpt><trkpt lat="45.85550979249277" lon="10.941833312384587"><ele>249.6</ele><time>2026-04-06T09:21:32.999Z</time></trkpt><trkpt lat="45.85549423486261" lon="10.9417396342959"><ele>249.0</ele><time>2026-04-06T09:21:33.999Z</time></trkpt><trkpt lat="45.8554735431314" lon="10.941641186761066"><ele>248.5</ele><time>2026-04-06T09:21:34.999Z</time></trkpt><trkpt lat="45.85545243351629" lon="10.94155068545695"><ele>248.0</ele><time>2026-04-06T09:21:35.999Z</time></trkpt><trkpt lat="45.855411481139754" lon="10.941389744911046"><ele>247.5</ele><time>2026-04-06T09:21:37.999Z</time></trkpt><trkpt lat="45.855387771390454" lon="10.941304572206974"><ele>247.0</ele><time>2026-04-06T09:21:38.999Z</time></trkpt><trkpt lat="45.855339329329254" lon="10.9411394899955"><ele>246.5</ele><time>2026-04-06T09:21:40.999Z</time></trkpt><trkpt lat="45.85531319870462" lon="10.94105081513774"><ele>246.0</ele><time>2026-04-06T09:21:41.999Z</time></trkpt><trkpt lat="45.85528539538611" lon="10.940956676824202"><ele>245.16666666666666</ele><time>2026-04-06T09:21:42.999Z</time></trkpt><trkpt lat="45.855254604266406" lon="10.940853328545751"><ele>244.33333333333331</ele><time>2026-04-06T09:21:43.999Z</time></trkpt><trkpt lat="45.85522211888973" lon="10.940744293475737"><ele>243.5</ele><time>2026-04-06T09:21:44.999Z</time></trkpt><trkpt lat="45.85518726594141" lon="10.94062731174867"><ele>242.66666666666666</ele><time>2026-04-06T09:21:45.999Z</time></trkpt><trkpt lat="45.855155325307486" lon="10.94051788548763"><ele>241.83333333333331</ele><time>2026-04-06T09:21:46.999Z</time></trkpt><trkpt lat="45.85512664920813" lon="10.940419059306421"><ele>241.0</ele><time>2026-04-06T09:21:47.999Z</time></trkpt><trkpt lat="45.85509728776329" lon="10.940317872225055"><ele>237.33333333333331</ele><time>2026-04-06T09:21:48.999Z</time></trkpt><trkpt lat="45.855066904440825" lon="10.940213163265472"><ele>233.66666666666666</ele><time>2026-04-06T09:21:49.999Z</time></trkpt><trkpt lat="45.855035736958115" lon="10.940105751637988"><ele>230.0</ele><time>2026-04-06T09:21:50.999Z</time></trkpt><trkpt lat="45.85500301781249" lon="10.939992993082841"><ele>226.33333333333331</ele><time>2026-04-06T09:21:51.999Z</time></trkpt><trkpt lat="45.85496931094355" lon="10.939876830279431"><ele>222.66666666666666</ele><time>2026-04-06T09:21:52.999Z</time></trkpt><trkpt lat="45.85493153951471" lon="10.939747998916513"><ele>219.0</ele><time>2026-04-06T09:21:53.999Z</time></trkpt><trkpt lat="45.854892953857146" lon="10.939617327935997"><ele>219.0</ele><time>2026-04-06T09:21:54.999Z</time></trkpt><trkpt lat="45.854856850708856" lon="10.939495064025614"><ele>218.99999999999997</ele><time>2026-04-06T09:21:55.999Z</time></trkpt><trkpt lat="45.85482081012841" lon="10.939373011653101"><ele>218.99999999999997</ele><time>2026-04-06T09:21:56.999Z</time></trkpt><trkpt lat="45.85478217739814" lon="10.939242181037368"><ele>219.0</ele><time>2026-04-06T09:21:57.999Z</time></trkpt><trkpt lat="45.854741772247664" lon="10.939105348103693"><ele>219.0</ele><time>2026-04-06T09:21:58.999Z</time></trkpt><trkpt lat="45.8547002826215" lon="10.938964842523534"><ele>219.0</ele><time>2026-04-06T09:21:59.999Z</time></trkpt><trkpt lat="45.854661076780914" lon="10.938832071268243"><ele>218.99999999999997</ele><time>2026-04-06T09:22:00.999Z</time></trkpt><trkpt lat="45.85462134639242" lon="10.938697523543743"><ele>218.99999999999997</ele><time>2026-04-06T09:22:01.999Z</time></trkpt><trkpt lat="45.854581523862606" lon="10.938562663709389"><ele>219.0</ele><time>2026-04-06T09:22:02.999Z</time></trkpt><trkpt lat="45.85454153904246" lon="10.938426837018714"><ele>219.0</ele><time>2026-04-06T09:22:03.999Z</time></trkpt><trkpt lat="45.85450054078543" lon="10.938287282178065"><ele>219.0</ele><time>2026-04-06T09:22:04.999Z</time></trkpt><trkpt lat="45.854457230142636" lon="10.938141316770938"><ele>218.99999999999997</ele><time>2026-04-06T09:22:05.999Z</time></trkpt><trkpt lat="45.854413708679445" lon="10.937995027408913"><ele>218.99999999999997</ele><time>2026-04-06T09:22:06.999Z</time></trkpt><trkpt lat="45.85437192044727" lon="10.937847987206577"><ele>219.0</ele><time>2026-04-06T09:22:07.999Z</time></trkpt><trkpt lat="45.85433270791367" lon="10.9377042235047"><ele>219.0</ele><time>2026-04-06T09:22:08.999Z</time></trkpt><trkpt lat="45.85429532454051" lon="10.937566375654182"><ele>218.79999999999998</ele><time>2026-04-06T09:22:09.999Z</time></trkpt><trkpt lat="45.854249211439594" lon="10.937442448955744"><ele>218.59999999999997</ele><time>2026-04-06T09:22:10.999Z</time></trkpt><trkpt lat="45.85422146393921" lon="10.937315148010192"><ele>218.4</ele><time>2026-04-06T09:22:11.999Z</time></trkpt><trkpt lat="45.85419954461483" lon="10.93718216150032"><ele>218.2</ele><time>2026-04-06T09:22:12.999Z</time></trkpt><trkpt lat="45.854181370344726" lon="10.937038757935778"><ele>218.0</ele><time>2026-04-06T09:22:13.999Z</time></trkpt><trkpt lat="45.854169229822084" lon="10.936884509630353"><ele>218.0</ele><time>2026-04-06T09:22:14.999Z</time></trkpt><trkpt lat="45.85416044534848" lon="10.936726163178724"><ele>218.0</ele><time>2026-04-06T09:22:15.999Z</time></trkpt><trkpt lat="45.854161570367545" lon="10.936563927501536"><ele>218.0</ele><time>2026-04-06T09:22:16.999Z</time></trkpt><trkpt lat="45.854169911737685" lon="10.936408136510476"><ele>218.0</ele><time>2026-04-06T09:22:17.999Z</time></trkpt><trkpt lat="45.85418233504488" lon="10.936259892754236"><ele>218.0</ele><time>2026-04-06T09:22:18.999Z</time></trkpt><trkpt lat="45.854201862087564" lon="10.93611139327981"><ele>218.33333333333334</ele><time>2026-04-06T09:22:19.999Z</time></trkpt><trkpt lat="45.85422434779967" lon="10.93597744503777"><ele>218.66666666666669</ele><time>2026-04-06T09:22:20.999Z</time></trkpt><trkpt lat="45.85426462256472" lon="10.935865127665364"><ele>219.0</ele><time>2026-04-06T09:22:21.999Z</time></trkpt><trkpt lat="45.85429060601233" lon="10.935745638626383"><ele>219.33333333333331</ele><time>2026-04-06T09:22:22.999Z</time></trkpt><trkpt lat="45.85431584385417" lon="10.935630473727407"><ele>219.66666666666666</ele><time>2026-04-06T09:22:23.999Z</time></trkpt><trkpt lat="45.85433995122326" lon="10.935521115421468"><ele>220.0</ele><time>2026-04-06T09:22:24.999Z</time></trkpt><trkpt lat="45.854349906307604" lon="10.935402429787441"><ele>220.49999999999997</ele><time>2026-04-06T09:22:25.999Z</time></trkpt><trkpt lat="45.85437620068056" lon="10.935285341507967"><ele>221.0</ele><time>2026-04-06T09:22:26.999Z</time></trkpt><trkpt lat="45.854404358144855" lon="10.935160638202333"><ele>221.5</ele><time>2026-04-06T09:22:27.999Z</time></trkpt><trkpt lat="45.854430442113845" lon="10.935043115433917"><ele>222.0</ele><time>2026-04-06T09:22:28.999Z</time></trkpt><trkpt lat="45.85444810985481" lon="10.934952796954331"><ele>222.49999999999997</ele><time>2026-04-06T09:22:29.999Z</time></trkpt><trkpt lat="45.8544862079073" lon="10.93485765968193"><ele>223.0</ele><time>2026-04-06T09:22:31.999Z</time></trkpt><trkpt lat="45.854493142905824" lon="10.934758159508645"><ele>223.83333333333331</ele><time>2026-04-06T09:22:36.999Z</time></trkpt><trkpt lat="45.85452552255445" lon="10.9346804900236"><ele>224.66666666666666</ele><time>2026-04-06T09:22:40.999Z</time></trkpt><trkpt lat="45.85452553082629" lon="10.93458032990041"><ele>225.5</ele><time>2026-04-06T09:22:48.999Z</time></trkpt><trkpt lat="45.85454303424611" lon="10.934484999791552"><ele>226.33333333333331</ele><time>2026-04-06T09:22:54.999Z</time></trkpt><trkpt lat="45.85458473505269" lon="10.93441267235659"><ele>227.16666666666666</ele><time>2026-04-06T09:22:59.999Z</time></trkpt><trkpt lat="45.85461666502764" lon="10.934268057527675"><ele>228.0</ele><time>2026-04-06T09:23:02.999Z</time></trkpt><trkpt lat="45.85460729024033" lon="10.934126356827885"><ele>228.14285714285714</ele><time>2026-04-06T09:23:03.999Z</time></trkpt><trkpt lat="45.85463545133328" lon="10.93402091285658"><ele>228.28571428571428</ele><time>2026-04-06T09:23:04.999Z</time></trkpt><trkpt lat="45.85466122647962" lon="10.933935585612206"><ele>228.42857142857142</ele><time>2026-04-06T09:23:05.999Z</time></trkpt><trkpt lat="45.85470428347202" lon="10.933867541923007"><ele>228.57142857142856</ele><time>2026-04-06T09:23:07.999Z</time></trkpt><trkpt lat="45.85472567310327" lon="10.933773576544024"><ele>228.71428571428572</ele><time>2026-04-06T09:23:19.999Z</time></trkpt><trkpt lat="45.854751602307545" lon="10.933659667915862"><ele>228.85714285714283</ele><time>2026-04-06T09:23:22.999Z</time></trkpt><trkpt lat="45.85477886975179" lon="10.933539711901359"><ele>229.0</ele><time>2026-04-06T09:23:24.999Z</time></trkpt><trkpt lat="45.85480612908892" lon="10.933419145448584"><ele>228.79999999999998</ele><time>2026-04-06T09:23:46.999Z</time></trkpt><trkpt lat="45.854835844842896" lon="10.933287713648138"><ele>228.59999999999997</ele><time>2026-04-06T09:23:48.999Z</time></trkpt><trkpt lat="45.854861288859546" lon="10.933175176106094"><ele>228.4</ele><time>2026-04-06T09:23:50.999Z</time></trkpt><trkpt lat="45.854901415339526" lon="10.932997698093025"><ele>228.2</ele><time>2026-04-06T09:23:52.999Z</time></trkpt><trkpt lat="45.85492398871698" lon="10.932897014049818"><ele>228.0</ele><time>2026-04-06T09:23:53.999Z</time></trkpt><trkpt lat="45.85494695324995" lon="10.932794518358197"><ele>228.0</ele><time>2026-04-06T09:23:54.999Z</time></trkpt><trkpt lat="45.854969305889206" lon="10.93269475383329"><ele>228.0</ele><time>2026-04-06T09:23:55.999Z</time></trkpt><trkpt lat="45.85498975047357" lon="10.932603505477896"><ele>228.0</ele><time>2026-04-06T09:23:56.999Z</time></trkpt><trkpt lat="45.85502817091362" lon="10.932432029281829"><ele>228.0</ele><time>2026-04-06T09:23:58.999Z</time></trkpt><trkpt lat="45.8550586463098" lon="10.932288408589553"><ele>228.0</ele><time>2026-04-06T09:24:00.999Z</time></trkpt><trkpt lat="45.85510116545984" lon="10.932221144579914"><ele>228.0</ele><time>2026-04-06T09:24:01.999Z</time></trkpt><trkpt lat="45.85515675256805" lon="10.932163773077484"><ele>228.33333333333334</ele><time>2026-04-06T09:24:02.999Z</time></trkpt><trkpt lat="45.85520783343991" lon="10.932109615757195"><ele>228.66666666666669</ele><time>2026-04-06T09:24:03.999Z</time></trkpt><trkpt lat="45.855289677587464" lon="10.93201618037836"><ele>229.0</ele><time>2026-04-06T09:24:05.999Z</time></trkpt><trkpt lat="45.85529923370522" lon="10.931919601080047"><ele>229.33333333333334</ele><time>2026-04-06T09:24:06.999Z</time></trkpt><trkpt lat="45.855289109286176" lon="10.93182935251473"><ele>229.66666666666669</ele><time>2026-04-06T09:24:07.999Z</time></trkpt><trkpt lat="45.85524088974615" lon="10.93175470412115"><ele>230.0</ele><time>2026-04-06T09:24:08.999Z</time></trkpt><trkpt lat="45.855216695732764" lon="10.931604093539649"><ele>230.0</ele><time>2026-04-06T09:24:10.999Z</time></trkpt><trkpt lat="45.85523362835785" lon="10.931442405562615"><ele>230.0</ele><time>2026-04-06T09:24:12.999Z</time></trkpt><trkpt lat="45.855280720467235" lon="10.931321461822726"><ele>230.0</ele><time>2026-04-06T09:24:14.999Z</time></trkpt><trkpt lat="45.8553123698919" lon="10.931181284284131"><ele>230.0</ele><time>2026-04-06T09:24:16.999Z</time></trkpt><trkpt lat="45.85534522502369" lon="10.931035766553778"><ele>230.0</ele><time>2026-04-06T09:24:18.999Z</time></trkpt><trkpt lat="45.85536784521157" lon="10.930935815706642"><ele>230.0</ele><time>2026-04-06T09:24:19.999Z</time></trkpt><trkpt lat="45.855388947162126" lon="10.930842626077126"><ele>230.0</ele><time>2026-04-06T09:24:20.999Z</time></trkpt><trkpt lat="45.85542557248791" lon="10.930681935755088"><ele>230.0</ele><time>2026-04-06T09:24:22.999Z</time></trkpt><trkpt lat="45.85545924404889" lon="10.930536304045742"><ele>230.0</ele><time>2026-04-06T09:24:24.999Z</time></trkpt><trkpt lat="45.85549502033542" lon="10.930382243465404"><ele>230.0</ele><time>2026-04-06T09:24:26.999Z</time></trkpt><trkpt lat="45.85553403185011" lon="10.930219431558948"><ele>230.0</ele><time>2026-04-06T09:24:28.999Z</time></trkpt><trkpt lat="45.855568990795064" lon="10.930071629393172"><ele>230.0</ele><time>2026-04-06T09:24:30.999Z</time></trkpt><trkpt lat="45.85558495617966" lon="10.929898978597857"><ele>230.0</ele><time>2026-04-06T09:24:32.999Z</time></trkpt><trkpt lat="45.85561679010886" lon="10.929770121717455"><ele>230.0</ele><time>2026-04-06T09:24:34.999Z</time></trkpt><trkpt lat="45.85564222972864" lon="10.92966521120248"><ele>230.0</ele><time>2026-04-06T09:24:36.999Z</time></trkpt><trkpt lat="45.85566309626112" lon="10.929578571076942"><ele>229.2</ele><time>2026-04-06T09:24:38.999Z</time></trkpt><trkpt lat="45.85568567739057" lon="10.929485909728589"><ele>228.4</ele><time>2026-04-06T09:24:40.999Z</time></trkpt><trkpt lat="45.85571116143497" lon="10.929379749688973"><ele>227.60000000000002</ele><time>2026-04-06T09:24:42.999Z</time></trkpt><trkpt lat="45.85574352946587" lon="10.929237171116164"><ele>226.8</ele><time>2026-04-06T09:24:44.999Z</time></trkpt><trkpt lat="45.85579646266148" lon="10.929089534737187"><ele>226.0</ele><time>2026-04-06T09:24:46.999Z</time></trkpt><trkpt lat="45.85582994184588" lon="10.928944292847971"><ele>225.99999999999997</ele><time>2026-04-06T09:24:48.999Z</time></trkpt><trkpt lat="45.85586515292663" lon="10.928783362114872"><ele>226.0</ele><time>2026-04-06T09:24:50.999Z</time></trkpt><trkpt lat="45.8558858296083" lon="10.928688859954066"><ele>226.0</ele><time>2026-04-06T09:24:51.999Z</time></trkpt><trkpt lat="45.85590584456119" lon="10.92859738245385"><ele>226.0</ele><time>2026-04-06T09:24:52.999Z</time></trkpt><trkpt lat="45.85593962543093" lon="10.92844298828605"><ele>225.99999999999997</ele><time>2026-04-06T09:24:54.999Z</time></trkpt><trkpt lat="45.85596128226954" lon="10.928344006575394"><ele>226.0</ele><time>2026-04-06T09:24:55.999Z</time></trkpt><trkpt lat="45.85598617266242" lon="10.928230248896478"><ele>227.66666666666666</ele><time>2026-04-06T09:24:56.999Z</time></trkpt><trkpt lat="45.856010781746825" lon="10.928118598210904"><ele>229.33333333333331</ele><time>2026-04-06T09:24:57.999Z</time></trkpt><trkpt lat="45.856034395419364" lon="10.928011588352517"><ele>231.0</ele><time>2026-04-06T09:24:58.999Z</time></trkpt><trkpt lat="45.856058712781945" lon="10.927901389515908"><ele>232.66666666666669</ele><time>2026-04-06T09:24:59.999Z</time></trkpt><trkpt lat="45.85608070301844" lon="10.927801736512484"><ele>234.33333333333334</ele><time>2026-04-06T09:25:00.999Z</time></trkpt><trkpt lat="45.85610188688747" lon="10.927705737793866"><ele>236.0</ele><time>2026-04-06T09:25:01.999Z</time></trkpt><trkpt lat="45.85612474335375" lon="10.927602159248467"><ele>235.33333333333334</ele><time>2026-04-06T09:25:02.999Z</time></trkpt><trkpt lat="45.856148005078076" lon="10.927496744282763"><ele>234.66666666666669</ele><time>2026-04-06T09:25:03.999Z</time></trkpt><trkpt lat="45.85616907005354" lon="10.927400391763952"><ele>234.0</ele><time>2026-04-06T09:25:04.999Z</time></trkpt><trkpt lat="45.85618805187016" lon="10.927312166054227"><ele>233.33333333333331</ele><time>2026-04-06T09:25:05.999Z</time></trkpt><trkpt lat="45.856223619139456" lon="10.927146852866663"><ele>232.66666666666666</ele><time>2026-04-06T09:25:07.999Z</time></trkpt><trkpt lat="45.85624457595029" lon="10.927049447580611"><ele>232.0</ele><time>2026-04-06T09:25:08.999Z</time></trkpt><trkpt lat="45.856265506608366" lon="10.92695626660747"><ele>232.00000000000003</ele><time>2026-04-06T09:25:09.999Z</time></trkpt><trkpt lat="45.856286732731554" lon="10.926864037600986"><ele>232.0</ele><time>2026-04-06T09:25:10.999Z</time></trkpt><trkpt lat="45.85630962264552" lon="10.926764579337313"><ele>232.00000000000003</ele><time>2026-04-06T09:25:11.999Z</time></trkpt><trkpt lat="45.85633247000257" lon="10.92666530593579"><ele>232.00000000000003</ele><time>2026-04-06T09:25:12.999Z</time></trkpt><trkpt lat="45.856356199864074" lon="10.926562198128803"><ele>232.0</ele><time>2026-04-06T09:25:13.999Z</time></trkpt><trkpt lat="45.85638037885551" lon="10.926457138573854"><ele>232.00000000000003</ele><time>2026-04-06T09:25:14.999Z</time></trkpt><trkpt lat="45.85640383414438" lon="10.9263548504117"><ele>232.00000000000003</ele><time>2026-04-06T09:25:15.999Z</time></trkpt><trkpt lat="45.85642858039617" lon="10.926246394781664"><ele>231.16666666666666</ele><time>2026-04-06T09:25:16.999Z</time></trkpt><trkpt lat="45.85645382447793" lon="10.926135757413295"><ele>230.33333333333331</ele><time>2026-04-06T09:25:17.999Z</time></trkpt><trkpt lat="45.85647961012901" lon="10.92602274651808"><ele>229.5</ele><time>2026-04-06T09:25:18.999Z</time></trkpt><trkpt lat="45.856504260707844" lon="10.925914710185497"><ele>228.66666666666669</ele><time>2026-04-06T09:25:19.999Z</time></trkpt><trkpt lat="45.856527227063836" lon="10.925814055315511"><ele>227.83333333333334</ele><time>2026-04-06T09:25:20.999Z</time></trkpt><trkpt lat="45.85654859779237" lon="10.925720906908689"><ele>227.0</ele><time>2026-04-06T09:25:21.999Z</time></trkpt><trkpt lat="45.8565882547758" lon="10.925548600396393"><ele>226.00000000000003</ele><time>2026-04-06T09:25:23.999Z</time></trkpt><trkpt lat="45.85660987407744" lon="10.92545466616943"><ele>225.0</ele><time>2026-04-06T09:25:24.999Z</time></trkpt><trkpt lat="45.85663443948565" lon="10.925347931431453"><ele>224.0</ele><time>2026-04-06T09:25:25.999Z</time></trkpt><trkpt lat="45.85666123684115" lon="10.92523149891636"><ele>223.0</ele><time>2026-04-06T09:25:26.999Z</time></trkpt><trkpt lat="45.85668909508439" lon="10.925110457002168"><ele>222.00000000000003</ele><time>2026-04-06T09:25:27.999Z</time></trkpt><trkpt lat="45.85671583372344" lon="10.924994279635527"><ele>221.0</ele><time>2026-04-06T09:25:28.999Z</time></trkpt><trkpt lat="45.85674091619606" lon="10.924883080281681"><ele>221.0</ele><time>2026-04-06T09:25:29.999Z</time></trkpt><trkpt lat="45.85676596094158" lon="10.924772013063969"><ele>221.00000000000003</ele><time>2026-04-06T09:25:30.999Z</time></trkpt><trkpt lat="45.856793925115056" lon="10.924647998856965"><ele>221.00000000000003</ele><time>2026-04-06T09:25:31.999Z</time></trkpt><trkpt lat="45.85682595443461" lon="10.92450595691192"><ele>221.0</ele><time>2026-04-06T09:25:32.999Z</time></trkpt><trkpt lat="45.85686424526485" lon="10.924336146612623"><ele>221.0</ele><time>2026-04-06T09:25:33.999Z</time></trkpt><trkpt lat="45.856907121071856" lon="10.924146002973401"><ele>220.33333333333334</ele><time>2026-04-06T09:25:34.999Z</time></trkpt><trkpt lat="45.856952746177186" lon="10.923943667042453"><ele>219.66666666666669</ele><time>2026-04-06T09:25:35.999Z</time></trkpt><trkpt lat="45.856999887357" lon="10.923735094619193"><ele>219.0</ele><time>2026-04-06T09:25:36.999Z</time></trkpt><trkpt lat="45.85704921783155" lon="10.923518538940304"><ele>220.0</ele><time>2026-04-06T09:25:37.999Z</time></trkpt><trkpt lat="45.85708567542094" lon="10.923288787335252"><ele>221.0</ele><time>2026-04-06T09:25:38.999Z</time></trkpt><trkpt lat="45.85714005143954" lon="10.923061889589917"><ele>222.0</ele><time>2026-04-06T09:25:39.999Z</time></trkpt><trkpt lat="45.857191419525314" lon="10.922831520645934"><ele>222.0</ele><time>2026-04-06T09:25:40.999Z</time></trkpt><trkpt lat="45.85724103416191" lon="10.922607289145049"><ele>222.0</ele><time>2026-04-06T09:25:41.999Z</time></trkpt><trkpt lat="45.85730331680988" lon="10.922399418050889"><ele>222.0</ele><time>2026-04-06T09:25:42.999Z</time></trkpt><trkpt lat="45.85734918070625" lon="10.922196227839141"><ele>222.25</ele><time>2026-04-06T09:25:43.999Z</time></trkpt><trkpt lat="45.85739421038343" lon="10.922001483666277"><ele>222.5</ele><time>2026-04-06T09:25:44.999Z</time></trkpt><trkpt lat="45.857436976703" lon="10.921813580069717"><ele>222.75</ele><time>2026-04-06T09:25:45.999Z</time></trkpt><trkpt lat="45.85746247000217" lon="10.92163143762922"><ele>223.0</ele><time>2026-04-06T09:25:46.999Z</time></trkpt><trkpt lat="45.85749804552254" lon="10.92147880520115"><ele>223.16666666666666</ele><time>2026-04-06T09:25:47.999Z</time></trkpt><trkpt lat="45.85753544268118" lon="10.921347440856268"><ele>223.33333333333331</ele><time>2026-04-06T09:25:48.999Z</time></trkpt><trkpt lat="45.85757507085119" lon="10.921231675544266"><ele>223.5</ele><time>2026-04-06T09:25:49.999Z</time></trkpt><trkpt lat="45.85762185003917" lon="10.92115933600375"><ele>223.66666666666669</ele><time>2026-04-06T09:25:50.999Z</time></trkpt><trkpt lat="45.85766894028269" lon="10.921052122451975"><ele>223.83333333333334</ele><time>2026-04-06T09:25:52.999Z</time></trkpt><trkpt lat="45.85770339656317" lon="10.920973672229744"><ele>224.0</ele><time>2026-04-06T09:25:54.999Z</time></trkpt><trkpt lat="45.857736312179796" lon="10.920870628846778"><ele>223.0</ele><time>2026-04-06T09:25:56.999Z</time></trkpt><trkpt lat="45.85783615542068" lon="10.920719245470055"><ele>222.0</ele><time>2026-04-06T09:25:58.999Z</time></trkpt><trkpt lat="45.85790763456441" lon="10.92062921065354"><ele>221.0</ele><time>2026-04-06T09:25:59.999Z</time></trkpt><trkpt lat="45.857991336150256" lon="10.920535331067908"><ele>220.0</ele><time>2026-04-06T09:26:00.999Z</time></trkpt><trkpt lat="45.858090183186796" lon="10.920438544666249"><ele>220.0</ele><time>2026-04-06T09:26:01.999Z</time></trkpt><trkpt lat="45.858199704436494" lon="10.920341502994365"><ele>220.0</ele><time>2026-04-06T09:26:02.999Z</time></trkpt><trkpt lat="45.85831159374862" lon="10.920243403020681"><ele>220.0</ele><time>2026-04-06T09:26:03.999Z</time></trkpt><trkpt lat="45.858427907923655" lon="10.92016829048075"><ele>220.0</ele><time>2026-04-06T09:26:04.999Z</time></trkpt><trkpt lat="45.858543997995014" lon="10.920069343464084"><ele>221.5</ele><time>2026-04-06T09:26:05.999Z</time></trkpt><trkpt lat="45.85866112563629" lon="10.919969512084174"><ele>223.0</ele><time>2026-04-06T09:26:06.999Z</time></trkpt><trkpt lat="45.85877747613729" lon="10.919870343088276"><ele>224.5</ele><time>2026-04-06T09:26:07.999Z</time></trkpt><trkpt lat="45.85889511534988" lon="10.919770291970512"><ele>226.0</ele><time>2026-04-06T09:26:08.999Z</time></trkpt><trkpt lat="45.85901193225084" lon="10.91967107060764"><ele>226.0</ele><time>2026-04-06T09:26:09.999Z</time></trkpt><trkpt lat="45.85912983738749" lon="10.919570924910758"><ele>226.0</ele><time>2026-04-06T09:26:10.999Z</time></trkpt><trkpt lat="45.85924511755025" lon="10.91947300881505"><ele>226.0</ele><time>2026-04-06T09:26:11.999Z</time></trkpt><trkpt lat="45.85935737052944" lon="10.919377663973815"><ele>226.0</ele><time>2026-04-06T09:26:12.999Z</time></trkpt><trkpt lat="45.85946414009425" lon="10.919286845804104"><ele>226.0</ele><time>2026-04-06T09:26:13.999Z</time></trkpt><trkpt lat="45.85956530645143" lon="10.919200332781617"><ele>226.0</ele><time>2026-04-06T09:26:14.999Z</time></trkpt><trkpt lat="45.85966795687861" lon="10.919112550649961"><ele>226.0</ele><time>2026-04-06T09:26:15.999Z</time></trkpt><trkpt lat="45.85978778526492" lon="10.919010078674274"><ele>226.0</ele><time>2026-04-06T09:26:16.999Z</time></trkpt><trkpt lat="45.85991138870281" lon="10.91890602948647"><ele>226.0</ele><time>2026-04-06T09:26:17.999Z</time></trkpt><trkpt lat="45.86005183605451" lon="10.918788038659589"><ele>226.0</ele><time>2026-04-06T09:26:18.999Z</time></trkpt><trkpt lat="45.860169370677426" lon="10.918689297009303"><ele>226.0</ele><time>2026-04-06T09:26:19.999Z</time></trkpt><trkpt lat="45.86023553200234" lon="10.918633714463231"><ele>226.0</ele><time>2026-04-06T09:26:20.999Z</time></trkpt><trkpt lat="45.86032328129611" lon="10.918558840644787"><ele>226.33333333333331</ele><time>2026-04-06T09:26:22.999Z</time></trkpt><trkpt lat="45.86043807730898" lon="10.918460540107702"><ele>226.66666666666666</ele><time>2026-04-06T09:26:24.999Z</time></trkpt><trkpt lat="45.86050820323899" lon="10.918400486763764"><ele>227.0</ele><time>2026-04-06T09:26:25.999Z</time></trkpt><trkpt lat="45.860563256677516" lon="10.918353660635171"><ele>227.33333333333331</ele><time>2026-04-06T09:26:26.999Z</time></trkpt><trkpt lat="45.86062005826654" lon="10.918305345728168"><ele>227.66666666666666</ele><time>2026-04-06T09:26:27.999Z</time></trkpt><trkpt lat="45.860680619894346" lon="10.918253832557934"><ele>228.0</ele><time>2026-04-06T09:26:28.999Z</time></trkpt><trkpt lat="45.86075079263752" lon="10.918194144279772"><ele>228.0</ele><time>2026-04-06T09:26:29.999Z</time></trkpt><trkpt lat="45.86083054414748" lon="10.918126308374339"><ele>228.0</ele><time>2026-04-06T09:26:30.999Z</time></trkpt><trkpt lat="45.860925718801994" lon="10.918045353688226"><ele>228.0</ele><time>2026-04-06T09:26:31.999Z</time></trkpt><trkpt lat="45.86102149265124" lon="10.917963889310164"><ele>228.0</ele><time>2026-04-06T09:26:32.999Z</time></trkpt><trkpt lat="45.86111564422752" lon="10.917883804852055"><ele>228.0</ele><time>2026-04-06T09:26:33.999Z</time></trkpt><trkpt lat="45.861200557734826" lon="10.917811578191033"><ele>228.4</ele><time>2026-04-06T09:26:34.999Z</time></trkpt><trkpt lat="45.861284863244144" lon="10.91773986870929"><ele>228.8</ele><time>2026-04-06T09:26:35.999Z</time></trkpt><trkpt lat="45.86136897146249" lon="10.917668533818988"><ele>229.2</ele><time>2026-04-06T09:26:36.999Z</time></trkpt><trkpt lat="45.8614514775226" lon="10.917601398269762"><ele>229.6</ele><time>2026-04-06T09:26:37.999Z</time></trkpt><trkpt lat="45.861536767929074" lon="10.91753432954244"><ele>230.0</ele><time>2026-04-06T09:26:38.999Z</time></trkpt><trkpt lat="45.86162821779061" lon="10.917468945469658"><ele>230.0</ele><time>2026-04-06T09:26:39.999Z</time></trkpt><trkpt lat="45.86172114615045" lon="10.917407058583473"><ele>230.0</ele><time>2026-04-06T09:26:40.999Z</time></trkpt><trkpt lat="45.86181780509437" lon="10.917348052596985"><ele>230.0</ele><time>2026-04-06T09:26:41.999Z</time></trkpt><trkpt lat="45.86191790080942" lon="10.917295796724469"><ele>230.0</ele><time>2026-04-06T09:26:42.999Z</time></trkpt><trkpt lat="45.86201791802561" lon="10.91724729956072"><ele>230.0</ele><time>2026-04-06T09:26:43.999Z</time></trkpt><trkpt lat="45.862108790058684" lon="10.91720787807731"><ele>227.83333333333334</ele><time>2026-04-06T09:26:44.999Z</time></trkpt><trkpt lat="45.862189468868706" lon="10.917176022718001"><ele>225.66666666666669</ele><time>2026-04-06T09:26:45.999Z</time></trkpt><trkpt lat="45.86226273663499" lon="10.917150479816716"><ele>223.5</ele><time>2026-04-06T09:26:46.999Z</time></trkpt><trkpt lat="45.86234060872552" lon="10.917124407758264"><ele>221.33333333333331</ele><time>2026-04-06T09:26:47.999Z</time></trkpt><trkpt lat="45.862436011721265" lon="10.917094891323398"><ele>219.16666666666666</ele><time>2026-04-06T09:26:48.999Z</time></trkpt><trkpt lat="45.862539986863695" lon="10.917063452360045"><ele>217.0</ele><time>2026-04-06T09:26:49.999Z</time></trkpt><trkpt lat="45.8626503556663" lon="10.917030080138987"><ele>216.8</ele><time>2026-04-06T09:26:50.999Z</time></trkpt><trkpt lat="45.86276300281568" lon="10.916996133920328"><ele>216.6</ele><time>2026-04-06T09:26:51.999Z</time></trkpt><trkpt lat="45.862870804800764" lon="10.916963665702504"><ele>216.40000000000003</ele><time>2026-04-06T09:26:52.999Z</time></trkpt><trkpt lat="45.86297285744741" lon="10.916932929082893"><ele>216.20000000000002</ele><time>2026-04-06T09:26:53.999Z</time></trkpt><trkpt lat="45.863078232595804" lon="10.916901191807693"><ele>216.0</ele><time>2026-04-06T09:26:54.999Z</time></trkpt><trkpt lat="45.86318386724077" lon="10.916869376347043"><ele>216.0</ele><time>2026-04-06T09:26:55.999Z</time></trkpt><trkpt lat="45.863287248552474" lon="10.916838287680928"><ele>216.00000000000003</ele><time>2026-04-06T09:26:56.999Z</time></trkpt><trkpt lat="45.86339124862049" lon="10.916807071607836"><ele>216.00000000000003</ele><time>2026-04-06T09:26:57.999Z</time></trkpt><trkpt lat="45.86349443809812" lon="10.916776098842274"><ele>216.0</ele><time>2026-04-06T09:26:58.999Z</time></trkpt><trkpt lat="45.86359819836031" lon="10.91674495473858"><ele>216.0</ele><time>2026-04-06T09:26:59.999Z</time></trkpt><trkpt lat="45.863694205397266" lon="10.916716137812324"><ele>219.33333333333334</ele><time>2026-04-06T09:27:00.999Z</time></trkpt><trkpt lat="45.86378130681419" lon="10.916689631177992"><ele>222.66666666666669</ele><time>2026-04-06T09:27:01.999Z</time></trkpt><trkpt lat="45.863859007665475" lon="10.916665045045736"><ele>226.0</ele><time>2026-04-06T09:27:02.999Z</time></trkpt><trkpt lat="45.86393529892515" lon="10.916640904944416"><ele>229.33333333333334</ele><time>2026-04-06T09:27:03.999Z</time></trkpt><trkpt lat="45.864022823606405" lon="10.91661285261668"><ele>232.66666666666669</ele><time>2026-04-06T09:27:04.999Z</time></trkpt><trkpt lat="45.86411642869575" lon="10.916571107015274"><ele>236.0</ele><time>2026-04-06T09:27:05.999Z</time></trkpt><trkpt lat="45.864219150451746" lon="10.916516184811977"><ele>235.75</ele><time>2026-04-06T09:27:06.999Z</time></trkpt><trkpt lat="45.86432599203124" lon="10.916447308011028"><ele>235.5</ele><time>2026-04-06T09:27:07.999Z</time></trkpt><trkpt lat="45.864447305462804" lon="10.916352990052898"><ele>235.25</ele><time>2026-04-06T09:27:08.999Z</time></trkpt><trkpt lat="45.864578173868686" lon="10.916234297681356"><ele>235.0</ele><time>2026-04-06T09:27:09.999Z</time></trkpt><trkpt lat="45.864714004276706" lon="10.916099290115627"><ele>235.0</ele><time>2026-04-06T09:27:10.999Z</time></trkpt><trkpt lat="45.86485041831566" lon="10.915961209079041"><ele>235.0</ele><time>2026-04-06T09:27:11.999Z</time></trkpt><trkpt lat="45.8649808272032" lon="10.915829206316168"><ele>235.0</ele><time>2026-04-06T09:27:12.999Z</time></trkpt><trkpt lat="45.8651058347363" lon="10.91570207757975"><ele>231.25</ele><time>2026-04-06T09:27:13.999Z</time></trkpt><trkpt lat="45.86522092456936" lon="10.915584072674344"><ele>227.5</ele><time>2026-04-06T09:27:14.999Z</time></trkpt><trkpt lat="45.8653224137008" lon="10.915480012920618"><ele>223.75</ele><time>2026-04-06T09:27:15.999Z</time></trkpt><trkpt lat="45.865417628039665" lon="10.915382387005451"><ele>220.0</ele><time>2026-04-06T09:27:16.999Z</time></trkpt><trkpt lat="45.865505359340574" lon="10.91529264446643"><ele>220.0</ele><time>2026-04-06T09:27:17.999Z</time></trkpt><trkpt lat="45.86559489540364" lon="10.915202618752286"><ele>220.0</ele><time>2026-04-06T09:27:18.999Z</time></trkpt><trkpt lat="45.86569011731406" lon="10.915116124644749"><ele>220.0</ele><time>2026-04-06T09:27:19.999Z</time></trkpt><trkpt lat="45.86579631820823" lon="10.915037911398777"><ele>220.0</ele><time>2026-04-06T09:27:20.999Z</time></trkpt><trkpt lat="45.86590656983814" lon="10.914970469787187"><ele>222.0</ele><time>2026-04-06T09:27:21.999Z</time></trkpt><trkpt lat="45.866021346532655" lon="10.914910833109946"><ele>224.0</ele><time>2026-04-06T09:27:22.999Z</time></trkpt><trkpt lat="45.86614196456466" lon="10.914855709563959"><ele>226.0</ele><time>2026-04-06T09:27:23.999Z</time></trkpt><trkpt lat="45.866262398283176" lon="10.914816331995201"><ele>228.0</ele><time>2026-04-06T09:27:24.999Z</time></trkpt><trkpt lat="45.86638505395022" lon="10.914795643474719"><ele>228.0</ele><time>2026-04-06T09:27:25.999Z</time></trkpt><trkpt lat="45.86650581959413" lon="10.914784335516687"><ele>228.0</ele><time>2026-04-06T09:27:26.999Z</time></trkpt><trkpt lat="45.86661844108125" lon="10.914774351909065"><ele>228.0</ele><time>2026-04-06T09:27:27.999Z</time></trkpt><trkpt lat="45.86672987771206" lon="10.914764473337247"><ele>228.0</ele><time>2026-04-06T09:27:28.999Z</time></trkpt><trkpt lat="45.86684091586486" lon="10.914754630084833"><ele>227.4</ele><time>2026-04-06T09:27:29.999Z</time></trkpt><trkpt lat="45.866950290140466" lon="10.914744934332468"><ele>226.8</ele><time>2026-04-06T09:27:30.999Z</time></trkpt><trkpt lat="45.86705250501808" lon="10.914735873243348"><ele>226.2</ele><time>2026-04-06T09:27:31.999Z</time></trkpt><trkpt lat="45.867139597621666" lon="10.914728814647676"><ele>225.6</ele><time>2026-04-06T09:27:32.999Z</time></trkpt><trkpt lat="45.86721861658381" lon="10.914722498787281"><ele>225.0</ele><time>2026-04-06T09:27:33.999Z</time></trkpt><trkpt lat="45.867299040342886" lon="10.914716070642356"><ele>225.0</ele><time>2026-04-06T09:27:34.999Z</time></trkpt><trkpt lat="45.867374566046166" lon="10.91471003399236"><ele>225.0</ele><time>2026-04-06T09:27:35.999Z</time></trkpt><trkpt lat="45.86745031412619" lon="10.914703073206868"><ele>225.0</ele><time>2026-04-06T09:27:36.999Z</time></trkpt><trkpt lat="45.86753083994557" lon="10.914695213741878"><ele>225.0</ele><time>2026-04-06T09:27:37.999Z</time></trkpt><trkpt lat="45.86760484797838" lon="10.914686545644765"><ele>225.0</ele><time>2026-04-06T09:27:38.999Z</time></trkpt><trkpt lat="45.86767552705857" lon="10.914669658248513"><ele>225.0</ele><time>2026-04-06T09:27:39.999Z</time></trkpt><trkpt lat="45.86777203395859" lon="10.914624389633847"><ele>224.5</ele><time>2026-04-06T09:27:41.999Z</time></trkpt><trkpt lat="45.86784236206686" lon="10.914565300612303"><ele>224.0</ele><time>2026-04-06T09:27:43.999Z</time></trkpt><trkpt lat="45.8679301156158" lon="10.914456848358519"><ele>223.5</ele><time>2026-04-06T09:27:45.999Z</time></trkpt><trkpt lat="45.867969850476314" lon="10.914374015931863"><ele>223.0</ele><time>2026-04-06T09:27:46.999Z</time></trkpt><trkpt lat="45.8680018156942" lon="10.91429123985968"><ele>222.5</ele><time>2026-04-06T09:27:47.999Z</time></trkpt><trkpt lat="45.868027114795844" lon="10.914198761761247"><ele>222.0</ele><time>2026-04-06T09:27:48.999Z</time></trkpt><trkpt lat="45.86804741759179" lon="10.914098296195846"><ele>222.0</ele><time>2026-04-06T09:27:49.999Z</time></trkpt><trkpt lat="45.86806000425553" lon="10.913975246202396"><ele>222.0</ele><time>2026-04-06T09:27:50.999Z</time></trkpt><trkpt lat="45.86807351629954" lon="10.913845652123795"><ele>222.0</ele><time>2026-04-06T09:27:51.999Z</time></trkpt><trkpt lat="45.868086799487365" lon="10.913718252987868"><ele>222.0</ele><time>2026-04-06T09:27:52.999Z</time></trkpt><trkpt lat="45.868099128748995" lon="10.913599217964974"><ele>222.0</ele><time>2026-04-06T09:27:53.999Z</time></trkpt><trkpt lat="45.86811201995517" lon="10.913488031287567"><ele>222.0</ele><time>2026-04-06T09:27:54.999Z</time></trkpt><trkpt lat="45.86812321482863" lon="10.913391836514732"><ele>223.8</ele><time>2026-04-06T09:27:55.999Z</time></trkpt><trkpt lat="45.86815081354861" lon="10.913216575119394"><ele>225.6</ele><time>2026-04-06T09:27:57.999Z</time></trkpt><trkpt lat="45.868184948373774" lon="10.913063820239023"><ele>227.40000000000003</ele><time>2026-04-06T09:27:59.999Z</time></trkpt><trkpt lat="45.868222210568604" lon="10.912941641139753"><ele>229.20000000000002</ele><time>2026-04-06T09:28:01.999Z</time></trkpt><trkpt lat="45.868261539738526" lon="10.91284094564231"><ele>231.0</ele><time>2026-04-06T09:28:03.999Z</time></trkpt><trkpt lat="45.86830392220996" lon="10.912740000577184"><ele>231.0</ele><time>2026-04-06T09:28:05.999Z</time></trkpt><trkpt lat="45.86835531810887" lon="10.912625103202632"><ele>231.0</ele><time>2026-04-06T09:28:07.999Z</time></trkpt><trkpt lat="45.86840931644551" lon="10.912507871822417"><ele>231.0</ele><time>2026-04-06T09:28:09.999Z</time></trkpt><trkpt lat="45.86845989683414" lon="10.912401043034828"><ele>231.0</ele><time>2026-04-06T09:28:11.999Z</time></trkpt><trkpt lat="45.86850686439159" lon="10.912302122761231"><ele>231.0</ele><time>2026-04-06T09:28:13.999Z</time></trkpt><trkpt lat="45.86855218870969" lon="10.912208171956543"><ele>231.0</ele><time>2026-04-06T09:28:15.999Z</time></trkpt><trkpt lat="45.86860148963756" lon="10.91210738684375"><ele>230.0</ele><time>2026-04-06T09:28:17.999Z</time></trkpt><trkpt lat="45.86864555206885" lon="10.912017310711287"><ele>229.0</ele><time>2026-04-06T09:28:19.999Z</time></trkpt><trkpt lat="45.86869934408513" lon="10.911907344536733"><ele>228.0</ele><time>2026-04-06T09:28:22.999Z</time></trkpt><trkpt lat="45.86874499496113" lon="10.91181269399465"><ele>227.0</ele><time>2026-04-06T09:28:24.999Z</time></trkpt><trkpt lat="45.86878821913834" lon="10.91171768289903"><ele>226.0</ele><time>2026-04-06T09:28:26.999Z</time></trkpt><trkpt lat="45.86883499490765" lon="10.911602529843146"><ele>225.0</ele><time>2026-04-06T09:28:28.999Z</time></trkpt><trkpt lat="45.86887285602744" lon="10.911482034484031"><ele>225.0</ele><time>2026-04-06T09:28:30.999Z</time></trkpt><trkpt lat="45.8689018324268" lon="10.91136889674191"><ele>225.0</ele><time>2026-04-06T09:28:32.999Z</time></trkpt><trkpt lat="45.86892281213442" lon="10.91126154463866"><ele>225.0</ele><time>2026-04-06T09:28:34.999Z</time></trkpt><trkpt lat="45.868935417789984" lon="10.91115499993975"><ele>225.0</ele><time>2026-04-06T09:28:36.999Z</time></trkpt><trkpt lat="45.8689397437614" lon="10.911052865208179"><ele>225.0</ele><time>2026-04-06T09:28:38.999Z</time></trkpt><trkpt lat="45.86893738258532" lon="10.910929328227532"><ele>225.0</ele><time>2026-04-06T09:28:41.999Z</time></trkpt><trkpt lat="45.86893280020605" lon="10.910838477540697"><ele>225.83333333333334</ele><time>2026-04-06T09:28:44.999Z</time></trkpt><trkpt lat="45.868912546052314" lon="10.910722336333603"><ele>226.66666666666669</ele><time>2026-04-06T09:28:49.999Z</time></trkpt><trkpt lat="45.86888649429352" lon="10.910617658311988"><ele>227.5</ele><time>2026-04-06T09:28:52.999Z</time></trkpt><trkpt lat="45.86885120621143" lon="10.910502894449998"><ele>228.33333333333334</ele><time>2026-04-06T09:28:54.999Z</time></trkpt><trkpt lat="45.86881686682431" lon="10.910396192325996"><ele>229.16666666666669</ele><time>2026-04-06T09:28:56.999Z</time></trkpt><trkpt lat="45.86878502299815" lon="10.91030305792063"><ele>230.0</ele><time>2026-04-06T09:28:58.999Z</time></trkpt><trkpt lat="45.868749403495855" lon="10.910198880706137"><ele>230.00000000000003</ele><time>2026-04-06T09:29:01.999Z</time></trkpt><trkpt lat="45.868712110044505" lon="10.910089807652222"><ele>230.0</ele><time>2026-04-06T09:29:04.999Z</time></trkpt><trkpt lat="45.86867183970215" lon="10.909971982314927"><ele>230.0</ele><time>2026-04-06T09:29:06.999Z</time></trkpt><trkpt lat="45.86863208015024" lon="10.909855378613091"><ele>230.0</ele><time>2026-04-06T09:29:08.999Z</time></trkpt><trkpt lat="45.86859847364871" lon="10.90975682010374"><ele>230.00000000000003</ele><time>2026-04-06T09:29:10.999Z</time></trkpt><trkpt lat="45.86856309082474" lon="10.909653052126323"><ele>230.0</ele><time>2026-04-06T09:29:12.999Z</time></trkpt><trkpt lat="45.86852267455564" lon="10.909534522459476"><ele>229.4</ele><time>2026-04-06T09:29:14.999Z</time></trkpt><trkpt lat="45.86847567290531" lon="10.909396769288936"><ele>228.8</ele><time>2026-04-06T09:29:16.999Z</time></trkpt><trkpt lat="45.8684303562179" lon="10.909264583234336"><ele>228.2</ele><time>2026-04-06T09:29:18.999Z</time></trkpt><trkpt lat="45.86839049141634" lon="10.909148511635673"><ele>227.6</ele><time>2026-04-06T09:29:20.999Z</time></trkpt><trkpt lat="45.86835547183401" lon="10.909025617632684"><ele>227.0</ele><time>2026-04-06T09:29:22.999Z</time></trkpt><trkpt lat="45.868330450903755" lon="10.908904589516037"><ele>230.0</ele><time>2026-04-06T09:29:24.999Z</time></trkpt><trkpt lat="45.86830190533105" lon="10.908733598092367"><ele>233.0</ele><time>2026-04-06T09:29:26.999Z</time></trkpt><trkpt lat="45.86828874827357" lon="10.908636704711581"><ele>236.0</ele><time>2026-04-06T09:29:27.999Z</time></trkpt><trkpt lat="45.86826831719376" lon="10.908471796721662"><ele>239.0</ele><time>2026-04-06T09:29:29.999Z</time></trkpt><trkpt lat="45.8682554609489" lon="10.908368028460805"><ele>242.0</ele><time>2026-04-06T09:29:30.999Z</time></trkpt><trkpt lat="45.86824260347024" lon="10.908264250242036"><ele>242.0</ele><time>2026-04-06T09:29:31.999Z</time></trkpt><trkpt lat="45.86823097798898" lon="10.908174021875176"><ele>242.0</ele><time>2026-04-06T09:29:32.999Z</time></trkpt><trkpt lat="45.86821088510493" lon="10.908023547102834"><ele>242.0</ele><time>2026-04-06T09:29:34.999Z</time></trkpt><trkpt lat="45.86819583471276" lon="10.90787251055465"><ele>242.0</ele><time>2026-04-06T09:29:36.999Z</time></trkpt><trkpt lat="45.868188231221175" lon="10.907710558899105"><ele>242.0</ele><time>2026-04-06T09:29:38.999Z</time></trkpt><trkpt lat="45.868196527851914" lon="10.907562636464288"><ele>243.0</ele><time>2026-04-06T09:29:40.999Z</time></trkpt><trkpt lat="45.86820995124702" lon="10.907396667752344"><ele>244.0</ele><time>2026-04-06T09:29:42.999Z</time></trkpt><trkpt lat="45.86826598938395" lon="10.907243059808993"><ele>245.0</ele><time>2026-04-06T09:29:44.999Z</time></trkpt><trkpt lat="45.868344724566846" lon="10.907114197260944"><ele>246.0</ele><time>2026-04-06T09:29:46.999Z</time></trkpt><trkpt lat="45.868448469625626" lon="10.90700947047474"><ele>246.0</ele><time>2026-04-06T09:29:48.999Z</time></trkpt><trkpt lat="45.86851644677134" lon="10.906962905379238"><ele>246.0</ele><time>2026-04-06T09:29:49.999Z</time></trkpt><trkpt lat="45.868593261245664" lon="10.90693504989669"><ele>246.0</ele><time>2026-04-06T09:29:50.999Z</time></trkpt><trkpt lat="45.86866519514423" lon="10.906916132738825"><ele>246.0</ele><time>2026-04-06T09:29:51.999Z</time></trkpt><trkpt lat="45.868776745476865" lon="10.906916488927344"><ele>246.0</ele><time>2026-04-06T09:29:53.999Z</time></trkpt><trkpt lat="45.868873950887156" lon="10.906947994549004"><ele>246.0</ele><time>2026-04-06T09:29:55.999Z</time></trkpt><trkpt lat="45.8689761906617" lon="10.907015978173677"><ele>246.0</ele><time>2026-04-06T09:29:57.999Z</time></trkpt><trkpt lat="45.86904337216363" lon="10.907072081770997"><ele>246.0</ele><time>2026-04-06T09:29:59.999Z</time></trkpt><trkpt lat="45.869113081692916" lon="10.907138365425002"><ele>246.0</ele><time>2026-04-06T09:30:02.999Z</time></trkpt><trkpt lat="45.86918991716714" lon="10.907213727054588"><ele>246.0</ele><time>2026-04-06T09:30:06.999Z</time></trkpt><trkpt lat="45.869258256836034" lon="10.907281060546351"><ele>246.0</ele><time>2026-04-06T09:30:08.999Z</time></trkpt><trkpt lat="45.86934103391441" lon="10.907353703371939"><ele>246.0</ele><time>2026-04-06T09:30:10.999Z</time></trkpt><trkpt lat="45.8694335840743" lon="10.907439885059025"><ele>245.60000000000002</ele><time>2026-04-06T09:30:12.999Z</time></trkpt><trkpt lat="45.869535809435796" lon="10.907521463099496"><ele>245.20000000000002</ele><time>2026-04-06T09:30:14.999Z</time></trkpt><trkpt lat="45.869636431799385" lon="10.907584640192699"><ele>244.79999999999998</ele><time>2026-04-06T09:30:16.999Z</time></trkpt><trkpt lat="45.869741992282826" lon="10.907637112818596"><ele>244.39999999999998</ele><time>2026-04-06T09:30:18.999Z</time></trkpt><trkpt lat="45.869819442407106" lon="10.907667893482785"><ele>244.0</ele><time>2026-04-06T09:30:19.999Z</time></trkpt><trkpt lat="45.86991205923165" lon="10.907690456334631"><ele>244.0</ele><time>2026-04-06T09:30:20.999Z</time></trkpt><trkpt lat="45.87000910313028" lon="10.907720614227019"><ele>243.99999999999997</ele><time>2026-04-06T09:30:21.999Z</time></trkpt><trkpt lat="45.87009895245363" lon="10.907740229800583"><ele>243.99999999999997</ele><time>2026-04-06T09:30:22.999Z</time></trkpt><trkpt lat="45.870177859525484" lon="10.907759170301787"><ele>244.0</ele><time>2026-04-06T09:30:23.999Z</time></trkpt><trkpt lat="45.8702479851176" lon="10.907778336543595"><ele>244.0</ele><time>2026-04-06T09:30:24.999Z</time></trkpt><trkpt lat="45.87038218630384" lon="10.907808285547453"><ele>245.0</ele><time>2026-04-06T09:30:26.999Z</time></trkpt><trkpt lat="45.87046669867809" lon="10.907821901464516"><ele>245.99999999999997</ele><time>2026-04-06T09:30:27.999Z</time></trkpt><trkpt lat="45.87056991905151" lon="10.907843578506997"><ele>246.99999999999997</ele><time>2026-04-06T09:30:28.999Z</time></trkpt><trkpt lat="45.870685831760746" lon="10.907892093488876"><ele>248.0</ele><time>2026-04-06T09:30:29.999Z</time></trkpt><trkpt lat="45.87081356460131" lon="10.907916638411004"><ele>249.0</ele><time>2026-04-06T09:30:30.999Z</time></trkpt><trkpt lat="45.870938688793494" lon="10.907936680713348"><ele>249.6</ele><time>2026-04-06T09:30:31.999Z</time></trkpt><trkpt lat="45.871058134170596" lon="10.907952113011655"><ele>250.2</ele><time>2026-04-06T09:30:32.999Z</time></trkpt><trkpt lat="45.87117493066763" lon="10.907955388974308"><ele>250.79999999999998</ele><time>2026-04-06T09:30:33.999Z</time></trkpt><trkpt lat="45.871287179329165" lon="10.90794332438231"><ele>251.39999999999998</ele><time>2026-04-06T09:30:34.999Z</time></trkpt><trkpt lat="45.87137739364123" lon="10.907919096309284"><ele>252.0</ele><time>2026-04-06T09:30:35.999Z</time></trkpt><trkpt lat="45.87145736132921" lon="10.907889631643014"><ele>252.0</ele><time>2026-04-06T09:30:36.999Z</time></trkpt><trkpt lat="45.87151935595717" lon="10.907866042376012"><ele>252.0</ele><time>2026-04-06T09:30:37.999Z</time></trkpt><trkpt lat="45.87158547363535" lon="10.90784220938771"><ele>252.0</ele><time>2026-04-06T09:30:38.999Z</time></trkpt><trkpt lat="45.87165534855342" lon="10.907817022063751"><ele>252.0</ele><time>2026-04-06T09:30:39.999Z</time></trkpt><trkpt lat="45.8717277362366" lon="10.907790928959683"><ele>252.0</ele><time>2026-04-06T09:30:40.999Z</time></trkpt><trkpt lat="45.871803997765" lon="10.907743739950881"><ele>252.0</ele><time>2026-04-06T09:30:41.999Z</time></trkpt><trkpt lat="45.871883598799755" lon="10.907719621516684"><ele>252.0</ele><time>2026-04-06T09:30:42.999Z</time></trkpt><trkpt lat="45.871962663159096" lon="10.907692731189588"><ele>252.33333333333334</ele><time>2026-04-06T09:30:43.999Z</time></trkpt><trkpt lat="45.872042063995266" lon="10.907660484637395"><ele>252.66666666666669</ele><time>2026-04-06T09:30:44.999Z</time></trkpt><trkpt lat="45.87212088899245" lon="10.90763047597198"><ele>253.0</ele><time>2026-04-06T09:30:45.999Z</time></trkpt><trkpt lat="45.87219503691786" lon="10.90760978926589"><ele>253.33333333333334</ele><time>2026-04-06T09:30:46.999Z</time></trkpt><trkpt lat="45.872294672396066" lon="10.907570699934812"><ele>253.66666666666669</ele><time>2026-04-06T09:30:48.999Z</time></trkpt><trkpt lat="45.87237852986166" lon="10.907533788494685"><ele>254.0</ele><time>2026-04-06T09:30:50.999Z</time></trkpt><trkpt lat="45.872477836471205" lon="10.907520545448019"><ele>256.59999999999997</ele><time>2026-04-06T09:30:52.999Z</time></trkpt><trkpt lat="45.87254910634281" lon="10.90749485527771"><ele>259.2</ele><time>2026-04-06T09:30:53.999Z</time></trkpt><trkpt lat="45.87264796043479" lon="10.907459222019007"><ele>261.79999999999995</ele><time>2026-04-06T09:30:54.999Z</time></trkpt><trkpt lat="45.87275884814857" lon="10.907418945148123"><ele>264.4</ele><time>2026-04-06T09:30:55.999Z</time></trkpt><trkpt lat="45.872864178732804" lon="10.90738042797473"><ele>267.0</ele><time>2026-04-06T09:30:56.999Z</time></trkpt><trkpt lat="45.872977537460066" lon="10.907339241014625"><ele>267.6666666666667</ele><time>2026-04-06T09:30:57.999Z</time></trkpt><trkpt lat="45.873049943282275" lon="10.907289882010643"><ele>268.3333333333333</ele><time>2026-04-06T09:30:58.999Z</time></trkpt><trkpt lat="45.8731211331553" lon="10.907265548106944"><ele>269.0</ele><time>2026-04-06T09:30:59.999Z</time></trkpt><trkpt lat="45.87320396298702" lon="10.907254753615405"><ele>269.66666666666663</ele><time>2026-04-06T09:31:01.999Z</time></trkpt><trkpt lat="45.87327276689542" lon="10.907226210712098"><ele>270.3333333333333</ele><time>2026-04-06T09:31:03.999Z</time></trkpt><trkpt lat="45.873349586995616" lon="10.907190303588845"><ele>271.0</ele><time>2026-04-06T09:31:05.999Z</time></trkpt><trkpt lat="45.873460110398014" lon="10.907121230981398"><ele>272.2</ele><time>2026-04-06T09:31:07.999Z</time></trkpt><trkpt lat="45.873540120833134" lon="10.907055727535283"><ele>273.40000000000003</ele><time>2026-04-06T09:31:09.999Z</time></trkpt><trkpt lat="45.87361748956576" lon="10.906940493145184"><ele>274.6</ele><time>2026-04-06T09:31:11.999Z</time></trkpt><trkpt lat="45.87370508495065" lon="10.906817450732813"><ele>275.8</ele><time>2026-04-06T09:31:13.999Z</time></trkpt><trkpt lat="45.873778665075875" lon="10.906702822841842"><ele>277.0</ele><time>2026-04-06T09:31:15.999Z</time></trkpt><trkpt lat="45.87382366722197" lon="10.90662656188585"><ele>277.0</ele><time>2026-04-06T09:31:16.999Z</time></trkpt><trkpt lat="45.87387900614319" lon="10.906532050997027"><ele>277.0</ele><time>2026-04-06T09:31:17.999Z</time></trkpt><trkpt lat="45.87396555140131" lon="10.90645363866061"><ele>277.0</ele><time>2026-04-06T09:31:18.999Z</time></trkpt><trkpt lat="45.87403278621495" lon="10.906338580178874"><ele>277.0</ele><time>2026-04-06T09:31:19.999Z</time></trkpt><trkpt lat="45.87409934489285" lon="10.906224659083577"><ele>277.0</ele><time>2026-04-06T09:31:20.999Z</time></trkpt><trkpt lat="45.87415913357485" lon="10.906122325470982"><ele>277.0</ele><time>2026-04-06T09:31:21.999Z</time></trkpt><trkpt lat="45.87421403740452" lon="10.906028352699426"><ele>277.0</ele><time>2026-04-06T09:31:22.999Z</time></trkpt><trkpt lat="45.87425820109714" lon="10.905952762626818"><ele>277.0</ele><time>2026-04-06T09:31:23.999Z</time></trkpt><trkpt lat="45.874323188844926" lon="10.90584958155806"><ele>277.0</ele><time>2026-04-06T09:31:25.999Z</time></trkpt><trkpt lat="45.87442494507644" lon="10.905712474645933"><ele>277.0</ele><time>2026-04-06T09:31:27.999Z</time></trkpt><trkpt lat="45.87448402155004" lon="10.905651829365604"><ele>276.3333333333333</ele><time>2026-04-06T09:31:28.999Z</time></trkpt><trkpt lat="45.87456628324473" lon="10.90558208573774"><ele>275.66666666666663</ele><time>2026-04-06T09:31:30.999Z</time></trkpt><trkpt lat="45.8746281946347" lon="10.905543387442334"><ele>275.0</ele><time>2026-04-06T09:31:32.999Z</time></trkpt><trkpt lat="45.87471359123605" lon="10.90549471809696"><ele>274.3333333333333</ele><time>2026-04-06T09:31:35.999Z</time></trkpt><trkpt lat="45.874800318055826" lon="10.90545786748027"><ele>273.6666666666667</ele><time>2026-04-06T09:31:38.999Z</time></trkpt><trkpt lat="45.87487183036124" lon="10.905440067934526"><ele>273.0</ele><time>2026-04-06T09:31:43.999Z</time></trkpt><trkpt lat="45.87494470948135" lon="10.905420420074416"><ele>273.0</ele><time>2026-04-06T09:31:47.999Z</time></trkpt><trkpt lat="45.875086133945" lon="10.90538229277602"><ele>273.0</ele><time>2026-04-06T09:31:49.999Z</time></trkpt><trkpt lat="45.875168166007455" lon="10.905360177233922"><ele>273.0</ele><time>2026-04-06T09:31:50.999Z</time></trkpt><trkpt lat="45.875248452757226" lon="10.905339846563727"><ele>273.0</ele><time>2026-04-06T09:31:51.999Z</time></trkpt><trkpt lat="45.87532428645716" lon="10.905320271455311"><ele>273.0</ele><time>2026-04-06T09:31:52.999Z</time></trkpt><trkpt lat="45.875405336305505" lon="10.905299716607852"><ele>273.1666666666667</ele><time>2026-04-06T09:31:53.999Z</time></trkpt><trkpt lat="45.87549106416396" lon="10.905277726645048"><ele>273.3333333333333</ele><time>2026-04-06T09:31:54.999Z</time></trkpt><trkpt lat="45.875574366481" lon="10.905254988601422"><ele>273.5</ele><time>2026-04-06T09:31:55.999Z</time></trkpt><trkpt lat="45.87564915324251" lon="10.905234669164585"><ele>273.66666666666663</ele><time>2026-04-06T09:31:56.999Z</time></trkpt><trkpt lat="45.87571945784858" lon="10.905213194285864"><ele>273.8333333333333</ele><time>2026-04-06T09:31:57.999Z</time></trkpt><trkpt lat="45.87579504447492" lon="10.905188331361757"><ele>274.0</ele><time>2026-04-06T09:31:58.999Z</time></trkpt><trkpt lat="45.87587621107024" lon="10.905155967051003"><ele>274.00000000000006</ele><time>2026-04-06T09:31:59.999Z</time></trkpt><trkpt lat="45.87594925200029" lon="10.905119307499572"><ele>274.0</ele><time>2026-04-06T09:32:00.999Z</time></trkpt><trkpt lat="45.87601590219855" lon="10.905080917590691"><ele>274.0</ele><time>2026-04-06T09:32:01.999Z</time></trkpt><trkpt lat="45.8760796171966" lon="10.905039536651534"><ele>274.0</ele><time>2026-04-06T09:32:02.999Z</time></trkpt><trkpt lat="45.87614051482117" lon="10.904991363670842"><ele>274.0</ele><time>2026-04-06T09:32:03.999Z</time></trkpt><trkpt lat="45.8762033879313" lon="10.904938585463649"><ele>274.00000000000006</ele><time>2026-04-06T09:32:04.999Z</time></trkpt><trkpt lat="45.876266067085524" lon="10.904877361593547"><ele>274.0</ele><time>2026-04-06T09:32:05.999Z</time></trkpt><trkpt lat="45.87632186291317" lon="10.904813807760721"><ele>274.0</ele><time>2026-04-06T09:32:06.999Z</time></trkpt><trkpt lat="45.876375602232294" lon="10.904747538477713"><ele>274.0</ele><time>2026-04-06T09:32:07.999Z</time></trkpt><trkpt lat="45.87642357388681" lon="10.904681933002557"><ele>274.0</ele><time>2026-04-06T09:32:08.999Z</time></trkpt><trkpt lat="45.87649870754276" lon="10.9045597842514"><ele>274.0</ele><time>2026-04-06T09:32:10.999Z</time></trkpt><trkpt lat="45.87657805569175" lon="10.90440070449459"><ele>274.0</ele><time>2026-04-06T09:32:12.999Z</time></trkpt><trkpt lat="45.87663040546239" lon="10.904285843615606"><ele>273.0</ele><time>2026-04-06T09:32:13.999Z</time></trkpt><trkpt lat="45.876684880727524" lon="10.90416609600657"><ele>272.0</ele><time>2026-04-06T09:32:14.999Z</time></trkpt><trkpt lat="45.87673442920177" lon="10.904057178462107"><ele>271.0</ele><time>2026-04-06T09:32:15.999Z</time></trkpt><trkpt lat="45.87676989213318" lon="10.903979223863374"><ele>270.0</ele><time>2026-04-06T09:32:16.999Z</time></trkpt><trkpt lat="45.87683366958375" lon="10.903839028164969"><ele>269.0</ele><time>2026-04-06T09:32:18.999Z</time></trkpt><trkpt lat="45.876870851481264" lon="10.90375729484942"><ele>268.0</ele><time>2026-04-06T09:32:19.999Z</time></trkpt><trkpt lat="45.87690839611743" lon="10.903674764195467"><ele>268.0</ele><time>2026-04-06T09:32:20.999Z</time></trkpt><trkpt lat="45.87695008889319" lon="10.903583115109909"><ele>268.0</ele><time>2026-04-06T09:32:21.999Z</time></trkpt><trkpt lat="45.87698781831472" lon="10.903500178201487"><ele>268.0</ele><time>2026-04-06T09:32:22.999Z</time></trkpt><trkpt lat="45.87705651685697" lon="10.903349164990837"><ele>268.0</ele><time>2026-04-06T09:32:24.999Z</time></trkpt><trkpt lat="45.877090991088295" lon="10.903273383668736"><ele>268.0</ele><time>2026-04-06T09:32:25.999Z</time></trkpt><trkpt lat="45.87714913045911" lon="10.903145581653208"><ele>268.0</ele><time>2026-04-06T09:32:27.999Z</time></trkpt><trkpt lat="45.877201130672795" lon="10.9030312748078"><ele>266.16666666666663</ele><time>2026-04-06T09:32:29.999Z</time></trkpt><trkpt lat="45.877264501805115" lon="10.902891972298862"><ele>264.3333333333333</ele><time>2026-04-06T09:32:31.999Z</time></trkpt><trkpt lat="45.87730463895398" lon="10.902803742674902"><ele>262.5</ele><time>2026-04-06T09:32:32.999Z</time></trkpt><trkpt lat="45.877344207086445" lon="10.902716763983758"><ele>260.6666666666667</ele><time>2026-04-06T09:32:33.999Z</time></trkpt><trkpt lat="45.877385247919605" lon="10.902626547995169"><ele>258.83333333333337</ele><time>2026-04-06T09:32:34.999Z</time></trkpt><trkpt lat="45.87742350126151" lon="10.902542459401912"><ele>257.0</ele><time>2026-04-06T09:32:35.999Z</time></trkpt><trkpt lat="45.87746205256606" lon="10.902458164060295"><ele>256.4</ele><time>2026-04-06T09:32:36.999Z</time></trkpt><trkpt lat="45.87749751314845" lon="10.902380653370743"><ele>255.79999999999998</ele><time>2026-04-06T09:32:37.999Z</time></trkpt><trkpt lat="45.877558628167904" lon="10.902247066572997"><ele>255.2</ele><time>2026-04-06T09:32:39.999Z</time></trkpt><trkpt lat="45.87761482491174" lon="10.902124230169608"><ele>254.6</ele><time>2026-04-06T09:32:41.999Z</time></trkpt><trkpt lat="45.877675100353244" lon="10.901992478511259"><ele>254.0</ele><time>2026-04-06T09:32:43.999Z</time></trkpt><trkpt lat="45.877736415009835" lon="10.901840009453592"><ele>252.39999999999998</ele><time>2026-04-06T09:32:45.999Z</time></trkpt><trkpt lat="45.8777741874993" lon="10.901726787723584"><ele>250.79999999999998</ele><time>2026-04-06T09:32:46.999Z</time></trkpt><trkpt lat="45.87781755898133" lon="10.90157783149611"><ele>249.20000000000002</ele><time>2026-04-06T09:32:47.999Z</time></trkpt><trkpt lat="45.87785128131027" lon="10.901434621835545"><ele>247.60000000000002</ele><time>2026-04-06T09:32:48.999Z</time></trkpt><trkpt lat="45.87788360295922" lon="10.901272239968081"><ele>246.0</ele><time>2026-04-06T09:32:49.999Z</time></trkpt><trkpt lat="45.87791234553992" lon="10.901102883913017"><ele>246.0</ele><time>2026-04-06T09:32:50.999Z</time></trkpt><trkpt lat="45.877932327320075" lon="10.900940044244155"><ele>246.00000000000003</ele><time>2026-04-06T09:32:51.999Z</time></trkpt><trkpt lat="45.87794116881403" lon="10.900790244157937"><ele>246.00000000000003</ele><time>2026-04-06T09:32:52.999Z</time></trkpt><trkpt lat="45.877945581226996" lon="10.900663656391743"><ele>246.0</ele><time>2026-04-06T09:32:53.999Z</time></trkpt><trkpt lat="45.87794999892143" lon="10.900522960836707"><ele>246.0</ele><time>2026-04-06T09:32:55.999Z</time></trkpt><trkpt lat="45.8779534962107" lon="10.900410673629324"><ele>244.60000000000002</ele><time>2026-04-06T09:32:57.999Z</time></trkpt><trkpt lat="45.87795692192834" lon="10.900282992278377"><ele>243.20000000000002</ele><time>2026-04-06T09:32:59.999Z</time></trkpt><trkpt lat="45.8779615853444" lon="10.900109180138939"><ele>241.79999999999998</ele><time>2026-04-06T09:33:06.999Z</time></trkpt><trkpt lat="45.877965238726645" lon="10.899973013429083"><ele>240.39999999999998</ele><time>2026-04-06T09:33:07.999Z</time></trkpt><trkpt lat="45.87796934425126" lon="10.899825711973444"><ele>239.0</ele><time>2026-04-06T09:33:08.999Z</time></trkpt><trkpt lat="45.8779735674632" lon="10.899675292030949"><ele>237.39999999999998</ele><time>2026-04-06T09:33:09.999Z</time></trkpt><trkpt lat="45.8779776163417" lon="10.89952789366938"><ele>235.79999999999998</ele><time>2026-04-06T09:33:10.999Z</time></trkpt><trkpt lat="45.877981718764914" lon="10.89936938696559"><ele>234.20000000000002</ele><time>2026-04-06T09:33:11.999Z</time></trkpt><trkpt lat="45.87798519174151" lon="10.899229043115877"><ele>232.60000000000002</ele><time>2026-04-06T09:33:12.999Z</time></trkpt><trkpt lat="45.8779875019947" lon="10.899135685362904"><ele>231.0</ele><time>2026-04-06T09:33:14Z</time></trkpt><trkpt lat="45.87799018059238" lon="10.899027442516735"><ele>230.5</ele><time>2026-04-06T09:33:15.999Z</time></trkpt><trkpt lat="45.8779929102025" lon="10.898917138346789"><ele>230.0</ele><time>2026-04-06T09:33:17.999Z</time></trkpt><trkpt lat="45.87799612480427" lon="10.898787235541432"><ele>229.5</ele><time>2026-04-06T09:33:20.999Z</time></trkpt><trkpt lat="45.877998674951094" lon="10.898684183516774"><ele>229.0</ele><time>2026-04-06T09:33:22.999Z</time></trkpt><trkpt lat="45.87800162958255" lon="10.89856478618204"><ele>228.5</ele><time>2026-04-06T09:33:24.999Z</time></trkpt><trkpt lat="45.87800598723971" lon="10.898424550190981"><ele>228.0</ele><time>2026-04-06T09:33:26.999Z</time></trkpt><trkpt lat="45.87800879391728" lon="10.898315165664076"><ele>227.83333333333334</ele><time>2026-04-06T09:33:28.999Z</time></trkpt><trkpt lat="45.878011421240785" lon="10.89821277112426"><ele>227.66666666666669</ele><time>2026-04-06T09:33:31.999Z</time></trkpt><trkpt lat="45.87801455760771" lon="10.898090538486983"><ele>227.5</ele><time>2026-04-06T09:33:34.999Z</time></trkpt><trkpt lat="45.87801691575215" lon="10.897984906137005"><ele>227.33333333333334</ele><time>2026-04-06T09:33:36.999Z</time></trkpt><trkpt lat="45.8780195285524" lon="10.897873838890156"><ele>227.16666666666669</ele><time>2026-04-06T09:33:38.999Z</time></trkpt><trkpt lat="45.8780225819169" lon="10.89774404367964"><ele>227.0</ele><time>2026-04-06T09:33:41.999Z</time></trkpt><trkpt lat="45.87802506845975" lon="10.897652032739098"><ele>226.8</ele><time>2026-04-06T09:33:43.999Z</time></trkpt><trkpt lat="45.87802892360619" lon="10.897550981207251"><ele>226.6</ele><time>2026-04-06T09:33:46.999Z</time></trkpt><trkpt lat="45.87803494518164" lon="10.897407804554552"><ele>226.40000000000003</ele><time>2026-04-06T09:33:50.999Z</time></trkpt><trkpt lat="45.878063869487306" lon="10.897268012417674"><ele>226.20000000000002</ele><time>2026-04-06T09:33:52.999Z</time></trkpt><trkpt lat="45.87811495630466" lon="10.897132093707722"><ele>226.0</ele><time>2026-04-06T09:33:54.999Z</time></trkpt><trkpt lat="45.87809089553275" lon="10.896989517175818"><ele>226.0</ele><time>2026-04-06T09:33:56.999Z</time></trkpt><trkpt lat="45.87803075952176" lon="10.896856550310284"><ele>226.00000000000003</ele><time>2026-04-06T09:33:58.999Z</time></trkpt><trkpt lat="45.878013390792525" lon="10.896708452790847"><ele>226.00000000000003</ele><time>2026-04-06T09:34:00.999Z</time></trkpt><trkpt lat="45.878007336124156" lon="10.896583686728679"><ele>226.0</ele><time>2026-04-06T09:34:01.999Z</time></trkpt><trkpt lat="45.87800971649236" lon="10.896426875036852"><ele>226.0</ele><time>2026-04-06T09:34:02.999Z</time></trkpt><trkpt lat="45.87801672263249" lon="10.89623341207888"><ele>225.5</ele><time>2026-04-06T09:34:03.999Z</time></trkpt><trkpt lat="45.87806812903158" lon="10.896043865467304"><ele>225.0</ele><time>2026-04-06T09:34:04.999Z</time></trkpt><trkpt lat="45.878030475531986" lon="10.895868517296178"><ele>224.5</ele><time>2026-04-06T09:34:05.999Z</time></trkpt><trkpt lat="45.87803858916456" lon="10.895715739959416"><ele>224.0</ele><time>2026-04-06T09:34:06.999Z</time></trkpt><trkpt lat="45.87804674045908" lon="10.895567713139634"><ele>223.83333333333334</ele><time>2026-04-06T09:34:07.999Z</time></trkpt><trkpt lat="45.87805402461704" lon="10.895426634675093"><ele>223.66666666666669</ele><time>2026-04-06T09:34:08.999Z</time></trkpt><trkpt lat="45.87805694404583" lon="10.895291813970658"><ele>223.5</ele><time>2026-04-06T09:34:09.999Z</time></trkpt><trkpt lat="45.87805862371863" lon="10.895177964673206"><ele>223.33333333333331</ele><time>2026-04-06T09:34:10.999Z</time></trkpt><trkpt lat="45.8780934632622" lon="10.8950587933553"><ele>223.16666666666666</ele><time>2026-04-06T09:34:11.999Z</time></trkpt><trkpt lat="45.87809539661837" lon="10.894944026103305"><ele>223.0</ele><time>2026-04-06T09:34:12.999Z</time></trkpt><trkpt lat="45.87809717084816" lon="10.894838704778232"><ele>222.99999999999997</ele><time>2026-04-06T09:34:13.999Z</time></trkpt><trkpt lat="45.87809929423557" lon="10.89474212390388"><ele>223.0</ele><time>2026-04-06T09:34:14.999Z</time></trkpt><trkpt lat="45.87810208774529" lon="10.894641706528752"><ele>223.0</ele><time>2026-04-06T09:34:15.999Z</time></trkpt><trkpt lat="45.87810595171398" lon="10.8945082687203"><ele>223.0</ele><time>2026-04-06T09:34:16.999Z</time></trkpt><trkpt lat="45.878112618450096" lon="10.894353582562042"><ele>222.99999999999997</ele><time>2026-04-06T09:34:17.999Z</time></trkpt><trkpt lat="45.87812181312381" lon="10.894201952855301"><ele>223.0</ele><time>2026-04-06T09:34:18.999Z</time></trkpt><trkpt lat="45.87813504466721" lon="10.894058986901841"><ele>222.99999999999997</ele><time>2026-04-06T09:34:19.999Z</time></trkpt><trkpt lat="45.87814822652692" lon="10.893938309500095"><ele>223.0</ele><time>2026-04-06T09:34:20.999Z</time></trkpt><trkpt lat="45.878161569185266" lon="10.893827596393184"><ele>223.0</ele><time>2026-04-06T09:34:21.999Z</time></trkpt><trkpt lat="45.878178115264284" lon="10.893718375257354"><ele>223.0</ele><time>2026-04-06T09:34:22.999Z</time></trkpt><trkpt lat="45.8781678502937" lon="10.893588456492358"><ele>222.99999999999997</ele><time>2026-04-06T09:34:23.999Z</time></trkpt><trkpt lat="45.87818866898877" lon="10.89347277971852"><ele>223.0</ele><time>2026-04-06T09:34:24.999Z</time></trkpt><trkpt lat="45.878210103878274" lon="10.893363716641236"><ele>222.99999999999997</ele><time>2026-04-06T09:34:25.999Z</time></trkpt><trkpt lat="45.87823133537852" lon="10.893246681770545"><ele>223.0</ele><time>2026-04-06T09:34:26.999Z</time></trkpt><trkpt lat="45.87825491504988" lon="10.893129077718763"><ele>223.0</ele><time>2026-04-06T09:34:27.999Z</time></trkpt><trkpt lat="45.87827769646808" lon="10.89301583798859"><ele>223.0</ele><time>2026-04-06T09:34:28.999Z</time></trkpt><trkpt lat="45.878299747657934" lon="10.892905530764148"><ele>222.99999999999997</ele><time>2026-04-06T09:34:29.999Z</time></trkpt><trkpt lat="45.87832092112359" lon="10.892796953339822"><ele>223.0</ele><time>2026-04-06T09:34:30.999Z</time></trkpt><trkpt lat="45.878366594055734" lon="10.892708169164148"><ele>223.16666666666666</ele><time>2026-04-06T09:34:31.999Z</time></trkpt><trkpt lat="45.87838958488645" lon="10.892580804587293"><ele>223.33333333333331</ele><time>2026-04-06T09:34:33.999Z</time></trkpt><trkpt lat="45.87840867242458" lon="10.89247002493578"><ele>223.5</ele><time>2026-04-06T09:34:35.999Z</time></trkpt><trkpt lat="45.87843029733776" lon="10.892327309464283"><ele>223.66666666666669</ele><time>2026-04-06T09:34:38.999Z</time></trkpt><trkpt lat="45.878441965246886" lon="10.89223764774992"><ele>223.83333333333334</ele><time>2026-04-06T09:34:39.999Z</time></trkpt><trkpt lat="45.87845336884262" lon="10.892129739172134"><ele>224.0</ele><time>2026-04-06T09:34:40.999Z</time></trkpt><trkpt lat="45.87846385799175" lon="10.892009114292913"><ele>224.0</ele><time>2026-04-06T09:34:41.999Z</time></trkpt><trkpt lat="45.87847239221172" lon="10.891869851298802"><ele>223.99999999999997</ele><time>2026-04-06T09:34:42.999Z</time></trkpt><trkpt lat="45.8784817023071" lon="10.891725413197769"><ele>223.99999999999997</ele><time>2026-04-06T09:34:43.999Z</time></trkpt><trkpt lat="45.878485982867694" lon="10.891574899825171"><ele>224.0</ele><time>2026-04-06T09:34:44.999Z</time></trkpt><trkpt lat="45.87848877017993" lon="10.891433428914446"><ele>224.0</ele><time>2026-04-06T09:34:45.999Z</time></trkpt><trkpt lat="45.8784886108804" lon="10.891294671561363"><ele>224.0</ele><time>2026-04-06T09:34:46.999Z</time></trkpt><trkpt lat="45.87848729610493" lon="10.891149685648267"><ele>223.99999999999997</ele><time>2026-04-06T09:34:47.999Z</time></trkpt><trkpt lat="45.87848567958821" lon="10.890997155553393"><ele>223.99999999999997</ele><time>2026-04-06T09:34:48.999Z</time></trkpt><trkpt lat="45.87848392942103" lon="10.890836263023505"><ele>224.0</ele><time>2026-04-06T09:34:49.999Z</time></trkpt><trkpt lat="45.87848211342097" lon="10.890675741493355"><ele>224.0</ele><time>2026-04-06T09:34:50.999Z</time></trkpt><trkpt lat="45.878480504561935" lon="10.890533529759532"><ele>224.00000000000003</ele><time>2026-04-06T09:34:51.999Z</time></trkpt><trkpt lat="45.87847931612047" lon="10.890428479978427"><ele>224.0</ele><time>2026-04-06T09:34:52.999Z</time></trkpt><trkpt lat="45.87847745224571" lon="10.890291927870706"><ele>224.0</ele><time>2026-04-06T09:34:54.999Z</time></trkpt><trkpt lat="45.878475584150515" lon="10.890159960208505"><ele>224.0</ele><time>2026-04-06T09:34:56.999Z</time></trkpt><trkpt lat="45.87847407947769" lon="10.890053665852168"><ele>224.00000000000003</ele><time>2026-04-06T09:34:58.999Z</time></trkpt><trkpt lat="45.87846215759821" lon="10.889918530283781"><ele>224.0</ele><time>2026-04-06T09:35:01.999Z</time></trkpt><trkpt lat="45.87850307832287" lon="10.889812182041828"><ele>223.66666666666669</ele><time>2026-04-06T09:35:03.999Z</time></trkpt><trkpt lat="45.878525913112846" lon="10.889723891378647"><ele>223.33333333333334</ele><time>2026-04-06T09:35:06.999Z</time></trkpt><trkpt lat="45.87850630548437" lon="10.889624061879976"><ele>223.0</ele><time>2026-04-06T09:35:14.999Z</time></trkpt><trkpt lat="45.87849563445196" lon="10.889513943306964"><ele>222.66666666666669</ele><time>2026-04-06T09:35:18.999Z</time></trkpt><trkpt lat="45.87846294478242" lon="10.889436115039116"><ele>222.33333333333334</ele><time>2026-04-06T09:35:21.999Z</time></trkpt><trkpt lat="45.878476170472815" lon="10.889311238479394"><ele>222.0</ele><time>2026-04-06T09:35:23.999Z</time></trkpt><trkpt lat="45.87849347788451" lon="10.889143691588817"><ele>221.33333333333334</ele><time>2026-04-06T09:35:25.999Z</time></trkpt><trkpt lat="45.87855159780024" lon="10.889012304603968"><ele>220.66666666666669</ele><time>2026-04-06T09:35:27.999Z</time></trkpt><trkpt lat="45.87861861871241" lon="10.888955379590358"><ele>220.0</ele><time>2026-04-06T09:35:28.999Z</time></trkpt><trkpt lat="45.878666801601966" lon="10.888862667500975"><ele>219.33333333333334</ele><time>2026-04-06T09:35:29.999Z</time></trkpt><trkpt lat="45.87868492025146" lon="10.888757731316376"><ele>218.66666666666669</ele><time>2026-04-06T09:35:30.999Z</time></trkpt><trkpt lat="45.87868331390227" lon="10.88864235616818"><ele>218.0</ele><time>2026-04-06T09:35:31.999Z</time></trkpt><trkpt lat="45.8786624274678" lon="10.88852971102838"><ele>218.0</ele><time>2026-04-06T09:35:32.999Z</time></trkpt><trkpt lat="45.8786269040095" lon="10.888429352559447"><ele>218.0</ele><time>2026-04-06T09:35:33.999Z</time></trkpt><trkpt lat="45.87858174162198" lon="10.888355426307974"><ele>218.0</ele><time>2026-04-06T09:35:34.999Z</time></trkpt><trkpt lat="45.87848169430932" lon="10.888258642580569"><ele>218.0</ele><time>2026-04-06T09:35:36.999Z</time></trkpt><trkpt lat="45.87858546564085" lon="10.888128699236251"><ele>218.0</ele><time>2026-04-06T09:35:37.999Z</time></trkpt><trkpt lat="45.87847348246379" lon="10.888051353098895"><ele>217.8</ele><time>2026-04-06T09:35:38.999Z</time></trkpt><trkpt lat="45.87850729064579" lon="10.887927138359077"><ele>217.60000000000002</ele><time>2026-04-06T09:35:39.999Z</time></trkpt><trkpt lat="45.878562741128114" lon="10.887812050867876"><ele>217.39999999999998</ele><time>2026-04-06T09:35:40.999Z</time></trkpt><trkpt lat="45.87864635549928" lon="10.887704772127256"><ele>217.2</ele><time>2026-04-06T09:35:41.999Z</time></trkpt><trkpt lat="45.87874312184124" lon="10.88760706705229"><ele>217.0</ele><time>2026-04-06T09:35:42.999Z</time></trkpt><trkpt lat="45.878855211844765" lon="10.887549123812095"><ele>217.0</ele><time>2026-04-06T09:35:43.999Z</time></trkpt><trkpt lat="45.87897223841111" lon="10.887537613587885"><ele>217.0</ele><time>2026-04-06T09:35:44.999Z</time></trkpt><trkpt lat="45.879094631149776" lon="10.887551088455393"><ele>217.0</ele><time>2026-04-06T09:35:45.999Z</time></trkpt><trkpt lat="45.879221852071346" lon="10.887574839615233"><ele>217.0</ele><time>2026-04-06T09:35:46.999Z</time></trkpt><trkpt lat="45.879340389505025" lon="10.887592337373984"><ele>217.0</ele><time>2026-04-06T09:35:47.999Z</time></trkpt><trkpt lat="45.87944831461258" lon="10.88758053173738"><ele>217.0</ele><time>2026-04-06T09:35:48.999Z</time></trkpt><trkpt lat="45.87954923950023" lon="10.887524742254772"><ele>217.0</ele><time>2026-04-06T09:35:49.999Z</time></trkpt><trkpt lat="45.87963676654507" lon="10.887424307592779"><ele>217.0</ele><time>2026-04-06T09:35:50.999Z</time></trkpt><trkpt lat="45.87970478983413" lon="10.887285566944358"><ele>217.0</ele><time>2026-04-06T09:35:51.999Z</time></trkpt><trkpt lat="45.879748366622124" lon="10.887118908740932"><ele>217.0</ele><time>2026-04-06T09:35:52.999Z</time></trkpt><trkpt lat="45.87978605476628" lon="10.88694350418286"><ele>217.0</ele><time>2026-04-06T09:35:53.999Z</time></trkpt><trkpt lat="45.87982581319222" lon="10.886764546455673"><ele>217.0</ele><time>2026-04-06T09:35:54.999Z</time></trkpt><trkpt lat="45.87987209809998" lon="10.886593625308743"><ele>217.0</ele><time>2026-04-06T09:35:55.999Z</time></trkpt><trkpt lat="45.87993017813195" lon="10.886431190598717"><ele>219.25</ele><time>2026-04-06T09:35:56.999Z</time></trkpt><trkpt lat="45.88001576644368" lon="10.886296331938414"><ele>221.5</ele><time>2026-04-06T09:35:57.999Z</time></trkpt><trkpt lat="45.880099781999625" lon="10.886160382243256"><ele>223.75</ele><time>2026-04-06T09:35:58.999Z</time></trkpt><trkpt lat="45.880187517849365" lon="10.886027326640418"><ele>226.0</ele><time>2026-04-06T09:35:59.999Z</time></trkpt><trkpt lat="45.88027224806192" lon="10.885900676251087"><ele>220.20000000000002</ele><time>2026-04-06T09:36:00.999Z</time></trkpt><trkpt lat="45.880341299598044" lon="10.885766362779691"><ele>214.40000000000003</ele><time>2026-04-06T09:36:01.999Z</time></trkpt><trkpt lat="45.88041854438825" lon="10.885654508807221"><ele>208.6</ele><time>2026-04-06T09:36:02.999Z</time></trkpt><trkpt lat="45.880493878780236" lon="10.885537748240917"><ele>202.8</ele><time>2026-04-06T09:36:03.999Z</time></trkpt><trkpt lat="45.880554704911894" lon="10.885424824772961"><ele>197.0</ele><time>2026-04-06T09:36:04.999Z</time></trkpt><trkpt lat="45.880594630777374" lon="10.885312485756858"><ele>197.00000000000003</ele><time>2026-04-06T09:36:05.999Z</time></trkpt><trkpt lat="45.88060108587626" lon="10.885193906692953"><ele>197.0</ele><time>2026-04-06T09:36:06.999Z</time></trkpt><trkpt lat="45.880585776027026" lon="10.885078302116247"><ele>197.0</ele><time>2026-04-06T09:36:07.999Z</time></trkpt><trkpt lat="45.88054571940177" lon="10.88498323875404"><ele>197.0</ele><time>2026-04-06T09:36:08.999Z</time></trkpt><trkpt lat="45.8804892914968" lon="10.884903704028677"><ele>197.00000000000003</ele><time>2026-04-06T09:36:09.999Z</time></trkpt><trkpt lat="45.880440230097655" lon="10.88483707240195"><ele>197.0</ele><time>2026-04-06T09:36:10.999Z</time></trkpt><trkpt lat="45.8803656877755" lon="10.88478963556827"><ele>194.00000000000003</ele><time>2026-04-06T09:36:11.999Z</time></trkpt><trkpt lat="45.880286878327595" lon="10.88479535272335"><ele>191.0</ele><time>2026-04-06T09:36:12.999Z</time></trkpt><trkpt lat="45.88021401586944" lon="10.884831500537034"><ele>188.0</ele><time>2026-04-06T09:36:13.999Z</time></trkpt><trkpt lat="45.8801460529709" lon="10.88488982378672"><ele>185.0</ele><time>2026-04-06T09:36:14.999Z</time></trkpt><trkpt lat="45.880082415935014" lon="10.884984780331884"><ele>182.0</ele><time>2026-04-06T09:36:15.999Z</time></trkpt><trkpt lat="45.8800444175183" lon="10.885089848337755"><ele>179.0</ele><time>2026-04-06T09:36:16.999Z</time></trkpt><trkpt lat="45.87998724730988" lon="10.885190584213351"><ele>179.0</ele><time>2026-04-06T09:36:17.999Z</time></trkpt><trkpt lat="45.87993567377933" lon="10.88529928774793"><ele>179.0</ele><time>2026-04-06T09:36:18.999Z</time></trkpt><trkpt lat="45.879872310591345" lon="10.88543079195026"><ele>179.0</ele><time>2026-04-06T09:36:19.999Z</time></trkpt><trkpt lat="45.87979227681435" lon="10.885595426653476"><ele>179.0</ele><time>2026-04-06T09:36:20.999Z</time></trkpt><trkpt lat="45.87969688291652" lon="10.885793854633079"><ele>185.66666666666666</ele><time>2026-04-06T09:36:21.999Z</time></trkpt><trkpt lat="45.8795888206341" lon="10.885973053786145"><ele>192.33333333333331</ele><time>2026-04-06T09:36:22.999Z</time></trkpt><trkpt lat="45.87949777424688" lon="10.886151641253333"><ele>199.0</ele><time>2026-04-06T09:36:23.999Z</time></trkpt><trkpt lat="45.87941467820503" lon="10.886326254056469"><ele>199.0</ele><time>2026-04-06T09:36:24.999Z</time></trkpt><trkpt lat="45.87931465268633" lon="10.886450066990854"><ele>199.0</ele><time>2026-04-06T09:36:25.999Z</time></trkpt><trkpt lat="45.879206579332404" lon="10.886548312215421"><ele>199.0</ele><time>2026-04-06T09:36:26.999Z</time></trkpt><trkpt lat="45.87908935488033" lon="10.886589210188005"><ele>199.0</ele><time>2026-04-06T09:36:27.999Z</time></trkpt><trkpt lat="45.8789654891264" lon="10.886594059648274"><ele>192.0</ele><time>2026-04-06T09:36:28.999Z</time></trkpt><trkpt lat="45.87884954161036" lon="10.88654194467408"><ele>185.0</ele><time>2026-04-06T09:36:29.999Z</time></trkpt><trkpt lat="45.87874831815239" lon="10.886457353329273"><ele>178.0</ele><time>2026-04-06T09:36:30.999Z</time></trkpt><trkpt lat="45.87865776971112" lon="10.88632953858285"><ele>171.0</ele><time>2026-04-06T09:36:31.999Z</time></trkpt><trkpt lat="45.87858925248949" lon="10.886162750140846"><ele>171.0</ele><time>2026-04-06T09:36:32.999Z</time></trkpt><trkpt lat="45.878513220663855" lon="10.885976520764785"><ele>171.0</ele><time>2026-04-06T09:36:33.999Z</time></trkpt><trkpt lat="45.878423270257926" lon="10.885786191430148"><ele>171.0</ele><time>2026-04-06T09:36:34.999Z</time></trkpt><trkpt lat="45.87835637785517" lon="10.885605572793825"><ele>169.75</ele><time>2026-04-06T09:36:35.999Z</time></trkpt><trkpt lat="45.87829163618043" lon="10.885432980128977"><ele>168.5</ele><time>2026-04-06T09:36:36.999Z</time></trkpt><trkpt lat="45.87820803680824" lon="10.885266259271678"><ele>167.25</ele><time>2026-04-06T09:36:37.999Z</time></trkpt><trkpt lat="45.87811799395298" lon="10.885126640184303"><ele>166.0</ele><time>2026-04-06T09:36:38.999Z</time></trkpt><trkpt lat="45.87801238100435" lon="10.884980234626745"><ele>156.66666666666669</ele><time>2026-04-06T09:36:39.999Z</time></trkpt><trkpt lat="45.87789034305698" lon="10.88485221952524"><ele>147.33333333333334</ele><time>2026-04-06T09:36:40.999Z</time></trkpt><trkpt lat="45.87775944517867" lon="10.88473296110951"><ele>138.0</ele><time>2026-04-06T09:36:41.999Z</time></trkpt><trkpt lat="45.87762262561402" lon="10.884602138189015"><ele>135.0</ele><time>2026-04-06T09:36:42.999Z</time></trkpt><trkpt lat="45.877477838806215" lon="10.884465503855038"><ele>132.0</ele><time>2026-04-06T09:36:43.999Z</time></trkpt><trkpt lat="45.87732577019736" lon="10.884323285977757"><ele>129.0</ele><time>2026-04-06T09:36:44.999Z</time></trkpt><trkpt lat="45.87718127413623" lon="10.88415904643084"><ele>129.0</ele><time>2026-04-06T09:36:45.999Z</time></trkpt><trkpt lat="45.87703206974391" lon="10.884016355154273"><ele>129.0</ele><time>2026-04-06T09:36:46.999Z</time></trkpt><trkpt lat="45.87688673337706" lon="10.883878119389708"><ele>129.0</ele><time>2026-04-06T09:36:47.999Z</time></trkpt><trkpt lat="45.87673452068035" lon="10.883761046454874"><ele>124.0</ele><time>2026-04-06T09:36:48.999Z</time></trkpt><trkpt lat="45.87659093754027" lon="10.883622644692933"><ele>119.0</ele><time>2026-04-06T09:36:49.999Z</time></trkpt><trkpt lat="45.87645854947605" lon="10.883467715292433"><ele>114.0</ele><time>2026-04-06T09:36:50.999Z</time></trkpt><trkpt lat="45.87631847803076" lon="10.883334691647324"><ele>114.0</ele><time>2026-04-06T09:36:51.999Z</time></trkpt><trkpt lat="45.87618037642095" lon="10.883203941706713"><ele>114.0</ele><time>2026-04-06T09:36:52.999Z</time></trkpt><trkpt lat="45.876042554870864" lon="10.883073316387282"><ele>114.0</ele><time>2026-04-06T09:36:53.999Z</time></trkpt><trkpt lat="45.87590755134189" lon="10.882943667250785"><ele>110.66666666666666</ele><time>2026-04-06T09:36:54.999Z</time></trkpt><trkpt lat="45.87577366792054" lon="10.882813615004999"><ele>107.33333333333333</ele><time>2026-04-06T09:36:55.999Z</time></trkpt><trkpt lat="45.87564896415252" lon="10.882692012542318"><ele>104.0</ele><time>2026-04-06T09:36:56.999Z</time></trkpt><trkpt lat="45.875526474791066" lon="10.882576128621043"><ele>104.0</ele><time>2026-04-06T09:36:57.999Z</time></trkpt><trkpt lat="45.8754024964691" lon="10.882459074430837"><ele>104.0</ele><time>2026-04-06T09:36:58.999Z</time></trkpt><trkpt lat="45.87527537412418" lon="10.882335508558034"><ele>104.0</ele><time>2026-04-06T09:36:59.999Z</time></trkpt><trkpt lat="45.87513791770517" lon="10.882191205253278"><ele>104.33333333333333</ele><time>2026-04-06T09:37:00.999Z</time></trkpt><trkpt lat="45.87499778833767" lon="10.88203913855212"><ele>104.66666666666666</ele><time>2026-04-06T09:37:01.999Z</time></trkpt><trkpt lat="45.874859100303226" lon="10.881883721861918"><ele>105.0</ele><time>2026-04-06T09:37:02.999Z</time></trkpt><trkpt lat="45.874723961578574" lon="10.881729747436792"><ele>105.0</ele><time>2026-04-06T09:37:03.999Z</time></trkpt><trkpt lat="45.87459312705358" lon="10.88157493683359"><ele>105.0</ele><time>2026-04-06T09:37:04.999Z</time></trkpt><trkpt lat="45.874458778031205" lon="10.881409341923437"><ele>105.0</ele><time>2026-04-06T09:37:05.999Z</time></trkpt><trkpt lat="45.87432260787498" lon="10.88123557771685"><ele>103.33333333333334</ele><time>2026-04-06T09:37:06.999Z</time></trkpt><trkpt lat="45.87418632738268" lon="10.88105042700478"><ele>101.66666666666667</ele><time>2026-04-06T09:37:07.999Z</time></trkpt><trkpt lat="45.874045113011775" lon="10.880855356165533"><ele>100.0</ele><time>2026-04-06T09:37:08.999Z</time></trkpt><trkpt lat="45.8738994624939" lon="10.880653922925095"><ele>100.0</ele><time>2026-04-06T09:37:09.999Z</time></trkpt><trkpt lat="45.87375076947218" lon="10.880448281968386"><ele>100.0</ele><time>2026-04-06T09:37:10.999Z</time></trkpt><trkpt lat="45.873598972707136" lon="10.880238032078504"><ele>100.0</ele><time>2026-04-06T09:37:11.999Z</time></trkpt><trkpt lat="45.87344992749118" lon="10.880029182871898"><ele>101.0</ele><time>2026-04-06T09:37:12.999Z</time></trkpt><trkpt lat="45.87330209554261" lon="10.879823425058202"><ele>102.0</ele><time>2026-04-06T09:37:13.999Z</time></trkpt><trkpt lat="45.87315429925136" lon="10.879618013962766"><ele>103.0</ele><time>2026-04-06T09:37:14.999Z</time></trkpt><trkpt lat="45.87300222767213" lon="10.87943871721886"><ele>103.33333333333334</ele><time>2026-04-06T09:37:15.999Z</time></trkpt><trkpt lat="45.872873735375634" lon="10.879227133615554"><ele>103.66666666666666</ele><time>2026-04-06T09:37:16.999Z</time></trkpt><trkpt lat="45.8727373828235" lon="10.879036897726968"><ele>104.0</ele><time>2026-04-06T09:37:17.999Z</time></trkpt><trkpt lat="45.872603477670665" lon="10.878850076336125"><ele>104.0</ele><time>2026-04-06T09:37:18.999Z</time></trkpt><trkpt lat="45.87247062784063" lon="10.878664727254229"><ele>104.0</ele><time>2026-04-06T09:37:19.999Z</time></trkpt><trkpt lat="45.87234072950717" lon="10.878483582616651"><ele>104.0</ele><time>2026-04-06T09:37:20.999Z</time></trkpt><trkpt lat="45.87221266602593" lon="10.878305037871382"><ele>94.33333333333333</ele><time>2026-04-06T09:37:21.999Z</time></trkpt><trkpt lat="45.87208899006771" lon="10.878132610122982"><ele>84.66666666666666</ele><time>2026-04-06T09:37:22.999Z</time></trkpt><trkpt lat="45.87196967506538" lon="10.877966264000854"><ele>75.0</ele><time>2026-04-06T09:37:23.999Z</time></trkpt><trkpt lat="45.87185923599729" lon="10.877812292194953"><ele>74.75</ele><time>2026-04-06T09:37:24.999Z</time></trkpt><trkpt lat="45.87175472929482" lon="10.87766659111133"><ele>74.5</ele><time>2026-04-06T09:37:25.999Z</time></trkpt><trkpt lat="45.87165497513879" lon="10.877527858355789"><ele>74.25</ele><time>2026-04-06T09:37:26.999Z</time></trkpt><trkpt lat="45.87155339419734" lon="10.877418167702958"><ele>74.0</ele><time>2026-04-06T09:37:27.999Z</time></trkpt><trkpt lat="45.87146787291031" lon="10.87729935448596"><ele>74.0</ele><time>2026-04-06T09:37:28.999Z</time></trkpt><trkpt lat="45.871398947272205" lon="10.87717176085963"><ele>74.0</ele><time>2026-04-06T09:37:29.999Z</time></trkpt><trkpt lat="45.8713342833392" lon="10.877081822841772"><ele>74.0</ele><time>2026-04-06T09:37:30.999Z</time></trkpt><trkpt lat="45.87127901106192" lon="10.877004946825192"><ele>74.0</ele><time>2026-04-06T09:37:31.999Z</time></trkpt><trkpt lat="45.871208678296604" lon="10.876906809125328"><ele>74.0</ele><time>2026-04-06T09:37:33.999Z</time></trkpt><trkpt lat="45.87114757481909" lon="10.87682183193129"><ele>73.66666666666667</ele><time>2026-04-06T09:37:36.999Z</time></trkpt><trkpt lat="45.87110001880165" lon="10.87675569531992"><ele>73.33333333333334</ele><time>2026-04-06T09:37:38.999Z</time></trkpt><trkpt lat="45.871040113378164" lon="10.87667238442745"><ele>73.0</ele><time>2026-04-06T09:37:40.999Z</time></trkpt><trkpt lat="45.87097148386513" lon="10.876575841057965"><ele>72.66666666666667</ele><time>2026-04-06T09:37:42.999Z</time></trkpt><trkpt lat="45.87089867410747" lon="10.876458393862418"><ele>72.33333333333333</ele><time>2026-04-06T09:37:44.999Z</time></trkpt><trkpt lat="45.870845915716494" lon="10.87638208059722"><ele>72.0</ele><time>2026-04-06T09:37:46.999Z</time></trkpt><trkpt lat="45.870824089323655" lon="10.876294828474094"><ele>72.0</ele><time>2026-04-06T09:37:54.999Z</time></trkpt><trkpt lat="45.870833016736384" lon="10.876162320637063"><ele>72.0</ele><time>2026-04-06T09:37:57.999Z</time></trkpt><trkpt lat="45.87090455600167" lon="10.876011344350339"><ele>72.0</ele><time>2026-04-06T09:37:59.999Z</time></trkpt><trkpt lat="45.87094298936399" lon="10.87590930657579"><ele>72.0</ele><time>2026-04-06T09:38:01.999Z</time></trkpt><trkpt lat="45.87099743698085" lon="10.875792396314537"><ele>72.0</ele><time>2026-04-06T09:38:03.999Z</time></trkpt><trkpt lat="45.87105736411246" lon="10.875677997006402"><ele>70.75</ele><time>2026-04-06T09:38:05.999Z</time></trkpt><trkpt lat="45.871150114839004" lon="10.875592624455548"><ele>69.5</ele><time>2026-04-06T09:38:07.999Z</time></trkpt><trkpt lat="45.87123807882107" lon="10.875551238004954"><ele>68.25</ele><time>2026-04-06T09:38:09.999Z</time></trkpt><trkpt lat="45.87129213931519" lon="10.875343362210891"><ele>67.0</ele><time>2026-04-06T09:42:02.001Z</time></trkpt><trkpt lat="45.87120223206987" lon="10.87540942967433"><ele>67.0</ele><time>2026-04-06T09:42:05.001Z</time></trkpt><trkpt lat="45.871154077649436" lon="10.8754852240214"><ele>67.0</ele><time>2026-04-06T09:42:06.001Z</time></trkpt><trkpt lat="45.871097466789124" lon="10.875594848460754"><ele>67.0</ele><time>2026-04-06T09:42:08.001Z</time></trkpt><trkpt lat="45.87106006169721" lon="10.875672276560904"><ele>67.0</ele><time>2026-04-06T09:42:13.001Z</time></trkpt><trkpt lat="45.871001912038274" lon="10.875773346375217"><ele>67.0</ele><time>2026-04-06T09:42:16.001Z</time></trkpt><trkpt lat="45.870902577867014" lon="10.875838705978945"><ele>67.0</ele><time>2026-04-06T09:42:18.001Z</time></trkpt><trkpt lat="45.87085214589941" lon="10.87590664292662"><ele>67.33333333333333</ele><time>2026-04-06T09:42:20.001Z</time></trkpt><trkpt lat="45.87078800242012" lon="10.875982723109555"><ele>67.66666666666666</ele><time>2026-04-06T09:42:30.001Z</time></trkpt><trkpt lat="45.870717613925514" lon="10.87599668177771"><ele>68.0</ele><time>2026-04-06T09:42:32.001Z</time></trkpt><trkpt lat="45.87064559686967" lon="10.876014348381746"><ele>68.33333333333333</ele><time>2026-04-06T09:42:34.001Z</time></trkpt><trkpt lat="45.87057133086319" lon="10.87600747217247"><ele>68.66666666666667</ele><time>2026-04-06T09:42:36.001Z</time></trkpt><trkpt lat="45.870451536151414" lon="10.875923803052697"><ele>69.0</ele><time>2026-04-06T09:42:38.001Z</time></trkpt><trkpt lat="45.870371869437875" lon="10.875889810251698"><ele>69.0</ele><time>2026-04-06T09:42:40.001Z</time></trkpt><trkpt lat="45.87030208121545" lon="10.875863349787998"><ele>69.0</ele><time>2026-04-06T09:42:44.001Z</time></trkpt><trkpt lat="45.870236397035484" lon="10.875858599768762"><ele>69.0</ele><time>2026-04-06T09:42:49.001Z</time></trkpt><trkpt lat="45.8701709252209" lon="10.875838369937082"><ele>69.0</ele><time>2026-04-06T09:42:51Z</time></trkpt><trkpt lat="45.87009523709758" lon="10.875793259778664"><ele>69.0</ele><time>2026-04-06T09:42:53Z</time></trkpt><trkpt lat="45.869991334585045" lon="10.875765219921178"><ele>69.0</ele><time>2026-04-06T09:43:00Z</time></trkpt><trkpt lat="45.86987076333687" lon="10.87574936133287"><ele>69.33333333333333</ele><time>2026-04-06T09:43:02Z</time></trkpt><trkpt lat="45.86977431831193" lon="10.875771051817045"><ele>69.66666666666667</ele><time>2026-04-06T09:43:04Z</time></trkpt><trkpt lat="45.86970402932677" lon="10.875790483329574"><ele>70.0</ele><time>2026-04-06T09:43:06Z</time></trkpt><trkpt lat="45.869621757491096" lon="10.875857484657447"><ele>70.33333333333334</ele><time>2026-04-06T09:43:10Z</time></trkpt><trkpt lat="45.869537613282695" lon="10.875899531693562"><ele>70.66666666666667</ele><time>2026-04-06T09:43:12Z</time></trkpt><trkpt lat="45.86946674001172" lon="10.875939220066318"><ele>71.0</ele><time>2026-04-06T09:43:14Z</time></trkpt><trkpt lat="45.86940439952865" lon="10.875989300046367"><ele>70.71428571428571</ele><time>2026-04-06T09:43:16Z</time></trkpt><trkpt lat="45.869348735166994" lon="10.876031900294405"><ele>70.42857142857142</ele><time>2026-04-06T09:43:18Z</time></trkpt><trkpt lat="45.869273998666664" lon="10.876105867592205"><ele>70.14285714285714</ele><time>2026-04-06T09:43:21Z</time></trkpt><trkpt lat="45.86921200627852" lon="10.876155676674607"><ele>69.85714285714286</ele><time>2026-04-06T09:43:23Z</time></trkpt><trkpt lat="45.86915176266984" lon="10.876191094362959"><ele>69.57142857142858</ele><time>2026-04-06T09:43:26Z</time></trkpt><trkpt lat="45.86908953607918" lon="10.876255221706325"><ele>69.28571428571429</ele><time>2026-04-06T09:43:29Z</time></trkpt><trkpt lat="45.86901611244411" lon="10.876307681750218"><ele>69.0</ele><time>2026-04-06T09:43:31Z</time></trkpt><trkpt lat="45.8689465257987" lon="10.876362223366334"><ele>69.0</ele><time>2026-04-06T09:43:33Z</time></trkpt><trkpt lat="45.86886826151312" lon="10.876423189536572"><ele>69.0</ele><time>2026-04-06T09:43:36Z</time></trkpt><trkpt lat="45.86879237847145" lon="10.876478634075156"><ele>69.0</ele><time>2026-04-06T09:43:38Z</time></trkpt><trkpt lat="45.86870065082412" lon="10.876549229584233"><ele>69.0</ele><time>2026-04-06T09:43:40Z</time></trkpt><trkpt lat="45.86858821524138" lon="10.876628895525664"><ele>69.0</ele><time>2026-04-06T09:43:42Z</time></trkpt><trkpt lat="45.868476765964125" lon="10.876713136961275"><ele>68.71428571428572</ele><time>2026-04-06T09:43:44Z</time></trkpt><trkpt lat="45.86842093506041" lon="10.876756322616373"><ele>68.42857142857143</ele><time>2026-04-06T09:43:45Z</time></trkpt><trkpt lat="45.86836108027318" lon="10.87679901865411"><ele>68.14285714285714</ele><time>2026-04-06T09:43:46Z</time></trkpt><trkpt lat="45.86829967518323" lon="10.87684351086774"><ele>67.85714285714286</ele><time>2026-04-06T09:43:47Z</time></trkpt><trkpt lat="45.86823584709507" lon="10.876887368998513"><ele>67.57142857142857</ele><time>2026-04-06T09:43:48Z</time></trkpt><trkpt lat="45.86817270144749" lon="10.876930164665803"><ele>67.28571428571429</ele><time>2026-04-06T09:43:49Z</time></trkpt><trkpt lat="45.868110841481794" lon="10.876971947078822"><ele>67.0</ele><time>2026-04-06T09:43:50Z</time></trkpt><trkpt lat="45.868050991106465" lon="10.877007274464551"><ele>67.6</ele><time>2026-04-06T09:43:51Z</time></trkpt><trkpt lat="45.86794368809472" lon="10.8770596666674"><ele>68.2</ele><time>2026-04-06T09:43:53Z</time></trkpt><trkpt lat="45.86783233467121" lon="10.877074509367418"><ele>68.8</ele><time>2026-04-06T09:43:55Z</time></trkpt><trkpt lat="45.86773566429147" lon="10.877114388265634"><ele>69.4</ele><time>2026-04-06T09:43:57.001Z</time></trkpt><trkpt lat="45.86763183843311" lon="10.877097531625749"><ele>70.0</ele><time>2026-04-06T09:43:59.001Z</time></trkpt><trkpt lat="45.867537618157705" lon="10.877116491654036"><ele>70.0</ele><time>2026-04-06T09:44:01.001Z</time></trkpt><trkpt lat="45.867453692360186" lon="10.87708524673802"><ele>70.0</ele><time>2026-04-06T09:44:03.001Z</time></trkpt><trkpt lat="45.867381830952674" lon="10.877071139757543"><ele>70.0</ele><time>2026-04-06T09:44:07.001Z</time></trkpt><trkpt lat="45.86730377635792" lon="10.877051318968833"><ele>70.0</ele><time>2026-04-06T09:44:09.001Z</time></trkpt><trkpt lat="45.86721799134467" lon="10.87702531041542"><ele>70.0</ele><time>2026-04-06T09:44:11.001Z</time></trkpt><trkpt lat="45.86711707461619" lon="10.876988400502396"><ele>70.0</ele><time>2026-04-06T09:44:13.001Z</time></trkpt><trkpt lat="45.86704555719097" lon="10.876952329276047"><ele>70.0</ele><time>2026-04-06T09:44:15.001Z</time></trkpt><trkpt lat="45.86696189237888" lon="10.8769087968958"><ele>70.0</ele><time>2026-04-06T09:44:18.001Z</time></trkpt><trkpt lat="45.86689193613336" lon="10.876883889332651"><ele>70.0</ele><time>2026-04-06T09:44:20.001Z</time></trkpt><trkpt lat="45.86678905434357" lon="10.876783738589097"><ele>70.0</ele><time>2026-04-06T09:44:22.001Z</time></trkpt><trkpt lat="45.866718911068176" lon="10.876726619433889"><ele>70.0</ele><time>2026-04-06T09:44:23.001Z</time></trkpt><trkpt lat="45.86664937333158" lon="10.876669774442592"><ele>70.0</ele><time>2026-04-06T09:44:24.001Z</time></trkpt><trkpt lat="45.86658284806396" lon="10.876615468140637"><ele>69.33333333333333</ele><time>2026-04-06T09:44:25.001Z</time></trkpt><trkpt lat="45.866517730771356" lon="10.876562311142727"><ele>68.66666666666666</ele><time>2026-04-06T09:44:26.001Z</time></trkpt><trkpt lat="45.86645074131283" lon="10.876507554700341"><ele>68.0</ele><time>2026-04-06T09:44:27.001Z</time></trkpt><trkpt lat="45.86637684570783" lon="10.876447050472976"><ele>67.33333333333333</ele><time>2026-04-06T09:44:28.001Z</time></trkpt><trkpt lat="45.86629094253136" lon="10.876376624840889"><ele>66.66666666666667</ele><time>2026-04-06T09:44:29.001Z</time></trkpt><trkpt lat="45.86619796652946" lon="10.876300396649471"><ele>66.0</ele><time>2026-04-06T09:44:30Z</time></trkpt><trkpt lat="45.86610108728317" lon="10.876220968033435"><ele>66.0</ele><time>2026-04-06T09:44:31Z</time></trkpt><trkpt lat="45.86600783125322" lon="10.876144511747423"><ele>66.0</ele><time>2026-04-06T09:44:32Z</time></trkpt><trkpt lat="45.86592135022077" lon="10.876073608419583"><ele>66.0</ele><time>2026-04-06T09:44:33Z</time></trkpt><trkpt lat="45.86584195434944" lon="10.876008514049632"><ele>66.0</ele><time>2026-04-06T09:44:34Z</time></trkpt><trkpt lat="45.865768073437785" lon="10.875947941143437"><ele>66.0</ele><time>2026-04-06T09:44:35Z</time></trkpt><trkpt lat="45.865693067683345" lon="10.8758864460966"><ele>65.83333333333333</ele><time>2026-04-06T09:44:36Z</time></trkpt><trkpt lat="45.86562062490424" lon="10.875827052321286"><ele>65.66666666666667</ele><time>2026-04-06T09:44:37Z</time></trkpt><trkpt lat="45.86555424016309" lon="10.875772625378612"><ele>65.5</ele><time>2026-04-06T09:44:38Z</time></trkpt><trkpt lat="45.86548737968574" lon="10.875717887462422"><ele>65.33333333333334</ele><time>2026-04-06T09:44:39Z</time></trkpt><trkpt lat="45.86542318540741" lon="10.875665423446266"><ele>65.16666666666667</ele><time>2026-04-06T09:44:40Z</time></trkpt><trkpt lat="45.86536553582008" lon="10.875618392772877"><ele>65.0</ele><time>2026-04-06T09:44:41Z</time></trkpt><trkpt lat="45.86526165284981" lon="10.875537753162657"><ele>65.00000000000001</ele><time>2026-04-06T09:44:43Z</time></trkpt><trkpt lat="45.86520233403387" lon="10.87549710769587"><ele>65.0</ele><time>2026-04-06T09:44:44Z</time></trkpt><trkpt lat="45.865139383423134" lon="10.875460172792124"><ele>65.0</ele><time>2026-04-06T09:44:45Z</time></trkpt><trkpt lat="45.86506970618953" lon="10.875421543623316"><ele>65.0</ele><time>2026-04-06T09:44:46Z</time></trkpt><trkpt lat="45.864996539606345" lon="10.875381021937025"><ele>65.0</ele><time>2026-04-06T09:44:47Z</time></trkpt><trkpt lat="45.864918121403676" lon="10.875338740410607"><ele>65.00000000000001</ele><time>2026-04-06T09:44:48Z</time></trkpt><trkpt lat="45.864851172362876" lon="10.87530311915205"><ele>65.0</ele><time>2026-04-06T09:44:49Z</time></trkpt><trkpt lat="45.86474982271432" lon="10.875250830170595"><ele>67.66666666666667</ele><time>2026-04-06T09:44:51Z</time></trkpt><trkpt lat="45.86463697385213" lon="10.875209191928707"><ele>70.33333333333334</ele><time>2026-04-06T09:44:53Z</time></trkpt><trkpt lat="45.864569672346825" lon="10.87521657864951"><ele>73.0</ele><time>2026-04-06T09:44:54Z</time></trkpt><trkpt lat="45.86449702864105" lon="10.87520715717328"><ele>75.66666666666667</ele><time>2026-04-06T09:44:55Z</time></trkpt><trkpt lat="45.86442130119241" lon="10.87520772032596"><ele>78.33333333333333</ele><time>2026-04-06T09:44:56Z</time></trkpt><trkpt lat="45.86435654147751" lon="10.87521108091353"><ele>81.0</ele><time>2026-04-06T09:44:57Z</time></trkpt><trkpt lat="45.86424412104997" lon="10.875239751628701"><ele>81.0</ele><time>2026-04-06T09:44:59Z</time></trkpt><trkpt lat="45.864114564614376" lon="10.87530613924104"><ele>81.0</ele><time>2026-04-06T09:45:01Z</time></trkpt><trkpt lat="45.86403003408271" lon="10.875368662467631"><ele>81.0</ele><time>2026-04-06T09:45:02Z</time></trkpt><trkpt lat="45.86394443316832" lon="10.875443005461994"><ele>81.0</ele><time>2026-04-06T09:45:03Z</time></trkpt><trkpt lat="45.8638749834612" lon="10.875521728786042"><ele>81.0</ele><time>2026-04-06T09:45:04Z</time></trkpt><trkpt lat="45.86380804396674" lon="10.875599133793077"><ele>81.0</ele><time>2026-04-06T09:45:05Z</time></trkpt><trkpt lat="45.86374148723539" lon="10.875683491461613"><ele>81.0</ele><time>2026-04-06T09:45:06Z</time></trkpt><trkpt lat="45.86368166631077" lon="10.875764579717067"><ele>81.0</ele><time>2026-04-06T09:45:07Z</time></trkpt><trkpt lat="45.863632123540135" lon="10.875837428348428"><ele>81.0</ele><time>2026-04-06T09:45:08Z</time></trkpt><trkpt lat="45.86358798023691" lon="10.875908191290332"><ele>81.0</ele><time>2026-04-06T09:45:09Z</time></trkpt><trkpt lat="45.863542887990285" lon="10.875978047793113"><ele>81.0</ele><time>2026-04-06T09:45:10Z</time></trkpt><trkpt lat="45.86349261584519" lon="10.876047863516138"><ele>81.0</ele><time>2026-04-06T09:45:11Z</time></trkpt><trkpt lat="45.86343883493462" lon="10.876116389255278"><ele>82.0</ele><time>2026-04-06T09:45:12Z</time></trkpt><trkpt lat="45.86337941770232" lon="10.876186489965225"><ele>83.0</ele><time>2026-04-06T09:45:13Z</time></trkpt><trkpt lat="45.86331451533579" lon="10.876254477465569"><ele>84.0</ele><time>2026-04-06T09:45:14Z</time></trkpt><trkpt lat="45.86325250404659" lon="10.876309478233873"><ele>85.0</ele><time>2026-04-06T09:45:15Z</time></trkpt><trkpt lat="45.863191153714915" lon="10.876360552583353"><ele>86.0</ele><time>2026-04-06T09:45:16Z</time></trkpt><trkpt lat="45.86313222730014" lon="10.87640439342339"><ele>87.0</ele><time>2026-04-06T09:45:17Z</time></trkpt><trkpt lat="45.863068780546136" lon="10.876447831373275"><ele>88.0</ele><time>2026-04-06T09:45:18Z</time></trkpt><trkpt lat="45.86299060117842" lon="10.876468135077648"><ele>88.0</ele><time>2026-04-06T09:45:19Z</time></trkpt><trkpt lat="45.862915269403885" lon="10.876529408117644"><ele>88.0</ele><time>2026-04-06T09:45:20Z</time></trkpt><trkpt lat="45.86283388188443" lon="10.876558993641925"><ele>88.0</ele><time>2026-04-06T09:45:21Z</time></trkpt><trkpt lat="45.862755725947814" lon="10.876588452269946"><ele>88.0</ele><time>2026-04-06T09:45:22Z</time></trkpt><trkpt lat="45.86267158533779" lon="10.876587167917238"><ele>88.0</ele><time>2026-04-06T09:45:23Z</time></trkpt><trkpt lat="45.86259134809621" lon="10.87660319439673"><ele>88.0</ele><time>2026-04-06T09:45:24Z</time></trkpt><trkpt lat="45.86251879827173" lon="10.876614163271885"><ele>85.5</ele><time>2026-04-06T09:45:25Z</time></trkpt><trkpt lat="45.862450277545214" lon="10.876616675561028"><ele>83.0</ele><time>2026-04-06T09:45:26Z</time></trkpt><trkpt lat="45.862389067793806" lon="10.87663847100238"><ele>80.5</ele><time>2026-04-06T09:45:27Z</time></trkpt><trkpt lat="45.86229638856035" lon="10.876628636763238"><ele>78.0</ele><time>2026-04-06T09:45:29Z</time></trkpt><trkpt lat="45.862202558366135" lon="10.876594893801489"><ele>75.5</ele><time>2026-04-06T09:45:31Z</time></trkpt><trkpt lat="45.862140158287026" lon="10.876582796758536"><ele>73.0</ele><time>2026-04-06T09:45:32Z</time></trkpt><trkpt lat="45.86207379950718" lon="10.87659051379383"><ele>73.0</ele><time>2026-04-06T09:45:33Z</time></trkpt><trkpt lat="45.862009021875984" lon="10.876570809055858"><ele>73.0</ele><time>2026-04-06T09:45:34Z</time></trkpt><trkpt lat="45.86194096446697" lon="10.876542400341933"><ele>73.0</ele><time>2026-04-06T09:45:35Z</time></trkpt><trkpt lat="45.86186695768227" lon="10.876506070441017"><ele>73.0</ele><time>2026-04-06T09:45:36Z</time></trkpt><trkpt lat="45.861789485789025" lon="10.876464336617307"><ele>73.0</ele><time>2026-04-06T09:45:37Z</time></trkpt><trkpt lat="45.861711024114044" lon="10.876409482154063"><ele>73.0</ele><time>2026-04-06T09:45:38Z</time></trkpt><trkpt lat="45.86161845794323" lon="10.876341280946694"><ele>76.25</ele><time>2026-04-06T09:45:39Z</time></trkpt><trkpt lat="45.861520353137905" lon="10.876258802293432"><ele>79.5</ele><time>2026-04-06T09:45:40Z</time></trkpt><trkpt lat="45.86143241886399" lon="10.876147250086104"><ele>82.75</ele><time>2026-04-06T09:45:41Z</time></trkpt><trkpt lat="45.8613236027511" lon="10.876064928044295"><ele>86.0</ele><time>2026-04-06T09:45:42Z</time></trkpt><trkpt lat="45.86122285870381" lon="10.875957365407434"><ele>87.5</ele><time>2026-04-06T09:45:43Z</time></trkpt><trkpt lat="45.86112566740068" lon="10.875833737510865"><ele>89.0</ele><time>2026-04-06T09:45:44Z</time></trkpt><trkpt lat="45.86104014104844" lon="10.87569269608843"><ele>90.5</ele><time>2026-04-06T09:45:45Z</time></trkpt><trkpt lat="45.860951460313" lon="10.87553432356459"><ele>92.0</ele><time>2026-04-06T09:45:46Z</time></trkpt><trkpt lat="45.86085028207912" lon="10.875365582161777"><ele>92.0</ele><time>2026-04-06T09:45:47Z</time></trkpt><trkpt lat="45.86076178581517" lon="10.875173962276543"><ele>92.0</ele><time>2026-04-06T09:45:48Z</time></trkpt><trkpt lat="45.860652772928965" lon="10.875005654605703"><ele>92.0</ele><time>2026-04-06T09:45:49Z</time></trkpt><trkpt lat="45.86053113831908" lon="10.87484933922529"><ele>85.66666666666667</ele><time>2026-04-06T09:45:50Z</time></trkpt><trkpt lat="45.860403277848754" lon="10.874707206312198"><ele>79.33333333333333</ele><time>2026-04-06T09:45:51Z</time></trkpt><trkpt lat="45.8602716893065" lon="10.874563640075175"><ele>73.0</ele><time>2026-04-06T09:45:52Z</time></trkpt><trkpt lat="45.86014095142452" lon="10.87442071998402"><ele>73.0</ele><time>2026-04-06T09:45:53Z</time></trkpt><trkpt lat="45.860008246078166" lon="10.874276098957488"><ele>73.0</ele><time>2026-04-06T09:45:54Z</time></trkpt><trkpt lat="45.85986651060044" lon="10.874141852949856"><ele>73.0</ele><time>2026-04-06T09:45:55Z</time></trkpt><trkpt lat="45.85973752269992" lon="10.873982223793245"><ele>73.0</ele><time>2026-04-06T09:45:56Z</time></trkpt><trkpt lat="45.85961765991198" lon="10.873810861851267"><ele>73.0</ele><time>2026-04-06T09:45:57Z</time></trkpt><trkpt lat="45.859506238376255" lon="10.873627394985599"><ele>73.0</ele><time>2026-04-06T09:45:58Z</time></trkpt><trkpt lat="45.85939675295208" lon="10.873436747261046"><ele>75.33333333333333</ele><time>2026-04-06T09:45:59Z</time></trkpt><trkpt lat="45.85929294715969" lon="10.873235678221885"><ele>77.66666666666667</ele><time>2026-04-06T09:46:00Z</time></trkpt><trkpt lat="45.85917370249148" lon="10.873044748905711"><ele>80.0</ele><time>2026-04-06T09:46:01Z</time></trkpt><trkpt lat="45.859054841738974" lon="10.872855897463348"><ele>80.0</ele><time>2026-04-06T09:46:02Z</time></trkpt><trkpt lat="45.8589315639138" lon="10.872676386989117"><ele>80.0</ele><time>2026-04-06T09:46:03.001Z</time></trkpt><trkpt lat="45.85880389030395" lon="10.872507393059545"><ele>80.0</ele><time>2026-04-06T09:46:04.001Z</time></trkpt><trkpt lat="45.858677142738216" lon="10.872340059931473"><ele>74.66666666666667</ele><time>2026-04-06T09:46:05.001Z</time></trkpt><trkpt lat="45.85855166928387" lon="10.872171502425324"><ele>69.33333333333333</ele><time>2026-04-06T09:46:06.001Z</time></trkpt><trkpt lat="45.858427825527144" lon="10.872004601860937"><ele>64.0</ele><time>2026-04-06T09:46:07.001Z</time></trkpt><trkpt lat="45.85830264200175" lon="10.871845074471116"><ele>65.0</ele><time>2026-04-06T09:46:08.001Z</time></trkpt><trkpt lat="45.85818750748048" lon="10.871673447880516"><ele>66.0</ele><time>2026-04-06T09:46:09.001Z</time></trkpt><trkpt lat="45.85804468474188" lon="10.871557033540311"><ele>67.0</ele><time>2026-04-06T09:46:10.001Z</time></trkpt><trkpt lat="45.85789772153245" lon="10.871446422141885"><ele>67.0</ele><time>2026-04-06T09:46:11.001Z</time></trkpt><trkpt lat="45.85774586783828" lon="10.871338207501468"><ele>67.0</ele><time>2026-04-06T09:46:12.001Z</time></trkpt><trkpt lat="45.85759050897514" lon="10.871250719910996"><ele>67.0</ele><time>2026-04-06T09:46:13.001Z</time></trkpt><trkpt lat="45.857429618239195" lon="10.871143756525921"><ele>70.33333333333333</ele><time>2026-04-06T09:46:14.001Z</time></trkpt><trkpt lat="45.85728078082044" lon="10.871060595906629"><ele>73.66666666666667</ele><time>2026-04-06T09:46:15.001Z</time></trkpt><trkpt lat="45.857142061042936" lon="10.870970353126246"><ele>77.0</ele><time>2026-04-06T09:46:16.001Z</time></trkpt><trkpt lat="45.857011858980144" lon="10.87086523647497"><ele>77.0</ele><time>2026-04-06T09:46:17.001Z</time></trkpt><trkpt lat="45.85686561800826" lon="10.870713153141715"><ele>77.0</ele><time>2026-04-06T09:46:18.001Z</time></trkpt><trkpt lat="45.8567363768784" lon="10.87056778850421"><ele>77.0</ele><time>2026-04-06T09:46:19.001Z</time></trkpt><trkpt lat="45.85660859794253" lon="10.87042490200582"><ele>73.0</ele><time>2026-04-06T09:46:20.001Z</time></trkpt><trkpt lat="45.856485918719386" lon="10.870288016547784"><ele>69.0</ele><time>2026-04-06T09:46:21.001Z</time></trkpt><trkpt lat="45.85637474806802" lon="10.870164822397632"><ele>65.0</ele><time>2026-04-06T09:46:22Z</time></trkpt><trkpt lat="45.85624372219567" lon="10.870018115769573"><ele>65.0</ele><time>2026-04-06T09:46:23Z</time></trkpt><trkpt lat="45.8561140796026" lon="10.86987212133018"><ele>65.0</ele><time>2026-04-06T09:46:24Z</time></trkpt><trkpt lat="45.8559850785568" lon="10.869727164143814"><ele>65.0</ele><time>2026-04-06T09:46:25Z</time></trkpt><trkpt lat="45.855853661619136" lon="10.869580129038885"><ele>67.0</ele><time>2026-04-06T09:46:26Z</time></trkpt><trkpt lat="45.85571997444211" lon="10.86943605876037"><ele>69.0</ele><time>2026-04-06T09:46:27Z</time></trkpt><trkpt lat="45.855585758071015" lon="10.869293985077457"><ele>71.0</ele><time>2026-04-06T09:46:28Z</time></trkpt><trkpt lat="45.8554470236382" lon="10.869155750080417"><ele>71.0</ele><time>2026-04-06T09:46:29Z</time></trkpt><trkpt lat="45.855311123152845" lon="10.869021459748414"><ele>71.0</ele><time>2026-04-06T09:46:30Z</time></trkpt><trkpt lat="45.85517526970641" lon="10.86888618117789"><ele>71.0</ele><time>2026-04-06T09:46:31Z</time></trkpt><trkpt lat="45.85503997627996" lon="10.868751634512181"><ele>70.66666666666667</ele><time>2026-04-06T09:46:32Z</time></trkpt><trkpt lat="45.85490378006008" lon="10.868616190036683"><ele>70.33333333333333</ele><time>2026-04-06T09:46:33Z</time></trkpt><trkpt lat="45.85476693518724" lon="10.868480441455027"><ele>70.0</ele><time>2026-04-06T09:46:34Z</time></trkpt><trkpt lat="45.854627905516594" lon="10.868342986138076"><ele>70.0</ele><time>2026-04-06T09:46:35Z</time></trkpt><trkpt lat="45.854487717236374" lon="10.868204385332016"><ele>70.0</ele><time>2026-04-06T09:46:36Z</time></trkpt><trkpt lat="45.854345684167725" lon="10.8680639606278"><ele>70.0</ele><time>2026-04-06T09:46:37Z</time></trkpt><trkpt lat="45.85420309742922" lon="10.867924554702393"><ele>71.0</ele><time>2026-04-06T09:46:38Z</time></trkpt><trkpt lat="45.85406196935643" lon="10.867786117865469"><ele>72.0</ele><time>2026-04-06T09:46:39Z</time></trkpt><trkpt lat="45.85391842229876" lon="10.86764258864315"><ele>73.0</ele><time>2026-04-06T09:46:40Z</time></trkpt><trkpt lat="45.8537778172328" lon="10.867501578783163"><ele>73.0</ele><time>2026-04-06T09:46:41Z</time></trkpt><trkpt lat="45.85363391767399" lon="10.867360425228515"><ele>73.0</ele><time>2026-04-06T09:46:42Z</time></trkpt><trkpt lat="45.853494386871155" lon="10.86722114209243"><ele>73.0</ele><time>2026-04-06T09:46:43Z</time></trkpt><trkpt lat="45.85336310654055" lon="10.86708058805722"><ele>72.66666666666666</ele><time>2026-04-06T09:46:44Z</time></trkpt><trkpt lat="45.85323993236002" lon="10.866934140916484"><ele>72.33333333333333</ele><time>2026-04-06T09:46:45Z</time></trkpt><trkpt lat="45.853129586559206" lon="10.866770540644813"><ele>72.0</ele><time>2026-04-06T09:46:46Z</time></trkpt><trkpt lat="45.85302637347698" lon="10.866597998212386"><ele>72.0</ele><time>2026-04-06T09:46:47Z</time></trkpt><trkpt lat="45.85292893439254" lon="10.866412346406563"><ele>72.0</ele><time>2026-04-06T09:46:48Z</time></trkpt><trkpt lat="45.852834412487894" lon="10.866230654301104"><ele>72.0</ele><time>2026-04-06T09:46:49Z</time></trkpt><trkpt lat="45.852736976178726" lon="10.866043360060594"><ele>69.33333333333333</ele><time>2026-04-06T09:46:50Z</time></trkpt><trkpt lat="45.85263582969063" lon="10.865849035304407"><ele>66.66666666666666</ele><time>2026-04-06T09:46:51Z</time></trkpt><trkpt lat="45.852522988983964" lon="10.865674618930877"><ele>64.0</ele><time>2026-04-06T09:46:52Z</time></trkpt><trkpt lat="45.8524192490541" lon="10.865489486182208"><ele>65.66666666666666</ele><time>2026-04-06T09:46:53Z</time></trkpt><trkpt lat="45.85230901338143" lon="10.865308260023902"><ele>67.33333333333333</ele><time>2026-04-06T09:46:54Z</time></trkpt><trkpt lat="45.852192714592135" lon="10.865137255382804"><ele>69.0</ele><time>2026-04-06T09:46:55Z</time></trkpt><trkpt lat="45.852071088993966" lon="10.86496756187748"><ele>69.0</ele><time>2026-04-06T09:46:56Z</time></trkpt><trkpt lat="45.85194521339019" lon="10.864802954311203"><ele>69.0</ele><time>2026-04-06T09:46:57Z</time></trkpt><trkpt lat="45.851818435935094" lon="10.864646009120124"><ele>69.0</ele><time>2026-04-06T09:46:58Z</time></trkpt><trkpt lat="45.85168797628178" lon="10.864498845430205"><ele>71.33333333333333</ele><time>2026-04-06T09:46:59Z</time></trkpt><trkpt lat="45.8515602686538" lon="10.864343201162074"><ele>73.66666666666666</ele><time>2026-04-06T09:47:00Z</time></trkpt><trkpt lat="45.851424506472156" lon="10.864209529831145"><ele>76.0</ele><time>2026-04-06T09:47:01Z</time></trkpt><trkpt lat="45.85128903474969" lon="10.864076866854882"><ele>76.0</ele><time>2026-04-06T09:47:02Z</time></trkpt><trkpt lat="45.85115139680134" lon="10.86394209842104"><ele>76.0</ele><time>2026-04-06T09:47:03Z</time></trkpt><trkpt lat="45.85101484389359" lon="10.863808402032276"><ele>76.0</ele><time>2026-04-06T09:47:04Z</time></trkpt><trkpt lat="45.85087971327893" lon="10.863674024178465"><ele>73.0</ele><time>2026-04-06T09:47:05Z</time></trkpt><trkpt lat="45.850743555501055" lon="10.863536220316208"><ele>70.0</ele><time>2026-04-06T09:47:06Z</time></trkpt><trkpt lat="45.850606006574864" lon="10.86340994737549"><ele>67.0</ele><time>2026-04-06T09:47:07Z</time></trkpt><trkpt lat="45.850457454233386" lon="10.86329140386687"><ele>67.0</ele><time>2026-04-06T09:47:08Z</time></trkpt><trkpt lat="45.85030945681599" lon="10.86319238376179"><ele>67.0</ele><time>2026-04-06T09:47:09Z</time></trkpt><trkpt lat="45.85015556347684" lon="10.863131470460363"><ele>67.0</ele><time>2026-04-06T09:47:10Z</time></trkpt><trkpt lat="45.85000563749191" lon="10.863070620270475"><ele>75.0</ele><time>2026-04-06T09:47:11Z</time></trkpt><trkpt lat="45.84985603048697" lon="10.863036363544404"><ele>83.0</ele><time>2026-04-06T09:47:12Z</time></trkpt><trkpt lat="45.84970510318226" lon="10.863044665499052"><ele>91.0</ele><time>2026-04-06T09:47:13Z</time></trkpt><trkpt lat="45.84955835544793" lon="10.863097230473569"><ele>91.0</ele><time>2026-04-06T09:47:14Z</time></trkpt><trkpt lat="45.84940973005321" lon="10.863167365151547"><ele>91.0</ele><time>2026-04-06T09:47:15Z</time></trkpt><trkpt lat="45.84925533260275" lon="10.863238494467414"><ele>91.0</ele><time>2026-04-06T09:47:16Z</time></trkpt><trkpt lat="45.849095644858295" lon="10.863293885961257"><ele>95.66666666666666</ele><time>2026-04-06T09:47:17Z</time></trkpt><trkpt lat="45.848936078229876" lon="10.863348903139938"><ele>100.33333333333333</ele><time>2026-04-06T09:47:18Z</time></trkpt><trkpt lat="45.848768705082364" lon="10.863414850230303"><ele>105.0</ele><time>2026-04-06T09:47:19Z</time></trkpt><trkpt lat="45.8485947879401" lon="10.863479272392393"><ele>113.5</ele><time>2026-04-06T09:47:20.073Z</time></trkpt><trkpt lat="45.84843391006918" lon="10.863540154772563"><ele>122.0</ele><time>2026-04-06T09:47:21.063Z</time></trkpt><trkpt lat="45.848282149078564" lon="10.86359910211775"><ele>130.5</ele><time>2026-04-06T09:47:22Z</time></trkpt><trkpt lat="45.848206538505195" lon="10.863709837791864"><ele>139.0</ele><time>2026-04-06T09:47:23Z</time></trkpt><trkpt lat="45.84805341568786" lon="10.863744086166406"><ele>139.0</ele><time>2026-04-06T09:47:24Z</time></trkpt><trkpt lat="45.84789361018395" lon="10.863747281865672"><ele>139.0</ele><time>2026-04-06T09:47:25Z</time></trkpt><trkpt lat="45.84773855059986" lon="10.863691227833309"><ele>139.0</ele><time>2026-04-06T09:47:26Z</time></trkpt><trkpt lat="45.84757626738973" lon="10.863627785931888"><ele>129.33333333333334</ele><time>2026-04-06T09:47:27Z</time></trkpt><trkpt lat="45.84741867483591" lon="10.8635625276109"><ele>119.66666666666666</ele><time>2026-04-06T09:47:28Z</time></trkpt><trkpt lat="45.84726256598006" lon="10.863497397516783"><ele>110.0</ele><time>2026-04-06T09:47:29Z</time></trkpt><trkpt lat="45.847094741159694" lon="10.863427498609129"><ele>103.66666666666666</ele><time>2026-04-06T09:47:30Z</time></trkpt><trkpt lat="45.846935884425925" lon="10.863362464330969"><ele>97.33333333333333</ele><time>2026-04-06T09:47:31Z</time></trkpt><trkpt lat="45.84677419170396" lon="10.863296269027225"><ele>91.0</ele><time>2026-04-06T09:47:32Z</time></trkpt><trkpt lat="45.84660946925568" lon="10.86322953113195"><ele>91.0</ele><time>2026-04-06T09:47:33Z</time></trkpt><trkpt lat="45.8464596325398" lon="10.863173224168051"><ele>91.0</ele><time>2026-04-06T09:47:34Z</time></trkpt><trkpt lat="45.846324485602324" lon="10.86313398543324"><ele>91.0</ele><time>2026-04-06T09:47:35Z</time></trkpt><trkpt lat="45.846177716930015" lon="10.863135105489388"><ele>91.0</ele><time>2026-04-06T09:47:36Z</time></trkpt><trkpt lat="45.84603868120027" lon="10.863189156194531"><ele>92.19999999999999</ele><time>2026-04-06T09:47:37Z</time></trkpt><trkpt lat="45.845941696750195" lon="10.86319356839342"><ele>93.39999999999999</ele><time>2026-04-06T09:47:38Z</time></trkpt><trkpt lat="45.84586518872524" lon="10.863219709870535"><ele>94.6</ele><time>2026-04-06T09:47:39Z</time></trkpt><trkpt lat="45.845778095358455" lon="10.863270951783539"><ele>95.8</ele><time>2026-04-06T09:47:40Z</time></trkpt><trkpt lat="45.84565146681801" lon="10.86325328599769"><ele>97.0</ele><time>2026-04-06T09:47:41Z</time></trkpt><trkpt lat="45.84554485258552" lon="10.863266122307945"><ele>97.0</ele><time>2026-04-06T09:47:42Z</time></trkpt><trkpt lat="45.845437168419714" lon="10.863281948845026"><ele>97.0</ele><time>2026-04-06T09:47:43Z</time></trkpt><trkpt lat="45.84533395573387" lon="10.863304451105426"><ele>97.0</ele><time>2026-04-06T09:47:44Z</time></trkpt><trkpt lat="45.845009863957934" lon="10.8634569106544"><ele>104.0</ele><time>2026-04-06T09:47:45Z</time></trkpt><trkpt lat="45.84479803155793" lon="10.863526253413498"><ele>111.0</ele><time>2026-04-06T09:47:46Z</time></trkpt><trkpt lat="45.844642436122164" lon="10.86358611776614"><ele>118.0</ele><time>2026-04-06T09:47:47Z</time></trkpt><trkpt lat="45.84447963866964" lon="10.863611014279167"><ele>118.0</ele><time>2026-04-06T09:47:48Z</time></trkpt><trkpt lat="45.844343798294226" lon="10.86358035848384"><ele>118.0</ele><time>2026-04-06T09:47:49Z</time></trkpt><trkpt lat="45.84420316213117" lon="10.863521265805801"><ele>118.0</ele><time>2026-04-06T09:47:50Z</time></trkpt><trkpt lat="45.84408480211556" lon="10.863418470379294"><ele>118.0</ele><time>2026-04-06T09:47:51Z</time></trkpt><trkpt lat="45.843926944161886" lon="10.863307356300556"><ele>104.33333333333334</ele><time>2026-04-06T09:47:52Z</time></trkpt><trkpt lat="45.84378509617647" lon="10.863207511441104"><ele>90.66666666666667</ele><time>2026-04-06T09:47:53Z</time></trkpt><trkpt lat="45.8436398373683" lon="10.863108300283868"><ele>77.0</ele><time>2026-04-06T09:47:54Z</time></trkpt><trkpt lat="45.8434986542526" lon="10.863018558538718"><ele>81.75</ele><time>2026-04-06T09:47:55Z</time></trkpt><trkpt lat="45.84336179052808" lon="10.86293821319619"><ele>86.5</ele><time>2026-04-06T09:47:56Z</time></trkpt><trkpt lat="45.84322685052559" lon="10.862887906109158"><ele>91.25</ele><time>2026-04-06T09:47:57Z</time></trkpt><trkpt lat="45.84310175411157" lon="10.862822066216468"><ele>96.0</ele><time>2026-04-06T09:47:58Z</time></trkpt><trkpt lat="45.84297765037012" lon="10.862761546003801"><ele>96.0</ele><time>2026-04-06T09:47:59Z</time></trkpt><trkpt lat="45.84285447999546" lon="10.862705699400347"><ele>96.0</ele><time>2026-04-06T09:48:00Z</time></trkpt><trkpt lat="45.84272403479066" lon="10.862650422368882"><ele>96.0</ele><time>2026-04-06T09:48:01Z</time></trkpt><trkpt lat="45.842587015994944" lon="10.862576780261685"><ele>96.0</ele><time>2026-04-06T09:48:02Z</time></trkpt><trkpt lat="45.84246351888813" lon="10.862469042886202"><ele>90.66666666666667</ele><time>2026-04-06T09:48:03Z</time></trkpt><trkpt lat="45.84232288602898" lon="10.862361529036818"><ele>85.33333333333334</ele><time>2026-04-06T09:48:04Z</time></trkpt><trkpt lat="45.84216648013805" lon="10.862241813326637"><ele>80.0</ele><time>2026-04-06T09:48:05Z</time></trkpt><trkpt lat="45.8420042448672" lon="10.862120628463277"><ele>80.0</ele><time>2026-04-06T09:48:06Z</time></trkpt><trkpt lat="45.84183976563654" lon="10.861997775184445"><ele>80.0</ele><time>2026-04-06T09:48:07Z</time></trkpt><trkpt lat="45.84166933490279" lon="10.861871020679635"><ele>80.0</ele><time>2026-04-06T09:48:08.001Z</time></trkpt><trkpt lat="45.84149130026512" lon="10.861735025529077"><ele>80.33333333333334</ele><time>2026-04-06T09:48:09.001Z</time></trkpt><trkpt lat="45.841306270250065" lon="10.861594342329703"><ele>80.66666666666667</ele><time>2026-04-06T09:48:10.001Z</time></trkpt><trkpt lat="45.841129252918854" lon="10.861461330228643"><ele>81.0</ele><time>2026-04-06T09:48:11.001Z</time></trkpt><trkpt lat="45.84096899510455" lon="10.861340911784886"><ele>86.33333333333334</ele><time>2026-04-06T09:48:12.001Z</time></trkpt><trkpt lat="45.84082212868096" lon="10.86123029229369"><ele>91.66666666666667</ele><time>2026-04-06T09:48:13.001Z</time></trkpt><trkpt lat="45.84067797794248" lon="10.861143266105207"><ele>97.0</ele><time>2026-04-06T09:48:14.001Z</time></trkpt><trkpt lat="45.84053870818111" lon="10.86103574433829"><ele>97.0</ele><time>2026-04-06T09:48:15.001Z</time></trkpt><trkpt lat="45.840399154237424" lon="10.86095216883519"><ele>97.0</ele><time>2026-04-06T09:48:16.001Z</time></trkpt><trkpt lat="45.840252510145014" lon="10.860900415983643"><ele>97.0</ele><time>2026-04-06T09:48:17.001Z</time></trkpt><trkpt lat="45.84009312228791" lon="10.860871817733331"><ele>91.33333333333334</ele><time>2026-04-06T09:48:18.001Z</time></trkpt><trkpt lat="45.83991009213703" lon="10.860854344575928"><ele>85.66666666666667</ele><time>2026-04-06T09:48:19.001Z</time></trkpt><trkpt lat="45.8397723200415" lon="10.86083539084515"><ele>80.0</ele><time>2026-04-06T09:48:20.001Z</time></trkpt><trkpt lat="45.839612852095165" lon="10.86081585160619"><ele>80.0</ele><time>2026-04-06T09:48:21.001Z</time></trkpt><trkpt lat="45.83945277293289" lon="10.860792202595741"><ele>80.0</ele><time>2026-04-06T09:48:22.001Z</time></trkpt><trkpt lat="45.839292350755734" lon="10.860771793780254"><ele>80.0</ele><time>2026-04-06T09:48:23.001Z</time></trkpt><trkpt lat="45.83913124366209" lon="10.860751847977557"><ele>83.66666666666667</ele><time>2026-04-06T09:48:24.001Z</time></trkpt><trkpt lat="45.838969081278925" lon="10.860729514661333"><ele>87.33333333333333</ele><time>2026-04-06T09:48:25.001Z</time></trkpt><trkpt lat="45.838808892266" lon="10.860704390988408"><ele>91.0</ele><time>2026-04-06T09:48:26.001Z</time></trkpt><trkpt lat="45.8386482704939" lon="10.860675557007623"><ele>91.0</ele><time>2026-04-06T09:48:27.001Z</time></trkpt><trkpt lat="45.83848601883633" lon="10.860631842400618"><ele>91.0</ele><time>2026-04-06T09:48:28.001Z</time></trkpt><trkpt lat="45.83832142005627" lon="10.860567190822666"><ele>91.0</ele><time>2026-04-06T09:48:29.001Z</time></trkpt><trkpt lat="45.83816193992387" lon="10.86048246735359"><ele>93.0</ele><time>2026-04-06T09:48:30.001Z</time></trkpt><trkpt lat="45.838006272182426" lon="10.860384171201735"><ele>95.0</ele><time>2026-04-06T09:48:31Z</time></trkpt><trkpt lat="45.83784803027354" lon="10.860289464392496"><ele>97.0</ele><time>2026-04-06T09:48:32Z</time></trkpt><trkpt lat="45.83769067128759" lon="10.860188795107186"><ele>90.33333333333334</ele><time>2026-04-06T09:48:33Z</time></trkpt><trkpt lat="45.83753422554869" lon="10.860091953154196"><ele>83.66666666666667</ele><time>2026-04-06T09:48:34Z</time></trkpt><trkpt lat="45.8373761875179" lon="10.859995640318838"><ele>77.0</ele><time>2026-04-06T09:48:35Z</time></trkpt><trkpt lat="45.837222812132616" lon="10.859904198562022"><ele>77.0</ele><time>2026-04-06T09:48:36Z</time></trkpt><trkpt lat="45.837073861380915" lon="10.859811638841089"><ele>77.0</ele><time>2026-04-06T09:48:37Z</time></trkpt><trkpt lat="45.83693741371487" lon="10.85972343268362"><ele>77.0</ele><time>2026-04-06T09:48:38Z</time></trkpt><trkpt lat="45.83680468636708" lon="10.859639086016006"><ele>80.25</ele><time>2026-04-06T09:48:39Z</time></trkpt><trkpt lat="45.836679243555416" lon="10.859560787750448"><ele>83.5</ele><time>2026-04-06T09:48:40Z</time></trkpt><trkpt lat="45.83656731034777" lon="10.85949117117024"><ele>86.75</ele><time>2026-04-06T09:48:41Z</time></trkpt><trkpt lat="45.83643791753765" lon="10.859420617223439"><ele>90.0</ele><time>2026-04-06T09:48:42Z</time></trkpt><trkpt lat="45.83630705267944" lon="10.859361195155968"><ele>90.0</ele><time>2026-04-06T09:48:43Z</time></trkpt><trkpt lat="45.83616335185811" lon="10.859326090002872"><ele>90.0</ele><time>2026-04-06T09:48:44Z</time></trkpt><trkpt lat="45.83601594281986" lon="10.859323377863763"><ele>90.0</ele><time>2026-04-06T09:48:45Z</time></trkpt><trkpt lat="45.83586906384709" lon="10.85935662023316"><ele>90.0</ele><time>2026-04-06T09:48:46Z</time></trkpt><trkpt lat="45.83572741879461" lon="10.859400677888493"><ele>90.5</ele><time>2026-04-06T09:48:47Z</time></trkpt><trkpt lat="45.83558716666895" lon="10.859467094354075"><ele>91.0</ele><time>2026-04-06T09:48:48Z</time></trkpt><trkpt lat="45.83545513964056" lon="10.859543579454032"><ele>91.5</ele><time>2026-04-06T09:48:49Z</time></trkpt><trkpt lat="45.83531374956144" lon="10.859619638977502"><ele>92.0</ele><time>2026-04-06T09:48:50Z</time></trkpt><trkpt lat="45.835193791607665" lon="10.859705444515026"><ele>90.75</ele><time>2026-04-06T09:48:51Z</time></trkpt><trkpt lat="45.835064537899626" lon="10.859783490948427"><ele>89.5</ele><time>2026-04-06T09:48:52Z</time></trkpt><trkpt lat="45.8349407449528" lon="10.859858821326965"><ele>88.25</ele><time>2026-04-06T09:48:53Z</time></trkpt><trkpt lat="45.83481006505719" lon="10.859932333452742"><ele>87.0</ele><time>2026-04-06T09:48:54Z</time></trkpt><trkpt lat="45.83467984005994" lon="10.860008380582169"><ele>87.0</ele><time>2026-04-06T09:48:55Z</time></trkpt><trkpt lat="45.83454736576698" lon="10.86008751572637"><ele>87.0</ele><time>2026-04-06T09:48:56Z</time></trkpt><trkpt lat="45.834412926413854" lon="10.860167159585172"><ele>87.0</ele><time>2026-04-06T09:48:57Z</time></trkpt><trkpt lat="45.834278560374294" lon="10.860237611339478"><ele>87.0</ele><time>2026-04-06T09:48:58Z</time></trkpt><trkpt lat="45.83413891605113" lon="10.860286692530746"><ele>94.25</ele><time>2026-04-06T09:48:59Z</time></trkpt><trkpt lat="45.833999779173865" lon="10.860317235126526"><ele>101.5</ele><time>2026-04-06T09:49:00Z</time></trkpt><trkpt lat="45.83385756270322" lon="10.860317317718428"><ele>108.75</ele><time>2026-04-06T09:49:01Z</time></trkpt><trkpt lat="45.83372303786177" lon="10.860288815378375"><ele>116.0</ele><time>2026-04-06T09:49:02Z</time></trkpt><trkpt lat="45.83359384586138" lon="10.860213616441097"><ele>120.5</ele><time>2026-04-06T09:49:03Z</time></trkpt><trkpt lat="45.83345684801638" lon="10.860162747499846"><ele>125.0</ele><time>2026-04-06T09:49:04Z</time></trkpt><trkpt lat="45.83332318753434" lon="10.860072796808943"><ele>129.5</ele><time>2026-04-06T09:49:05Z</time></trkpt><trkpt lat="45.833186673095554" lon="10.859982585857933"><ele>134.0</ele><time>2026-04-06T09:49:06Z</time></trkpt><trkpt lat="45.83304706435861" lon="10.859901477717601"><ele>123.33333333333333</ele><time>2026-04-06T09:49:07Z</time></trkpt><trkpt lat="45.83290347247436" lon="10.859841858259317"><ele>112.66666666666666</ele><time>2026-04-06T09:49:08Z</time></trkpt><trkpt lat="45.8327506899706" lon="10.859805997725758"><ele>102.0</ele><time>2026-04-06T09:49:09Z</time></trkpt><trkpt lat="45.8326015177206" lon="10.85977473525053"><ele>102.0</ele><time>2026-04-06T09:49:10Z</time></trkpt><trkpt lat="45.83246392061065" lon="10.859740680261156"><ele>102.0</ele><time>2026-04-06T09:49:11Z</time></trkpt><trkpt lat="45.83232425871392" lon="10.85970652449168"><ele>102.0</ele><time>2026-04-06T09:49:12Z</time></trkpt><trkpt lat="45.832187879646696" lon="10.859673293859897"><ele>102.0</ele><time>2026-04-06T09:49:13Z</time></trkpt><trkpt lat="45.83204525906558" lon="10.859637690473642"><ele>102.0</ele><time>2026-04-06T09:49:14Z</time></trkpt><trkpt lat="45.83189896415859" lon="10.859585703792378"><ele>102.0</ele><time>2026-04-06T09:49:15Z</time></trkpt><trkpt lat="45.831763360073424" lon="10.859484450250811"><ele>102.0</ele><time>2026-04-06T09:49:16Z</time></trkpt><trkpt lat="45.83162650606099" lon="10.859390030908944"><ele>95.5</ele><time>2026-04-06T09:49:17Z</time></trkpt><trkpt lat="45.8314984993336" lon="10.859278392492172"><ele>89.0</ele><time>2026-04-06T09:49:18Z</time></trkpt><trkpt lat="45.831379652273355" lon="10.859155318614407"><ele>82.5</ele><time>2026-04-06T09:49:19Z</time></trkpt><trkpt lat="45.83126131918556" lon="10.859017024554143"><ele>76.0</ele><time>2026-04-06T09:49:20Z</time></trkpt><trkpt lat="45.83112552761404" lon="10.858909442312058"><ele>76.0</ele><time>2026-04-06T09:49:21Z</time></trkpt><trkpt lat="45.83098710477526" lon="10.858803056697049"><ele>76.0</ele><time>2026-04-06T09:49:22Z</time></trkpt><trkpt lat="45.83084256438958" lon="10.858711912196608"><ele>76.0</ele><time>2026-04-06T09:49:23Z</time></trkpt><trkpt lat="45.83068779586012" lon="10.858593828720393"><ele>75.33333333333333</ele><time>2026-04-06T09:49:24Z</time></trkpt><trkpt lat="45.83052388773641" lon="10.85849103000149"><ele>74.66666666666667</ele><time>2026-04-06T09:49:25Z</time></trkpt><trkpt lat="45.83035663475351" lon="10.858386133512859"><ele>74.0</ele><time>2026-04-06T09:49:26Z</time></trkpt><trkpt lat="45.83018287527032" lon="10.858279150841241"><ele>81.33333333333334</ele><time>2026-04-06T09:49:27Z</time></trkpt><trkpt lat="45.83000686224168" lon="10.858178055986766"><ele>88.66666666666667</ele><time>2026-04-06T09:49:28Z</time></trkpt><trkpt lat="45.82982280556394" lon="10.858072341581876"><ele>96.0</ele><time>2026-04-06T09:49:29Z</time></trkpt><trkpt lat="45.829631512022004" lon="10.857962470062105"><ele>96.0</ele><time>2026-04-06T09:49:30Z</time></trkpt><trkpt lat="45.829444452668916" lon="10.857855605205586"><ele>96.0</ele><time>2026-04-06T09:49:31Z</time></trkpt><trkpt lat="45.829264842223665" lon="10.857754520476632"><ele>96.0</ele><time>2026-04-06T09:49:32Z</time></trkpt><trkpt lat="45.82908331383763" lon="10.857677103942384"><ele>89.33333333333333</ele><time>2026-04-06T09:49:33Z</time></trkpt><trkpt lat="45.828913556651706" lon="10.85757690014652"><ele>82.66666666666666</ele><time>2026-04-06T09:49:34Z</time></trkpt><trkpt lat="45.82874511747268" lon="10.857484176851884"><ele>76.0</ele><time>2026-04-06T09:49:35Z</time></trkpt><trkpt lat="45.8285850157376" lon="10.857369986338071"><ele>83.0</ele><time>2026-04-06T09:49:36Z</time></trkpt><trkpt lat="45.82841536753065" lon="10.857305254286251"><ele>90.0</ele><time>2026-04-06T09:49:37Z</time></trkpt><trkpt lat="45.82825313624666" lon="10.857232875232906"><ele>97.0</ele><time>2026-04-06T09:49:38Z</time></trkpt><trkpt lat="45.82808932177368" lon="10.857178226699697"><ele>97.0</ele><time>2026-04-06T09:49:39Z</time></trkpt><trkpt lat="45.82792600613384" lon="10.857198524234306"><ele>97.0</ele><time>2026-04-06T09:49:40Z</time></trkpt><trkpt lat="45.82774915539707" lon="10.85722768853701"><ele>97.0</ele><time>2026-04-06T09:49:41Z</time></trkpt><trkpt lat="45.82758698797404" lon="10.857275301657188"><ele>100.0</ele><time>2026-04-06T09:49:42Z</time></trkpt><trkpt lat="45.82743049577937" lon="10.85735057845011"><ele>103.0</ele><time>2026-04-06T09:49:43Z</time></trkpt><trkpt lat="45.8272759420591" lon="10.857417548732094"><ele>106.0</ele><time>2026-04-06T09:49:44Z</time></trkpt><trkpt lat="45.827116545258114" lon="10.85747704091406"><ele>106.0</ele><time>2026-04-06T09:49:45Z</time></trkpt><trkpt lat="45.82695644409588" lon="10.857536496469898"><ele>106.0</ele><time>2026-04-06T09:49:46Z</time></trkpt><trkpt lat="45.826796683886315" lon="10.85759850248096"><ele>106.0</ele><time>2026-04-06T09:49:47Z</time></trkpt><trkpt lat="45.826681499281484" lon="10.857659523660423"><ele>119.33333333333334</ele><time>2026-04-06T09:49:48Z</time></trkpt><trkpt lat="45.82654250368911" lon="10.857655614354583"><ele>132.66666666666666</ele><time>2026-04-06T09:49:49Z</time></trkpt><trkpt lat="45.8263791437414" lon="10.85770340509669"><ele>146.0</ele><time>2026-04-06T09:49:50Z</time></trkpt><trkpt lat="45.826221249170516" lon="10.857698107526412"><ele>146.0</ele><time>2026-04-06T09:49:51Z</time></trkpt><trkpt lat="45.82607114266905" lon="10.857662876408023"><ele>146.0</ele><time>2026-04-06T09:49:52Z</time></trkpt><trkpt lat="45.825933963714185" lon="10.857671001419456"><ele>146.0</ele><time>2026-04-06T09:49:53Z</time></trkpt><trkpt lat="45.82579362734853" lon="10.857704159528252"><ele>146.0</ele><time>2026-04-06T09:49:54Z</time></trkpt><trkpt lat="45.825653115965366" lon="10.85772323306821"><ele>141.25</ele><time>2026-04-06T09:49:55Z</time></trkpt><trkpt lat="45.82551074412666" lon="10.857713213789635"><ele>136.5</ele><time>2026-04-06T09:49:56Z</time></trkpt><trkpt lat="45.82537023362566" lon="10.85773155105197"><ele>131.75</ele><time>2026-04-06T09:49:57Z</time></trkpt><trkpt lat="45.82521038636531" lon="10.857746773247541"><ele>127.0</ele><time>2026-04-06T09:49:58Z</time></trkpt><trkpt lat="45.825034514325445" lon="10.857748028439755"><ele>123.33333333333334</ele><time>2026-04-06T09:49:59Z</time></trkpt><trkpt lat="45.82487072222659" lon="10.857748891553232"><ele>119.66666666666666</ele><time>2026-04-06T09:50:00Z</time></trkpt><trkpt lat="45.82472307278193" lon="10.857743421418242"><ele>116.0</ele><time>2026-04-06T09:50:01Z</time></trkpt><trkpt lat="45.82457638885526" lon="10.85774831277665"><ele>116.0</ele><time>2026-04-06T09:50:02Z</time></trkpt><trkpt lat="45.824427263645845" lon="10.857716956114706"><ele>116.0</ele><time>2026-04-06T09:50:03Z</time></trkpt><trkpt lat="45.824274929362176" lon="10.857682929677232"><ele>116.0</ele><time>2026-04-06T09:50:04Z</time></trkpt><trkpt lat="45.82412584623877" lon="10.857633963169253"><ele>103.0</ele><time>2026-04-06T09:50:05Z</time></trkpt><trkpt lat="45.823976008133286" lon="10.857562543384295"><ele>90.0</ele><time>2026-04-06T09:50:06Z</time></trkpt><trkpt lat="45.823809435438534" lon="10.85752111423577"><ele>77.0</ele><time>2026-04-06T09:50:07Z</time></trkpt><trkpt lat="45.82361897374728" lon="10.85744421992327"><ele>80.33333333333334</ele><time>2026-04-06T09:50:08Z</time></trkpt><trkpt lat="45.82343497194869" lon="10.857389538675108"><ele>83.66666666666667</ele><time>2026-04-06T09:50:09Z</time></trkpt><trkpt lat="45.8232314256092" lon="10.857322847930067"><ele>87.0</ele><time>2026-04-06T09:50:10Z</time></trkpt><trkpt lat="45.82302992067556" lon="10.857256255991263"><ele>87.0</ele><time>2026-04-06T09:50:11Z</time></trkpt><trkpt lat="45.82283012419287" lon="10.8571901606431"><ele>87.0</ele><time>2026-04-06T09:50:12Z</time></trkpt><trkpt lat="45.8226334057966" lon="10.85712418875453"><ele>87.0</ele><time>2026-04-06T09:50:13Z</time></trkpt><trkpt lat="45.82243978668705" lon="10.857059245584269"><ele>92.33333333333334</ele><time>2026-04-06T09:50:14.001Z</time></trkpt><trkpt lat="45.82225368736502" lon="10.856996824681069"><ele>97.66666666666667</ele><time>2026-04-06T09:50:15.001Z</time></trkpt><trkpt lat="45.8220627118502" lon="10.856932768229157"><ele>103.0</ele><time>2026-04-06T09:50:16.001Z</time></trkpt><trkpt lat="45.82188285323623" lon="10.856872440534287"><ele>106.0</ele><time>2026-04-06T09:50:17.001Z</time></trkpt><trkpt lat="45.82170384818291" lon="10.856812399170469"><ele>109.0</ele><time>2026-04-06T09:50:18.001Z</time></trkpt><trkpt lat="45.82153066153822" lon="10.856754309372619"><ele>112.0</ele><time>2026-04-06T09:50:19.001Z</time></trkpt><trkpt lat="45.82135524435898" lon="10.856695471386585"><ele>104.66666666666667</ele><time>2026-04-06T09:50:20.001Z</time></trkpt><trkpt lat="45.82117635105015" lon="10.856635467518224"><ele>97.33333333333334</ele><time>2026-04-06T09:50:21.001Z</time></trkpt><trkpt lat="45.8209970281577" lon="10.856576173429042"><ele>90.0</ele><time>2026-04-06T09:50:22.001Z</time></trkpt><trkpt lat="45.820817968511705" lon="10.856517638278632"><ele>90.0</ele><time>2026-04-06T09:50:23.001Z</time></trkpt><trkpt lat="45.82064164302721" lon="10.856457961789477"><ele>90.0</ele><time>2026-04-06T09:50:24.001Z</time></trkpt><trkpt lat="45.82046880518415" lon="10.856387131144961"><ele>90.0</ele><time>2026-04-06T09:50:25.001Z</time></trkpt><trkpt lat="45.820300401259544" lon="10.856312094371724"><ele>94.66666666666666</ele><time>2026-04-06T09:50:26.001Z</time></trkpt><trkpt lat="45.82012813765788" lon="10.856233734687965"><ele>99.33333333333333</ele><time>2026-04-06T09:50:27.001Z</time></trkpt><trkpt lat="45.819962121118934" lon="10.856156464415829"><ele>104.0</ele><time>2026-04-06T09:50:28.001Z</time></trkpt><trkpt lat="45.81980106156208" lon="10.85608075496352"><ele>104.0</ele><time>2026-04-06T09:50:29.001Z</time></trkpt><trkpt lat="45.81963405449776" lon="10.856002249878518"><ele>104.0</ele><time>2026-04-06T09:50:30.001Z</time></trkpt><trkpt lat="45.8194545860502" lon="10.855917887044018"><ele>104.0</ele><time>2026-04-06T09:50:31.001Z</time></trkpt><trkpt lat="45.81929271426511" lon="10.855842343798516"><ele>95.66666666666666</ele><time>2026-04-06T09:50:32.001Z</time></trkpt><trkpt lat="45.819117038312235" lon="10.855766946408718"><ele>87.33333333333333</ele><time>2026-04-06T09:50:33.001Z</time></trkpt><trkpt lat="45.81894818994797" lon="10.855704173995123"><ele>79.0</ele><time>2026-04-06T09:50:34.001Z</time></trkpt><trkpt lat="45.818777757232944" lon="10.855647141660272"><ele>79.0</ele><time>2026-04-06T09:50:35.001Z</time></trkpt><trkpt lat="45.81860098779081" lon="10.855590073913307"><ele>79.0</ele><time>2026-04-06T09:50:36.001Z</time></trkpt><trkpt lat="45.81842613419016" lon="10.855533624678696"><ele>79.0</ele><time>2026-04-06T09:50:37.001Z</time></trkpt><trkpt lat="45.81825547593374" lon="10.855478529847849"><ele>86.0</ele><time>2026-04-06T09:50:38.001Z</time></trkpt><trkpt lat="45.818086310497996" lon="10.855423916948071"><ele>93.0</ele><time>2026-04-06T09:50:39.001Z</time></trkpt><trkpt lat="45.81791027833286" lon="10.855367087275225"><ele>100.0</ele><time>2026-04-06T09:50:40Z</time></trkpt><trkpt lat="45.81774712084622" lon="10.855316112333519"><ele>107.0</ele><time>2026-04-06T09:50:41Z</time></trkpt><trkpt lat="45.81757554253841" lon="10.855263551915485"><ele>114.0</ele><time>2026-04-06T09:50:42Z</time></trkpt><trkpt lat="45.817407070445775" lon="10.855211308806371"><ele>121.0</ele><time>2026-04-06T09:50:43Z</time></trkpt><trkpt lat="45.817238265714565" lon="10.855157495985045"><ele>113.0</ele><time>2026-04-06T09:50:44Z</time></trkpt><trkpt lat="45.81706719460205" lon="10.855101813321939"><ele>105.0</ele><time>2026-04-06T09:50:45Z</time></trkpt><trkpt lat="45.81688320101106" lon="10.855019188843025"><ele>97.0</ele><time>2026-04-06T09:50:46Z</time></trkpt><trkpt lat="45.816719829298584" lon="10.854909324636333"><ele>97.0</ele><time>2026-04-06T09:50:47Z</time></trkpt><trkpt lat="45.81656887389563" lon="10.854792135772172"><ele>97.0</ele><time>2026-04-06T09:50:48Z</time></trkpt><trkpt lat="45.81642061918125" lon="10.854681553913515"><ele>97.0</ele><time>2026-04-06T09:50:49Z</time></trkpt><trkpt lat="45.81627648874068" lon="10.854575138782309"><ele>97.0</ele><time>2026-04-06T09:50:50Z</time></trkpt><trkpt lat="45.81612630338341" lon="10.854461830839272"><ele>97.0</ele><time>2026-04-06T09:50:51Z</time></trkpt><trkpt lat="45.815960987795506" lon="10.854336624791019"><ele>97.0</ele><time>2026-04-06T09:50:52Z</time></trkpt><trkpt lat="45.815833641376784" lon="10.854214024052911"><ele>90.33333333333334</ele><time>2026-04-06T09:50:53Z</time></trkpt><trkpt lat="45.81568090085242" lon="10.854122890240589"><ele>83.66666666666667</ele><time>2026-04-06T09:50:54Z</time></trkpt><trkpt lat="45.8155249173701" lon="10.854003859101734"><ele>77.0</ele><time>2026-04-06T09:50:55Z</time></trkpt><trkpt lat="45.81537298751318" lon="10.853889681434662"><ele>77.0</ele><time>2026-04-06T09:50:56Z</time></trkpt><trkpt lat="45.8152109269063" lon="10.853779637160821"><ele>77.0</ele><time>2026-04-06T09:50:57Z</time></trkpt><trkpt lat="45.81505821234246" lon="10.853686955036203"><ele>77.0</ele><time>2026-04-06T09:50:58Z</time></trkpt><trkpt lat="45.81489023527457" lon="10.85362310056154"><ele>74.33333333333334</ele><time>2026-04-06T09:50:59Z</time></trkpt><trkpt lat="45.81472104437361" lon="10.853563056108051"><ele>71.66666666666667</ele><time>2026-04-06T09:51:00Z</time></trkpt><trkpt lat="45.81455345463066" lon="10.853516978384933"><ele>69.0</ele><time>2026-04-06T09:51:01Z</time></trkpt><trkpt lat="45.8143841030614" lon="10.85344411806667"><ele>79.66666666666666</ele><time>2026-04-06T09:51:02Z</time></trkpt><trkpt lat="45.814212303189116" lon="10.85341411055773"><ele>90.33333333333333</ele><time>2026-04-06T09:51:03Z</time></trkpt><trkpt lat="45.814045717036244" lon="10.853349195917858"><ele>101.0</ele><time>2026-04-06T09:51:04Z</time></trkpt><trkpt lat="45.81387675439983" lon="10.853293036551467"><ele>101.0</ele><time>2026-04-06T09:51:05Z</time></trkpt><trkpt lat="45.813709291928895" lon="10.853240256623389"><ele>101.0</ele><time>2026-04-06T09:51:06Z</time></trkpt><trkpt lat="45.81354239364342" lon="10.85319275220392"><ele>101.0</ele><time>2026-04-06T09:51:07Z</time></trkpt><trkpt lat="45.8133718350405" lon="10.853136686284182"><ele>116.33333333333333</ele><time>2026-04-06T09:51:08Z</time></trkpt><trkpt lat="45.81319621017395" lon="10.853080032874145"><ele>131.66666666666666</ele><time>2026-04-06T09:51:09.05Z</time></trkpt><trkpt lat="45.81303078588398" lon="10.853027248033387"><ele>147.0</ele><time>2026-04-06T09:51:10.05Z</time></trkpt><trkpt lat="45.81286530880935" lon="10.852974951741713"><ele>147.0</ele><time>2026-04-06T09:51:11.049Z</time></trkpt><trkpt lat="45.812695898149734" lon="10.852916677053122"><ele>147.0</ele><time>2026-04-06T09:51:12.05Z</time></trkpt><trkpt lat="45.811683495736794" lon="10.852574105041215"><ele>121.66666666666667</ele><time>2026-04-06T09:51:18Z</time></trkpt><trkpt lat="45.811531683719586" lon="10.852502685386376"><ele>96.33333333333334</ele><time>2026-04-06T09:51:19Z</time></trkpt><trkpt lat="45.811365786221884" lon="10.852435223747998"><ele>71.0</ele><time>2026-04-06T09:51:20Z</time></trkpt><trkpt lat="45.811194104356595" lon="10.85237670982129"><ele>71.0</ele><time>2026-04-06T09:51:21Z</time></trkpt><trkpt lat="45.811023464144085" lon="10.852303483578968"><ele>71.0</ele><time>2026-04-06T09:51:22Z</time></trkpt><trkpt lat="45.810830799178945" lon="10.852247390817892"><ele>71.0</ele><time>2026-04-06T09:51:23Z</time></trkpt><trkpt lat="45.81066028173267" lon="10.852185253144416"><ele>76.0</ele><time>2026-04-06T09:51:24Z</time></trkpt><trkpt lat="45.81049060919327" lon="10.852123198198546"><ele>81.0</ele><time>2026-04-06T09:51:25Z</time></trkpt><trkpt lat="45.81032222442939" lon="10.852057022266383"><ele>86.0</ele><time>2026-04-06T09:51:26Z</time></trkpt><trkpt lat="45.810159125681224" lon="10.851957748085653"><ele>82.66666666666667</ele><time>2026-04-06T09:51:27Z</time></trkpt><trkpt lat="45.80999953273345" lon="10.85185377418667"><ele>79.33333333333333</ele><time>2026-04-06T09:51:28Z</time></trkpt><trkpt lat="45.809835996402086" lon="10.851754038898383"><ele>76.0</ele><time>2026-04-06T09:51:29Z</time></trkpt><trkpt lat="45.80970807638959" lon="10.851577076385471"><ele>76.0</ele><time>2026-04-06T09:51:30Z</time></trkpt><trkpt lat="45.80957483270493" lon="10.851412196673923"><ele>76.0</ele><time>2026-04-06T09:51:31Z</time></trkpt><trkpt lat="45.809443881841716" lon="10.85124689417522"><ele>76.0</ele><time>2026-04-06T09:51:32Z</time></trkpt><trkpt lat="45.809349571148964" lon="10.851034543761655"><ele>77.33333333333333</ele><time>2026-04-06T09:51:33Z</time></trkpt><trkpt lat="45.80926459698804" lon="10.850826346240613"><ele>78.66666666666667</ele><time>2026-04-06T09:51:34Z</time></trkpt><trkpt lat="45.80919025759222" lon="10.850604292829669"><ele>80.0</ele><time>2026-04-06T09:51:35Z</time></trkpt><trkpt lat="45.80911984201371" lon="10.850377814745734"><ele>80.0</ele><time>2026-04-06T09:51:36Z</time></trkpt><trkpt lat="45.80905121973243" lon="10.850153343257885"><ele>80.0</ele><time>2026-04-06T09:51:37Z</time></trkpt><trkpt lat="45.808980792115165" lon="10.849923191752476"><ele>80.0</ele><time>2026-04-06T09:51:38Z</time></trkpt><trkpt lat="45.808911558602134" lon="10.849699181769163"><ele>78.66666666666667</ele><time>2026-04-06T09:51:39Z</time></trkpt><trkpt lat="45.80884122741579" lon="10.849476285255552"><ele>77.33333333333333</ele><time>2026-04-06T09:51:40Z</time></trkpt><trkpt lat="45.808767697169706" lon="10.849251054944558"><ele>76.0</ele><time>2026-04-06T09:51:41Z</time></trkpt><trkpt lat="45.808688025307724" lon="10.849030358830008"><ele>73.0</ele><time>2026-04-06T09:51:42Z</time></trkpt><trkpt lat="45.8085904857818" lon="10.84882388023428"><ele>70.0</ele><time>2026-04-06T09:51:43Z</time></trkpt><trkpt lat="45.80848515669879" lon="10.848647214788864"><ele>67.0</ele><time>2026-04-06T09:51:44Z</time></trkpt><trkpt lat="45.80836195887915" lon="10.848500968953859"><ele>70.0</ele><time>2026-04-06T09:51:45Z</time></trkpt><trkpt lat="45.808233473096905" lon="10.848359108956446"><ele>73.0</ele><time>2026-04-06T09:51:46Z</time></trkpt><trkpt lat="45.808106109686975" lon="10.84821562667085"><ele>76.0</ele><time>2026-04-06T09:51:47Z</time></trkpt><trkpt lat="45.80796264242369" lon="10.848093136599879"><ele>76.0</ele><time>2026-04-06T09:51:48Z</time></trkpt><trkpt lat="45.8078156149904" lon="10.847972395940108"><ele>76.0</ele><time>2026-04-06T09:51:49Z</time></trkpt><trkpt lat="45.80766842859543" lon="10.84785511397549"><ele>76.0</ele><time>2026-04-06T09:51:50Z</time></trkpt><trkpt lat="45.80752111013927" lon="10.847737143837165"><ele>75.33333333333333</ele><time>2026-04-06T09:51:51Z</time></trkpt><trkpt lat="45.80737560665579" lon="10.84762062725429"><ele>74.66666666666667</ele><time>2026-04-06T09:51:52Z</time></trkpt><trkpt lat="45.80722836913018" lon="10.84750226008079"><ele>74.0</ele><time>2026-04-06T09:51:53Z</time></trkpt><trkpt lat="45.807083574613344" lon="10.847386694523474"><ele>74.0</ele><time>2026-04-06T09:51:54Z</time></trkpt><trkpt lat="45.80693725460017" lon="10.847270309564019"><ele>74.0</ele><time>2026-04-06T09:51:55Z</time></trkpt><trkpt lat="45.80678369430495" lon="10.847174128617752"><ele>74.0</ele><time>2026-04-06T09:51:56Z</time></trkpt><trkpt lat="45.8066387990108" lon="10.847055611032937"><ele>72.33333333333334</ele><time>2026-04-06T09:51:57Z</time></trkpt><trkpt lat="45.80649529062566" lon="10.846938836274937"><ele>70.66666666666667</ele><time>2026-04-06T09:51:58Z</time></trkpt><trkpt lat="45.80634907628483" lon="10.846817300064505"><ele>69.0</ele><time>2026-04-06T09:51:59Z</time></trkpt><trkpt lat="45.806208268001676" lon="10.846694765698405"><ele>69.0</ele><time>2026-04-06T09:52:00Z</time></trkpt><trkpt lat="45.80608248312459" lon="10.846537751940781"><ele>69.0</ele><time>2026-04-06T09:52:01Z</time></trkpt><trkpt lat="45.80594991155032" lon="10.846392528745051"><ele>69.0</ele><time>2026-04-06T09:52:02Z</time></trkpt><trkpt lat="45.80582040847257" lon="10.846240823687323"><ele>68.66666666666667</ele><time>2026-04-06T09:52:03Z</time></trkpt><trkpt lat="45.805682402997824" lon="10.846095879922197"><ele>68.33333333333334</ele><time>2026-04-06T09:52:04Z</time></trkpt><trkpt lat="45.805559617084725" lon="10.845926791876803"><ele>68.0</ele><time>2026-04-06T09:52:05Z</time></trkpt><trkpt lat="45.8054438824198" lon="10.845742750620582"><ele>68.0</ele><time>2026-04-06T09:52:06Z</time></trkpt><trkpt lat="45.805335305152894" lon="10.84554790900423"><ele>68.0</ele><time>2026-04-06T09:52:07Z</time></trkpt><trkpt lat="45.805238590788456" lon="10.845340346248047"><ele>68.0</ele><time>2026-04-06T09:52:08Z</time></trkpt><trkpt lat="45.805145539822924" lon="10.84512497927143"><ele>70.66666666666667</ele><time>2026-04-06T09:52:09Z</time></trkpt><trkpt lat="45.80505151842954" lon="10.844913763686192"><ele>73.33333333333333</ele><time>2026-04-06T09:52:10Z</time></trkpt><trkpt lat="45.80495365247659" lon="10.844706451522907"><ele>76.0</ele><time>2026-04-06T09:52:11Z</time></trkpt><trkpt lat="45.80485714600789" lon="10.84449643145961"><ele>72.33333333333333</ele><time>2026-04-06T09:52:12Z</time></trkpt><trkpt lat="45.804760528488494" lon="10.844284562208257"><ele>68.66666666666667</ele><time>2026-04-06T09:52:13Z</time></trkpt><trkpt lat="45.804663687591564" lon="10.844075781659951"><ele>65.0</ele><time>2026-04-06T09:52:14Z</time></trkpt><trkpt lat="45.80456546921284" lon="10.843869350924438"><ele>65.0</ele><time>2026-04-06T09:52:15Z</time></trkpt><trkpt lat="45.80446393073355" lon="10.84366781130752"><ele>65.0</ele><time>2026-04-06T09:52:16Z</time></trkpt><trkpt lat="45.804361799892156" lon="10.843471649365961"><ele>65.0</ele><time>2026-04-06T09:52:17Z</time></trkpt><trkpt lat="45.80425597459059" lon="10.84327808450974"><ele>69.33333333333334</ele><time>2026-04-06T09:52:18Z</time></trkpt><trkpt lat="45.8041522964259" lon="10.843085716096668"><ele>73.66666666666667</ele><time>2026-04-06T09:52:19Z</time></trkpt><trkpt lat="45.8040470151328" lon="10.842895934056532"><ele>78.0</ele><time>2026-04-06T09:52:20.001Z</time></trkpt><trkpt lat="45.80393711035778" lon="10.84271477306933"><ele>75.0</ele><time>2026-04-06T09:52:21.001Z</time></trkpt><trkpt lat="45.80382550030879" lon="10.842531736512848"><ele>72.0</ele><time>2026-04-06T09:52:22.001Z</time></trkpt><trkpt lat="45.80371648349039" lon="10.842352036710876"><ele>69.0</ele><time>2026-04-06T09:52:23.001Z</time></trkpt><trkpt lat="45.80360426540241" lon="10.842175795012265"><ele>69.33333333333333</ele><time>2026-04-06T09:52:24.001Z</time></trkpt><trkpt lat="45.80348942450555" lon="10.842003726177193"><ele>69.66666666666666</ele><time>2026-04-06T09:52:25.001Z</time></trkpt><trkpt lat="45.80337129112044" lon="10.841834539045514"><ele>70.0</ele><time>2026-04-06T09:52:26.001Z</time></trkpt><trkpt lat="45.803254435103305" lon="10.841666257744242"><ele>70.0</ele><time>2026-04-06T09:52:27.001Z</time></trkpt><trkpt lat="45.80313553795006" lon="10.841501127608007"><ele>70.0</ele><time>2026-04-06T09:52:28.001Z</time></trkpt><trkpt lat="45.803013590459464" lon="10.841339114232122"><ele>70.0</ele><time>2026-04-06T09:52:29.001Z</time></trkpt><trkpt lat="45.802890186607094" lon="10.841180210634226"><ele>70.0</ele><time>2026-04-06T09:52:30.001Z</time></trkpt><trkpt lat="45.802765164945065" lon="10.841025333842705"><ele>70.0</ele><time>2026-04-06T09:52:31.001Z</time></trkpt><trkpt lat="45.80263585579951" lon="10.840873572059847"><ele>70.0</ele><time>2026-04-06T09:52:32.001Z</time></trkpt><trkpt lat="45.802507863431586" lon="10.840725385736988"><ele>71.66666666666666</ele><time>2026-04-06T09:52:33.001Z</time></trkpt><trkpt lat="45.80237892841463" lon="10.840576761029041"><ele>73.33333333333333</ele><time>2026-04-06T09:52:34.001Z</time></trkpt><trkpt lat="45.80224617740351" lon="10.840431534009914"><ele>75.0</ele><time>2026-04-06T09:52:35.001Z</time></trkpt><trkpt lat="45.80212374044126" lon="10.840269887335234"><ele>75.0</ele><time>2026-04-06T09:52:36.001Z</time></trkpt><trkpt lat="45.80198412055715" lon="10.84014094622869"><ele>75.0</ele><time>2026-04-06T09:52:37.001Z</time></trkpt><trkpt lat="45.801871435059816" lon="10.839971043836202"><ele>75.0</ele><time>2026-04-06T09:52:38.001Z</time></trkpt><trkpt lat="45.801763916322635" lon="10.839819495816972"><ele>76.2</ele><time>2026-04-06T09:52:39.001Z</time></trkpt><trkpt lat="45.80167890757833" lon="10.839680564880036"><ele>77.4</ele><time>2026-04-06T09:52:40.001Z</time></trkpt><trkpt lat="45.801615218473536" lon="10.839572542891316"><ele>78.6</ele><time>2026-04-06T09:52:41.001Z</time></trkpt><trkpt lat="45.80156604062944" lon="10.839482851326247"><ele>79.8</ele><time>2026-04-06T09:52:42.001Z</time></trkpt><trkpt lat="45.801520598390574" lon="10.839392015388935"><ele>81.0</ele><time>2026-04-06T09:52:44Z</time></trkpt><trkpt lat="45.80145720914538" lon="10.839254622880663"><ele>78.0</ele><time>2026-04-06T09:52:46Z</time></trkpt><trkpt lat="45.80139544582242" lon="10.839122580571523"><ele>75.0</ele><time>2026-04-06T09:52:47Z</time></trkpt><trkpt lat="45.80132769499561" lon="10.838978279711156"><ele>72.0</ele><time>2026-04-06T09:52:48Z</time></trkpt><trkpt lat="45.80125154503062" lon="10.838816089726318"><ele>69.0</ele><time>2026-04-06T09:52:49Z</time></trkpt><trkpt lat="45.8011687082476" lon="10.838643914832744"><ele>67.0</ele><time>2026-04-06T09:52:50Z</time></trkpt><trkpt lat="45.80108211125092" lon="10.83846590394662"><ele>65.0</ele><time>2026-04-06T09:52:51Z</time></trkpt><trkpt lat="45.80099204212487" lon="10.838287752007494"><ele>63.0</ele><time>2026-04-06T09:52:52Z</time></trkpt><trkpt lat="45.80088724755446" lon="10.838119770691943"><ele>67.0</ele><time>2026-04-06T09:52:53Z</time></trkpt><trkpt lat="45.80077410566225" lon="10.837973829646543"><ele>71.0</ele><time>2026-04-06T09:52:54Z</time></trkpt><trkpt lat="45.80065070842061" lon="10.837834140181862"><ele>75.0</ele><time>2026-04-06T09:52:55Z</time></trkpt><trkpt lat="45.8005175081277" lon="10.837727523814676"><ele>72.33333333333333</ele><time>2026-04-06T09:52:56Z</time></trkpt><trkpt lat="45.80038850855503" lon="10.837616895377609"><ele>69.66666666666666</ele><time>2026-04-06T09:52:57Z</time></trkpt><trkpt lat="45.80025107764736" lon="10.837526320675874"><ele>67.0</ele><time>2026-04-06T09:52:58Z</time></trkpt><trkpt lat="45.800107566236555" lon="10.837458603655746"><ele>67.0</ele><time>2026-04-06T09:52:59Z</time></trkpt><trkpt lat="45.799966079000924" lon="10.8374101691862"><ele>67.0</ele><time>2026-04-06T09:53:00Z</time></trkpt><trkpt lat="45.79982359496308" lon="10.837366519026276"><ele>67.0</ele><time>2026-04-06T09:53:01Z</time></trkpt><trkpt lat="45.799701228792976" lon="10.837336619212248"><ele>67.0</ele><time>2026-04-06T09:53:02Z</time></trkpt><trkpt lat="45.799544717648295" lon="10.837333682796464"><ele>67.0</ele><time>2026-04-06T09:53:03Z</time></trkpt><trkpt lat="45.799407016528505" lon="10.837348803391388"><ele>67.0</ele><time>2026-04-06T09:53:04Z</time></trkpt><trkpt lat="45.79927401111271" lon="10.83739088493084"><ele>67.0</ele><time>2026-04-06T09:53:05Z</time></trkpt><trkpt lat="45.79913542917713" lon="10.83743113065556"><ele>67.0</ele><time>2026-04-06T09:53:06Z</time></trkpt><trkpt lat="45.798994522739356" lon="10.837462475519596"><ele>67.25</ele><time>2026-04-06T09:53:07Z</time></trkpt><trkpt lat="45.79885115320277" lon="10.837491120420877"><ele>67.5</ele><time>2026-04-06T09:53:08Z</time></trkpt><trkpt lat="45.79870691118257" lon="10.837520643871155"><ele>67.75</ele><time>2026-04-06T09:53:09Z</time></trkpt><trkpt lat="45.79856408641123" lon="10.837554906546254"><ele>68.0</ele><time>2026-04-06T09:53:10Z</time></trkpt><trkpt lat="45.798420649018105" lon="10.8375891715688"><ele>68.0</ele><time>2026-04-06T09:53:11Z</time></trkpt><trkpt lat="45.79827688781651" lon="10.837614329006435"><ele>68.0</ele><time>2026-04-06T09:53:12Z</time></trkpt><trkpt lat="45.79812929116756" lon="10.837630751684767"><ele>68.0</ele><time>2026-04-06T09:53:13Z</time></trkpt><trkpt lat="45.7979797990287" lon="10.837624652771105"><ele>68.0</ele><time>2026-04-06T09:53:14Z</time></trkpt><trkpt lat="45.797828861044366" lon="10.837597667012817"><ele>68.0</ele><time>2026-04-06T09:53:15Z</time></trkpt><trkpt lat="45.797679374252375" lon="10.837555207011848"><ele>68.0</ele><time>2026-04-06T09:53:16Z</time></trkpt><trkpt lat="45.7975369148036" lon="10.837468602707474"><ele>68.0</ele><time>2026-04-06T09:53:17Z</time></trkpt><trkpt lat="45.79739619644494" lon="10.837383427721262"><ele>71.66666666666667</ele><time>2026-04-06T09:53:18Z</time></trkpt><trkpt lat="45.79725024544686" lon="10.83730588065361"><ele>75.33333333333333</ele><time>2026-04-06T09:53:19Z</time></trkpt><trkpt lat="45.79712212911008" lon="10.83718258385674"><ele>79.0</ele><time>2026-04-06T09:53:20Z</time></trkpt><trkpt lat="45.79699546073458" lon="10.837049027875045"><ele>79.0</ele><time>2026-04-06T09:53:21Z</time></trkpt><trkpt lat="45.796867138940854" lon="10.836906424918851"><ele>79.0</ele><time>2026-04-06T09:53:22Z</time></trkpt><trkpt lat="45.7967329425406" lon="10.836766992919848"><ele>79.0</ele><time>2026-04-06T09:53:23Z</time></trkpt><trkpt lat="45.79659645914383" lon="10.836628156241215"><ele>78.0</ele><time>2026-04-06T09:53:24Z</time></trkpt><trkpt lat="45.79646005497291" lon="10.836486904189037"><ele>77.0</ele><time>2026-04-06T09:53:25Z</time></trkpt><trkpt lat="45.796330964903746" lon="10.836342602358691"><ele>76.0</ele><time>2026-04-06T09:53:26Z</time></trkpt><trkpt lat="45.796195251255" lon="10.836209941897504"><ele>76.0</ele><time>2026-04-06T09:53:27Z</time></trkpt><trkpt lat="45.79606259707762" lon="10.836072570919333"><ele>76.0</ele><time>2026-04-06T09:53:28Z</time></trkpt><trkpt lat="45.795941805413165" lon="10.835912490754389"><ele>76.0</ele><time>2026-04-06T09:53:29Z</time></trkpt><trkpt lat="45.79580805461927" lon="10.835769046783282"><ele>75.33333333333333</ele><time>2026-04-06T09:53:30Z</time></trkpt><trkpt lat="45.79566369595615" lon="10.835615773927682"><ele>74.66666666666667</ele><time>2026-04-06T09:53:31Z</time></trkpt><trkpt lat="45.79551353145231" lon="10.835456277456037"><ele>74.0</ele><time>2026-04-06T09:53:32Z</time></trkpt><trkpt lat="45.79536367963454" lon="10.835296726630173"><ele>74.0</ele><time>2026-04-06T09:53:33Z</time></trkpt><trkpt lat="45.79521254775268" lon="10.835139131095026"><ele>74.0</ele><time>2026-04-06T09:53:34Z</time></trkpt><trkpt lat="45.79506209821248" lon="10.834982246764426"><ele>74.0</ele><time>2026-04-06T09:53:35Z</time></trkpt><trkpt lat="45.794903949271415" lon="10.834840199816087"><ele>74.66666666666667</ele><time>2026-04-06T09:53:36Z</time></trkpt><trkpt lat="45.79475565405445" lon="10.834679919232265"><ele>75.33333333333333</ele><time>2026-04-06T09:53:37Z</time></trkpt><trkpt lat="45.79460482098583" lon="10.834524555824734"><ele>76.0</ele><time>2026-04-06T09:53:38Z</time></trkpt><trkpt lat="45.794453242404906" lon="10.834375778516778"><ele>78.33333333333333</ele><time>2026-04-06T09:53:39Z</time></trkpt><trkpt lat="45.794301670286856" lon="10.834223590186179"><ele>80.66666666666667</ele><time>2026-04-06T09:53:40Z</time></trkpt><trkpt lat="45.794156670684615" lon="10.834070132424287"><ele>83.0</ele><time>2026-04-06T09:53:41Z</time></trkpt><trkpt lat="45.794010661557195" lon="10.833918112616278"><ele>83.0</ele><time>2026-04-06T09:53:42Z</time></trkpt><trkpt lat="45.79386501693388" lon="10.833766922627433"><ele>83.0</ele><time>2026-04-06T09:53:43Z</time></trkpt><trkpt lat="45.79373462947378" lon="10.833598880361494"><ele>83.0</ele><time>2026-04-06T09:53:44Z</time></trkpt><trkpt lat="45.793596080361695" lon="10.833444533975715"><ele>84.33333333333334</ele><time>2026-04-06T09:53:45Z</time></trkpt><trkpt lat="45.79346121511939" lon="10.833286738528631"><ele>85.66666666666667</ele><time>2026-04-06T09:53:46Z</time></trkpt><trkpt lat="45.793318183734634" lon="10.833142530669292"><ele>87.0</ele><time>2026-04-06T09:53:47Z</time></trkpt><trkpt lat="45.79319978189814" lon="10.83296004151002"><ele>87.0</ele><time>2026-04-06T09:53:48Z</time></trkpt><trkpt lat="45.79306552649353" lon="10.83280759864261"><ele>87.0</ele><time>2026-04-06T09:53:49Z</time></trkpt><trkpt lat="45.79293922023237" lon="10.832640878213022"><ele>87.0</ele><time>2026-04-06T09:53:50Z</time></trkpt><trkpt lat="45.792827304896676" lon="10.832456355309775"><ele>93.0</ele><time>2026-04-06T09:53:51Z</time></trkpt><trkpt lat="45.79271009198063" lon="10.83228446028195"><ele>99.0</ele><time>2026-04-06T09:53:52Z</time></trkpt><trkpt lat="45.79259578917113" lon="10.83210505947381"><ele>105.0</ele><time>2026-04-06T09:53:53Z</time></trkpt><trkpt lat="45.79248574324968" lon="10.831922733017452"><ele>95.0</ele><time>2026-04-06T09:53:54Z</time></trkpt><trkpt lat="45.79237779435942" lon="10.831732435761051"><ele>85.0</ele><time>2026-04-06T09:53:55Z</time></trkpt><trkpt lat="45.792276779781425" lon="10.831545962738026"><ele>75.0</ele><time>2026-04-06T09:53:56Z</time></trkpt><trkpt lat="45.79217898967597" lon="10.831353921787464"><ele>75.0</ele><time>2026-04-06T09:53:57Z</time></trkpt><trkpt lat="45.792084251674105" lon="10.831164575039947"><ele>75.0</ele><time>2026-04-06T09:53:58Z</time></trkpt><trkpt lat="45.79199328229861" lon="10.830979135835802"><ele>75.0</ele><time>2026-04-06T09:53:59Z</time></trkpt><trkpt lat="45.79190588212842" lon="10.830791318770238"><ele>81.0</ele><time>2026-04-06T09:54:00Z</time></trkpt><trkpt lat="45.79182462530137" lon="10.830608146255837"><ele>87.0</ele><time>2026-04-06T09:54:01Z</time></trkpt><trkpt lat="45.79173752461252" lon="10.830405301328364"><ele>93.0</ele><time>2026-04-06T09:54:02Z</time></trkpt><trkpt lat="45.791653529302" lon="10.830209688319826"><ele>86.33333333333333</ele><time>2026-04-06T09:54:03Z</time></trkpt><trkpt lat="45.791570372842216" lon="10.830015465921036"><ele>79.66666666666666</ele><time>2026-04-06T09:54:04Z</time></trkpt><trkpt lat="45.79148585485154" lon="10.829817937153585"><ele>73.0</ele><time>2026-04-06T09:54:05Z</time></trkpt><trkpt lat="45.791402724506725" lon="10.829623651455082"><ele>73.0</ele><time>2026-04-06T09:54:06Z</time></trkpt><trkpt lat="45.79130000639776" lon="10.829442216924619"><ele>73.0</ele><time>2026-04-06T09:54:07Z</time></trkpt><trkpt lat="45.7912129471023" lon="10.829247515901523"><ele>73.0</ele><time>2026-04-06T09:54:08Z</time></trkpt><trkpt lat="45.79112860995481" lon="10.829050129679832"><ele>73.66666666666666</ele><time>2026-04-06T09:54:09Z</time></trkpt><trkpt lat="45.79104780863253" lon="10.828846855268932"><ele>74.33333333333333</ele><time>2026-04-06T09:54:10Z</time></trkpt><trkpt lat="45.79100115507365" lon="10.828624285497492"><ele>75.0</ele><time>2026-04-06T09:54:11Z</time></trkpt><trkpt lat="45.7909389243928" lon="10.828406770065525"><ele>75.0</ele><time>2026-04-06T09:54:12Z</time></trkpt><trkpt lat="45.79089108364992" lon="10.828181131507021"><ele>75.0</ele><time>2026-04-06T09:54:13Z</time></trkpt><trkpt lat="45.790842089740465" lon="10.827958578790794"><ele>75.0</ele><time>2026-04-06T09:54:14Z</time></trkpt><trkpt lat="45.790788103758516" lon="10.827733412834942"><ele>72.0</ele><time>2026-04-06T09:54:15Z</time></trkpt><trkpt lat="45.79071955526849" lon="10.827512331724607"><ele>69.0</ele><time>2026-04-06T09:54:16Z</time></trkpt><trkpt lat="45.79064243758341" lon="10.827299486915857"><ele>66.0</ele><time>2026-04-06T09:54:17Z</time></trkpt><trkpt lat="45.790559795217106" lon="10.827086174701806"><ele>66.0</ele><time>2026-04-06T09:54:18Z</time></trkpt><trkpt lat="45.79047914977212" lon="10.826875958930039"><ele>66.0</ele><time>2026-04-06T09:54:19Z</time></trkpt><trkpt lat="45.79039254680534" lon="10.826678463516197"><ele>66.0</ele><time>2026-04-06T09:54:20Z</time></trkpt><trkpt lat="45.79029827389922" lon="10.826485209922197"><ele>65.66666666666667</ele><time>2026-04-06T09:54:21Z</time></trkpt><trkpt lat="45.79018389936859" lon="10.826313713391162"><ele>65.33333333333334</ele><time>2026-04-06T09:54:22Z</time></trkpt><trkpt lat="45.79009578670804" lon="10.826118092018497"><ele>65.0</ele><time>2026-04-06T09:54:23Z</time></trkpt><trkpt lat="45.7899918073773" lon="10.82593190578884"><ele>65.0</ele><time>2026-04-06T09:54:24Z</time></trkpt><trkpt lat="45.78988969152718" lon="10.825749056294828"><ele>65.0</ele><time>2026-04-06T09:54:25Z</time></trkpt><trkpt lat="45.78978801830761" lon="10.825567477079652"><ele>65.0</ele><time>2026-04-06T09:54:26.001Z</time></trkpt><trkpt lat="45.789691767984756" lon="10.82539559735328"><ele>65.0</ele><time>2026-04-06T09:54:27.001Z</time></trkpt><trkpt lat="45.78961242512054" lon="10.825253910262438"><ele>65.0</ele><time>2026-04-06T09:54:28.001Z</time></trkpt><trkpt lat="45.78954722409134" lon="10.825137477031614"><ele>65.0</ele><time>2026-04-06T09:54:29.001Z</time></trkpt><trkpt lat="45.789490655242" lon="10.82503645879728"><ele>65.0</ele><time>2026-04-06T09:54:30.001Z</time></trkpt><trkpt lat="45.789429225136296" lon="10.82492675952135"><ele>65.0</ele><time>2026-04-06T09:54:31.001Z</time></trkpt><trkpt lat="45.78936552180192" lon="10.824811880758"><ele>65.0</ele><time>2026-04-06T09:54:32.001Z</time></trkpt><trkpt lat="45.78929021286291" lon="10.824675443352895"><ele>65.0</ele><time>2026-04-06T09:54:33.001Z</time></trkpt><trkpt lat="45.78920864271776" lon="10.824527662497557"><ele>65.0</ele><time>2026-04-06T09:54:34.001Z</time></trkpt><trkpt lat="45.789127935204995" lon="10.824380572391927"><ele>65.0</ele><time>2026-04-06T09:54:35.001Z</time></trkpt><trkpt lat="45.789051263792466" lon="10.824238127576704"><ele>65.0</ele><time>2026-04-06T09:54:36.001Z</time></trkpt><trkpt lat="45.788975708423884" lon="10.824095479945145"><ele>65.0</ele><time>2026-04-06T09:54:37.001Z</time></trkpt><trkpt lat="45.78890367951701" lon="10.823956532505981"><ele>65.0</ele><time>2026-04-06T09:54:38.001Z</time></trkpt><trkpt lat="45.78883229761998" lon="10.823818833220496"><ele>65.0</ele><time>2026-04-06T09:54:39.001Z</time></trkpt><trkpt lat="45.78876473926446" lon="10.823686749716975"><ele>65.0</ele><time>2026-04-06T09:54:40.001Z</time></trkpt><trkpt lat="45.788698354049075" lon="10.823555302183182"><ele>65.0</ele><time>2026-04-06T09:54:41.001Z</time></trkpt><trkpt lat="45.78862900183803" lon="10.823418779294009"><ele>65.0</ele><time>2026-04-06T09:54:42Z</time></trkpt><trkpt lat="45.788564305956534" lon="10.823291540682357"><ele>65.0</ele><time>2026-04-06T09:54:43Z</time></trkpt><trkpt lat="45.78850217345196" lon="10.823175612292555"><ele>65.0</ele><time>2026-04-06T09:54:44Z</time></trkpt><trkpt lat="45.78844676553695" lon="10.823072394564338"><ele>65.8</ele><time>2026-04-06T09:54:45Z</time></trkpt><trkpt lat="45.788393044839225" lon="10.822981262610956"><ele>66.6</ele><time>2026-04-06T09:54:46Z</time></trkpt><trkpt lat="45.788330090769314" lon="10.822886011173608"><ele>67.4</ele><time>2026-04-06T09:54:48Z</time></trkpt><trkpt lat="45.78827934633237" lon="10.822814986944957"><ele>68.2</ele><time>2026-04-06T09:54:50Z</time></trkpt><trkpt lat="45.7881890050612" lon="10.822698850716616"><ele>69.0</ele><time>2026-04-06T09:54:52Z</time></trkpt><trkpt lat="45.788108269047214" lon="10.822608924524246"><ele>69.0</ele><time>2026-04-06T09:54:53Z</time></trkpt><trkpt lat="45.78801126462725" lon="10.82251128551571"><ele>69.0</ele><time>2026-04-06T09:54:54Z</time></trkpt><trkpt lat="45.78789485356376" lon="10.822409350035615"><ele>69.0</ele><time>2026-04-06T09:54:55Z</time></trkpt><trkpt lat="45.787770178533904" lon="10.822299568616575"><ele>69.0</ele><time>2026-04-06T09:54:56Z</time></trkpt><trkpt lat="45.78763877260044" lon="10.822183859916862"><ele>69.33333333333333</ele><time>2026-04-06T09:54:57Z</time></trkpt><trkpt lat="45.787492927375915" lon="10.822057013322555"><ele>69.66666666666666</ele><time>2026-04-06T09:54:58Z</time></trkpt><trkpt lat="45.78734501443837" lon="10.821930478041162"><ele>70.0</ele><time>2026-04-06T09:54:59Z</time></trkpt><trkpt lat="45.78719913193849" lon="10.821805085808073"><ele>69.33333333333333</ele><time>2026-04-06T09:55:00Z</time></trkpt><trkpt lat="45.78705026883822" lon="10.82167880970027"><ele>68.66666666666667</ele><time>2026-04-06T09:55:01Z</time></trkpt><trkpt lat="45.78690435974311" lon="10.821555039407373"><ele>68.0</ele><time>2026-04-06T09:55:02Z</time></trkpt><trkpt lat="45.786759075186495" lon="10.821430129247542"><ele>68.0</ele><time>2026-04-06T09:55:03Z</time></trkpt><trkpt lat="45.7866140906643" lon="10.821304607653367"><ele>68.0</ele><time>2026-04-06T09:55:04Z</time></trkpt><trkpt lat="45.78647267735927" lon="10.821176158158076"><ele>68.0</ele><time>2026-04-06T09:55:05Z</time></trkpt><trkpt lat="45.78632419192067" lon="10.82106613578296"><ele>67.33333333333334</ele><time>2026-04-06T09:55:06Z</time></trkpt><trkpt lat="45.78619160910278" lon="10.820927551845605"><ele>66.66666666666667</ele><time>2026-04-06T09:55:07Z</time></trkpt><trkpt lat="45.78606364971876" lon="10.820783682690099"><ele>66.0</ele><time>2026-04-06T09:55:08Z</time></trkpt><trkpt lat="45.785940684593186" lon="10.820635160319421"><ele>70.0</ele><time>2026-04-06T09:55:09Z</time></trkpt><trkpt lat="45.785832303602746" lon="10.820460904459225"><ele>74.0</ele><time>2026-04-06T09:55:10Z</time></trkpt><trkpt lat="45.78570941720586" lon="10.82030937326238"><ele>78.0</ele><time>2026-04-06T09:55:11Z</time></trkpt><trkpt lat="45.78557803048592" lon="10.820174867207879"><ele>74.33333333333333</ele><time>2026-04-06T09:55:12Z</time></trkpt><trkpt lat="45.78545561500913" lon="10.82002496550049"><ele>70.66666666666666</ele><time>2026-04-06T09:55:13Z</time></trkpt><trkpt lat="45.78533579764361" lon="10.819874258561942"><ele>67.0</ele><time>2026-04-06T09:55:14Z</time></trkpt><trkpt lat="45.785216141252505" lon="10.819726229950195"><ele>67.0</ele><time>2026-04-06T09:55:15Z</time></trkpt><trkpt lat="45.78509433126139" lon="10.81957794104198"><ele>67.0</ele><time>2026-04-06T09:55:16Z</time></trkpt><trkpt lat="45.784973157716074" lon="10.819435190414675"><ele>67.0</ele><time>2026-04-06T09:55:17Z</time></trkpt><trkpt lat="45.784848093714345" lon="10.819310754505594"><ele>67.0</ele><time>2026-04-06T09:55:18Z</time></trkpt><trkpt lat="45.78472531063318" lon="10.81918446607455"><ele>67.0</ele><time>2026-04-06T09:55:19Z</time></trkpt><trkpt lat="45.78458232093811" lon="10.819092212003245"><ele>67.0</ele><time>2026-04-06T09:55:20Z</time></trkpt><trkpt lat="45.78443539405261" lon="10.819016332915789"><ele>70.0</ele><time>2026-04-06T09:55:21Z</time></trkpt><trkpt lat="45.784288284903916" lon="10.818946286271002"><ele>73.0</ele><time>2026-04-06T09:55:22Z</time></trkpt><trkpt lat="45.78413974886833" lon="10.818875838698984"><ele>76.0</ele><time>2026-04-06T09:55:23Z</time></trkpt><trkpt lat="45.78399496680614" lon="10.818811092867204"><ele>76.0</ele><time>2026-04-06T09:55:24Z</time></trkpt><trkpt lat="45.78384580770137" lon="10.8187739189859"><ele>76.0</ele><time>2026-04-06T09:55:25Z</time></trkpt><trkpt lat="45.78370197212821" lon="10.818722604242696"><ele>76.0</ele><time>2026-04-06T09:55:26Z</time></trkpt><trkpt lat="45.78356032558719" lon="10.818685531424531"><ele>76.0</ele><time>2026-04-06T09:55:27Z</time></trkpt><trkpt lat="45.78341452868486" lon="10.818651018666358"><ele>78.33333333333333</ele><time>2026-04-06T09:55:28Z</time></trkpt><trkpt lat="45.7832722124788" lon="10.818610638974707"><ele>80.66666666666667</ele><time>2026-04-06T09:55:29Z</time></trkpt><trkpt lat="45.78313233368844" lon="10.818530178568654"><ele>83.0</ele><time>2026-04-06T09:55:30Z</time></trkpt><trkpt lat="45.78298138607117" lon="10.818486806214107"><ele>80.0</ele><time>2026-04-06T09:55:31Z</time></trkpt><trkpt lat="45.78283508518376" lon="10.81841639928741"><ele>77.0</ele><time>2026-04-06T09:55:32Z</time></trkpt><trkpt lat="45.78268829258783" lon="10.818345002019521"><ele>74.0</ele><time>2026-04-06T09:55:33Z</time></trkpt><trkpt lat="45.78253751250305" lon="10.81827358604221"><ele>74.0</ele><time>2026-04-06T09:55:34Z</time></trkpt><trkpt lat="45.78238484574727" lon="10.818199822708362"><ele>74.0</ele><time>2026-04-06T09:55:35Z</time></trkpt><trkpt lat="45.782233161514355" lon="10.818122874997727"><ele>74.0</ele><time>2026-04-06T09:55:36Z</time></trkpt><trkpt lat="45.782077026569624" lon="10.818042939306675"><ele>74.0</ele><time>2026-04-06T09:55:37Z</time></trkpt><trkpt lat="45.78192371178207" lon="10.817965302966316"><ele>74.0</ele><time>2026-04-06T09:55:38Z</time></trkpt><trkpt lat="45.781769243710954" lon="10.817892759118015"><ele>74.0</ele><time>2026-04-06T09:55:39Z</time></trkpt><trkpt lat="45.78161134493621" lon="10.817822272517084"><ele>70.66666666666667</ele><time>2026-04-06T09:55:40Z</time></trkpt><trkpt lat="45.78145573044034" lon="10.817753310789604"><ele>67.33333333333333</ele><time>2026-04-06T09:55:41Z</time></trkpt><trkpt lat="45.78130738097092" lon="10.817676925738416"><ele>64.0</ele><time>2026-04-06T09:55:42Z</time></trkpt><trkpt lat="45.78114790335586" lon="10.817604452926826"><ele>67.33333333333333</ele><time>2026-04-06T09:55:43Z</time></trkpt><trkpt lat="45.780990783030425" lon="10.817536484747938"><ele>70.66666666666667</ele><time>2026-04-06T09:55:44Z</time></trkpt><trkpt lat="45.780835114334074" lon="10.817465502950675"><ele>74.0</ele><time>2026-04-06T09:55:45Z</time></trkpt><trkpt lat="45.78067733524799" lon="10.817393805796605"><ele>74.0</ele><time>2026-04-06T09:55:46Z</time></trkpt><trkpt lat="45.780524430848395" lon="10.817301940288564"><ele>74.0</ele><time>2026-04-06T09:55:47Z</time></trkpt><trkpt lat="45.78036717868309" lon="10.817230476530206"><ele>74.0</ele><time>2026-04-06T09:55:48Z</time></trkpt><trkpt lat="45.780209611131625" lon="10.817183656088485"><ele>77.33333333333334</ele><time>2026-04-06T09:55:49Z</time></trkpt><trkpt lat="45.78006291621416" lon="10.817091465086841"><ele>80.66666666666667</ele><time>2026-04-06T09:55:50Z</time></trkpt><trkpt lat="45.779911802724776" lon="10.817020709190032"><ele>84.0</ele><time>2026-04-06T09:55:51Z</time></trkpt><trkpt lat="45.77976245218749" lon="10.81695077876563"><ele>84.0</ele><time>2026-04-06T09:55:52Z</time></trkpt><trkpt lat="45.77961262288012" lon="10.816882481277677"><ele>84.0</ele><time>2026-04-06T09:55:53Z</time></trkpt><trkpt lat="45.7794637273205" lon="10.816814779446885"><ele>84.0</ele><time>2026-04-06T09:55:54Z</time></trkpt><trkpt lat="45.77931453127332" lon="10.816746261565266"><ele>80.33333333333333</ele><time>2026-04-06T09:55:55Z</time></trkpt><trkpt lat="45.779166314662405" lon="10.816677357908903"><ele>76.66666666666666</ele><time>2026-04-06T09:55:56Z</time></trkpt><trkpt lat="45.77901606281774" lon="10.81660750811648"><ele>73.0</ele><time>2026-04-06T09:55:57Z</time></trkpt><trkpt lat="45.77886476359767" lon="10.816537171403157"><ele>73.0</ele><time>2026-04-06T09:55:58Z</time></trkpt><trkpt lat="45.77871403357318" lon="10.81646355634865"><ele>73.0</ele><time>2026-04-06T09:55:59Z</time></trkpt><trkpt lat="45.77856371304151" lon="10.816386982285712"><ele>73.0</ele><time>2026-04-06T09:56:00Z</time></trkpt><trkpt lat="45.77841467785071" lon="10.816306506890447"><ele>75.0</ele><time>2026-04-06T09:56:01Z</time></trkpt><trkpt lat="45.778266968749996" lon="10.816223125247236"><ele>77.0</ele><time>2026-04-06T09:56:02Z</time></trkpt><trkpt lat="45.778113100623194" lon="10.816158623618954"><ele>79.0</ele><time>2026-04-06T09:56:03Z</time></trkpt><trkpt lat="45.77797198002653" lon="10.816048517452487"><ele>77.66666666666666</ele><time>2026-04-06T09:56:04Z</time></trkpt><trkpt lat="45.77782428119055" lon="10.815960198525817"><ele>76.33333333333333</ele><time>2026-04-06T09:56:05Z</time></trkpt><trkpt lat="45.77767648309481" lon="10.815871820265109"><ele>75.0</ele><time>2026-04-06T09:56:06Z</time></trkpt><trkpt lat="45.777526715147495" lon="10.815782264111553"><ele>75.0</ele><time>2026-04-06T09:56:07Z</time></trkpt><trkpt lat="45.777378193417654" lon="10.815693453126515"><ele>75.0</ele><time>2026-04-06T09:56:08Z</time></trkpt><trkpt lat="45.77722111228458" lon="10.815628191268907"><ele>75.0</ele><time>2026-04-06T09:56:09Z</time></trkpt><trkpt lat="45.7770708699978" lon="10.815541820173195"><ele>75.0</ele><time>2026-04-06T09:56:10Z</time></trkpt><trkpt lat="45.77691981327198" lon="10.815460283076966"><ele>75.0</ele><time>2026-04-06T09:56:11Z</time></trkpt><trkpt lat="45.77676718066757" lon="10.81538583701023"><ele>75.0</ele><time>2026-04-06T09:56:12Z</time></trkpt><trkpt lat="45.77661846086037" lon="10.815294602831889"><ele>72.0</ele><time>2026-04-06T09:56:13Z</time></trkpt><trkpt lat="45.77646405690949" lon="10.815226730880836"><ele>69.0</ele><time>2026-04-06T09:56:14Z</time></trkpt><trkpt lat="45.77630867801577" lon="10.815156590625602"><ele>66.0</ele><time>2026-04-06T09:56:15Z</time></trkpt><trkpt lat="45.77615340286123" lon="10.815085862359645"><ele>68.33333333333333</ele><time>2026-04-06T09:56:16Z</time></trkpt><trkpt lat="45.77599803794374" lon="10.815014515034179"><ele>70.66666666666666</ele><time>2026-04-06T09:56:17Z</time></trkpt><trkpt lat="45.77585733770866" lon="10.814942523650787"><ele>73.0</ele><time>2026-04-06T09:56:18Z</time></trkpt><trkpt lat="45.7757278584474" lon="10.814868602962491"><ele>73.0</ele><time>2026-04-06T09:56:19Z</time></trkpt><trkpt lat="45.77560767687122" lon="10.81478804316426"><ele>73.0</ele><time>2026-04-06T09:56:20Z</time></trkpt><trkpt lat="45.775492381663625" lon="10.814702655560556"><ele>73.0</ele><time>2026-04-06T09:56:21Z</time></trkpt><trkpt lat="45.77537974087673" lon="10.81461757738921"><ele>73.0</ele><time>2026-04-06T09:56:22Z</time></trkpt><trkpt lat="45.77525825204227" lon="10.814525816267807"><ele>72.75</ele><time>2026-04-06T09:56:23Z</time></trkpt><trkpt lat="45.7751317388906" lon="10.814430800415995"><ele>72.5</ele><time>2026-04-06T09:56:24Z</time></trkpt><trkpt lat="45.774999382615775" lon="10.814331980576771"><ele>72.25</ele><time>2026-04-06T09:56:25Z</time></trkpt><trkpt lat="45.77486088690055" lon="10.814228778672442"><ele>72.0</ele><time>2026-04-06T09:56:26Z</time></trkpt><trkpt lat="45.77471799430556" lon="10.81412403256534"><ele>72.0</ele><time>2026-04-06T09:56:27Z</time></trkpt><trkpt lat="45.77456633983462" lon="10.814015542430443"><ele>72.0</ele><time>2026-04-06T09:56:28Z</time></trkpt><trkpt lat="45.774410163894444" lon="10.813908551533062"><ele>72.0</ele><time>2026-04-06T09:56:29Z</time></trkpt><trkpt lat="45.774257698130896" lon="10.813811852117034"><ele>75.33333333333333</ele><time>2026-04-06T09:56:30Z</time></trkpt><trkpt lat="45.77409673773582" lon="10.813742292017148"><ele>78.66666666666666</ele><time>2026-04-06T09:56:31Z</time></trkpt><trkpt lat="45.77394182311689" lon="10.813664464065678"><ele>82.0</ele><time>2026-04-06T09:56:32Z</time></trkpt><trkpt lat="45.773784793492105" lon="10.81358902127207"><ele>82.0</ele><time>2026-04-06T09:56:33Z</time></trkpt><trkpt lat="45.773629688807844" lon="10.813509424586941"><ele>82.0</ele><time>2026-04-06T09:56:34Z</time></trkpt><trkpt lat="45.77347533950345" lon="10.813436753636497"><ele>82.0</ele><time>2026-04-06T09:56:35Z</time></trkpt><trkpt lat="45.7733210555772" lon="10.813363419926649"><ele>80.33333333333333</ele><time>2026-04-06T09:56:36Z</time></trkpt><trkpt lat="45.773172292433884" lon="10.813266746600101"><ele>78.66666666666667</ele><time>2026-04-06T09:56:37Z</time></trkpt><trkpt lat="45.77302057277969" lon="10.813192542711604"><ele>77.0</ele><time>2026-04-06T09:56:38Z</time></trkpt><trkpt lat="45.77287637345708" lon="10.81312201687941"><ele>77.0</ele><time>2026-04-06T09:56:39Z</time></trkpt><trkpt lat="45.772742184452106" lon="10.81305638696292"><ele>77.0</ele><time>2026-04-06T09:56:40Z</time></trkpt><trkpt lat="45.772620067046866" lon="10.812996661185439"><ele>77.0</ele><time>2026-04-06T09:56:41Z</time></trkpt><trkpt lat="45.77250275064071" lon="10.812939283442226"><ele>77.0</ele><time>2026-04-06T09:56:42Z</time></trkpt><trkpt lat="45.77238532607799" lon="10.812881852902082"><ele>77.25</ele><time>2026-04-06T09:56:43Z</time></trkpt><trkpt lat="45.77225712518752" lon="10.812819151643065"><ele>77.5</ele><time>2026-04-06T09:56:44Z</time></trkpt><trkpt lat="45.772127797243506" lon="10.812755899262648"><ele>77.75</ele><time>2026-04-06T09:56:45Z</time></trkpt><trkpt lat="45.771991609169426" lon="10.81268923262342"><ele>78.0</ele><time>2026-04-06T09:56:46Z</time></trkpt><trkpt lat="45.77185011352599" lon="10.812620146852698"><ele>78.0</ele><time>2026-04-06T09:56:47Z</time></trkpt><trkpt lat="45.77170749762485" lon="10.81255051408819"><ele>78.0</ele><time>2026-04-06T09:56:48Z</time></trkpt><trkpt lat="45.77155635127971" lon="10.81249889470012"><ele>78.0</ele><time>2026-04-06T09:56:49Z</time></trkpt><trkpt lat="45.771410107253935" lon="10.812424996337901"><ele>78.0</ele><time>2026-04-06T09:56:50Z</time></trkpt><trkpt lat="45.771264477826925" lon="10.812355419664504"><ele>78.0</ele><time>2026-04-06T09:56:51Z</time></trkpt><trkpt lat="45.77111441850673" lon="10.812288818482795"><ele>78.0</ele><time>2026-04-06T09:56:52Z</time></trkpt><trkpt lat="45.77096971999433" lon="10.812196067993634"><ele>82.33333333333333</ele><time>2026-04-06T09:56:53Z</time></trkpt><trkpt lat="45.77081767840813" lon="10.812129270110342"><ele>86.66666666666666</ele><time>2026-04-06T09:56:54Z</time></trkpt><trkpt lat="45.77066744991654" lon="10.81206897408082"><ele>91.0</ele><time>2026-04-06T09:56:55Z</time></trkpt><trkpt lat="45.77051838094247" lon="10.812014998752046"><ele>91.0</ele><time>2026-04-06T09:56:56Z</time></trkpt><trkpt lat="45.77036674194029" lon="10.811995532383499"><ele>91.0</ele><time>2026-04-06T09:56:57Z</time></trkpt><trkpt lat="45.77022140337656" lon="10.81196269700785"><ele>91.0</ele><time>2026-04-06T09:56:58Z</time></trkpt><trkpt lat="45.770074299108735" lon="10.811957825547049"><ele>91.0</ele><time>2026-04-06T09:56:59Z</time></trkpt><trkpt lat="45.76993007047422" lon="10.811971525100804"><ele>90.75</ele><time>2026-04-06T09:57:00Z</time></trkpt><trkpt lat="45.76978577470733" lon="10.812001006071783"><ele>90.5</ele><time>2026-04-06T09:57:01Z</time></trkpt><trkpt lat="45.76964756506959" lon="10.812030585378091"><ele>90.25</ele><time>2026-04-06T09:57:02Z</time></trkpt><trkpt lat="45.76951702393186" lon="10.812056549623318"><ele>90.0</ele><time>2026-04-06T09:57:03Z</time></trkpt><trkpt lat="45.76939458725315" lon="10.812076535428247"><ele>89.2</ele><time>2026-04-06T09:57:04Z</time></trkpt><trkpt lat="45.76927779690223" lon="10.812059032516467"><ele>88.4</ele><time>2026-04-06T09:57:05Z</time></trkpt><trkpt lat="45.76916932369787" lon="10.81204938326663"><ele>87.6</ele><time>2026-04-06T09:57:06Z</time></trkpt><trkpt lat="45.76906320187968" lon="10.812031235568352"><ele>86.8</ele><time>2026-04-06T09:57:07Z</time></trkpt><trkpt lat="45.76896275623237" lon="10.81200416374233"><ele>86.0</ele><time>2026-04-06T09:57:08Z</time></trkpt><trkpt lat="45.768874218934805" lon="10.811976936175881"><ele>86.0</ele><time>2026-04-06T09:57:09Z</time></trkpt><trkpt lat="45.76879444940391" lon="10.811952107336358"><ele>86.0</ele><time>2026-04-06T09:57:10Z</time></trkpt><trkpt lat="45.76871886971397" lon="10.811928722455377"><ele>86.0</ele><time>2026-04-06T09:57:11Z</time></trkpt><trkpt lat="45.768642077583785" lon="10.811925836286626"><ele>86.0</ele><time>2026-04-06T09:57:12Z</time></trkpt><trkpt lat="45.768575901576675" lon="10.811884396104496"><ele>86.0</ele><time>2026-04-06T09:57:13Z</time></trkpt><trkpt lat="45.7685044225692" lon="10.811862119918517"><ele>86.0</ele><time>2026-04-06T09:57:14Z</time></trkpt><trkpt lat="45.76842493096029" lon="10.811860118590095"><ele>86.5</ele><time>2026-04-06T09:57:15Z</time></trkpt><trkpt lat="45.76834635308441" lon="10.811835153845003"><ele>87.0</ele><time>2026-04-06T09:57:16Z</time></trkpt><trkpt lat="45.768266555239016" lon="10.811808877806513"><ele>87.5</ele><time>2026-04-06T09:57:17Z</time></trkpt><trkpt lat="45.76818732631337" lon="10.811782273415051"><ele>88.0</ele><time>2026-04-06T09:57:18Z</time></trkpt><trkpt lat="45.76811362917583" lon="10.811757814884414"><ele>88.5</ele><time>2026-04-06T09:57:19Z</time></trkpt><trkpt lat="45.76803746404893" lon="10.811738301259174"><ele>89.0</ele><time>2026-04-06T09:57:20Z</time></trkpt><trkpt lat="45.76796686209226" lon="10.811717532887666"><ele>87.66666666666667</ele><time>2026-04-06T09:57:21Z</time></trkpt><trkpt lat="45.76791006615196" lon="10.81167771393329"><ele>86.33333333333334</ele><time>2026-04-06T09:57:22Z</time></trkpt><trkpt lat="45.76779854784176" lon="10.811665382806282"><ele>85.0</ele><time>2026-04-06T09:57:24Z</time></trkpt><trkpt lat="45.7677311890644" lon="10.811645651341985"><ele>83.66666666666667</ele><time>2026-04-06T09:57:25Z</time></trkpt><trkpt lat="45.76766592945838" lon="10.81160218439051"><ele>82.33333333333333</ele><time>2026-04-06T09:57:26Z</time></trkpt><trkpt lat="45.767551322905675" lon="10.811566728141877"><ele>81.0</ele><time>2026-04-06T09:57:28Z</time></trkpt><trkpt lat="45.767445483579344" lon="10.81153407699834"><ele>81.0</ele><time>2026-04-06T09:57:30Z</time></trkpt><trkpt lat="45.76736687870995" lon="10.811509848652427"><ele>81.0</ele><time>2026-04-06T09:57:32Z</time></trkpt><trkpt lat="45.76728238258444" lon="10.811483804544777"><ele>81.0</ele><time>2026-04-06T09:57:34Z</time></trkpt><trkpt lat="45.767192300995724" lon="10.811456038790654"><ele>81.0</ele><time>2026-04-06T09:57:36Z</time></trkpt><trkpt lat="45.76711037269931" lon="10.811430786130392"><ele>81.0</ele><time>2026-04-06T09:57:38Z</time></trkpt><trkpt lat="45.76704532773447" lon="10.811410737413876"><ele>81.0</ele><time>2026-04-06T09:57:40Z</time></trkpt><trkpt lat="45.766961813186526" lon="10.81138499578039"><ele>81.33333333333333</ele><time>2026-04-06T09:57:43Z</time></trkpt><trkpt lat="45.766854925429264" lon="10.811352049389495"><ele>81.66666666666667</ele><time>2026-04-06T09:57:45Z</time></trkpt><trkpt lat="45.766772635687374" lon="10.8113488170873"><ele>82.0</ele><time>2026-04-06T09:57:47Z</time></trkpt><trkpt lat="45.76669165779498" lon="10.811319549931367"><ele>82.33333333333334</ele><time>2026-04-06T09:57:49Z</time></trkpt><trkpt lat="45.76661147552604" lon="10.811293270093598"><ele>82.66666666666667</ele><time>2026-04-06T09:57:51Z</time></trkpt><trkpt lat="45.766524608736965" lon="10.811272161836229"><ele>83.0</ele><time>2026-04-06T09:57:53Z</time></trkpt><trkpt lat="45.766440749460486" lon="10.81124436317052"><ele>83.0</ele><time>2026-04-06T09:57:55Z</time></trkpt><trkpt lat="45.76636305909413" lon="10.811214071203485"><ele>83.0</ele><time>2026-04-06T09:57:57Z</time></trkpt><trkpt lat="45.76629566768883" lon="10.811192090972916"><ele>83.0</ele><time>2026-04-06T09:57:59Z</time></trkpt><trkpt lat="45.76620670954521" lon="10.811167964130007"><ele>83.0</ele><time>2026-04-06T09:58:01Z</time></trkpt><trkpt lat="45.76612958355995" lon="10.81114717893389"><ele>83.0</ele><time>2026-04-06T09:58:03Z</time></trkpt><trkpt lat="45.76604975641525" lon="10.811124674798863"><ele>83.0</ele><time>2026-04-06T09:58:05Z</time></trkpt><trkpt lat="45.765982497480344" lon="10.81107833427554"><ele>83.0</ele><time>2026-04-06T09:58:08Z</time></trkpt><trkpt lat="45.765891510457145" lon="10.81104552207467"><ele>83.0</ele><time>2026-04-06T09:58:11Z</time></trkpt><trkpt lat="45.765811026385094" lon="10.811014390512852"><ele>83.0</ele><time>2026-04-06T09:58:14Z</time></trkpt><trkpt lat="45.76574374001001" lon="10.810988188549317"><ele>83.0</ele><time>2026-04-06T09:58:16Z</time></trkpt><trkpt lat="45.76563452334462" lon="10.810955372647664"><ele>83.0</ele><time>2026-04-06T09:58:18Z</time></trkpt><trkpt lat="45.76554874673293" lon="10.810916362986092"><ele>83.0</ele><time>2026-04-06T09:58:20Z</time></trkpt><trkpt lat="45.7654728734484" lon="10.8108822937812"><ele>83.0</ele><time>2026-04-06T09:58:22Z</time></trkpt><trkpt lat="45.76538025239898" lon="10.810827330094565"><ele>83.0</ele><time>2026-04-06T09:58:24Z</time></trkpt><trkpt lat="45.765312083841465" lon="10.81080337918951"><ele>83.0</ele><time>2026-04-06T09:58:25Z</time></trkpt><trkpt lat="45.76523686086915" lon="10.810776246634878"><ele>83.0</ele><time>2026-04-06T09:58:26Z</time></trkpt><trkpt lat="45.76516372531078" lon="10.810733398807512"><ele>83.0</ele><time>2026-04-06T09:58:27Z</time></trkpt><trkpt lat="45.76509765636005" lon="10.810695486961428"><ele>83.0</ele><time>2026-04-06T09:58:28Z</time></trkpt><trkpt lat="45.76502969015389" lon="10.810657596108264"><ele>83.83333333333334</ele><time>2026-04-06T09:58:29Z</time></trkpt><trkpt lat="45.76495507105616" lon="10.810617420122847"><ele>84.66666666666667</ele><time>2026-04-06T09:58:30Z</time></trkpt><trkpt lat="45.76487209649874" lon="10.810568386089125"><ele>85.5</ele><time>2026-04-06T09:58:31Z</time></trkpt><trkpt lat="45.76478957659188" lon="10.810511194163196"><ele>86.33333333333333</ele><time>2026-04-06T09:58:32Z</time></trkpt><trkpt lat="45.764704223432204" lon="10.81045681509527"><ele>87.16666666666666</ele><time>2026-04-06T09:58:33Z</time></trkpt><trkpt lat="45.7646215729424" lon="10.810405850241098"><ele>88.0</ele><time>2026-04-06T09:58:34Z</time></trkpt><trkpt lat="45.76453865487055" lon="10.810350831132068"><ele>88.0</ele><time>2026-04-06T09:58:35Z</time></trkpt><trkpt lat="45.76446437135121" lon="10.810274581737911"><ele>88.0</ele><time>2026-04-06T09:58:36Z</time></trkpt><trkpt lat="45.76438694876607" lon="10.810218778529427"><ele>88.0</ele><time>2026-04-06T09:58:37Z</time></trkpt><trkpt lat="45.764317447355566" lon="10.81016621254751"><ele>88.0</ele><time>2026-04-06T09:58:38Z</time></trkpt><trkpt lat="45.764258110316426" lon="10.810121562303623"><ele>88.0</ele><time>2026-04-06T09:58:39Z</time></trkpt><trkpt lat="45.764213386753816" lon="10.810032399505873"><ele>88.0</ele><time>2026-04-06T09:58:40Z</time></trkpt><trkpt lat="45.76416964688995" lon="10.809947217465114"><ele>87.83333333333333</ele><time>2026-04-06T09:58:41Z</time></trkpt><trkpt lat="45.76411261579017" lon="10.809895609903672"><ele>87.66666666666666</ele><time>2026-04-06T09:58:42Z</time></trkpt><trkpt lat="45.76403932846948" lon="10.809875870345266"><ele>87.5</ele><time>2026-04-06T09:58:43Z</time></trkpt><trkpt lat="45.76395686851743" lon="10.809883778312631"><ele>87.33333333333333</ele><time>2026-04-06T09:58:44Z</time></trkpt><trkpt lat="45.76386729768616" lon="10.809875581871221"><ele>87.16666666666667</ele><time>2026-04-06T09:58:45Z</time></trkpt><trkpt lat="45.76377172710046" lon="10.80984098508684"><ele>87.0</ele><time>2026-04-06T09:58:46Z</time></trkpt><trkpt lat="45.76368003316324" lon="10.80978125310797"><ele>87.0</ele><time>2026-04-06T09:58:47Z</time></trkpt><trkpt lat="45.76359320862627" lon="10.809727938932387"><ele>87.0</ele><time>2026-04-06T09:58:48Z</time></trkpt><trkpt lat="45.76350873625918" lon="10.80967693459622"><ele>87.0</ele><time>2026-04-06T09:58:49Z</time></trkpt><trkpt lat="45.76342964613976" lon="10.80963351631149"><ele>87.0</ele><time>2026-04-06T09:58:50Z</time></trkpt><trkpt lat="45.76335376337223" lon="10.809589645246806"><ele>87.0</ele><time>2026-04-06T09:58:51Z</time></trkpt><trkpt lat="45.76327992819079" lon="10.809545383208501"><ele>87.0</ele><time>2026-04-06T09:58:52Z</time></trkpt><trkpt lat="45.763209492983854" lon="10.809501765383272"><ele>87.16666666666667</ele><time>2026-04-06T09:58:53Z</time></trkpt><trkpt lat="45.763139076863986" lon="10.809457414185298"><ele>87.33333333333333</ele><time>2026-04-06T09:58:54Z</time></trkpt><trkpt lat="45.76306894062103" lon="10.80941151958226"><ele>87.5</ele><time>2026-04-06T09:58:55Z</time></trkpt><trkpt lat="45.76299151659578" lon="10.809376311315605"><ele>87.66666666666666</ele><time>2026-04-06T09:58:56Z</time></trkpt><trkpt lat="45.76291507492867" lon="10.809339001730919"><ele>87.83333333333333</ele><time>2026-04-06T09:58:57Z</time></trkpt><trkpt lat="45.76283622086305" lon="10.809306001230903"><ele>88.0</ele><time>2026-04-06T09:58:58Z</time></trkpt><trkpt lat="45.762760669934195" lon="10.809277575422202"><ele>89.2</ele><time>2026-04-06T09:58:59Z</time></trkpt><trkpt lat="45.76267379826511" lon="10.809253721710657"><ele>90.4</ele><time>2026-04-06T09:59:00Z</time></trkpt><trkpt lat="45.76257958149077" lon="10.809213863966148"><ele>91.60000000000001</ele><time>2026-04-06T09:59:01Z</time></trkpt><trkpt lat="45.76248273375249" lon="10.809171995193589"><ele>92.80000000000001</ele><time>2026-04-06T09:59:02Z</time></trkpt><trkpt lat="45.76238317054648" lon="10.809133998740098"><ele>94.0</ele><time>2026-04-06T09:59:03Z</time></trkpt><trkpt lat="45.76228143709189" lon="10.809101708744718"><ele>94.0</ele><time>2026-04-06T09:59:04Z</time></trkpt><trkpt lat="45.762172340000475" lon="10.809070974936443"><ele>94.0</ele><time>2026-04-06T09:59:05Z</time></trkpt><trkpt lat="45.76205963278626" lon="10.809032897494161"><ele>94.0</ele><time>2026-04-06T09:59:06Z</time></trkpt><trkpt lat="45.761956786415915" lon="10.808998067626355"><ele>94.0</ele><time>2026-04-06T09:59:07Z</time></trkpt><trkpt lat="45.761867863019766" lon="10.8089664603619"><ele>94.0</ele><time>2026-04-06T09:59:08Z</time></trkpt><trkpt lat="45.761783985527394" lon="10.808929520835786"><ele>94.2</ele><time>2026-04-06T09:59:09Z</time></trkpt><trkpt lat="45.7616943438531" lon="10.80889344913326"><ele>94.4</ele><time>2026-04-06T09:59:10Z</time></trkpt><trkpt lat="45.76160111842695" lon="10.808864207186595"><ele>94.6</ele><time>2026-04-06T09:59:11Z</time></trkpt><trkpt lat="45.761496171316246" lon="10.808833823960788"><ele>94.8</ele><time>2026-04-06T09:59:12Z</time></trkpt><trkpt lat="45.76138853192977" lon="10.808793074410076"><ele>95.0</ele><time>2026-04-06T09:59:13Z</time></trkpt><trkpt lat="45.76127795615904" lon="10.808747101617602"><ele>95.0</ele><time>2026-04-06T09:59:14Z</time></trkpt><trkpt lat="45.76115867561064" lon="10.808697968654323"><ele>95.0</ele><time>2026-04-06T09:59:15Z</time></trkpt><trkpt lat="45.76103667040251" lon="10.80864152090961"><ele>95.0</ele><time>2026-04-06T09:59:16Z</time></trkpt><trkpt lat="45.760915057708736" lon="10.808577817628244"><ele>95.0</ele><time>2026-04-06T09:59:17Z</time></trkpt><trkpt lat="45.76078621785417" lon="10.808515705273116"><ele>93.75</ele><time>2026-04-06T09:59:18Z</time></trkpt><trkpt lat="45.76065512514627" lon="10.808456178564017"><ele>92.5</ele><time>2026-04-06T09:59:19Z</time></trkpt><trkpt lat="45.76052481297611" lon="10.80840006001202"><ele>91.25</ele><time>2026-04-06T09:59:20Z</time></trkpt><trkpt lat="45.76038795753327" lon="10.808362322538791"><ele>90.0</ele><time>2026-04-06T09:59:21Z</time></trkpt><trkpt lat="45.760248770796125" lon="10.808334424785858"><ele>89.0</ele><time>2026-04-06T09:59:22Z</time></trkpt><trkpt lat="45.76010852281137" lon="10.80831098915429"><ele>88.0</ele><time>2026-04-06T09:59:23Z</time></trkpt><trkpt lat="45.75996891013149" lon="10.808288717062013"><ele>87.0</ele><time>2026-04-06T09:59:24Z</time></trkpt><trkpt lat="45.75982963694673" lon="10.8082708740005"><ele>86.0</ele><time>2026-04-06T09:59:25Z</time></trkpt><trkpt lat="45.759690517944065" lon="10.808255284246336"><ele>86.0</ele><time>2026-04-06T09:59:26Z</time></trkpt><trkpt lat="45.75955062231566" lon="10.808238738218698"><ele>86.0</ele><time>2026-04-06T09:59:27Z</time></trkpt><trkpt lat="45.75941424687274" lon="10.808221872773046"><ele>86.0</ele><time>2026-04-06T09:59:28Z</time></trkpt><trkpt lat="45.75927753695467" lon="10.808204686965228"><ele>86.0</ele><time>2026-04-06T09:59:29Z</time></trkpt><trkpt lat="45.75914391937301" lon="10.808184602054219"><ele>86.25</ele><time>2026-04-06T09:59:30Z</time></trkpt><trkpt lat="45.759017143760595" lon="10.808166214566102"><ele>86.5</ele><time>2026-04-06T09:59:31Z</time></trkpt><trkpt lat="45.75889230570243" lon="10.808152553072642"><ele>86.75</ele><time>2026-04-06T09:59:32Z</time></trkpt><trkpt lat="45.7587653426266" lon="10.808134031424762"><ele>87.0</ele><time>2026-04-06T09:59:33Z</time></trkpt><trkpt lat="45.758640009285685" lon="10.808113674599754"><ele>87.75</ele><time>2026-04-06T09:59:34Z</time></trkpt><trkpt lat="45.75852118440902" lon="10.808086402078636"><ele>88.5</ele><time>2026-04-06T09:59:35Z</time></trkpt><trkpt lat="45.75840192285532" lon="10.808052858620135"><ele>89.25</ele><time>2026-04-06T09:59:36Z</time></trkpt><trkpt lat="45.75828637472755" lon="10.80801545573315"><ele>90.0</ele><time>2026-04-06T09:59:37Z</time></trkpt><trkpt lat="45.758179945957465" lon="10.807970854102129"><ele>90.0</ele><time>2026-04-06T09:59:38Z</time></trkpt><trkpt lat="45.75807561397083" lon="10.807916469690397"><ele>90.0</ele><time>2026-04-06T09:59:39Z</time></trkpt><trkpt lat="45.75797494322908" lon="10.80786006526741"><ele>90.0</ele><time>2026-04-06T09:59:40Z</time></trkpt><trkpt lat="45.75787352320444" lon="10.807800577614065"><ele>90.0</ele><time>2026-04-06T09:59:41Z</time></trkpt><trkpt lat="45.75777257575891" lon="10.80773637130205"><ele>90.0</ele><time>2026-04-06T09:59:42Z</time></trkpt><trkpt lat="45.75767752171476" lon="10.807670104160621"><ele>88.2</ele><time>2026-04-06T09:59:43Z</time></trkpt><trkpt lat="45.75757758510499" lon="10.807600938762986"><ele>86.4</ele><time>2026-04-06T09:59:44Z</time></trkpt><trkpt lat="45.75749145279376" lon="10.807498195180223"><ele>84.6</ele><time>2026-04-06T09:59:45Z</time></trkpt><trkpt lat="45.75740285511152" lon="10.8074066635003"><ele>82.8</ele><time>2026-04-06T09:59:46Z</time></trkpt><trkpt lat="45.7573167050794" lon="10.807305666112391"><ele>81.0</ele><time>2026-04-06T09:59:47Z</time></trkpt><trkpt lat="45.75723354869778" lon="10.807190777769438"><ele>81.0</ele><time>2026-04-06T09:59:48Z</time></trkpt><trkpt lat="45.757148804885546" lon="10.80706163714887"><ele>81.0</ele><time>2026-04-06T09:59:49Z</time></trkpt><trkpt lat="45.757062381159415" lon="10.806923570030412"><ele>81.0</ele><time>2026-04-06T09:59:50Z</time></trkpt><trkpt lat="45.75697696943283" lon="10.806788397995424"><ele>81.0</ele><time>2026-04-06T09:59:51Z</time></trkpt><trkpt lat="45.75689041847214" lon="10.806655360599875"><ele>81.25</ele><time>2026-04-06T09:59:52Z</time></trkpt><trkpt lat="45.75680705209732" lon="10.806527580354759"><ele>81.5</ele><time>2026-04-06T09:59:53Z</time></trkpt><trkpt lat="45.75672148292133" lon="10.806400978046408"><ele>81.75</ele><time>2026-04-06T09:59:54Z</time></trkpt><trkpt lat="45.75663135767454" lon="10.80627909392183"><ele>82.0</ele><time>2026-04-06T09:59:55Z</time></trkpt><trkpt lat="45.75652899012881" lon="10.806182683022007"><ele>82.0</ele><time>2026-04-06T09:59:56Z</time></trkpt><trkpt lat="45.75644253407012" lon="10.80606099186027"><ele>82.0</ele><time>2026-04-06T09:59:57Z</time></trkpt><trkpt lat="45.756351775890096" lon="10.805964426142074"><ele>82.0</ele><time>2026-04-06T09:59:58Z</time></trkpt><trkpt lat="45.75625094746925" lon="10.80585714556444"><ele>82.0</ele><time>2026-04-06T09:59:59Z</time></trkpt><trkpt lat="45.75614349244207" lon="10.805743084149467"><ele>83.33333333333333</ele><time>2026-04-06T10:00:00Z</time></trkpt><trkpt lat="45.756020771206074" lon="10.805615293268486"><ele>84.66666666666667</ele><time>2026-04-06T10:00:01Z</time></trkpt><trkpt lat="45.75588446792441" lon="10.80547335909135"><ele>86.0</ele><time>2026-04-06T10:00:02Z</time></trkpt><trkpt lat="45.755758416005925" lon="10.805342037912066"><ele>86.0</ele><time>2026-04-06T10:00:03Z</time></trkpt><trkpt lat="45.755630398456006" lon="10.805208663493056"><ele>86.0</ele><time>2026-04-06T10:00:04Z</time></trkpt><trkpt lat="45.75548190514562" lon="10.805111416829558"><ele>86.0</ele><time>2026-04-06T10:00:05Z</time></trkpt><trkpt lat="45.755353046898804" lon="10.804981269339173"><ele>86.0</ele><time>2026-04-06T10:00:06Z</time></trkpt><trkpt lat="45.75523661267406" lon="10.804861753076235"><ele>86.0</ele><time>2026-04-06T10:00:07Z</time></trkpt><trkpt lat="45.755133341469765" lon="10.8047486435642"><ele>86.0</ele><time>2026-04-06T10:00:08Z</time></trkpt><trkpt lat="45.75504198288377" lon="10.80464376661033"><ele>86.0</ele><time>2026-04-06T10:00:09Z</time></trkpt><trkpt lat="45.7549435646896" lon="10.804566591281784"><ele>86.0</ele><time>2026-04-06T10:00:10Z</time></trkpt><trkpt lat="45.75483583869368" lon="10.804482877335683"><ele>86.0</ele><time>2026-04-06T10:00:11Z</time></trkpt><trkpt lat="45.75472285887953" lon="10.804395117496682"><ele>86.0</ele><time>2026-04-06T10:00:12Z</time></trkpt><trkpt lat="45.754618553455906" lon="10.804304875552859"><ele>86.0</ele><time>2026-04-06T10:00:13Z</time></trkpt><trkpt lat="45.75452728632864" lon="10.804207995339757"><ele>86.0</ele><time>2026-04-06T10:00:14Z</time></trkpt><trkpt lat="45.75443422435647" lon="10.804133562286944"><ele>86.0</ele><time>2026-04-06T10:00:15Z</time></trkpt><trkpt lat="45.75436379887528" lon="10.804020316849664"><ele>86.0</ele><time>2026-04-06T10:00:16Z</time></trkpt><trkpt lat="45.75430138323941" lon="10.80389482472957"><ele>86.0</ele><time>2026-04-06T10:00:17Z</time></trkpt><trkpt lat="45.754242238527695" lon="10.803752160204828"><ele>86.0</ele><time>2026-04-06T10:00:18Z</time></trkpt><trkpt lat="45.754210809510745" lon="10.803585276915847"><ele>85.25</ele><time>2026-04-06T10:00:19Z</time></trkpt><trkpt lat="45.754153054797705" lon="10.803438975787975"><ele>84.5</ele><time>2026-04-06T10:00:20Z</time></trkpt><trkpt lat="45.754124852247" lon="10.803264468728473"><ele>83.75</ele><time>2026-04-06T10:00:21Z</time></trkpt><trkpt lat="45.75410227651153" lon="10.803089278708494"><ele>83.0</ele><time>2026-04-06T10:00:22Z</time></trkpt><trkpt lat="45.75408103504046" lon="10.802911918874827"><ele>83.0</ele><time>2026-04-06T10:00:23Z</time></trkpt><trkpt lat="45.75406042278549" lon="10.802752601724242"><ele>83.0</ele><time>2026-04-06T10:00:24Z</time></trkpt><trkpt lat="45.754040810081385" lon="10.802602332218967"><ele>83.0</ele><time>2026-04-06T10:00:25Z</time></trkpt><trkpt lat="45.75404677249452" lon="10.802450883218276"><ele>83.0</ele><time>2026-04-06T10:00:26Z</time></trkpt><trkpt lat="45.75402750688367" lon="10.80229692840924"><ele>83.0</ele><time>2026-04-06T10:00:27Z</time></trkpt><trkpt lat="45.754009595553555" lon="10.80214864188965"><ele>83.0</ele><time>2026-04-06T10:00:28Z</time></trkpt><trkpt lat="45.75399303758151" lon="10.801994739612166"><ele>83.0</ele><time>2026-04-06T10:00:29Z</time></trkpt><trkpt lat="45.753981676806525" lon="10.801834375710477"><ele>83.0</ele><time>2026-04-06T10:00:30Z</time></trkpt><trkpt lat="45.75395478277307" lon="10.801678058803914"><ele>83.0</ele><time>2026-04-06T10:00:31Z</time></trkpt><trkpt lat="45.75395906835836" lon="10.801526944951176"><ele>83.0</ele><time>2026-04-06T10:00:32Z</time></trkpt><trkpt lat="45.753975244140754" lon="10.801388136745699"><ele>83.2</ele><time>2026-04-06T10:00:33Z</time></trkpt><trkpt lat="45.75400085195032" lon="10.80124784848769"><ele>83.4</ele><time>2026-04-06T10:00:34Z</time></trkpt><trkpt lat="45.75403360985409" lon="10.801100358709213"><ele>83.60000000000001</ele><time>2026-04-06T10:00:35Z</time></trkpt><trkpt lat="45.754071671791536" lon="10.800946146708267"><ele>83.80000000000001</ele><time>2026-04-06T10:00:36Z</time></trkpt><trkpt lat="45.75411043519215" lon="10.800789224902832"><ele>84.0</ele><time>2026-04-06T10:00:37Z</time></trkpt><trkpt lat="45.75414050800359" lon="10.800628461760445"><ele>83.80000000000001</ele><time>2026-04-06T10:00:38Z</time></trkpt><trkpt lat="45.754155297625466" lon="10.80046351427259"><ele>83.60000000000001</ele><time>2026-04-06T10:00:39Z</time></trkpt><trkpt lat="45.75414597402964" lon="10.800300243311293"><ele>83.4</ele><time>2026-04-06T10:00:40Z</time></trkpt><trkpt lat="45.75413001893608" lon="10.80015350746401"><ele>83.2</ele><time>2026-04-06T10:00:41Z</time></trkpt><trkpt lat="45.75409671677145" lon="10.800030405835116"><ele>83.0</ele><time>2026-04-06T10:00:42Z</time></trkpt><trkpt lat="45.75405923798759" lon="10.799914709945888"><ele>83.0</ele><time>2026-04-06T10:00:43Z</time></trkpt><trkpt lat="45.75400676281437" lon="10.799789743312983"><ele>83.0</ele><time>2026-04-06T10:00:44Z</time></trkpt><trkpt lat="45.75393764202077" lon="10.79965727343165"><ele>83.0</ele><time>2026-04-06T10:00:45Z</time></trkpt><trkpt lat="45.75386166005474" lon="10.79951811600213"><ele>83.0</ele><time>2026-04-06T10:00:46Z</time></trkpt><trkpt lat="45.75378234291644" lon="10.799379264638757"><ele>79.75</ele><time>2026-04-06T10:00:47Z</time></trkpt><trkpt lat="45.75370618307014" lon="10.79924170586391"><ele>76.5</ele><time>2026-04-06T10:00:48Z</time></trkpt><trkpt lat="45.753622940545505" lon="10.799112079194467"><ele>73.25</ele><time>2026-04-06T10:00:49Z</time></trkpt><trkpt lat="45.75353592920087" lon="10.798994018292364"><ele>70.0</ele><time>2026-04-06T10:00:50Z</time></trkpt><trkpt lat="45.753438664428565" lon="10.798888980851585"><ele>76.75</ele><time>2026-04-06T10:00:51Z</time></trkpt><trkpt lat="45.75333173263239" lon="10.798803557143843"><ele>83.5</ele><time>2026-04-06T10:00:52Z</time></trkpt><trkpt lat="45.75321798304043" lon="10.798737550665061"><ele>90.25</ele><time>2026-04-06T10:00:53Z</time></trkpt><trkpt lat="45.75309927967731" lon="10.798695531745539"><ele>97.0</ele><time>2026-04-06T10:00:54Z</time></trkpt><trkpt lat="45.75297393262616" lon="10.798657568831162"><ele>97.0</ele><time>2026-04-06T10:00:55Z</time></trkpt><trkpt lat="45.752850272206345" lon="10.798645375518252"><ele>97.0</ele><time>2026-04-06T10:00:56Z</time></trkpt><trkpt lat="45.75272431555082" lon="10.798648819718975"><ele>97.0</ele><time>2026-04-06T10:00:57Z</time></trkpt><trkpt lat="45.75260830692203" lon="10.798655116792565"><ele>97.0</ele><time>2026-04-06T10:00:58Z</time></trkpt><trkpt lat="45.75251248943102" lon="10.798658644117417"><ele>97.0</ele><time>2026-04-06T10:00:59Z</time></trkpt><trkpt lat="45.75242626739615" lon="10.79865953299434"><ele>97.0</ele><time>2026-04-06T10:01:00Z</time></trkpt><trkpt lat="45.75233874267672" lon="10.798653809568819"><ele>97.0</ele><time>2026-04-06T10:01:01Z</time></trkpt><trkpt lat="45.75224787710109" lon="10.798647286599891"><ele>97.0</ele><time>2026-04-06T10:01:02Z</time></trkpt><trkpt lat="45.7521534395694" lon="10.798646659226545"><ele>97.0</ele><time>2026-04-06T10:01:03Z</time></trkpt><trkpt lat="45.75206092309862" lon="10.79864373963687"><ele>97.00000000000001</ele><time>2026-04-06T10:01:04Z</time></trkpt><trkpt lat="45.75197047577549" lon="10.798640451698818"><ele>97.0</ele><time>2026-04-06T10:01:05Z</time></trkpt><trkpt lat="45.75188291266376" lon="10.798632705787904"><ele>97.0</ele><time>2026-04-06T10:01:06Z</time></trkpt><trkpt lat="45.75180019657286" lon="10.798621133763886"><ele>97.0</ele><time>2026-04-06T10:01:07Z</time></trkpt><trkpt lat="45.751716480168646" lon="10.798613365920605"><ele>97.00000000000001</ele><time>2026-04-06T10:01:08Z</time></trkpt><trkpt lat="45.751636351119274" lon="10.798607435595388"><ele>97.0</ele><time>2026-04-06T10:01:09Z</time></trkpt><trkpt lat="45.75156522115294" lon="10.798600224714502"><ele>95.8</ele><time>2026-04-06T10:01:10Z</time></trkpt><trkpt lat="45.75149650358004" lon="10.798596634727708"><ele>94.6</ele><time>2026-04-06T10:01:11Z</time></trkpt><trkpt lat="45.751368073780284" lon="10.798581444776088"><ele>93.39999999999999</ele><time>2026-04-06T10:01:13Z</time></trkpt><trkpt lat="45.75130490736319" lon="10.798574738866725"><ele>92.19999999999999</ele><time>2026-04-06T10:01:14Z</time></trkpt><trkpt lat="45.75117616841494" lon="10.798550869479666"><ele>91.0</ele><time>2026-04-06T10:01:16Z</time></trkpt><trkpt lat="45.7511083361369" lon="10.798542414077222"><ele>91.0</ele><time>2026-04-06T10:01:17Z</time></trkpt><trkpt lat="45.75104560880324" lon="10.79853099626962"><ele>91.0</ele><time>2026-04-06T10:01:18Z</time></trkpt><trkpt lat="45.75093641880644" lon="10.798496595310024"><ele>91.0</ele><time>2026-04-06T10:01:20Z</time></trkpt><trkpt lat="45.75087797262485" lon="10.7984605327139"><ele>91.0</ele><time>2026-04-06T10:01:21Z</time></trkpt><trkpt lat="45.750820191893176" lon="10.798413881853882"><ele>91.0</ele><time>2026-04-06T10:01:22Z</time></trkpt><trkpt lat="45.75075987471945" lon="10.79838063951135"><ele>91.0</ele><time>2026-04-06T10:01:23Z</time></trkpt><trkpt lat="45.75066035438122" lon="10.798368015381598"><ele>90.33333333333333</ele><time>2026-04-06T10:01:25Z</time></trkpt><trkpt lat="45.75053339870806" lon="10.798396568880255"><ele>89.66666666666666</ele><time>2026-04-06T10:01:27Z</time></trkpt><trkpt lat="45.75046203837232" lon="10.79842526712634"><ele>89.0</ele><time>2026-04-06T10:01:28Z</time></trkpt><trkpt lat="45.75039768678005" lon="10.79845039259248"><ele>88.33333333333333</ele><time>2026-04-06T10:01:29Z</time></trkpt><trkpt lat="45.7503324284928" lon="10.79846331642703"><ele>87.66666666666667</ele><time>2026-04-06T10:01:30Z</time></trkpt><trkpt lat="45.75026308045859" lon="10.79847550653042"><ele>87.0</ele><time>2026-04-06T10:01:31Z</time></trkpt><trkpt lat="45.75017126439948" lon="10.798499662271475"><ele>86.5</ele><time>2026-04-06T10:01:32Z</time></trkpt><trkpt lat="45.750049619504445" lon="10.798512122461267"><ele>86.0</ele><time>2026-04-06T10:01:33Z</time></trkpt><trkpt lat="45.749924450162446" lon="10.798579408976229"><ele>85.5</ele><time>2026-04-06T10:01:34Z</time></trkpt><trkpt lat="45.74979066713529" lon="10.798636136832673"><ele>85.0</ele><time>2026-04-06T10:01:35Z</time></trkpt><trkpt lat="45.74965447369478" lon="10.79871223135793"><ele>85.0</ele><time>2026-04-06T10:01:36Z</time></trkpt><trkpt lat="45.749517388334134" lon="10.798793529533146"><ele>85.0</ele><time>2026-04-06T10:01:37Z</time></trkpt><trkpt lat="45.74937764900706" lon="10.798884739693847"><ele>85.0</ele><time>2026-04-06T10:01:38Z</time></trkpt><trkpt lat="45.749236806104065" lon="10.798975498572858"><ele>83.0</ele><time>2026-04-06T10:01:39Z</time></trkpt><trkpt lat="45.74909425910577" lon="10.79906530068992"><ele>81.0</ele><time>2026-04-06T10:01:40Z</time></trkpt><trkpt lat="45.74894750310773" lon="10.799160395975452"><ele>79.0</ele><time>2026-04-06T10:01:41Z</time></trkpt><trkpt lat="45.748802958264164" lon="10.799256821291515"><ele>80.0</ele><time>2026-04-06T10:01:42Z</time></trkpt><trkpt lat="45.74866083494521" lon="10.799357274390115"><ele>81.0</ele><time>2026-04-06T10:01:43Z</time></trkpt><trkpt lat="45.74852149585374" lon="10.799443106578364"><ele>82.0</ele><time>2026-04-06T10:01:44Z</time></trkpt><trkpt lat="45.74839053551839" lon="10.799534728868839"><ele>82.0</ele><time>2026-04-06T10:01:45Z</time></trkpt><trkpt lat="45.74826336433373" lon="10.799613889190459"><ele>82.0</ele><time>2026-04-06T10:01:46Z</time></trkpt><trkpt lat="45.74813988800239" lon="10.799694464680151"><ele>82.0</ele><time>2026-04-06T10:01:47Z</time></trkpt><trkpt lat="45.74801705832143" lon="10.799774122057004"><ele>82.0</ele><time>2026-04-06T10:01:48Z</time></trkpt><trkpt lat="45.747892829565664" lon="10.799846579610307"><ele>82.0</ele><time>2026-04-06T10:01:49Z</time></trkpt><trkpt lat="45.747765067141046" lon="10.799919096895586"><ele>82.0</ele><time>2026-04-06T10:01:50Z</time></trkpt><trkpt lat="45.74763610896823" lon="10.799984114653004"><ele>82.0</ele><time>2026-04-06T10:01:51Z</time></trkpt><trkpt lat="45.74751309875774" lon="10.800040695066333"><ele>82.0</ele><time>2026-04-06T10:01:52Z</time></trkpt><trkpt lat="45.74739620305797" lon="10.800091370920795"><ele>83.0</ele><time>2026-04-06T10:01:53Z</time></trkpt><trkpt lat="45.747279975845416" lon="10.800137079609652"><ele>84.0</ele><time>2026-04-06T10:01:54Z</time></trkpt><trkpt lat="45.747174965074066" lon="10.800175367249931"><ele>85.0</ele><time>2026-04-06T10:01:55Z</time></trkpt><trkpt lat="45.74707063936874" lon="10.800220484702374"><ele>86.0</ele><time>2026-04-06T10:01:56Z</time></trkpt><trkpt lat="45.74696394606893" lon="10.800264174323921"><ele>87.0</ele><time>2026-04-06T10:01:57Z</time></trkpt><trkpt lat="45.74685706734537" lon="10.800305382429075"><ele>87.0</ele><time>2026-04-06T10:01:58Z</time></trkpt><trkpt lat="45.746750563087176" lon="10.800337632217627"><ele>87.0</ele><time>2026-04-06T10:01:59Z</time></trkpt><trkpt lat="45.74664603239601" lon="10.800363182632427"><ele>87.0</ele><time>2026-04-06T10:02:00Z</time></trkpt><trkpt lat="45.74653605351454" lon="10.80037804220444"><ele>87.0</ele><time>2026-04-06T10:02:01Z</time></trkpt><trkpt lat="45.74642070968316" lon="10.800373208396074"><ele>87.0</ele><time>2026-04-06T10:02:02Z</time></trkpt><trkpt lat="45.746301079025244" lon="10.800350737773913"><ele>87.0</ele><time>2026-04-06T10:02:03Z</time></trkpt><trkpt lat="45.74618676193747" lon="10.800316500165373"><ele>87.0</ele><time>2026-04-06T10:02:04Z</time></trkpt><trkpt lat="45.7460730072721" lon="10.800267572200072"><ele>87.0</ele><time>2026-04-06T10:02:05Z</time></trkpt><trkpt lat="45.74596142446245" lon="10.80020702742708"><ele>87.0</ele><time>2026-04-06T10:02:06Z</time></trkpt><trkpt lat="45.745856303004295" lon="10.800139421209167"><ele>84.25</ele><time>2026-04-06T10:02:07Z</time></trkpt><trkpt lat="45.74575493042867" lon="10.800054012770294"><ele>81.5</ele><time>2026-04-06T10:02:08Z</time></trkpt><trkpt lat="45.74566863650605" lon="10.79993748296793"><ele>78.75</ele><time>2026-04-06T10:02:09Z</time></trkpt><trkpt lat="45.74555739344925" lon="10.799844549743991"><ele>76.0</ele><time>2026-04-06T10:02:10Z</time></trkpt><trkpt lat="45.74546463330644" lon="10.7997113457805"><ele>76.0</ele><time>2026-04-06T10:02:11Z</time></trkpt><trkpt lat="45.745371493765454" lon="10.799607080992716"><ele>76.0</ele><time>2026-04-06T10:02:12Z</time></trkpt><trkpt lat="45.74527456074491" lon="10.7994988766084"><ele>76.0</ele><time>2026-04-06T10:02:13Z</time></trkpt><trkpt lat="45.745179778144944" lon="10.79939352736889"><ele>76.0</ele><time>2026-04-06T10:02:14Z</time></trkpt><trkpt lat="45.745078278788014" lon="10.799310572737621"><ele>76.0</ele><time>2026-04-06T10:02:15Z</time></trkpt><trkpt lat="45.744988643183" lon="10.799208085296147"><ele>76.0</ele><time>2026-04-06T10:02:16Z</time></trkpt><trkpt lat="45.74490344932815" lon="10.799113812171152"><ele>76.0</ele><time>2026-04-06T10:02:17Z</time></trkpt><trkpt lat="45.74482429079167" lon="10.799027477141692"><ele>76.0</ele><time>2026-04-06T10:02:18Z</time></trkpt><trkpt lat="45.74474784488576" lon="10.798913442268388"><ele>76.0</ele><time>2026-04-06T10:02:19Z</time></trkpt><trkpt lat="45.74465665003278" lon="10.798812080468736"><ele>76.0</ele><time>2026-04-06T10:02:20Z</time></trkpt><trkpt lat="45.744561329238635" lon="10.798732299604968"><ele>76.0</ele><time>2026-04-06T10:02:21Z</time></trkpt><trkpt lat="45.74448208405069" lon="10.79863807640011"><ele>76.0</ele><time>2026-04-06T10:02:22Z</time></trkpt><trkpt lat="45.74440217316596" lon="10.798549935864312"><ele>76.0</ele><time>2026-04-06T10:02:23Z</time></trkpt><trkpt lat="45.74431712411782" lon="10.798463352569998"><ele>76.0</ele><time>2026-04-06T10:02:24Z</time></trkpt><trkpt lat="45.74422464835921" lon="10.798375373742319"><ele>75.39999999999999</ele><time>2026-04-06T10:02:25Z</time></trkpt><trkpt lat="45.744124959766744" lon="10.798297283077787"><ele>74.8</ele><time>2026-04-06T10:02:26Z</time></trkpt><trkpt lat="45.74402310581545" lon="10.798235167727777"><ele>74.19999999999999</ele><time>2026-04-06T10:02:27Z</time></trkpt><trkpt lat="45.743927535426074" lon="10.798188550364983"><ele>73.6</ele><time>2026-04-06T10:02:28Z</time></trkpt><trkpt lat="45.74383318906042" lon="10.798148832061626"><ele>73.0</ele><time>2026-04-06T10:02:29Z</time></trkpt><trkpt lat="45.743733351227526" lon="10.798105325489415"><ele>73.0</ele><time>2026-04-06T10:02:30Z</time></trkpt><trkpt lat="45.74363061985934" lon="10.798057093168081"><ele>73.0</ele><time>2026-04-06T10:02:31Z</time></trkpt><trkpt lat="45.74352660087492" lon="10.798009640348646"><ele>73.0</ele><time>2026-04-06T10:02:32Z</time></trkpt><trkpt lat="45.74343210845573" lon="10.797967638074361"><ele>73.0</ele><time>2026-04-06T10:02:33Z</time></trkpt><trkpt lat="45.74334671268792" lon="10.797893457806358"><ele>73.0</ele><time>2026-04-06T10:02:34Z</time></trkpt><trkpt lat="45.74325062054346" lon="10.797833923303015"><ele>71.5</ele><time>2026-04-06T10:02:35Z</time></trkpt><trkpt lat="45.74314646024863" lon="10.797763279943998"><ele>70.0</ele><time>2026-04-06T10:02:36Z</time></trkpt><trkpt lat="45.743039810582886" lon="10.797686817528055"><ele>68.5</ele><time>2026-04-06T10:02:37Z</time></trkpt><trkpt lat="45.74294280001712" lon="10.79761698795812"><ele>67.0</ele><time>2026-04-06T10:02:38Z</time></trkpt><trkpt lat="45.74282773531269" lon="10.797534178644751"><ele>70.66666666666666</ele><time>2026-04-06T10:02:39Z</time></trkpt><trkpt lat="45.742698250826734" lon="10.797439425235845"><ele>74.33333333333333</ele><time>2026-04-06T10:02:40Z</time></trkpt><trkpt lat="45.742557297896546" lon="10.79733627948013"><ele>78.0</ele><time>2026-04-06T10:02:41Z</time></trkpt><trkpt lat="45.742408822120595" lon="10.79722762870699"><ele>78.0</ele><time>2026-04-06T10:02:42Z</time></trkpt><trkpt lat="45.742261467707976" lon="10.79711979853471"><ele>78.0</ele><time>2026-04-06T10:02:43Z</time></trkpt><trkpt lat="45.7421236129862" lon="10.797018919893887"><ele>78.0</ele><time>2026-04-06T10:02:44Z</time></trkpt><trkpt lat="45.74200153643165" lon="10.796929495449799"><ele>78.0</ele><time>2026-04-06T10:02:45Z</time></trkpt><trkpt lat="45.741896308739356" lon="10.79685200349608"><ele>78.0</ele><time>2026-04-06T10:02:46Z</time></trkpt><trkpt lat="45.74179457921782" lon="10.796777087646447"><ele>78.0</ele><time>2026-04-06T10:02:47Z</time></trkpt><trkpt lat="45.74168182013234" lon="10.796694049162463"><ele>78.0</ele><time>2026-04-06T10:02:48Z</time></trkpt><trkpt lat="45.74155300934963" lon="10.796595567460034"><ele>79.5</ele><time>2026-04-06T10:02:49Z</time></trkpt><trkpt lat="45.741422394188305" lon="10.796494196501527"><ele>81.0</ele><time>2026-04-06T10:02:50Z</time></trkpt><trkpt lat="45.74129279490649" lon="10.79639129034993"><ele>82.5</ele><time>2026-04-06T10:02:51Z</time></trkpt><trkpt lat="45.74115629764937" lon="10.796302524866764"><ele>84.0</ele><time>2026-04-06T10:02:52Z</time></trkpt><trkpt lat="45.74102824024225" lon="10.796200473952467"><ele>84.0</ele><time>2026-04-06T10:02:53Z</time></trkpt><trkpt lat="45.74090413301379" lon="10.796101770754989"><ele>84.0</ele><time>2026-04-06T10:02:54Z</time></trkpt><trkpt lat="45.74078794988165" lon="10.795984445481139"><ele>84.0</ele><time>2026-04-06T10:02:55Z</time></trkpt><trkpt lat="45.74065886904232" lon="10.795907646303842"><ele>84.0</ele><time>2026-04-06T10:02:56Z</time></trkpt><trkpt lat="45.74053570316451" lon="10.795820474522786"><ele>82.75</ele><time>2026-04-06T10:02:57Z</time></trkpt><trkpt lat="45.74040187144585" lon="10.795761105303205"><ele>81.5</ele><time>2026-04-06T10:02:58Z</time></trkpt><trkpt lat="45.74026533004434" lon="10.795720805041473"><ele>80.25</ele><time>2026-04-06T10:02:59Z</time></trkpt><trkpt lat="45.74012254096496" lon="10.795689171529531"><ele>79.0</ele><time>2026-04-06T10:03:00Z</time></trkpt><trkpt lat="45.739976692729925" lon="10.795660363556435"><ele>79.0</ele><time>2026-04-06T10:03:01Z</time></trkpt><trkpt lat="45.739826449075494" lon="10.795630017342857"><ele>79.0</ele><time>2026-04-06T10:03:02Z</time></trkpt><trkpt lat="45.73968071390586" lon="10.795579474729584"><ele>79.0</ele><time>2026-04-06T10:03:03Z</time></trkpt><trkpt lat="45.73953977971685" lon="10.79550689916686"><ele>79.0</ele><time>2026-04-06T10:03:04Z</time></trkpt><trkpt lat="45.739405970207486" lon="10.795416910390399"><ele>79.0</ele><time>2026-04-06T10:03:05Z</time></trkpt><trkpt lat="45.73927736132694" lon="10.795299978388227"><ele>79.0</ele><time>2026-04-06T10:03:06Z</time></trkpt><trkpt lat="45.73915914788396" lon="10.795156521071643"><ele>77.33333333333333</ele><time>2026-04-06T10:03:07Z</time></trkpt><trkpt lat="45.73905470299887" lon="10.79499387387587"><ele>75.66666666666667</ele><time>2026-04-06T10:03:08Z</time></trkpt><trkpt lat="45.73896020170045" lon="10.794815987882695"><ele>74.0</ele><time>2026-04-06T10:03:09Z</time></trkpt><trkpt lat="45.738871308894694" lon="10.794626493719887"><ele>74.0</ele><time>2026-04-06T10:03:10Z</time></trkpt><trkpt lat="45.738779820702426" lon="10.79444133803877"><ele>74.0</ele><time>2026-04-06T10:03:11Z</time></trkpt><trkpt lat="45.7387032363094" lon="10.794240056435159"><ele>74.0</ele><time>2026-04-06T10:03:12Z</time></trkpt><trkpt lat="45.738613188746044" lon="10.794049104283506"><ele>77.0</ele><time>2026-04-06T10:03:13Z</time></trkpt><trkpt lat="45.738520141931424" lon="10.793860681972863"><ele>80.0</ele><time>2026-04-06T10:03:14Z</time></trkpt><trkpt lat="45.73841612609891" lon="10.793693944037491"><ele>83.0</ele><time>2026-04-06T10:03:15Z</time></trkpt><trkpt lat="45.73830667929538" lon="10.793533860980926"><ele>78.66666666666667</ele><time>2026-04-06T10:03:16Z</time></trkpt><trkpt lat="45.73818129117255" lon="10.793399033941768"><ele>74.33333333333333</ele><time>2026-04-06T10:03:17Z</time></trkpt><trkpt lat="45.73805243208463" lon="10.793283271054488"><ele>70.0</ele><time>2026-04-06T10:03:18Z</time></trkpt><trkpt lat="45.73791668397104" lon="10.793184700154068"><ele>70.0</ele><time>2026-04-06T10:03:19Z</time></trkpt><trkpt lat="45.73777445159916" lon="10.793098748807788"><ele>70.0</ele><time>2026-04-06T10:03:20Z</time></trkpt><trkpt lat="45.73763819890422" lon="10.793026009925608"><ele>70.0</ele><time>2026-04-06T10:03:21Z</time></trkpt><trkpt lat="45.73748947980388" lon="10.79297760586264"><ele>74.33333333333333</ele><time>2026-04-06T10:03:22Z</time></trkpt><trkpt lat="45.737341918804276" lon="10.792938051186047"><ele>78.66666666666667</ele><time>2026-04-06T10:03:23Z</time></trkpt><trkpt lat="45.73719268439155" lon="10.792889511983756"><ele>83.0</ele><time>2026-04-06T10:03:24Z</time></trkpt><trkpt lat="45.73706214208654" lon="10.792786315225861"><ele>83.0</ele><time>2026-04-06T10:03:25Z</time></trkpt><trkpt lat="45.73693493318752" lon="10.792677763809554"><ele>83.0</ele><time>2026-04-06T10:03:26Z</time></trkpt><trkpt lat="45.73680453280293" lon="10.792569868402852"><ele>83.0</ele><time>2026-04-06T10:03:27Z</time></trkpt><trkpt lat="45.73668434192071" lon="10.792434204490108"><ele>80.5</ele><time>2026-04-06T10:03:28Z</time></trkpt><trkpt lat="45.736563795960286" lon="10.792307570632437"><ele>78.0</ele><time>2026-04-06T10:03:29Z</time></trkpt><trkpt lat="45.736443569239185" lon="10.792178840786711"><ele>75.5</ele><time>2026-04-06T10:03:30Z</time></trkpt><trkpt lat="45.73632422444046" lon="10.792053653445839"><ele>73.0</ele><time>2026-04-06T10:03:31Z</time></trkpt><trkpt lat="45.736209352199005" lon="10.791936070317645"><ele>73.25</ele><time>2026-04-06T10:03:32Z</time></trkpt><trkpt lat="45.73610719154777" lon="10.791802084453147"><ele>73.5</ele><time>2026-04-06T10:03:33Z</time></trkpt><trkpt lat="45.73598717277138" lon="10.791717808227931"><ele>73.75</ele><time>2026-04-06T10:03:34Z</time></trkpt><trkpt lat="45.73589084451065" lon="10.791604770404627"><ele>74.0</ele><time>2026-04-06T10:03:35Z</time></trkpt><trkpt lat="45.735786751492626" lon="10.791513824063717"><ele>74.0</ele><time>2026-04-06T10:03:36Z</time></trkpt><trkpt lat="45.73568184265125" lon="10.791424767602997"><ele>74.0</ele><time>2026-04-06T10:03:37Z</time></trkpt><trkpt lat="45.735566839832906" lon="10.7913537009346"><ele>74.0</ele><time>2026-04-06T10:03:38Z</time></trkpt><trkpt lat="45.73546362150791" lon="10.79125481597916"><ele>74.0</ele><time>2026-04-06T10:03:39Z</time></trkpt><trkpt lat="45.73536101238754" lon="10.791158239853724"><ele>74.0</ele><time>2026-04-06T10:03:40Z</time></trkpt><trkpt lat="45.735256819264634" lon="10.791066797344271"><ele>74.0</ele><time>2026-04-06T10:03:41Z</time></trkpt><trkpt lat="45.73515437472769" lon="10.790974796021882"><ele>74.0</ele><time>2026-04-06T10:03:42Z</time></trkpt><trkpt lat="45.73505884716772" lon="10.790878814075963"><ele>74.0</ele><time>2026-04-06T10:03:43Z</time></trkpt><trkpt lat="45.73497080207524" lon="10.79077854039876"><ele>74.0</ele><time>2026-04-06T10:03:44Z</time></trkpt><trkpt lat="45.73488545843676" lon="10.790674194441833"><ele>74.0</ele><time>2026-04-06T10:03:45Z</time></trkpt><trkpt lat="45.734810516681655" lon="10.790547846260537"><ele>74.0</ele><time>2026-04-06T10:03:46Z</time></trkpt><trkpt lat="45.73472833943931" lon="10.790434422800804"><ele>74.0</ele><time>2026-04-06T10:03:47Z</time></trkpt><trkpt lat="45.73464870037013" lon="10.790315021167839"><ele>74.0</ele><time>2026-04-06T10:03:48Z</time></trkpt><trkpt lat="45.73455970645314" lon="10.79020203305871"><ele>74.0</ele><time>2026-04-06T10:03:49Z</time></trkpt><trkpt lat="45.73448147030905" lon="10.790074893748264"><ele>74.0</ele><time>2026-04-06T10:03:50Z</time></trkpt><trkpt lat="45.73440516039982" lon="10.789949607905776"><ele>74.0</ele><time>2026-04-06T10:03:51Z</time></trkpt><trkpt lat="45.73433237024272" lon="10.78982959779042"><ele>74.2</ele><time>2026-04-06T10:03:52Z</time></trkpt><trkpt lat="45.734259949097634" lon="10.789708664227652"><ele>74.4</ele><time>2026-04-06T10:03:53Z</time></trkpt><trkpt lat="45.73418631679303" lon="10.789594597663225"><ele>74.6</ele><time>2026-04-06T10:03:54Z</time></trkpt><trkpt lat="45.73412078372065" lon="10.78947060389254"><ele>74.8</ele><time>2026-04-06T10:03:55Z</time></trkpt><trkpt lat="45.73404971301044" lon="10.789350562563614"><ele>75.0</ele><time>2026-04-06T10:03:56Z</time></trkpt><trkpt lat="45.73398598000992" lon="10.789232821008465"><ele>73.8</ele><time>2026-04-06T10:03:57Z</time></trkpt><trkpt lat="45.73391027867124" lon="10.78912701662241"><ele>72.6</ele><time>2026-04-06T10:03:58Z</time></trkpt><trkpt lat="45.73384982896611" lon="10.78899261133458"><ele>71.4</ele><time>2026-04-06T10:03:59Z</time></trkpt><trkpt lat="45.733790370808684" lon="10.788856307016692"><ele>70.2</ele><time>2026-04-06T10:04:00Z</time></trkpt><trkpt lat="45.73371883336975" lon="10.788721084101272"><ele>69.0</ele><time>2026-04-06T10:04:01Z</time></trkpt><trkpt lat="45.73364643706951" lon="10.788588896580888"><ele>68.5</ele><time>2026-04-06T10:04:02Z</time></trkpt><trkpt lat="45.73356670343392" lon="10.788457117738993"><ele>68.0</ele><time>2026-04-06T10:04:03Z</time></trkpt><trkpt lat="45.73348673054051" lon="10.78833042602671"><ele>67.5</ele><time>2026-04-06T10:04:04Z</time></trkpt><trkpt lat="45.7334008908055" lon="10.78820701557747"><ele>67.0</ele><time>2026-04-06T10:04:05Z</time></trkpt><trkpt lat="45.73330948079069" lon="10.788095015511905"><ele>66.25</ele><time>2026-04-06T10:04:06Z</time></trkpt><trkpt lat="45.733211688384195" lon="10.787991120340905"><ele>65.5</ele><time>2026-04-06T10:04:07Z</time></trkpt><trkpt lat="45.73310668923068" lon="10.787867918963777"><ele>64.75</ele><time>2026-04-06T10:04:08Z</time></trkpt><trkpt lat="45.73297122671004" lon="10.787759760068791"><ele>64.0</ele><time>2026-04-06T10:04:09Z</time></trkpt><trkpt lat="45.7328216223972" lon="10.787656817959368"><ele>67.0</ele><time>2026-04-06T10:04:10Z</time></trkpt><trkpt lat="45.73266937119572" lon="10.78756188488076"><ele>70.0</ele><time>2026-04-06T10:04:11Z</time></trkpt><trkpt lat="45.7325161217764" lon="10.78748484833287"><ele>73.0</ele><time>2026-04-06T10:04:12Z</time></trkpt><trkpt lat="45.732368736628516" lon="10.78739145223458"><ele>73.0</ele><time>2026-04-06T10:04:13Z</time></trkpt><trkpt lat="45.73222240366689" lon="10.787303067926555"><ele>73.0</ele><time>2026-04-06T10:04:14Z</time></trkpt><trkpt lat="45.73207747213815" lon="10.78721344041504"><ele>73.0</ele><time>2026-04-06T10:04:15Z</time></trkpt><trkpt lat="45.731936896205305" lon="10.787120748190468"><ele>72.33333333333333</ele><time>2026-04-06T10:04:16Z</time></trkpt><trkpt lat="45.731811879531975" lon="10.786985597726796"><ele>71.66666666666667</ele><time>2026-04-06T10:04:17Z</time></trkpt><trkpt lat="45.7316949579765" lon="10.78684673261344"><ele>71.0</ele><time>2026-04-06T10:04:18Z</time></trkpt><trkpt lat="45.731591038358026" lon="10.786693840787258"><ele>71.0</ele><time>2026-04-06T10:04:19Z</time></trkpt><trkpt lat="45.73149700758015" lon="10.786528136984899"><ele>71.0</ele><time>2026-04-06T10:04:20Z</time></trkpt><trkpt lat="45.73141914407573" lon="10.786346887114282"><ele>71.0</ele><time>2026-04-06T10:04:21Z</time></trkpt><trkpt lat="45.73135459289874" lon="10.786150635242608"><ele>71.0</ele><time>2026-04-06T10:04:22Z</time></trkpt><trkpt lat="45.73128544564186" lon="10.785959266625225"><ele>68.33333333333334</ele><time>2026-04-06T10:04:23Z</time></trkpt><trkpt lat="45.73124385740131" lon="10.785746308095245"><ele>65.66666666666667</ele><time>2026-04-06T10:04:24Z</time></trkpt><trkpt lat="45.73120610694583" lon="10.785531042399704"><ele>63.0</ele><time>2026-04-06T10:04:25Z</time></trkpt><trkpt lat="45.73116807538997" lon="10.785317418595294"><ele>62.66666666666667</ele><time>2026-04-06T10:04:26Z</time></trkpt><trkpt lat="45.731124840646295" lon="10.785100401039411"><ele>62.333333333333336</ele><time>2026-04-06T10:04:27Z</time></trkpt><trkpt lat="45.73108436944829" lon="10.784887769787703"><ele>62.0</ele><time>2026-04-06T10:04:28Z</time></trkpt><trkpt lat="45.73103855872593" lon="10.784683367120689"><ele>65.33333333333334</ele><time>2026-04-06T10:04:29Z</time></trkpt><trkpt lat="45.730970167000486" lon="10.784485546890451"><ele>68.66666666666667</ele><time>2026-04-06T10:04:30Z</time></trkpt><trkpt lat="45.73088993312245" lon="10.784289211638546"><ele>72.0</ele><time>2026-04-06T10:04:31Z</time></trkpt><trkpt lat="45.730804368016095" lon="10.784101895160962"><ele>72.0</ele><time>2026-04-06T10:04:32Z</time></trkpt><trkpt lat="45.730717455319365" lon="10.783908968330971"><ele>72.0</ele><time>2026-04-06T10:04:33Z</time></trkpt><trkpt lat="45.73063247080123" lon="10.783721579406574"><ele>72.0</ele><time>2026-04-06T10:04:34Z</time></trkpt><trkpt lat="45.73054957600797" lon="10.783535841828062"><ele>69.66666666666667</ele><time>2026-04-06T10:04:35Z</time></trkpt><trkpt lat="45.73046618085591" lon="10.78334869884836"><ele>67.33333333333334</ele><time>2026-04-06T10:04:36Z</time></trkpt><trkpt lat="45.73039774355069" lon="10.78314893549972"><ele>65.0</ele><time>2026-04-06T10:04:37Z</time></trkpt><trkpt lat="45.730315640320214" lon="10.782963073533843"><ele>65.0</ele><time>2026-04-06T10:04:38Z</time></trkpt><trkpt lat="45.730234697781206" lon="10.782781259787722"><ele>65.0</ele><time>2026-04-06T10:04:39Z</time></trkpt><trkpt lat="45.73015235684218" lon="10.782596306189214"><ele>65.0</ele><time>2026-04-06T10:04:40Z</time></trkpt><trkpt lat="45.730060414294805" lon="10.782430152572655"><ele>65.0</ele><time>2026-04-06T10:04:41Z</time></trkpt><trkpt lat="45.729980731436385" lon="10.78224941197497"><ele>65.0</ele><time>2026-04-06T10:04:42Z</time></trkpt><trkpt lat="45.72990362609614" lon="10.78207648403937"><ele>65.0</ele><time>2026-04-06T10:04:43Z</time></trkpt><trkpt lat="45.72982058919503" lon="10.781907198568359"><ele>65.0</ele><time>2026-04-06T10:04:44Z</time></trkpt><trkpt lat="45.729725961380886" lon="10.781752643827293"><ele>65.0</ele><time>2026-04-06T10:04:45Z</time></trkpt><trkpt lat="45.72961703886676" lon="10.781614445387303"><ele>65.0</ele><time>2026-04-06T10:04:46Z</time></trkpt><trkpt lat="45.72949731344682" lon="10.781492895932358"><ele>65.0</ele><time>2026-04-06T10:04:47Z</time></trkpt><trkpt lat="45.72936839979423" lon="10.781396701040208"><ele>65.0</ele><time>2026-04-06T10:04:48Z</time></trkpt><trkpt lat="45.729233819720626" lon="10.781314497975426"><ele>66.75</ele><time>2026-04-06T10:04:49Z</time></trkpt><trkpt lat="45.729093213794556" lon="10.781257915182236"><ele>68.5</ele><time>2026-04-06T10:04:50Z</time></trkpt><trkpt lat="45.728946816124" lon="10.781219197106344"><ele>70.25</ele><time>2026-04-06T10:04:51Z</time></trkpt><trkpt lat="45.72881398406669" lon="10.781199457587418"><ele>72.0</ele><time>2026-04-06T10:04:52Z</time></trkpt><trkpt lat="45.728711953390174" lon="10.781185269380682"><ele>72.0</ele><time>2026-04-06T10:04:53Z</time></trkpt><trkpt lat="45.72862605621536" lon="10.78116915379149"><ele>72.0</ele><time>2026-04-06T10:04:54Z</time></trkpt><trkpt lat="45.728556359854714" lon="10.78114225441342"><ele>72.0</ele><time>2026-04-06T10:04:55Z</time></trkpt><trkpt lat="45.72848952830379" lon="10.781123454493144"><ele>72.0</ele><time>2026-04-06T10:04:56Z</time></trkpt><trkpt lat="45.72842052513271" lon="10.781126987537247"><ele>72.0</ele><time>2026-04-06T10:04:57Z</time></trkpt><trkpt lat="45.72832962252659" lon="10.781134061047846"><ele>72.0</ele><time>2026-04-06T10:04:58Z</time></trkpt><trkpt lat="45.728225577862574" lon="10.781127000771502"><ele>72.5</ele><time>2026-04-06T10:04:59Z</time></trkpt><trkpt lat="45.72810677837352" lon="10.781113997932108"><ele>73.0</ele><time>2026-04-06T10:05:00Z</time></trkpt><trkpt lat="45.72798813113225" lon="10.781100080303542"><ele>73.5</ele><time>2026-04-06T10:05:01Z</time></trkpt><trkpt lat="45.72786504800308" lon="10.781086289483609"><ele>74.0</ele><time>2026-04-06T10:05:02Z</time></trkpt><trkpt lat="45.72774239224698" lon="10.78107146866293"><ele>73.5</ele><time>2026-04-06T10:05:03Z</time></trkpt><trkpt lat="45.72761966464765" lon="10.781053777621887"><ele>73.0</ele><time>2026-04-06T10:05:04Z</time></trkpt><trkpt lat="45.72749627815493" lon="10.781037674695877"><ele>72.5</ele><time>2026-04-06T10:05:05Z</time></trkpt><trkpt lat="45.727370937009276" lon="10.781023458642647"><ele>72.0</ele><time>2026-04-06T10:05:06Z</time></trkpt><trkpt lat="45.72724512191426" lon="10.781013353741335"><ele>71.0</ele><time>2026-04-06T10:05:07Z</time></trkpt><trkpt lat="45.72711652800046" lon="10.781004673256058"><ele>70.0</ele><time>2026-04-06T10:05:08Z</time></trkpt><trkpt lat="45.72698837570484" lon="10.781003722518768"><ele>69.0</ele><time>2026-04-06T10:05:09Z</time></trkpt><trkpt lat="45.726861757449804" lon="10.78099880473209"><ele>68.0</ele><time>2026-04-06T10:05:10Z</time></trkpt><trkpt lat="45.72673416793375" lon="10.780997546924851"><ele>68.0</ele><time>2026-04-06T10:05:11Z</time></trkpt><trkpt lat="45.72660259551586" lon="10.780997543458275"><ele>68.0</ele><time>2026-04-06T10:05:12Z</time></trkpt><trkpt lat="45.726476575398365" lon="10.780999301547018"><ele>68.0</ele><time>2026-04-06T10:05:13Z</time></trkpt><trkpt lat="45.726347789779936" lon="10.781006312954743"><ele>68.0</ele><time>2026-04-06T10:05:14Z</time></trkpt><trkpt lat="45.72621612955822" lon="10.781012649566996"><ele>69.0</ele><time>2026-04-06T10:05:15Z</time></trkpt><trkpt lat="45.726082648529186" lon="10.781021008728933"><ele>70.0</ele><time>2026-04-06T10:05:16Z</time></trkpt><trkpt lat="45.725948676629955" lon="10.781032001709177"><ele>71.0</ele><time>2026-04-06T10:05:17Z</time></trkpt><trkpt lat="45.72581170237109" lon="10.781041963049406"><ele>72.0</ele><time>2026-04-06T10:05:18Z</time></trkpt><trkpt lat="45.72567432239802" lon="10.78105123268601"><ele>72.25</ele><time>2026-04-06T10:05:19Z</time></trkpt><trkpt lat="45.72553595463656" lon="10.781062257299876"><ele>72.5</ele><time>2026-04-06T10:05:20Z</time></trkpt><trkpt lat="45.72539613489839" lon="10.781075241061625"><ele>72.75</ele><time>2026-04-06T10:05:21Z</time></trkpt><trkpt lat="45.7252562360571" lon="10.781087804104898"><ele>73.0</ele><time>2026-04-06T10:05:22Z</time></trkpt><trkpt lat="45.72511560243008" lon="10.781101447067881"><ele>73.5</ele><time>2026-04-06T10:05:23Z</time></trkpt><trkpt lat="45.72497321817968" lon="10.781112174357325"><ele>74.0</ele><time>2026-04-06T10:05:24Z</time></trkpt><trkpt lat="45.724829852295464" lon="10.781124089529333"><ele>74.5</ele><time>2026-04-06T10:05:25Z</time></trkpt><trkpt lat="45.7246844914528" lon="10.781141879221114"><ele>75.0</ele><time>2026-04-06T10:05:26Z</time></trkpt><trkpt lat="45.72454141659688" lon="10.781171312844485"><ele>75.0</ele><time>2026-04-06T10:05:27Z</time></trkpt><trkpt lat="45.72439811592363" lon="10.781202830224679"><ele>75.0</ele><time>2026-04-06T10:05:28Z</time></trkpt><trkpt lat="45.724255756780344" lon="10.781239469527698"><ele>75.0</ele><time>2026-04-06T10:05:29Z</time></trkpt><trkpt lat="45.72411271670589" lon="10.781278161692486"><ele>75.0</ele><time>2026-04-06T10:05:30Z</time></trkpt><trkpt lat="45.72396832754392" lon="10.781307966125489"><ele>75.5</ele><time>2026-04-06T10:05:31Z</time></trkpt><trkpt lat="45.723822129085356" lon="10.781322275297605"><ele>76.0</ele><time>2026-04-06T10:05:32Z</time></trkpt><trkpt lat="45.723675343884004" lon="10.78130905422029"><ele>76.5</ele><time>2026-04-06T10:05:33Z</time></trkpt><trkpt lat="45.723530160029334" lon="10.781275447410067"><ele>77.0</ele><time>2026-04-06T10:05:34Z</time></trkpt><trkpt lat="45.72338851871578" lon="10.7812177194369"><ele>78.0</ele><time>2026-04-06T10:05:35Z</time></trkpt><trkpt lat="45.72325218493092" lon="10.781136497429847"><ele>79.0</ele><time>2026-04-06T10:05:36Z</time></trkpt><trkpt lat="45.7231218201561" lon="10.781029171459426"><ele>80.0</ele><time>2026-04-06T10:05:37Z</time></trkpt><trkpt lat="45.722997924125295" lon="10.780912137149233"><ele>81.0</ele><time>2026-04-06T10:05:38Z</time></trkpt><trkpt lat="45.72287695331302" lon="10.780790602768876"><ele>80.0</ele><time>2026-04-06T10:05:39Z</time></trkpt><trkpt lat="45.72275045496662" lon="10.78067337372544"><ele>79.0</ele><time>2026-04-06T10:05:40Z</time></trkpt><trkpt lat="45.72262493490814" lon="10.780557480898635"><ele>78.0</ele><time>2026-04-06T10:05:41Z</time></trkpt><trkpt lat="45.72249763418146" lon="10.7804398890377"><ele>78.0</ele><time>2026-04-06T10:05:42Z</time></trkpt><trkpt lat="45.72237072679705" lon="10.78032172964569"><ele>78.0</ele><time>2026-04-06T10:05:43Z</time></trkpt><trkpt lat="45.722243162358275" lon="10.780205810917117"><ele>78.0</ele><time>2026-04-06T10:05:44Z</time></trkpt><trkpt lat="45.72211356236249" lon="10.780086047841177"><ele>78.66666666666667</ele><time>2026-04-06T10:05:45Z</time></trkpt><trkpt lat="45.72198528662733" lon="10.779968012852931"><ele>79.33333333333334</ele><time>2026-04-06T10:05:46Z</time></trkpt><trkpt lat="45.721857165693386" lon="10.779848469395533"><ele>80.0</ele><time>2026-04-06T10:05:47Z</time></trkpt><trkpt lat="45.72172919235594" lon="10.779730043566659"><ele>80.0</ele><time>2026-04-06T10:05:48Z</time></trkpt><trkpt lat="45.72160292270626" lon="10.779614413212322"><ele>80.0</ele><time>2026-04-06T10:05:49Z</time></trkpt><trkpt lat="45.72147443201737" lon="10.779497950188665"><ele>80.0</ele><time>2026-04-06T10:05:50Z</time></trkpt><trkpt lat="45.72135007908053" lon="10.779380431015436"><ele>79.75</ele><time>2026-04-06T10:05:51Z</time></trkpt><trkpt lat="45.72123086216469" lon="10.779258480729716"><ele>79.5</ele><time>2026-04-06T10:05:52Z</time></trkpt><trkpt lat="45.72113405609272" lon="10.779154344930918"><ele>79.25</ele><time>2026-04-06T10:05:53Z</time></trkpt><trkpt lat="45.72106070376377" lon="10.779069784467882"><ele>79.0</ele><time>2026-04-06T10:05:54Z</time></trkpt><trkpt lat="45.72098847986882" lon="10.778986096900761"><ele>79.0</ele><time>2026-04-06T10:05:55Z</time></trkpt><trkpt lat="45.72090784622712" lon="10.778891879252361"><ele>79.0</ele><time>2026-04-06T10:05:56Z</time></trkpt><trkpt lat="45.72082162290522" lon="10.778783332688668"><ele>79.0</ele><time>2026-04-06T10:05:57Z</time></trkpt><trkpt lat="45.72072992725357" lon="10.778669698937302"><ele>79.0</ele><time>2026-04-06T10:05:58Z</time></trkpt><trkpt lat="45.72063277324237" lon="10.778548806720625"><ele>76.5</ele><time>2026-04-06T10:05:59Z</time></trkpt><trkpt lat="45.72053762975521" lon="10.778412838558594"><ele>74.0</ele><time>2026-04-06T10:06:00Z</time></trkpt><trkpt lat="45.72044505121543" lon="10.778266170899826"><ele>71.5</ele><time>2026-04-06T10:06:01Z</time></trkpt><trkpt lat="45.720355331275826" lon="10.778113453009633"><ele>69.0</ele><time>2026-04-06T10:06:02Z</time></trkpt><trkpt lat="45.72026361053471" lon="10.777955086685997"><ele>69.5</ele><time>2026-04-06T10:06:03Z</time></trkpt><trkpt lat="45.7201746500941" lon="10.777798795479779"><ele>70.0</ele><time>2026-04-06T10:06:04Z</time></trkpt><trkpt lat="45.72008204800312" lon="10.777636941593332"><ele>70.5</ele><time>2026-04-06T10:06:05Z</time></trkpt><trkpt lat="45.71999269303125" lon="10.777474922937206"><ele>71.0</ele><time>2026-04-06T10:06:06Z</time></trkpt><trkpt lat="45.719895171986295" lon="10.777316376943922"><ele>71.0</ele><time>2026-04-06T10:06:07Z</time></trkpt><trkpt lat="45.71979713656761" lon="10.777156984600268"><ele>71.0</ele><time>2026-04-06T10:06:08Z</time></trkpt><trkpt lat="45.71969694933119" lon="10.77699368661469"><ele>71.0</ele><time>2026-04-06T10:06:09Z</time></trkpt><trkpt lat="45.71959651363801" lon="10.776836413715463"><ele>71.0</ele><time>2026-04-06T10:06:10Z</time></trkpt><trkpt lat="45.71949751624094" lon="10.776682640044333"><ele>72.0</ele><time>2026-04-06T10:06:11Z</time></trkpt><trkpt lat="45.71939559602457" lon="10.776531210599599"><ele>73.0</ele><time>2026-04-06T10:06:12Z</time></trkpt><trkpt lat="45.71929480333213" lon="10.776384837286155"><ele>74.0</ele><time>2026-04-06T10:06:13Z</time></trkpt><trkpt lat="45.71919416966759" lon="10.776238974258836"><ele>75.0</ele><time>2026-04-06T10:06:14Z</time></trkpt><trkpt lat="45.719091645261244" lon="10.77609727718392"><ele>73.0</ele><time>2026-04-06T10:06:15Z</time></trkpt><trkpt lat="45.71899735989576" lon="10.775959686858295"><ele>71.0</ele><time>2026-04-06T10:06:16Z</time></trkpt><trkpt lat="45.71890436131273" lon="10.775829348723097"><ele>69.0</ele><time>2026-04-06T10:06:17Z</time></trkpt><trkpt lat="45.71881573360387" lon="10.775699990510132"><ele>67.0</ele><time>2026-04-06T10:06:18Z</time></trkpt><trkpt lat="45.718727610400336" lon="10.775571609741728"><ele>67.0</ele><time>2026-04-06T10:06:19Z</time></trkpt><trkpt lat="45.71863938086079" lon="10.775444556564414"><ele>67.0</ele><time>2026-04-06T10:06:20Z</time></trkpt><trkpt lat="45.71855014891467" lon="10.77531547557084"><ele>67.0</ele><time>2026-04-06T10:06:21Z</time></trkpt><trkpt lat="45.71846003503829" lon="10.775187642414544"><ele>67.0</ele><time>2026-04-06T10:06:22Z</time></trkpt><trkpt lat="45.71837016607445" lon="10.775056539634477"><ele>68.0</ele><time>2026-04-06T10:06:23Z</time></trkpt><trkpt lat="45.71827653380771" lon="10.77492629512941"><ele>69.0</ele><time>2026-04-06T10:06:24Z</time></trkpt><trkpt lat="45.71817649717306" lon="10.774798762217003"><ele>70.0</ele><time>2026-04-06T10:06:25Z</time></trkpt><trkpt lat="45.71806947298989" lon="10.7746808701576"><ele>71.0</ele><time>2026-04-06T10:06:26Z</time></trkpt><trkpt lat="45.71795758556479" lon="10.774567278018594"><ele>71.0</ele><time>2026-04-06T10:06:27Z</time></trkpt><trkpt lat="45.717849514566545" lon="10.774449119388452"><ele>71.0</ele><time>2026-04-06T10:06:28Z</time></trkpt><trkpt lat="45.71773757600333" lon="10.7743297748383"><ele>71.0</ele><time>2026-04-06T10:06:29Z</time></trkpt><trkpt lat="45.71763175832708" lon="10.774200859869012"><ele>71.0</ele><time>2026-04-06T10:06:30Z</time></trkpt><trkpt lat="45.71754103820346" lon="10.774048608144266"><ele>71.75</ele><time>2026-04-06T10:06:31Z</time></trkpt><trkpt lat="45.717430280504004" lon="10.773923734010037"><ele>72.5</ele><time>2026-04-06T10:06:32Z</time></trkpt><trkpt lat="45.71732822871613" lon="10.773771684935086"><ele>73.25</ele><time>2026-04-06T10:06:33Z</time></trkpt><trkpt lat="45.71721825116143" lon="10.773635954663309"><ele>74.0</ele><time>2026-04-06T10:06:34Z</time></trkpt><trkpt lat="45.71710671521476" lon="10.773500356096298"><ele>75.25</ele><time>2026-04-06T10:06:35Z</time></trkpt><trkpt lat="45.7169921582167" lon="10.773369942153884"><ele>76.5</ele><time>2026-04-06T10:06:36Z</time></trkpt><trkpt lat="45.71687410327975" lon="10.77323953248755"><ele>77.75</ele><time>2026-04-06T10:06:37Z</time></trkpt><trkpt lat="45.71675283833042" lon="10.773118824413709"><ele>79.0</ele><time>2026-04-06T10:06:38Z</time></trkpt><trkpt lat="45.716627081264235" lon="10.772999244977328"><ele>79.0</ele><time>2026-04-06T10:06:39Z</time></trkpt><trkpt lat="45.71649879422443" lon="10.772881041765459"><ele>79.0</ele><time>2026-04-06T10:06:40Z</time></trkpt><trkpt lat="45.71636728979726" lon="10.772766512931511"><ele>79.0</ele><time>2026-04-06T10:06:41Z</time></trkpt><trkpt lat="45.71623798383457" lon="10.77265459457963"><ele>79.0</ele><time>2026-04-06T10:06:42Z</time></trkpt><trkpt lat="45.71610516574116" lon="10.77254135305908"><ele>79.0</ele><time>2026-04-06T10:06:43Z</time></trkpt><trkpt lat="45.71597516973533" lon="10.772424102765916"><ele>79.0</ele><time>2026-04-06T10:06:44Z</time></trkpt><trkpt lat="45.71584794574538" lon="10.772305297682507"><ele>79.0</ele><time>2026-04-06T10:06:45Z</time></trkpt><trkpt lat="45.715711709167614" lon="10.772193551812586"><ele>79.0</ele><time>2026-04-06T10:06:46Z</time></trkpt><trkpt lat="45.715584033084696" lon="10.772077727407776"><ele>79.0</ele><time>2026-04-06T10:06:47Z</time></trkpt><trkpt lat="45.71545456152141" lon="10.771960178207982"><ele>78.66666666666666</ele><time>2026-04-06T10:06:48Z</time></trkpt><trkpt lat="45.71532131124114" lon="10.771843603107094"><ele>78.33333333333333</ele><time>2026-04-06T10:06:49Z</time></trkpt><trkpt lat="45.715187106294366" lon="10.771725534389999"><ele>78.0</ele><time>2026-04-06T10:06:50Z</time></trkpt><trkpt lat="45.71505547064602" lon="10.771610657845713"><ele>78.0</ele><time>2026-04-06T10:06:51Z</time></trkpt><trkpt lat="45.71492356538077" lon="10.771498394893497"><ele>78.0</ele><time>2026-04-06T10:06:52Z</time></trkpt><trkpt lat="45.714796456398005" lon="10.771384341260319"><ele>78.0</ele><time>2026-04-06T10:06:53Z</time></trkpt><trkpt lat="45.714669910855754" lon="10.771273158295905"><ele>78.0</ele><time>2026-04-06T10:06:54Z</time></trkpt><trkpt lat="45.7145434528438" lon="10.77115760204845"><ele>78.0</ele><time>2026-04-06T10:06:55Z</time></trkpt><trkpt lat="45.71441700021157" lon="10.771042367390605"><ele>78.0</ele><time>2026-04-06T10:06:56Z</time></trkpt><trkpt lat="45.71429072498079" lon="10.770926155970155"><ele>78.0</ele><time>2026-04-06T10:06:57Z</time></trkpt><trkpt lat="45.71416512492949" lon="10.770812706570165"><ele>78.0</ele><time>2026-04-06T10:06:58Z</time></trkpt><trkpt lat="45.71403586761596" lon="10.770704216156926"><ele>78.0</ele><time>2026-04-06T10:06:59Z</time></trkpt><trkpt lat="45.71390918295619" lon="10.77058976337677"><ele>78.0</ele><time>2026-04-06T10:07:00Z</time></trkpt><trkpt lat="45.7137806811122" lon="10.770477455952195"><ele>78.0</ele><time>2026-04-06T10:07:01Z</time></trkpt><trkpt lat="45.71365319458839" lon="10.770362621844901"><ele>78.0</ele><time>2026-04-06T10:07:02Z</time></trkpt><trkpt lat="45.71352783730501" lon="10.770248246329311"><ele>78.0</ele><time>2026-04-06T10:07:03Z</time></trkpt><trkpt lat="45.71339893171978" lon="10.770135289343413"><ele>76.33333333333333</ele><time>2026-04-06T10:07:04Z</time></trkpt><trkpt lat="45.71327195831776" lon="10.77002433960245"><ele>74.66666666666666</ele><time>2026-04-06T10:07:05Z</time></trkpt><trkpt lat="45.71314021955801" lon="10.769910758268253"><ele>73.0</ele><time>2026-04-06T10:07:06Z</time></trkpt><trkpt lat="45.71301425642691" lon="10.76979940925112"><ele>73.0</ele><time>2026-04-06T10:07:07Z</time></trkpt><trkpt lat="45.71288968401417" lon="10.769680554704426"><ele>73.0</ele><time>2026-04-06T10:07:08Z</time></trkpt><trkpt lat="45.712763560782086" lon="10.769568092581052"><ele>73.0</ele><time>2026-04-06T10:07:09Z</time></trkpt><trkpt lat="45.712635962205674" lon="10.769454554402252"><ele>73.0</ele><time>2026-04-06T10:07:10Z</time></trkpt><trkpt lat="45.712510701176015" lon="10.769343579185527"><ele>73.5</ele><time>2026-04-06T10:07:11Z</time></trkpt><trkpt lat="45.712394015283685" lon="10.769241586189604"><ele>74.0</ele><time>2026-04-06T10:07:12Z</time></trkpt><trkpt lat="45.71228388358468" lon="10.769144424502972"><ele>74.5</ele><time>2026-04-06T10:07:13Z</time></trkpt><trkpt lat="45.71217497829517" lon="10.76904746925969"><ele>75.0</ele><time>2026-04-06T10:07:14Z</time></trkpt><trkpt lat="45.71206918273262" lon="10.76896154501456"><ele>75.0</ele><time>2026-04-06T10:07:15Z</time></trkpt><trkpt lat="45.7119677322075" lon="10.768882302334307"><ele>75.0</ele><time>2026-04-06T10:07:16Z</time></trkpt><trkpt lat="45.711862916544334" lon="10.768808045059464"><ele>75.0</ele><time>2026-04-06T10:07:17Z</time></trkpt><trkpt lat="45.71175926795222" lon="10.768740370539117"><ele>75.0</ele><time>2026-04-06T10:07:18Z</time></trkpt><trkpt lat="45.71165367604905" lon="10.768675312996459"><ele>74.0</ele><time>2026-04-06T10:07:19Z</time></trkpt><trkpt lat="45.71154193924748" lon="10.768620638631415"><ele>73.0</ele><time>2026-04-06T10:07:20Z</time></trkpt><trkpt lat="45.711428783345625" lon="10.76855770475564"><ele>72.0</ele><time>2026-04-06T10:07:21Z</time></trkpt><trkpt lat="45.71130543981421" lon="10.768506225580122"><ele>71.0</ele><time>2026-04-06T10:07:22Z</time></trkpt><trkpt lat="45.71117720038847" lon="10.768456528399314"><ele>73.0</ele><time>2026-04-06T10:07:23Z</time></trkpt><trkpt lat="45.71104544825493" lon="10.768416128241656"><ele>75.0</ele><time>2026-04-06T10:07:24Z</time></trkpt><trkpt lat="45.71090958056899" lon="10.76837361346488"><ele>77.0</ele><time>2026-04-06T10:07:25Z</time></trkpt><trkpt lat="45.71077529612484" lon="10.768328795840393"><ele>79.0</ele><time>2026-04-06T10:07:26Z</time></trkpt><trkpt lat="45.71063945738888" lon="10.768277023369834"><ele>79.0</ele><time>2026-04-06T10:07:27Z</time></trkpt><trkpt lat="45.710501628453194" lon="10.768228767258368"><ele>79.0</ele><time>2026-04-06T10:07:28Z</time></trkpt><trkpt lat="45.71036315312302" lon="10.768183573918328"><ele>79.0</ele><time>2026-04-06T10:07:29Z</time></trkpt><trkpt lat="45.710233481959364" lon="10.768138784565403"><ele>79.0</ele><time>2026-04-06T10:07:30Z</time></trkpt><trkpt lat="45.710118503871904" lon="10.768097156663364"><ele>80.2</ele><time>2026-04-06T10:07:31Z</time></trkpt><trkpt lat="45.71001477058323" lon="10.76806863245844"><ele>81.4</ele><time>2026-04-06T10:07:32Z</time></trkpt><trkpt lat="45.709917899764314" lon="10.768037137011786"><ele>82.6</ele><time>2026-04-06T10:07:33Z</time></trkpt><trkpt lat="45.709818141104115" lon="10.768002461290376"><ele>83.8</ele><time>2026-04-06T10:07:34Z</time></trkpt><trkpt lat="45.70971813495998" lon="10.767968123317484"><ele>85.0</ele><time>2026-04-06T10:07:35Z</time></trkpt><trkpt lat="45.70962086281374" lon="10.767933401643711"><ele>85.0</ele><time>2026-04-06T10:07:36Z</time></trkpt><trkpt lat="45.709531274369944" lon="10.767901019322428"><ele>85.0</ele><time>2026-04-06T10:07:37Z</time></trkpt><trkpt lat="45.70945932121027" lon="10.767873178349978"><ele>85.0</ele><time>2026-04-06T10:07:38Z</time></trkpt><trkpt lat="45.709395259408446" lon="10.76785324379778"><ele>85.0</ele><time>2026-04-06T10:07:39Z</time></trkpt><trkpt lat="45.7092898264785" lon="10.767813837397782"><ele>85.0</ele><time>2026-04-06T10:07:41Z</time></trkpt><trkpt lat="45.709193937267855" lon="10.767769236903792"><ele>85.0</ele><time>2026-04-06T10:07:43Z</time></trkpt><trkpt lat="45.70910708937686" lon="10.767730641863736"><ele>84.4</ele><time>2026-04-06T10:07:45Z</time></trkpt><trkpt lat="45.70897195378038" lon="10.767714268114458"><ele>83.8</ele><time>2026-04-06T10:07:47Z</time></trkpt><trkpt lat="45.70888788063727" lon="10.767689559269764"><ele>83.19999999999999</ele><time>2026-04-06T10:07:48Z</time></trkpt><trkpt lat="45.70878893351887" lon="10.767654814584603"><ele>82.6</ele><time>2026-04-06T10:07:49Z</time></trkpt><trkpt lat="45.70868077677774" lon="10.767621018905826"><ele>82.0</ele><time>2026-04-06T10:07:50Z</time></trkpt><trkpt lat="45.70856805410057" lon="10.767581272686066"><ele>82.0</ele><time>2026-04-06T10:07:51Z</time></trkpt><trkpt lat="45.70844914272602" lon="10.767542197882165"><ele>82.0</ele><time>2026-04-06T10:07:52Z</time></trkpt><trkpt lat="45.70832843861169" lon="10.767499314975254"><ele>82.0</ele><time>2026-04-06T10:07:53Z</time></trkpt><trkpt lat="45.70820634454464" lon="10.76744925860986"><ele>82.0</ele><time>2026-04-06T10:07:54Z</time></trkpt><trkpt lat="45.70807751374697" lon="10.767392342931881"><ele>82.0</ele><time>2026-04-06T10:07:55Z</time></trkpt><trkpt lat="45.707953630830204" lon="10.767318205826207"><ele>82.0</ele><time>2026-04-06T10:07:56Z</time></trkpt><trkpt lat="45.707836836210916" lon="10.76721258175071"><ele>82.0</ele><time>2026-04-06T10:07:57Z</time></trkpt><trkpt lat="45.70771337473434" lon="10.767117920670758"><ele>82.0</ele><time>2026-04-06T10:07:58Z</time></trkpt><trkpt lat="45.70758348345361" lon="10.76703274368522"><ele>81.0</ele><time>2026-04-06T10:07:59Z</time></trkpt><trkpt lat="45.707467538866574" lon="10.766922982965584"><ele>80.0</ele><time>2026-04-06T10:08:00Z</time></trkpt><trkpt lat="45.70735722427856" lon="10.766816186845835"><ele>79.0</ele><time>2026-04-06T10:08:01Z</time></trkpt><trkpt lat="45.70725611997904" lon="10.766714758214745"><ele>78.0</ele><time>2026-04-06T10:08:02Z</time></trkpt><trkpt lat="45.707159852542325" lon="10.766622963609304"><ele>78.0</ele><time>2026-04-06T10:08:03Z</time></trkpt><trkpt lat="45.707078906099774" lon="10.766545531924987"><ele>78.0</ele><time>2026-04-06T10:08:04Z</time></trkpt><trkpt lat="45.70701281796246" lon="10.76647999103545"><ele>78.0</ele><time>2026-04-06T10:08:05Z</time></trkpt><trkpt lat="45.70693083551223" lon="10.766401990320176"><ele>78.0</ele><time>2026-04-06T10:08:07Z</time></trkpt><trkpt lat="45.706879605065176" lon="10.766343282609588"><ele>78.0</ele><time>2026-04-06T10:08:09Z</time></trkpt><trkpt lat="45.706812625064416" lon="10.766277022417235"><ele>78.0</ele><time>2026-04-06T10:08:11Z</time></trkpt><trkpt lat="45.70671580525746" lon="10.766187148461361"><ele>76.83333333333333</ele><time>2026-04-06T10:08:13Z</time></trkpt><trkpt lat="45.70665307010179" lon="10.766126338582746"><ele>75.66666666666667</ele><time>2026-04-06T10:08:14Z</time></trkpt><trkpt lat="45.70658704055113" lon="10.76606254988529"><ele>74.5</ele><time>2026-04-06T10:08:15Z</time></trkpt><trkpt lat="45.70651855838908" lon="10.76599323129311"><ele>73.33333333333334</ele><time>2026-04-06T10:08:16Z</time></trkpt><trkpt lat="45.7064488460123" lon="10.76592280591733"><ele>72.16666666666667</ele><time>2026-04-06T10:08:17Z</time></trkpt><trkpt lat="45.706377114862235" lon="10.765850607099528"><ele>71.0</ele><time>2026-04-06T10:08:18Z</time></trkpt><trkpt lat="45.70630547168572" lon="10.765774626462742"><ele>71.0</ele><time>2026-04-06T10:08:19Z</time></trkpt><trkpt lat="45.70623713563695" lon="10.765699021046236"><ele>71.0</ele><time>2026-04-06T10:08:20Z</time></trkpt><trkpt lat="45.70617804521229" lon="10.765632511371322"><ele>71.0</ele><time>2026-04-06T10:08:21Z</time></trkpt><trkpt lat="45.70610299899464" lon="10.765535238214936"><ele>71.0</ele><time>2026-04-06T10:08:23Z</time></trkpt><trkpt lat="45.70601766272429" lon="10.765403213479951"><ele>71.0</ele><time>2026-04-06T10:08:25Z</time></trkpt><trkpt lat="45.70596229901916" lon="10.765317243870046"><ele>71.39999999999999</ele><time>2026-04-06T10:08:26Z</time></trkpt><trkpt lat="45.705902631096286" lon="10.76521697942095"><ele>71.8</ele><time>2026-04-06T10:08:27Z</time></trkpt><trkpt lat="45.70583867354308" lon="10.76510476979249"><ele>72.19999999999999</ele><time>2026-04-06T10:08:28Z</time></trkpt><trkpt lat="45.7057652073285" lon="10.764984781222125"><ele>72.6</ele><time>2026-04-06T10:08:29Z</time></trkpt><trkpt lat="45.70567880066625" lon="10.76485589282551"><ele>73.0</ele><time>2026-04-06T10:08:30Z</time></trkpt><trkpt lat="45.70559019179035" lon="10.764716398491256"><ele>73.0</ele><time>2026-04-06T10:08:31Z</time></trkpt><trkpt lat="45.705501115653625" lon="10.764569721219875"><ele>73.0</ele><time>2026-04-06T10:08:32Z</time></trkpt><trkpt lat="45.705409605795076" lon="10.764419706362148"><ele>73.0</ele><time>2026-04-06T10:08:33Z</time></trkpt><trkpt lat="45.705313393604946" lon="10.764276945621157"><ele>73.0</ele><time>2026-04-06T10:08:34Z</time></trkpt><trkpt lat="45.70521186493539" lon="10.764136351613738"><ele>74.25</ele><time>2026-04-06T10:08:35Z</time></trkpt><trkpt lat="45.7051018797663" lon="10.764014237987226"><ele>75.5</ele><time>2026-04-06T10:08:36Z</time></trkpt><trkpt lat="45.70498356139922" lon="10.763901194085998"><ele>76.75</ele><time>2026-04-06T10:08:37Z</time></trkpt><trkpt lat="45.70486059577387" lon="10.763797098322073"><ele>78.0</ele><time>2026-04-06T10:08:38Z</time></trkpt><trkpt lat="45.7047326517187" lon="10.763704824337193"><ele>78.0</ele><time>2026-04-06T10:08:39Z</time></trkpt><trkpt lat="45.70459820993761" lon="10.76362736626139"><ele>78.0</ele><time>2026-04-06T10:08:40Z</time></trkpt><trkpt lat="45.7044599353062" lon="10.763562691819773"><ele>78.0</ele><time>2026-04-06T10:08:41Z</time></trkpt><trkpt lat="45.70431917351962" lon="10.763496780667305"><ele>78.0</ele><time>2026-04-06T10:08:42Z</time></trkpt><trkpt lat="45.704179503349174" lon="10.763438595496694"><ele>75.5</ele><time>2026-04-06T10:08:43Z</time></trkpt><trkpt lat="45.70403613042559" lon="10.763372881387884"><ele>73.0</ele><time>2026-04-06T10:08:44Z</time></trkpt><trkpt lat="45.703896311735456" lon="10.763317373935953"><ele>70.5</ele><time>2026-04-06T10:08:45Z</time></trkpt><trkpt lat="45.703758144548736" lon="10.763254266024877"><ele>68.0</ele><time>2026-04-06T10:08:46Z</time></trkpt><trkpt lat="45.7036208428646" lon="10.76318252150851"><ele>70.0</ele><time>2026-04-06T10:08:47Z</time></trkpt><trkpt lat="45.70348821021574" lon="10.76309908293573"><ele>72.0</ele><time>2026-04-06T10:08:48Z</time></trkpt><trkpt lat="45.70335931928608" lon="10.763009690520187"><ele>74.0</ele><time>2026-04-06T10:08:49Z</time></trkpt><trkpt lat="45.703232769189576" lon="10.76291514123801"><ele>76.0</ele><time>2026-04-06T10:08:50Z</time></trkpt><trkpt lat="45.703109608205025" lon="10.7628175446423"><ele>76.0</ele><time>2026-04-06T10:08:51Z</time></trkpt><trkpt lat="45.70298751027241" lon="10.762725136963097"><ele>76.0</ele><time>2026-04-06T10:08:52Z</time></trkpt><trkpt lat="45.702868024371085" lon="10.762632130589505"><ele>76.0</ele><time>2026-04-06T10:08:53Z</time></trkpt><trkpt lat="45.70275142555447" lon="10.762541531422475"><ele>76.0</ele><time>2026-04-06T10:08:54Z</time></trkpt><trkpt lat="45.702645268521195" lon="10.76245865668804"><ele>76.2</ele><time>2026-04-06T10:08:55Z</time></trkpt><trkpt lat="45.70254989584519" lon="10.762390809607082"><ele>76.39999999999999</ele><time>2026-04-06T10:08:56Z</time></trkpt><trkpt lat="45.702466328181536" lon="10.762328805942621"><ele>76.6</ele><time>2026-04-06T10:08:57Z</time></trkpt><trkpt lat="45.70239898963761" lon="10.762273269670121"><ele>76.8</ele><time>2026-04-06T10:08:58Z</time></trkpt><trkpt lat="45.702304836510535" lon="10.762193672346957"><ele>77.0</ele><time>2026-04-06T10:09:00Z</time></trkpt><trkpt lat="45.7022561482446" lon="10.762120919971627"><ele>77.0</ele><time>2026-04-06T10:09:03Z</time></trkpt></trkseg><trkseg><trkpt lat="45.70212718404268" lon="10.762121851703798"><ele>77.0</ele><time>2026-04-06T10:46:06Z</time></trkpt><trkpt lat="45.70205013731756" lon="10.762040152860573"><ele>77.0</ele><time>2026-04-06T10:46:07Z</time></trkpt><trkpt lat="45.7019474145142" lon="10.761953886507078"><ele>77.0</ele><time>2026-04-06T10:46:08Z</time></trkpt><trkpt lat="45.701838110469176" lon="10.76186720867371"><ele>77.0</ele><time>2026-04-06T10:46:09Z</time></trkpt><trkpt lat="45.70171587841708" lon="10.761777101357199"><ele>75.75</ele><time>2026-04-06T10:46:10Z</time></trkpt><trkpt lat="45.70158570295158" lon="10.761686986840667"><ele>74.5</ele><time>2026-04-06T10:46:11Z</time></trkpt><trkpt lat="45.70145613724268" lon="10.7615912167971"><ele>73.25</ele><time>2026-04-06T10:46:12Z</time></trkpt><trkpt lat="45.70131942724388" lon="10.761488116123218"><ele>72.0</ele><time>2026-04-06T10:46:13Z</time></trkpt><trkpt lat="45.701183360751955" lon="10.761387179561801"><ele>76.66666666666667</ele><time>2026-04-06T10:46:14Z</time></trkpt><trkpt lat="45.70104454587151" lon="10.761285205022114"><ele>81.33333333333334</ele><time>2026-04-06T10:46:15Z</time></trkpt><trkpt lat="45.70090474275905" lon="10.76117631348138"><ele>86.0</ele><time>2026-04-06T10:46:16Z</time></trkpt><trkpt lat="45.70076028092057" lon="10.761067430057633"><ele>79.66666666666667</ele><time>2026-04-06T10:46:17Z</time></trkpt><trkpt lat="45.700613025418484" lon="10.760960577348545"><ele>73.33333333333333</ele><time>2026-04-06T10:46:18Z</time></trkpt><trkpt lat="45.700466037923036" lon="10.760847218545212"><ele>67.0</ele><time>2026-04-06T10:46:19Z</time></trkpt><trkpt lat="45.70032450378465" lon="10.760724417929737"><ele>71.66666666666666</ele><time>2026-04-06T10:46:20Z</time></trkpt><trkpt lat="45.70018122077198" lon="10.760601525589692"><ele>76.33333333333333</ele><time>2026-04-06T10:46:21Z</time></trkpt><trkpt lat="45.700039193695524" lon="10.760473761961187"><ele>81.0</ele><time>2026-04-06T10:46:22Z</time></trkpt><trkpt lat="45.69989695309193" lon="10.760348672867853"><ele>81.0</ele><time>2026-04-06T10:46:23Z</time></trkpt><trkpt lat="45.69976565654086" lon="10.760206297755476"><ele>81.0</ele><time>2026-04-06T10:46:24Z</time></trkpt><trkpt lat="45.69962764372055" lon="10.760082509390585"><ele>81.0</ele><time>2026-04-06T10:46:25Z</time></trkpt><trkpt lat="45.69948796812734" lon="10.759956993263543"><ele>80.0</ele><time>2026-04-06T10:46:26Z</time></trkpt><trkpt lat="45.6993519902402" lon="10.759834282836755"><ele>79.0</ele><time>2026-04-06T10:46:27Z</time></trkpt><trkpt lat="45.6992168369508" lon="10.759712128141533"><ele>78.0</ele><time>2026-04-06T10:46:28Z</time></trkpt><trkpt lat="45.69907914006406" lon="10.75958745520234"><ele>78.0</ele><time>2026-04-06T10:46:29Z</time></trkpt><trkpt lat="45.69893987423272" lon="10.759461361698119"><ele>78.0</ele><time>2026-04-06T10:46:30Z</time></trkpt><trkpt lat="45.69880208766684" lon="10.759336607537222"><ele>78.0</ele><time>2026-04-06T10:46:31Z</time></trkpt><trkpt lat="45.69866077682126" lon="10.759208662517404"><ele>78.66666666666667</ele><time>2026-04-06T10:46:32Z</time></trkpt><trkpt lat="45.698522314126905" lon="10.759083296095577"><ele>79.33333333333334</ele><time>2026-04-06T10:46:33Z</time></trkpt><trkpt lat="45.69838191689156" lon="10.758958830782923"><ele>80.0</ele><time>2026-04-06T10:46:34Z</time></trkpt><trkpt lat="45.69823455202795" lon="10.75885607983829"><ele>80.0</ele><time>2026-04-06T10:46:35Z</time></trkpt><trkpt lat="45.69810539015546" lon="10.758713952433217"><ele>80.0</ele><time>2026-04-06T10:46:36Z</time></trkpt><trkpt lat="45.69796854599964" lon="10.758592769424713"><ele>80.0</ele><time>2026-04-06T10:46:37Z</time></trkpt><trkpt lat="45.69783351397731" lon="10.758469295181962"><ele>79.33333333333334</ele><time>2026-04-06T10:46:38Z</time></trkpt><trkpt lat="45.697697451315555" lon="10.758345792666724"><ele>78.66666666666667</ele><time>2026-04-06T10:46:39Z</time></trkpt><trkpt lat="45.697553186397194" lon="10.758243052663486"><ele>78.0</ele><time>2026-04-06T10:46:40Z</time></trkpt><trkpt lat="45.6974251413573" lon="10.758100399688304"><ele>78.0</ele><time>2026-04-06T10:46:41Z</time></trkpt><trkpt lat="45.6972876759612" lon="10.757978724086087"><ele>78.0</ele><time>2026-04-06T10:46:42Z</time></trkpt><trkpt lat="45.69715080838892" lon="10.757856754512156"><ele>78.0</ele><time>2026-04-06T10:46:43Z</time></trkpt><trkpt lat="45.6970174781329" lon="10.757726928329308"><ele>76.66666666666667</ele><time>2026-04-06T10:46:44Z</time></trkpt><trkpt lat="45.69688637761346" lon="10.757584281906027"><ele>75.33333333333334</ele><time>2026-04-06T10:46:45Z</time></trkpt><trkpt lat="45.69676449108291" lon="10.757433862167193"><ele>74.0</ele><time>2026-04-06T10:46:46Z</time></trkpt><trkpt lat="45.6966456638956" lon="10.75727825055149"><ele>74.0</ele><time>2026-04-06T10:46:47Z</time></trkpt><trkpt lat="45.69652625598695" lon="10.75711572179932"><ele>74.0</ele><time>2026-04-06T10:46:48Z</time></trkpt><trkpt lat="45.69639645513028" lon="10.756977091178465"><ele>74.0</ele><time>2026-04-06T10:46:49Z</time></trkpt><trkpt lat="45.69628127799308" lon="10.756812438017707"><ele>72.66666666666667</ele><time>2026-04-06T10:46:50Z</time></trkpt><trkpt lat="45.69616280102999" lon="10.75665600711473"><ele>71.33333333333333</ele><time>2026-04-06T10:46:51Z</time></trkpt><trkpt lat="45.696047022767736" lon="10.756500626373416"><ele>70.0</ele><time>2026-04-06T10:46:52Z</time></trkpt><trkpt lat="45.695922187539196" lon="10.75636359853976"><ele>70.0</ele><time>2026-04-06T10:46:53Z</time></trkpt><trkpt lat="45.69578532785768" lon="10.756241363619436"><ele>70.0</ele><time>2026-04-06T10:46:54Z</time></trkpt><trkpt lat="45.695649487575814" lon="10.756134696526267"><ele>70.0</ele><time>2026-04-06T10:46:55Z</time></trkpt><trkpt lat="45.6955070337319" lon="10.756041116703665"><ele>70.0</ele><time>2026-04-06T10:46:56Z</time></trkpt><trkpt lat="45.695356340612996" lon="10.75595916025493"><ele>70.0</ele><time>2026-04-06T10:46:57Z</time></trkpt><trkpt lat="45.695205726432086" lon="10.755883305259943"><ele>70.0</ele><time>2026-04-06T10:46:58Z</time></trkpt><trkpt lat="45.695051400198736" lon="10.755809053921944"><ele>70.0</ele><time>2026-04-06T10:46:59Z</time></trkpt><trkpt lat="45.69490120461327" lon="10.755710180382923"><ele>70.0</ele><time>2026-04-06T10:47:00Z</time></trkpt><trkpt lat="45.69474686922099" lon="10.755634211975519"><ele>70.0</ele><time>2026-04-06T10:47:01Z</time></trkpt><trkpt lat="45.694589635104464" lon="10.755557597942596"><ele>70.0</ele><time>2026-04-06T10:47:02Z</time></trkpt><trkpt lat="45.69443002542693" lon="10.755502051314426"><ele>70.0</ele><time>2026-04-06T10:47:03Z</time></trkpt><trkpt lat="45.69427144702226" lon="10.755421027593123"><ele>70.0</ele><time>2026-04-06T10:47:04Z</time></trkpt><trkpt lat="45.694115678218346" lon="10.755334811673158"><ele>68.33333333333333</ele><time>2026-04-06T10:47:05Z</time></trkpt><trkpt lat="45.693959033829735" lon="10.755242097754243"><ele>66.66666666666667</ele><time>2026-04-06T10:47:06Z</time></trkpt><trkpt lat="45.693815351155074" lon="10.755117921729576"><ele>65.0</ele><time>2026-04-06T10:47:07Z</time></trkpt><trkpt lat="45.69366972295768" lon="10.75500526354404"><ele>69.66666666666667</ele><time>2026-04-06T10:47:08Z</time></trkpt><trkpt lat="45.693525402806856" lon="10.754886284990816"><ele>74.33333333333333</ele><time>2026-04-06T10:47:09Z</time></trkpt><trkpt lat="45.69337366578445" lon="10.754785731228436"><ele>79.0</ele><time>2026-04-06T10:47:10Z</time></trkpt><trkpt lat="45.69323067296138" lon="10.754662845507182"><ele>79.0</ele><time>2026-04-06T10:47:11Z</time></trkpt><trkpt lat="45.69308828482864" lon="10.754541011542786"><ele>79.0</ele><time>2026-04-06T10:47:12Z</time></trkpt><trkpt lat="45.69294507585922" lon="10.754417478242651"><ele>79.0</ele><time>2026-04-06T10:47:13Z</time></trkpt><trkpt lat="45.69280344855757" lon="10.7542951275706"><ele>77.0</ele><time>2026-04-06T10:47:14Z</time></trkpt><trkpt lat="45.69265974327406" lon="10.75417068965038"><ele>75.0</ele><time>2026-04-06T10:47:15Z</time></trkpt><trkpt lat="45.69251620241577" lon="10.754051792858009"><ele>73.0</ele><time>2026-04-06T10:47:16Z</time></trkpt><trkpt lat="45.69237126429651" lon="10.753932516878168"><ele>73.0</ele><time>2026-04-06T10:47:17Z</time></trkpt><trkpt lat="45.692237219331076" lon="10.75379007550032"><ele>73.0</ele><time>2026-04-06T10:47:18Z</time></trkpt><trkpt lat="45.69209563778903" lon="10.753667946588587"><ele>73.0</ele><time>2026-04-06T10:47:19Z</time></trkpt><trkpt lat="45.69195428620774" lon="10.753546014447366"><ele>73.0</ele><time>2026-04-06T10:47:20Z</time></trkpt><trkpt lat="45.69181340525105" lon="10.753424897695215"><ele>73.0</ele><time>2026-04-06T10:47:21Z</time></trkpt><trkpt lat="45.69167440330608" lon="10.753305841333923"><ele>73.0</ele><time>2026-04-06T10:47:22Z</time></trkpt><trkpt lat="45.69153369790617" lon="10.753185325552817"><ele>73.0</ele><time>2026-04-06T10:47:23Z</time></trkpt><trkpt lat="45.69139199190004" lon="10.753064554362183"><ele>73.0</ele><time>2026-04-06T10:47:24Z</time></trkpt><trkpt lat="45.69125052422225" lon="10.752944056789465"><ele>73.0</ele><time>2026-04-06T10:47:25Z</time></trkpt><trkpt lat="45.6911107811033" lon="10.752825028323306"><ele>72.0</ele><time>2026-04-06T10:47:26Z</time></trkpt><trkpt lat="45.69097050728145" lon="10.752706134591929"><ele>71.0</ele><time>2026-04-06T10:47:27Z</time></trkpt><trkpt lat="45.690818065985646" lon="10.752615652743616"><ele>70.0</ele><time>2026-04-06T10:47:28Z</time></trkpt><trkpt lat="45.690675840251544" lon="10.752503392313534"><ele>70.0</ele><time>2026-04-06T10:47:29Z</time></trkpt><trkpt lat="45.690531791150995" lon="10.75239559740188"><ele>70.0</ele><time>2026-04-06T10:47:30Z</time></trkpt><trkpt lat="45.690389416256544" lon="10.752295487191875"><ele>70.0</ele><time>2026-04-06T10:47:31Z</time></trkpt><trkpt lat="45.69025397440468" lon="10.752203428847075"><ele>69.25</ele><time>2026-04-06T10:47:32Z</time></trkpt><trkpt lat="45.690133965388505" lon="10.752116886861995"><ele>68.5</ele><time>2026-04-06T10:47:33Z</time></trkpt><trkpt lat="45.69002793351605" lon="10.752014456428947"><ele>67.75</ele><time>2026-04-06T10:47:34Z</time></trkpt><trkpt lat="45.689920020014576" lon="10.751940276061028"><ele>67.0</ele><time>2026-04-06T10:47:35Z</time></trkpt><trkpt lat="45.68981772707288" lon="10.75186900115439"><ele>67.0</ele><time>2026-04-06T10:47:36Z</time></trkpt><trkpt lat="45.6896968414359" lon="10.751821036309366"><ele>67.0</ele><time>2026-04-06T10:47:37Z</time></trkpt><trkpt lat="45.68958990681852" lon="10.751746036487624"><ele>67.0</ele><time>2026-04-06T10:47:38Z</time></trkpt><trkpt lat="45.68949280686171" lon="10.7516782741017"><ele>67.0</ele><time>2026-04-06T10:47:39Z</time></trkpt><trkpt lat="45.68940926772579" lon="10.75161855451842"><ele>67.0</ele><time>2026-04-06T10:47:40Z</time></trkpt><trkpt lat="45.68933391445448" lon="10.751566296044372"><ele>67.66666666666666</ele><time>2026-04-06T10:47:41Z</time></trkpt><trkpt lat="45.689261932613086" lon="10.751518631253248"><ele>68.33333333333333</ele><time>2026-04-06T10:47:42Z</time></trkpt><trkpt lat="45.68918852470918" lon="10.751476313927588"><ele>69.0</ele><time>2026-04-06T10:47:43Z</time></trkpt><trkpt lat="45.68910987361171" lon="10.751432308835916"><ele>69.66666666666667</ele><time>2026-04-06T10:47:44Z</time></trkpt><trkpt lat="45.68903114349844" lon="10.751381879416792"><ele>70.33333333333334</ele><time>2026-04-06T10:47:45Z</time></trkpt><trkpt lat="45.688949706546325" lon="10.751331003033547"><ele>71.0</ele><time>2026-04-06T10:47:46Z</time></trkpt><trkpt lat="45.68886604583114" lon="10.751276960960436"><ele>71.0</ele><time>2026-04-06T10:47:47Z</time></trkpt><trkpt lat="45.688781488544585" lon="10.751225405985165"><ele>71.0</ele><time>2026-04-06T10:47:48Z</time></trkpt><trkpt lat="45.68871217820296" lon="10.751185688859644"><ele>71.0</ele><time>2026-04-06T10:47:49Z</time></trkpt><trkpt lat="45.68865828114615" lon="10.751114460213305"><ele>71.0</ele><time>2026-04-06T10:47:50Z</time></trkpt><trkpt lat="45.688552356337894" lon="10.751050090677753"><ele>71.0</ele><time>2026-04-06T10:47:52Z</time></trkpt><trkpt lat="45.688490630116895" lon="10.751011328724424"><ele>71.0</ele><time>2026-04-06T10:47:54Z</time></trkpt><trkpt lat="45.688409798294636" lon="10.750960569155145"><ele>70.83333333333334</ele><time>2026-04-06T10:47:56Z</time></trkpt><trkpt lat="45.688333970035096" lon="10.750911859176608"><ele>70.66666666666667</ele><time>2026-04-06T10:47:58Z</time></trkpt><trkpt lat="45.68824649394506" lon="10.750855526228314"><ele>70.5</ele><time>2026-04-06T10:48:01Z</time></trkpt><trkpt lat="45.688161643700454" lon="10.750799673958761"><ele>70.33333333333333</ele><time>2026-04-06T10:48:03Z</time></trkpt><trkpt lat="45.68808163901573" lon="10.750747467537794"><ele>70.16666666666666</ele><time>2026-04-06T10:48:05Z</time></trkpt><trkpt lat="45.68802279913731" lon="10.750709586938292"><ele>70.0</ele><time>2026-04-06T10:48:07Z</time></trkpt><trkpt lat="45.687951584085276" lon="10.750666044666087"><ele>70.0</ele><time>2026-04-06T10:48:10Z</time></trkpt><trkpt lat="45.687883850919256" lon="10.750624883416714"><ele>70.0</ele><time>2026-04-06T10:48:21Z</time></trkpt><trkpt lat="45.68781705568241" lon="10.750585481737271"><ele>70.0</ele><time>2026-04-06T10:48:24Z</time></trkpt><trkpt lat="45.687755550076595" lon="10.750551000673157"><ele>70.0</ele><time>2026-04-06T10:48:26Z</time></trkpt><trkpt lat="45.68767845776837" lon="10.750509286323764"><ele>70.0</ele><time>2026-04-06T10:48:28Z</time></trkpt><trkpt lat="45.68761618571624" lon="10.750470062586004"><ele>70.0</ele><time>2026-04-06T10:48:31Z</time></trkpt><trkpt lat="45.687551956412015" lon="10.750421075878105"><ele>70.0</ele><time>2026-04-06T10:48:37Z</time></trkpt><trkpt lat="45.68747725162406" lon="10.750354926400508"><ele>69.66666666666666</ele><time>2026-04-06T10:48:41Z</time></trkpt><trkpt lat="45.687419312099564" lon="10.75029889195542"><ele>69.33333333333333</ele><time>2026-04-06T10:48:43Z</time></trkpt><trkpt lat="45.68735498087058" lon="10.750235384564578"><ele>69.0</ele><time>2026-04-06T10:48:47Z</time></trkpt><trkpt lat="45.68728669398778" lon="10.750165022474947"><ele>68.66666666666667</ele><time>2026-04-06T10:48:49Z</time></trkpt><trkpt lat="45.68721207551416" lon="10.750093980630433"><ele>68.33333333333334</ele><time>2026-04-06T10:48:51Z</time></trkpt><trkpt lat="45.687123199915206" lon="10.750019390434273"><ele>68.0</ele><time>2026-04-06T10:48:54Z</time></trkpt><trkpt lat="45.68702754781532" lon="10.74995247843165"><ele>68.0</ele><time>2026-04-06T10:48:56Z</time></trkpt><trkpt lat="45.68693113181488" lon="10.749887053462201"><ele>68.0</ele><time>2026-04-06T10:48:58Z</time></trkpt><trkpt lat="45.68685176332542" lon="10.749808648305141"><ele>68.0</ele><time>2026-04-06T10:49:00Z</time></trkpt><trkpt lat="45.686791655442185" lon="10.749729223955269"><ele>68.0</ele><time>2026-04-06T10:49:02Z</time></trkpt><trkpt lat="45.68672252250894" lon="10.749633888142657"><ele>68.0</ele><time>2026-04-06T10:49:04Z</time></trkpt><trkpt lat="45.68664044019943" lon="10.749539212719"><ele>67.8</ele><time>2026-04-06T10:49:06Z</time></trkpt><trkpt lat="45.686542257242486" lon="10.74948820827892"><ele>67.6</ele><time>2026-04-06T10:49:08Z</time></trkpt><trkpt lat="45.68643190681945" lon="10.749401776398372"><ele>67.4</ele><time>2026-04-06T10:49:10Z</time></trkpt><trkpt lat="45.68637089170396" lon="10.749351043227858"><ele>67.2</ele><time>2026-04-06T10:49:11Z</time></trkpt><trkpt lat="45.68630305998917" lon="10.749299774651186"><ele>67.0</ele><time>2026-04-06T10:49:12Z</time></trkpt><trkpt lat="45.68623279769635" lon="10.749225656056097"><ele>67.0</ele><time>2026-04-06T10:49:13Z</time></trkpt><trkpt lat="45.686148662632895" lon="10.749174470118865"><ele>67.0</ele><time>2026-04-06T10:49:14Z</time></trkpt><trkpt lat="45.68605890067025" lon="10.749122258558398"><ele>67.0</ele><time>2026-04-06T10:49:15Z</time></trkpt><trkpt lat="45.68596859126403" lon="10.749069728491774"><ele>67.0</ele><time>2026-04-06T10:49:16Z</time></trkpt><trkpt lat="45.68588175430532" lon="10.749019218319715"><ele>67.0</ele><time>2026-04-06T10:49:17Z</time></trkpt><trkpt lat="45.68579182288096" lon="10.748966908154848"><ele>68.25</ele><time>2026-04-06T10:49:18Z</time></trkpt><trkpt lat="45.685684101834255" lon="10.748949424090384"><ele>69.5</ele><time>2026-04-06T10:49:19Z</time></trkpt><trkpt lat="45.68557222404605" lon="10.748890459462869"><ele>70.75</ele><time>2026-04-06T10:49:20Z</time></trkpt><trkpt lat="45.685443510895944" lon="10.748820174891415"><ele>72.0</ele><time>2026-04-06T10:49:21Z</time></trkpt><trkpt lat="45.685311562743834" lon="10.748739184105919"><ele>71.25</ele><time>2026-04-06T10:49:22Z</time></trkpt><trkpt lat="45.6851907456787" lon="10.748662161440857"><ele>70.5</ele><time>2026-04-06T10:49:23Z</time></trkpt><trkpt lat="45.68508079503374" lon="10.7485910451603"><ele>69.75</ele><time>2026-04-06T10:49:24Z</time></trkpt><trkpt lat="45.68499280092062" lon="10.74849899959072"><ele>69.0</ele><time>2026-04-06T10:49:25Z</time></trkpt><trkpt lat="45.68490315584812" lon="10.748441307896895"><ele>69.0</ele><time>2026-04-06T10:49:26Z</time></trkpt><trkpt lat="45.684810681511266" lon="10.748379543098615"><ele>69.0</ele><time>2026-04-06T10:49:27Z</time></trkpt><trkpt lat="45.68471957801882" lon="10.748315197799041"><ele>69.0</ele><time>2026-04-06T10:49:28Z</time></trkpt><trkpt lat="45.68463801792781" lon="10.748253619986082"><ele>69.0</ele><time>2026-04-06T10:49:29Z</time></trkpt><trkpt lat="45.68456408199134" lon="10.748195238521124"><ele>69.0</ele><time>2026-04-06T10:49:30Z</time></trkpt><trkpt lat="45.68449433480007" lon="10.748136323540633"><ele>69.0</ele><time>2026-04-06T10:49:31Z</time></trkpt><trkpt lat="45.684432091735935" lon="10.74808202314662"><ele>69.0</ele><time>2026-04-06T10:49:32Z</time></trkpt><trkpt lat="45.68436833132942" lon="10.74801976107868"><ele>69.0</ele><time>2026-04-06T10:49:33Z</time></trkpt><trkpt lat="45.68427488270406" lon="10.74792865152987"><ele>69.0</ele><time>2026-04-06T10:49:35Z</time></trkpt><trkpt lat="45.684222942026906" lon="10.747877663381901"><ele>69.0</ele><time>2026-04-06T10:49:36Z</time></trkpt><trkpt lat="45.6841484483312" lon="10.747804427545564"><ele>69.0</ele><time>2026-04-06T10:49:37Z</time></trkpt><trkpt lat="45.684058827388526" lon="10.747716320086543"><ele>68.75</ele><time>2026-04-06T10:49:38Z</time></trkpt><trkpt lat="45.683953805670605" lon="10.74761307871049"><ele>68.5</ele><time>2026-04-06T10:49:39Z</time></trkpt><trkpt lat="45.68384170356866" lon="10.747502919409905"><ele>68.25</ele><time>2026-04-06T10:49:40Z</time></trkpt><trkpt lat="45.68372757129922" lon="10.747390765160327"><ele>68.0</ele><time>2026-04-06T10:49:41Z</time></trkpt><trkpt lat="45.6836104636455" lon="10.747275534078186"><ele>69.0</ele><time>2026-04-06T10:49:42Z</time></trkpt><trkpt lat="45.68349196211355" lon="10.747158464673259"><ele>70.0</ele><time>2026-04-06T10:49:43Z</time></trkpt><trkpt lat="45.6833722209442" lon="10.747039940387179"><ele>71.0</ele><time>2026-04-06T10:49:44Z</time></trkpt><trkpt lat="45.68325146442758" lon="10.746920410842694"><ele>72.0</ele><time>2026-04-06T10:49:45Z</time></trkpt><trkpt lat="45.68313529485062" lon="10.746805651492672"><ele>72.0</ele><time>2026-04-06T10:49:46Z</time></trkpt><trkpt lat="45.68302316004288" lon="10.7466954572103"><ele>72.0</ele><time>2026-04-06T10:49:47Z</time></trkpt><trkpt lat="45.68291208965658" lon="10.746586309147057"><ele>72.0</ele><time>2026-04-06T10:49:48Z</time></trkpt><trkpt lat="45.68279722800159" lon="10.746473364027867"><ele>72.0</ele><time>2026-04-06T10:49:49Z</time></trkpt><trkpt lat="45.682675165050114" lon="10.746353046018106"><ele>72.25</ele><time>2026-04-06T10:49:50Z</time></trkpt><trkpt lat="45.68254288682211" lon="10.746249651058793"><ele>72.5</ele><time>2026-04-06T10:49:51Z</time></trkpt><trkpt lat="45.6824218497184" lon="10.746129806173828"><ele>72.75</ele><time>2026-04-06T10:49:52Z</time></trkpt><trkpt lat="45.682315338514904" lon="10.745998000641931"><ele>73.0</ele><time>2026-04-06T10:49:53Z</time></trkpt><trkpt lat="45.682204335853186" lon="10.745888253754536"><ele>73.0</ele><time>2026-04-06T10:49:54Z</time></trkpt><trkpt lat="45.682093009473505" lon="10.745778274105335"><ele>73.0</ele><time>2026-04-06T10:49:55Z</time></trkpt><trkpt lat="45.68198547187531" lon="10.745672704198986"><ele>73.0</ele><time>2026-04-06T10:49:56Z</time></trkpt><trkpt lat="45.6818791973373" lon="10.745568374273438"><ele>73.0</ele><time>2026-04-06T10:49:57Z</time></trkpt><trkpt lat="45.681778497871264" lon="10.745469517306557"><ele>72.5</ele><time>2026-04-06T10:49:58Z</time></trkpt><trkpt lat="45.68167896847668" lon="10.74537180909773"><ele>72.0</ele><time>2026-04-06T10:49:59Z</time></trkpt><trkpt lat="45.6815799335771" lon="10.745274586285996"><ele>71.5</ele><time>2026-04-06T10:50:00Z</time></trkpt><trkpt lat="45.681481872018175" lon="10.745177908577528"><ele>71.0</ele><time>2026-04-06T10:50:01Z</time></trkpt><trkpt lat="45.68138564648556" lon="10.74508302959359"><ele>71.0</ele><time>2026-04-06T10:50:02Z</time></trkpt><trkpt lat="45.68129512706815" lon="10.74499377686352"><ele>71.0</ele><time>2026-04-06T10:50:03Z</time></trkpt><trkpt lat="45.681209892490884" lon="10.744909735217584"><ele>71.0</ele><time>2026-04-06T10:50:04Z</time></trkpt><trkpt lat="45.68112971150477" lon="10.744830676341053"><ele>71.0</ele><time>2026-04-06T10:50:05Z</time></trkpt><trkpt lat="45.681051613822525" lon="10.744753671468914"><ele>71.0</ele><time>2026-04-06T10:50:06Z</time></trkpt><trkpt lat="45.68097094046986" lon="10.744674093318539"><ele>70.39999999999999</ele><time>2026-04-06T10:50:07Z</time></trkpt><trkpt lat="45.68089137312162" lon="10.74459531431631"><ele>69.8</ele><time>2026-04-06T10:50:08Z</time></trkpt><trkpt lat="45.68081178217809" lon="10.744515949221801"><ele>69.19999999999999</ele><time>2026-04-06T10:50:09Z</time></trkpt><trkpt lat="45.68073020273044" lon="10.744434601287486"><ele>68.6</ele><time>2026-04-06T10:50:10Z</time></trkpt><trkpt lat="45.68064776992153" lon="10.74434856944427"><ele>68.0</ele><time>2026-04-06T10:50:11Z</time></trkpt><trkpt lat="45.68056196594544" lon="10.744253128628525"><ele>68.0</ele><time>2026-04-06T10:50:12Z</time></trkpt><trkpt lat="45.68046408027849" lon="10.744166839631504"><ele>68.0</ele><time>2026-04-06T10:50:13Z</time></trkpt><trkpt lat="45.680388727706685" lon="10.74403025722743"><ele>68.0</ele><time>2026-04-06T10:50:14Z</time></trkpt><trkpt lat="45.680301674502196" lon="10.743900897089082"><ele>68.0</ele><time>2026-04-06T10:50:15Z</time></trkpt><trkpt lat="45.680217688047144" lon="10.743763963785732"><ele>69.0</ele><time>2026-04-06T10:50:16Z</time></trkpt><trkpt lat="45.68014257324814" lon="10.74362771769049"><ele>70.0</ele><time>2026-04-06T10:50:17Z</time></trkpt><trkpt lat="45.680067268266875" lon="10.74348733824601"><ele>71.0</ele><time>2026-04-06T10:50:18Z</time></trkpt><trkpt lat="45.67998494557945" lon="10.743335446514209"><ele>72.0</ele><time>2026-04-06T10:50:19Z</time></trkpt><trkpt lat="45.67989398622314" lon="10.74316958183233"><ele>72.0</ele><time>2026-04-06T10:50:20Z</time></trkpt><trkpt lat="45.67979757019041" lon="10.742993766438182"><ele>72.0</ele><time>2026-04-06T10:50:21Z</time></trkpt><trkpt lat="45.679699462853115" lon="10.74281070527716"><ele>72.0</ele><time>2026-04-06T10:50:22Z</time></trkpt><trkpt lat="45.67960739299519" lon="10.742640310691755"><ele>72.75</ele><time>2026-04-06T10:50:23Z</time></trkpt><trkpt lat="45.679524812576354" lon="10.742486934299418"><ele>73.5</ele><time>2026-04-06T10:50:24Z</time></trkpt><trkpt lat="45.67944287622337" lon="10.742333756986254"><ele>74.25</ele><time>2026-04-06T10:50:25Z</time></trkpt><trkpt lat="45.67936124575641" lon="10.742181864642317"><ele>75.0</ele><time>2026-04-06T10:50:26Z</time></trkpt><trkpt lat="45.67927788450656" lon="10.74203528904608"><ele>75.0</ele><time>2026-04-06T10:50:27Z</time></trkpt><trkpt lat="45.67918964863041" lon="10.741891918327498"><ele>75.0</ele><time>2026-04-06T10:50:28Z</time></trkpt><trkpt lat="45.679096397213065" lon="10.741747116510279"><ele>75.0</ele><time>2026-04-06T10:50:29Z</time></trkpt><trkpt lat="45.679000132072474" lon="10.741605178980729"><ele>75.0</ele><time>2026-04-06T10:50:30Z</time></trkpt><trkpt lat="45.67890061489174" lon="10.741472693292197"><ele>75.75</ele><time>2026-04-06T10:50:31Z</time></trkpt><trkpt lat="45.678796977756065" lon="10.741349569615892"><ele>76.5</ele><time>2026-04-06T10:50:32Z</time></trkpt><trkpt lat="45.678692459646925" lon="10.741231759080836"><ele>77.25</ele><time>2026-04-06T10:50:33Z</time></trkpt><trkpt lat="45.678586058719766" lon="10.74111870101934"><ele>78.0</ele><time>2026-04-06T10:50:34Z</time></trkpt><trkpt lat="45.67847983168853" lon="10.741016618176342"><ele>75.25</ele><time>2026-04-06T10:50:35Z</time></trkpt><trkpt lat="45.67837138743744" lon="10.740916589522122"><ele>72.5</ele><time>2026-04-06T10:50:36Z</time></trkpt><trkpt lat="45.678264757222266" lon="10.74082167023847"><ele>69.75</ele><time>2026-04-06T10:50:37Z</time></trkpt><trkpt lat="45.67815385511072" lon="10.740733379596715"><ele>67.0</ele><time>2026-04-06T10:50:38Z</time></trkpt><trkpt lat="45.67804007014582" lon="10.740653756928502"><ele>67.0</ele><time>2026-04-06T10:50:39Z</time></trkpt><trkpt lat="45.67792968125632" lon="10.740581006652079"><ele>67.0</ele><time>2026-04-06T10:50:40Z</time></trkpt><trkpt lat="45.67782199801204" lon="10.740511618836704"><ele>67.0</ele><time>2026-04-06T10:50:41Z</time></trkpt><trkpt lat="45.67771197383234" lon="10.7404413591885"><ele>67.0</ele><time>2026-04-06T10:50:42Z</time></trkpt><trkpt lat="45.6775965116905" lon="10.740367626867656"><ele>67.0</ele><time>2026-04-06T10:50:43Z</time></trkpt><trkpt lat="45.67747888226042" lon="10.740292510403895"><ele>67.0</ele><time>2026-04-06T10:50:44Z</time></trkpt><trkpt lat="45.6773541920136" lon="10.74021288516618"><ele>67.0</ele><time>2026-04-06T10:50:45Z</time></trkpt><trkpt lat="45.67721797797998" lon="10.740125224439206"><ele>67.0</ele><time>2026-04-06T10:50:46Z</time></trkpt><trkpt lat="45.67707441102654" lon="10.740031627558032"><ele>69.33333333333333</ele><time>2026-04-06T10:50:47Z</time></trkpt><trkpt lat="45.67692815805517" lon="10.739936839448125"><ele>71.66666666666667</ele><time>2026-04-06T10:50:48Z</time></trkpt><trkpt lat="45.676762312370975" lon="10.73989073524011"><ele>74.0</ele><time>2026-04-06T10:50:49Z</time></trkpt><trkpt lat="45.67661286678917" lon="10.73979447694217"><ele>74.0</ele><time>2026-04-06T10:50:50Z</time></trkpt><trkpt lat="45.676461310143864" lon="10.739693008596472"><ele>74.0</ele><time>2026-04-06T10:50:51Z</time></trkpt><trkpt lat="45.676310179546014" lon="10.739593926745247"><ele>74.0</ele><time>2026-04-06T10:50:52Z</time></trkpt><trkpt lat="45.676178823015356" lon="10.739458374820627"><ele>71.66666666666667</ele><time>2026-04-06T10:50:53Z</time></trkpt><trkpt lat="45.67601829209137" lon="10.739354180262934"><ele>69.33333333333333</ele><time>2026-04-06T10:50:54Z</time></trkpt><trkpt lat="45.67586431585109" lon="10.739254240226632"><ele>67.0</ele><time>2026-04-06T10:50:55Z</time></trkpt><trkpt lat="45.67571654786084" lon="10.739159129352924"><ele>67.0</ele><time>2026-04-06T10:50:56Z</time></trkpt><trkpt lat="45.67558092595286" lon="10.739072429836831"><ele>67.0</ele><time>2026-04-06T10:50:57Z</time></trkpt><trkpt lat="45.67546081906867" lon="10.738994526476274"><ele>67.0</ele><time>2026-04-06T10:50:58Z</time></trkpt><trkpt lat="45.6753503680211" lon="10.738922800662472"><ele>67.0</ele><time>2026-04-06T10:50:59Z</time></trkpt><trkpt lat="45.67524342481226" lon="10.738853352707352"><ele>69.5</ele><time>2026-04-06T10:51:00Z</time></trkpt><trkpt lat="45.675136339957696" lon="10.738782948956603"><ele>72.0</ele><time>2026-04-06T10:51:01Z</time></trkpt><trkpt lat="45.67502663801701" lon="10.738710659631305"><ele>74.5</ele><time>2026-04-06T10:51:02Z</time></trkpt><trkpt lat="45.674916561110216" lon="10.738641469210933"><ele>77.0</ele><time>2026-04-06T10:51:03Z</time></trkpt><trkpt lat="45.67480490729215" lon="10.73857012185001"><ele>77.25</ele><time>2026-04-06T10:51:04Z</time></trkpt><trkpt lat="45.67468295134064" lon="10.738492191427778"><ele>77.5</ele><time>2026-04-06T10:51:05Z</time></trkpt><trkpt lat="45.674543828611654" lon="10.73840409828476"><ele>77.75</ele><time>2026-04-06T10:51:06Z</time></trkpt><trkpt lat="45.674401652302805" lon="10.738314289749525"><ele>78.0</ele><time>2026-04-06T10:51:07Z</time></trkpt><trkpt lat="45.67426313359252" lon="10.73822571228797"><ele>78.0</ele><time>2026-04-06T10:51:08Z</time></trkpt><trkpt lat="45.674128414196275" lon="10.738138152646194"><ele>78.0</ele><time>2026-04-06T10:51:09Z</time></trkpt><trkpt lat="45.67399875947522" lon="10.738044237288873"><ele>78.0</ele><time>2026-04-06T10:51:10Z</time></trkpt><trkpt lat="45.673880581301816" lon="10.737949510885153"><ele>78.0</ele><time>2026-04-06T10:51:11Z</time></trkpt><trkpt lat="45.673767172945304" lon="10.737851435795683"><ele>78.0</ele><time>2026-04-06T10:51:12Z</time></trkpt><trkpt lat="45.67365595695416" lon="10.737749226405349"><ele>78.0</ele><time>2026-04-06T10:51:13Z</time></trkpt><trkpt lat="45.6735486639539" lon="10.737648316951923"><ele>78.0</ele><time>2026-04-06T10:51:14Z</time></trkpt><trkpt lat="45.67343603550997" lon="10.737569595214556"><ele>78.0</ele><time>2026-04-06T10:51:15Z</time></trkpt><trkpt lat="45.673334435783396" lon="10.73747294872914"><ele>76.4</ele><time>2026-04-06T10:51:16Z</time></trkpt><trkpt lat="45.67323975189729" lon="10.737380204206842"><ele>74.8</ele><time>2026-04-06T10:51:17Z</time></trkpt><trkpt lat="45.673148153305995" lon="10.737286548414206"><ele>73.2</ele><time>2026-04-06T10:51:18Z</time></trkpt><trkpt lat="45.67306326734204" lon="10.737195643731537"><ele>71.6</ele><time>2026-04-06T10:51:19Z</time></trkpt><trkpt lat="45.67298012755603" lon="10.737108145031874"><ele>70.0</ele><time>2026-04-06T10:51:20Z</time></trkpt><trkpt lat="45.672908106099506" lon="10.737028243274281"><ele>70.0</ele><time>2026-04-06T10:51:21Z</time></trkpt><trkpt lat="45.672839950580084" lon="10.736958658490458"><ele>70.0</ele><time>2026-04-06T10:51:22Z</time></trkpt><trkpt lat="45.672779728677455" lon="10.736899096243823"><ele>70.0</ele><time>2026-04-06T10:51:23Z</time></trkpt><trkpt lat="45.67269702317088" lon="10.736823924981353"><ele>70.0</ele><time>2026-04-06T10:51:25Z</time></trkpt><trkpt lat="45.672603588591855" lon="10.7367204462368"><ele>70.0</ele><time>2026-04-06T10:51:46Z</time></trkpt><trkpt lat="45.67252510702906" lon="10.736649604732827"><ele>71.0</ele><time>2026-04-06T10:51:47Z</time></trkpt><trkpt lat="45.67243903677281" lon="10.736571428537886"><ele>72.0</ele><time>2026-04-06T10:51:48Z</time></trkpt><trkpt lat="45.672342055611836" lon="10.736487268563478"><ele>73.0</ele><time>2026-04-06T10:51:49Z</time></trkpt><trkpt lat="45.6722411516915" lon="10.736397061840684"><ele>74.0</ele><time>2026-04-06T10:51:50Z</time></trkpt><trkpt lat="45.672134407469414" lon="10.736297929792611"><ele>74.0</ele><time>2026-04-06T10:51:51Z</time></trkpt><trkpt lat="45.672024346232455" lon="10.73619885024249"><ele>74.0</ele><time>2026-04-06T10:51:52Z</time></trkpt><trkpt lat="45.67190979759049" lon="10.736092616338965"><ele>74.0</ele><time>2026-04-06T10:51:53Z</time></trkpt><trkpt lat="45.67179119136984" lon="10.73598036141862"><ele>74.0</ele><time>2026-04-06T10:51:54Z</time></trkpt><trkpt lat="45.67167520319055" lon="10.735868763705042"><ele>74.0</ele><time>2026-04-06T10:51:55Z</time></trkpt><trkpt lat="45.671556073352335" lon="10.73575346491074"><ele>74.0</ele><time>2026-04-06T10:51:56Z</time></trkpt><trkpt lat="45.67143892962567" lon="10.735642108844907"><ele>74.0</ele><time>2026-04-06T10:51:57Z</time></trkpt><trkpt lat="45.67132025137895" lon="10.73552675106395"><ele>74.0</ele><time>2026-04-06T10:51:58Z</time></trkpt><trkpt lat="45.671200823223025" lon="10.735412623096739"><ele>74.5</ele><time>2026-04-06T10:51:59Z</time></trkpt><trkpt lat="45.67108061565333" lon="10.735296470661943"><ele>75.0</ele><time>2026-04-06T10:52:00Z</time></trkpt><trkpt lat="45.670955540061044" lon="10.735179582424527"><ele>75.5</ele><time>2026-04-06T10:52:01Z</time></trkpt><trkpt lat="45.670830812738984" lon="10.73505905435793"><ele>76.0</ele><time>2026-04-06T10:52:02Z</time></trkpt><trkpt lat="45.670705359947185" lon="10.734938176678098"><ele>76.0</ele><time>2026-04-06T10:52:03Z</time></trkpt><trkpt lat="45.67057699999585" lon="10.734816427435925"><ele>76.0</ele><time>2026-04-06T10:52:04Z</time></trkpt><trkpt lat="45.67044915038652" lon="10.734693345578373"><ele>76.0</ele><time>2026-04-06T10:52:05Z</time></trkpt><trkpt lat="45.67031935536081" lon="10.734574433022162"><ele>75.0</ele><time>2026-04-06T10:52:06Z</time></trkpt><trkpt lat="45.67018800796913" lon="10.734456182407737"><ele>74.0</ele><time>2026-04-06T10:52:07Z</time></trkpt><trkpt lat="45.67005854300559" lon="10.734330910393918"><ele>73.0</ele><time>2026-04-06T10:52:08Z</time></trkpt><trkpt lat="45.66992824309164" lon="10.734203699227672"><ele>73.0</ele><time>2026-04-06T10:52:09Z</time></trkpt><trkpt lat="45.669799009205775" lon="10.73407648398543"><ele>73.0</ele><time>2026-04-06T10:52:10Z</time></trkpt><trkpt lat="45.6696654121501" lon="10.733948514985412"><ele>73.0</ele><time>2026-04-06T10:52:11Z</time></trkpt><trkpt lat="45.66953030548338" lon="10.733820241638929"><ele>71.0</ele><time>2026-04-06T10:52:12Z</time></trkpt><trkpt lat="45.669398085595994" lon="10.73369157823501"><ele>69.0</ele><time>2026-04-06T10:52:13Z</time></trkpt><trkpt lat="45.669256376241385" lon="10.733562700838931"><ele>67.0</ele><time>2026-04-06T10:52:14Z</time></trkpt><trkpt lat="45.66911623892522" lon="10.733433418653089"><ele>67.0</ele><time>2026-04-06T10:52:15Z</time></trkpt><trkpt lat="45.66897904344135" lon="10.733302073076304"><ele>67.0</ele><time>2026-04-06T10:52:16Z</time></trkpt><trkpt lat="45.66884066656748" lon="10.733170120129556"><ele>67.0</ele><time>2026-04-06T10:52:17Z</time></trkpt><trkpt lat="45.66870382232918" lon="10.733039744969977"><ele>67.33333333333333</ele><time>2026-04-06T10:52:18Z</time></trkpt><trkpt lat="45.66857017243178" lon="10.732910341053442"><ele>67.66666666666667</ele><time>2026-04-06T10:52:19Z</time></trkpt><trkpt lat="45.66842982718057" lon="10.732776509379674"><ele>68.0</ele><time>2026-04-06T10:52:20Z</time></trkpt><trkpt lat="45.668300696753796" lon="10.732626839496094"><ele>68.0</ele><time>2026-04-06T10:52:21Z</time></trkpt><trkpt lat="45.6681495812994" lon="10.732529386130397"><ele>68.0</ele><time>2026-04-06T10:52:22Z</time></trkpt><trkpt lat="45.66800357107061" lon="10.732416561558045"><ele>68.0</ele><time>2026-04-06T10:52:23Z</time></trkpt><trkpt lat="45.66785127472738" lon="10.732316624071364"><ele>73.33333333333334</ele><time>2026-04-06T10:52:24Z</time></trkpt><trkpt lat="45.66770564612887" lon="10.732196063749315"><ele>78.66666666666667</ele><time>2026-04-06T10:52:25Z</time></trkpt><trkpt lat="45.66755349690177" lon="10.73209712459022"><ele>84.0</ele><time>2026-04-06T10:52:26Z</time></trkpt><trkpt lat="45.66739826497695" lon="10.731996101760084"><ele>84.0</ele><time>2026-04-06T10:52:27Z</time></trkpt><trkpt lat="45.66725369200302" lon="10.731902015502262"><ele>84.0</ele><time>2026-04-06T10:52:28Z</time></trkpt><trkpt lat="45.66710214436516" lon="10.731803390404824"><ele>84.0</ele><time>2026-04-06T10:52:29Z</time></trkpt><trkpt lat="45.66695221900339" lon="10.731705820995217"><ele>81.0</ele><time>2026-04-06T10:52:30Z</time></trkpt><trkpt lat="45.66680480348676" lon="10.731609884961719"><ele>78.0</ele><time>2026-04-06T10:52:31Z</time></trkpt><trkpt lat="45.66665582116399" lon="10.731514370388084"><ele>75.0</ele><time>2026-04-06T10:52:32Z</time></trkpt><trkpt lat="45.66650720012083" lon="10.73141933434444"><ele>75.0</ele><time>2026-04-06T10:52:33Z</time></trkpt><trkpt lat="45.666360842450956" lon="10.731320904607891"><ele>75.0</ele><time>2026-04-06T10:52:34Z</time></trkpt><trkpt lat="45.666217920057335" lon="10.731215343986861"><ele>75.0</ele><time>2026-04-06T10:52:35Z</time></trkpt><trkpt lat="45.66607614283886" lon="10.73109865534958"><ele>74.33333333333333</ele><time>2026-04-06T10:52:36Z</time></trkpt><trkpt lat="45.665936658741415" lon="10.730981598342748"><ele>73.66666666666666</ele><time>2026-04-06T10:52:37Z</time></trkpt><trkpt lat="45.66579808946734" lon="10.730862367576885"><ele>73.0</ele><time>2026-04-06T10:52:38Z</time></trkpt><trkpt lat="45.66566212124315" lon="10.730743745909207"><ele>73.0</ele><time>2026-04-06T10:52:39Z</time></trkpt><trkpt lat="45.665521896615466" lon="10.73062141074287"><ele>73.0</ele><time>2026-04-06T10:52:40Z</time></trkpt><trkpt lat="45.6653823284809" lon="10.730499648390586"><ele>73.0</ele><time>2026-04-06T10:52:41Z</time></trkpt><trkpt lat="45.6652420320472" lon="10.730377250615263"><ele>71.66666666666666</ele><time>2026-04-06T10:52:42Z</time></trkpt><trkpt lat="45.66509971755643" lon="10.730252566342111"><ele>70.33333333333333</ele><time>2026-04-06T10:52:43Z</time></trkpt><trkpt lat="45.664958392918386" lon="10.730127173412898"><ele>69.0</ele><time>2026-04-06T10:52:44Z</time></trkpt><trkpt lat="45.66481673014241" lon="10.730001960933416"><ele>69.0</ele><time>2026-04-06T10:52:45Z</time></trkpt><trkpt lat="45.66467611110326" lon="10.729879009580523"><ele>69.0</ele><time>2026-04-06T10:52:46Z</time></trkpt><trkpt lat="45.664532974126026" lon="10.729753923439374"><ele>69.0</ele><time>2026-04-06T10:52:47Z</time></trkpt><trkpt lat="45.66438841144765" lon="10.729627666416592"><ele>68.33333333333333</ele><time>2026-04-06T10:52:48Z</time></trkpt><trkpt lat="45.6642423494432" lon="10.72950009993276"><ele>67.66666666666666</ele><time>2026-04-06T10:52:49Z</time></trkpt><trkpt lat="45.66409832769348" lon="10.729374537052228"><ele>67.0</ele><time>2026-04-06T10:52:50Z</time></trkpt><trkpt lat="45.6639545731159" lon="10.729249293776967"><ele>67.0</ele><time>2026-04-06T10:52:51Z</time></trkpt><trkpt lat="45.663813045874726" lon="10.72912609810103"><ele>67.0</ele><time>2026-04-06T10:52:52Z</time></trkpt><trkpt lat="45.663672277774424" lon="10.729003563183088"><ele>67.0</ele><time>2026-04-06T10:52:53Z</time></trkpt><trkpt lat="45.663524777346794" lon="10.728901308929107"><ele>66.33333333333333</ele><time>2026-04-06T10:52:54Z</time></trkpt><trkpt lat="45.66339545321241" lon="10.728759643986592"><ele>65.66666666666667</ele><time>2026-04-06T10:52:55Z</time></trkpt><trkpt lat="45.66325654787102" lon="10.72863884917978"><ele>65.0</ele><time>2026-04-06T10:52:56Z</time></trkpt><trkpt lat="45.66311998784918" lon="10.728520673539915"><ele>65.0</ele><time>2026-04-06T10:52:57Z</time></trkpt><trkpt lat="45.662977722029794" lon="10.728401313066904"><ele>65.0</ele><time>2026-04-06T10:52:58Z</time></trkpt><trkpt lat="45.6628331195556" lon="10.728288853175597"><ele>65.0</ele><time>2026-04-06T10:52:59Z</time></trkpt><trkpt lat="45.66268170410829" lon="10.728182673049997"><ele>70.0</ele><time>2026-04-06T10:53:00Z</time></trkpt><trkpt lat="45.662520783870384" lon="10.728108485620963"><ele>75.0</ele><time>2026-04-06T10:53:01Z</time></trkpt><trkpt lat="45.66237000647959" lon="10.727997109546592"><ele>80.0</ele><time>2026-04-06T10:53:02Z</time></trkpt><trkpt lat="45.66221131167943" lon="10.727909538992188"><ele>80.0</ele><time>2026-04-06T10:53:03Z</time></trkpt><trkpt lat="45.662055676737026" lon="10.72782376166019"><ele>80.0</ele><time>2026-04-06T10:53:04Z</time></trkpt><trkpt lat="45.66190155930137" lon="10.727734924513147"><ele>80.0</ele><time>2026-04-06T10:53:05Z</time></trkpt><trkpt lat="45.66175422974281" lon="10.727634940633227"><ele>76.33333333333334</ele><time>2026-04-06T10:53:06Z</time></trkpt><trkpt lat="45.66162133900128" lon="10.72750804497488"><ele>72.66666666666667</ele><time>2026-04-06T10:53:07Z</time></trkpt><trkpt lat="45.66150514045594" lon="10.727350826656433"><ele>69.0</ele><time>2026-04-06T10:53:08Z</time></trkpt><trkpt lat="45.6613859933493" lon="10.72718729640604"><ele>69.0</ele><time>2026-04-06T10:53:09Z</time></trkpt><trkpt lat="45.66126856832912" lon="10.72702776950088"><ele>69.0</ele><time>2026-04-06T10:53:10Z</time></trkpt><trkpt lat="45.661139528403936" lon="10.726886887021127"><ele>69.0</ele><time>2026-04-06T10:53:11Z</time></trkpt><trkpt lat="45.66101246381594" lon="10.726744765484652"><ele>71.0</ele><time>2026-04-06T10:53:12Z</time></trkpt><trkpt lat="45.660874484884424" lon="10.726630855777906"><ele>73.0</ele><time>2026-04-06T10:53:13Z</time></trkpt><trkpt lat="45.66072625260063" lon="10.726542098097179"><ele>75.0</ele><time>2026-04-06T10:53:14Z</time></trkpt><trkpt lat="45.66057263811685" lon="10.726464420870212"><ele>75.0</ele><time>2026-04-06T10:53:15Z</time></trkpt><trkpt lat="45.660425439595066" lon="10.726361286425865"><ele>75.0</ele><time>2026-04-06T10:53:16Z</time></trkpt><trkpt lat="45.66027230661354" lon="10.726276302213122"><ele>75.0</ele><time>2026-04-06T10:53:17Z</time></trkpt><trkpt lat="45.660117178444786" lon="10.7261902262285"><ele>72.66666666666667</ele><time>2026-04-06T10:53:18Z</time></trkpt><trkpt lat="45.659962401283956" lon="10.726103961032734"><ele>70.33333333333334</ele><time>2026-04-06T10:53:19Z</time></trkpt><trkpt lat="45.65981000598817" lon="10.726017822690457"><ele>68.0</ele><time>2026-04-06T10:53:20Z</time></trkpt><trkpt lat="45.65965811707045" lon="10.725932517078768"><ele>68.0</ele><time>2026-04-06T10:53:21Z</time></trkpt><trkpt lat="45.65950802130297" lon="10.725847987358025"><ele>68.0</ele><time>2026-04-06T10:53:22Z</time></trkpt><trkpt lat="45.65935916156876" lon="10.725764178770762"><ele>68.0</ele><time>2026-04-06T10:53:23Z</time></trkpt><trkpt lat="45.659210085302576" lon="10.72568023761657"><ele>70.33333333333334</ele><time>2026-04-06T10:53:24Z</time></trkpt><trkpt lat="45.65906183916013" lon="10.725596763742816"><ele>72.66666666666667</ele><time>2026-04-06T10:53:25Z</time></trkpt><trkpt lat="45.6589067716194" lon="10.725534774373328"><ele>75.0</ele><time>2026-04-06T10:53:26Z</time></trkpt><trkpt lat="45.6587644681371" lon="10.725450494442557"><ele>75.0</ele><time>2026-04-06T10:53:27Z</time></trkpt><trkpt lat="45.65862338032864" lon="10.725356742731112"><ele>75.0</ele><time>2026-04-06T10:53:28Z</time></trkpt><trkpt lat="45.658486277011015" lon="10.725252708651173"><ele>75.0</ele><time>2026-04-06T10:53:29Z</time></trkpt><trkpt lat="45.658354430540044" lon="10.72513238474204"><ele>72.0</ele><time>2026-04-06T10:53:30Z</time></trkpt><trkpt lat="45.65822941356299" lon="10.725000024451997"><ele>69.0</ele><time>2026-04-06T10:53:31Z</time></trkpt><trkpt lat="45.65810692269713" lon="10.724860931319537"><ele>66.0</ele><time>2026-04-06T10:53:32Z</time></trkpt><trkpt lat="45.65798524005181" lon="10.72472293256046"><ele>66.0</ele><time>2026-04-06T10:53:33Z</time></trkpt><trkpt lat="45.65786075278231" lon="10.72458117834406"><ele>66.0</ele><time>2026-04-06T10:53:34Z</time></trkpt><trkpt lat="45.65773894881132" lon="10.724440104213565"><ele>66.0</ele><time>2026-04-06T10:53:35Z</time></trkpt><trkpt lat="45.657612721127364" lon="10.724300488571295"><ele>66.0</ele><time>2026-04-06T10:53:36Z</time></trkpt><trkpt lat="45.657487614002925" lon="10.724166784657436"><ele>66.0</ele><time>2026-04-06T10:53:37Z</time></trkpt><trkpt lat="45.657356751028054" lon="10.72403984820544"><ele>66.0</ele><time>2026-04-06T10:53:38Z</time></trkpt><trkpt lat="45.65722341323871" lon="10.723920965648192"><ele>66.0</ele><time>2026-04-06T10:53:39Z</time></trkpt><trkpt lat="45.65708382375121" lon="10.723803814621153"><ele>66.0</ele><time>2026-04-06T10:53:40Z</time></trkpt><trkpt lat="45.65694467198515" lon="10.723690423357366"><ele>66.0</ele><time>2026-04-06T10:53:41Z</time></trkpt><trkpt lat="45.6567987846022" lon="10.723589980084618"><ele>65.33333333333333</ele><time>2026-04-06T10:53:42Z</time></trkpt><trkpt lat="45.65665021507161" lon="10.723496673534893"><ele>64.66666666666666</ele><time>2026-04-06T10:53:43Z</time></trkpt><trkpt lat="45.65650226653127" lon="10.723408590745494"><ele>64.0</ele><time>2026-04-06T10:53:44Z</time></trkpt><trkpt lat="45.65635487282091" lon="10.723324585665802"><ele>64.0</ele><time>2026-04-06T10:53:45Z</time></trkpt><trkpt lat="45.65620667289523" lon="10.723245134546278"><ele>64.0</ele><time>2026-04-06T10:53:46Z</time></trkpt><trkpt lat="45.656058376541765" lon="10.72317031856863"><ele>64.0</ele><time>2026-04-06T10:53:47Z</time></trkpt><trkpt lat="45.65591688779482" lon="10.723094430338076"><ele>65.25</ele><time>2026-04-06T10:53:48Z</time></trkpt><trkpt lat="45.65576715066957" lon="10.723016675378759"><ele>66.5</ele><time>2026-04-06T10:53:49Z</time></trkpt><trkpt lat="45.65562714511144" lon="10.72294649619753"><ele>67.75</ele><time>2026-04-06T10:53:50Z</time></trkpt><trkpt lat="45.655496407793514" lon="10.722885791615118"><ele>69.0</ele><time>2026-04-06T10:53:51Z</time></trkpt><trkpt lat="45.6553731071007" lon="10.722834542977461"><ele>68.60000000000001</ele><time>2026-04-06T10:53:52Z</time></trkpt><trkpt lat="45.65525826902767" lon="10.72279545097649"><ele>68.2</ele><time>2026-04-06T10:53:53Z</time></trkpt><trkpt lat="45.65515137124914" lon="10.72276765864356"><ele>67.80000000000001</ele><time>2026-04-06T10:53:54Z</time></trkpt><trkpt lat="45.655052116460105" lon="10.722718480359092"><ele>67.4</ele><time>2026-04-06T10:53:55Z</time></trkpt><trkpt lat="45.65495717553707" lon="10.722714062765117"><ele>67.0</ele><time>2026-04-06T10:53:56Z</time></trkpt><trkpt lat="45.65488036387789" lon="10.722694022861118"><ele>67.0</ele><time>2026-04-06T10:53:57Z</time></trkpt><trkpt lat="45.6548161570938" lon="10.722654827837195"><ele>67.0</ele><time>2026-04-06T10:53:58Z</time></trkpt><trkpt lat="45.65474341907186" lon="10.722634614061475"><ele>67.0</ele><time>2026-04-06T10:53:59Z</time></trkpt><trkpt lat="45.654662872561566" lon="10.72261538515388"><ele>67.0</ele><time>2026-04-06T10:54:00Z</time></trkpt><trkpt lat="45.65457863497567" lon="10.722596369147142"><ele>67.0</ele><time>2026-04-06T10:54:01Z</time></trkpt><trkpt lat="45.65448970564472" lon="10.722599530233396"><ele>67.0</ele><time>2026-04-06T10:54:02Z</time></trkpt><trkpt lat="45.654398456476706" lon="10.722578526961485"><ele>68.0</ele><time>2026-04-06T10:54:03Z</time></trkpt><trkpt lat="45.65430764035635" lon="10.722535194124363"><ele>69.0</ele><time>2026-04-06T10:54:04Z</time></trkpt><trkpt lat="45.65421196547567" lon="10.722514525209226"><ele>70.0</ele><time>2026-04-06T10:54:05Z</time></trkpt><trkpt lat="45.654114325574646" lon="10.72249403033352"><ele>71.0</ele><time>2026-04-06T10:54:06Z</time></trkpt><trkpt lat="45.65401208464496" lon="10.722496326836552"><ele>72.0</ele><time>2026-04-06T10:54:07Z</time></trkpt><trkpt lat="45.653907548386094" lon="10.722472726674487"><ele>72.0</ele><time>2026-04-06T10:54:08Z</time></trkpt><trkpt lat="45.65380418503474" lon="10.722447288546732"><ele>72.0</ele><time>2026-04-06T10:54:09Z</time></trkpt><trkpt lat="45.653700243062396" lon="10.72241516797553"><ele>72.0</ele><time>2026-04-06T10:54:10Z</time></trkpt><trkpt lat="45.653601482942165" lon="10.722348678737534"><ele>72.0</ele><time>2026-04-06T10:54:11Z</time></trkpt><trkpt lat="45.65349875221648" lon="10.722292335416638"><ele>72.0</ele><time>2026-04-06T10:54:12Z</time></trkpt><trkpt lat="45.653393820538284" lon="10.722232299010935"><ele>72.5</ele><time>2026-04-06T10:54:13Z</time></trkpt><trkpt lat="45.65329070240285" lon="10.722159410933509"><ele>73.0</ele><time>2026-04-06T10:54:14Z</time></trkpt><trkpt lat="45.653186232870546" lon="10.722090070185796"><ele>73.5</ele><time>2026-04-06T10:54:15Z</time></trkpt><trkpt lat="45.65308563427434" lon="10.72202375022356"><ele>74.0</ele><time>2026-04-06T10:54:16Z</time></trkpt><trkpt lat="45.652985660659326" lon="10.721959308909131"><ele>72.5</ele><time>2026-04-06T10:54:17Z</time></trkpt><trkpt lat="45.652880183290215" lon="10.72189122504805"><ele>71.0</ele><time>2026-04-06T10:54:18Z</time></trkpt><trkpt lat="45.65276676698173" lon="10.721845512296763"><ele>69.5</ele><time>2026-04-06T10:54:19Z</time></trkpt><trkpt lat="45.65265738614944" lon="10.721759595610607"><ele>68.0</ele><time>2026-04-06T10:54:20Z</time></trkpt><trkpt lat="45.65252270744109" lon="10.721686062580348"><ele>68.0</ele><time>2026-04-06T10:54:21Z</time></trkpt><trkpt lat="45.65237330492068" lon="10.721611857390604"><ele>68.0</ele><time>2026-04-06T10:54:22Z</time></trkpt><trkpt lat="45.65221918020144" lon="10.721537489844826"><ele>68.0</ele><time>2026-04-06T10:54:23Z</time></trkpt><trkpt lat="45.652068208159164" lon="10.721464643423394"><ele>70.25</ele><time>2026-04-06T10:54:24Z</time></trkpt><trkpt lat="45.65191790715667" lon="10.72139066132337"><ele>72.5</ele><time>2026-04-06T10:54:25Z</time></trkpt><trkpt lat="45.65177512091164" lon="10.721317447093352"><ele>74.75</ele><time>2026-04-06T10:54:26Z</time></trkpt><trkpt lat="45.65164508510752" lon="10.721247738682372"><ele>77.0</ele><time>2026-04-06T10:54:27Z</time></trkpt><trkpt lat="45.65152485294037" lon="10.721176396040986"><ele>77.0</ele><time>2026-04-06T10:54:28Z</time></trkpt><trkpt lat="45.65141335564773" lon="10.721106837124054"><ele>77.0</ele><time>2026-04-06T10:54:29Z</time></trkpt><trkpt lat="45.651304711754264" lon="10.7210391475768"><ele>77.0</ele><time>2026-04-06T10:54:30Z</time></trkpt><trkpt lat="45.65118694746989" lon="10.720965414098066"><ele>77.0</ele><time>2026-04-06T10:54:31Z</time></trkpt><trkpt lat="45.65105903105192" lon="10.720882324889761"><ele>76.25</ele><time>2026-04-06T10:54:32Z</time></trkpt><trkpt lat="45.65092683867764" lon="10.7207875912801"><ele>75.5</ele><time>2026-04-06T10:54:33Z</time></trkpt><trkpt lat="45.650799917090396" lon="10.720687857679973"><ele>74.75</ele><time>2026-04-06T10:54:34Z</time></trkpt><trkpt lat="45.650678731030006" lon="10.720584948595455"><ele>74.0</ele><time>2026-04-06T10:54:35Z</time></trkpt><trkpt lat="45.65056772632041" lon="10.720478637388048"><ele>74.0</ele><time>2026-04-06T10:54:36Z</time></trkpt><trkpt lat="45.65046355464264" lon="10.720370064137164"><ele>74.0</ele><time>2026-04-06T10:54:37Z</time></trkpt><trkpt lat="45.650362136271454" lon="10.720262232348112"><ele>74.0</ele><time>2026-04-06T10:54:38Z</time></trkpt><trkpt lat="45.65026517138629" lon="10.720158859077328"><ele>74.0</ele><time>2026-04-06T10:54:39Z</time></trkpt><trkpt lat="45.65017026698328" lon="10.720057106559352"><ele>73.60000000000001</ele><time>2026-04-06T10:54:40Z</time></trkpt><trkpt lat="45.650073376284325" lon="10.719953224618227"><ele>73.2</ele><time>2026-04-06T10:54:41Z</time></trkpt><trkpt lat="45.649977288837945" lon="10.719850203665322"><ele>72.80000000000001</ele><time>2026-04-06T10:54:42Z</time></trkpt><trkpt lat="45.64989528003274" lon="10.719762277308886"><ele>72.4</ele><time>2026-04-06T10:54:43Z</time></trkpt><trkpt lat="45.64984022399443" lon="10.719702666040344"><ele>72.0</ele><time>2026-04-06T10:54:44Z</time></trkpt><trkpt lat="45.64976149310546" lon="10.719617221639366"><ele>72.0</ele><time>2026-04-06T10:54:46Z</time></trkpt><trkpt lat="45.64966292208548" lon="10.719510245360555"><ele>72.0</ele><time>2026-04-06T10:54:48Z</time></trkpt><trkpt lat="45.64961142624397" lon="10.719454358277053"><ele>72.0</ele><time>2026-04-06T10:54:49Z</time></trkpt><trkpt lat="45.64955458034984" lon="10.71939264077418"><ele>72.0</ele><time>2026-04-06T10:54:50Z</time></trkpt><trkpt lat="45.64949554898461" lon="10.719328385912277"><ele>72.0</ele><time>2026-04-06T10:54:51Z</time></trkpt><trkpt lat="45.64943237950762" lon="10.71925962676654"><ele>72.0</ele><time>2026-04-06T10:54:52Z</time></trkpt><trkpt lat="45.64936205944914" lon="10.719183084627184"><ele>72.4</ele><time>2026-04-06T10:54:53Z</time></trkpt><trkpt lat="45.64928891902839" lon="10.719103493752765"><ele>72.80000000000001</ele><time>2026-04-06T10:54:54Z</time></trkpt><trkpt lat="45.64921426880287" lon="10.71902234833695"><ele>73.2</ele><time>2026-04-06T10:54:55Z</time></trkpt><trkpt lat="45.64913882335137" lon="10.718940338465844"><ele>73.60000000000001</ele><time>2026-04-06T10:54:56Z</time></trkpt><trkpt lat="45.649063799491415" lon="10.718856269434296"><ele>74.0</ele><time>2026-04-06T10:54:57Z</time></trkpt><trkpt lat="45.64899102258291" lon="10.718773718547567"><ele>74.0</ele><time>2026-04-06T10:54:58Z</time></trkpt><trkpt lat="45.648920369346904" lon="10.71869012594207"><ele>74.0</ele><time>2026-04-06T10:54:59Z</time></trkpt><trkpt lat="45.64885507108086" lon="10.718608878639735"><ele>74.0</ele><time>2026-04-06T10:55:00Z</time></trkpt><trkpt lat="45.648801133252306" lon="10.718538540194984"><ele>74.0</ele><time>2026-04-06T10:55:01Z</time></trkpt><trkpt lat="45.64873147350848" lon="10.718437992409147"><ele>74.0</ele><time>2026-04-06T10:55:03Z</time></trkpt><trkpt lat="45.6486806078786" lon="10.718359236805302"><ele>74.0</ele><time>2026-04-06T10:55:06Z</time></trkpt><trkpt lat="45.648600276992845" lon="10.718222932682316"><ele>75.0</ele><time>2026-04-06T10:55:35Z</time></trkpt><trkpt lat="45.64854475989613" lon="10.71811549930779"><ele>76.0</ele><time>2026-04-06T10:55:36Z</time></trkpt><trkpt lat="45.648484703386835" lon="10.717983002012271"><ele>77.0</ele><time>2026-04-06T10:55:37Z</time></trkpt><trkpt lat="45.64841908484748" lon="10.717826616719561"><ele>78.0</ele><time>2026-04-06T10:55:38Z</time></trkpt><trkpt lat="45.648349480710124" lon="10.717653917762316"><ele>75.0</ele><time>2026-04-06T10:55:39Z</time></trkpt><trkpt lat="45.648260691674245" lon="10.717479703912595"><ele>72.0</ele><time>2026-04-06T10:55:40Z</time></trkpt><trkpt lat="45.64819982688629" lon="10.717282340109284"><ele>69.0</ele><time>2026-04-06T10:55:41Z</time></trkpt><trkpt lat="45.64810938075141" lon="10.717098684862028"><ele>69.0</ele><time>2026-04-06T10:55:42Z</time></trkpt><trkpt lat="45.64803462809918" lon="10.716904774959863"><ele>69.0</ele><time>2026-04-06T10:55:43Z</time></trkpt><trkpt lat="45.64796136664618" lon="10.716711641808569"><ele>69.0</ele><time>2026-04-06T10:55:44Z</time></trkpt><trkpt lat="45.64788341132256" lon="10.716523067941816"><ele>69.66666666666667</ele><time>2026-04-06T10:55:45Z</time></trkpt><trkpt lat="45.64780036720424" lon="10.716343780149415"><ele>70.33333333333334</ele><time>2026-04-06T10:55:46Z</time></trkpt><trkpt lat="45.64771402682184" lon="10.716167841226142"><ele>71.0</ele><time>2026-04-06T10:55:47Z</time></trkpt><trkpt lat="45.64760896614824" lon="10.71600820563174"><ele>71.0</ele><time>2026-04-06T10:55:48Z</time></trkpt><trkpt lat="45.64751007633045" lon="10.7158476027381"><ele>71.0</ele><time>2026-04-06T10:55:49Z</time></trkpt><trkpt lat="45.64739051570539" lon="10.71571052214715"><ele>71.0</ele><time>2026-04-06T10:55:50Z</time></trkpt><trkpt lat="45.64725653363188" lon="10.715596077737652"><ele>71.0</ele><time>2026-04-06T10:55:51Z</time></trkpt><trkpt lat="45.647111237045394" lon="10.715513008767687"><ele>71.0</ele><time>2026-04-06T10:55:52Z</time></trkpt><trkpt lat="45.64696684200989" lon="10.715417257620661"><ele>71.0</ele><time>2026-04-06T10:55:53Z</time></trkpt><trkpt lat="45.64682354450885" lon="10.715307095808116"><ele>69.0</ele><time>2026-04-06T10:55:54Z</time></trkpt><trkpt lat="45.646673399632164" lon="10.71521655020637"><ele>67.0</ele><time>2026-04-06T10:55:55Z</time></trkpt><trkpt lat="45.64652359432975" lon="10.715126209425735"><ele>65.0</ele><time>2026-04-06T10:55:56Z</time></trkpt><trkpt lat="45.64637179767294" lon="10.715034667843389"><ele>65.0</ele><time>2026-04-06T10:55:57Z</time></trkpt><trkpt lat="45.64621937109109" lon="10.714942746331026"><ele>65.0</ele><time>2026-04-06T10:55:58Z</time></trkpt><trkpt lat="45.64606614219993" lon="10.71485036156108"><ele>65.0</ele><time>2026-04-06T10:55:59Z</time></trkpt><trkpt lat="45.6459135250352" lon="10.714755382821037"><ele>67.0</ele><time>2026-04-06T10:56:00Z</time></trkpt><trkpt lat="45.64575990763198" lon="10.714662626744515"><ele>69.0</ele><time>2026-04-06T10:56:01Z</time></trkpt><trkpt lat="45.64560474976484" lon="10.714587812129105"><ele>71.0</ele><time>2026-04-06T10:56:02Z</time></trkpt><trkpt lat="45.64547300539166" lon="10.714449316936625"><ele>71.66666666666667</ele><time>2026-04-06T10:56:03Z</time></trkpt><trkpt lat="45.645326157432436" lon="10.71434012578659"><ele>72.33333333333333</ele><time>2026-04-06T10:56:04Z</time></trkpt><trkpt lat="45.645192497260766" lon="10.714206741639375"><ele>73.0</ele><time>2026-04-06T10:56:05Z</time></trkpt><trkpt lat="45.64505608981907" lon="10.714072826742184"><ele>73.0</ele><time>2026-04-06T10:56:06Z</time></trkpt><trkpt lat="45.64492088418369" lon="10.71394242479572"><ele>73.0</ele><time>2026-04-06T10:56:07Z</time></trkpt><trkpt lat="45.6447837616478" lon="10.7138111574502"><ele>73.0</ele><time>2026-04-06T10:56:08Z</time></trkpt><trkpt lat="45.64464838976793" lon="10.713682111399935"><ele>74.66666666666666</ele><time>2026-04-06T10:56:09Z</time></trkpt><trkpt lat="45.64451277308217" lon="10.713551463355317"><ele>76.33333333333333</ele><time>2026-04-06T10:56:10Z</time></trkpt><trkpt lat="45.64437789248694" lon="10.71342032410728"><ele>78.0</ele><time>2026-04-06T10:56:11Z</time></trkpt><trkpt lat="45.644249946957046" lon="10.713276804177951"><ele>78.0</ele><time>2026-04-06T10:56:12Z</time></trkpt><trkpt lat="45.64413461003361" lon="10.713111691534888"><ele>78.0</ele><time>2026-04-06T10:56:13Z</time></trkpt><trkpt lat="45.64405297664994" lon="10.71290934785665"><ele>78.0</ele><time>2026-04-06T10:56:14Z</time></trkpt><trkpt lat="45.64395900325226" lon="10.712715805663498"><ele>73.66666666666667</ele><time>2026-04-06T10:56:15Z</time></trkpt><trkpt lat="45.64388618567187" lon="10.712504659133884"><ele>69.33333333333334</ele><time>2026-04-06T10:56:16Z</time></trkpt><trkpt lat="45.643806094072296" lon="10.712296838241055"><ele>65.0</ele><time>2026-04-06T10:56:17Z</time></trkpt><trkpt lat="45.64370949686118" lon="10.71210188468058"><ele>70.66666666666667</ele><time>2026-04-06T10:56:18Z</time></trkpt><trkpt lat="45.643595173518" lon="10.71192235066106"><ele>76.33333333333333</ele><time>2026-04-06T10:56:19Z</time></trkpt><trkpt lat="45.64347697347745" lon="10.711729023485026"><ele>82.0</ele><time>2026-04-06T10:56:20Z</time></trkpt><trkpt lat="45.643360613872844" lon="10.71152570020869"><ele>82.0</ele><time>2026-04-06T10:56:21Z</time></trkpt><trkpt lat="45.64324566525233" lon="10.71133467302193"><ele>82.0</ele><time>2026-04-06T10:56:22Z</time></trkpt><trkpt lat="45.64312779754281" lon="10.711140627178883"><ele>82.0</ele><time>2026-04-06T10:56:23Z</time></trkpt><trkpt lat="45.64301221176128" lon="10.710949268205258"><ele>82.0</ele><time>2026-04-06T10:56:24Z</time></trkpt><trkpt lat="45.6428932450669" lon="10.710764137173143"><ele>82.0</ele><time>2026-04-06T10:56:25Z</time></trkpt><trkpt lat="45.64276700998137" lon="10.710601059407715"><ele>82.0</ele><time>2026-04-06T10:56:26Z</time></trkpt><trkpt lat="45.6426258016372" lon="10.710456839722294"><ele>82.0</ele><time>2026-04-06T10:56:27Z</time></trkpt><trkpt lat="45.642478663502864" lon="10.710331110104482"><ele>82.0</ele><time>2026-04-06T10:56:28Z</time></trkpt><trkpt lat="45.64233058589905" lon="10.71021348336085"><ele>82.0</ele><time>2026-04-06T10:56:29Z</time></trkpt><trkpt lat="45.64218451179596" lon="10.710082744385698"><ele>84.33333333333333</ele><time>2026-04-06T10:56:30Z</time></trkpt><trkpt lat="45.64207633970383" lon="10.709907146013682"><ele>86.66666666666667</ele><time>2026-04-06T10:56:31Z</time></trkpt><trkpt lat="45.641966345167944" lon="10.709729634952462"><ele>89.0</ele><time>2026-04-06T10:56:32Z</time></trkpt><trkpt lat="45.641877925871825" lon="10.709533094684298"><ele>84.66666666666667</ele><time>2026-04-06T10:56:33Z</time></trkpt><trkpt lat="45.64179923275534" lon="10.709329628832522"><ele>80.33333333333333</ele><time>2026-04-06T10:56:34Z</time></trkpt><trkpt lat="45.641721250727905" lon="10.70912843696418"><ele>76.0</ele><time>2026-04-06T10:56:35Z</time></trkpt><trkpt lat="45.64163235798281" lon="10.708944378365766"><ele>76.0</ele><time>2026-04-06T10:56:36Z</time></trkpt><trkpt lat="45.64154995567775" lon="10.708756175157367"><ele>76.0</ele><time>2026-04-06T10:56:37Z</time></trkpt><trkpt lat="45.64144350158526" lon="10.708596730361522"><ele>76.0</ele><time>2026-04-06T10:56:38Z</time></trkpt><trkpt lat="45.64132246357701" lon="10.708445452373017"><ele>78.33333333333333</ele><time>2026-04-06T10:56:39Z</time></trkpt><trkpt lat="45.64119407688172" lon="10.708312666644229"><ele>80.66666666666667</ele><time>2026-04-06T10:56:40Z</time></trkpt><trkpt lat="45.64105222815155" lon="10.708206003927154"><ele>83.0</ele><time>2026-04-06T10:56:41Z</time></trkpt><trkpt lat="45.64090340455349" lon="10.708117327247463"><ele>83.0</ele><time>2026-04-06T10:56:42Z</time></trkpt><trkpt lat="45.64076247741473" lon="10.708006139359137"><ele>83.0</ele><time>2026-04-06T10:56:43Z</time></trkpt><trkpt lat="45.640609018239516" lon="10.707914567448379"><ele>83.0</ele><time>2026-04-06T10:56:44Z</time></trkpt><trkpt lat="45.6404690083701" lon="10.70782891872407"><ele>79.66666666666667</ele><time>2026-04-06T10:56:45Z</time></trkpt><trkpt lat="45.64032442210535" lon="10.707738525506167"><ele>76.33333333333333</ele><time>2026-04-06T10:56:46Z</time></trkpt><trkpt lat="45.64017762650943" lon="10.70766917222028"><ele>73.0</ele><time>2026-04-06T10:56:47Z</time></trkpt><trkpt lat="45.64003489472333" lon="10.707576789995167"><ele>73.0</ele><time>2026-04-06T10:56:48Z</time></trkpt><trkpt lat="45.63989670480964" lon="10.707481790959013"><ele>73.0</ele><time>2026-04-06T10:56:49Z</time></trkpt><trkpt lat="45.63975921395113" lon="10.707382467521278"><ele>73.0</ele><time>2026-04-06T10:56:50Z</time></trkpt><trkpt lat="45.639629755768624" lon="10.707282103093979"><ele>73.0</ele><time>2026-04-06T10:56:51Z</time></trkpt><trkpt lat="45.63950755150902" lon="10.707194979585804"><ele>73.0</ele><time>2026-04-06T10:56:52Z</time></trkpt><trkpt lat="45.63938423491274" lon="10.707109217590459"><ele>73.0</ele><time>2026-04-06T10:56:53Z</time></trkpt><trkpt lat="45.6392725122945" lon="10.707024953293526"><ele>73.0</ele><time>2026-04-06T10:56:54Z</time></trkpt><trkpt lat="45.639163461550986" lon="10.70694625547004"><ele>71.0</ele><time>2026-04-06T10:56:55Z</time></trkpt><trkpt lat="45.63905144909554" lon="10.706865421626889"><ele>69.0</ele><time>2026-04-06T10:56:56Z</time></trkpt><trkpt lat="45.63895210714717" lon="10.706767776926378"><ele>67.0</ele><time>2026-04-06T10:56:57Z</time></trkpt><trkpt lat="45.638851054330246" lon="10.70668861398603"><ele>65.0</ele><time>2026-04-06T10:56:58Z</time></trkpt><trkpt lat="45.638746713715086" lon="10.706624141870412"><ele>65.0</ele><time>2026-04-06T10:56:59Z</time></trkpt><trkpt lat="45.63865592871979" lon="10.706524701868558"><ele>65.0</ele><time>2026-04-06T10:57:00Z</time></trkpt><trkpt lat="45.63856498695691" lon="10.706403447533726"><ele>65.0</ele><time>2026-04-06T10:57:01Z</time></trkpt><trkpt lat="45.63847232395977" lon="10.706278537356672"><ele>65.0</ele><time>2026-04-06T10:57:02Z</time></trkpt><trkpt lat="45.63838239573923" lon="10.706149881085295"><ele>65.5</ele><time>2026-04-06T10:57:03Z</time></trkpt><trkpt lat="45.63829153502256" lon="10.706021131250058"><ele>66.0</ele><time>2026-04-06T10:57:04Z</time></trkpt><trkpt lat="45.638199899358824" lon="10.705888628404512"><ele>66.5</ele><time>2026-04-06T10:57:05Z</time></trkpt><trkpt lat="45.63810526508473" lon="10.705756636710644"><ele>67.0</ele><time>2026-04-06T10:57:06Z</time></trkpt><trkpt lat="45.638006216688254" lon="10.70562239342378"><ele>67.0</ele><time>2026-04-06T10:57:07Z</time></trkpt><trkpt lat="45.637899945314636" lon="10.705493927839063"><ele>67.0</ele><time>2026-04-06T10:57:08Z</time></trkpt><trkpt lat="45.63780182583904" lon="10.70535036562292"><ele>67.0</ele><time>2026-04-06T10:57:09Z</time></trkpt><trkpt lat="45.637683513162365" lon="10.705231159258553"><ele>67.0</ele><time>2026-04-06T10:57:10Z</time></trkpt><trkpt lat="45.63755356741797" lon="10.705141081125408"><ele>67.75</ele><time>2026-04-06T10:57:11Z</time></trkpt><trkpt lat="45.637440296710665" lon="10.705013336914702"><ele>68.5</ele><time>2026-04-06T10:57:12Z</time></trkpt><trkpt lat="45.63731534847667" lon="10.704904107162744"><ele>69.25</ele><time>2026-04-06T10:57:13Z</time></trkpt><trkpt lat="45.637189134210224" lon="10.704795409671995"><ele>70.0</ele><time>2026-04-06T10:57:14Z</time></trkpt><trkpt lat="45.63705508883541" lon="10.704706044025798"><ele>69.5</ele><time>2026-04-06T10:57:15Z</time></trkpt><trkpt lat="45.63693011742598" lon="10.704597241942489"><ele>69.0</ele><time>2026-04-06T10:57:16Z</time></trkpt><trkpt lat="45.63680474216019" lon="10.704488242576074"><ele>68.5</ele><time>2026-04-06T10:57:17Z</time></trkpt><trkpt lat="45.63667981857554" lon="10.704381228059287"><ele>68.0</ele><time>2026-04-06T10:57:18Z</time></trkpt><trkpt lat="45.63655055205386" lon="10.704278306471592"><ele>68.0</ele><time>2026-04-06T10:57:19Z</time></trkpt><trkpt lat="45.63643068625424" lon="10.704157281186466"><ele>68.0</ele><time>2026-04-06T10:57:20Z</time></trkpt><trkpt lat="45.636295816814666" lon="10.704086441181504"><ele>68.0</ele><time>2026-04-06T10:57:21Z</time></trkpt><trkpt lat="45.636169880173625" lon="10.704000434869693"><ele>68.0</ele><time>2026-04-06T10:57:22Z</time></trkpt><trkpt lat="45.636039802471764" lon="10.703915634550459"><ele>70.5</ele><time>2026-04-06T10:57:23Z</time></trkpt><trkpt lat="45.63591027499455" lon="10.703834171857906"><ele>73.0</ele><time>2026-04-06T10:57:24Z</time></trkpt><trkpt lat="45.63578013235859" lon="10.703753517732602"><ele>75.5</ele><time>2026-04-06T10:57:25Z</time></trkpt><trkpt lat="45.635648117771176" lon="10.703674178170742"><ele>78.0</ele><time>2026-04-06T10:57:26Z</time></trkpt><trkpt lat="45.63551430302749" lon="10.703595830386986"><ele>75.75</ele><time>2026-04-06T10:57:27Z</time></trkpt><trkpt lat="45.63538189646313" lon="10.703515880085643"><ele>73.5</ele><time>2026-04-06T10:57:28Z</time></trkpt><trkpt lat="45.63524895261628" lon="10.703432168905936"><ele>71.25</ele><time>2026-04-06T10:57:29Z</time></trkpt><trkpt lat="45.635119190158164" lon="10.703348575704693"><ele>69.0</ele><time>2026-04-06T10:57:30Z</time></trkpt><trkpt lat="45.634991878170304" lon="10.703264360014865"><ele>69.0</ele><time>2026-04-06T10:57:31Z</time></trkpt><trkpt lat="45.63487330076561" lon="10.703183091236266"><ele>69.0</ele><time>2026-04-06T10:57:32Z</time></trkpt><trkpt lat="45.63475734601372" lon="10.703102363036063"><ele>69.0</ele><time>2026-04-06T10:57:33Z</time></trkpt><trkpt lat="45.63464384271273" lon="10.70302549711559"><ele>69.0</ele><time>2026-04-06T10:57:34Z</time></trkpt><trkpt lat="45.634530079931295" lon="10.70294543030897"><ele>68.0</ele><time>2026-04-06T10:57:35Z</time></trkpt><trkpt lat="45.63441608583239" lon="10.702865441642285"><ele>67.0</ele><time>2026-04-06T10:57:36Z</time></trkpt><trkpt lat="45.63429980146036" lon="10.70278471406124"><ele>66.0</ele><time>2026-04-06T10:57:37Z</time></trkpt><trkpt lat="45.634184166180454" lon="10.702703704807096"><ele>65.0</ele><time>2026-04-06T10:57:38Z</time></trkpt><trkpt lat="45.63406974066577" lon="10.702625844842478"><ele>65.0</ele><time>2026-04-06T10:57:39Z</time></trkpt><trkpt lat="45.63396413546964" lon="10.702556031295748"><ele>65.0</ele><time>2026-04-06T10:57:40Z</time></trkpt><trkpt lat="45.633868857162035" lon="10.70249844720815"><ele>65.0</ele><time>2026-04-06T10:57:41Z</time></trkpt><trkpt lat="45.633788473454665" lon="10.70242456183423"><ele>65.0</ele><time>2026-04-06T10:57:42Z</time></trkpt><trkpt lat="45.63370527012893" lon="10.70237295472181"><ele>65.0</ele><time>2026-04-06T10:57:43Z</time></trkpt><trkpt lat="45.63361195716307" lon="10.702316626901144"><ele>65.75</ele><time>2026-04-06T10:57:44Z</time></trkpt><trkpt lat="45.633508439634596" lon="10.702254783267037"><ele>66.5</ele><time>2026-04-06T10:57:45Z</time></trkpt><trkpt lat="45.63339120117892" lon="10.702184742493477"><ele>67.25</ele><time>2026-04-06T10:57:46Z</time></trkpt><trkpt lat="45.6332687686987" lon="10.702112208632114"><ele>68.0</ele><time>2026-04-06T10:57:47Z</time></trkpt><trkpt lat="45.633148126598265" lon="10.70204119131241"><ele>68.0</ele><time>2026-04-06T10:57:48Z</time></trkpt><trkpt lat="45.633026471659306" lon="10.701969577806194"><ele>68.0</ele><time>2026-04-06T10:57:49Z</time></trkpt><trkpt lat="45.63291468592266" lon="10.701903773876518"><ele>68.0</ele><time>2026-04-06T10:57:50Z</time></trkpt><trkpt lat="45.632823776505504" lon="10.701850259107834"><ele>68.0</ele><time>2026-04-06T10:57:51Z</time></trkpt><trkpt lat="45.632747622095806" lon="10.701805429979636"><ele>68.0</ele><time>2026-04-06T10:57:52Z</time></trkpt><trkpt lat="45.63268919294999" lon="10.701771034965223"><ele>68.2</ele><time>2026-04-06T10:57:53Z</time></trkpt><trkpt lat="45.63258957115244" lon="10.701712391506181"><ele>68.4</ele><time>2026-04-06T10:57:55Z</time></trkpt><trkpt lat="45.63250507956031" lon="10.701662654587572"><ele>68.60000000000001</ele><time>2026-04-06T10:57:57Z</time></trkpt><trkpt lat="45.63241239949594" lon="10.701633267630505"><ele>68.8</ele><time>2026-04-06T10:57:59Z</time></trkpt><trkpt lat="45.632326170291634" lon="10.70155733767186"><ele>69.0</ele><time>2026-04-06T10:58:01Z</time></trkpt><trkpt lat="45.63223013047807" lon="10.701500803029353"><ele>69.0</ele><time>2026-04-06T10:58:03Z</time></trkpt><trkpt lat="45.632128890860926" lon="10.701467312553087"><ele>69.0</ele><time>2026-04-06T10:58:05Z</time></trkpt><trkpt lat="45.632040916271414" lon="10.701412702145973"><ele>69.0</ele><time>2026-04-06T10:58:07Z</time></trkpt><trkpt lat="45.631929662431695" lon="10.701344026983127"><ele>69.0</ele><time>2026-04-06T10:58:09Z</time></trkpt><trkpt lat="45.631868395498" lon="10.701311478674794"><ele>69.0</ele><time>2026-04-06T10:58:10Z</time></trkpt><trkpt lat="45.631751344397294" lon="10.701239048255998"><ele>69.83333333333333</ele><time>2026-04-06T10:58:12Z</time></trkpt><trkpt lat="45.63169106218713" lon="10.701202880647461"><ele>70.66666666666667</ele><time>2026-04-06T10:58:13Z</time></trkpt><trkpt lat="45.63158560608192" lon="10.701145283619873"><ele>71.5</ele><time>2026-04-06T10:58:15Z</time></trkpt><trkpt lat="45.631528941898274" lon="10.701088253236627"><ele>72.33333333333334</ele><time>2026-04-06T10:58:16Z</time></trkpt><trkpt lat="45.63146002370786" lon="10.701077433525857"><ele>73.16666666666667</ele><time>2026-04-06T10:58:17Z</time></trkpt><trkpt lat="45.63140564531922" lon="10.701024481677335"><ele>74.0</ele><time>2026-04-06T10:58:18Z</time></trkpt><trkpt lat="45.63134056156813" lon="10.700991542513842"><ele>73.16666666666667</ele><time>2026-04-06T10:58:19Z</time></trkpt><trkpt lat="45.631276350548575" lon="10.700960890202177"><ele>72.33333333333334</ele><time>2026-04-06T10:58:20Z</time></trkpt><trkpt lat="45.63117008270287" lon="10.700915600632507"><ele>71.5</ele><time>2026-04-06T10:58:22Z</time></trkpt><trkpt lat="45.63109042156207" lon="10.700884485597477"><ele>70.66666666666667</ele><time>2026-04-06T10:58:24Z</time></trkpt><trkpt lat="45.63100062862039" lon="10.700851930866612"><ele>69.83333333333333</ele><time>2026-04-06T10:58:27Z</time></trkpt><trkpt lat="45.6309258019737" lon="10.700828370173475"><ele>69.0</ele><time>2026-04-06T10:58:29Z</time></trkpt><trkpt lat="45.630819058922235" lon="10.70079521666663"><ele>69.0</ele><time>2026-04-06T10:58:31Z</time></trkpt><trkpt lat="45.630725055202944" lon="10.700767095896936"><ele>69.0</ele><time>2026-04-06T10:58:32Z</time></trkpt><trkpt lat="45.63061334024665" lon="10.700733676908161"><ele>69.0</ele><time>2026-04-06T10:58:33Z</time></trkpt><trkpt lat="45.630490303507926" lon="10.700696343132737"><ele>69.0</ele><time>2026-04-06T10:58:34Z</time></trkpt><trkpt lat="45.63036130058055" lon="10.700658634876252"><ele>70.0</ele><time>2026-04-06T10:58:35Z</time></trkpt><trkpt lat="45.63022570235497" lon="10.700613977727048"><ele>71.0</ele><time>2026-04-06T10:58:36Z</time></trkpt><trkpt lat="45.6300901870895" lon="10.700553678159071"><ele>72.0</ele><time>2026-04-06T10:58:37Z</time></trkpt><trkpt lat="45.629956542390275" lon="10.700481876910965"><ele>73.0</ele><time>2026-04-06T10:58:38Z</time></trkpt><trkpt lat="45.62982213144257" lon="10.700404523276566"><ele>73.0</ele><time>2026-04-06T10:58:39Z</time></trkpt><trkpt lat="45.62968890390718" lon="10.70032225591759"><ele>73.0</ele><time>2026-04-06T10:58:40Z</time></trkpt><trkpt lat="45.62955618605667" lon="10.700237688553"><ele>73.0</ele><time>2026-04-06T10:58:41Z</time></trkpt><trkpt lat="45.62942162878749" lon="10.700150686338171"><ele>73.0</ele><time>2026-04-06T10:58:42Z</time></trkpt><trkpt lat="45.62929205808492" lon="10.700067314304471"><ele>71.5</ele><time>2026-04-06T10:58:43Z</time></trkpt><trkpt lat="45.629169182599256" lon="10.699988303366386"><ele>70.0</ele><time>2026-04-06T10:58:44Z</time></trkpt><trkpt lat="45.629048836319264" lon="10.699910747531709"><ele>68.5</ele><time>2026-04-06T10:58:45Z</time></trkpt><trkpt lat="45.62892870924339" lon="10.699833284573222"><ele>67.0</ele><time>2026-04-06T10:58:46Z</time></trkpt><trkpt lat="45.62881474901853" lon="10.6997590716115"><ele>67.0</ele><time>2026-04-06T10:58:47Z</time></trkpt><trkpt lat="45.62870323072694" lon="10.699687584015821"><ele>67.0</ele><time>2026-04-06T10:58:48Z</time></trkpt><trkpt lat="45.62859188350276" lon="10.699616190792124"><ele>67.0</ele><time>2026-04-06T10:58:49Z</time></trkpt><trkpt lat="45.628485832597924" lon="10.699548193460476"><ele>67.0</ele><time>2026-04-06T10:58:50Z</time></trkpt><trkpt lat="45.62838804209368" lon="10.699487141603418"><ele>66.6</ele><time>2026-04-06T10:58:51Z</time></trkpt><trkpt lat="45.62829888890067" lon="10.6994315731799"><ele>66.2</ele><time>2026-04-06T10:58:52Z</time></trkpt><trkpt lat="45.62820319609816" lon="10.699374678102052"><ele>65.8</ele><time>2026-04-06T10:58:53Z</time></trkpt><trkpt lat="45.62810047204016" lon="10.699313762635558"><ele>65.4</ele><time>2026-04-06T10:58:54Z</time></trkpt><trkpt lat="45.62799407385903" lon="10.699256290414803"><ele>65.0</ele><time>2026-04-06T10:58:55Z</time></trkpt><trkpt lat="45.627896062165235" lon="10.699209181607351"><ele>66.0</ele><time>2026-04-06T10:58:56Z</time></trkpt><trkpt lat="45.62780474821067" lon="10.699169445228309"><ele>67.0</ele><time>2026-04-06T10:58:57Z</time></trkpt><trkpt lat="45.62771290245003" lon="10.699130645466662"><ele>68.0</ele><time>2026-04-06T10:58:58Z</time></trkpt><trkpt lat="45.62760906358348" lon="10.699090506933379"><ele>69.0</ele><time>2026-04-06T10:58:59Z</time></trkpt><trkpt lat="45.62749355629049" lon="10.69904842140713"><ele>70.0</ele><time>2026-04-06T10:59:00Z</time></trkpt><trkpt lat="45.62737422275434" lon="10.699007508603549"><ele>70.0</ele><time>2026-04-06T10:59:01Z</time></trkpt><trkpt lat="45.62726534687745" lon="10.698971873240488"><ele>70.0</ele><time>2026-04-06T10:59:02Z</time></trkpt><trkpt lat="45.6271563442644" lon="10.698936196400298"><ele>70.0</ele><time>2026-04-06T10:59:03Z</time></trkpt><trkpt lat="45.62704367784637" lon="10.698899323509877"><ele>70.0</ele><time>2026-04-06T10:59:04Z</time></trkpt><trkpt lat="45.626933193167716" lon="10.698863245088372"><ele>71.0</ele><time>2026-04-06T10:59:05Z</time></trkpt><trkpt lat="45.626820115709144" lon="10.698826319989998"><ele>72.0</ele><time>2026-04-06T10:59:06Z</time></trkpt><trkpt lat="45.62671425085587" lon="10.698790375042094"><ele>73.0</ele><time>2026-04-06T10:59:07Z</time></trkpt><trkpt lat="45.626606979363345" lon="10.698752423973254"><ele>74.0</ele><time>2026-04-06T10:59:08Z</time></trkpt><trkpt lat="45.62650247813569" lon="10.698709556209979"><ele>75.0</ele><time>2026-04-06T10:59:09Z</time></trkpt><trkpt lat="45.62640216098452" lon="10.698661730592232"><ele>75.0</ele><time>2026-04-06T10:59:10Z</time></trkpt><trkpt lat="45.62630083625318" lon="10.698608081282803"><ele>75.0</ele><time>2026-04-06T10:59:11Z</time></trkpt><trkpt lat="45.626203303465616" lon="10.698546761501687"><ele>75.0</ele><time>2026-04-06T10:59:12Z</time></trkpt><trkpt lat="45.62610841945358" lon="10.698471636151384"><ele>75.0</ele><time>2026-04-06T10:59:13Z</time></trkpt><trkpt lat="45.62601361544486" lon="10.698385594429114"><ele>75.0</ele><time>2026-04-06T10:59:14Z</time></trkpt><trkpt lat="45.62591666199842" lon="10.698294658297373"><ele>73.75</ele><time>2026-04-06T10:59:15Z</time></trkpt><trkpt lat="45.62582391494102" lon="10.698209569794303"><ele>72.5</ele><time>2026-04-06T10:59:16Z</time></trkpt><trkpt lat="45.625725104148174" lon="10.698126114726032"><ele>71.25</ele><time>2026-04-06T10:59:17Z</time></trkpt><trkpt lat="45.62561421286494" lon="10.698068590682572"><ele>70.0</ele><time>2026-04-06T10:59:18Z</time></trkpt><trkpt lat="45.62550969725187" lon="10.697994823058606"><ele>70.0</ele><time>2026-04-06T10:59:19Z</time></trkpt><trkpt lat="45.62541067268663" lon="10.697929874988697"><ele>70.0</ele><time>2026-04-06T10:59:20Z</time></trkpt><trkpt lat="45.62531421544539" lon="10.697848901935938"><ele>70.0</ele><time>2026-04-06T10:59:21Z</time></trkpt><trkpt lat="45.62521119222927" lon="10.697797102436281"><ele>70.0</ele><time>2026-04-06T10:59:22Z</time></trkpt><trkpt lat="45.62510570675159" lon="10.697753128527284"><ele>70.0</ele><time>2026-04-06T10:59:23Z</time></trkpt><trkpt lat="45.625000815994284" lon="10.697712011753215"><ele>68.8</ele><time>2026-04-06T10:59:24Z</time></trkpt><trkpt lat="45.624900566198676" lon="10.697674951093079"><ele>67.6</ele><time>2026-04-06T10:59:25Z</time></trkpt><trkpt lat="45.62480504028314" lon="10.697640271335079"><ele>66.4</ele><time>2026-04-06T10:59:26Z</time></trkpt><trkpt lat="45.62471136912668" lon="10.697606264787634"><ele>65.2</ele><time>2026-04-06T10:59:27Z</time></trkpt><trkpt lat="45.624607346727" lon="10.697570316021128"><ele>64.0</ele><time>2026-04-06T10:59:28Z</time></trkpt><trkpt lat="45.62451498419503" lon="10.697538817972296"><ele>65.5</ele><time>2026-04-06T10:59:29Z</time></trkpt><trkpt lat="45.62441673827085" lon="10.697505311499716"><ele>67.0</ele><time>2026-04-06T10:59:30Z</time></trkpt><trkpt lat="45.62431001099995" lon="10.697468244485238"><ele>68.5</ele><time>2026-04-06T10:59:31Z</time></trkpt><trkpt lat="45.62419243362414" lon="10.697427852850218"><ele>70.0</ele><time>2026-04-06T10:59:32Z</time></trkpt><trkpt lat="45.62407522891365" lon="10.697388142531238"><ele>70.0</ele><time>2026-04-06T10:59:33Z</time></trkpt><trkpt lat="45.623963530700294" lon="10.697350297923682"><ele>70.0</ele><time>2026-04-06T10:59:34Z</time></trkpt><trkpt lat="45.62386003095119" lon="10.697314613554845"><ele>70.0</ele><time>2026-04-06T10:59:35Z</time></trkpt><trkpt lat="45.62375333562979" lon="10.697278003740966"><ele>70.0</ele><time>2026-04-06T10:59:36Z</time></trkpt><trkpt lat="45.62363041287292" lon="10.697235825889539"><ele>70.75</ele><time>2026-04-06T10:59:37Z</time></trkpt><trkpt lat="45.62349791654474" lon="10.697190808373932"><ele>71.5</ele><time>2026-04-06T10:59:38Z</time></trkpt><trkpt lat="45.6233471565373" lon="10.697139268988003"><ele>72.25</ele><time>2026-04-06T10:59:39Z</time></trkpt><trkpt lat="45.62320859189565" lon="10.697091467538932"><ele>73.0</ele><time>2026-04-06T10:59:40Z</time></trkpt><trkpt lat="45.62308282135659" lon="10.697048148399867"><ele>73.0</ele><time>2026-04-06T10:59:41Z</time></trkpt><trkpt lat="45.62296099362262" lon="10.69702869101828"><ele>73.0</ele><time>2026-04-06T10:59:42Z</time></trkpt><trkpt lat="45.6228492191778" lon="10.696988887413161"><ele>73.0</ele><time>2026-04-06T10:59:43Z</time></trkpt><trkpt lat="45.62274404157882" lon="10.696952584421012"><ele>73.0</ele><time>2026-04-06T10:59:44Z</time></trkpt><trkpt lat="45.622637169248705" lon="10.696912798273193"><ele>71.25</ele><time>2026-04-06T10:59:45Z</time></trkpt><trkpt lat="45.62252884505127" lon="10.69687086114541"><ele>69.5</ele><time>2026-04-06T10:59:46Z</time></trkpt><trkpt lat="45.62242592444481" lon="10.696794895366173"><ele>67.75</ele><time>2026-04-06T10:59:47Z</time></trkpt><trkpt lat="45.622315315264174" lon="10.696732475688929"><ele>66.0</ele><time>2026-04-06T10:59:48Z</time></trkpt><trkpt lat="45.622212015512154" lon="10.69666552529932"><ele>66.0</ele><time>2026-04-06T10:59:49Z</time></trkpt><trkpt lat="45.62210947608169" lon="10.69659039399269"><ele>66.0</ele><time>2026-04-06T10:59:50Z</time></trkpt><trkpt lat="45.62201024317465" lon="10.696508697746557"><ele>66.0</ele><time>2026-04-06T10:59:51Z</time></trkpt><trkpt lat="45.62191054651362" lon="10.696425528657489"><ele>66.0</ele><time>2026-04-06T10:59:52Z</time></trkpt><trkpt lat="45.621815216096344" lon="10.696339548822394"><ele>66.0</ele><time>2026-04-06T10:59:53Z</time></trkpt><trkpt lat="45.621720227977285" lon="10.696251891685314"><ele>66.0</ele><time>2026-04-06T10:59:54Z</time></trkpt><trkpt lat="45.62162514764571" lon="10.696163345629703"><ele>66.0</ele><time>2026-04-06T10:59:55Z</time></trkpt><trkpt lat="45.621526165215364" lon="10.696070185646612"><ele>66.0</ele><time>2026-04-06T10:59:56Z</time></trkpt><trkpt lat="45.62143476141929" lon="10.695984464479283"><ele>66.0</ele><time>2026-04-06T10:59:57Z</time></trkpt><trkpt lat="45.62133527258813" lon="10.695895070571638"><ele>66.0</ele><time>2026-04-06T10:59:58Z</time></trkpt><trkpt lat="45.621239899919914" lon="10.695812638531608"><ele>66.0</ele><time>2026-04-06T10:59:59Z</time></trkpt><trkpt lat="45.62113949963565" lon="10.695729399537639"><ele>66.0</ele><time>2026-04-06T11:00:00Z</time></trkpt><trkpt lat="45.62103272678569" lon="10.69564746199187"><ele>68.5</ele><time>2026-04-06T11:00:01Z</time></trkpt><trkpt lat="45.62090099392837" lon="10.695559601597147"><ele>71.0</ele><time>2026-04-06T11:00:02Z</time></trkpt><trkpt lat="45.620755200006954" lon="10.695480454043834"><ele>73.5</ele><time>2026-04-06T11:00:03Z</time></trkpt><trkpt lat="45.620623815310964" lon="10.695416474761426"><ele>76.0</ele><time>2026-04-06T11:00:04Z</time></trkpt><trkpt lat="45.620501747636" lon="10.695360217513173"><ele>76.0</ele><time>2026-04-06T11:00:05Z</time></trkpt><trkpt lat="45.62039024730226" lon="10.695310893733932"><ele>76.0</ele><time>2026-04-06T11:00:06Z</time></trkpt><trkpt lat="45.62028891210838" lon="10.695266183648215"><ele>76.0</ele><time>2026-04-06T11:00:07Z</time></trkpt><trkpt lat="45.62019324555145" lon="10.695223590512954"><ele>76.0</ele><time>2026-04-06T11:00:08Z</time></trkpt><trkpt lat="45.62009223932048" lon="10.695174927368965"><ele>76.0</ele><time>2026-04-06T11:00:09Z</time></trkpt><trkpt lat="45.61997689302505" lon="10.695117645691157"><ele>76.25</ele><time>2026-04-06T11:00:10Z</time></trkpt><trkpt lat="45.619842603039686" lon="10.695047720361673"><ele>76.5</ele><time>2026-04-06T11:00:11Z</time></trkpt><trkpt lat="45.61970021262798" lon="10.694968851529746"><ele>76.75</ele><time>2026-04-06T11:00:12Z</time></trkpt><trkpt lat="45.61956898184764" lon="10.69488590387504"><ele>77.0</ele><time>2026-04-06T11:00:13Z</time></trkpt><trkpt lat="45.6194482571033" lon="10.694794865355938"><ele>77.0</ele><time>2026-04-06T11:00:14Z</time></trkpt><trkpt lat="45.619341031471365" lon="10.694708908691902"><ele>77.0</ele><time>2026-04-06T11:00:15Z</time></trkpt><trkpt lat="45.61924410228267" lon="10.694623679924392"><ele>77.0</ele><time>2026-04-06T11:00:16Z</time></trkpt><trkpt lat="45.61915092144988" lon="10.69454010938404"><ele>77.0</ele><time>2026-04-06T11:00:17Z</time></trkpt><trkpt lat="45.61905297748021" lon="10.694456418585823"><ele>75.75</ele><time>2026-04-06T11:00:18Z</time></trkpt><trkpt lat="45.61895049329789" lon="10.694377192700623"><ele>74.5</ele><time>2026-04-06T11:00:19Z</time></trkpt><trkpt lat="45.618845292760696" lon="10.694301128112718"><ele>73.25</ele><time>2026-04-06T11:00:20Z</time></trkpt><trkpt lat="45.618735166365624" lon="10.694231080523684"><ele>72.0</ele><time>2026-04-06T11:00:21Z</time></trkpt><trkpt lat="45.6186238821189" lon="10.694168328686157"><ele>72.0</ele><time>2026-04-06T11:00:22Z</time></trkpt><trkpt lat="45.61851926239429" lon="10.694115536274177"><ele>72.0</ele><time>2026-04-06T11:00:23Z</time></trkpt><trkpt lat="45.61842493184469" lon="10.694070460237947"><ele>72.0</ele><time>2026-04-06T11:00:24Z</time></trkpt><trkpt lat="45.618334508354366" lon="10.694029024838649"><ele>72.0</ele><time>2026-04-06T11:00:25Z</time></trkpt><trkpt lat="45.61823745116136" lon="10.693984575129997"><ele>72.0</ele><time>2026-04-06T11:00:26Z</time></trkpt><trkpt lat="45.618135353702456" lon="10.693938009554536"><ele>72.0</ele><time>2026-04-06T11:00:27Z</time></trkpt><trkpt lat="45.61803345944516" lon="10.693891037867589"><ele>72.0</ele><time>2026-04-06T11:00:28Z</time></trkpt><trkpt lat="45.617928634724315" lon="10.693842715273902"><ele>72.0</ele><time>2026-04-06T11:00:29Z</time></trkpt><trkpt lat="45.617821259195004" lon="10.693793216805291"><ele>72.0</ele><time>2026-04-06T11:00:30Z</time></trkpt><trkpt lat="45.617698044712725" lon="10.693736477122625"><ele>72.0</ele><time>2026-04-06T11:00:31Z</time></trkpt><trkpt lat="45.617569438802896" lon="10.693677906571516"><ele>72.0</ele><time>2026-04-06T11:00:32Z</time></trkpt><trkpt lat="45.61744191239468" lon="10.693618275144578"><ele>72.0</ele><time>2026-04-06T11:00:33Z</time></trkpt><trkpt lat="45.61731394327516" lon="10.69355718927033"><ele>72.0</ele><time>2026-04-06T11:00:34Z</time></trkpt><trkpt lat="45.61718502581144" lon="10.693493897693445"><ele>72.0</ele><time>2026-04-06T11:00:35Z</time></trkpt><trkpt lat="45.61706241414764" lon="10.693430930405142"><ele>72.0</ele><time>2026-04-06T11:00:36Z</time></trkpt><trkpt lat="45.616954763505525" lon="10.693373682118052"><ele>72.0</ele><time>2026-04-06T11:00:37Z</time></trkpt><trkpt lat="45.616849940258135" lon="10.69331676729397"><ele>72.0</ele><time>2026-04-06T11:00:38Z</time></trkpt><trkpt lat="45.616748079082434" lon="10.693261460753513"><ele>72.4</ele><time>2026-04-06T11:00:39Z</time></trkpt><trkpt lat="45.61664420515755" lon="10.693201992237256"><ele>72.80000000000001</ele><time>2026-04-06T11:00:40Z</time></trkpt><trkpt lat="45.61654983661421" lon="10.693169566516115"><ele>73.2</ele><time>2026-04-06T11:00:41Z</time></trkpt><trkpt lat="45.616453388219966" lon="10.693113675750565"><ele>73.60000000000001</ele><time>2026-04-06T11:00:42Z</time></trkpt><trkpt lat="45.61636661833396" lon="10.693062328859023"><ele>74.0</ele><time>2026-04-06T11:00:43Z</time></trkpt><trkpt lat="45.61628063001936" lon="10.69301357371597"><ele>74.0</ele><time>2026-04-06T11:00:44Z</time></trkpt><trkpt lat="45.61619931956725" lon="10.69296441718511"><ele>74.0</ele><time>2026-04-06T11:00:45Z</time></trkpt><trkpt lat="45.61611646883549" lon="10.692916595312692"><ele>74.0</ele><time>2026-04-06T11:00:46Z</time></trkpt><trkpt lat="45.61603875110098" lon="10.692872871220162"><ele>74.0</ele><time>2026-04-06T11:00:47Z</time></trkpt><trkpt lat="45.61596355435614" lon="10.692829920873901"><ele>74.0</ele><time>2026-04-06T11:00:48Z</time></trkpt><trkpt lat="45.6158770471981" lon="10.692779284720569"><ele>74.0</ele><time>2026-04-06T11:00:49Z</time></trkpt><trkpt lat="45.61578220117084" lon="10.692726407240167"><ele>73.8</ele><time>2026-04-06T11:00:50Z</time></trkpt><trkpt lat="45.61568409802834" lon="10.692671372479449"><ele>73.60000000000001</ele><time>2026-04-06T11:00:51Z</time></trkpt><trkpt lat="45.615590963417574" lon="10.692592333301873"><ele>73.4</ele><time>2026-04-06T11:00:52Z</time></trkpt><trkpt lat="45.615497477669294" lon="10.692537884100256"><ele>73.2</ele><time>2026-04-06T11:00:53Z</time></trkpt><trkpt lat="45.61540369693761" lon="10.692483263086968"><ele>73.0</ele><time>2026-04-06T11:00:54Z</time></trkpt><trkpt lat="45.61530149741102" lon="10.69244906343728"><ele>73.0</ele><time>2026-04-06T11:00:55Z</time></trkpt><trkpt lat="45.615207891898756" lon="10.692369219728972"><ele>73.0</ele><time>2026-04-06T11:00:56Z</time></trkpt><trkpt lat="45.61511038218182" lon="10.692312426834032"><ele>73.0</ele><time>2026-04-06T11:00:57Z</time></trkpt><trkpt lat="45.61500899297622" lon="10.692253374394237"><ele>73.0</ele><time>2026-04-06T11:00:58Z</time></trkpt><trkpt lat="45.6149012115388" lon="10.692190600891381"><ele>73.0</ele><time>2026-04-06T11:00:59Z</time></trkpt><trkpt lat="45.61477800622749" lon="10.692118841702564"><ele>73.0</ele><time>2026-04-06T11:01:00Z</time></trkpt><trkpt lat="45.61464710146899" lon="10.692042598617725"><ele>73.0</ele><time>2026-04-06T11:01:01Z</time></trkpt><trkpt lat="45.61451944493438" lon="10.69196824720279"><ele>73.0</ele><time>2026-04-06T11:01:02Z</time></trkpt><trkpt lat="45.61440830946013" lon="10.691903518215693"><ele>73.0</ele><time>2026-04-06T11:01:03Z</time></trkpt><trkpt lat="45.61433766198416" lon="10.691862010374894"><ele>72.0</ele><time>2026-04-06T11:01:04Z</time></trkpt><trkpt lat="45.61425189736653" lon="10.691809072586917"><ele>71.0</ele><time>2026-04-06T11:01:06Z</time></trkpt><trkpt lat="45.614187067896495" lon="10.69176460379111"><ele>70.0</ele><time>2026-04-06T11:01:07Z</time></trkpt><trkpt lat="45.614090920976786" lon="10.691715277996142"><ele>69.0</ele><time>2026-04-06T11:01:08Z</time></trkpt><trkpt lat="45.61399523709011" lon="10.691626057099194"><ele>68.0</ele><time>2026-04-06T11:01:09Z</time></trkpt><trkpt lat="45.61391067768761" lon="10.69150402724443"><ele>68.0</ele><time>2026-04-06T11:01:10Z</time></trkpt><trkpt lat="45.613810397976394" lon="10.691399722257819"><ele>68.0</ele><time>2026-04-06T11:01:11Z</time></trkpt><trkpt lat="45.61373594325089" lon="10.691243187098426"><ele>68.0</ele><time>2026-04-06T11:01:12Z</time></trkpt><trkpt lat="45.61365100608018" lon="10.69110061707223"><ele>68.0</ele><time>2026-04-06T11:01:13Z</time></trkpt><trkpt lat="45.61358814217904" lon="10.690930916159902"><ele>68.75</ele><time>2026-04-06T11:01:14Z</time></trkpt><trkpt lat="45.61352971981703" lon="10.690753259429973"><ele>69.5</ele><time>2026-04-06T11:01:15Z</time></trkpt><trkpt lat="45.61348134619451" lon="10.690569819371314"><ele>70.25</ele><time>2026-04-06T11:01:16Z</time></trkpt><trkpt lat="45.61343665431555" lon="10.690382838682664"><ele>71.0</ele><time>2026-04-06T11:01:17Z</time></trkpt><trkpt lat="45.61339266605986" lon="10.690195335116444"><ele>71.0</ele><time>2026-04-06T11:01:18Z</time></trkpt><trkpt lat="45.61334382172794" lon="10.690005805087365"><ele>71.0</ele><time>2026-04-06T11:01:19Z</time></trkpt><trkpt lat="45.61329597644913" lon="10.689816409382887"><ele>71.0</ele><time>2026-04-06T11:01:20Z</time></trkpt><trkpt lat="45.61324880133097" lon="10.68962463556899"><ele>71.0</ele><time>2026-04-06T11:01:21Z</time></trkpt><trkpt lat="45.61320415806342" lon="10.689434836336256"><ele>71.5</ele><time>2026-04-06T11:01:22Z</time></trkpt><trkpt lat="45.61315912485063" lon="10.68924831510342"><ele>72.0</ele><time>2026-04-06T11:01:23Z</time></trkpt><trkpt lat="45.6131159653067" lon="10.689072447815395"><ele>72.5</ele><time>2026-04-06T11:01:24Z</time></trkpt><trkpt lat="45.6130673765609" lon="10.68891552315293"><ele>73.0</ele><time>2026-04-06T11:01:25Z</time></trkpt><trkpt lat="45.6130167054512" lon="10.688767654971207"><ele>73.0</ele><time>2026-04-06T11:01:26Z</time></trkpt><trkpt lat="45.61295588460953" lon="10.68863913952613"><ele>73.0</ele><time>2026-04-06T11:01:27Z</time></trkpt><trkpt lat="45.612880575752136" lon="10.68851936777632"><ele>73.0</ele><time>2026-04-06T11:01:28Z</time></trkpt><trkpt lat="45.61279515992296" lon="10.688396996853955"><ele>73.0</ele><time>2026-04-06T11:01:29Z</time></trkpt><trkpt lat="45.61270167239737" lon="10.688288853103225"><ele>72.4</ele><time>2026-04-06T11:01:30Z</time></trkpt><trkpt lat="45.61260667621883" lon="10.688181592431919"><ele>71.8</ele><time>2026-04-06T11:01:31Z</time></trkpt><trkpt lat="45.61252181875126" lon="10.688108196189175"><ele>71.2</ele><time>2026-04-06T11:01:32Z</time></trkpt><trkpt lat="45.61244099818981" lon="10.688040278658523"><ele>70.6</ele><time>2026-04-06T11:01:33Z</time></trkpt><trkpt lat="45.61236851942605" lon="10.687958859546983"><ele>70.0</ele><time>2026-04-06T11:01:34Z</time></trkpt><trkpt lat="45.61229214051959" lon="10.687892367178447"><ele>70.0</ele><time>2026-04-06T11:01:35Z</time></trkpt><trkpt lat="45.6122235081921" lon="10.687832618647578"><ele>70.0</ele><time>2026-04-06T11:01:36Z</time></trkpt><trkpt lat="45.61215135688152" lon="10.687771199589102"><ele>70.0</ele><time>2026-04-06T11:01:37Z</time></trkpt><trkpt lat="45.61206873899138" lon="10.68770112747759"><ele>70.0</ele><time>2026-04-06T11:01:38Z</time></trkpt><trkpt lat="45.61196412653901" lon="10.68761547011701"><ele>70.0</ele><time>2026-04-06T11:01:39Z</time></trkpt><trkpt lat="45.611853164321005" lon="10.687531226133984"><ele>70.0</ele><time>2026-04-06T11:01:40Z</time></trkpt><trkpt lat="45.61173226390357" lon="10.687446564818117"><ele>70.0</ele><time>2026-04-06T11:01:41Z</time></trkpt><trkpt lat="45.61160765601767" lon="10.687389445790197"><ele>70.0</ele><time>2026-04-06T11:01:42Z</time></trkpt><trkpt lat="45.61148276662251" lon="10.687322213794173"><ele>70.0</ele><time>2026-04-06T11:01:43Z</time></trkpt><trkpt lat="45.61135884204171" lon="10.687266926803193"><ele>70.0</ele><time>2026-04-06T11:01:44Z</time></trkpt><trkpt lat="45.6112362833214" lon="10.687220893109503"><ele>70.0</ele><time>2026-04-06T11:01:45Z</time></trkpt><trkpt lat="45.61112411298173" lon="10.68718490546716"><ele>70.0</ele><time>2026-04-06T11:01:46Z</time></trkpt><trkpt lat="45.611014363609186" lon="10.687154462178766"><ele>70.0</ele><time>2026-04-06T11:01:47Z</time></trkpt><trkpt lat="45.6109144942365" lon="10.687131431403957"><ele>69.83333333333333</ele><time>2026-04-06T11:01:48Z</time></trkpt><trkpt lat="45.61082197962335" lon="10.687111744918237"><ele>69.66666666666666</ele><time>2026-04-06T11:01:49Z</time></trkpt><trkpt lat="45.6107282126726" lon="10.687098568875035"><ele>69.5</ele><time>2026-04-06T11:01:50Z</time></trkpt><trkpt lat="45.610636001318994" lon="10.687074920989502"><ele>69.33333333333333</ele><time>2026-04-06T11:01:51Z</time></trkpt><trkpt lat="45.61054424065538" lon="10.687050204741224"><ele>69.16666666666667</ele><time>2026-04-06T11:01:52Z</time></trkpt><trkpt lat="45.61047846928781" lon="10.687046336889194"><ele>69.0</ele><time>2026-04-06T11:01:53Z</time></trkpt><trkpt lat="45.61036769900995" lon="10.687013948575787"><ele>69.4</ele><time>2026-04-06T11:01:58Z</time></trkpt><trkpt lat="45.61027912538326" lon="10.687001746126715"><ele>69.80000000000001</ele><time>2026-04-06T11:01:59Z</time></trkpt><trkpt lat="45.61018198312334" lon="10.686988984035017"><ele>70.19999999999999</ele><time>2026-04-06T11:02:00Z</time></trkpt><trkpt lat="45.610079512958" lon="10.68696923782747"><ele>70.6</ele><time>2026-04-06T11:02:01Z</time></trkpt><trkpt lat="45.60997054924912" lon="10.686945823456186"><ele>71.0</ele><time>2026-04-06T11:02:02Z</time></trkpt><trkpt lat="45.609856128296286" lon="10.686916703934582"><ele>71.25</ele><time>2026-04-06T11:02:03Z</time></trkpt><trkpt lat="45.609738521314725" lon="10.686886484939741"><ele>71.5</ele><time>2026-04-06T11:02:04Z</time></trkpt><trkpt lat="45.609620153240755" lon="10.686851557392805"><ele>71.75</ele><time>2026-04-06T11:02:05Z</time></trkpt><trkpt lat="45.60949768477204" lon="10.686825076210908"><ele>72.0</ele><time>2026-04-06T11:02:06Z</time></trkpt><trkpt lat="45.609373099770565" lon="10.686796566819478"><ele>72.0</ele><time>2026-04-06T11:02:07Z</time></trkpt><trkpt lat="45.60924771431989" lon="10.686766937678998"><ele>72.0</ele><time>2026-04-06T11:02:08Z</time></trkpt><trkpt lat="45.60912533145867" lon="10.686737074287418"><ele>72.0</ele><time>2026-04-06T11:02:09Z</time></trkpt><trkpt lat="45.60900096506373" lon="10.686709812523272"><ele>72.0</ele><time>2026-04-06T11:02:10Z</time></trkpt><trkpt lat="45.608881629780285" lon="10.686677664993251"><ele>72.0</ele><time>2026-04-06T11:02:11Z</time></trkpt><trkpt lat="45.60876006168394" lon="10.686647050751072"><ele>72.0</ele><time>2026-04-06T11:02:12Z</time></trkpt><trkpt lat="45.60863889661043" lon="10.686619546396212"><ele>72.0</ele><time>2026-04-06T11:02:13Z</time></trkpt><trkpt lat="45.60851524070799" lon="10.686593521071703"><ele>72.0</ele><time>2026-04-06T11:02:14Z</time></trkpt><trkpt lat="45.60839067622668" lon="10.686565025987303"><ele>72.0</ele><time>2026-04-06T11:02:15Z</time></trkpt><trkpt lat="45.60826333377454" lon="10.686539707687245"><ele>72.0</ele><time>2026-04-06T11:02:16Z</time></trkpt><trkpt lat="45.608135637221594" lon="10.686514344011302"><ele>72.0</ele><time>2026-04-06T11:02:17Z</time></trkpt><trkpt lat="45.6080065703408" lon="10.686481691529211"><ele>72.0</ele><time>2026-04-06T11:02:18Z</time></trkpt><trkpt lat="45.60787711516503" lon="10.686450150117636"><ele>72.0</ele><time>2026-04-06T11:02:19Z</time></trkpt><trkpt lat="45.607747885310275" lon="10.68642247789159"><ele>72.0</ele><time>2026-04-06T11:02:20Z</time></trkpt><trkpt lat="45.60761816114213" lon="10.686392284869672"><ele>72.0</ele><time>2026-04-06T11:02:21Z</time></trkpt><trkpt lat="45.60749112655696" lon="10.686361929861278"><ele>72.0</ele><time>2026-04-06T11:02:22Z</time></trkpt><trkpt lat="45.60736254481235" lon="10.68633305081315"><ele>72.0</ele><time>2026-04-06T11:02:23Z</time></trkpt><trkpt lat="45.60723460494343" lon="10.686304935860266"><ele>72.0</ele><time>2026-04-06T11:02:24Z</time></trkpt><trkpt lat="45.60711045942967" lon="10.686264699636299"><ele>72.0</ele><time>2026-04-06T11:02:25Z</time></trkpt><trkpt lat="45.60698875764688" lon="10.686224538494386"><ele>72.0</ele><time>2026-04-06T11:02:26Z</time></trkpt><trkpt lat="45.606865188539174" lon="10.686188408974699"><ele>71.75</ele><time>2026-04-06T11:02:27Z</time></trkpt><trkpt lat="45.606740225166654" lon="10.686155783744232"><ele>71.5</ele><time>2026-04-06T11:02:28Z</time></trkpt><trkpt lat="45.60661325429984" lon="10.68612408784394"><ele>71.25</ele><time>2026-04-06T11:02:29Z</time></trkpt><trkpt lat="45.60648640928071" lon="10.686096313533586"><ele>71.0</ele><time>2026-04-06T11:02:30Z</time></trkpt><trkpt lat="45.606360695331496" lon="10.68607293670877"><ele>70.25</ele><time>2026-04-06T11:02:31Z</time></trkpt><trkpt lat="45.60623909621312" lon="10.686055254340188"><ele>69.5</ele><time>2026-04-06T11:02:32Z</time></trkpt><trkpt lat="45.606127412742595" lon="10.68604659723569"><ele>68.75</ele><time>2026-04-06T11:02:33Z</time></trkpt><trkpt lat="45.60601175866524" lon="10.686040616782627"><ele>68.0</ele><time>2026-04-06T11:02:34Z</time></trkpt><trkpt lat="45.60589345899272" lon="10.686044456524835"><ele>68.0</ele><time>2026-04-06T11:02:35Z</time></trkpt><trkpt lat="45.60577323297886" lon="10.68602528401235"><ele>68.0</ele><time>2026-04-06T11:02:36Z</time></trkpt><trkpt lat="45.60565146290395" lon="10.68604456677451"><ele>68.0</ele><time>2026-04-06T11:02:37Z</time></trkpt><trkpt lat="45.605531318109236" lon="10.686046804097261"><ele>68.0</ele><time>2026-04-06T11:02:38Z</time></trkpt><trkpt lat="45.60541206818941" lon="10.686046356366239"><ele>68.0</ele><time>2026-04-06T11:02:39Z</time></trkpt><trkpt lat="45.605293822107164" lon="10.686047165607894"><ele>68.0</ele><time>2026-04-06T11:02:40Z</time></trkpt><trkpt lat="45.60517723829325" lon="10.686045246417672"><ele>68.0</ele><time>2026-04-06T11:02:41Z</time></trkpt><trkpt lat="45.60506458139815" lon="10.686046562225902"><ele>68.0</ele><time>2026-04-06T11:02:42Z</time></trkpt><trkpt lat="45.60495584703798" lon="10.68605285425988"><ele>68.0</ele><time>2026-04-06T11:02:43Z</time></trkpt><trkpt lat="45.60484813462137" lon="10.686058561357463"><ele>68.0</ele><time>2026-04-06T11:02:44Z</time></trkpt><trkpt lat="45.60474174120095" lon="10.686061344338363"><ele>68.0</ele><time>2026-04-06T11:02:45Z</time></trkpt><trkpt lat="45.60463690164895" lon="10.686061151618985"><ele>68.0</ele><time>2026-04-06T11:02:46Z</time></trkpt><trkpt lat="45.60453223291188" lon="10.686056444845507"><ele>68.0</ele><time>2026-04-06T11:02:47Z</time></trkpt><trkpt lat="45.604427457879595" lon="10.686054779842788"><ele>68.25</ele><time>2026-04-06T11:02:48Z</time></trkpt><trkpt lat="45.60430916386357" lon="10.686029777553697"><ele>68.5</ele><time>2026-04-06T11:02:49Z</time></trkpt><trkpt lat="45.604180849016416" lon="10.686019481095498"><ele>68.75</ele><time>2026-04-06T11:02:50Z</time></trkpt><trkpt lat="45.604047252938464" lon="10.686002770471134"><ele>69.0</ele><time>2026-04-06T11:02:51Z</time></trkpt><trkpt lat="45.60390152702585" lon="10.685979169307544"><ele>69.0</ele><time>2026-04-06T11:02:52Z</time></trkpt><trkpt lat="45.60375052501954" lon="10.6859692279363"><ele>69.0</ele><time>2026-04-06T11:02:53Z</time></trkpt><trkpt lat="45.60360281521241" lon="10.685928646198587"><ele>69.0</ele><time>2026-04-06T11:02:54Z</time></trkpt><trkpt lat="45.6034545406998" lon="10.6858872530662"><ele>70.0</ele><time>2026-04-06T11:02:55Z</time></trkpt><trkpt lat="45.60330696301169" lon="10.685846305427212"><ele>71.0</ele><time>2026-04-06T11:02:56Z</time></trkpt><trkpt lat="45.60315583070899" lon="10.685801081554203"><ele>72.0</ele><time>2026-04-06T11:02:57Z</time></trkpt><trkpt lat="45.60300648898181" lon="10.685757926893283"><ele>72.0</ele><time>2026-04-06T11:02:58Z</time></trkpt><trkpt lat="45.602854760697106" lon="10.685711899235294"><ele>72.0</ele><time>2026-04-06T11:02:59Z</time></trkpt><trkpt lat="45.60270138237866" lon="10.6856678866848"><ele>72.0</ele><time>2026-04-06T11:03:00Z</time></trkpt><trkpt lat="45.60254956939513" lon="10.685622860222791"><ele>71.66666666666667</ele><time>2026-04-06T11:03:01Z</time></trkpt><trkpt lat="45.60239703420029" lon="10.685577963984828"><ele>71.33333333333334</ele><time>2026-04-06T11:03:02Z</time></trkpt><trkpt lat="45.60224283351732" lon="10.685534033934141"><ele>71.0</ele><time>2026-04-06T11:03:03Z</time></trkpt><trkpt lat="45.602088254394715" lon="10.685491386989664"><ele>71.66666666666667</ele><time>2026-04-06T11:03:04Z</time></trkpt><trkpt lat="45.601932117196675" lon="10.685453766588028"><ele>72.33333333333333</ele><time>2026-04-06T11:03:05Z</time></trkpt><trkpt lat="45.601774748964544" lon="10.685429503139792"><ele>73.0</ele><time>2026-04-06T11:03:06Z</time></trkpt><trkpt lat="45.60161473403292" lon="10.685416860833193"><ele>73.0</ele><time>2026-04-06T11:03:07Z</time></trkpt><trkpt lat="45.60145023220759" lon="10.685409756041752"><ele>73.0</ele><time>2026-04-06T11:03:08Z</time></trkpt><trkpt lat="45.60128523747509" lon="10.685408736316447"><ele>73.0</ele><time>2026-04-06T11:03:09Z</time></trkpt><trkpt lat="45.6011192227817" lon="10.685407777054682"><ele>72.33333333333333</ele><time>2026-04-06T11:03:10Z</time></trkpt><trkpt lat="45.60095484496741" lon="10.685403757018207"><ele>71.66666666666667</ele><time>2026-04-06T11:03:11Z</time></trkpt><trkpt lat="45.60079016102918" lon="10.685399792795991"><ele>71.0</ele><time>2026-04-06T11:03:12Z</time></trkpt><trkpt lat="45.60062841434691" lon="10.68539623968623"><ele>71.0</ele><time>2026-04-06T11:03:13Z</time></trkpt><trkpt lat="45.600466357382594" lon="10.68539132336334"><ele>71.0</ele><time>2026-04-06T11:03:14Z</time></trkpt><trkpt lat="45.600305319496584" lon="10.68538444084159"><ele>71.0</ele><time>2026-04-06T11:03:15Z</time></trkpt><trkpt lat="45.60014488158295" lon="10.685375678877406"><ele>72.0</ele><time>2026-04-06T11:03:16Z</time></trkpt><trkpt lat="45.599985675991455" lon="10.68537241438793"><ele>73.0</ele><time>2026-04-06T11:03:17Z</time></trkpt><trkpt lat="45.59982739989957" lon="10.685369302193397"><ele>74.0</ele><time>2026-04-06T11:03:18Z</time></trkpt><trkpt lat="45.59966960330537" lon="10.685359384573246"><ele>74.0</ele><time>2026-04-06T11:03:19Z</time></trkpt><trkpt lat="45.59951333212669" lon="10.685331793999193"><ele>74.0</ele><time>2026-04-06T11:03:20Z</time></trkpt><trkpt lat="45.599363730096385" lon="10.685253611789962"><ele>74.0</ele><time>2026-04-06T11:03:21Z</time></trkpt><trkpt lat="45.59921253267457" lon="10.685193941313226"><ele>73.33333333333334</ele><time>2026-04-06T11:03:22Z</time></trkpt><trkpt lat="45.59908486571233" lon="10.685065421661948"><ele>72.66666666666667</ele><time>2026-04-06T11:03:23Z</time></trkpt><trkpt lat="45.598948329429646" lon="10.684955804683408"><ele>72.0</ele><time>2026-04-06T11:03:24Z</time></trkpt><trkpt lat="45.59882658305313" lon="10.684822323629765"><ele>72.0</ele><time>2026-04-06T11:03:25Z</time></trkpt><trkpt lat="45.598704067106404" lon="10.68468397549557"><ele>72.0</ele><time>2026-04-06T11:03:26Z</time></trkpt><trkpt lat="45.59857705028342" lon="10.68455193466285"><ele>72.0</ele><time>2026-04-06T11:03:27Z</time></trkpt><trkpt lat="45.598446957079965" lon="10.6844271461539"><ele>70.66666666666667</ele><time>2026-04-06T11:03:28Z</time></trkpt><trkpt lat="45.598314577816545" lon="10.684314347221399"><ele>69.33333333333334</ele><time>2026-04-06T11:03:29Z</time></trkpt><trkpt lat="45.59817771300765" lon="10.684208083770736"><ele>68.0</ele><time>2026-04-06T11:03:30Z</time></trkpt><trkpt lat="45.59803631845295" lon="10.684114524165686"><ele>68.0</ele><time>2026-04-06T11:03:31Z</time></trkpt><trkpt lat="45.597893997775536" lon="10.684016364753656"><ele>68.0</ele><time>2026-04-06T11:03:32Z</time></trkpt><trkpt lat="45.5977513981745" lon="10.68391355452148"><ele>68.0</ele><time>2026-04-06T11:03:33Z</time></trkpt><trkpt lat="45.59761118468556" lon="10.683810738716335"><ele>68.66666666666667</ele><time>2026-04-06T11:03:34Z</time></trkpt><trkpt lat="45.59746933785146" lon="10.683708558795901"><ele>69.33333333333333</ele><time>2026-04-06T11:03:35Z</time></trkpt><trkpt lat="45.597328902358115" lon="10.683608799740897"><ele>70.0</ele><time>2026-04-06T11:03:36Z</time></trkpt><trkpt lat="45.59718629387052" lon="10.683511203893815"><ele>70.0</ele><time>2026-04-06T11:03:37Z</time></trkpt><trkpt lat="45.597042347710556" lon="10.683416673311342"><ele>70.0</ele><time>2026-04-06T11:03:38Z</time></trkpt><trkpt lat="45.596903777682435" lon="10.683308463367611"><ele>70.0</ele><time>2026-04-06T11:03:39Z</time></trkpt><trkpt lat="45.596767584542675" lon="10.683195202421008"><ele>74.0</ele><time>2026-04-06T11:03:40Z</time></trkpt><trkpt lat="45.59662681991335" lon="10.68309299881371"><ele>78.0</ele><time>2026-04-06T11:03:41Z</time></trkpt><trkpt lat="45.59648553657645" lon="10.682994646688867"><ele>82.0</ele><time>2026-04-06T11:03:42Z</time></trkpt><trkpt lat="45.59634358539386" lon="10.6828950028355"><ele>82.0</ele><time>2026-04-06T11:03:43Z</time></trkpt><trkpt lat="45.59620195785574" lon="10.682795904198256"><ele>82.0</ele><time>2026-04-06T11:03:44Z</time></trkpt><trkpt lat="45.59606017870847" lon="10.68270513460633"><ele>82.0</ele><time>2026-04-06T11:03:45Z</time></trkpt><trkpt lat="45.59591571967362" lon="10.6826189886735"><ele>78.33333333333333</ele><time>2026-04-06T11:03:46Z</time></trkpt><trkpt lat="45.59576962685282" lon="10.682541898930795"><ele>74.66666666666667</ele><time>2026-04-06T11:03:47Z</time></trkpt><trkpt lat="45.59562257113272" lon="10.68246312292783"><ele>71.0</ele><time>2026-04-06T11:03:48Z</time></trkpt><trkpt lat="45.595477768613414" lon="10.682383605501022"><ele>78.0</ele><time>2026-04-06T11:03:49Z</time></trkpt><trkpt lat="45.59533415058612" lon="10.682303336290818"><ele>85.0</ele><time>2026-04-06T11:03:50Z</time></trkpt><trkpt lat="45.595192110852395" lon="10.682220055366567"><ele>92.0</ele><time>2026-04-06T11:03:51Z</time></trkpt><trkpt lat="45.595047901829524" lon="10.682142859391677"><ele>92.0</ele><time>2026-04-06T11:03:52Z</time></trkpt><trkpt lat="45.594904882961515" lon="10.68206341591739"><ele>92.0</ele><time>2026-04-06T11:03:53Z</time></trkpt><trkpt lat="45.594763540153025" lon="10.68198359504218"><ele>92.0</ele><time>2026-04-06T11:03:54Z</time></trkpt><trkpt lat="45.59462259411364" lon="10.681899393570166"><ele>89.0</ele><time>2026-04-06T11:03:55Z</time></trkpt><trkpt lat="45.59448340138737" lon="10.68180812184434"><ele>86.0</ele><time>2026-04-06T11:03:56Z</time></trkpt><trkpt lat="45.594346832108876" lon="10.681711585364834"><ele>83.0</ele><time>2026-04-06T11:03:57Z</time></trkpt><trkpt lat="45.5942126395154" lon="10.681605756876978"><ele>83.0</ele><time>2026-04-06T11:03:58Z</time></trkpt><trkpt lat="45.59408484621856" lon="10.681481532798804"><ele>83.0</ele><time>2026-04-06T11:03:59Z</time></trkpt><trkpt lat="45.59396086284757" lon="10.681343938476848"><ele>83.0</ele><time>2026-04-06T11:04:00Z</time></trkpt><trkpt lat="45.5938409797485" lon="10.681193837519139"><ele>83.0</ele><time>2026-04-06T11:04:01Z</time></trkpt><trkpt lat="45.593726038134584" lon="10.681033093842565"><ele>83.0</ele><time>2026-04-06T11:04:02Z</time></trkpt><trkpt lat="45.59361643829511" lon="10.680865350973841"><ele>83.0</ele><time>2026-04-06T11:04:03Z</time></trkpt><trkpt lat="45.593509787999864" lon="10.680691749125504"><ele>83.0</ele><time>2026-04-06T11:04:04Z</time></trkpt><trkpt lat="45.59340313079955" lon="10.680517680382977"><ele>83.0</ele><time>2026-04-06T11:04:05Z</time></trkpt><trkpt lat="45.59329583565639" lon="10.680343367032037"><ele>83.0</ele><time>2026-04-06T11:04:06Z</time></trkpt><trkpt lat="45.59318712461827" lon="10.68017071446775"><ele>78.33333333333334</ele><time>2026-04-06T11:04:07Z</time></trkpt><trkpt lat="45.593076379788926" lon="10.679996409183868"><ele>73.66666666666667</ele><time>2026-04-06T11:04:08Z</time></trkpt><trkpt lat="45.59296942424841" lon="10.67982256267282"><ele>69.0</ele><time>2026-04-06T11:04:09Z</time></trkpt><trkpt lat="45.59286278394627" lon="10.679650407773568"><ele>69.66666666666667</ele><time>2026-04-06T11:04:10Z</time></trkpt><trkpt lat="45.59275839761283" lon="10.679482200993917"><ele>70.33333333333334</ele><time>2026-04-06T11:04:11Z</time></trkpt><trkpt lat="45.5926493102068" lon="10.679320893789134"><ele>71.0</ele><time>2026-04-06T11:04:12Z</time></trkpt><trkpt lat="45.59253163833304" lon="10.679169224681782"><ele>71.0</ele><time>2026-04-06T11:04:13Z</time></trkpt><trkpt lat="45.59240450848563" lon="10.679033253264478"><ele>71.0</ele><time>2026-04-06T11:04:14Z</time></trkpt><trkpt lat="45.59227135589329" lon="10.678896778236838"><ele>71.0</ele><time>2026-04-06T11:04:15Z</time></trkpt><trkpt lat="45.59213670304586" lon="10.678767721260671"><ele>72.0</ele><time>2026-04-06T11:04:16Z</time></trkpt><trkpt lat="45.59199939748621" lon="10.678640082648371"><ele>73.0</ele><time>2026-04-06T11:04:17Z</time></trkpt><trkpt lat="45.5918631587863" lon="10.678510151968236"><ele>74.0</ele><time>2026-04-06T11:04:18Z</time></trkpt><trkpt lat="45.59172530497324" lon="10.678377590928367"><ele>74.0</ele><time>2026-04-06T11:04:19Z</time></trkpt><trkpt lat="45.59158640139445" lon="10.678249098679608"><ele>74.0</ele><time>2026-04-06T11:04:20Z</time></trkpt><trkpt lat="45.59144683619553" lon="10.678121320540551"><ele>74.0</ele><time>2026-04-06T11:04:21Z</time></trkpt><trkpt lat="45.59130305848343" lon="10.677999861970418"><ele>72.0</ele><time>2026-04-06T11:04:22Z</time></trkpt><trkpt lat="45.59115849459515" lon="10.677885017137736"><ele>70.0</ele><time>2026-04-06T11:04:23Z</time></trkpt><trkpt lat="45.59100941783134" lon="10.677782070148657"><ele>68.0</ele><time>2026-04-06T11:04:24Z</time></trkpt><trkpt lat="45.59085731441147" lon="10.67768599377111"><ele>68.0</ele><time>2026-04-06T11:04:25Z</time></trkpt><trkpt lat="45.590702409935574" lon="10.677595004379544"><ele>68.0</ele><time>2026-04-06T11:04:26Z</time></trkpt><trkpt lat="45.590544815542714" lon="10.677506991702828"><ele>68.0</ele><time>2026-04-06T11:04:27Z</time></trkpt><trkpt lat="45.59038911485109" lon="10.677418766720823"><ele>73.0</ele><time>2026-04-06T11:04:28Z</time></trkpt><trkpt lat="45.59023985944779" lon="10.677334101614827"><ele>78.0</ele><time>2026-04-06T11:04:29Z</time></trkpt><trkpt lat="45.59008378720261" lon="10.677244979004579"><ele>83.0</ele><time>2026-04-06T11:04:30Z</time></trkpt><trkpt lat="45.58993140281433" lon="10.677154459431211"><ele>83.0</ele><time>2026-04-06T11:04:31Z</time></trkpt><trkpt lat="45.58978204212684" lon="10.677058389746549"><ele>83.0</ele><time>2026-04-06T11:04:32Z</time></trkpt><trkpt lat="45.589628245774605" lon="10.67696745900231"><ele>83.0</ele><time>2026-04-06T11:04:33Z</time></trkpt><trkpt lat="45.58948287309089" lon="10.676864909238105"><ele>81.0</ele><time>2026-04-06T11:04:34Z</time></trkpt><trkpt lat="45.58933711071439" lon="10.676762156187772"><ele>79.0</ele><time>2026-04-06T11:04:35Z</time></trkpt><trkpt lat="45.58919317677389" lon="10.676652872528734"><ele>77.0</ele><time>2026-04-06T11:04:36Z</time></trkpt><trkpt lat="45.58905112020487" lon="10.67654369665985"><ele>77.0</ele><time>2026-04-06T11:04:37Z</time></trkpt><trkpt lat="45.58890998163156" lon="10.676430697904262"><ele>77.0</ele><time>2026-04-06T11:04:38Z</time></trkpt><trkpt lat="45.58877008050802" lon="10.676324299452364"><ele>77.0</ele><time>2026-04-06T11:04:39Z</time></trkpt><trkpt lat="45.58862944065944" lon="10.676215253867698"><ele>74.0</ele><time>2026-04-06T11:04:40Z</time></trkpt><trkpt lat="45.588489598956905" lon="10.676104900288179"><ele>71.0</ele><time>2026-04-06T11:04:41Z</time></trkpt><trkpt lat="45.58834741225607" lon="10.67599832872453"><ele>68.0</ele><time>2026-04-06T11:04:42Z</time></trkpt><trkpt lat="45.588209605546304" lon="10.675888270932376"><ele>68.0</ele><time>2026-04-06T11:04:43Z</time></trkpt><trkpt lat="45.58806722656675" lon="10.675784919070313"><ele>68.0</ele><time>2026-04-06T11:04:44Z</time></trkpt><trkpt lat="45.58792806568819" lon="10.675676516450501"><ele>68.0</ele><time>2026-04-06T11:04:45Z</time></trkpt><trkpt lat="45.587788080470865" lon="10.675573215068766"><ele>73.33333333333334</ele><time>2026-04-06T11:04:46Z</time></trkpt><trkpt lat="45.58764208937042" lon="10.675482914761384"><ele>78.66666666666667</ele><time>2026-04-06T11:04:47Z</time></trkpt><trkpt lat="45.58749473870891" lon="10.675402203302712"><ele>84.0</ele><time>2026-04-06T11:04:48Z</time></trkpt><trkpt lat="45.58734438412037" lon="10.675324582076449"><ele>79.66666666666667</ele><time>2026-04-06T11:04:49Z</time></trkpt><trkpt lat="45.58718918096171" lon="10.67525496637091"><ele>75.33333333333334</ele><time>2026-04-06T11:04:50Z</time></trkpt><trkpt lat="45.58703349296809" lon="10.675186213218845"><ele>71.0</ele><time>2026-04-06T11:04:51Z</time></trkpt><trkpt lat="45.58687589216789" lon="10.675116183488688"><ele>71.0</ele><time>2026-04-06T11:04:52Z</time></trkpt><trkpt lat="45.58671864111152" lon="10.67504856728606"><ele>71.0</ele><time>2026-04-06T11:04:53Z</time></trkpt><trkpt lat="45.58655893116524" lon="10.67497845850111"><ele>71.0</ele><time>2026-04-06T11:04:54Z</time></trkpt><trkpt lat="45.58640131988292" lon="10.674903173720493"><ele>71.0</ele><time>2026-04-06T11:04:55Z</time></trkpt><trkpt lat="45.58624218957146" lon="10.674829013875426"><ele>71.0</ele><time>2026-04-06T11:04:56Z</time></trkpt><trkpt lat="45.58608216392506" lon="10.674761646148765"><ele>71.0</ele><time>2026-04-06T11:04:57Z</time></trkpt><trkpt lat="45.585920464951016" lon="10.67469735775476"><ele>72.66666666666667</ele><time>2026-04-06T11:04:58Z</time></trkpt><trkpt lat="45.5857654485961" lon="10.67462729805661"><ele>74.33333333333333</ele><time>2026-04-06T11:04:59Z</time></trkpt><trkpt lat="45.58560576766572" lon="10.67455938078834"><ele>76.0</ele><time>2026-04-06T11:05:00Z</time></trkpt><trkpt lat="45.58544657182014" lon="10.674488648883152"><ele>74.0</ele><time>2026-04-06T11:05:01Z</time></trkpt><trkpt lat="45.58528863921122" lon="10.674417009058113"><ele>72.0</ele><time>2026-04-06T11:05:02Z</time></trkpt><trkpt lat="45.58513044307134" lon="10.674346730145084"><ele>70.0</ele><time>2026-04-06T11:05:03Z</time></trkpt><trkpt lat="45.58497413084294" lon="10.674281711045142"><ele>70.0</ele><time>2026-04-06T11:05:04Z</time></trkpt><trkpt lat="45.58481781601394" lon="10.674218554803812"><ele>70.0</ele><time>2026-04-06T11:05:05Z</time></trkpt><trkpt lat="45.58466359260171" lon="10.674159006931447"><ele>70.0</ele><time>2026-04-06T11:05:06Z</time></trkpt><trkpt lat="45.58450347362053" lon="10.674124929110665"><ele>70.66666666666666</ele><time>2026-04-06T11:05:07Z</time></trkpt><trkpt lat="45.584346458757715" lon="10.674107748349494"><ele>71.33333333333333</ele><time>2026-04-06T11:05:08Z</time></trkpt><trkpt lat="45.58418811637529" lon="10.674106403515271"><ele>72.0</ele><time>2026-04-06T11:05:09Z</time></trkpt><trkpt lat="45.58403039770623" lon="10.67411503626468"><ele>72.0</ele><time>2026-04-06T11:05:10Z</time></trkpt><trkpt lat="45.583877347621055" lon="10.67414289944656"><ele>72.0</ele><time>2026-04-06T11:05:11Z</time></trkpt><trkpt lat="45.58372397125777" lon="10.674186209563352"><ele>72.0</ele><time>2026-04-06T11:05:12Z</time></trkpt><trkpt lat="45.583566097065344" lon="10.674226679587807"><ele>71.66666666666667</ele><time>2026-04-06T11:05:13Z</time></trkpt><trkpt lat="45.58340991064642" lon="10.674267848260603"><ele>71.33333333333334</ele><time>2026-04-06T11:05:14Z</time></trkpt><trkpt lat="45.58325440435" lon="10.674304384058171"><ele>71.0</ele><time>2026-04-06T11:05:15Z</time></trkpt><trkpt lat="45.58309901313692" lon="10.674338603374654"><ele>71.0</ele><time>2026-04-06T11:05:16Z</time></trkpt><trkpt lat="45.58294355001538" lon="10.674375921289494"><ele>71.0</ele><time>2026-04-06T11:05:17Z</time></trkpt><trkpt lat="45.58278998108356" lon="10.674414377325075"><ele>71.0</ele><time>2026-04-06T11:05:18Z</time></trkpt><trkpt lat="45.58263500993452" lon="10.674441097225099"><ele>70.66666666666667</ele><time>2026-04-06T11:05:19Z</time></trkpt><trkpt lat="45.58247529803041" lon="10.674449388850837"><ele>70.33333333333333</ele><time>2026-04-06T11:05:20Z</time></trkpt><trkpt lat="45.58231730082373" lon="10.674440155820486"><ele>70.0</ele><time>2026-04-06T11:05:21Z</time></trkpt><trkpt lat="45.58216238266277" lon="10.674402447997155"><ele>73.0</ele><time>2026-04-06T11:05:22Z</time></trkpt><trkpt lat="45.58200975882581" lon="10.67435450716289"><ele>76.0</ele><time>2026-04-06T11:05:23Z</time></trkpt><trkpt lat="45.581858582170575" lon="10.67428264793758"><ele>79.0</ele><time>2026-04-06T11:05:24Z</time></trkpt><trkpt lat="45.58171341035702" lon="10.674208380146652"><ele>79.0</ele><time>2026-04-06T11:05:25Z</time></trkpt><trkpt lat="45.581567335168195" lon="10.674134485710672"><ele>79.0</ele><time>2026-04-06T11:05:26Z</time></trkpt><trkpt lat="45.58141836714745" lon="10.674065630203552"><ele>79.0</ele><time>2026-04-06T11:05:27Z</time></trkpt><trkpt lat="45.58126666408266" lon="10.67399410551149"><ele>84.0</ele><time>2026-04-06T11:05:28Z</time></trkpt><trkpt lat="45.581114668235614" lon="10.673920437478305"><ele>89.0</ele><time>2026-04-06T11:05:29Z</time></trkpt><trkpt lat="45.58096127328733" lon="10.673849147285377"><ele>94.0</ele><time>2026-04-06T11:05:30Z</time></trkpt><trkpt lat="45.580811945146685" lon="10.673775498381392"><ele>94.0</ele><time>2026-04-06T11:05:31Z</time></trkpt><trkpt lat="45.58066321861152" lon="10.673702829658646"><ele>94.0</ele><time>2026-04-06T11:05:32Z</time></trkpt><trkpt lat="45.58051113562124" lon="10.67363450909818"><ele>94.0</ele><time>2026-04-06T11:05:33Z</time></trkpt><trkpt lat="45.58035885642707" lon="10.673574980769374"><ele>88.0</ele><time>2026-04-06T11:05:34Z</time></trkpt><trkpt lat="45.5802040385608" lon="10.67352554881104"><ele>82.0</ele><time>2026-04-06T11:05:35Z</time></trkpt><trkpt lat="45.58004632137082" lon="10.673502895224942"><ele>76.0</ele><time>2026-04-06T11:05:36Z</time></trkpt><trkpt lat="45.5798898183103" lon="10.673504774185457"><ele>76.0</ele><time>2026-04-06T11:05:37Z</time></trkpt><trkpt lat="45.57973560113338" lon="10.673543274755596"><ele>76.0</ele><time>2026-04-06T11:05:38Z</time></trkpt><trkpt lat="45.57958113615304" lon="10.6736001579202"><ele>76.0</ele><time>2026-04-06T11:05:39Z</time></trkpt><trkpt lat="45.57943657269738" lon="10.67367342943553"><ele>84.33333333333333</ele><time>2026-04-06T11:05:40Z</time></trkpt><trkpt lat="45.57928700886705" lon="10.673747266439586"><ele>92.66666666666666</ele><time>2026-04-06T11:05:41Z</time></trkpt><trkpt lat="45.57913545741103" lon="10.673811539662628"><ele>101.0</ele><time>2026-04-06T11:05:42Z</time></trkpt><trkpt lat="45.57897912912281" lon="10.673864612887174"><ele>101.0</ele><time>2026-04-06T11:05:43Z</time></trkpt><trkpt lat="45.578822009411475" lon="10.673897507496388"><ele>101.0</ele><time>2026-04-06T11:05:44Z</time></trkpt><trkpt lat="45.57865799411524" lon="10.673905533744877"><ele>101.0</ele><time>2026-04-06T11:05:45Z</time></trkpt><trkpt lat="45.578492858480836" lon="10.673906316232511"><ele>100.33333333333333</ele><time>2026-04-06T11:05:46Z</time></trkpt><trkpt lat="45.57832825150656" lon="10.673891644245005"><ele>99.66666666666666</ele><time>2026-04-06T11:05:47Z</time></trkpt><trkpt lat="45.57816663125949" lon="10.673882140044668"><ele>99.0</ele><time>2026-04-06T11:05:48Z</time></trkpt><trkpt lat="45.57800503061173" lon="10.673882593796995"><ele>99.33333333333334</ele><time>2026-04-06T11:05:49Z</time></trkpt><trkpt lat="45.57784120877068" lon="10.673876455797938"><ele>99.66666666666667</ele><time>2026-04-06T11:05:50Z</time></trkpt><trkpt lat="45.577676816573664" lon="10.673882441637195"><ele>100.0</ele><time>2026-04-06T11:05:51Z</time></trkpt><trkpt lat="45.57751191324773" lon="10.673905583533188"><ele>100.0</ele><time>2026-04-06T11:05:52Z</time></trkpt><trkpt lat="45.57734496761267" lon="10.673942336025394"><ele>100.0</ele><time>2026-04-06T11:05:53Z</time></trkpt><trkpt lat="45.57717683859792" lon="10.67398443189286"><ele>100.0</ele><time>2026-04-06T11:05:54Z</time></trkpt><trkpt lat="45.57700876606551" lon="10.67402320791512"><ele>97.66666666666667</ele><time>2026-04-06T11:05:55Z</time></trkpt><trkpt lat="45.576840784862874" lon="10.674054871626101"><ele>95.33333333333334</ele><time>2026-04-06T11:05:56Z</time></trkpt><trkpt lat="45.57667107438099" lon="10.67409109416546"><ele>93.0</ele><time>2026-04-06T11:05:57Z</time></trkpt><trkpt lat="45.57650127756817" lon="10.674128161244335"><ele>93.0</ele><time>2026-04-06T11:05:58Z</time></trkpt><trkpt lat="45.576328787795894" lon="10.674169596331934"><ele>93.0</ele><time>2026-04-06T11:05:59Z</time></trkpt><trkpt lat="45.57615612783306" lon="10.674209152735038"><ele>93.0</ele><time>2026-04-06T11:06:00Z</time></trkpt><trkpt lat="45.57598120785985" lon="10.674241786229494"><ele>89.66666666666667</ele><time>2026-04-06T11:06:01Z</time></trkpt><trkpt lat="45.57580353051086" lon="10.67427553300274"><ele>86.33333333333334</ele><time>2026-04-06T11:06:02Z</time></trkpt><trkpt lat="45.57562812022302" lon="10.674316636048903"><ele>83.0</ele><time>2026-04-06T11:06:03Z</time></trkpt><trkpt lat="45.575452329713194" lon="10.67435473707109"><ele>81.66666666666667</ele><time>2026-04-06T11:06:04Z</time></trkpt><trkpt lat="45.575276831163464" lon="10.674391209838303"><ele>80.33333333333333</ele><time>2026-04-06T11:06:05Z</time></trkpt><trkpt lat="45.57510447389573" lon="10.67442504620746"><ele>79.0</ele><time>2026-04-06T11:06:06Z</time></trkpt><trkpt lat="45.57493635992713" lon="10.674460809978163"><ele>81.33333333333333</ele><time>2026-04-06T11:06:07Z</time></trkpt><trkpt lat="45.57477149628721" lon="10.674498850112323"><ele>83.66666666666667</ele><time>2026-04-06T11:06:08Z</time></trkpt><trkpt lat="45.57461039323014" lon="10.674537210819912"><ele>86.0</ele><time>2026-04-06T11:06:09Z</time></trkpt><trkpt lat="45.57446623334889" lon="10.674593367556254"><ele>86.0</ele><time>2026-04-06T11:06:10Z</time></trkpt><trkpt lat="45.57433971292551" lon="10.674676786138486"><ele>86.0</ele><time>2026-04-06T11:06:11Z</time></trkpt><trkpt lat="45.57422184747904" lon="10.674788936156196"><ele>86.0</ele><time>2026-04-06T11:06:12Z</time></trkpt><trkpt lat="45.57411129772255" lon="10.674907963870943"><ele>86.0</ele><time>2026-04-06T11:06:13Z</time></trkpt><trkpt lat="45.57400179063078" lon="10.675038201975049"><ele>86.0</ele><time>2026-04-06T11:06:14Z</time></trkpt><trkpt lat="45.573900838807404" lon="10.67519145104996"><ele>86.0</ele><time>2026-04-06T11:06:15Z</time></trkpt><trkpt lat="45.57381450172361" lon="10.675364822473806"><ele>86.0</ele><time>2026-04-06T11:06:16Z</time></trkpt><trkpt lat="45.57374536101952" lon="10.675549686887992"><ele>86.0</ele><time>2026-04-06T11:06:17Z</time></trkpt><trkpt lat="45.57368977370101" lon="10.67574018231974"><ele>85.25</ele><time>2026-04-06T11:06:18Z</time></trkpt><trkpt lat="45.57364792427156" lon="10.67593012956435"><ele>84.5</ele><time>2026-04-06T11:06:19Z</time></trkpt><trkpt lat="45.573619936725834" lon="10.676122699422546"><ele>83.75</ele><time>2026-04-06T11:06:20Z</time></trkpt><trkpt lat="45.573604570081706" lon="10.676310129061703"><ele>83.0</ele><time>2026-04-06T11:06:21Z</time></trkpt><trkpt lat="45.573602849608385" lon="10.676503580256522"><ele>83.0</ele><time>2026-04-06T11:06:22Z</time></trkpt><trkpt lat="45.57361645136308" lon="10.676702819517626"><ele>83.0</ele><time>2026-04-06T11:06:23Z</time></trkpt><trkpt lat="45.57364689660778" lon="10.676906823523508"><ele>83.0</ele><time>2026-04-06T11:06:24Z</time></trkpt><trkpt lat="45.573695328277765" lon="10.677108837875597"><ele>83.0</ele><time>2026-04-06T11:06:25Z</time></trkpt><trkpt lat="45.573758374587705" lon="10.677307374505872"><ele>82.5</ele><time>2026-04-06T11:06:26Z</time></trkpt><trkpt lat="45.57382600332205" lon="10.677493920968232"><ele>82.0</ele><time>2026-04-06T11:06:27Z</time></trkpt><trkpt lat="45.5739127862983" lon="10.677662025359801"><ele>81.5</ele><time>2026-04-06T11:06:28Z</time></trkpt><trkpt lat="45.57401023453136" lon="10.677811663323505"><ele>81.0</ele><time>2026-04-06T11:06:29Z</time></trkpt><trkpt lat="45.574118887301964" lon="10.677943064071885"><ele>81.0</ele><time>2026-04-06T11:06:30Z</time></trkpt><trkpt lat="45.57423408257375" lon="10.678064566431036"><ele>81.0</ele><time>2026-04-06T11:06:31Z</time></trkpt><trkpt lat="45.574355492666506" lon="10.678176306500738"><ele>81.0</ele><time>2026-04-06T11:06:32Z</time></trkpt><trkpt lat="45.57448256330525" lon="10.678287036479537"><ele>81.0</ele><time>2026-04-06T11:06:33Z</time></trkpt><trkpt lat="45.57460701607938" lon="10.678401971487057"><ele>81.75</ele><time>2026-04-06T11:06:34Z</time></trkpt><trkpt lat="45.57473134014261" lon="10.678519786113952"><ele>82.5</ele><time>2026-04-06T11:06:35Z</time></trkpt><trkpt lat="45.574857436480386" lon="10.678635224027827"><ele>83.25</ele><time>2026-04-06T11:06:36Z</time></trkpt><trkpt lat="45.574981070485066" lon="10.678749396988273"><ele>84.0</ele><time>2026-04-06T11:06:37Z</time></trkpt><trkpt lat="45.57510298538603" lon="10.678862107998189"><ele>84.0</ele><time>2026-04-06T11:06:38Z</time></trkpt><trkpt lat="45.57522560071837" lon="10.67897559180302"><ele>84.0</ele><time>2026-04-06T11:06:39Z</time></trkpt><trkpt lat="45.575342863398404" lon="10.679082547068392"><ele>84.0</ele><time>2026-04-06T11:06:40Z</time></trkpt><trkpt lat="45.57545878885843" lon="10.679191790890364"><ele>84.0</ele><time>2026-04-06T11:06:41Z</time></trkpt><trkpt lat="45.57557233707091" lon="10.679296352060152"><ele>84.75</ele><time>2026-04-06T11:06:42Z</time></trkpt><trkpt lat="45.57568564690522" lon="10.679408767094454"><ele>85.5</ele><time>2026-04-06T11:06:43Z</time></trkpt><trkpt lat="45.57579617392707" lon="10.6795378596658"><ele>86.25</ele><time>2026-04-06T11:06:44Z</time></trkpt><trkpt lat="45.57589425129546" lon="10.679685073919213"><ele>87.0</ele><time>2026-04-06T11:06:45Z</time></trkpt><trkpt lat="45.575985449570254" lon="10.679842276964786"><ele>87.0</ele><time>2026-04-06T11:06:46Z</time></trkpt><trkpt lat="45.57606320081958" lon="10.680019038251027"><ele>87.0</ele><time>2026-04-06T11:06:47Z</time></trkpt><trkpt lat="45.57612846172822" lon="10.680207998392536"><ele>87.0</ele><time>2026-04-06T11:06:48Z</time></trkpt><trkpt lat="45.57618593589447" lon="10.680401956059036"><ele>87.0</ele><time>2026-04-06T11:06:49Z</time></trkpt><trkpt lat="45.57623592034473" lon="10.680599036419034"><ele>90.0</ele><time>2026-04-06T11:06:50Z</time></trkpt><trkpt lat="45.576282789043454" lon="10.680799514111712"><ele>93.0</ele><time>2026-04-06T11:06:51Z</time></trkpt><trkpt lat="45.57632737010512" lon="10.68099793620682"><ele>96.0</ele><time>2026-04-06T11:06:52Z</time></trkpt><trkpt lat="45.576375667514256" lon="10.681197920986815"><ele>99.0</ele><time>2026-04-06T11:06:53Z</time></trkpt><trkpt lat="45.57642263785028" lon="10.681393861882944"><ele>99.0</ele><time>2026-04-06T11:06:54Z</time></trkpt><trkpt lat="45.57647018635287" lon="10.681590723857221"><ele>99.0</ele><time>2026-04-06T11:06:55Z</time></trkpt><trkpt lat="45.57651459865738" lon="10.681771482744349"><ele>99.0</ele><time>2026-04-06T11:06:56Z</time></trkpt><trkpt lat="45.576555760555785" lon="10.681945787690903"><ele>99.0</ele><time>2026-04-06T11:06:57Z</time></trkpt><trkpt lat="45.57659338332117" lon="10.68211471158709"><ele>97.5</ele><time>2026-04-06T11:06:58Z</time></trkpt><trkpt lat="45.57663332323194" lon="10.682282915024015"><ele>96.0</ele><time>2026-04-06T11:06:59Z</time></trkpt><trkpt lat="45.5766699913397" lon="10.682442869043726"><ele>94.5</ele><time>2026-04-06T11:07:00Z</time></trkpt><trkpt lat="45.57671776167263" lon="10.682596589329115"><ele>93.0</ele><time>2026-04-06T11:07:01Z</time></trkpt><trkpt lat="45.57676837868887" lon="10.682749073930443"><ele>93.25</ele><time>2026-04-06T11:07:02Z</time></trkpt><trkpt lat="45.57683174253105" lon="10.682894317134721"><ele>93.5</ele><time>2026-04-06T11:07:03Z</time></trkpt><trkpt lat="45.57690868246363" lon="10.683032189868142"><ele>93.75</ele><time>2026-04-06T11:07:04Z</time></trkpt><trkpt lat="45.57697679050286" lon="10.6831771979576"><ele>94.0</ele><time>2026-04-06T11:07:05Z</time></trkpt><trkpt lat="45.57707048464756" lon="10.68329367922046"><ele>94.0</ele><time>2026-04-06T11:07:06Z</time></trkpt><trkpt lat="45.57717776012815" lon="10.683403835488765"><ele>94.0</ele><time>2026-04-06T11:07:07Z</time></trkpt><trkpt lat="45.577306471844786" lon="10.683518014988454"><ele>94.0</ele><time>2026-04-06T11:07:08Z</time></trkpt><trkpt lat="45.57746725801965" lon="10.683633271143762"><ele>94.33333333333333</ele><time>2026-04-06T11:07:09Z</time></trkpt><trkpt lat="45.57762988113063" lon="10.683748551004678"><ele>94.66666666666667</ele><time>2026-04-06T11:07:10Z</time></trkpt><trkpt lat="45.57778245563212" lon="10.68386053353208"><ele>95.0</ele><time>2026-04-06T11:07:11Z</time></trkpt><trkpt lat="45.57792686377893" lon="10.683962804407882"><ele>95.0</ele><time>2026-04-06T11:07:12Z</time></trkpt><trkpt lat="45.578043693137616" lon="10.68410873801805"><ele>95.0</ele><time>2026-04-06T11:07:13Z</time></trkpt><trkpt lat="45.578154417485244" lon="10.684270969938902"><ele>95.0</ele><time>2026-04-06T11:07:14Z</time></trkpt><trkpt lat="45.57824975628989" lon="10.684452518306799"><ele>93.33333333333334</ele><time>2026-04-06T11:07:15Z</time></trkpt><trkpt lat="45.57833637082279" lon="10.684637886979296"><ele>91.66666666666667</ele><time>2026-04-06T11:07:16Z</time></trkpt><trkpt lat="45.578410369322896" lon="10.684833635241006"><ele>90.0</ele><time>2026-04-06T11:07:17Z</time></trkpt><trkpt lat="45.5784792443303" lon="10.685033629793008"><ele>90.0</ele><time>2026-04-06T11:07:18Z</time></trkpt><trkpt lat="45.57854559375665" lon="10.685227372522558"><ele>90.0</ele><time>2026-04-06T11:07:19Z</time></trkpt><trkpt lat="45.578614811202016" lon="10.68541555833533"><ele>90.0</ele><time>2026-04-06T11:07:20Z</time></trkpt><trkpt lat="45.57868697767812" lon="10.685604155061505"><ele>92.33333333333334</ele><time>2026-04-06T11:07:21Z</time></trkpt><trkpt lat="45.578758164012335" lon="10.685793805234052"><ele>94.66666666666667</ele><time>2026-04-06T11:07:22Z</time></trkpt><trkpt lat="45.57883617651035" lon="10.685980037742814"><ele>97.0</ele><time>2026-04-06T11:07:23Z</time></trkpt><trkpt lat="45.57890654312919" lon="10.686173868794675"><ele>97.0</ele><time>2026-04-06T11:07:24Z</time></trkpt><trkpt lat="45.578977082116815" lon="10.686362147069522"><ele>97.0</ele><time>2026-04-06T11:07:25Z</time></trkpt><trkpt lat="45.57905770003907" lon="10.686557229994868"><ele>97.0</ele><time>2026-04-06T11:07:26Z</time></trkpt><trkpt lat="45.57915802594704" lon="10.686732793031396"><ele>97.0</ele><time>2026-04-06T11:07:27Z</time></trkpt><trkpt lat="45.57927033883023" lon="10.686895093692472"><ele>97.0</ele><time>2026-04-06T11:07:28Z</time></trkpt><trkpt lat="45.579383318451725" lon="10.68706047342448"><ele>97.0</ele><time>2026-04-06T11:07:29Z</time></trkpt><trkpt lat="45.57948380613174" lon="10.6872324311828"><ele>97.33333333333334</ele><time>2026-04-06T11:07:30Z</time></trkpt><trkpt lat="45.57957511634389" lon="10.687425488851348"><ele>97.66666666666666</ele><time>2026-04-06T11:07:31Z</time></trkpt><trkpt lat="45.579651850064046" lon="10.687631097217773"><ele>98.0</ele><time>2026-04-06T11:07:32Z</time></trkpt><trkpt lat="45.57970824135642" lon="10.687848453683515"><ele>98.0</ele><time>2026-04-06T11:07:33Z</time></trkpt><trkpt lat="45.57975087358349" lon="10.688077041121561"><ele>98.0</ele><time>2026-04-06T11:07:34Z</time></trkpt><trkpt lat="45.57977646544259" lon="10.688308660010884"><ele>98.0</ele><time>2026-04-06T11:07:35Z</time></trkpt><trkpt lat="45.579793684460384" lon="10.688543525302643"><ele>95.33333333333333</ele><time>2026-04-06T11:07:36Z</time></trkpt><trkpt lat="45.57981472867296" lon="10.68876778926472"><ele>92.66666666666666</ele><time>2026-04-06T11:07:37Z</time></trkpt><trkpt lat="45.57983838907437" lon="10.688992878759114"><ele>90.0</ele><time>2026-04-06T11:07:38Z</time></trkpt><trkpt lat="45.579863585924734" lon="10.689214657274078"><ele>87.66666666666667</ele><time>2026-04-06T11:07:39Z</time></trkpt><trkpt lat="45.57988472784243" lon="10.68944024627525"><ele>85.33333333333334</ele><time>2026-04-06T11:07:40Z</time></trkpt><trkpt lat="45.579909862635205" lon="10.689658287669278"><ele>83.0</ele><time>2026-04-06T11:07:41Z</time></trkpt><trkpt lat="45.57993379179289" lon="10.689879049711326"><ele>83.0</ele><time>2026-04-06T11:07:42Z</time></trkpt><trkpt lat="45.57995647777028" lon="10.690096190537979"><ele>83.0</ele><time>2026-04-06T11:07:43Z</time></trkpt><trkpt lat="45.579980683085715" lon="10.690306771362682"><ele>83.0</ele><time>2026-04-06T11:07:44Z</time></trkpt><trkpt lat="45.58000424935182" lon="10.690517333503372"><ele>83.75</ele><time>2026-04-06T11:07:45Z</time></trkpt><trkpt lat="45.580018982206475" lon="10.69071977747806"><ele>84.5</ele><time>2026-04-06T11:07:46Z</time></trkpt><trkpt lat="45.580001140032984" lon="10.690921587411335"><ele>85.25</ele><time>2026-04-06T11:07:47Z</time></trkpt><trkpt lat="45.57998254976562" lon="10.691120660242321"><ele>86.0</ele><time>2026-04-06T11:07:48Z</time></trkpt><trkpt lat="45.57995050663219" lon="10.691317955098492"><ele>86.75</ele><time>2026-04-06T11:07:49Z</time></trkpt><trkpt lat="45.57991521338691" lon="10.691521930709378"><ele>87.5</ele><time>2026-04-06T11:07:50Z</time></trkpt><trkpt lat="45.57984806168521" lon="10.691710617219751"><ele>88.25</ele><time>2026-04-06T11:07:51Z</time></trkpt><trkpt lat="45.579761838748595" lon="10.6918924101153"><ele>89.0</ele><time>2026-04-06T11:07:52Z</time></trkpt><trkpt lat="45.579675036147044" lon="10.692065102016233"><ele>90.66666666666667</ele><time>2026-04-06T11:07:53Z</time></trkpt><trkpt lat="45.579583168338" lon="10.692240840945685"><ele>92.33333333333333</ele><time>2026-04-06T11:07:54Z</time></trkpt><trkpt lat="45.57949691172872" lon="10.692414535302614"><ele>94.0</ele><time>2026-04-06T11:07:55Z</time></trkpt><trkpt lat="45.579409007759814" lon="10.692594291823148"><ele>89.33333333333333</ele><time>2026-04-06T11:07:56Z</time></trkpt><trkpt lat="45.579325306859694" lon="10.692776421726798"><ele>84.66666666666667</ele><time>2026-04-06T11:07:57Z</time></trkpt><trkpt lat="45.57924395477023" lon="10.692955798369544"><ele>80.0</ele><time>2026-04-06T11:07:58Z</time></trkpt><trkpt lat="45.57916563474706" lon="10.69314005545505"><ele>80.0</ele><time>2026-04-06T11:07:59Z</time></trkpt><trkpt lat="45.579088784370114" lon="10.693315041466933"><ele>80.0</ele><time>2026-04-06T11:08:00Z</time></trkpt><trkpt lat="45.57901401642644" lon="10.693500116415914"><ele>80.0</ele><time>2026-04-06T11:08:01Z</time></trkpt><trkpt lat="45.57894306586855" lon="10.693682826870795"><ele>80.0</ele><time>2026-04-06T11:08:02Z</time></trkpt><trkpt lat="45.57887483429029" lon="10.693866848771235"><ele>81.0</ele><time>2026-04-06T11:08:03Z</time></trkpt><trkpt lat="45.5788085124659" lon="10.694050553044821"><ele>82.0</ele><time>2026-04-06T11:08:04Z</time></trkpt><trkpt lat="45.578744657328485" lon="10.694235217745387"><ele>83.0</ele><time>2026-04-06T11:08:05Z</time></trkpt><trkpt lat="45.57868549147223" lon="10.694414223479091"><ele>84.0</ele><time>2026-04-06T11:08:06Z</time></trkpt><trkpt lat="45.578624923550514" lon="10.694597076740209"><ele>82.5</ele><time>2026-04-06T11:08:07Z</time></trkpt><trkpt lat="45.57856979407566" lon="10.694778325296546"><ele>81.0</ele><time>2026-04-06T11:08:08Z</time></trkpt><trkpt lat="45.57851815661587" lon="10.69496115682141"><ele>79.5</ele><time>2026-04-06T11:08:09Z</time></trkpt><trkpt lat="45.57846842882779" lon="10.695136976176592"><ele>78.0</ele><time>2026-04-06T11:08:10Z</time></trkpt><trkpt lat="45.57842003332466" lon="10.695313163634573"><ele>78.0</ele><time>2026-04-06T11:08:11Z</time></trkpt><trkpt lat="45.578376351863504" lon="10.695483322296726"><ele>78.0</ele><time>2026-04-06T11:08:12Z</time></trkpt><trkpt lat="45.5783360112291" lon="10.695648553584316"><ele>78.0</ele><time>2026-04-06T11:08:13Z</time></trkpt><trkpt lat="45.57829532121644" lon="10.695806093397765"><ele>78.0</ele><time>2026-04-06T11:08:14Z</time></trkpt><trkpt lat="45.578259679519974" lon="10.695958021828153"><ele>78.8</ele><time>2026-04-06T11:08:15Z</time></trkpt><trkpt lat="45.57822515322521" lon="10.696094586178736"><ele>79.6</ele><time>2026-04-06T11:08:16Z</time></trkpt><trkpt lat="45.5781922816402" lon="10.696224802514834"><ele>80.39999999999999</ele><time>2026-04-06T11:08:17Z</time></trkpt><trkpt lat="45.57816118371069" lon="10.696344445860221"><ele>81.19999999999999</ele><time>2026-04-06T11:08:18Z</time></trkpt><trkpt lat="45.57813061336883" lon="10.696463810939573"><ele>82.0</ele><time>2026-04-06T11:08:19Z</time></trkpt><trkpt lat="45.57809993046003" lon="10.696592196378704"><ele>82.0</ele><time>2026-04-06T11:08:20Z</time></trkpt><trkpt lat="45.578067902917795" lon="10.696734575902068"><ele>82.0</ele><time>2026-04-06T11:08:21Z</time></trkpt><trkpt lat="45.57803487126967" lon="10.696868761887593"><ele>82.0</ele><time>2026-04-06T11:08:22Z</time></trkpt><trkpt lat="45.57800246558468" lon="10.697004313341363"><ele>82.0</ele><time>2026-04-06T11:08:23Z</time></trkpt><trkpt lat="45.57796865661531" lon="10.697142501570175"><ele>82.0</ele><time>2026-04-06T11:08:24Z</time></trkpt><trkpt lat="45.57793496475015" lon="10.697279816086336"><ele>82.8</ele><time>2026-04-06T11:08:25Z</time></trkpt><trkpt lat="45.57790162310961" lon="10.69741742398422"><ele>83.6</ele><time>2026-04-06T11:08:26Z</time></trkpt><trkpt lat="45.57787230133576" lon="10.697555380803934"><ele>84.39999999999999</ele><time>2026-04-06T11:08:27Z</time></trkpt><trkpt lat="45.577847331988245" lon="10.69769531979846"><ele>85.19999999999999</ele><time>2026-04-06T11:08:28Z</time></trkpt><trkpt lat="45.57782951259434" lon="10.697837370704457"><ele>86.0</ele><time>2026-04-06T11:08:29Z</time></trkpt><trkpt lat="45.57781944445601" lon="10.697980777627539"><ele>83.2</ele><time>2026-04-06T11:08:30Z</time></trkpt><trkpt lat="45.57780524009375" lon="10.698134825406491"><ele>80.39999999999999</ele><time>2026-04-06T11:08:31Z</time></trkpt><trkpt lat="45.57779700717916" lon="10.69828452990876"><ele>77.6</ele><time>2026-04-06T11:08:32Z</time></trkpt><trkpt lat="45.57778469230915" lon="10.698435577954152"><ele>74.8</ele><time>2026-04-06T11:08:33Z</time></trkpt><trkpt lat="45.577796266895845" lon="10.698594436721745"><ele>72.0</ele><time>2026-04-06T11:08:34Z</time></trkpt><trkpt lat="45.57779119553149" lon="10.69875897713872"><ele>71.25</ele><time>2026-04-06T11:08:35Z</time></trkpt><trkpt lat="45.577789904396" lon="10.698927037499296"><ele>70.5</ele><time>2026-04-06T11:08:36Z</time></trkpt><trkpt lat="45.577799207371434" lon="10.699102001333962"><ele>69.75</ele><time>2026-04-06T11:08:37Z</time></trkpt><trkpt lat="45.5778130053312" lon="10.699279106305429"><ele>69.0</ele><time>2026-04-06T11:08:38Z</time></trkpt><trkpt lat="45.57782711651064" lon="10.699457173125223"><ele>68.75</ele><time>2026-04-06T11:08:39Z</time></trkpt><trkpt lat="45.57783824172038" lon="10.699632161916966"><ele>68.5</ele><time>2026-04-06T11:08:40Z</time></trkpt><trkpt lat="45.577848988675726" lon="10.699798469520008"><ele>68.25</ele><time>2026-04-06T11:08:41Z</time></trkpt><trkpt lat="45.57785788784578" lon="10.699959730232909"><ele>68.0</ele><time>2026-04-06T11:08:42Z</time></trkpt><trkpt lat="45.57786625056895" lon="10.70011787998615"><ele>72.75</ele><time>2026-04-06T11:08:43Z</time></trkpt><trkpt lat="45.577871590618905" lon="10.700280966266135"><ele>77.5</ele><time>2026-04-06T11:08:44Z</time></trkpt><trkpt lat="45.57787265667544" lon="10.700447871842881"><ele>82.25</ele><time>2026-04-06T11:08:45Z</time></trkpt><trkpt lat="45.57786978578173" lon="10.70061823303274"><ele>87.0</ele><time>2026-04-06T11:08:46Z</time></trkpt><trkpt lat="45.57786329970505" lon="10.700792331384186"><ele>87.0</ele><time>2026-04-06T11:08:47Z</time></trkpt><trkpt lat="45.577854430551206" lon="10.700965550840111"><ele>87.0</ele><time>2026-04-06T11:08:48Z</time></trkpt><trkpt lat="45.577841502180846" lon="10.701134638626833"><ele>87.0</ele><time>2026-04-06T11:08:49Z</time></trkpt><trkpt lat="45.57783582497395" lon="10.701281079187806"><ele>87.0</ele><time>2026-04-06T11:08:50Z</time></trkpt><trkpt lat="45.57780925294751" lon="10.701408492405267"><ele>87.0</ele><time>2026-04-06T11:08:51Z</time></trkpt><trkpt lat="45.577799225192734" lon="10.701521456947871"><ele>84.16666666666667</ele><time>2026-04-06T11:08:52Z</time></trkpt><trkpt lat="45.577789635946644" lon="10.701616263614884"><ele>81.33333333333333</ele><time>2026-04-06T11:08:53Z</time></trkpt><trkpt lat="45.577778397210935" lon="10.701710317972214"><ele>78.5</ele><time>2026-04-06T11:08:56Z</time></trkpt><trkpt lat="45.57776520909967" lon="10.701801925627208"><ele>75.66666666666666</ele><time>2026-04-06T11:09:00Z</time></trkpt><trkpt lat="45.57774546724703" lon="10.701939961162585"><ele>72.83333333333333</ele><time>2026-04-06T11:09:02Z</time></trkpt><trkpt lat="45.57773420601109" lon="10.702117830465763"><ele>70.0</ele><time>2026-04-06T11:09:04Z</time></trkpt><trkpt lat="45.577701205272945" lon="10.702291261554073"><ele>69.66666666666666</ele><time>2026-04-06T11:09:06Z</time></trkpt><trkpt lat="45.57768113434845" lon="10.702387403260907"><ele>69.33333333333333</ele><time>2026-04-06T11:09:07Z</time></trkpt><trkpt lat="45.577659729339715" lon="10.70249045285488"><ele>69.0</ele><time>2026-04-06T11:09:08Z</time></trkpt><trkpt lat="45.57763801055145" lon="10.702600699257955"><ele>68.66666666666667</ele><time>2026-04-06T11:09:09Z</time></trkpt><trkpt lat="45.57761520189834" lon="10.70271685397446"><ele>68.33333333333334</ele><time>2026-04-06T11:09:10Z</time></trkpt><trkpt lat="45.577591448340236" lon="10.702837273713108"><ele>68.0</ele><time>2026-04-06T11:09:11Z</time></trkpt><trkpt lat="45.57757011065655" lon="10.70295769070185"><ele>68.16666666666667</ele><time>2026-04-06T11:09:12Z</time></trkpt><trkpt lat="45.577551285777986" lon="10.703079519187805"><ele>68.33333333333334</ele><time>2026-04-06T11:09:13Z</time></trkpt><trkpt lat="45.577532397761416" lon="10.703192616099873"><ele>68.5</ele><time>2026-04-06T11:09:14Z</time></trkpt><trkpt lat="45.577509739144624" lon="10.703306068970742"><ele>68.66666666666667</ele><time>2026-04-06T11:09:15Z</time></trkpt><trkpt lat="45.57748580353683" lon="10.703417852210722"><ele>68.83333333333333</ele><time>2026-04-06T11:09:16Z</time></trkpt><trkpt lat="45.577459462303736" lon="10.703533086224734"><ele>69.0</ele><time>2026-04-06T11:09:17Z</time></trkpt><trkpt lat="45.577430597914876" lon="10.703650763535661"><ele>69.0</ele><time>2026-04-06T11:09:18Z</time></trkpt><trkpt lat="45.5774015699857" lon="10.703759031031584"><ele>69.0</ele><time>2026-04-06T11:09:19Z</time></trkpt><trkpt lat="45.57737502542912" lon="10.703863105408308"><ele>69.0</ele><time>2026-04-06T11:09:20Z</time></trkpt><trkpt lat="45.577349184925616" lon="10.703964922860559"><ele>69.0</ele><time>2026-04-06T11:09:21Z</time></trkpt><trkpt lat="45.577326899330586" lon="10.704056594693089"><ele>69.0</ele><time>2026-04-06T11:09:22Z</time></trkpt><trkpt lat="45.5773028962498" lon="10.704155614007286"><ele>69.0</ele><time>2026-04-06T11:09:23Z</time></trkpt><trkpt lat="45.577273364250495" lon="10.70426634643489"><ele>69.0</ele><time>2026-04-06T11:09:24Z</time></trkpt><trkpt lat="45.577231451076166" lon="10.704399078072516"><ele>69.0</ele><time>2026-04-06T11:09:25Z</time></trkpt><trkpt lat="45.577190766076995" lon="10.704536732858381"><ele>69.0</ele><time>2026-04-06T11:09:26Z</time></trkpt><trkpt lat="45.577145351083246" lon="10.704677187632473"><ele>69.0</ele><time>2026-04-06T11:09:27Z</time></trkpt><trkpt lat="45.57709963946392" lon="10.704829239047404"><ele>69.0</ele><time>2026-04-06T11:09:28Z</time></trkpt><trkpt lat="45.57705776430935" lon="10.70499698235373"><ele>69.25</ele><time>2026-04-06T11:09:29Z</time></trkpt><trkpt lat="45.57703046451113" lon="10.705168985687852"><ele>69.5</ele><time>2026-04-06T11:09:30Z</time></trkpt><trkpt lat="45.57702263113894" lon="10.705339899057055"><ele>69.75</ele><time>2026-04-06T11:09:31Z</time></trkpt><trkpt lat="45.5770231636215" lon="10.705510063487921"><ele>70.0</ele><time>2026-04-06T11:09:32Z</time></trkpt><trkpt lat="45.57702210772716" lon="10.705676992986813"><ele>70.0</ele><time>2026-04-06T11:09:33Z</time></trkpt><trkpt lat="45.57700896915738" lon="10.705841279895436"><ele>70.0</ele><time>2026-04-06T11:09:34Z</time></trkpt><trkpt lat="45.57698013930462" lon="10.705999023780485"><ele>70.0</ele><time>2026-04-06T11:09:35Z</time></trkpt><trkpt lat="45.57693814508577" lon="10.7061513875643"><ele>70.0</ele><time>2026-04-06T11:09:36Z</time></trkpt><trkpt lat="45.57688294198659" lon="10.706293507985956"><ele>70.4</ele><time>2026-04-06T11:09:37Z</time></trkpt><trkpt lat="45.57682539134849" lon="10.706422687510804"><ele>70.8</ele><time>2026-04-06T11:09:38Z</time></trkpt><trkpt lat="45.57676774743272" lon="10.706536472673065"><ele>71.2</ele><time>2026-04-06T11:09:39Z</time></trkpt><trkpt lat="45.57670632467823" lon="10.70664242281632"><ele>71.6</ele><time>2026-04-06T11:09:40Z</time></trkpt><trkpt lat="45.576649715434584" lon="10.70673313699295"><ele>72.0</ele><time>2026-04-06T11:09:41Z</time></trkpt><trkpt lat="45.576599114661086" lon="10.706819820019254"><ele>72.0</ele><time>2026-04-06T11:09:42Z</time></trkpt><trkpt lat="45.57655288046261" lon="10.706898417475518"><ele>72.0</ele><time>2026-04-06T11:09:43Z</time></trkpt><trkpt lat="45.5765062812932" lon="10.706974028045476"><ele>72.0</ele><time>2026-04-06T11:09:44Z</time></trkpt><trkpt lat="45.5764556124316" lon="10.707058538160597"><ele>72.0</ele><time>2026-04-06T11:09:45Z</time></trkpt><trkpt lat="45.57640017958064" lon="10.70715190405633"><ele>72.0</ele><time>2026-04-06T11:09:46Z</time></trkpt><trkpt lat="45.576342411486245" lon="10.707248641757102"><ele>72.0</ele><time>2026-04-06T11:09:47Z</time></trkpt><trkpt lat="45.576283497900995" lon="10.70734632469388"><ele>71.83333333333333</ele><time>2026-04-06T11:09:48Z</time></trkpt><trkpt lat="45.57623013587463" lon="10.707435875559415"><ele>71.66666666666667</ele><time>2026-04-06T11:09:49Z</time></trkpt><trkpt lat="45.5761815134107" lon="10.707519995740737"><ele>71.5</ele><time>2026-04-06T11:09:50Z</time></trkpt><trkpt lat="45.57613460152779" lon="10.7076006268155"><ele>71.33333333333334</ele><time>2026-04-06T11:09:51Z</time></trkpt><trkpt lat="45.576081609718834" lon="10.707693413569746"><ele>71.16666666666667</ele><time>2026-04-06T11:09:52Z</time></trkpt><trkpt lat="45.57602585463779" lon="10.707790572735345"><ele>71.0</ele><time>2026-04-06T11:09:53Z</time></trkpt><trkpt lat="45.57597304836274" lon="10.707878340097404"><ele>71.0</ele><time>2026-04-06T11:09:54Z</time></trkpt><trkpt lat="45.57592783037833" lon="10.707948778327934"><ele>71.0</ele><time>2026-04-06T11:09:55Z</time></trkpt><trkpt lat="45.57585585359376" lon="10.708067710366548"><ele>71.0</ele><time>2026-04-06T11:09:57Z</time></trkpt><trkpt lat="45.57579701181131" lon="10.708168608491698"><ele>71.0</ele><time>2026-04-06T11:09:59Z</time></trkpt><trkpt lat="45.57575231760555" lon="10.708245708711319"><ele>71.0</ele><time>2026-04-06T11:10:01Z</time></trkpt><trkpt lat="45.57570390401622" lon="10.708327493859581"><ele>71.0</ele><time>2026-04-06T11:10:03Z</time></trkpt><trkpt lat="45.5756491834341" lon="10.708424721080243"><ele>71.0</ele><time>2026-04-06T11:10:06Z</time></trkpt><trkpt lat="45.5755962084841" lon="10.708509766935753"><ele>71.0</ele><time>2026-04-06T11:10:10Z</time></trkpt><trkpt lat="45.57554678602824" lon="10.708617044985973"><ele>71.0</ele><time>2026-04-06T11:10:13Z</time></trkpt><trkpt lat="45.57546567126143" lon="10.708749259188838"><ele>71.0</ele><time>2026-04-06T11:10:15Z</time></trkpt><trkpt lat="45.57542268780956" lon="10.70882339219001"><ele>71.0</ele><time>2026-04-06T11:10:16Z</time></trkpt><trkpt lat="45.57537579257969" lon="10.708903292081768"><ele>71.0</ele><time>2026-04-06T11:10:17Z</time></trkpt><trkpt lat="45.575334227107334" lon="10.708972713386231"><ele>70.5</ele><time>2026-04-06T11:10:18Z</time></trkpt><trkpt lat="45.57525390932606" lon="10.709102080689906"><ele>70.0</ele><time>2026-04-06T11:10:20Z</time></trkpt><trkpt lat="45.57521109666065" lon="10.709172749333101"><ele>69.5</ele><time>2026-04-06T11:10:21Z</time></trkpt><trkpt lat="45.57516301649202" lon="10.7092492858363"><ele>69.0</ele><time>2026-04-06T11:10:22Z</time></trkpt><trkpt lat="45.575112592030834" lon="10.709315064874382"><ele>68.5</ele><time>2026-04-06T11:10:23Z</time></trkpt><trkpt lat="45.57505279043061" lon="10.709381485857923"><ele>68.0</ele><time>2026-04-06T11:10:25Z</time></trkpt><trkpt lat="45.57496189328062" lon="10.709448198283123"><ele>68.0</ele><time>2026-04-06T11:10:28Z</time></trkpt><trkpt lat="45.57489248056292" lon="10.709529001810028"><ele>68.0</ele><time>2026-04-06T11:10:30Z</time></trkpt><trkpt lat="45.57481916545526" lon="10.709567695393345"><ele>68.0</ele><time>2026-04-06T11:10:33Z</time></trkpt><trkpt lat="45.57474476950463" lon="10.709607027511256"><ele>68.0</ele><time>2026-04-06T11:10:36Z</time></trkpt><trkpt lat="45.574626678679984" lon="10.709651940782294"><ele>68.0</ele><time>2026-04-06T11:10:38Z</time></trkpt><trkpt lat="45.574540853289896" lon="10.709672603745302"><ele>68.25</ele><time>2026-04-06T11:10:39Z</time></trkpt><trkpt lat="45.57443290900886" lon="10.709687837627447"><ele>68.5</ele><time>2026-04-06T11:10:40Z</time></trkpt><trkpt lat="45.57430860640068" lon="10.709710451650214"><ele>68.75</ele><time>2026-04-06T11:10:41Z</time></trkpt><trkpt lat="45.574186249324626" lon="10.709728614404131"><ele>69.0</ele><time>2026-04-06T11:10:42Z</time></trkpt><trkpt lat="45.57406355792971" lon="10.709752205395096"><ele>69.0</ele><time>2026-04-06T11:10:43Z</time></trkpt><trkpt lat="45.57394518675546" lon="10.709785389469399"><ele>69.0</ele><time>2026-04-06T11:10:44Z</time></trkpt><trkpt lat="45.573837039895515" lon="10.709817207570424"><ele>69.0</ele><time>2026-04-06T11:10:45Z</time></trkpt><trkpt lat="45.57373446672913" lon="10.70986383815773"><ele>69.0</ele><time>2026-04-06T11:10:46Z</time></trkpt><trkpt lat="45.573640536410686" lon="10.709911334037708"><ele>69.0</ele><time>2026-04-06T11:10:47Z</time></trkpt><trkpt lat="45.57355366623179" lon="10.709961970791475"><ele>69.16666666666667</ele><time>2026-04-06T11:10:48Z</time></trkpt><trkpt lat="45.57347570512181" lon="10.71003178465987"><ele>69.33333333333333</ele><time>2026-04-06T11:10:49Z</time></trkpt><trkpt lat="45.57340049083088" lon="10.710113160143823"><ele>69.5</ele><time>2026-04-06T11:10:50Z</time></trkpt><trkpt lat="45.57333151479849" lon="10.710193609200497"><ele>69.66666666666666</ele><time>2026-04-06T11:10:51Z</time></trkpt><trkpt lat="45.5732789451836" lon="10.710254209267605"><ele>69.83333333333333</ele><time>2026-04-06T11:10:52Z</time></trkpt><trkpt lat="45.57322066198762" lon="10.710304905078727"><ele>70.0</ele><time>2026-04-06T11:10:53Z</time></trkpt><trkpt lat="45.57314378727209" lon="10.710344923672386"><ele>70.4</ele><time>2026-04-06T11:10:54Z</time></trkpt><trkpt lat="45.57305124127115" lon="10.71036872719443"><ele>70.8</ele><time>2026-04-06T11:10:55Z</time></trkpt><trkpt lat="45.57295399349449" lon="10.7103750945461"><ele>71.2</ele><time>2026-04-06T11:10:56Z</time></trkpt><trkpt lat="45.57284805223753" lon="10.710370807564074"><ele>71.6</ele><time>2026-04-06T11:10:57Z</time></trkpt><trkpt lat="45.572738829921434" lon="10.710368422501661"><ele>72.0</ele><time>2026-04-06T11:10:58Z</time></trkpt><trkpt lat="45.572628605285686" lon="10.71036381675551"><ele>72.5</ele><time>2026-04-06T11:10:59Z</time></trkpt><trkpt lat="45.572518084500906" lon="10.710349448711039"><ele>73.0</ele><time>2026-04-06T11:11:00Z</time></trkpt><trkpt lat="45.57240999748801" lon="10.710314361298964"><ele>73.5</ele><time>2026-04-06T11:11:01Z</time></trkpt><trkpt lat="45.5723076957504" lon="10.710253875099895"><ele>74.0</ele><time>2026-04-06T11:11:02Z</time></trkpt><trkpt lat="45.57220055689279" lon="10.71016758223614"><ele>73.0</ele><time>2026-04-06T11:11:03Z</time></trkpt><trkpt lat="45.57208630515139" lon="10.710062778371123"><ele>72.0</ele><time>2026-04-06T11:11:04Z</time></trkpt><trkpt lat="45.57197194034078" lon="10.709953576265196"><ele>71.0</ele><time>2026-04-06T11:11:05Z</time></trkpt><trkpt lat="45.571849915665425" lon="10.709849527093068"><ele>70.0</ele><time>2026-04-06T11:11:06Z</time></trkpt><trkpt lat="45.57173083979146" lon="10.709749520992133"><ele>72.25</ele><time>2026-04-06T11:11:07Z</time></trkpt><trkpt lat="45.571609682458195" lon="10.709662322908756"><ele>74.5</ele><time>2026-04-06T11:11:08Z</time></trkpt><trkpt lat="45.571482115842116" lon="10.70958571223032"><ele>76.75</ele><time>2026-04-06T11:11:09Z</time></trkpt><trkpt lat="45.571347766146296" lon="10.70951256217417"><ele>79.0</ele><time>2026-04-06T11:11:10Z</time></trkpt><trkpt lat="45.57120669759965" lon="10.709444566382404"><ele>76.0</ele><time>2026-04-06T11:11:11Z</time></trkpt><trkpt lat="45.57106371111355" lon="10.709373374842443"><ele>73.0</ele><time>2026-04-06T11:11:12Z</time></trkpt><trkpt lat="45.57091840802661" lon="10.709296378704241"><ele>70.0</ele><time>2026-04-06T11:11:13Z</time></trkpt><trkpt lat="45.57076940782762" lon="10.709223271149428"><ele>70.0</ele><time>2026-04-06T11:11:14Z</time></trkpt><trkpt lat="45.570619544459994" lon="10.709149221005395"><ele>70.0</ele><time>2026-04-06T11:11:15Z</time></trkpt><trkpt lat="45.57046413774397" lon="10.709082119708501"><ele>70.0</ele><time>2026-04-06T11:11:16Z</time></trkpt><trkpt lat="45.5703035865153" lon="10.70902084422818"><ele>78.0</ele><time>2026-04-06T11:11:17Z</time></trkpt><trkpt lat="45.5701433974641" lon="10.708966332546026"><ele>86.0</ele><time>2026-04-06T11:11:18Z</time></trkpt><trkpt lat="45.56998244339799" lon="10.708912256142115"><ele>94.0</ele><time>2026-04-06T11:11:19Z</time></trkpt><trkpt lat="45.5698227092282" lon="10.708858761792994"><ele>94.0</ele><time>2026-04-06T11:11:20Z</time></trkpt><trkpt lat="45.56966196173349" lon="10.708805466149661"><ele>94.0</ele><time>2026-04-06T11:11:21Z</time></trkpt><trkpt lat="45.56950534886638" lon="10.708760593090684"><ele>94.0</ele><time>2026-04-06T11:11:22Z</time></trkpt><trkpt lat="45.569351246141046" lon="10.708728802606107"><ele>98.0</ele><time>2026-04-06T11:11:23Z</time></trkpt><trkpt lat="45.56919622456562" lon="10.70870948710252"><ele>102.0</ele><time>2026-04-06T11:11:24Z</time></trkpt><trkpt lat="45.56903517873457" lon="10.708701240076977"><ele>106.0</ele><time>2026-04-06T11:11:25Z</time></trkpt><trkpt lat="45.56886769273233" lon="10.70871567640203"><ele>106.0</ele><time>2026-04-06T11:11:26Z</time></trkpt><trkpt lat="45.56869757306403" lon="10.70874999881064"><ele>106.0</ele><time>2026-04-06T11:11:27Z</time></trkpt><trkpt lat="45.568536213767466" lon="10.708804776203682"><ele>106.0</ele><time>2026-04-06T11:11:28Z</time></trkpt><trkpt lat="45.568379896937586" lon="10.708869358116589"><ele>101.66666666666667</ele><time>2026-04-06T11:11:29Z</time></trkpt><trkpt lat="45.56822506457105" lon="10.708944440280046"><ele>97.33333333333334</ele><time>2026-04-06T11:11:30Z</time></trkpt><trkpt lat="45.56806475803719" lon="10.70901935147935"><ele>93.0</ele><time>2026-04-06T11:11:31Z</time></trkpt><trkpt lat="45.56790390617507" lon="10.709092279039815"><ele>87.0</ele><time>2026-04-06T11:11:32Z</time></trkpt><trkpt lat="45.56774454002905" lon="10.709178851295622"><ele>81.0</ele><time>2026-04-06T11:11:33Z</time></trkpt><trkpt lat="45.567591301525866" lon="10.709277210487524"><ele>75.0</ele><time>2026-04-06T11:11:34Z</time></trkpt><trkpt lat="45.56744183911057" lon="10.70938783584551"><ele>84.0</ele><time>2026-04-06T11:11:35Z</time></trkpt><trkpt lat="45.567296867261796" lon="10.70950020257135"><ele>93.0</ele><time>2026-04-06T11:11:36Z</time></trkpt><trkpt lat="45.56716281456291" lon="10.709613295348069"><ele>102.0</ele><time>2026-04-06T11:11:37Z</time></trkpt><trkpt lat="45.5670282076004" lon="10.709713457534937"><ele>96.0</ele><time>2026-04-06T11:11:38Z</time></trkpt><trkpt lat="45.56689776294003" lon="10.70980907487528"><ele>90.0</ele><time>2026-04-06T11:11:39Z</time></trkpt><trkpt lat="45.56677046659836" lon="10.709909983536752"><ele>84.0</ele><time>2026-04-06T11:11:40Z</time></trkpt><trkpt lat="45.566651821835336" lon="10.710010386421697"><ele>78.0</ele><time>2026-04-06T11:11:41Z</time></trkpt><trkpt lat="45.56655343218054" lon="10.710097952227267"><ele>78.0</ele><time>2026-04-06T11:11:42Z</time></trkpt><trkpt lat="45.5664673416035" lon="10.710175282822213"><ele>78.0</ele><time>2026-04-06T11:11:43Z</time></trkpt><trkpt lat="45.56638185740441" lon="10.710255028691389"><ele>78.0</ele><time>2026-04-06T11:11:44Z</time></trkpt><trkpt lat="45.56628336156793" lon="10.710353015920246"><ele>78.0</ele><time>2026-04-06T11:11:45Z</time></trkpt><trkpt lat="45.566179554422035" lon="10.710466901139656"><ele>78.0</ele><time>2026-04-06T11:11:46Z</time></trkpt><trkpt lat="45.566070474351456" lon="10.71059356397721"><ele>78.0</ele><time>2026-04-06T11:11:47Z</time></trkpt><trkpt lat="45.565967494760905" lon="10.710733162803653"><ele>78.0</ele><time>2026-04-06T11:11:48Z</time></trkpt><trkpt lat="45.56585063809841" lon="10.710871777126728"><ele>78.0</ele><time>2026-04-06T11:11:49Z</time></trkpt><trkpt lat="45.565735022452685" lon="10.711049167342441"><ele>80.0</ele><time>2026-04-06T11:11:50Z</time></trkpt><trkpt lat="45.5656317135363" lon="10.71125113046699"><ele>82.0</ele><time>2026-04-06T11:11:51Z</time></trkpt><trkpt lat="45.565517427941806" lon="10.7114407780431"><ele>84.0</ele><time>2026-04-06T11:11:52Z</time></trkpt><trkpt lat="45.56540836556154" lon="10.711623755714031"><ele>82.66666666666667</ele><time>2026-04-06T11:11:53Z</time></trkpt><trkpt lat="45.565312638023414" lon="10.711803225735558"><ele>81.33333333333334</ele><time>2026-04-06T11:11:54Z</time></trkpt><trkpt lat="45.565203205808494" lon="10.711960958209868"><ele>80.0</ele><time>2026-04-06T11:11:55Z</time></trkpt><trkpt lat="45.56509196004467" lon="10.712154872327417"><ele>80.0</ele><time>2026-04-06T11:11:56Z</time></trkpt><trkpt lat="45.564977590143585" lon="10.712357180529478"><ele>80.0</ele><time>2026-04-06T11:11:57Z</time></trkpt><trkpt lat="45.564871351115166" lon="10.712571317011752"><ele>80.0</ele><time>2026-04-06T11:11:58Z</time></trkpt><trkpt lat="45.56475133211541" lon="10.712777579995342"><ele>78.33333333333334</ele><time>2026-04-06T11:11:59Z</time></trkpt><trkpt lat="45.56463365361107" lon="10.71297943976856"><ele>76.66666666666667</ele><time>2026-04-06T11:12:00Z</time></trkpt><trkpt lat="45.56451337025784" lon="10.713177801852305"><ele>75.0</ele><time>2026-04-06T11:12:01Z</time></trkpt><trkpt lat="45.56439066272904" lon="10.713364770359927"><ele>75.0</ele><time>2026-04-06T11:12:02Z</time></trkpt><trkpt lat="45.56426233799009" lon="10.713540830625629"><ele>75.0</ele><time>2026-04-06T11:12:03Z</time></trkpt><trkpt lat="45.56412931936864" lon="10.713706306091815"><ele>75.0</ele><time>2026-04-06T11:12:04Z</time></trkpt><trkpt lat="45.563993115071895" lon="10.71385861681743"><ele>74.33333333333333</ele><time>2026-04-06T11:12:05Z</time></trkpt><trkpt lat="45.56385293565058" lon="10.713994477965784"><ele>73.66666666666666</ele><time>2026-04-06T11:12:06Z</time></trkpt><trkpt lat="45.56370558808408" lon="10.714122726244941"><ele>73.0</ele><time>2026-04-06T11:12:07Z</time></trkpt><trkpt lat="45.56355785997152" lon="10.714237013048892"><ele>73.0</ele><time>2026-04-06T11:12:08Z</time></trkpt><trkpt lat="45.56340188601067" lon="10.714342258317025"><ele>73.0</ele><time>2026-04-06T11:12:09Z</time></trkpt><trkpt lat="45.56324848753557" lon="10.714436977597382"><ele>73.0</ele><time>2026-04-06T11:12:10Z</time></trkpt><trkpt lat="45.56309244652495" lon="10.714524586266354"><ele>74.0</ele><time>2026-04-06T11:12:11Z</time></trkpt><trkpt lat="45.56293465631067" lon="10.714601245755292"><ele>75.0</ele><time>2026-04-06T11:12:12Z</time></trkpt><trkpt lat="45.562771155820094" lon="10.714674255869626"><ele>76.0</ele><time>2026-04-06T11:12:13Z</time></trkpt><trkpt lat="45.562607930198396" lon="10.714742051043372"><ele>76.0</ele><time>2026-04-06T11:12:14Z</time></trkpt><trkpt lat="45.56244376276199" lon="10.714808106097783"><ele>76.0</ele><time>2026-04-06T11:12:15Z</time></trkpt><trkpt lat="45.562278222877524" lon="10.714883524989547"><ele>76.0</ele><time>2026-04-06T11:12:16Z</time></trkpt><trkpt lat="45.56211691712184" lon="10.714953696023432"><ele>76.33333333333333</ele><time>2026-04-06T11:12:17Z</time></trkpt><trkpt lat="45.5619523641643" lon="10.715026553738738"><ele>76.66666666666667</ele><time>2026-04-06T11:12:18Z</time></trkpt><trkpt lat="45.56178816547297" lon="10.71509804878721"><ele>77.0</ele><time>2026-04-06T11:12:19Z</time></trkpt><trkpt lat="45.5616226771936" lon="10.715170659818371"><ele>76.66666666666667</ele><time>2026-04-06T11:12:20Z</time></trkpt><trkpt lat="45.561457315004915" lon="10.71524582521358"><ele>76.33333333333333</ele><time>2026-04-06T11:12:21Z</time></trkpt><trkpt lat="45.56129433635489" lon="10.715324874225901"><ele>76.0</ele><time>2026-04-06T11:12:22Z</time></trkpt><trkpt lat="45.56113144096155" lon="10.715406611610069"><ele>76.0</ele><time>2026-04-06T11:12:23Z</time></trkpt><trkpt lat="45.560971249411715" lon="10.71549828047653"><ele>76.0</ele><time>2026-04-06T11:12:24Z</time></trkpt><trkpt lat="45.56081553334878" lon="10.715597380239764"><ele>76.0</ele><time>2026-04-06T11:12:25Z</time></trkpt><trkpt lat="45.5606627720589" lon="10.715697816993009"><ele>76.0</ele><time>2026-04-06T11:12:26Z</time></trkpt><trkpt lat="45.560514804260166" lon="10.715806884557072"><ele>76.0</ele><time>2026-04-06T11:12:27Z</time></trkpt><trkpt lat="45.560372972000565" lon="10.715924626711518"><ele>76.0</ele><time>2026-04-06T11:12:28Z</time></trkpt><trkpt lat="45.5602345164457" lon="10.716050590877787"><ele>77.33333333333333</ele><time>2026-04-06T11:12:29Z</time></trkpt><trkpt lat="45.56009951184129" lon="10.716177259875131"><ele>78.66666666666667</ele><time>2026-04-06T11:12:30Z</time></trkpt><trkpt lat="45.55996496940105" lon="10.716304196858971"><ele>80.0</ele><time>2026-04-06T11:12:31Z</time></trkpt><trkpt lat="45.55983239492627" lon="10.716431561445926"><ele>80.0</ele><time>2026-04-06T11:12:32Z</time></trkpt><trkpt lat="45.559698322918386" lon="10.716562243560851"><ele>80.0</ele><time>2026-04-06T11:12:33Z</time></trkpt><trkpt lat="45.55956137842978" lon="10.716693651799403"><ele>80.0</ele><time>2026-04-06T11:12:34Z</time></trkpt><trkpt lat="45.559421588281126" lon="10.716819489724223"><ele>80.33333333333334</ele><time>2026-04-06T11:12:35Z</time></trkpt><trkpt lat="45.55927729790615" lon="10.716943735936626"><ele>80.66666666666667</ele><time>2026-04-06T11:12:36Z</time></trkpt><trkpt lat="45.55913383982649" lon="10.71707638718489"><ele>81.0</ele><time>2026-04-06T11:12:37Z</time></trkpt><trkpt lat="45.558993452158795" lon="10.717211833684873"><ele>81.0</ele><time>2026-04-06T11:12:38Z</time></trkpt><trkpt lat="45.55885066907133" lon="10.717349052225869"><ele>81.0</ele><time>2026-04-06T11:12:39Z</time></trkpt><trkpt lat="45.558703825458025" lon="10.717476667649905"><ele>81.0</ele><time>2026-04-06T11:12:40Z</time></trkpt><trkpt lat="45.55855367604391" lon="10.717596274851887"><ele>80.0</ele><time>2026-04-06T11:12:41Z</time></trkpt><trkpt lat="45.55839629772676" lon="10.717693545129263"><ele>79.0</ele><time>2026-04-06T11:12:42Z</time></trkpt><trkpt lat="45.55823727903259" lon="10.717775245513074"><ele>78.0</ele><time>2026-04-06T11:12:43Z</time></trkpt><trkpt lat="45.55807667060251" lon="10.717842708569393"><ele>79.33333333333333</ele><time>2026-04-06T11:12:44Z</time></trkpt><trkpt lat="45.55791575398978" lon="10.717908735801108"><ele>80.66666666666666</ele><time>2026-04-06T11:12:45Z</time></trkpt><trkpt lat="45.55775598892259" lon="10.717980507818387"><ele>82.0</ele><time>2026-04-06T11:12:46Z</time></trkpt><trkpt lat="45.557597499192376" lon="10.71805927806751"><ele>82.0</ele><time>2026-04-06T11:12:47Z</time></trkpt><trkpt lat="45.557443924776486" lon="10.718152323663606"><ele>82.0</ele><time>2026-04-06T11:12:48Z</time></trkpt><trkpt lat="45.55729274685694" lon="10.71826158434626"><ele>82.0</ele><time>2026-04-06T11:12:49Z</time></trkpt><trkpt lat="45.557145102908635" lon="10.718379276017757"><ele>82.0</ele><time>2026-04-06T11:12:50Z</time></trkpt><trkpt lat="45.55699736442395" lon="10.718500703834417"><ele>82.0</ele><time>2026-04-06T11:12:51Z</time></trkpt><trkpt lat="45.55684659140501" lon="10.718615411285242"><ele>82.0</ele><time>2026-04-06T11:12:52Z</time></trkpt><trkpt lat="45.55669396705379" lon="10.718728725391488"><ele>82.0</ele><time>2026-04-06T11:12:53Z</time></trkpt><trkpt lat="45.55654091094367" lon="10.718842187413248"><ele>82.0</ele><time>2026-04-06T11:12:54Z</time></trkpt><trkpt lat="45.556389528896226" lon="10.718952049312588"><ele>82.0</ele><time>2026-04-06T11:12:55Z</time></trkpt><trkpt lat="45.55623480579363" lon="10.719058593272607"><ele>80.33333333333333</ele><time>2026-04-06T11:12:56Z</time></trkpt><trkpt lat="45.556078097171" lon="10.719158499338876"><ele>78.66666666666667</ele><time>2026-04-06T11:12:57Z</time></trkpt><trkpt lat="45.55592061350478" lon="10.719249332980526"><ele>77.0</ele><time>2026-04-06T11:12:58Z</time></trkpt><trkpt lat="45.55576368082009" lon="10.719337896986497"><ele>78.0</ele><time>2026-04-06T11:12:59Z</time></trkpt><trkpt lat="45.55561206471967" lon="10.719422549454618"><ele>79.0</ele><time>2026-04-06T11:13:00Z</time></trkpt><trkpt lat="45.55546115990378" lon="10.719509600378837"><ele>80.0</ele><time>2026-04-06T11:13:01Z</time></trkpt><trkpt lat="45.55531542699721" lon="10.719594913106919"><ele>80.0</ele><time>2026-04-06T11:13:02Z</time></trkpt><trkpt lat="45.55518020212027" lon="10.719671766092649"><ele>80.0</ele><time>2026-04-06T11:13:03Z</time></trkpt><trkpt lat="45.55504943101532" lon="10.719747893235464"><ele>80.0</ele><time>2026-04-06T11:13:04Z</time></trkpt><trkpt lat="45.554930539965305" lon="10.719821022485151"><ele>80.0</ele><time>2026-04-06T11:13:05Z</time></trkpt><trkpt lat="45.55482328789399" lon="10.719884492491975"><ele>80.0</ele><time>2026-04-06T11:13:06Z</time></trkpt><trkpt lat="45.554727434261466" lon="10.719939269441713"><ele>80.0</ele><time>2026-04-06T11:13:07Z</time></trkpt><trkpt lat="45.55464702010825" lon="10.719974511388942"><ele>80.0</ele><time>2026-04-06T11:13:08Z</time></trkpt><trkpt lat="45.5545690448017" lon="10.720005330306702"><ele>80.0</ele><time>2026-04-06T11:13:09Z</time></trkpt><trkpt lat="45.55448502394101" lon="10.71997730954733"><ele>80.0</ele><time>2026-04-06T11:13:10Z</time></trkpt><trkpt lat="45.5544157409892" lon="10.719985863408187"><ele>80.0</ele><time>2026-04-06T11:13:11Z</time></trkpt><trkpt lat="45.55434210582506" lon="10.720021041750513"><ele>80.5</ele><time>2026-04-06T11:13:12Z</time></trkpt><trkpt lat="45.554280643817634" lon="10.720088367109511"><ele>81.0</ele><time>2026-04-06T11:13:13Z</time></trkpt><trkpt lat="45.55422875674109" lon="10.720165713925931"><ele>81.5</ele><time>2026-04-06T11:13:14Z</time></trkpt><trkpt lat="45.55416986985891" lon="10.720224835672619"><ele>82.0</ele><time>2026-04-06T11:13:15Z</time></trkpt><trkpt lat="45.55405621085398" lon="10.720259113606255"><ele>82.5</ele><time>2026-04-06T11:13:17Z</time></trkpt><trkpt lat="45.553982549645994" lon="10.720292303159576"><ele>83.0</ele><time>2026-04-06T11:13:19Z</time></trkpt><trkpt lat="45.55391457285687" lon="10.720322931492221"><ele>83.0</ele><time>2026-04-06T11:13:21Z</time></trkpt><trkpt lat="45.55383090214639" lon="10.720360132754264"><ele>83.0</ele><time>2026-04-06T11:13:23Z</time></trkpt><trkpt lat="45.55376469981914" lon="10.720389563680817"><ele>83.0</ele><time>2026-04-06T11:13:24Z</time></trkpt><trkpt lat="45.553681486541905" lon="10.720426553084556"><ele>83.0</ele><time>2026-04-06T11:13:25Z</time></trkpt><trkpt lat="45.553596686579894" lon="10.720467552104292"><ele>83.0</ele><time>2026-04-06T11:13:26Z</time></trkpt><trkpt lat="45.553521280083814" lon="10.720505284631649"><ele>83.0</ele><time>2026-04-06T11:13:27Z</time></trkpt><trkpt lat="45.5534503866284" lon="10.720541515840074"><ele>82.33333333333334</ele><time>2026-04-06T11:13:28Z</time></trkpt><trkpt lat="45.553391116822006" lon="10.720573171104"><ele>81.66666666666667</ele><time>2026-04-06T11:13:29Z</time></trkpt><trkpt lat="45.553314374738015" lon="10.720616699377805"><ele>81.0</ele><time>2026-04-06T11:13:31Z</time></trkpt><trkpt lat="45.55325537064635" lon="10.72065029091196"><ele>80.33333333333333</ele><time>2026-04-06T11:13:33Z</time></trkpt><trkpt lat="45.55316995679774" lon="10.720699042579334"><ele>79.66666666666666</ele><time>2026-04-06T11:13:35Z</time></trkpt><trkpt lat="45.553111471486126" lon="10.720732424805353"><ele>79.0</ele><time>2026-04-06T11:13:36Z</time></trkpt><trkpt lat="45.553023012648694" lon="10.720782918359202"><ele>79.00000000000001</ele><time>2026-04-06T11:13:38Z</time></trkpt><trkpt lat="45.552957301759875" lon="10.72082042707733"><ele>79.0</ele><time>2026-04-06T11:13:41Z</time></trkpt><trkpt lat="45.5528887467499" lon="10.720861385214322"><ele>79.0</ele><time>2026-04-06T11:13:44Z</time></trkpt><trkpt lat="45.552819043024556" lon="10.720901734628521"><ele>79.0</ele><time>2026-04-06T11:13:46Z</time></trkpt><trkpt lat="45.55276054102146" lon="10.720975476491976"><ele>79.0</ele><time>2026-04-06T11:13:48Z</time></trkpt><trkpt lat="45.552697422326936" lon="10.721013645877939"><ele>79.00000000000001</ele><time>2026-04-06T11:13:51Z</time></trkpt><trkpt lat="45.55262400876889" lon="10.721057438553508"><ele>79.0</ele><time>2026-04-06T11:13:54Z</time></trkpt><trkpt lat="45.552556696854836" lon="10.72109479763121"><ele>79.4</ele><time>2026-04-06T11:13:56Z</time></trkpt><trkpt lat="45.55249411051051" lon="10.721126237250601"><ele>79.80000000000001</ele><time>2026-04-06T11:13:57Z</time></trkpt><trkpt lat="45.5524116434543" lon="10.72113817923785"><ele>80.19999999999999</ele><time>2026-04-06T11:13:58Z</time></trkpt><trkpt lat="45.552326992464586" lon="10.721187388320212"><ele>80.6</ele><time>2026-04-06T11:13:59Z</time></trkpt><trkpt lat="45.55223250424922" lon="10.721242315901309"><ele>81.0</ele><time>2026-04-06T11:14:00Z</time></trkpt><trkpt lat="45.552130863034236" lon="10.72130140168982"><ele>80.0</ele><time>2026-04-06T11:14:01Z</time></trkpt><trkpt lat="45.55202621542705" lon="10.721387555857026"><ele>79.0</ele><time>2026-04-06T11:14:02Z</time></trkpt><trkpt lat="45.55191343748752" lon="10.72145167159335"><ele>78.0</ele><time>2026-04-06T11:14:03Z</time></trkpt><trkpt lat="45.55180240873656" lon="10.721516466781722"><ele>77.0</ele><time>2026-04-06T11:14:04Z</time></trkpt><trkpt lat="45.551696260885734" lon="10.721576918390003"><ele>77.0</ele><time>2026-04-06T11:14:05Z</time></trkpt><trkpt lat="45.55159478710789" lon="10.721636041513584"><ele>77.0</ele><time>2026-04-06T11:14:06Z</time></trkpt><trkpt lat="45.551491169205946" lon="10.721670285324828"><ele>77.0</ele><time>2026-04-06T11:14:07Z</time></trkpt><trkpt lat="45.55139859599379" lon="10.721723598189776"><ele>77.0</ele><time>2026-04-06T11:14:08Z</time></trkpt><trkpt lat="45.551312092040966" lon="10.721773562242747"><ele>77.0</ele><time>2026-04-06T11:14:09Z</time></trkpt><trkpt lat="45.55123509742693" lon="10.721818001738267"><ele>77.0</ele><time>2026-04-06T11:14:10Z</time></trkpt><trkpt lat="45.55116586622688" lon="10.721857960367595"><ele>77.0</ele><time>2026-04-06T11:14:11Z</time></trkpt><trkpt lat="45.55110108449249" lon="10.721895350483507"><ele>77.0</ele><time>2026-04-06T11:14:12Z</time></trkpt><trkpt lat="45.55103897473714" lon="10.72193223809505"><ele>77.0</ele><time>2026-04-06T11:14:13Z</time></trkpt><trkpt lat="45.55097878755452" lon="10.721968658476099"><ele>77.0</ele><time>2026-04-06T11:14:14Z</time></trkpt><trkpt lat="45.550873658701335" lon="10.722033946865114"><ele>77.0</ele><time>2026-04-06T11:14:16Z</time></trkpt><trkpt lat="45.550818564373074" lon="10.72209180729623"><ele>77.0</ele><time>2026-04-06T11:14:19Z</time></trkpt><trkpt lat="45.55073401905155" lon="10.722131954105286"><ele>77.0</ele><time>2026-04-06T11:14:24Z</time></trkpt><trkpt lat="45.55064731362497" lon="10.722213476680139"><ele>77.0</ele><time>2026-04-06T11:14:26Z</time></trkpt><trkpt lat="45.550596167119366" lon="10.72227710293832"><ele>77.0</ele><time>2026-04-06T11:14:27Z</time></trkpt><trkpt lat="45.55053563169745" lon="10.7223328574008"><ele>77.0</ele><time>2026-04-06T11:14:28Z</time></trkpt><trkpt lat="45.55046931405185" lon="10.722389188537305"><ele>77.0</ele><time>2026-04-06T11:14:29Z</time></trkpt><trkpt lat="45.55039802648253" lon="10.722447730007191"><ele>76.66666666666667</ele><time>2026-04-06T11:14:30Z</time></trkpt><trkpt lat="45.55032524002454" lon="10.72251144740564"><ele>76.33333333333334</ele><time>2026-04-06T11:14:31Z</time></trkpt><trkpt lat="45.550253770578976" lon="10.722573133020143"><ele>76.0</ele><time>2026-04-06T11:14:32Z</time></trkpt><trkpt lat="45.55018569475024" lon="10.722623844281484"><ele>75.66666666666667</ele><time>2026-04-06T11:14:33Z</time></trkpt><trkpt lat="45.55012158168621" lon="10.722666983992818"><ele>75.33333333333333</ele><time>2026-04-06T11:14:34Z</time></trkpt><trkpt lat="45.550011145739575" lon="10.722737085693344"><ele>75.0</ele><time>2026-04-06T11:14:36Z</time></trkpt><trkpt lat="45.549918410322704" lon="10.722769781526823"><ele>75.0</ele><time>2026-04-06T11:14:38Z</time></trkpt><trkpt lat="45.5498203817327" lon="10.72282104489761"><ele>75.0</ele><time>2026-04-06T11:14:40Z</time></trkpt><trkpt lat="45.549753048269245" lon="10.722853202668603"><ele>75.0</ele><time>2026-04-06T11:14:41Z</time></trkpt><trkpt lat="45.54967682592575" lon="10.722889909142971"><ele>75.0</ele><time>2026-04-06T11:14:42Z</time></trkpt><trkpt lat="45.54959760138112" lon="10.722928061355658"><ele>75.0</ele><time>2026-04-06T11:14:43Z</time></trkpt><trkpt lat="45.54952668930229" lon="10.722986760812583"><ele>75.0</ele><time>2026-04-06T11:14:44Z</time></trkpt><trkpt lat="45.54945574834883" lon="10.723018216537135"><ele>74.83333333333333</ele><time>2026-04-06T11:14:45Z</time></trkpt><trkpt lat="45.549390437330786" lon="10.723048144349358"><ele>74.66666666666667</ele><time>2026-04-06T11:14:46Z</time></trkpt><trkpt lat="45.549280449135104" lon="10.723108396778423"><ele>74.5</ele><time>2026-04-06T11:14:48Z</time></trkpt><trkpt lat="45.549216894770254" lon="10.723108404955113"><ele>74.33333333333334</ele><time>2026-04-06T11:14:49Z</time></trkpt><trkpt lat="45.549160592131834" lon="10.723157694623467"><ele>74.16666666666667</ele><time>2026-04-06T11:14:50Z</time></trkpt><trkpt lat="45.549097724226804" lon="10.723178109787732"><ele>74.0</ele><time>2026-04-06T11:14:51Z</time></trkpt><trkpt lat="45.54899459744339" lon="10.723220674625107"><ele>74.0</ele><time>2026-04-06T11:14:53Z</time></trkpt><trkpt lat="45.548896324805746" lon="10.723272124397047"><ele>74.0</ele><time>2026-04-06T11:14:55Z</time></trkpt><trkpt lat="45.54878946526318" lon="10.723326397724936"><ele>74.0</ele><time>2026-04-06T11:14:57Z</time></trkpt><trkpt lat="45.548699827889116" lon="10.723370059581326"><ele>74.0</ele><time>2026-04-06T11:14:59Z</time></trkpt><trkpt lat="45.548627008238874" lon="10.72340837622019"><ele>74.0</ele><time>2026-04-06T11:15:01Z</time></trkpt><trkpt lat="45.54854412261053" lon="10.723449104945946"><ele>74.16666666666667</ele><time>2026-04-06T11:15:03Z</time></trkpt><trkpt lat="45.548463988211225" lon="10.723492430412714"><ele>74.33333333333334</ele><time>2026-04-06T11:15:05Z</time></trkpt><trkpt lat="45.54838997122844" lon="10.723532804943096"><ele>74.5</ele><time>2026-04-06T11:15:08Z</time></trkpt><trkpt lat="45.54831745046282" lon="10.72356032387247"><ele>74.66666666666667</ele><time>2026-04-06T11:15:13Z</time></trkpt><trkpt lat="45.548241864368485" lon="10.723608036515174"><ele>74.83333333333333</ele><time>2026-04-06T11:15:15Z</time></trkpt><trkpt lat="45.54817358291265" lon="10.723652104159699"><ele>75.0</ele><time>2026-04-06T11:15:17Z</time></trkpt><trkpt lat="45.5480986000399" lon="10.723723920062458"><ele>75.0</ele><time>2026-04-06T11:15:20Z</time></trkpt><trkpt lat="45.54797872924649" lon="10.723817887985295"><ele>75.0</ele><time>2026-04-06T11:15:22Z</time></trkpt><trkpt lat="45.54790933290878" lon="10.72387239404157"><ele>75.0</ele><time>2026-04-06T11:15:23Z</time></trkpt><trkpt lat="45.547840052935065" lon="10.72390026421039"><ele>75.0</ele><time>2026-04-06T11:15:24Z</time></trkpt><trkpt lat="45.54776776076936" lon="10.723940764300654"><ele>75.0</ele><time>2026-04-06T11:15:25Z</time></trkpt><trkpt lat="45.547701056879596" lon="10.723996441570812"><ele>75.0</ele><time>2026-04-06T11:15:26Z</time></trkpt><trkpt lat="45.54763653757022" lon="10.724040418126956"><ele>75.16666666666667</ele><time>2026-04-06T11:15:27Z</time></trkpt><trkpt lat="45.54756101891418" lon="10.72407859365523"><ele>75.33333333333333</ele><time>2026-04-06T11:15:28Z</time></trkpt><trkpt lat="45.54749094716355" lon="10.724137348351523"><ele>75.5</ele><time>2026-04-06T11:15:29Z</time></trkpt><trkpt lat="45.547434958096716" lon="10.724220224957973"><ele>75.66666666666666</ele><time>2026-04-06T11:15:30Z</time></trkpt><trkpt lat="45.54738406535299" lon="10.724285832485627"><ele>75.83333333333333</ele><time>2026-04-06T11:15:31Z</time></trkpt><trkpt lat="45.54733114091998" lon="10.724335017264261"><ele>76.0</ele><time>2026-04-06T11:15:32Z</time></trkpt><trkpt lat="45.54722067509666" lon="10.724410049474935"><ele>76.0</ele><time>2026-04-06T11:15:34Z</time></trkpt><trkpt lat="45.547157797483486" lon="10.72441909169226"><ele>76.0</ele><time>2026-04-06T11:15:35Z</time></trkpt><trkpt lat="45.54709469878372" lon="10.724445513516008"><ele>76.0</ele><time>2026-04-06T11:15:36Z</time></trkpt><trkpt lat="45.54703010277164" lon="10.724493558767907"><ele>76.0</ele><time>2026-04-06T11:15:37Z</time></trkpt><trkpt lat="45.54696495177709" lon="10.724505687137793"><ele>76.0</ele><time>2026-04-06T11:15:38Z</time></trkpt><trkpt lat="45.546854374933204" lon="10.724523094160316"><ele>76.0</ele><time>2026-04-06T11:15:40Z</time></trkpt><trkpt lat="45.54678822565364" lon="10.724500511754032"><ele>76.0</ele><time>2026-04-06T11:15:41Z</time></trkpt><trkpt lat="45.54670571847771" lon="10.724504571781173"><ele>76.0</ele><time>2026-04-06T11:15:42Z</time></trkpt><trkpt lat="45.54659015947227" lon="10.724540357252655"><ele>76.0</ele><time>2026-04-06T11:15:43Z</time></trkpt><trkpt lat="45.54645694206766" lon="10.724530473268777"><ele>76.0</ele><time>2026-04-06T11:15:44Z</time></trkpt><trkpt lat="45.546311977703645" lon="10.724514107265758"><ele>76.0</ele><time>2026-04-06T11:15:45Z</time></trkpt><trkpt lat="45.54616825910819" lon="10.724499439476979"><ele>76.0</ele><time>2026-04-06T11:15:46Z</time></trkpt><trkpt lat="45.546021743622845" lon="10.724487234746077"><ele>76.0</ele><time>2026-04-06T11:15:47Z</time></trkpt><trkpt lat="45.54587770463154" lon="10.72447501215998"><ele>76.0</ele><time>2026-04-06T11:15:48Z</time></trkpt><trkpt lat="45.54574166431859" lon="10.724466085438532"><ele>76.0</ele><time>2026-04-06T11:15:49Z</time></trkpt><trkpt lat="45.54561283717097" lon="10.724457491943648"><ele>76.0</ele><time>2026-04-06T11:15:50Z</time></trkpt><trkpt lat="45.545489124718316" lon="10.724446870456537"><ele>76.0</ele><time>2026-04-06T11:15:51Z</time></trkpt><trkpt lat="45.545367534701484" lon="10.724440120267083"><ele>76.0</ele><time>2026-04-06T11:15:52Z</time></trkpt><trkpt lat="45.545247981396386" lon="10.724434145237746"><ele>76.0</ele><time>2026-04-06T11:15:53Z</time></trkpt><trkpt lat="45.545141401023656" lon="10.724428232781944"><ele>75.83333333333333</ele><time>2026-04-06T11:15:54Z</time></trkpt><trkpt lat="45.54505847095604" lon="10.724421625762846"><ele>75.66666666666666</ele><time>2026-04-06T11:15:55Z</time></trkpt><trkpt lat="45.544982814071" lon="10.72441408875781"><ele>75.5</ele><time>2026-04-06T11:15:56Z</time></trkpt><trkpt lat="45.54491136161991" lon="10.724408215930652"><ele>75.33333333333333</ele><time>2026-04-06T11:15:57Z</time></trkpt><trkpt lat="45.54482600624455" lon="10.724405793505571"><ele>75.16666666666667</ele><time>2026-04-06T11:15:58Z</time></trkpt><trkpt lat="45.54471568438614" lon="10.72436981447647"><ele>75.0</ele><time>2026-04-06T11:15:59Z</time></trkpt><trkpt lat="45.54458072339855" lon="10.724384403090678"><ele>74.0</ele><time>2026-04-06T11:16:00Z</time></trkpt><trkpt lat="45.54445419456652" lon="10.724375232059142"><ele>73.0</ele><time>2026-04-06T11:16:01Z</time></trkpt><trkpt lat="45.54432238526434" lon="10.72437901815161"><ele>72.0</ele><time>2026-04-06T11:16:02Z</time></trkpt><trkpt lat="45.54419622256584" lon="10.72439391101897"><ele>71.0</ele><time>2026-04-06T11:16:03Z</time></trkpt><trkpt lat="45.54408314647731" lon="10.724414236588004"><ele>70.6</ele><time>2026-04-06T11:16:04Z</time></trkpt><trkpt lat="45.54398173261724" lon="10.724447437579533"><ele>70.19999999999999</ele><time>2026-04-06T11:16:05Z</time></trkpt><trkpt lat="45.543887821868395" lon="10.724488335158714"><ele>69.80000000000001</ele><time>2026-04-06T11:16:06Z</time></trkpt><trkpt lat="45.54379893059689" lon="10.724534520029783"><ele>69.4</ele><time>2026-04-06T11:16:07Z</time></trkpt><trkpt lat="45.54372161399404" lon="10.724580048278712"><ele>69.0</ele><time>2026-04-06T11:16:08Z</time></trkpt><trkpt lat="45.54365494034749" lon="10.724620764990677"><ele>68.83333333333333</ele><time>2026-04-06T11:16:09Z</time></trkpt><trkpt lat="45.54358909217134" lon="10.724638365149094"><ele>68.66666666666667</ele><time>2026-04-06T11:16:10Z</time></trkpt><trkpt lat="45.543475990016795" lon="10.724713755317191"><ele>68.5</ele><time>2026-04-06T11:16:12Z</time></trkpt><trkpt lat="45.54341393405765" lon="10.724755308494267"><ele>68.33333333333334</ele><time>2026-04-06T11:16:13Z</time></trkpt><trkpt lat="45.54334273016059" lon="10.724802987224972"><ele>68.16666666666667</ele><time>2026-04-06T11:16:14Z</time></trkpt><trkpt lat="45.543268123854446" lon="10.724852944209532"><ele>68.0</ele><time>2026-04-06T11:16:15Z</time></trkpt><trkpt lat="45.54320925345218" lon="10.724929603776241"><ele>67.99999999999999</ele><time>2026-04-06T11:16:16Z</time></trkpt><trkpt lat="45.54314761944702" lon="10.7249654458442"><ele>68.0</ele><time>2026-04-06T11:16:17Z</time></trkpt><trkpt lat="45.543081768922306" lon="10.725010426089993"><ele>68.0</ele><time>2026-04-06T11:16:18Z</time></trkpt><trkpt lat="45.54301269562838" lon="10.72505162978247"><ele>68.0</ele><time>2026-04-06T11:16:19Z</time></trkpt><trkpt lat="45.542948386795665" lon="10.725090280860373"><ele>68.0</ele><time>2026-04-06T11:16:20Z</time></trkpt><trkpt lat="45.542884849902485" lon="10.725134103329664"><ele>67.99999999999999</ele><time>2026-04-06T11:16:21Z</time></trkpt><trkpt lat="45.54281311392277" lon="10.725183230262067"><ele>68.0</ele><time>2026-04-06T11:16:22Z</time></trkpt><trkpt lat="45.542735298489056" lon="10.725235918933357"><ele>68.0</ele><time>2026-04-06T11:16:23Z</time></trkpt><trkpt lat="45.542659086755016" lon="10.725277886565857"><ele>68.0</ele><time>2026-04-06T11:16:24Z</time></trkpt><trkpt lat="45.542588004022235" lon="10.725323835246595"><ele>68.0</ele><time>2026-04-06T11:16:25Z</time></trkpt><trkpt lat="45.54251534600413" lon="10.72537846307289"><ele>68.0</ele><time>2026-04-06T11:16:26Z</time></trkpt><trkpt lat="45.54243732322476" lon="10.725439778242063"><ele>68.0</ele><time>2026-04-06T11:16:27Z</time></trkpt><trkpt lat="45.5423603429898" lon="10.725468344896202"><ele>68.0</ele><time>2026-04-06T11:16:28Z</time></trkpt><trkpt lat="45.54228880501427" lon="10.72551506944273"><ele>68.0</ele><time>2026-04-06T11:16:29Z</time></trkpt><trkpt lat="45.5422184581117" lon="10.725561016094439"><ele>68.0</ele><time>2026-04-06T11:16:30Z</time></trkpt><trkpt lat="45.54214228779178" lon="10.72561003746929"><ele>68.0</ele><time>2026-04-06T11:16:31Z</time></trkpt><trkpt lat="45.542068643501956" lon="10.725655611537812"><ele>68.0</ele><time>2026-04-06T11:16:32Z</time></trkpt><trkpt lat="45.54200539389067" lon="10.725706477221632"><ele>68.0</ele><time>2026-04-06T11:16:33Z</time></trkpt><trkpt lat="45.54194210287919" lon="10.725732747381018"><ele>68.0</ele><time>2026-04-06T11:16:34Z</time></trkpt><trkpt lat="45.541820947470235" lon="10.725786220737367"><ele>67.66666666666667</ele><time>2026-04-06T11:16:36Z</time></trkpt><trkpt lat="45.541752103493614" lon="10.725819430295749"><ele>67.33333333333334</ele><time>2026-04-06T11:16:37Z</time></trkpt><trkpt lat="45.54167239424836" lon="10.725823913241143"><ele>67.0</ele><time>2026-04-06T11:16:38Z</time></trkpt><trkpt lat="45.541592669956906" lon="10.725849689937371"><ele>66.66666666666667</ele><time>2026-04-06T11:16:39Z</time></trkpt><trkpt lat="45.54151217172485" lon="10.725875884094824"><ele>66.33333333333333</ele><time>2026-04-06T11:16:40Z</time></trkpt><trkpt lat="45.54142797335837" lon="10.725903086883639"><ele>66.0</ele><time>2026-04-06T11:16:41Z</time></trkpt><trkpt lat="45.54135569642152" lon="10.72594781511627"><ele>66.0</ele><time>2026-04-06T11:16:42Z</time></trkpt><trkpt lat="45.541292397213404" lon="10.72596805975562"><ele>66.0</ele><time>2026-04-06T11:16:43Z</time></trkpt><trkpt lat="45.541230360348926" lon="10.725986328052858"><ele>66.0</ele><time>2026-04-06T11:16:44Z</time></trkpt><trkpt lat="45.54115975093609" lon="10.725985408529793"><ele>66.0</ele><time>2026-04-06T11:16:45Z</time></trkpt><trkpt lat="45.54109386682707" lon="10.726029198738116"><ele>66.0</ele><time>2026-04-06T11:16:46Z</time></trkpt><trkpt lat="45.54102568033277" lon="10.726048145762237"><ele>66.0</ele><time>2026-04-06T11:16:47Z</time></trkpt><trkpt lat="45.54091350165769" lon="10.72607839326119"><ele>66.2</ele><time>2026-04-06T11:16:49Z</time></trkpt><trkpt lat="45.54079605599063" lon="10.726101862441247"><ele>66.39999999999999</ele><time>2026-04-06T11:16:51Z</time></trkpt><trkpt lat="45.54072218988423" lon="10.72614037071714"><ele>66.6</ele><time>2026-04-06T11:16:52Z</time></trkpt><trkpt lat="45.540635478885655" lon="10.726186356162781"><ele>66.8</ele><time>2026-04-06T11:16:53Z</time></trkpt><trkpt lat="45.540541280882096" lon="10.72623113230161"><ele>67.0</ele><time>2026-04-06T11:16:54Z</time></trkpt><trkpt lat="45.54044346380649" lon="10.72626780409325"><ele>67.0</ele><time>2026-04-06T11:16:55Z</time></trkpt><trkpt lat="45.540341971747694" lon="10.726308455005928"><ele>67.0</ele><time>2026-04-06T11:16:56Z</time></trkpt><trkpt lat="45.54024779579514" lon="10.72634654826357"><ele>67.0</ele><time>2026-04-06T11:16:57Z</time></trkpt><trkpt lat="45.54016607790518" lon="10.726379035943268"><ele>67.0</ele><time>2026-04-06T11:16:58Z</time></trkpt><trkpt lat="45.540095254944596" lon="10.726410478789775"><ele>67.0</ele><time>2026-04-06T11:16:59Z</time></trkpt><trkpt lat="45.54003323380987" lon="10.726436424242184"><ele>67.0</ele><time>2026-04-06T11:17:00Z</time></trkpt><trkpt lat="45.53993823975201" lon="10.726475944733492"><ele>67.0</ele><time>2026-04-06T11:17:02Z</time></trkpt><trkpt lat="45.53982485754574" lon="10.726515871434401"><ele>67.0</ele><time>2026-04-06T11:17:04Z</time></trkpt><trkpt lat="45.539719784589444" lon="10.726559523298398"><ele>67.0</ele><time>2026-04-06T11:17:06Z</time></trkpt><trkpt lat="45.539624798386015" lon="10.726589642532065"><ele>67.0</ele><time>2026-04-06T11:17:08Z</time></trkpt><trkpt lat="45.53951507635999" lon="10.726607750423145"><ele>67.0</ele><time>2026-04-06T11:17:10Z</time></trkpt><trkpt lat="45.539439666309384" lon="10.726630603136524"><ele>67.0</ele><time>2026-04-06T11:17:11Z</time></trkpt><trkpt lat="45.539332954820466" lon="10.726695796467363"><ele>67.0</ele><time>2026-04-06T11:17:12Z</time></trkpt><trkpt lat="45.539206836091104" lon="10.726739529388677"><ele>67.0</ele><time>2026-04-06T11:17:13Z</time></trkpt><trkpt lat="45.53908679400845" lon="10.72678886562146"><ele>67.0</ele><time>2026-04-06T11:17:14Z</time></trkpt><trkpt lat="45.53897310925141" lon="10.726835589057686"><ele>67.0</ele><time>2026-04-06T11:17:15Z</time></trkpt><trkpt lat="45.538873472388936" lon="10.726876538944412"><ele>67.0</ele><time>2026-04-06T11:17:16Z</time></trkpt><trkpt lat="45.53879463240174" lon="10.72690894147713"><ele>67.0</ele><time>2026-04-06T11:17:17Z</time></trkpt><trkpt lat="45.538731778145745" lon="10.72693477401027"><ele>67.0</ele><time>2026-04-06T11:17:19Z</time></trkpt><trkpt lat="45.53866804476201" lon="10.726960967883576"><ele>67.0</ele><time>2026-04-06T11:17:26Z</time></trkpt><trkpt lat="45.538519463103285" lon="10.727022706135108"><ele>67.25</ele><time>2026-04-06T11:17:28Z</time></trkpt><trkpt lat="45.53841109667235" lon="10.72706784914872"><ele>67.5</ele><time>2026-04-06T11:17:29Z</time></trkpt><trkpt lat="45.53829589350083" lon="10.727115037975393"><ele>67.75</ele><time>2026-04-06T11:17:30Z</time></trkpt><trkpt lat="45.53817576874461" lon="10.727163575772682"><ele>68.0</ele><time>2026-04-06T11:17:31Z</time></trkpt><trkpt lat="45.53805370181984" lon="10.727235115642694"><ele>68.0</ele><time>2026-04-06T11:17:32Z</time></trkpt><trkpt lat="45.53791960243178" lon="10.727277977555753"><ele>68.0</ele><time>2026-04-06T11:17:33Z</time></trkpt><trkpt lat="45.53778681345693" lon="10.727286397767944"><ele>68.0</ele><time>2026-04-06T11:17:34Z</time></trkpt><trkpt lat="45.537662856813974" lon="10.727303406800402"><ele>68.0</ele><time>2026-04-06T11:17:35Z</time></trkpt><trkpt lat="45.53754462051837" lon="10.72731798706522"><ele>68.0</ele><time>2026-04-06T11:17:36Z</time></trkpt><trkpt lat="45.537441206148884" lon="10.7273294302553"><ele>68.0</ele><time>2026-04-06T11:17:37Z</time></trkpt><trkpt lat="45.53735328967536" lon="10.727337245918598"><ele>68.0</ele><time>2026-04-06T11:17:38Z</time></trkpt><trkpt lat="45.53725559813106" lon="10.727347578746084"><ele>68.0</ele><time>2026-04-06T11:17:39Z</time></trkpt><trkpt lat="45.53714503086736" lon="10.727403023699397"><ele>68.0</ele><time>2026-04-06T11:17:40Z</time></trkpt><trkpt lat="45.53701685077168" lon="10.727413740068595"><ele>68.0</ele><time>2026-04-06T11:17:41Z</time></trkpt><trkpt lat="45.53687846941322" lon="10.72742582753886"><ele>68.0</ele><time>2026-04-06T11:17:42Z</time></trkpt><trkpt lat="45.53674500655892" lon="10.727433905577834"><ele>68.0</ele><time>2026-04-06T11:17:43Z</time></trkpt><trkpt lat="45.536621404450024" lon="10.72744100047275"><ele>68.0</ele><time>2026-04-06T11:17:44Z</time></trkpt><trkpt lat="45.53650866346259" lon="10.727442886980675"><ele>68.0</ele><time>2026-04-06T11:17:45Z</time></trkpt><trkpt lat="45.53638446792612" lon="10.727451842369781"><ele>68.0</ele><time>2026-04-06T11:17:46Z</time></trkpt><trkpt lat="45.53627087128076" lon="10.727461154772135"><ele>68.0</ele><time>2026-04-06T11:17:47Z</time></trkpt><trkpt lat="45.536164823648555" lon="10.727470196722651"><ele>68.0</ele><time>2026-04-06T11:17:48Z</time></trkpt><trkpt lat="45.53606864851173" lon="10.727482663166699"><ele>68.0</ele><time>2026-04-06T11:17:49Z</time></trkpt><trkpt lat="45.53597838638976" lon="10.727495208381775"><ele>67.8</ele><time>2026-04-06T11:17:50Z</time></trkpt><trkpt lat="45.535898304671285" lon="10.727504819701005"><ele>67.6</ele><time>2026-04-06T11:17:51Z</time></trkpt><trkpt lat="45.5358204140634" lon="10.727510037130175"><ele>67.4</ele><time>2026-04-06T11:17:52Z</time></trkpt><trkpt lat="45.535728013137586" lon="10.727511014392952"><ele>67.2</ele><time>2026-04-06T11:17:53Z</time></trkpt><trkpt lat="45.535626883541326" lon="10.727510074258975"><ele>67.0</ele><time>2026-04-06T11:17:54Z</time></trkpt><trkpt lat="45.53551445248172" lon="10.727508903404518"><ele>67.0</ele><time>2026-04-06T11:17:55Z</time></trkpt><trkpt lat="45.535403962494094" lon="10.7275015918408"><ele>67.0</ele><time>2026-04-06T11:17:56Z</time></trkpt><trkpt lat="45.53529313981485" lon="10.727496613369075"><ele>67.0</ele><time>2026-04-06T11:17:57Z</time></trkpt><trkpt lat="45.53518530143026" lon="10.727492930031843"><ele>67.0</ele><time>2026-04-06T11:17:58Z</time></trkpt><trkpt lat="45.53508389291838" lon="10.727487925503134"><ele>67.0</ele><time>2026-04-06T11:17:59Z</time></trkpt><trkpt lat="45.5349895346858" lon="10.727483629217689"><ele>67.0</ele><time>2026-04-06T11:18:00Z</time></trkpt><trkpt lat="45.5349021762313" lon="10.727478834633398"><ele>67.0</ele><time>2026-04-06T11:18:01Z</time></trkpt><trkpt lat="45.5348215467104" lon="10.727471662941836"><ele>67.0</ele><time>2026-04-06T11:18:02Z</time></trkpt><trkpt lat="45.534738931574296" lon="10.727459931429994"><ele>67.0</ele><time>2026-04-06T11:18:03Z</time></trkpt><trkpt lat="45.534648653062746" lon="10.727445162912376"><ele>67.0</ele><time>2026-04-06T11:18:04Z</time></trkpt><trkpt lat="45.53455200682954" lon="10.727424535036851"><ele>67.0</ele><time>2026-04-06T11:18:05Z</time></trkpt><trkpt lat="45.534456939610266" lon="10.727403311430775"><ele>67.0</ele><time>2026-04-06T11:18:06Z</time></trkpt><trkpt lat="45.534359860530664" lon="10.727377765387297"><ele>67.0</ele><time>2026-04-06T11:18:07Z</time></trkpt><trkpt lat="45.53425952501487" lon="10.727348448918576"><ele>67.0</ele><time>2026-04-06T11:18:08Z</time></trkpt><trkpt lat="45.53415143756328" lon="10.72731471785189"><ele>67.0</ele><time>2026-04-06T11:18:09Z</time></trkpt><trkpt lat="45.53402651949793" lon="10.72727462326429"><ele>67.0</ele><time>2026-04-06T11:18:10Z</time></trkpt><trkpt lat="45.53389320102329" lon="10.727209924179066"><ele>67.0</ele><time>2026-04-06T11:18:11Z</time></trkpt><trkpt lat="45.533750351374294" lon="10.72715997690492"><ele>67.0</ele><time>2026-04-06T11:18:12Z</time></trkpt><trkpt lat="45.53360294354561" lon="10.727108474898841"><ele>67.0</ele><time>2026-04-06T11:18:13Z</time></trkpt><trkpt lat="45.5334562521157" lon="10.72705819585927"><ele>66.5</ele><time>2026-04-06T11:18:14Z</time></trkpt><trkpt lat="45.533311733409896" lon="10.727009362238972"><ele>66.0</ele><time>2026-04-06T11:18:15Z</time></trkpt><trkpt lat="45.53316930900325" lon="10.726960275639286"><ele>65.5</ele><time>2026-04-06T11:18:16Z</time></trkpt><trkpt lat="45.53302096468721" lon="10.726909686473206"><ele>65.0</ele><time>2026-04-06T11:18:17Z</time></trkpt><trkpt lat="45.53286527038848" lon="10.726856852752645"><ele>65.0</ele><time>2026-04-06T11:18:18Z</time></trkpt><trkpt lat="45.53269853661297" lon="10.726801238146088"><ele>65.0</ele><time>2026-04-06T11:18:19Z</time></trkpt><trkpt lat="45.532535627468526" lon="10.726747927245034"><ele>65.0</ele><time>2026-04-06T11:18:20Z</time></trkpt><trkpt lat="45.532371704869654" lon="10.726725032072409"><ele>65.0</ele><time>2026-04-06T11:18:21Z</time></trkpt><trkpt lat="45.53221340692551" lon="10.726678201065514"><ele>65.0</ele><time>2026-04-06T11:18:22Z</time></trkpt><trkpt lat="45.532055195291456" lon="10.726640793409436"><ele>65.0</ele><time>2026-04-06T11:18:23Z</time></trkpt><trkpt lat="45.531901108263824" lon="10.726585067496764"><ele>66.0</ele><time>2026-04-06T11:18:24Z</time></trkpt><trkpt lat="45.53174533936853" lon="10.726548662428177"><ele>67.0</ele><time>2026-04-06T11:18:25Z</time></trkpt><trkpt lat="45.531587380563074" lon="10.726536882753038"><ele>68.0</ele><time>2026-04-06T11:18:26Z</time></trkpt><trkpt lat="45.53143469777527" lon="10.726502056563701"><ele>68.0</ele><time>2026-04-06T11:18:27Z</time></trkpt><trkpt lat="45.531286016111125" lon="10.726472289318439"><ele>68.0</ele><time>2026-04-06T11:18:28Z</time></trkpt><trkpt lat="45.5311414663536" lon="10.726455553984525"><ele>68.0</ele><time>2026-04-06T11:18:29Z</time></trkpt><trkpt lat="45.53099836424442" lon="10.7264438501909"><ele>68.0</ele><time>2026-04-06T11:18:30Z</time></trkpt><trkpt lat="45.53085998091861" lon="10.72641077923447"><ele>68.25</ele><time>2026-04-06T11:18:31Z</time></trkpt><trkpt lat="45.53071923824185" lon="10.726399908109855"><ele>68.5</ele><time>2026-04-06T11:18:32Z</time></trkpt><trkpt lat="45.53058056234521" lon="10.72639611676698"><ele>68.75</ele><time>2026-04-06T11:18:33Z</time></trkpt><trkpt lat="45.53044040005662" lon="10.726404589919005"><ele>69.0</ele><time>2026-04-06T11:18:34Z</time></trkpt><trkpt lat="45.530307347257406" lon="10.726424391624002"><ele>69.0</ele><time>2026-04-06T11:18:35Z</time></trkpt><trkpt lat="45.53018244123762" lon="10.726480429309268"><ele>69.0</ele><time>2026-04-06T11:18:36Z</time></trkpt><trkpt lat="45.530058251673815" lon="10.726517020666293"><ele>69.0</ele><time>2026-04-06T11:18:37Z</time></trkpt><trkpt lat="45.529942482039544" lon="10.726558119239906"><ele>69.0</ele><time>2026-04-06T11:18:38Z</time></trkpt><trkpt lat="45.52983306920818" lon="10.72660796099766"><ele>69.0</ele><time>2026-04-06T11:18:39Z</time></trkpt><trkpt lat="45.529726941874664" lon="10.72665735141692"><ele>69.0</ele><time>2026-04-06T11:18:40Z</time></trkpt><trkpt lat="45.52962102877097" lon="10.726718070656702"><ele>69.0</ele><time>2026-04-06T11:18:41Z</time></trkpt><trkpt lat="45.52951819298214" lon="10.726779997286133"><ele>69.0</ele><time>2026-04-06T11:18:42Z</time></trkpt><trkpt lat="45.529414573067626" lon="10.726838768276801"><ele>69.0</ele><time>2026-04-06T11:18:43Z</time></trkpt><trkpt lat="45.52931643864447" lon="10.726898631042634"><ele>69.60000000000001</ele><time>2026-04-06T11:18:44Z</time></trkpt><trkpt lat="45.529235494180604" lon="10.726944507979434"><ele>70.2</ele><time>2026-04-06T11:18:45Z</time></trkpt><trkpt lat="45.529154137260576" lon="10.726966746429655"><ele>70.80000000000001</ele><time>2026-04-06T11:18:47Z</time></trkpt><trkpt lat="45.52906813361163" lon="10.727016260046266"><ele>71.4</ele><time>2026-04-06T11:18:49Z</time></trkpt><trkpt lat="45.528948837988594" lon="10.727108379752044"><ele>72.0</ele><time>2026-04-06T11:18:51Z</time></trkpt><trkpt lat="45.528874760027506" lon="10.7271485352478"><ele>72.0</ele><time>2026-04-06T11:18:52Z</time></trkpt><trkpt lat="45.52879668369419" lon="10.727188673806454"><ele>72.0</ele><time>2026-04-06T11:18:53Z</time></trkpt><trkpt lat="45.528713776390255" lon="10.727211039482947"><ele>72.0</ele><time>2026-04-06T11:18:54Z</time></trkpt><trkpt lat="45.52861581051947" lon="10.727245802399379"><ele>72.0</ele><time>2026-04-06T11:18:55Z</time></trkpt><trkpt lat="45.52850807966264" lon="10.727293757951813"><ele>72.0</ele><time>2026-04-06T11:18:56Z</time></trkpt><trkpt lat="45.52839307030969" lon="10.727316168962167"><ele>71.75</ele><time>2026-04-06T11:18:57Z</time></trkpt><trkpt lat="45.5282716009784" lon="10.727350480563484"><ele>71.5</ele><time>2026-04-06T11:18:58Z</time></trkpt><trkpt lat="45.52815251511324" lon="10.727381446381386"><ele>71.25</ele><time>2026-04-06T11:18:59Z</time></trkpt><trkpt lat="45.52802949390411" lon="10.727421937449602"><ele>71.0</ele><time>2026-04-06T11:19:00Z</time></trkpt><trkpt lat="45.527886639268424" lon="10.727464316952604"><ele>70.66666666666667</ele><time>2026-04-06T11:19:01Z</time></trkpt><trkpt lat="45.52773825960649" lon="10.727510501401339"><ele>70.33333333333333</ele><time>2026-04-06T11:19:02Z</time></trkpt><trkpt lat="45.52758720552792" lon="10.727562337120236"><ele>70.0</ele><time>2026-04-06T11:19:03Z</time></trkpt><trkpt lat="45.52743086520121" lon="10.727614169931075"><ele>70.0</ele><time>2026-04-06T11:19:04Z</time></trkpt><trkpt lat="45.52728210047902" lon="10.727664076531683"><ele>70.0</ele><time>2026-04-06T11:19:05Z</time></trkpt><trkpt lat="45.52714317289796" lon="10.727722343581503"><ele>70.0</ele><time>2026-04-06T11:19:06Z</time></trkpt><trkpt lat="45.52701108547198" lon="10.727789187157686"><ele>70.0</ele><time>2026-04-06T11:19:07Z</time></trkpt><trkpt lat="45.52688235367386" lon="10.727862034795724"><ele>70.83333333333333</ele><time>2026-04-06T11:19:08Z</time></trkpt><trkpt lat="45.526776223723076" lon="10.727921575912614"><ele>71.66666666666666</ele><time>2026-04-06T11:19:09Z</time></trkpt><trkpt lat="45.526700081825304" lon="10.727970374265315"><ele>72.5</ele><time>2026-04-06T11:19:10Z</time></trkpt><trkpt lat="45.526632437792095" lon="10.727996562717582"><ele>73.33333333333333</ele><time>2026-04-06T11:19:11Z</time></trkpt><trkpt lat="45.52656620032663" lon="10.728035897575355"><ele>74.16666666666667</ele><time>2026-04-06T11:19:12Z</time></trkpt><trkpt lat="45.52648010581024" lon="10.72809058346121"><ele>75.0</ele><time>2026-04-06T11:19:13Z</time></trkpt><trkpt lat="45.52637875487083" lon="10.728154479613503"><ele>75.0</ele><time>2026-04-06T11:19:14Z</time></trkpt><trkpt lat="45.526267472648385" lon="10.72822490858256"><ele>75.0</ele><time>2026-04-06T11:19:15Z</time></trkpt><trkpt lat="45.526146214223445" lon="10.728304421869352"><ele>75.0</ele><time>2026-04-06T11:19:16Z</time></trkpt><trkpt lat="45.52603386549157" lon="10.728378497957902"><ele>75.0</ele><time>2026-04-06T11:19:17Z</time></trkpt><trkpt lat="45.52592291012128" lon="10.728449749557088"><ele>75.25</ele><time>2026-04-06T11:19:18Z</time></trkpt><trkpt lat="45.52581438850323" lon="10.728518389694322"><ele>75.5</ele><time>2026-04-06T11:19:19Z</time></trkpt><trkpt lat="45.52570374263249" lon="10.728586424564051"><ele>75.75</ele><time>2026-04-06T11:19:20Z</time></trkpt><trkpt lat="45.525592040789775" lon="10.728648665996104"><ele>76.0</ele><time>2026-04-06T11:19:21Z</time></trkpt><trkpt lat="45.525486419850345" lon="10.72872601375148"><ele>76.66666666666666</ele><time>2026-04-06T11:19:22Z</time></trkpt><trkpt lat="45.52538416593498" lon="10.728769512852187"><ele>77.33333333333333</ele><time>2026-04-06T11:19:23Z</time></trkpt><trkpt lat="45.52529875289968" lon="10.728800816131887"><ele>78.0</ele><time>2026-04-06T11:19:24Z</time></trkpt><trkpt lat="45.52522724775588" lon="10.728815362012908"><ele>78.66666666666667</ele><time>2026-04-06T11:19:25Z</time></trkpt><trkpt lat="45.52515922960743" lon="10.728818188472323"><ele>79.33333333333334</ele><time>2026-04-06T11:19:26Z</time></trkpt><trkpt lat="45.52508286760238" lon="10.728832693916598"><ele>80.0</ele><time>2026-04-06T11:19:27Z</time></trkpt><trkpt lat="45.52500556724145" lon="10.72887891252537"><ele>80.0</ele><time>2026-04-06T11:19:28Z</time></trkpt><trkpt lat="45.524906938012165" lon="10.728914405438081"><ele>80.0</ele><time>2026-04-06T11:19:29Z</time></trkpt><trkpt lat="45.524784110666566" lon="10.728949970696409"><ele>80.0</ele><time>2026-04-06T11:19:30Z</time></trkpt><trkpt lat="45.52465477800533" lon="10.728987419598923"><ele>80.0</ele><time>2026-04-06T11:19:31Z</time></trkpt><trkpt lat="45.524522054166255" lon="10.729046871150938"><ele>80.75</ele><time>2026-04-06T11:19:32Z</time></trkpt><trkpt lat="45.52437992040747" lon="10.729088956164267"><ele>81.5</ele><time>2026-04-06T11:19:33Z</time></trkpt><trkpt lat="45.52423554342421" lon="10.729128316765214"><ele>82.25</ele><time>2026-04-06T11:19:34Z</time></trkpt><trkpt lat="45.52408994537766" lon="10.729168331158775"><ele>83.0</ele><time>2026-04-06T11:19:35Z</time></trkpt><trkpt lat="45.52394727216059" lon="10.729208548419523"><ele>83.0</ele><time>2026-04-06T11:19:36Z</time></trkpt><trkpt lat="45.52380468950648" lon="10.729249294010764"><ele>83.0</ele><time>2026-04-06T11:19:37Z</time></trkpt><trkpt lat="45.52366286623931" lon="10.729289692306606"><ele>83.0</ele><time>2026-04-06T11:19:38Z</time></trkpt><trkpt lat="45.52351846672508" lon="10.729329127147606"><ele>83.0</ele><time>2026-04-06T11:19:39Z</time></trkpt><trkpt lat="45.52337329350788" lon="10.729372519877392"><ele>84.75</ele><time>2026-04-06T11:19:40Z</time></trkpt><trkpt lat="45.52323053146847" lon="10.7294144358502"><ele>86.5</ele><time>2026-04-06T11:19:41Z</time></trkpt><trkpt lat="45.5230889959211" lon="10.729458057243647"><ele>88.25</ele><time>2026-04-06T11:19:42Z</time></trkpt><trkpt lat="45.52295148073558" lon="10.729497681032246"><ele>90.0</ele><time>2026-04-06T11:19:43Z</time></trkpt><trkpt lat="45.522815943230235" lon="10.72953643789328"><ele>90.0</ele><time>2026-04-06T11:19:44Z</time></trkpt><trkpt lat="45.52267461687354" lon="10.72954974338825"><ele>90.0</ele><time>2026-04-06T11:19:45Z</time></trkpt><trkpt lat="45.522543975913145" lon="10.729596719225162"><ele>90.0</ele><time>2026-04-06T11:19:46Z</time></trkpt><trkpt lat="45.52240462435317" lon="10.72959364811259"><ele>90.0</ele><time>2026-04-06T11:19:47Z</time></trkpt><trkpt lat="45.52227466566065" lon="10.72960942194622"><ele>90.0</ele><time>2026-04-06T11:19:48Z</time></trkpt><trkpt lat="45.522139808070825" lon="10.729617881667595"><ele>90.0</ele><time>2026-04-06T11:19:49Z</time></trkpt><trkpt lat="45.52199428052761" lon="10.729624801763473"><ele>90.0</ele><time>2026-04-06T11:19:50Z</time></trkpt><trkpt lat="45.521836189743944" lon="10.72963231926259"><ele>90.0</ele><time>2026-04-06T11:19:51Z</time></trkpt><trkpt lat="45.52166131712653" lon="10.729640781206312"><ele>90.33333333333333</ele><time>2026-04-06T11:19:52Z</time></trkpt><trkpt lat="45.5214727859589" lon="10.729650082820182"><ele>90.66666666666666</ele><time>2026-04-06T11:19:53Z</time></trkpt><trkpt lat="45.521281987209505" lon="10.729659576850267"><ele>91.0</ele><time>2026-04-06T11:19:54Z</time></trkpt><trkpt lat="45.52109287820305" lon="10.729669179506516"><ele>90.0</ele><time>2026-04-06T11:19:55Z</time></trkpt><trkpt lat="45.52090415063148" lon="10.729678686970322"><ele>89.0</ele><time>2026-04-06T11:19:56Z</time></trkpt><trkpt lat="45.520713909115564" lon="10.72968839899857"><ele>88.0</ele><time>2026-04-06T11:19:57Z</time></trkpt><trkpt lat="45.52052519630217" lon="10.729723464919125"><ele>86.66666666666666</ele><time>2026-04-06T11:19:58Z</time></trkpt><trkpt lat="45.52033669281399" lon="10.729729558928359"><ele>85.33333333333333</ele><time>2026-04-06T11:19:59Z</time></trkpt><trkpt lat="45.52014871961801" lon="10.729739913246126"><ele>84.0</ele><time>2026-04-06T11:20:00Z</time></trkpt><trkpt lat="45.51996439554786" lon="10.729751070715745"><ele>84.0</ele><time>2026-04-06T11:20:01Z</time></trkpt><trkpt lat="45.519782697598124" lon="10.72976610623565"><ele>84.0</ele><time>2026-04-06T11:20:02Z</time></trkpt><trkpt lat="45.519600757251084" lon="10.729792308235403"><ele>84.0</ele><time>2026-04-06T11:20:03Z</time></trkpt><trkpt lat="45.51941963153399" lon="10.729835274828913"><ele>84.66666666666667</ele><time>2026-04-06T11:20:04Z</time></trkpt><trkpt lat="45.519239207295115" lon="10.729888123753009"><ele>85.33333333333334</ele><time>2026-04-06T11:20:05Z</time></trkpt><trkpt lat="45.519060273515805" lon="10.72995375176553"><ele>86.0</ele><time>2026-04-06T11:20:06Z</time></trkpt><trkpt lat="45.518883905163186" lon="10.73002511402409"><ele>85.0</ele><time>2026-04-06T11:20:07Z</time></trkpt><trkpt lat="45.51870129463738" lon="10.730078619098132"><ele>84.0</ele><time>2026-04-06T11:20:08Z</time></trkpt><trkpt lat="45.518522520649086" lon="10.73014775984453"><ele>83.0</ele><time>2026-04-06T11:20:09Z</time></trkpt><trkpt lat="45.5183410412912" lon="10.730217946869226"><ele>84.33333333333334</ele><time>2026-04-06T11:20:10Z</time></trkpt><trkpt lat="45.51816298648075" lon="10.73030921175711"><ele>85.66666666666667</ele><time>2026-04-06T11:20:11Z</time></trkpt><trkpt lat="45.517980510603756" lon="10.73037755706376"><ele>87.0</ele><time>2026-04-06T11:20:12Z</time></trkpt><trkpt lat="45.517796202547146" lon="10.730448932986002"><ele>87.0</ele><time>2026-04-06T11:20:13Z</time></trkpt><trkpt lat="45.51760974671412" lon="10.730495562097214"><ele>87.0</ele><time>2026-04-06T11:20:14Z</time></trkpt><trkpt lat="45.517429701275276" lon="10.730561155344821"><ele>87.0</ele><time>2026-04-06T11:20:15Z</time></trkpt><trkpt lat="45.51725284960232" lon="10.73064684831873"><ele>87.0</ele><time>2026-04-06T11:20:16Z</time></trkpt><trkpt lat="45.517069797187" lon="10.730709845507535"><ele>87.0</ele><time>2026-04-06T11:20:17Z</time></trkpt><trkpt lat="45.51688273590069" lon="10.730749998076474"><ele>87.0</ele><time>2026-04-06T11:20:18Z</time></trkpt><trkpt lat="45.51670163749852" lon="10.730808867662354"><ele>84.33333333333333</ele><time>2026-04-06T11:20:19Z</time></trkpt><trkpt lat="45.51653310707352" lon="10.730889058953661"><ele>81.66666666666666</ele><time>2026-04-06T11:20:20Z</time></trkpt><trkpt lat="45.51636752916704" lon="10.730941884603064"><ele>79.0</ele><time>2026-04-06T11:20:21Z</time></trkpt><trkpt lat="45.51620183312736" lon="10.730993507793539"><ele>78.33333333333333</ele><time>2026-04-06T11:20:22Z</time></trkpt><trkpt lat="45.51602796206985" lon="10.73105000894756"><ele>77.66666666666667</ele><time>2026-04-06T11:20:23Z</time></trkpt><trkpt lat="45.515842947909334" lon="10.731078791226127"><ele>77.0</ele><time>2026-04-06T11:20:24Z</time></trkpt><trkpt lat="45.51565315230014" lon="10.731137613260207"><ele>77.33333333333334</ele><time>2026-04-06T11:20:25Z</time></trkpt><trkpt lat="45.515451276960526" lon="10.731200179046871"><ele>77.66666666666667</ele><time>2026-04-06T11:20:26Z</time></trkpt><trkpt lat="45.51525523259132" lon="10.731260937699847"><ele>78.0</ele><time>2026-04-06T11:20:27Z</time></trkpt><trkpt lat="45.51506303409851" lon="10.731320504418619"><ele>78.0</ele><time>2026-04-06T11:20:28Z</time></trkpt><trkpt lat="45.514874844513436" lon="10.731402404085095"><ele>78.0</ele><time>2026-04-06T11:20:29Z</time></trkpt><trkpt lat="45.51468478065745" lon="10.731454595808273"><ele>78.0</ele><time>2026-04-06T11:20:30Z</time></trkpt><trkpt lat="45.51449431503027" lon="10.731508442565543"><ele>77.33333333333333</ele><time>2026-04-06T11:20:31Z</time></trkpt><trkpt lat="45.51430811001104" lon="10.731567185591953"><ele>76.66666666666666</ele><time>2026-04-06T11:20:32Z</time></trkpt><trkpt lat="45.51412919960712" lon="10.731625272744628"><ele>76.0</ele><time>2026-04-06T11:20:33Z</time></trkpt><trkpt lat="45.513958152574055" lon="10.73168737408455"><ele>76.0</ele><time>2026-04-06T11:20:34Z</time></trkpt><trkpt lat="45.51379443760776" lon="10.731746689608197"><ele>76.0</ele><time>2026-04-06T11:20:35Z</time></trkpt><trkpt lat="45.51363928986775" lon="10.731811617495925"><ele>76.0</ele><time>2026-04-06T11:20:36Z</time></trkpt><trkpt lat="45.51349412371511" lon="10.731875371723124"><ele>76.25</ele><time>2026-04-06T11:20:37Z</time></trkpt><trkpt lat="45.513352806825374" lon="10.731943795083955"><ele>76.5</ele><time>2026-04-06T11:20:38Z</time></trkpt><trkpt lat="45.513216492007025" lon="10.732006484500124"><ele>76.75</ele><time>2026-04-06T11:20:39Z</time></trkpt><trkpt lat="45.51307237644964" lon="10.732048132681063"><ele>77.0</ele><time>2026-04-06T11:20:40Z</time></trkpt><trkpt lat="45.512931753372875" lon="10.732111700754794"><ele>77.0</ele><time>2026-04-06T11:20:41Z</time></trkpt><trkpt lat="45.51279891437373" lon="10.73217312537999"><ele>77.0</ele><time>2026-04-06T11:20:42Z</time></trkpt><trkpt lat="45.51267815792369" lon="10.73222925596416"><ele>77.0</ele><time>2026-04-06T11:20:43Z</time></trkpt><trkpt lat="45.512567295623406" lon="10.732280787514933"><ele>77.0</ele><time>2026-04-06T11:20:44Z</time></trkpt><trkpt lat="45.512476808162006" lon="10.732322848269822"><ele>77.0</ele><time>2026-04-06T11:20:45Z</time></trkpt><trkpt lat="45.51240319002953" lon="10.73235706774143"><ele>77.0</ele><time>2026-04-06T11:20:46Z</time></trkpt><trkpt lat="45.51234312750889" lon="10.732384986254766"><ele>77.0</ele><time>2026-04-06T11:20:47Z</time></trkpt><trkpt lat="45.51225955219983" lon="10.732423834036519"><ele>77.0</ele><time>2026-04-06T11:20:49Z</time></trkpt><trkpt lat="45.51217926022393" lon="10.732461155733542"><ele>77.0</ele><time>2026-04-06T11:20:53Z</time></trkpt><trkpt lat="45.51209598013359" lon="10.73249986638583"><ele>77.0</ele><time>2026-04-06T11:20:56Z</time></trkpt><trkpt lat="45.51201937130449" lon="10.732535476082784"><ele>76.6</ele><time>2026-04-06T11:21:00Z</time></trkpt><trkpt lat="45.51191916993432" lon="10.732580408423452"><ele>76.2</ele><time>2026-04-06T11:21:02Z</time></trkpt><trkpt lat="45.51183713330468" lon="10.732617405546447"><ele>75.8</ele><time>2026-04-06T11:21:03Z</time></trkpt><trkpt lat="45.51174262156971" lon="10.7326628939098"><ele>75.4</ele><time>2026-04-06T11:21:04Z</time></trkpt><trkpt lat="45.51163863913965" lon="10.732710910029938"><ele>75.0</ele><time>2026-04-06T11:21:05Z</time></trkpt><trkpt lat="45.5115380187642" lon="10.732758400617323"><ele>75.0</ele><time>2026-04-06T11:21:06Z</time></trkpt><trkpt lat="45.51143948832364" lon="10.732804904799659"><ele>75.0</ele><time>2026-04-06T11:21:07Z</time></trkpt><trkpt lat="45.511350820347126" lon="10.732846754125688"><ele>75.0</ele><time>2026-04-06T11:21:08Z</time></trkpt><trkpt lat="45.511263964645" lon="10.73288774808975"><ele>75.0</ele><time>2026-04-06T11:21:09Z</time></trkpt><trkpt lat="45.51118444952914" lon="10.732925277461955"><ele>75.0</ele><time>2026-04-06T11:21:10Z</time></trkpt><trkpt lat="45.51111122321526" lon="10.732959838655805"><ele>74.66666666666667</ele><time>2026-04-06T11:21:11Z</time></trkpt><trkpt lat="45.511051319836696" lon="10.732988111727218"><ele>74.33333333333333</ele><time>2026-04-06T11:21:12Z</time></trkpt><trkpt lat="45.51097588075316" lon="10.733023717500673"><ele>74.0</ele><time>2026-04-06T11:21:15Z</time></trkpt><trkpt lat="45.51090701273178" lon="10.733056493819591"><ele>73.66666666666666</ele><time>2026-04-06T11:21:18Z</time></trkpt><trkpt lat="45.51080340360228" lon="10.733105591208702"><ele>73.33333333333333</ele><time>2026-04-06T11:21:20Z</time></trkpt><trkpt lat="45.5107071814843" lon="10.733151188098969"><ele>73.0</ele><time>2026-04-06T11:21:22Z</time></trkpt><trkpt lat="45.510644660496055" lon="10.733180814995569"><ele>73.0</ele><time>2026-04-06T11:21:43Z</time></trkpt><trkpt lat="45.51054336752855" lon="10.733228814897698"><ele>73.0</ele><time>2026-04-06T11:21:45Z</time></trkpt><trkpt lat="45.51048220961142" lon="10.733257796039322"><ele>73.0</ele><time>2026-04-06T11:21:47Z</time></trkpt><trkpt lat="45.51041846416409" lon="10.733284815726622"><ele>73.0</ele><time>2026-04-06T11:21:51Z</time></trkpt><trkpt lat="45.51033603987384" lon="10.73332216936042"><ele>73.0</ele><time>2026-04-06T11:21:52Z</time></trkpt><trkpt lat="45.510256639410194" lon="10.733358476045703"><ele>73.0</ele><time>2026-04-06T11:21:53Z</time></trkpt><trkpt lat="45.51018505307048" lon="10.733391088940145"><ele>72.83333333333333</ele><time>2026-04-06T11:21:54Z</time></trkpt><trkpt lat="45.51012114805729" lon="10.733420202441406"><ele>72.66666666666666</ele><time>2026-04-06T11:21:55Z</time></trkpt><trkpt lat="45.510021316074315" lon="10.733465683387402"><ele>72.5</ele><time>2026-04-06T11:21:57Z</time></trkpt><trkpt lat="45.50996063144652" lon="10.733493329909217"><ele>72.33333333333333</ele><time>2026-04-06T11:21:59Z</time></trkpt><trkpt lat="45.509891960480495" lon="10.733524827215078"><ele>72.16666666666667</ele><time>2026-04-06T11:22:02Z</time></trkpt><trkpt lat="45.509795423839556" lon="10.733568946802178"><ele>72.0</ele><time>2026-04-06T11:22:04Z</time></trkpt><trkpt lat="45.50971447153828" lon="10.733605943972119"><ele>72.4</ele><time>2026-04-06T11:22:05Z</time></trkpt><trkpt lat="45.5096386468297" lon="10.73369362654828"><ele>72.80000000000001</ele><time>2026-04-06T11:22:06Z</time></trkpt><trkpt lat="45.50955321936565" lon="10.733734264917608"><ele>73.2</ele><time>2026-04-06T11:22:07Z</time></trkpt><trkpt lat="45.509479065976905" lon="10.733765013451057"><ele>73.60000000000001</ele><time>2026-04-06T11:22:08Z</time></trkpt><trkpt lat="45.50935944751213" lon="10.733769806107054"><ele>74.0</ele><time>2026-04-06T11:22:10Z</time></trkpt><trkpt lat="45.50928253046" lon="10.733805185841442"><ele>74.0</ele><time>2026-04-06T11:22:11Z</time></trkpt><trkpt lat="45.50920238092161" lon="10.733841138110048"><ele>74.0</ele><time>2026-04-06T11:22:12Z</time></trkpt><trkpt lat="45.50911833982707" lon="10.733880480577739"><ele>74.0</ele><time>2026-04-06T11:22:13Z</time></trkpt><trkpt lat="45.509034218660844" lon="10.733919761240145"><ele>74.0</ele><time>2026-04-06T11:22:14Z</time></trkpt><trkpt lat="45.5089707669593" lon="10.734008099438089"><ele>74.0</ele><time>2026-04-06T11:22:15Z</time></trkpt><trkpt lat="45.508899242075834" lon="10.734036774569713"><ele>74.0</ele><time>2026-04-06T11:22:16Z</time></trkpt><trkpt lat="45.50882246333853" lon="10.734074013342209"><ele>74.0</ele><time>2026-04-06T11:22:17Z</time></trkpt><trkpt lat="45.50874838933219" lon="10.734102413466097"><ele>74.0</ele><time>2026-04-06T11:22:18Z</time></trkpt><trkpt lat="45.50868527964803" lon="10.7341304669765"><ele>74.0</ele><time>2026-04-06T11:22:19Z</time></trkpt><trkpt lat="45.50862323482412" lon="10.734161715250869"><ele>74.0</ele><time>2026-04-06T11:22:20Z</time></trkpt><trkpt lat="45.50853074293616" lon="10.734204746128981"><ele>74.0</ele><time>2026-04-06T11:22:22Z</time></trkpt><trkpt lat="45.50841466982303" lon="10.7342100053054"><ele>74.0</ele><time>2026-04-06T11:22:24Z</time></trkpt><trkpt lat="45.508331572496445" lon="10.734248840307554"><ele>73.8</ele><time>2026-04-06T11:22:25Z</time></trkpt><trkpt lat="45.50823898149941" lon="10.734292112122954"><ele>73.60000000000001</ele><time>2026-04-06T11:22:26Z</time></trkpt><trkpt lat="45.50814212629022" lon="10.734337376786204"><ele>73.4</ele><time>2026-04-06T11:22:27Z</time></trkpt><trkpt lat="45.50804301561095" lon="10.734383184438807"><ele>73.2</ele><time>2026-04-06T11:22:28Z</time></trkpt><trkpt lat="45.50795064978819" lon="10.734425540075474"><ele>73.0</ele><time>2026-04-06T11:22:29Z</time></trkpt><trkpt lat="45.507880810332665" lon="10.73445756576811"><ele>73.0</ele><time>2026-04-06T11:22:30Z</time></trkpt><trkpt lat="45.50776124025306" lon="10.734513951559624"><ele>73.0</ele><time>2026-04-06T11:22:32Z</time></trkpt><trkpt lat="45.5076990720356" lon="10.734544374296862"><ele>73.0</ele><time>2026-04-06T11:22:34Z</time></trkpt><trkpt lat="45.50763409396293" lon="10.734577775322242"><ele>73.0</ele><time>2026-04-06T11:22:37Z</time></trkpt><trkpt lat="45.50752214280106" lon="10.734636485869276"><ele>73.0</ele><time>2026-04-06T11:22:39Z</time></trkpt><trkpt lat="45.507426347623806" lon="10.734686724006352"><ele>73.0</ele><time>2026-04-06T11:22:41Z</time></trkpt><trkpt lat="45.507301126066366" lon="10.734775472215036"><ele>73.0</ele><time>2026-04-06T11:22:43Z</time></trkpt><trkpt lat="45.50720888978179" lon="10.734815799183734"><ele>73.0</ele><time>2026-04-06T11:22:44Z</time></trkpt><trkpt lat="45.50711651083824" lon="10.734858365950787"><ele>73.0</ele><time>2026-04-06T11:22:45Z</time></trkpt><trkpt lat="45.50703061997109" lon="10.734890158074265"><ele>73.0</ele><time>2026-04-06T11:22:46Z</time></trkpt><trkpt lat="45.50692819902894" lon="10.734923137096875"><ele>73.0</ele><time>2026-04-06T11:22:48Z</time></trkpt><trkpt lat="45.50686078686539" lon="10.734918015082759"><ele>73.0</ele><time>2026-04-06T11:22:50Z</time></trkpt><trkpt lat="45.50677766201759" lon="10.734937197437814"><ele>73.0</ele><time>2026-04-06T11:22:56Z</time></trkpt><trkpt lat="45.50665711383512" lon="10.734961345414863"><ele>73.0</ele><time>2026-04-06T11:22:58Z</time></trkpt><trkpt lat="45.506585529576085" lon="10.734973584776148"><ele>73.0</ele><time>2026-04-06T11:22:59Z</time></trkpt><trkpt lat="45.50651414489544" lon="10.734983449326801"><ele>73.0</ele><time>2026-04-06T11:23:00Z</time></trkpt><trkpt lat="45.506451196375195" lon="10.734989873773662"><ele>73.0</ele><time>2026-04-06T11:23:01Z</time></trkpt><trkpt lat="45.50635768543581" lon="10.734999162037614"><ele>73.0</ele><time>2026-04-06T11:23:03Z</time></trkpt><trkpt lat="45.506267369137504" lon="10.735011275367931"><ele>73.0</ele><time>2026-04-06T11:23:12Z</time></trkpt><trkpt lat="45.506183579650596" lon="10.735025049304884"><ele>73.0</ele><time>2026-04-06T11:23:16Z</time></trkpt><trkpt lat="45.506096336294384" lon="10.735072044585015"><ele>73.0</ele><time>2026-04-06T11:23:18Z</time></trkpt><trkpt lat="45.50604541866598" lon="10.73512661731211"><ele>73.0</ele><time>2026-04-06T11:23:20Z</time></trkpt><trkpt lat="45.50597129444246" lon="10.735116394757275"><ele>72.8</ele><time>2026-04-06T11:23:33Z</time></trkpt><trkpt lat="45.5058782610348" lon="10.73515106760076"><ele>72.6</ele><time>2026-04-06T11:23:36Z</time></trkpt><trkpt lat="45.50582213148594" lon="10.735231713210482"><ele>72.4</ele><time>2026-04-06T11:23:42Z</time></trkpt><trkpt lat="45.50572488339418" lon="10.73515482668548"><ele>72.2</ele><time>2026-04-06T11:23:43Z</time></trkpt><trkpt lat="45.5056408481941" lon="10.735140297415324"><ele>72.0</ele><time>2026-04-06T11:23:49Z</time></trkpt><trkpt lat="45.50553192565304" lon="10.735164598617345"><ele>72.0</ele><time>2026-04-06T11:23:51Z</time></trkpt><trkpt lat="45.505467337966444" lon="10.735178796844046"><ele>72.0</ele><time>2026-04-06T11:23:52Z</time></trkpt><trkpt lat="45.505385631346066" lon="10.7351961832067"><ele>72.0</ele><time>2026-04-06T11:23:53Z</time></trkpt><trkpt lat="45.5052971179518" lon="10.735215018017024"><ele>72.0</ele><time>2026-04-06T11:23:54Z</time></trkpt><trkpt lat="45.505204712651576" lon="10.73525671398725"><ele>72.0</ele><time>2026-04-06T11:23:55Z</time></trkpt><trkpt lat="45.50510454222832" lon="10.735255384132799"><ele>72.0</ele><time>2026-04-06T11:23:56Z</time></trkpt><trkpt lat="45.50500517137567" lon="10.735276256307479"><ele>72.2</ele><time>2026-04-06T11:23:57Z</time></trkpt><trkpt lat="45.504905891892506" lon="10.735297578584621"><ele>72.4</ele><time>2026-04-06T11:23:58Z</time></trkpt><trkpt lat="45.504807929023634" lon="10.735321045779978"><ele>72.6</ele><time>2026-04-06T11:23:59Z</time></trkpt><trkpt lat="45.50471045177015" lon="10.735344431379783"><ele>72.8</ele><time>2026-04-06T11:24:00Z</time></trkpt><trkpt lat="45.504616702228056" lon="10.735365709677877"><ele>73.0</ele><time>2026-04-06T11:24:01Z</time></trkpt><trkpt lat="45.50452664771312" lon="10.7353854168811"><ele>73.0</ele><time>2026-04-06T11:24:02Z</time></trkpt><trkpt lat="45.50444221477324" lon="10.735405106654355"><ele>73.0</ele><time>2026-04-06T11:24:03Z</time></trkpt><trkpt lat="45.50436401878023" lon="10.735425337177208"><ele>73.0</ele><time>2026-04-06T11:24:04Z</time></trkpt><trkpt lat="45.5043041726394" lon="10.735459848292749"><ele>73.0</ele><time>2026-04-06T11:24:05Z</time></trkpt><trkpt lat="45.504217644090986" lon="10.735472273625303"><ele>73.0</ele><time>2026-04-06T11:24:07Z</time></trkpt><trkpt lat="45.50413893417793" lon="10.735498044250548"><ele>73.0</ele><time>2026-04-06T11:24:09Z</time></trkpt><trkpt lat="45.50406390819739" lon="10.735492540561108"><ele>73.0</ele><time>2026-04-06T11:24:12Z</time></trkpt><trkpt lat="45.503986385202786" lon="10.735498461261576"><ele>73.0</ele><time>2026-04-06T11:24:14Z</time></trkpt><trkpt lat="45.50387791925646" lon="10.735559231241133"><ele>73.0</ele><time>2026-04-06T11:24:16Z</time></trkpt><trkpt lat="45.50380345954487" lon="10.735553642005703"><ele>73.0</ele><time>2026-04-06T11:24:17Z</time></trkpt><trkpt lat="45.50372152869173" lon="10.73558948915501"><ele>73.0</ele><time>2026-04-06T11:24:18Z</time></trkpt><trkpt lat="45.50363393830866" lon="10.735605609689276"><ele>73.0</ele><time>2026-04-06T11:24:19Z</time></trkpt><trkpt lat="45.50354819961884" lon="10.73563073959972"><ele>73.16666666666666</ele><time>2026-04-06T11:24:20Z</time></trkpt><trkpt lat="45.503466665767604" lon="10.73565444356861"><ele>73.33333333333333</ele><time>2026-04-06T11:24:21Z</time></trkpt><trkpt lat="45.50338681180624" lon="10.735652730461156"><ele>73.5</ele><time>2026-04-06T11:24:22Z</time></trkpt><trkpt lat="45.5033110373075" lon="10.735673188040105"><ele>73.66666666666667</ele><time>2026-04-06T11:24:23Z</time></trkpt><trkpt lat="45.50323870613776" lon="10.735693884358032"><ele>73.83333333333334</ele><time>2026-04-06T11:24:24Z</time></trkpt><trkpt lat="45.50316353108313" lon="10.735715458771184"><ele>74.0</ele><time>2026-04-06T11:24:25Z</time></trkpt><trkpt lat="45.50308793774073" lon="10.73573829547389"><ele>74.0</ele><time>2026-04-06T11:24:26Z</time></trkpt><trkpt lat="45.502999380140565" lon="10.735766571950466"><ele>74.0</ele><time>2026-04-06T11:24:27Z</time></trkpt><trkpt lat="45.50289475479475" lon="10.73580628056851"><ele>74.0</ele><time>2026-04-06T11:24:28Z</time></trkpt><trkpt lat="45.50279429679356" lon="10.735849120731805"><ele>74.0</ele><time>2026-04-06T11:24:29Z</time></trkpt><trkpt lat="45.502711164525415" lon="10.735923934994599"><ele>74.0</ele><time>2026-04-06T11:24:30Z</time></trkpt><trkpt lat="45.5026294112244" lon="10.735964706381617"><ele>74.16666666666667</ele><time>2026-04-06T11:24:31Z</time></trkpt><trkpt lat="45.50255187443629" lon="10.736010013920346"><ele>74.33333333333334</ele><time>2026-04-06T11:24:32Z</time></trkpt><trkpt lat="45.50247349407182" lon="10.736055859245937"><ele>74.5</ele><time>2026-04-06T11:24:33Z</time></trkpt><trkpt lat="45.50239111190312" lon="10.736101695923228"><ele>74.66666666666667</ele><time>2026-04-06T11:24:34Z</time></trkpt><trkpt lat="45.50231430909921" lon="10.736146725153278"><ele>74.83333333333333</ele><time>2026-04-06T11:24:35Z</time></trkpt><trkpt lat="45.50223826533777" lon="10.736157222093127"><ele>75.0</ele><time>2026-04-06T11:24:36Z</time></trkpt><trkpt lat="45.502174784509975" lon="10.736193552571217"><ele>75.57142857142857</ele><time>2026-04-06T11:24:37Z</time></trkpt><trkpt lat="45.50210888947443" lon="10.736231514808717"><ele>76.14285714285714</ele><time>2026-04-06T11:24:38Z</time></trkpt><trkpt lat="45.502039514046125" lon="10.736271482101516"><ele>76.71428571428572</ele><time>2026-04-06T11:24:39Z</time></trkpt><trkpt lat="45.501971378728335" lon="10.736310734958359"><ele>77.28571428571428</ele><time>2026-04-06T11:24:40Z</time></trkpt><trkpt lat="45.50190511106775" lon="10.736348911844894"><ele>77.85714285714286</ele><time>2026-04-06T11:24:41Z</time></trkpt><trkpt lat="45.501837955830304" lon="10.736387600091687"><ele>78.42857142857143</ele><time>2026-04-06T11:24:42Z</time></trkpt><trkpt lat="45.50177083068599" lon="10.736426104628263"><ele>79.0</ele><time>2026-04-06T11:24:43Z</time></trkpt><trkpt lat="45.50170439007822" lon="10.736465172217285"><ele>79.6</ele><time>2026-04-06T11:24:44Z</time></trkpt><trkpt lat="45.501642255368495" lon="10.736501707921756"><ele>80.2</ele><time>2026-04-06T11:24:45Z</time></trkpt><trkpt lat="45.501525900044456" lon="10.736570125756312"><ele>80.8</ele><time>2026-04-06T11:24:47Z</time></trkpt><trkpt lat="45.50141918983383" lon="10.736632566552453"><ele>81.39999999999999</ele><time>2026-04-06T11:24:49Z</time></trkpt><trkpt lat="45.50131947929343" lon="10.736689393474505"><ele>82.0</ele><time>2026-04-06T11:24:51Z</time></trkpt><trkpt lat="45.50121081591656" lon="10.736746517829639"><ele>82.19999999999999</ele><time>2026-04-06T11:24:53Z</time></trkpt><trkpt lat="45.501080989064484" lon="10.736803524733004"><ele>82.4</ele><time>2026-04-06T11:24:55Z</time></trkpt><trkpt lat="45.501004366690694" lon="10.736827610929087"><ele>82.6</ele><time>2026-04-06T11:24:56Z</time></trkpt><trkpt lat="45.500916269622095" lon="10.736853463195104"><ele>82.80000000000001</ele><time>2026-04-06T11:24:57Z</time></trkpt><trkpt lat="45.50081417938288" lon="10.736883421777074"><ele>83.0</ele><time>2026-04-06T11:24:58Z</time></trkpt><trkpt lat="45.500691775584684" lon="10.736919341414321"><ele>83.75</ele><time>2026-04-06T11:24:59Z</time></trkpt><trkpt lat="45.500553324950864" lon="10.736959970044834"><ele>84.5</ele><time>2026-04-06T11:25:00Z</time></trkpt><trkpt lat="45.500410154384525" lon="10.737001983735052"><ele>85.25</ele><time>2026-04-06T11:25:01Z</time></trkpt><trkpt lat="45.50026864003898" lon="10.737040757755633"><ele>86.0</ele><time>2026-04-06T11:25:02Z</time></trkpt><trkpt lat="45.50012435439631" lon="10.737079305384608"><ele>86.0</ele><time>2026-04-06T11:25:03Z</time></trkpt><trkpt lat="45.49998630249944" lon="10.737115563083535"><ele>86.0</ele><time>2026-04-06T11:25:04Z</time></trkpt><trkpt lat="45.49985753164349" lon="10.737148382470266"><ele>86.0</ele><time>2026-04-06T11:25:05Z</time></trkpt><trkpt lat="45.49973700112713" lon="10.737179401827563"><ele>86.0</ele><time>2026-04-06T11:25:06Z</time></trkpt><trkpt lat="45.4996237197135" lon="10.737208702620258"><ele>86.0</ele><time>2026-04-06T11:25:07Z</time></trkpt><trkpt lat="45.49950772285907" lon="10.737247098642928"><ele>86.0</ele><time>2026-04-06T11:25:08Z</time></trkpt><trkpt lat="45.49938827280684" lon="10.737294005157217"><ele>86.0</ele><time>2026-04-06T11:25:09Z</time></trkpt><trkpt lat="45.499264414384804" lon="10.737358825045014"><ele>86.0</ele><time>2026-04-06T11:25:10Z</time></trkpt><trkpt lat="45.49913618394446" lon="10.73743402071077"><ele>86.0</ele><time>2026-04-06T11:25:11Z</time></trkpt><trkpt lat="45.49901134016144" lon="10.737533438401648"><ele>86.0</ele><time>2026-04-06T11:25:12Z</time></trkpt><trkpt lat="45.49887774196121" lon="10.737613585103905"><ele>86.0</ele><time>2026-04-06T11:25:13Z</time></trkpt><trkpt lat="45.49874402590076" lon="10.737693957291308"><ele>86.0</ele><time>2026-04-06T11:25:14Z</time></trkpt><trkpt lat="45.49860750334751" lon="10.737775684915059"><ele>87.25</ele><time>2026-04-06T11:25:15Z</time></trkpt><trkpt lat="45.49846819268622" lon="10.737856411310583"><ele>88.5</ele><time>2026-04-06T11:25:16Z</time></trkpt><trkpt lat="45.498329385467564" lon="10.737933086530283"><ele>89.75</ele><time>2026-04-06T11:25:17Z</time></trkpt><trkpt lat="45.498186010102685" lon="10.737979792913148"><ele>91.0</ele><time>2026-04-06T11:25:18Z</time></trkpt><trkpt lat="45.49805206446424" lon="10.738058228450301"><ele>92.0</ele><time>2026-04-06T11:25:19Z</time></trkpt><trkpt lat="45.497913755145234" lon="10.738103791178263"><ele>93.0</ele><time>2026-04-06T11:25:20Z</time></trkpt><trkpt lat="45.497771899681815" lon="10.73814169516371"><ele>94.0</ele><time>2026-04-06T11:25:21Z</time></trkpt><trkpt lat="45.49762604423014" lon="10.73817601884927"><ele>95.0</ele><time>2026-04-06T11:25:22Z</time></trkpt><trkpt lat="45.49747585466751" lon="10.738206512577714"><ele>95.0</ele><time>2026-04-06T11:25:23Z</time></trkpt><trkpt lat="45.497324307379074" lon="10.738234073412363"><ele>95.0</ele><time>2026-04-06T11:25:24Z</time></trkpt><trkpt lat="45.497170930591416" lon="10.738263531981838"><ele>95.0</ele><time>2026-04-06T11:25:25Z</time></trkpt><trkpt lat="45.49701782153123" lon="10.738293617909983"><ele>94.66666666666667</ele><time>2026-04-06T11:25:26Z</time></trkpt><trkpt lat="45.49686443185478" lon="10.738324362952886"><ele>94.33333333333333</ele><time>2026-04-06T11:25:27Z</time></trkpt><trkpt lat="45.496707188217606" lon="10.738359005087528"><ele>94.0</ele><time>2026-04-06T11:25:28Z</time></trkpt><trkpt lat="45.49654745216917" lon="10.738391315469086"><ele>94.0</ele><time>2026-04-06T11:25:29Z</time></trkpt><trkpt lat="45.4963887136884" lon="10.738420596155532"><ele>94.0</ele><time>2026-04-06T11:25:30Z</time></trkpt><trkpt lat="45.49623007213257" lon="10.738452330628212"><ele>94.0</ele><time>2026-04-06T11:25:31Z</time></trkpt><trkpt lat="45.49607168853911" lon="10.738483886707792"><ele>95.0</ele><time>2026-04-06T11:25:32Z</time></trkpt><trkpt lat="45.49591142064146" lon="10.738515464734363"><ele>96.0</ele><time>2026-04-06T11:25:33Z</time></trkpt><trkpt lat="45.495751104027455" lon="10.73854798922515"><ele>97.0</ele><time>2026-04-06T11:25:34Z</time></trkpt><trkpt lat="45.495591478618" lon="10.738579406153908"><ele>98.33333333333334</ele><time>2026-04-06T11:25:35Z</time></trkpt><trkpt lat="45.49543242246627" lon="10.738609929333805"><ele>99.66666666666666</ele><time>2026-04-06T11:25:36Z</time></trkpt><trkpt lat="45.49527360030538" lon="10.738639382290224"><ele>101.0</ele><time>2026-04-06T11:25:37Z</time></trkpt><trkpt lat="45.495114747213066" lon="10.738665684954821"><ele>101.33333333333333</ele><time>2026-04-06T11:25:38Z</time></trkpt><trkpt lat="45.49495591023058" lon="10.738685295919655"><ele>101.66666666666666</ele><time>2026-04-06T11:25:39Z</time></trkpt><trkpt lat="45.494795605224056" lon="10.73869669806711"><ele>102.0</ele><time>2026-04-06T11:25:40Z</time></trkpt><trkpt lat="45.494635448066326" lon="10.738700072793891"><ele>102.66666666666666</ele><time>2026-04-06T11:25:41Z</time></trkpt><trkpt lat="45.49447344420138" lon="10.738695759870367"><ele>103.33333333333333</ele><time>2026-04-06T11:25:42Z</time></trkpt><trkpt lat="45.49431267923026" lon="10.738682363297958"><ele>104.0</ele><time>2026-04-06T11:25:43Z</time></trkpt><trkpt lat="45.49415456946813" lon="10.738660500449077"><ele>104.0</ele><time>2026-04-06T11:25:44Z</time></trkpt><trkpt lat="45.49400413744657" lon="10.738631088644357"><ele>104.0</ele><time>2026-04-06T11:25:45Z</time></trkpt><trkpt lat="45.49386525123646" lon="10.738601248544844"><ele>104.0</ele><time>2026-04-06T11:25:46Z</time></trkpt><trkpt lat="45.49373478393967" lon="10.738567501053948"><ele>104.0</ele><time>2026-04-06T11:25:47Z</time></trkpt><trkpt lat="45.49361193903046" lon="10.738531295905414"><ele>104.0</ele><time>2026-04-06T11:25:48Z</time></trkpt><trkpt lat="45.493502654131156" lon="10.738494098312556"><ele>104.0</ele><time>2026-04-06T11:25:49Z</time></trkpt><trkpt lat="45.493405421471365" lon="10.738455718496889"><ele>104.0</ele><time>2026-04-06T11:25:50Z</time></trkpt><trkpt lat="45.493317609595024" lon="10.738421482080344"><ele>104.0</ele><time>2026-04-06T11:25:51Z</time></trkpt><trkpt lat="45.493235041266395" lon="10.738385719519112"><ele>104.0</ele><time>2026-04-06T11:25:52Z</time></trkpt><trkpt lat="45.49316054733406" lon="10.738350603544404"><ele>104.0</ele><time>2026-04-06T11:25:53Z</time></trkpt><trkpt lat="45.49309211318214" lon="10.73832057062162"><ele>104.0</ele><time>2026-04-06T11:25:54Z</time></trkpt><trkpt lat="45.493007691460875" lon="10.738287885504887"><ele>104.0</ele><time>2026-04-06T11:25:56Z</time></trkpt><trkpt lat="45.49292115420612" lon="10.738244534757806"><ele>104.0</ele><time>2026-04-06T11:25:58Z</time></trkpt><trkpt lat="45.492827495727035" lon="10.738204207987367"><ele>104.0</ele><time>2026-04-06T11:26:00Z</time></trkpt><trkpt lat="45.49271114107071" lon="10.738158857994016"><ele>104.33333333333333</ele><time>2026-04-06T11:26:02Z</time></trkpt><trkpt lat="45.49264398092667" lon="10.738133798630038"><ele>104.66666666666666</ele><time>2026-04-06T11:26:03Z</time></trkpt><trkpt lat="45.492566344378595" lon="10.738114513399365"><ele>105.0</ele><time>2026-04-06T11:26:04Z</time></trkpt><trkpt lat="45.492491943083564" lon="10.738062367835514"><ele>105.33333333333334</ele><time>2026-04-06T11:26:05Z</time></trkpt><trkpt lat="45.492407985802785" lon="10.738029786086027"><ele>105.66666666666667</ele><time>2026-04-06T11:26:06Z</time></trkpt><trkpt lat="45.49231679175493" lon="10.737995477572689"><ele>106.0</ele><time>2026-04-06T11:26:07Z</time></trkpt><trkpt lat="45.492225528151316" lon="10.737961335545354"><ele>106.0</ele><time>2026-04-06T11:26:08Z</time></trkpt><trkpt lat="45.49213783940452" lon="10.737928567644998"><ele>106.0</ele><time>2026-04-06T11:26:09Z</time></trkpt><trkpt lat="45.49205851445844" lon="10.737899446461684"><ele>106.0</ele><time>2026-04-06T11:26:10Z</time></trkpt><trkpt lat="45.49198906897461" lon="10.73787395215259"><ele>106.0</ele><time>2026-04-06T11:26:11Z</time></trkpt><trkpt lat="45.49188081648882" lon="10.737834211352313"><ele>106.0</ele><time>2026-04-06T11:26:13Z</time></trkpt><trkpt lat="45.49175839627529" lon="10.737789269347779"><ele>105.83333333333334</ele><time>2026-04-06T11:26:15Z</time></trkpt><trkpt lat="45.491687650121406" lon="10.737763297566723"><ele>105.66666666666667</ele><time>2026-04-06T11:26:16Z</time></trkpt><trkpt lat="45.491608747968606" lon="10.737734331010993"><ele>105.5</ele><time>2026-04-06T11:26:17Z</time></trkpt><trkpt lat="45.49152919184612" lon="10.737703711955856"><ele>105.33333333333334</ele><time>2026-04-06T11:26:18Z</time></trkpt><trkpt lat="45.49144343516773" lon="10.73767133378607"><ele>105.16666666666667</ele><time>2026-04-06T11:26:19Z</time></trkpt><trkpt lat="45.4913466479592" lon="10.737634136865132"><ele>105.0</ele><time>2026-04-06T11:26:20Z</time></trkpt><trkpt lat="45.491247383327625" lon="10.737595196298567"><ele>105.0</ele><time>2026-04-06T11:26:21Z</time></trkpt><trkpt lat="45.491132675357534" lon="10.737550197443987"><ele>105.0</ele><time>2026-04-06T11:26:22Z</time></trkpt><trkpt lat="45.491003395203805" lon="10.737499482143377"><ele>105.0</ele><time>2026-04-06T11:26:23Z</time></trkpt><trkpt lat="45.4908603670381" lon="10.737443706471991"><ele>105.0</ele><time>2026-04-06T11:26:24Z</time></trkpt><trkpt lat="45.49070568147441" lon="10.737383598746696"><ele>105.0</ele><time>2026-04-06T11:26:25Z</time></trkpt><trkpt lat="45.49054441959101" lon="10.737320935545986"><ele>105.0</ele><time>2026-04-06T11:26:26Z</time></trkpt><trkpt lat="45.49038149357962" lon="10.737257625667473"><ele>105.0</ele><time>2026-04-06T11:26:27Z</time></trkpt><trkpt lat="45.490215610701135" lon="10.737193166836843"><ele>105.33333333333334</ele><time>2026-04-06T11:26:28Z</time></trkpt><trkpt lat="45.490051283945505" lon="10.737129515888563"><ele>105.66666666666667</ele><time>2026-04-06T11:26:29Z</time></trkpt><trkpt lat="45.489887492852745" lon="10.737066342710591"><ele>106.0</ele><time>2026-04-06T11:26:30Z</time></trkpt><trkpt lat="45.489721306220225" lon="10.737002245573423"><ele>106.0</ele><time>2026-04-06T11:26:31Z</time></trkpt><trkpt lat="45.4895574307805" lon="10.736939039873759"><ele>106.0</ele><time>2026-04-06T11:26:32Z</time></trkpt><trkpt lat="45.489393317616354" lon="10.736875911008529"><ele>106.0</ele><time>2026-04-06T11:26:33Z</time></trkpt><trkpt lat="45.489232060433885" lon="10.736813875034246"><ele>106.0</ele><time>2026-04-06T11:26:34Z</time></trkpt><trkpt lat="45.48907053585601" lon="10.736751398964834"><ele>106.0</ele><time>2026-04-06T11:26:35Z</time></trkpt><trkpt lat="45.4889076875503" lon="10.736686966998056"><ele>106.0</ele><time>2026-04-06T11:26:36Z</time></trkpt><trkpt lat="45.488743224792636" lon="10.736619947337735"><ele>107.66666666666667</ele><time>2026-04-06T11:26:37Z</time></trkpt><trkpt lat="45.48857967964536" lon="10.736552221361844"><ele>109.33333333333334</ele><time>2026-04-06T11:26:38Z</time></trkpt><trkpt lat="45.48841608720107" lon="10.73648196603024"><ele>111.0</ele><time>2026-04-06T11:26:39Z</time></trkpt><trkpt lat="45.4882473883773" lon="10.736430763725572"><ele>111.0</ele><time>2026-04-06T11:26:40Z</time></trkpt><trkpt lat="45.48808363477723" lon="10.736349914125645"><ele>111.0</ele><time>2026-04-06T11:26:41Z</time></trkpt><trkpt lat="45.48792190328284" lon="10.736266777535677"><ele>111.0</ele><time>2026-04-06T11:26:42Z</time></trkpt><trkpt lat="45.4877619377375" lon="10.73617177149404"><ele>111.66666666666666</ele><time>2026-04-06T11:26:43Z</time></trkpt><trkpt lat="45.48760695930849" lon="10.736061899525847"><ele>112.33333333333333</ele><time>2026-04-06T11:26:44Z</time></trkpt><trkpt lat="45.4874568974878" lon="10.73594349752777"><ele>113.0</ele><time>2026-04-06T11:26:45Z</time></trkpt><trkpt lat="45.48730748712147" lon="10.735822261995676"><ele>113.0</ele><time>2026-04-06T11:26:46Z</time></trkpt><trkpt lat="45.48715665090449" lon="10.735700676052485"><ele>113.0</ele><time>2026-04-06T11:26:47Z</time></trkpt><trkpt lat="45.48700470389047" lon="10.735581336293706"><ele>113.0</ele><time>2026-04-06T11:26:48Z</time></trkpt><trkpt lat="45.48685345185154" lon="10.735462301962507"><ele>112.66666666666666</ele><time>2026-04-06T11:26:49Z</time></trkpt><trkpt lat="45.48669947955041" lon="10.73534613181979"><ele>112.33333333333334</ele><time>2026-04-06T11:26:50Z</time></trkpt><trkpt lat="45.486545376332295" lon="10.735222149033389"><ele>112.0</ele><time>2026-04-06T11:26:51Z</time></trkpt><trkpt lat="45.48639346948279" lon="10.735099368749811"><ele>113.0</ele><time>2026-04-06T11:26:52Z</time></trkpt><trkpt lat="45.48624017206594" lon="10.73497392501886"><ele>114.0</ele><time>2026-04-06T11:26:53Z</time></trkpt><trkpt lat="45.48610098430919" lon="10.73482049918324"><ele>115.0</ele><time>2026-04-06T11:26:54Z</time></trkpt><trkpt lat="45.48595670600837" lon="10.734674973105323"><ele>115.0</ele><time>2026-04-06T11:26:55Z</time></trkpt><trkpt lat="45.485820372694874" lon="10.734522053193121"><ele>115.0</ele><time>2026-04-06T11:26:56Z</time></trkpt><trkpt lat="45.485696591160554" lon="10.734355140632339"><ele>115.0</ele><time>2026-04-06T11:26:57Z</time></trkpt><trkpt lat="45.48558146216453" lon="10.734180730854606"><ele>114.33333333333334</ele><time>2026-04-06T11:26:58Z</time></trkpt><trkpt lat="45.485472114690666" lon="10.734001323900067"><ele>113.66666666666666</ele><time>2026-04-06T11:26:59Z</time></trkpt><trkpt lat="45.485374067623226" lon="10.733821402998952"><ele>113.0</ele><time>2026-04-06T11:27:00Z</time></trkpt><trkpt lat="45.485290488934425" lon="10.733649512010615"><ele>113.0</ele><time>2026-04-06T11:27:01Z</time></trkpt><trkpt lat="45.48522485742547" lon="10.733494128092765"><ele>113.0</ele><time>2026-04-06T11:27:02Z</time></trkpt><trkpt lat="45.48516081444371" lon="10.733339951769455"><ele>113.0</ele><time>2026-04-06T11:27:03Z</time></trkpt><trkpt lat="45.48510123543209" lon="10.733190516642736"><ele>113.0</ele><time>2026-04-06T11:27:04Z</time></trkpt><trkpt lat="45.48504819606526" lon="10.733055282258324"><ele>113.0</ele><time>2026-04-06T11:27:05Z</time></trkpt><trkpt lat="45.48499841519079" lon="10.732930694686692"><ele>113.00000000000001</ele><time>2026-04-06T11:27:06Z</time></trkpt><trkpt lat="45.484932094266725" lon="10.732815811773731"><ele>113.00000000000001</ele><time>2026-04-06T11:27:07Z</time></trkpt><trkpt lat="45.484872806012056" lon="10.732684919858444"><ele>113.0</ele><time>2026-04-06T11:27:08Z</time></trkpt><trkpt lat="45.48482125273833" lon="10.732544272723734"><ele>113.0</ele><time>2026-04-06T11:27:09Z</time></trkpt><trkpt lat="45.48472220831037" lon="10.732434908225082"><ele>112.75</ele><time>2026-04-06T11:27:10Z</time></trkpt><trkpt lat="45.48462893178041" lon="10.732318693982181"><ele>112.5</ele><time>2026-04-06T11:27:11Z</time></trkpt><trkpt lat="45.48454756495041" lon="10.732194013022408"><ele>112.25</ele><time>2026-04-06T11:27:12Z</time></trkpt><trkpt lat="45.484462743975605" lon="10.732096796998595"><ele>112.0</ele><time>2026-04-06T11:27:13Z</time></trkpt><trkpt lat="45.48438114570543" lon="10.732008661224713"><ele>112.0</ele><time>2026-04-06T11:27:14Z</time></trkpt><trkpt lat="45.48431417532036" lon="10.731935356050158"><ele>111.99999999999999</ele><time>2026-04-06T11:27:15Z</time></trkpt><trkpt lat="45.484244665775286" lon="10.731858920684996"><ele>111.99999999999999</ele><time>2026-04-06T11:27:16Z</time></trkpt><trkpt lat="45.48416989390301" lon="10.73177461103841"><ele>112.0</ele><time>2026-04-06T11:27:17Z</time></trkpt><trkpt lat="45.48409407387516" lon="10.731689119580038"><ele>112.0</ele><time>2026-04-06T11:27:18Z</time></trkpt><trkpt lat="45.484017514450265" lon="10.731602794377094"><ele>112.0</ele><time>2026-04-06T11:27:19Z</time></trkpt><trkpt lat="45.48394067589274" lon="10.731517154502225"><ele>111.99999999999999</ele><time>2026-04-06T11:27:20Z</time></trkpt><trkpt lat="45.48386334888528" lon="10.731431850091294"><ele>111.99999999999999</ele><time>2026-04-06T11:27:21Z</time></trkpt><trkpt lat="45.4837880530974" lon="10.731348788786706"><ele>112.0</ele><time>2026-04-06T11:27:22Z</time></trkpt><trkpt lat="45.4837154691886" lon="10.731259953011055"><ele>112.0</ele><time>2026-04-06T11:27:23Z</time></trkpt><trkpt lat="45.48364312033996" lon="10.73116285406123"><ele>112.00000000000001</ele><time>2026-04-06T11:27:24Z</time></trkpt><trkpt lat="45.48357788144413" lon="10.731062505159874"><ele>112.0</ele><time>2026-04-06T11:27:25Z</time></trkpt><trkpt lat="45.483517037052394" lon="10.730963529423567"><ele>112.0</ele><time>2026-04-06T11:27:26Z</time></trkpt><trkpt lat="45.48346334423354" lon="10.730871288947732"><ele>112.0</ele><time>2026-04-06T11:27:27Z</time></trkpt><trkpt lat="45.48341085522285" lon="10.730780716263093"><ele>112.00000000000001</ele><time>2026-04-06T11:27:28Z</time></trkpt><trkpt lat="45.48335121660163" lon="10.730677806439445"><ele>112.0</ele><time>2026-04-06T11:27:29Z</time></trkpt><trkpt lat="45.483284706412086" lon="10.730561503373881"><ele>112.0</ele><time>2026-04-06T11:27:30Z</time></trkpt><trkpt lat="45.48321543015781" lon="10.730439668501631"><ele>111.99999999999999</ele><time>2026-04-06T11:27:31Z</time></trkpt><trkpt lat="45.48315019545097" lon="10.730324743437505"><ele>111.99999999999999</ele><time>2026-04-06T11:27:32Z</time></trkpt><trkpt lat="45.483086496121786" lon="10.73021252354408"><ele>112.0</ele><time>2026-04-06T11:27:33Z</time></trkpt><trkpt lat="45.483026145051035" lon="10.730106202173534"><ele>112.0</ele><time>2026-04-06T11:27:34Z</time></trkpt><trkpt lat="45.482971062907616" lon="10.730009163345969"><ele>112.33333333333334</ele><time>2026-04-06T11:27:35Z</time></trkpt><trkpt lat="45.48291562874425" lon="10.729911504229852"><ele>112.66666666666667</ele><time>2026-04-06T11:27:36Z</time></trkpt><trkpt lat="45.48286040980806" lon="10.729814938431506"><ele>113.0</ele><time>2026-04-06T11:27:37Z</time></trkpt><trkpt lat="45.482801710291206" lon="10.729712837157617"><ele>113.33333333333334</ele><time>2026-04-06T11:27:38Z</time></trkpt><trkpt lat="45.48274712074742" lon="10.729619710477705"><ele>113.66666666666667</ele><time>2026-04-06T11:27:39Z</time></trkpt><trkpt lat="45.48269514197408" lon="10.72953346994205"><ele>114.0</ele><time>2026-04-06T11:27:40Z</time></trkpt><trkpt lat="45.48264546209252" lon="10.729457922306707"><ele>113.80000000000001</ele><time>2026-04-06T11:27:41Z</time></trkpt><trkpt lat="45.482575420926175" lon="10.7293620274016"><ele>113.60000000000001</ele><time>2026-04-06T11:27:43Z</time></trkpt><trkpt lat="45.482523129685696" lon="10.729296730929695"><ele>113.4</ele><time>2026-04-06T11:27:44Z</time></trkpt><trkpt lat="45.48245957725328" lon="10.72922321146901"><ele>113.2</ele><time>2026-04-06T11:27:45Z</time></trkpt><trkpt lat="45.48237994906382" lon="10.729151562430884"><ele>113.0</ele><time>2026-04-06T11:27:46Z</time></trkpt><trkpt lat="45.48228088351326" lon="10.72908009705261"><ele>113.0</ele><time>2026-04-06T11:27:47Z</time></trkpt><trkpt lat="45.48216240969295" lon="10.729010946549627"><ele>113.0</ele><time>2026-04-06T11:27:48Z</time></trkpt><trkpt lat="45.48203094238991" lon="10.728943145778711"><ele>113.0</ele><time>2026-04-06T11:27:49Z</time></trkpt><trkpt lat="45.48187658307414" lon="10.728907817702572"><ele>113.0</ele><time>2026-04-06T11:27:50Z</time></trkpt><trkpt lat="45.481722367047595" lon="10.728866673292655"><ele>112.66666666666666</ele><time>2026-04-06T11:27:51Z</time></trkpt><trkpt lat="45.48156402840859" lon="10.728846177579388"><ele>112.33333333333334</ele><time>2026-04-06T11:27:52Z</time></trkpt><trkpt lat="45.48141707885044" lon="10.728811197984976"><ele>112.0</ele><time>2026-04-06T11:27:53Z</time></trkpt><trkpt lat="45.48127059739194" lon="10.728777946506796"><ele>111.0</ele><time>2026-04-06T11:27:54Z</time></trkpt><trkpt lat="45.48112508215938" lon="10.728723526111663"><ele>110.0</ele><time>2026-04-06T11:27:55Z</time></trkpt><trkpt lat="45.48097415059893" lon="10.728687548400783"><ele>109.0</ele><time>2026-04-06T11:27:56Z</time></trkpt><trkpt lat="45.48081784810334" lon="10.728672991982654"><ele>109.0</ele><time>2026-04-06T11:27:57Z</time></trkpt><trkpt lat="45.480662642227806" lon="10.728633293952374"><ele>109.0</ele><time>2026-04-06T11:27:58Z</time></trkpt><trkpt lat="45.48050087010867" lon="10.72859498092076"><ele>109.0</ele><time>2026-04-06T11:27:59Z</time></trkpt><trkpt lat="45.48034045309056" lon="10.728557187186139"><ele>109.33333333333334</ele><time>2026-04-06T11:28:00Z</time></trkpt><trkpt lat="45.48018323204038" lon="10.728519483672539"><ele>109.66666666666666</ele><time>2026-04-06T11:28:01Z</time></trkpt><trkpt lat="45.480033979664064" lon="10.728483062516181"><ele>110.0</ele><time>2026-04-06T11:28:02Z</time></trkpt><trkpt lat="45.47988640843781" lon="10.728448984989988"><ele>110.0</ele><time>2026-04-06T11:28:03Z</time></trkpt><trkpt lat="45.47974529119184" lon="10.728395034183285"><ele>110.0</ele><time>2026-04-06T11:28:04Z</time></trkpt><trkpt lat="45.47961311237234" lon="10.728363412900059"><ele>110.0</ele><time>2026-04-06T11:28:05Z</time></trkpt><trkpt lat="45.479495344800995" lon="10.728335217465268"><ele>110.0</ele><time>2026-04-06T11:28:06Z</time></trkpt><trkpt lat="45.47939749634163" lon="10.728311789375134"><ele>109.6</ele><time>2026-04-06T11:28:07Z</time></trkpt><trkpt lat="45.47932229397434" lon="10.728293783425617"><ele>109.2</ele><time>2026-04-06T11:28:08Z</time></trkpt><trkpt lat="45.479253697758764" lon="10.728277359235326"><ele>108.80000000000001</ele><time>2026-04-06T11:28:09Z</time></trkpt><trkpt lat="45.479189191708684" lon="10.728261914340786"><ele>108.4</ele><time>2026-04-06T11:28:10Z</time></trkpt><trkpt lat="45.479054004123036" lon="10.728229546015893"><ele>108.0</ele><time>2026-04-06T11:28:12Z</time></trkpt><trkpt lat="45.478947728414816" lon="10.728204100474553"><ele>108.0</ele><time>2026-04-06T11:28:13Z</time></trkpt><trkpt lat="45.47882495350291" lon="10.728175317097177"><ele>108.0</ele><time>2026-04-06T11:28:14Z</time></trkpt><trkpt lat="45.478692938117106" lon="10.728143894535954"><ele>108.0</ele><time>2026-04-06T11:28:15Z</time></trkpt><trkpt lat="45.478555572190196" lon="10.728112304302783"><ele>108.0</ele><time>2026-04-06T11:28:16Z</time></trkpt><trkpt lat="45.47841304950065" lon="10.728100697205635"><ele>108.25</ele><time>2026-04-06T11:28:17Z</time></trkpt><trkpt lat="45.478278060254354" lon="10.7280691185437"><ele>108.5</ele><time>2026-04-06T11:28:18Z</time></trkpt><trkpt lat="45.47814450601875" lon="10.72803748278901"><ele>108.75</ele><time>2026-04-06T11:28:19Z</time></trkpt><trkpt lat="45.47802251161771" lon="10.727979921679447"><ele>109.0</ele><time>2026-04-06T11:28:20Z</time></trkpt><trkpt lat="45.47790995361635" lon="10.727947551616754"><ele>108.5</ele><time>2026-04-06T11:28:21Z</time></trkpt><trkpt lat="45.47778732699581" lon="10.727916714551355"><ele>108.0</ele><time>2026-04-06T11:28:22Z</time></trkpt><trkpt lat="45.477663343027054" lon="10.727836643588729"><ele>107.5</ele><time>2026-04-06T11:28:23Z</time></trkpt><trkpt lat="45.477545569064226" lon="10.727727899304284"><ele>107.0</ele><time>2026-04-06T11:28:24Z</time></trkpt><trkpt lat="45.47742570265603" lon="10.727602217081111"><ele>107.0</ele><time>2026-04-06T11:28:25Z</time></trkpt><trkpt lat="45.47732443648041" lon="10.727444744750334"><ele>107.0</ele><time>2026-04-06T11:28:26Z</time></trkpt><trkpt lat="45.47720725091005" lon="10.727295148165306"><ele>107.0</ele><time>2026-04-06T11:28:27Z</time></trkpt><trkpt lat="45.47708949704067" lon="10.727145214369164"><ele>107.0</ele><time>2026-04-06T11:28:28Z</time></trkpt><trkpt lat="45.47695954604447" lon="10.727007528985958"><ele>107.0</ele><time>2026-04-06T11:28:29Z</time></trkpt><trkpt lat="45.476837426554205" lon="10.72685131233063"><ele>107.0</ele><time>2026-04-06T11:28:30Z</time></trkpt><trkpt lat="45.47671721201548" lon="10.726695654974494"><ele>106.66666666666666</ele><time>2026-04-06T11:28:31Z</time></trkpt><trkpt lat="45.476597165917866" lon="10.726541027433772"><ele>106.33333333333334</ele><time>2026-04-06T11:28:32Z</time></trkpt><trkpt lat="45.47647438516355" lon="10.726386023019288"><ele>106.0</ele><time>2026-04-06T11:28:33Z</time></trkpt><trkpt lat="45.476350833487004" lon="10.726232456147924"><ele>105.66666666666667</ele><time>2026-04-06T11:28:34Z</time></trkpt><trkpt lat="45.4762376359685" lon="10.726062663463063"><ele>105.33333333333334</ele><time>2026-04-06T11:28:35Z</time></trkpt><trkpt lat="45.47611184168001" lon="10.725917364191448"><ele>105.0</ele><time>2026-04-06T11:28:36Z</time></trkpt><trkpt lat="45.47598017524672" lon="10.72577802402567"><ele>104.33333333333334</ele><time>2026-04-06T11:28:37Z</time></trkpt><trkpt lat="45.4758329708351" lon="10.725678740803271"><ele>103.66666666666667</ele><time>2026-04-06T11:28:38Z</time></trkpt><trkpt lat="45.47569220197397" lon="10.7255647408034"><ele>103.0</ele><time>2026-04-06T11:28:39Z</time></trkpt><trkpt lat="45.475554208847825" lon="10.725450814412113"><ele>103.66666666666667</ele><time>2026-04-06T11:28:40Z</time></trkpt><trkpt lat="45.47541480585407" lon="10.72533915124376"><ele>104.33333333333334</ele><time>2026-04-06T11:28:41Z</time></trkpt><trkpt lat="45.47527520874281" lon="10.725233387707988"><ele>105.0</ele><time>2026-04-06T11:28:42Z</time></trkpt><trkpt lat="45.47513548265214" lon="10.725134954258708"><ele>105.0</ele><time>2026-04-06T11:28:43Z</time></trkpt><trkpt lat="45.47499287322096" lon="10.725045360534441"><ele>105.0</ele><time>2026-04-06T11:28:44Z</time></trkpt><trkpt lat="45.47484063071884" lon="10.724977171922491"><ele>105.0</ele><time>2026-04-06T11:28:45Z</time></trkpt><trkpt lat="45.474682915085296" lon="10.724928882957455"><ele>105.33333333333334</ele><time>2026-04-06T11:28:46Z</time></trkpt><trkpt lat="45.47452230513596" lon="10.724885257992081"><ele>105.66666666666667</ele><time>2026-04-06T11:28:47Z</time></trkpt><trkpt lat="45.474357458831584" lon="10.724839266309871"><ele>106.0</ele><time>2026-04-06T11:28:48Z</time></trkpt><trkpt lat="45.474195275133184" lon="10.724773118467251"><ele>106.0</ele><time>2026-04-06T11:28:49Z</time></trkpt><trkpt lat="45.474033327570744" lon="10.724728297522256"><ele>106.0</ele><time>2026-04-06T11:28:50Z</time></trkpt><trkpt lat="45.47386966890276" lon="10.724684500217789"><ele>106.0</ele><time>2026-04-06T11:28:51Z</time></trkpt><trkpt lat="45.47370847053419" lon="10.724641361317387"><ele>106.0</ele><time>2026-04-06T11:28:52Z</time></trkpt><trkpt lat="45.47354455751687" lon="10.724618591215908"><ele>106.0</ele><time>2026-04-06T11:28:53Z</time></trkpt><trkpt lat="45.47338600104677" lon="10.724575086681138"><ele>106.0</ele><time>2026-04-06T11:28:54Z</time></trkpt><trkpt lat="45.473226739569505" lon="10.72453209498985"><ele>106.0</ele><time>2026-04-06T11:28:55Z</time></trkpt><trkpt lat="45.47306958840142" lon="10.724487285418169"><ele>106.0</ele><time>2026-04-06T11:28:56Z</time></trkpt><trkpt lat="45.472915985418076" lon="10.724438860157832"><ele>106.0</ele><time>2026-04-06T11:28:57Z</time></trkpt><trkpt lat="45.4727612642244" lon="10.724387290372619"><ele>104.66666666666667</ele><time>2026-04-06T11:28:58Z</time></trkpt><trkpt lat="45.472612791898534" lon="10.724327544213857"><ele>103.33333333333334</ele><time>2026-04-06T11:28:59Z</time></trkpt><trkpt lat="45.47246841710996" lon="10.724262954955108"><ele>102.0</ele><time>2026-04-06T11:29:00Z</time></trkpt><trkpt lat="45.472332529777276" lon="10.724170692261296"><ele>102.0</ele><time>2026-04-06T11:29:01Z</time></trkpt><trkpt lat="45.472186885735674" lon="10.72411897410665"><ele>102.0</ele><time>2026-04-06T11:29:02Z</time></trkpt><trkpt lat="45.47205377289695" lon="10.724023109613473"><ele>102.0</ele><time>2026-04-06T11:29:03Z</time></trkpt><trkpt lat="45.47190964216867" lon="10.723970617128025"><ele>102.0</ele><time>2026-04-06T11:29:04Z</time></trkpt><trkpt lat="45.47177394899718" lon="10.723875468474432"><ele>102.75</ele><time>2026-04-06T11:29:05Z</time></trkpt><trkpt lat="45.47163556114786" lon="10.723803018712818"><ele>103.5</ele><time>2026-04-06T11:29:06Z</time></trkpt><trkpt lat="45.47150229555971" lon="10.723731745464148"><ele>104.25</ele><time>2026-04-06T11:29:07Z</time></trkpt><trkpt lat="45.47137634246079" lon="10.72366359974669"><ele>105.0</ele><time>2026-04-06T11:29:08Z</time></trkpt><trkpt lat="45.4712469444418" lon="10.723607288913016"><ele>105.0</ele><time>2026-04-06T11:29:09Z</time></trkpt><trkpt lat="45.47113042301553" lon="10.72352124297905"><ele>105.0</ele><time>2026-04-06T11:29:10Z</time></trkpt><trkpt lat="45.47101673919378" lon="10.72341955834801"><ele>105.0</ele><time>2026-04-06T11:29:11Z</time></trkpt><trkpt lat="45.47090997997292" lon="10.723309305046424"><ele>105.0</ele><time>2026-04-06T11:29:12Z</time></trkpt><trkpt lat="45.470810171364924" lon="10.723186596869095"><ele>105.0</ele><time>2026-04-06T11:29:13Z</time></trkpt><trkpt lat="45.470724415037296" lon="10.723052585503465"><ele>105.0</ele><time>2026-04-06T11:29:14Z</time></trkpt><trkpt lat="45.4706485141949" lon="10.722923949451683"><ele>105.0</ele><time>2026-04-06T11:29:15Z</time></trkpt><trkpt lat="45.47058418336229" lon="10.72280108961931"><ele>105.0</ele><time>2026-04-06T11:29:16Z</time></trkpt><trkpt lat="45.47053447710905" lon="10.722697731265752"><ele>105.0</ele><time>2026-04-06T11:29:17Z</time></trkpt><trkpt lat="45.470493010302434" lon="10.722611974588062"><ele>104.71428571428571</ele><time>2026-04-06T11:29:18Z</time></trkpt><trkpt lat="45.47045947039069" lon="10.722529541476792"><ele>104.42857142857143</ele><time>2026-04-06T11:29:19Z</time></trkpt><trkpt lat="45.47042300295389" lon="10.722450200449346"><ele>104.14285714285714</ele><time>2026-04-06T11:29:20Z</time></trkpt><trkpt lat="45.47039070151606" lon="10.722367493937195"><ele>103.85714285714286</ele><time>2026-04-06T11:29:21Z</time></trkpt><trkpt lat="45.47035559783531" lon="10.722288518034228"><ele>103.57142857142857</ele><time>2026-04-06T11:29:22Z</time></trkpt><trkpt lat="45.47031222512666" lon="10.722196213669163"><ele>103.28571428571428</ele><time>2026-04-06T11:29:23Z</time></trkpt><trkpt lat="45.470259987751696" lon="10.722086645305994"><ele>103.0</ele><time>2026-04-06T11:29:24Z</time></trkpt><trkpt lat="45.47020938710108" lon="10.721968921008855"><ele>102.83333333333334</ele><time>2026-04-06T11:29:25Z</time></trkpt><trkpt lat="45.470156430353555" lon="10.721870836512586"><ele>102.66666666666667</ele><time>2026-04-06T11:29:26Z</time></trkpt><trkpt lat="45.47010904800172" lon="10.72177108894675"><ele>102.5</ele><time>2026-04-06T11:29:27Z</time></trkpt><trkpt lat="45.47005432389458" lon="10.721667546620045"><ele>102.33333333333334</ele><time>2026-04-06T11:29:28Z</time></trkpt><trkpt lat="45.46999388164277" lon="10.721572909540212"><ele>102.16666666666667</ele><time>2026-04-06T11:29:29Z</time></trkpt><trkpt lat="45.46994673590475" lon="10.721478074593326"><ele>102.0</ele><time>2026-04-06T11:29:30Z</time></trkpt><trkpt lat="45.469883483020006" lon="10.72140136490223"><ele>102.0</ele><time>2026-04-06T11:29:31Z</time></trkpt><trkpt lat="45.46980882182374" lon="10.721351961848214"><ele>102.0</ele><time>2026-04-06T11:29:32Z</time></trkpt><trkpt lat="45.469759412889374" lon="10.721278168710672"><ele>102.0</ele><time>2026-04-06T11:29:33Z</time></trkpt><trkpt lat="45.469700655746855" lon="10.721229639970295"><ele>102.0</ele><time>2026-04-06T11:29:34Z</time></trkpt><trkpt lat="45.46964186307056" lon="10.721183010052226"><ele>102.0</ele><time>2026-04-06T11:29:35Z</time></trkpt><trkpt lat="45.46958181025765" lon="10.721140233078046"><ele>102.0</ele><time>2026-04-06T11:29:36Z</time></trkpt><trkpt lat="45.469514179322815" lon="10.721098380489881"><ele>102.0</ele><time>2026-04-06T11:29:37Z</time></trkpt><trkpt lat="45.46943650650253" lon="10.72106079861991"><ele>102.0</ele><time>2026-04-06T11:29:38Z</time></trkpt><trkpt lat="45.46935188853456" lon="10.721027437288479"><ele>102.0</ele><time>2026-04-06T11:29:39Z</time></trkpt><trkpt lat="45.46925883026884" lon="10.72099964792064"><ele>102.0</ele><time>2026-04-06T11:29:40Z</time></trkpt><trkpt lat="45.46915917407788" lon="10.720978779509434"><ele>102.0</ele><time>2026-04-06T11:29:41Z</time></trkpt><trkpt lat="45.46906119950634" lon="10.720961869342062"><ele>102.0</ele><time>2026-04-06T11:29:42Z</time></trkpt><trkpt lat="45.468970206823165" lon="10.720946164184827"><ele>102.0</ele><time>2026-04-06T11:29:43Z</time></trkpt><trkpt lat="45.46888888495648" lon="10.72093336734648"><ele>102.0</ele><time>2026-04-06T11:29:44Z</time></trkpt><trkpt lat="45.46881574700523" lon="10.720922210215688"><ele>102.0</ele><time>2026-04-06T11:29:45Z</time></trkpt><trkpt lat="45.46874486031207" lon="10.720911396537813"><ele>102.0</ele><time>2026-04-06T11:29:46Z</time></trkpt><trkpt lat="45.46867504402937" lon="10.720900365490996"><ele>102.0</ele><time>2026-04-06T11:29:47Z</time></trkpt><trkpt lat="45.46859313650293" lon="10.720886359906999"><ele>102.0</ele><time>2026-04-06T11:29:48Z</time></trkpt><trkpt lat="45.46851839753072" lon="10.720873580156507"><ele>102.0</ele><time>2026-04-06T11:29:49Z</time></trkpt><trkpt lat="45.468448560173684" lon="10.720862355474804"><ele>102.0</ele><time>2026-04-06T11:29:50Z</time></trkpt><trkpt lat="45.46838525816604" lon="10.720852427492643"><ele>102.0</ele><time>2026-04-06T11:29:51Z</time></trkpt><trkpt lat="45.468268411791236" lon="10.720833821652707"><ele>102.0</ele><time>2026-04-06T11:29:53Z</time></trkpt><trkpt lat="45.46815472841505" lon="10.72080618762187"><ele>102.0</ele><time>2026-04-06T11:29:55Z</time></trkpt><trkpt lat="45.46809561655591" lon="10.720761370514941"><ele>102.0</ele><time>2026-04-06T11:29:56Z</time></trkpt><trkpt lat="45.467992735701" lon="10.720697970756216"><ele>102.14285714285714</ele><time>2026-04-06T11:29:58Z</time></trkpt><trkpt lat="45.46792769473635" lon="10.720701292843057"><ele>102.28571428571429</ele><time>2026-04-06T11:29:59Z</time></trkpt><trkpt lat="45.467851729902705" lon="10.720732163274945"><ele>102.42857142857142</ele><time>2026-04-06T11:30:00Z</time></trkpt><trkpt lat="45.46776884916134" lon="10.720759307991523"><ele>102.57142857142857</ele><time>2026-04-06T11:30:01Z</time></trkpt><trkpt lat="45.467693880191405" lon="10.720726140176954"><ele>102.71428571428571</ele><time>2026-04-06T11:30:02Z</time></trkpt><trkpt lat="45.46762432560286" lon="10.72071439983728"><ele>102.85714285714285</ele><time>2026-04-06T11:30:03Z</time></trkpt><trkpt lat="45.46755937442857" lon="10.720706063199481"><ele>103.0</ele><time>2026-04-06T11:30:04Z</time></trkpt><trkpt lat="45.467492723561" lon="10.720699573446325"><ele>103.0</ele><time>2026-04-06T11:30:05Z</time></trkpt><trkpt lat="45.46738203882162" lon="10.720693143210257"><ele>103.0</ele><time>2026-04-06T11:30:07Z</time></trkpt><trkpt lat="45.46727515807681" lon="10.720703353921243"><ele>103.0</ele><time>2026-04-06T11:30:36Z</time></trkpt><trkpt lat="45.46718948989186" lon="10.72071006796811"><ele>103.0</ele><time>2026-04-06T11:30:37Z</time></trkpt><trkpt lat="45.4670896512523" lon="10.720701706486716"><ele>103.0</ele><time>2026-04-06T11:30:38Z</time></trkpt><trkpt lat="45.46698187812447" lon="10.720680492559977"><ele>103.5</ele><time>2026-04-06T11:30:39Z</time></trkpt><trkpt lat="45.46686683022179" lon="10.720658324618542"><ele>104.0</ele><time>2026-04-06T11:30:40Z</time></trkpt><trkpt lat="45.466748449246346" lon="10.720642092371506"><ele>104.5</ele><time>2026-04-06T11:30:41Z</time></trkpt><trkpt lat="45.46662779025608" lon="10.72062863544767"><ele>105.0</ele><time>2026-04-06T11:30:42Z</time></trkpt><trkpt lat="45.466506993014406" lon="10.72060848088423"><ele>105.0</ele><time>2026-04-06T11:30:43Z</time></trkpt><trkpt lat="45.46638424457531" lon="10.720576605548839"><ele>105.0</ele><time>2026-04-06T11:30:44Z</time></trkpt><trkpt lat="45.46626400471253" lon="10.720528417406062"><ele>105.0</ele><time>2026-04-06T11:30:45Z</time></trkpt><trkpt lat="45.46613806973445" lon="10.720484242396072"><ele>105.0</ele><time>2026-04-06T11:30:46Z</time></trkpt><trkpt lat="45.46601052660736" lon="10.720443601488913"><ele>104.75</ele><time>2026-04-06T11:30:47Z</time></trkpt><trkpt lat="45.465878409528315" lon="10.720407205700214"><ele>104.5</ele><time>2026-04-06T11:30:48Z</time></trkpt><trkpt lat="45.465750189227975" lon="10.720342145387583"><ele>104.25</ele><time>2026-04-06T11:30:49Z</time></trkpt><trkpt lat="45.46561413881237" lon="10.720299894124057"><ele>104.0</ele><time>2026-04-06T11:30:50Z</time></trkpt><trkpt lat="45.46547325494374" lon="10.720286875292599"><ele>104.25</ele><time>2026-04-06T11:30:51Z</time></trkpt><trkpt lat="45.465338675065226" lon="10.720250560084102"><ele>104.5</ele><time>2026-04-06T11:30:52Z</time></trkpt><trkpt lat="45.46520115532704" lon="10.720217149820236"><ele>104.75</ele><time>2026-04-06T11:30:53Z</time></trkpt><trkpt lat="45.46506320686884" lon="10.720186723108263"><ele>105.0</ele><time>2026-04-06T11:30:54Z</time></trkpt><trkpt lat="45.46492674428676" lon="10.720135527590319"><ele>105.0</ele><time>2026-04-06T11:30:55Z</time></trkpt><trkpt lat="45.46478966614517" lon="10.72010629701587"><ele>105.0</ele><time>2026-04-06T11:30:56Z</time></trkpt><trkpt lat="45.46465318061117" lon="10.720080298142884"><ele>105.0</ele><time>2026-04-06T11:30:57Z</time></trkpt><trkpt lat="45.46451590332904" lon="10.720079315611626"><ele>105.0</ele><time>2026-04-06T11:30:58Z</time></trkpt><trkpt lat="45.464381217977106" lon="10.720050055593498"><ele>104.5</ele><time>2026-04-06T11:30:59Z</time></trkpt><trkpt lat="45.464246600508844" lon="10.720024304505138"><ele>104.0</ele><time>2026-04-06T11:31:00Z</time></trkpt><trkpt lat="45.46411447043569" lon="10.719997068042362"><ele>103.5</ele><time>2026-04-06T11:31:01Z</time></trkpt><trkpt lat="45.463986103778616" lon="10.719970126938255"><ele>103.0</ele><time>2026-04-06T11:31:02Z</time></trkpt><trkpt lat="45.463853297112685" lon="10.719920843229369"><ele>102.0</ele><time>2026-04-06T11:31:03Z</time></trkpt><trkpt lat="45.46373174727017" lon="10.719857148719486"><ele>101.0</ele><time>2026-04-06T11:31:04Z</time></trkpt><trkpt lat="45.4636075189836" lon="10.719784514690595"><ele>100.0</ele><time>2026-04-06T11:31:05Z</time></trkpt><trkpt lat="45.46348661385751" lon="10.719697680008098"><ele>99.0</ele><time>2026-04-06T11:31:06Z</time></trkpt><trkpt lat="45.46336904552008" lon="10.719595945286954"><ele>99.0</ele><time>2026-04-06T11:31:07Z</time></trkpt><trkpt lat="45.4632533378419" lon="10.719485824568617"><ele>99.0</ele><time>2026-04-06T11:31:08Z</time></trkpt><trkpt lat="45.463145608941296" lon="10.719369470309271"><ele>99.0</ele><time>2026-04-06T11:31:09Z</time></trkpt><trkpt lat="45.46304726030826" lon="10.719243449881033"><ele>99.0</ele><time>2026-04-06T11:31:10Z</time></trkpt><trkpt lat="45.462957604907366" lon="10.719113655542388"><ele>98.0</ele><time>2026-04-06T11:31:11Z</time></trkpt><trkpt lat="45.46288987377853" lon="10.718962867262407"><ele>97.0</ele><time>2026-04-06T11:31:12Z</time></trkpt><trkpt lat="45.4628089095557" lon="10.718836758575748"><ele>96.0</ele><time>2026-04-06T11:31:13Z</time></trkpt><trkpt lat="45.462747446968116" lon="10.718687825890175"><ele>95.0</ele><time>2026-04-06T11:31:14Z</time></trkpt><trkpt lat="45.46269338258094" lon="10.718547915669438"><ele>95.0</ele><time>2026-04-06T11:31:15Z</time></trkpt><trkpt lat="45.462640959105336" lon="10.718407252029008"><ele>95.0</ele><time>2026-04-06T11:31:16Z</time></trkpt><trkpt lat="45.46257649683138" lon="10.718276639770167"><ele>95.0</ele><time>2026-04-06T11:31:17Z</time></trkpt><trkpt lat="45.462502998756335" lon="10.71814097245308"><ele>95.0</ele><time>2026-04-06T11:31:18Z</time></trkpt><trkpt lat="45.462373360725486" lon="10.718065026268052"><ele>95.0</ele><time>2026-04-06T11:31:19Z</time></trkpt><trkpt lat="45.46225408952811" lon="10.717971855547395"><ele>95.0</ele><time>2026-04-06T11:31:20Z</time></trkpt><trkpt lat="45.46212820711345" lon="10.717874194886917"><ele>95.0</ele><time>2026-04-06T11:31:21Z</time></trkpt><trkpt lat="45.46200241123344" lon="10.71775799293224"><ele>95.0</ele><time>2026-04-06T11:31:22Z</time></trkpt><trkpt lat="45.461855210408835" lon="10.717710890297361"><ele>94.5</ele><time>2026-04-06T11:31:23Z</time></trkpt><trkpt lat="45.46170995818144" lon="10.7176588094422"><ele>94.0</ele><time>2026-04-06T11:31:24Z</time></trkpt><trkpt lat="45.46157136010022" lon="10.717585059532027"><ele>93.5</ele><time>2026-04-06T11:31:25Z</time></trkpt><trkpt lat="45.46143300697581" lon="10.717533658859098"><ele>93.0</ele><time>2026-04-06T11:31:26Z</time></trkpt><trkpt lat="45.4613037402721" lon="10.717485634050652"><ele>93.5</ele><time>2026-04-06T11:31:27Z</time></trkpt><trkpt lat="45.46118321609982" lon="10.717440857223647"><ele>94.0</ele><time>2026-04-06T11:31:28Z</time></trkpt><trkpt lat="45.46107325118098" lon="10.717400312073414"><ele>94.5</ele><time>2026-04-06T11:31:29Z</time></trkpt><trkpt lat="45.460946140967586" lon="10.717354094250565"><ele>95.0</ele><time>2026-04-06T11:31:30Z</time></trkpt><trkpt lat="45.46079833708456" lon="10.717300351386903"><ele>95.0</ele><time>2026-04-06T11:31:31Z</time></trkpt><trkpt lat="45.46063941337035" lon="10.717244880920031"><ele>95.0</ele><time>2026-04-06T11:31:32Z</time></trkpt><trkpt lat="45.460480740601874" lon="10.717184193820678"><ele>95.0</ele><time>2026-04-06T11:31:33Z</time></trkpt><trkpt lat="45.46032149171067" lon="10.717124431782764"><ele>94.33333333333334</ele><time>2026-04-06T11:31:34Z</time></trkpt><trkpt lat="45.46015975739525" lon="10.717090383195188"><ele>93.66666666666667</ele><time>2026-04-06T11:31:35Z</time></trkpt><trkpt lat="45.46000557088981" lon="10.7170278197396"><ele>93.0</ele><time>2026-04-06T11:31:36Z</time></trkpt><trkpt lat="45.45985248954385" lon="10.716968982948119"><ele>93.0</ele><time>2026-04-06T11:31:37Z</time></trkpt><trkpt lat="45.45969800196965" lon="10.71690761989217"><ele>93.0</ele><time>2026-04-06T11:31:38Z</time></trkpt><trkpt lat="45.459546975674975" lon="10.71684553656974"><ele>93.0</ele><time>2026-04-06T11:31:39Z</time></trkpt><trkpt lat="45.45939469610215" lon="10.716781103773881"><ele>93.0</ele><time>2026-04-06T11:31:40Z</time></trkpt><trkpt lat="45.45924180536735" lon="10.716719754496118"><ele>93.0</ele><time>2026-04-06T11:31:41Z</time></trkpt><trkpt lat="45.459090293663195" lon="10.716665098166652"><ele>93.0</ele><time>2026-04-06T11:31:42Z</time></trkpt><trkpt lat="45.45893650391598" lon="10.716619831747572"><ele>92.66666666666667</ele><time>2026-04-06T11:31:43Z</time></trkpt><trkpt lat="45.458780953420394" lon="10.71657487340417"><ele>92.33333333333334</ele><time>2026-04-06T11:31:44Z</time></trkpt><trkpt lat="45.45862534965562" lon="10.716527911769587"><ele>92.0</ele><time>2026-04-06T11:31:45Z</time></trkpt><trkpt lat="45.458465728290044" lon="10.71648399083923"><ele>92.0</ele><time>2026-04-06T11:31:46Z</time></trkpt><trkpt lat="45.458305996621135" lon="10.716444889057385"><ele>92.0</ele><time>2026-04-06T11:31:47Z</time></trkpt><trkpt lat="45.45814493542238" lon="10.716403232116683"><ele>92.0</ele><time>2026-04-06T11:31:48Z</time></trkpt><trkpt lat="45.457983057666695" lon="10.716354518084863"><ele>90.33333333333334</ele><time>2026-04-06T11:31:49Z</time></trkpt><trkpt lat="45.457819850289376" lon="10.716304893565482"><ele>88.66666666666667</ele><time>2026-04-06T11:31:50Z</time></trkpt><trkpt lat="45.4576578076676" lon="10.716257389054174"><ele>87.0</ele><time>2026-04-06T11:31:51Z</time></trkpt><trkpt lat="45.45749483763628" lon="10.716207995186942"><ele>87.0</ele><time>2026-04-06T11:31:52Z</time></trkpt><trkpt lat="45.45733117609035" lon="10.716157626569277"><ele>87.0</ele><time>2026-04-06T11:31:53Z</time></trkpt><trkpt lat="45.457171596288056" lon="10.71610659273433"><ele>87.0</ele><time>2026-04-06T11:31:54Z</time></trkpt><trkpt lat="45.45701164885517" lon="10.716057776678971"><ele>86.33333333333333</ele><time>2026-04-06T11:31:55Z</time></trkpt><trkpt lat="45.456850964614546" lon="10.716006774017721"><ele>85.66666666666666</ele><time>2026-04-06T11:31:56Z</time></trkpt><trkpt lat="45.45669121088552" lon="10.715954260179359"><ele>85.0</ele><time>2026-04-06T11:31:57Z</time></trkpt><trkpt lat="45.45653152400003" lon="10.715900195353893"><ele>85.0</ele><time>2026-04-06T11:31:58Z</time></trkpt><trkpt lat="45.45637156192295" lon="10.715845360069832"><ele>85.0</ele><time>2026-04-06T11:31:59Z</time></trkpt><trkpt lat="45.45621309477262" lon="10.715793133348209"><ele>85.0</ele><time>2026-04-06T11:32:00Z</time></trkpt><trkpt lat="45.45605726819272" lon="10.715736970068026"><ele>84.0</ele><time>2026-04-06T11:32:01Z</time></trkpt><trkpt lat="45.45590331414244" lon="10.715678165756579"><ele>83.0</ele><time>2026-04-06T11:32:02Z</time></trkpt><trkpt lat="45.45574978960105" lon="10.715618933074888"><ele>82.0</ele><time>2026-04-06T11:32:03Z</time></trkpt><trkpt lat="45.45559759964775" lon="10.715559097241174"><ele>83.0</ele><time>2026-04-06T11:32:04Z</time></trkpt><trkpt lat="45.45544679203938" lon="10.715498899307352"><ele>84.0</ele><time>2026-04-06T11:32:05Z</time></trkpt><trkpt lat="45.455297381884776" lon="10.715441904673682"><ele>85.0</ele><time>2026-04-06T11:32:06Z</time></trkpt><trkpt lat="45.45515266840706" lon="10.715360755370998"><ele>85.0</ele><time>2026-04-06T11:32:07Z</time></trkpt><trkpt lat="45.45500483421606" lon="10.715322730536924"><ele>85.0</ele><time>2026-04-06T11:32:08Z</time></trkpt><trkpt lat="45.454863530906444" lon="10.715265626669419"><ele>85.0</ele><time>2026-04-06T11:32:09Z</time></trkpt><trkpt lat="45.45472748264325" lon="10.715190719085006"><ele>85.0</ele><time>2026-04-06T11:32:10Z</time></trkpt><trkpt lat="45.45458907358673" lon="10.715135256125425"><ele>86.0</ele><time>2026-04-06T11:32:11Z</time></trkpt><trkpt lat="45.45444998971868" lon="10.715079471363486"><ele>87.0</ele><time>2026-04-06T11:32:12Z</time></trkpt><trkpt lat="45.45431258172592" lon="10.715024360668895"><ele>88.0</ele><time>2026-04-06T11:32:13Z</time></trkpt><trkpt lat="45.45417125083088" lon="10.714990759943248"><ele>89.0</ele><time>2026-04-06T11:32:14Z</time></trkpt><trkpt lat="45.45403910892739" lon="10.714927889872936"><ele>89.0</ele><time>2026-04-06T11:32:15Z</time></trkpt><trkpt lat="45.45390567993631" lon="10.714870961706659"><ele>89.0</ele><time>2026-04-06T11:32:16Z</time></trkpt><trkpt lat="45.45377023261242" lon="10.71481623966406"><ele>89.0</ele><time>2026-04-06T11:32:17Z</time></trkpt><trkpt lat="45.453634591406434" lon="10.714763571385918"><ele>89.0</ele><time>2026-04-06T11:32:18Z</time></trkpt><trkpt lat="45.45349705524476" lon="10.714712973137306"><ele>89.5</ele><time>2026-04-06T11:32:19Z</time></trkpt><trkpt lat="45.4533589859562" lon="10.714667311478136"><ele>90.0</ele><time>2026-04-06T11:32:20Z</time></trkpt><trkpt lat="45.4532232405427" lon="10.714595778527178"><ele>90.5</ele><time>2026-04-06T11:32:21Z</time></trkpt><trkpt lat="45.45308442732153" lon="10.714546545407286"><ele>91.0</ele><time>2026-04-06T11:32:22Z</time></trkpt><trkpt lat="45.45294422729437" lon="10.714498949170128"><ele>91.0</ele><time>2026-04-06T11:32:23Z</time></trkpt><trkpt lat="45.45280646898712" lon="10.71445287227024"><ele>91.0</ele><time>2026-04-06T11:32:24Z</time></trkpt><trkpt lat="45.452668230575746" lon="10.714406092766717"><ele>91.0</ele><time>2026-04-06T11:32:25Z</time></trkpt><trkpt lat="45.452533742261316" lon="10.714372838947472"><ele>91.0</ele><time>2026-04-06T11:32:26Z</time></trkpt><trkpt lat="45.45241988629778" lon="10.714281876098164"><ele>91.0</ele><time>2026-04-06T11:32:27Z</time></trkpt><trkpt lat="45.45230664047579" lon="10.714198613159027"><ele>91.0</ele><time>2026-04-06T11:32:28Z</time></trkpt><trkpt lat="45.45219131668544" lon="10.714109239924628"><ele>91.0</ele><time>2026-04-06T11:32:29Z</time></trkpt><trkpt lat="45.4520787504793" lon="10.714018045000266"><ele>91.0</ele><time>2026-04-06T11:32:30Z</time></trkpt><trkpt lat="45.45196536180944" lon="10.713923002819023"><ele>91.0</ele><time>2026-04-06T11:32:31Z</time></trkpt><trkpt lat="45.45185950092053" lon="10.713834270436083"><ele>91.0</ele><time>2026-04-06T11:32:32Z</time></trkpt><trkpt lat="45.45176194735381" lon="10.713752198812113"><ele>91.0</ele><time>2026-04-06T11:32:33Z</time></trkpt><trkpt lat="45.45167441262578" lon="10.713677346219622"><ele>91.0</ele><time>2026-04-06T11:32:34Z</time></trkpt><trkpt lat="45.45160039246322" lon="10.713614050030595"><ele>91.0</ele><time>2026-04-06T11:32:35Z</time></trkpt><trkpt lat="45.451536462728455" lon="10.713559382688196"><ele>91.0</ele><time>2026-04-06T11:32:36Z</time></trkpt><trkpt lat="45.45147585693766" lon="10.71350819292927"><ele>91.0</ele><time>2026-04-06T11:32:37Z</time></trkpt><trkpt lat="45.451419024870624" lon="10.713461265635116"><ele>91.0</ele><time>2026-04-06T11:32:38Z</time></trkpt><trkpt lat="45.45134462120624" lon="10.713401446582234"><ele>91.0</ele><time>2026-04-06T11:32:40Z</time></trkpt><trkpt lat="45.45128095517916" lon="10.713368759319973"><ele>91.0</ele><time>2026-04-06T11:32:42Z</time></trkpt><trkpt lat="45.45122575392577" lon="10.713301521668159"><ele>91.0</ele><time>2026-04-06T11:32:44Z</time></trkpt><trkpt lat="45.45117114537032" lon="10.713188250746839"><ele>90.33333333333333</ele><time>2026-04-06T11:32:46Z</time></trkpt><trkpt lat="45.451146739914996" lon="10.713102077188008"><ele>89.66666666666666</ele><time>2026-04-06T11:32:47Z</time></trkpt><trkpt lat="45.45111862858425" lon="10.71300615354631"><ele>89.0</ele><time>2026-04-06T11:32:48Z</time></trkpt><trkpt lat="45.451070103417685" lon="10.712916563811048"><ele>88.33333333333333</ele><time>2026-04-06T11:32:49Z</time></trkpt><trkpt lat="45.451019527752884" lon="10.712827543600714"><ele>87.66666666666667</ele><time>2026-04-06T11:32:50Z</time></trkpt><trkpt lat="45.45093211673537" lon="10.712815615450037"><ele>87.0</ele><time>2026-04-06T11:32:51Z</time></trkpt><trkpt lat="45.450857624671215" lon="10.7128107151992"><ele>87.0</ele><time>2026-04-06T11:32:52Z</time></trkpt><trkpt lat="45.4507856777708" lon="10.712827411435672"><ele>87.0</ele><time>2026-04-06T11:32:53Z</time></trkpt><trkpt lat="45.45071108954406" lon="10.712837339375595"><ele>87.0</ele><time>2026-04-06T11:32:54Z</time></trkpt><trkpt lat="45.45063305212398" lon="10.71281833440685"><ele>87.0</ele><time>2026-04-06T11:32:55Z</time></trkpt><trkpt lat="45.450548111366565" lon="10.712781006825402"><ele>87.0</ele><time>2026-04-06T11:32:56Z</time></trkpt><trkpt lat="45.45045729858911" lon="10.712727604349029"><ele>87.0</ele><time>2026-04-06T11:32:57Z</time></trkpt><trkpt lat="45.45036069634342" lon="10.712664061546436"><ele>87.0</ele><time>2026-04-06T11:32:58Z</time></trkpt><trkpt lat="45.4502627555668" lon="10.712599048674639"><ele>87.0</ele><time>2026-04-06T11:32:59Z</time></trkpt><trkpt lat="45.45015787666928" lon="10.712529000281869"><ele>87.0</ele><time>2026-04-06T11:33:00Z</time></trkpt><trkpt lat="45.45004725771014" lon="10.712455341564784"><ele>87.0</ele><time>2026-04-06T11:33:01Z</time></trkpt><trkpt lat="45.44993028751974" lon="10.712376212918022"><ele>87.0</ele><time>2026-04-06T11:33:02Z</time></trkpt><trkpt lat="45.449811369720734" lon="10.71229656967547"><ele>87.0</ele><time>2026-04-06T11:33:03Z</time></trkpt><trkpt lat="45.449690849714486" lon="10.712213396787316"><ele>87.0</ele><time>2026-04-06T11:33:04Z</time></trkpt><trkpt lat="45.449567016114464" lon="10.712130318949589"><ele>87.0</ele><time>2026-04-06T11:33:05Z</time></trkpt><trkpt lat="45.44944176157176" lon="10.71204257321242"><ele>87.0</ele><time>2026-04-06T11:33:06Z</time></trkpt><trkpt lat="45.449314376188866" lon="10.71195480098091"><ele>87.0</ele><time>2026-04-06T11:33:07Z</time></trkpt><trkpt lat="45.44918071750448" lon="10.711862957150002"><ele>87.0</ele><time>2026-04-06T11:33:08Z</time></trkpt><trkpt lat="45.449045520629895" lon="10.711768563825382"><ele>87.0</ele><time>2026-04-06T11:33:09Z</time></trkpt><trkpt lat="45.44890919696301" lon="10.711675425577331"><ele>88.33333333333333</ele><time>2026-04-06T11:33:10Z</time></trkpt><trkpt lat="45.448770916007724" lon="10.711583462613806"><ele>89.66666666666666</ele><time>2026-04-06T11:33:11Z</time></trkpt><trkpt lat="45.44863491020663" lon="10.711495130277248"><ele>91.0</ele><time>2026-04-06T11:33:12Z</time></trkpt><trkpt lat="45.44849991292601" lon="10.711403941751307"><ele>91.0</ele><time>2026-04-06T11:33:13Z</time></trkpt><trkpt lat="45.448364483109835" lon="10.711310118445466"><ele>91.0</ele><time>2026-04-06T11:33:14Z</time></trkpt><trkpt lat="45.44823060229557" lon="10.711219908020304"><ele>91.0</ele><time>2026-04-06T11:33:15Z</time></trkpt><trkpt lat="45.44809345869321" lon="10.711128504193848"><ele>89.66666666666666</ele><time>2026-04-06T11:33:16Z</time></trkpt><trkpt lat="45.447958697265285" lon="10.711038758120473"><ele>88.33333333333333</ele><time>2026-04-06T11:33:17Z</time></trkpt><trkpt lat="45.44782083592225" lon="10.710949580741785"><ele>87.0</ele><time>2026-04-06T11:33:18Z</time></trkpt><trkpt lat="45.44768454365308" lon="10.710859378041137"><ele>87.0</ele><time>2026-04-06T11:33:19Z</time></trkpt><trkpt lat="45.447549372536216" lon="10.71076966575677"><ele>87.0</ele><time>2026-04-06T11:33:20Z</time></trkpt><trkpt lat="45.4474161038672" lon="10.710679484103236"><ele>87.0</ele><time>2026-04-06T11:33:21Z</time></trkpt><trkpt lat="45.4472838688982" lon="10.71059173200685"><ele>87.0</ele><time>2026-04-06T11:33:22Z</time></trkpt><trkpt lat="45.44715667381092" lon="10.710502070435467"><ele>87.0</ele><time>2026-04-06T11:33:23Z</time></trkpt><trkpt lat="45.44703013891248" lon="10.710410091439272"><ele>87.0</ele><time>2026-04-06T11:33:24Z</time></trkpt><trkpt lat="45.44690727154316" lon="10.710316385587376"><ele>87.0</ele><time>2026-04-06T11:33:25Z</time></trkpt><trkpt lat="45.44678753374443" lon="10.710216475932066"><ele>87.0</ele><time>2026-04-06T11:33:26Z</time></trkpt><trkpt lat="45.44667651869832" lon="10.710105244251695"><ele>87.0</ele><time>2026-04-06T11:33:27Z</time></trkpt><trkpt lat="45.44656977484884" lon="10.709990119933437"><ele>87.0</ele><time>2026-04-06T11:33:28Z</time></trkpt><trkpt lat="45.44647670525467" lon="10.709877413158644"><ele>87.0</ele><time>2026-04-06T11:33:29Z</time></trkpt><trkpt lat="45.44639708607357" lon="10.709757073761443"><ele>87.0</ele><time>2026-04-06T11:33:30Z</time></trkpt><trkpt lat="45.44632348473338" lon="10.709635116396482"><ele>87.0</ele><time>2026-04-06T11:33:31Z</time></trkpt><trkpt lat="45.44625749883938" lon="10.709512148262187"><ele>87.0</ele><time>2026-04-06T11:33:32Z</time></trkpt><trkpt lat="45.44619784904259" lon="10.709392870733724"><ele>87.0</ele><time>2026-04-06T11:33:33Z</time></trkpt><trkpt lat="45.44614045456296" lon="10.709281286800593"><ele>87.0</ele><time>2026-04-06T11:33:34Z</time></trkpt><trkpt lat="45.446086653339066" lon="10.709179903507321"><ele>87.0</ele><time>2026-04-06T11:33:35Z</time></trkpt><trkpt lat="45.446038624909875" lon="10.709084573423773"><ele>87.0</ele><time>2026-04-06T11:33:36Z</time></trkpt><trkpt lat="45.44599308912465" lon="10.708992141668444"><ele>87.0</ele><time>2026-04-06T11:33:37Z</time></trkpt><trkpt lat="45.445950484002864" lon="10.708901767610426"><ele>87.0</ele><time>2026-04-06T11:33:38Z</time></trkpt><trkpt lat="45.445916970008625" lon="10.708819034299342"><ele>87.0</ele><time>2026-04-06T11:33:39Z</time></trkpt><trkpt lat="45.44589117536384" lon="10.708733068246689"><ele>87.0</ele><time>2026-04-06T11:33:40Z</time></trkpt><trkpt lat="45.44587869947508" lon="10.70864402521283"><ele>87.0</ele><time>2026-04-06T11:33:42Z</time></trkpt><trkpt lat="45.44587055758455" lon="10.708547344095674"><ele>87.0</ele><time>2026-04-06T11:33:45Z</time></trkpt><trkpt lat="45.44587555188779" lon="10.708370184174237"><ele>86.5</ele><time>2026-04-06T11:33:47Z</time></trkpt><trkpt lat="45.445859675596" lon="10.708282327707222"><ele>86.0</ele><time>2026-04-06T11:33:48Z</time></trkpt><trkpt lat="45.44582511687855" lon="10.708201269089837"><ele>85.5</ele><time>2026-04-06T11:33:49Z</time></trkpt><trkpt lat="45.44577375523092" lon="10.70813518526369"><ele>85.0</ele><time>2026-04-06T11:33:50Z</time></trkpt><trkpt lat="45.44570925826007" lon="10.708079781152405"><ele>84.5</ele><time>2026-04-06T11:33:51Z</time></trkpt><trkpt lat="45.44563160255671" lon="10.70802465874116"><ele>84.0</ele><time>2026-04-06T11:33:52Z</time></trkpt><trkpt lat="45.44554996967816" lon="10.707956655183976"><ele>84.0</ele><time>2026-04-06T11:33:53Z</time></trkpt><trkpt lat="45.445479320431666" lon="10.707867878873097"><ele>84.0</ele><time>2026-04-06T11:33:54Z</time></trkpt><trkpt lat="45.44542179351034" lon="10.707775077667911"><ele>84.0</ele><time>2026-04-06T11:33:55Z</time></trkpt><trkpt lat="45.44537102800578" lon="10.70767753523785"><ele>84.0</ele><time>2026-04-06T11:33:56Z</time></trkpt><trkpt lat="45.44531338424089" lon="10.707577397417738"><ele>84.0</ele><time>2026-04-06T11:33:57Z</time></trkpt><trkpt lat="45.44526118532539" lon="10.707441844464869"><ele>84.25</ele><time>2026-04-06T11:33:58Z</time></trkpt><trkpt lat="45.445182023536525" lon="10.707318704902825"><ele>84.5</ele><time>2026-04-06T11:33:59Z</time></trkpt><trkpt lat="45.445080238301266" lon="10.707215788493661"><ele>84.75</ele><time>2026-04-06T11:34:00Z</time></trkpt><trkpt lat="45.444985135362046" lon="10.707089424260685"><ele>85.0</ele><time>2026-04-06T11:34:01Z</time></trkpt><trkpt lat="45.44488225541752" lon="10.706968895535585"><ele>84.75</ele><time>2026-04-06T11:34:02Z</time></trkpt><trkpt lat="45.444772664512506" lon="10.706846535410406"><ele>84.5</ele><time>2026-04-06T11:34:03Z</time></trkpt><trkpt lat="45.44466006985021" lon="10.706723402618946"><ele>84.25</ele><time>2026-04-06T11:34:04Z</time></trkpt><trkpt lat="45.44454598429359" lon="10.706599248192862"><ele>84.0</ele><time>2026-04-06T11:34:05Z</time></trkpt><trkpt lat="45.444434490881896" lon="10.706475185940276"><ele>84.0</ele><time>2026-04-06T11:34:06Z</time></trkpt><trkpt lat="45.44432184295384" lon="10.70635527042797"><ele>84.0</ele><time>2026-04-06T11:34:07Z</time></trkpt><trkpt lat="45.444220277575546" lon="10.706213690781565"><ele>84.0</ele><time>2026-04-06T11:34:08Z</time></trkpt><trkpt lat="45.444108333500544" lon="10.706089095342401"><ele>84.0</ele><time>2026-04-06T11:34:09Z</time></trkpt><trkpt lat="45.443985300386146" lon="10.70599068602786"><ele>84.25</ele><time>2026-04-06T11:34:10Z</time></trkpt><trkpt lat="45.44387784325649" lon="10.705870233698253"><ele>84.5</ele><time>2026-04-06T11:34:11Z</time></trkpt><trkpt lat="45.44377224442086" lon="10.705750249583962"><ele>84.75</ele><time>2026-04-06T11:34:12Z</time></trkpt><trkpt lat="45.44366866579718" lon="10.705633745102215"><ele>85.0</ele><time>2026-04-06T11:34:13Z</time></trkpt><trkpt lat="45.443566386390074" lon="10.705518354823592"><ele>85.0</ele><time>2026-04-06T11:34:14Z</time></trkpt><trkpt lat="45.44346706759404" lon="10.705397213769418"><ele>85.0</ele><time>2026-04-06T11:34:15Z</time></trkpt><trkpt lat="45.44337144398586" lon="10.70526839267036"><ele>85.0</ele><time>2026-04-06T11:34:16Z</time></trkpt><trkpt lat="45.44328143421923" lon="10.705132213613995"><ele>85.0</ele><time>2026-04-06T11:34:17Z</time></trkpt><trkpt lat="45.44319550327036" lon="10.704988916962519"><ele>83.75</ele><time>2026-04-06T11:34:18Z</time></trkpt><trkpt lat="45.443118524014395" lon="10.70484140093283"><ele>82.5</ele><time>2026-04-06T11:34:19Z</time></trkpt><trkpt lat="45.44305149338079" lon="10.704691606618132"><ele>81.25</ele><time>2026-04-06T11:34:20Z</time></trkpt><trkpt lat="45.4429942415617" lon="10.704542544849474"><ele>80.0</ele><time>2026-04-06T11:34:21Z</time></trkpt><trkpt lat="45.44294056440018" lon="10.704392285718836"><ele>78.6</ele><time>2026-04-06T11:34:22Z</time></trkpt><trkpt lat="45.44289228705663" lon="10.704238989104592"><ele>77.2</ele><time>2026-04-06T11:34:23Z</time></trkpt><trkpt lat="45.442844796390716" lon="10.704092959987268"><ele>75.8</ele><time>2026-04-06T11:34:24Z</time></trkpt><trkpt lat="45.44279936406812" lon="10.703958600204762"><ele>74.4</ele><time>2026-04-06T11:34:25Z</time></trkpt><trkpt lat="45.44275505887726" lon="10.70382287417716"><ele>73.0</ele><time>2026-04-06T11:34:26Z</time></trkpt><trkpt lat="45.442712308977896" lon="10.703695972390447"><ele>72.8</ele><time>2026-04-06T11:34:27Z</time></trkpt><trkpt lat="45.442671963442955" lon="10.703575496208181"><ele>72.6</ele><time>2026-04-06T11:34:28Z</time></trkpt><trkpt lat="45.44263044795139" lon="10.70345419441125"><ele>72.4</ele><time>2026-04-06T11:34:29Z</time></trkpt><trkpt lat="45.44259023838947" lon="10.703329836300925"><ele>72.2</ele><time>2026-04-06T11:34:30Z</time></trkpt><trkpt lat="45.4425485590515" lon="10.7032075386884"><ele>72.0</ele><time>2026-04-06T11:34:31Z</time></trkpt><trkpt lat="45.44250684386196" lon="10.70308614644008"><ele>72.0</ele><time>2026-04-06T11:34:32Z</time></trkpt><trkpt lat="45.442465406905626" lon="10.702965403420517"><ele>72.0</ele><time>2026-04-06T11:34:33Z</time></trkpt><trkpt lat="45.442424412346135" lon="10.70284590591659"><ele>72.0</ele><time>2026-04-06T11:34:34Z</time></trkpt><trkpt lat="45.44238099626003" lon="10.702725679844423"><ele>72.0</ele><time>2026-04-06T11:34:35Z</time></trkpt><trkpt lat="45.442338089594706" lon="10.702608461876476"><ele>72.0</ele><time>2026-04-06T11:34:36Z</time></trkpt><trkpt lat="45.442293298952016" lon="10.702492854906403"><ele>71.8</ele><time>2026-04-06T11:34:37Z</time></trkpt><trkpt lat="45.442242993329934" lon="10.702383752157395"><ele>71.6</ele><time>2026-04-06T11:34:38Z</time></trkpt><trkpt lat="45.44218942063036" lon="10.702279487061169"><ele>71.39999999999999</ele><time>2026-04-06T11:34:39Z</time></trkpt><trkpt lat="45.44213185548115" lon="10.702173993699612"><ele>71.2</ele><time>2026-04-06T11:34:40Z</time></trkpt><trkpt lat="45.442074636486744" lon="10.702080754181711"><ele>71.0</ele><time>2026-04-06T11:34:41Z</time></trkpt><trkpt lat="45.442012071458755" lon="10.70198387510067"><ele>70.83333333333334</ele><time>2026-04-06T11:34:42Z</time></trkpt><trkpt lat="45.441940718058" lon="10.701892345981788"><ele>70.66666666666667</ele><time>2026-04-06T11:34:43Z</time></trkpt><trkpt lat="45.441872111056526" lon="10.70181426709445"><ele>70.5</ele><time>2026-04-06T11:34:44Z</time></trkpt><trkpt lat="45.44180847158738" lon="10.701743848073688"><ele>70.33333333333333</ele><time>2026-04-06T11:34:45Z</time></trkpt><trkpt lat="45.44175033118352" lon="10.701679717544206"><ele>70.16666666666666</ele><time>2026-04-06T11:34:46Z</time></trkpt><trkpt lat="45.44169646220644" lon="10.701615528907595"><ele>70.0</ele><time>2026-04-06T11:34:47Z</time></trkpt><trkpt lat="45.441645447438475" lon="10.701555110175518"><ele>70.0</ele><time>2026-04-06T11:34:48Z</time></trkpt><trkpt lat="45.44158671405929" lon="10.701492466666831"><ele>70.0</ele><time>2026-04-06T11:34:49Z</time></trkpt><trkpt lat="45.44152796000777" lon="10.701431058308453"><ele>70.0</ele><time>2026-04-06T11:34:50Z</time></trkpt><trkpt lat="45.441465623240006" lon="10.701363865154788"><ele>70.0</ele><time>2026-04-06T11:34:51Z</time></trkpt><trkpt lat="45.44140655684961" lon="10.701297165938682"><ele>70.0</ele><time>2026-04-06T11:34:52Z</time></trkpt><trkpt lat="45.441347159095166" lon="10.701234756655682"><ele>70.0</ele><time>2026-04-06T11:34:53Z</time></trkpt><trkpt lat="45.44129001666589" lon="10.701170669124826"><ele>70.0</ele><time>2026-04-06T11:34:54Z</time></trkpt><trkpt lat="45.4412330084435" lon="10.701104428519692"><ele>70.16666666666666</ele><time>2026-04-06T11:34:55Z</time></trkpt><trkpt lat="45.441179920970434" lon="10.701041521594528"><ele>70.33333333333333</ele><time>2026-04-06T11:34:56Z</time></trkpt><trkpt lat="45.44112657648477" lon="10.700984468227729"><ele>70.5</ele><time>2026-04-06T11:34:57Z</time></trkpt><trkpt lat="45.44104966254319" lon="10.700914173921403"><ele>70.66666666666667</ele><time>2026-04-06T11:34:59Z</time></trkpt><trkpt lat="45.44100710293977" lon="10.700822877741912"><ele>70.83333333333334</ele><time>2026-04-06T11:35:03Z</time></trkpt><trkpt lat="45.44093335445873" lon="10.700741345352123"><ele>71.0</ele><time>2026-04-06T11:35:06Z</time></trkpt><trkpt lat="45.440868269401136" lon="10.700668674423063"><ele>71.0</ele><time>2026-04-06T11:35:08Z</time></trkpt><trkpt lat="45.44078793297963" lon="10.700577706242553"><ele>71.0</ele><time>2026-04-06T11:35:10Z</time></trkpt><trkpt lat="45.44069757951427" lon="10.700475333007812"><ele>71.0</ele><time>2026-04-06T11:35:12Z</time></trkpt><trkpt lat="45.440635752392204" lon="10.700406050676051"><ele>71.0</ele><time>2026-04-06T11:35:13Z</time></trkpt><trkpt lat="45.44056906458525" lon="10.700331078534573"><ele>71.0</ele><time>2026-04-06T11:35:14Z</time></trkpt><trkpt lat="45.44050772867043" lon="10.700259792741258"><ele>70.66666666666667</ele><time>2026-04-06T11:35:15Z</time></trkpt><trkpt lat="45.44045200089478" lon="10.70019149615181"><ele>70.33333333333334</ele><time>2026-04-06T11:35:16Z</time></trkpt><trkpt lat="45.44040477796804" lon="10.700128251053373"><ele>70.0</ele><time>2026-04-06T11:35:17Z</time></trkpt><trkpt lat="45.44033196041058" lon="10.700025123840833"><ele>69.66666666666667</ele><time>2026-04-06T11:35:19Z</time></trkpt><trkpt lat="45.440311587432745" lon="10.699889135477875"><ele>69.33333333333333</ele><time>2026-04-06T11:35:21Z</time></trkpt><trkpt lat="45.44027941200094" lon="10.69974451730775"><ele>69.0</ele><time>2026-04-06T11:35:23Z</time></trkpt><trkpt lat="45.44027572414034" lon="10.699623464525565"><ele>69.0</ele><time>2026-04-06T11:35:25Z</time></trkpt><trkpt lat="45.44028660046218" lon="10.699515421739902"><ele>69.0</ele><time>2026-04-06T11:35:27Z</time></trkpt><trkpt lat="45.440312164478016" lon="10.699402275972117"><ele>69.0</ele><time>2026-04-06T11:35:31Z</time></trkpt><trkpt lat="45.4403475370075" lon="10.699295063577486"><ele>69.0</ele><time>2026-04-06T11:35:33Z</time></trkpt><trkpt lat="45.440395293992815" lon="10.699136680476446"><ele>69.0</ele><time>2026-04-06T11:35:35Z</time></trkpt><trkpt lat="45.44041168772643" lon="10.699026525155952"><ele>69.0</ele><time>2026-04-06T11:35:36Z</time></trkpt><trkpt lat="45.440430638443324" lon="10.698913554620885"><ele>68.5</ele><time>2026-04-06T11:35:37Z</time></trkpt><trkpt lat="45.44046294394809" lon="10.698806407662508"><ele>68.0</ele><time>2026-04-06T11:35:38Z</time></trkpt><trkpt lat="45.440502248464725" lon="10.69870609700654"><ele>67.5</ele><time>2026-04-06T11:35:39Z</time></trkpt><trkpt lat="45.440542481863616" lon="10.698617196017485"><ele>67.0</ele><time>2026-04-06T11:35:40Z</time></trkpt><trkpt lat="45.440590619019794" lon="10.698524931372587"><ele>66.5</ele><time>2026-04-06T11:35:42Z</time></trkpt><trkpt lat="45.44064073650957" lon="10.698431385150839"><ele>66.0</ele><time>2026-04-06T11:35:44Z</time></trkpt><trkpt lat="45.44068286236129" lon="10.698295231907034"><ele>65.8</ele><time>2026-04-06T11:35:46Z</time></trkpt><trkpt lat="45.44070104342495" lon="10.698167262482077"><ele>65.6</ele><time>2026-04-06T11:35:48Z</time></trkpt><trkpt lat="45.440706716100344" lon="10.698046404951123"><ele>65.4</ele><time>2026-04-06T11:35:50Z</time></trkpt><trkpt lat="45.44070632297353" lon="10.697907832477082"><ele>65.2</ele><time>2026-04-06T11:35:52Z</time></trkpt><trkpt lat="45.440704758550346" lon="10.697770053087284"><ele>65.0</ele><time>2026-04-06T11:35:54Z</time></trkpt><trkpt lat="45.44070247951167" lon="10.697606192635867"><ele>65.0</ele><time>2026-04-06T11:35:56Z</time></trkpt><trkpt lat="45.44070164663933" lon="10.697477302472809"><ele>65.0</ele><time>2026-04-06T11:35:58Z</time></trkpt><trkpt lat="45.440700355130346" lon="10.6973633277564"><ele>65.0</ele><time>2026-04-06T11:36:00Z</time></trkpt><trkpt lat="45.440694808447645" lon="10.697234305449605"><ele>65.0</ele><time>2026-04-06T11:36:02Z</time></trkpt><trkpt lat="45.44068246604114" lon="10.697063778510799"><ele>65.0</ele><time>2026-04-06T11:36:04Z</time></trkpt><trkpt lat="45.44067079308684" lon="10.69696500356811"><ele>65.2</ele><time>2026-04-06T11:36:05Z</time></trkpt><trkpt lat="45.440655461303656" lon="10.696872225689624"><ele>65.4</ele><time>2026-04-06T11:36:06Z</time></trkpt><trkpt lat="45.44060093585914" lon="10.696714190747258"><ele>65.6</ele><time>2026-04-06T11:36:08Z</time></trkpt><trkpt lat="45.440519833930395" lon="10.696599905277154"><ele>65.8</ele><time>2026-04-06T11:36:10Z</time></trkpt><trkpt lat="45.44044538285018" lon="10.696551118592925"><ele>66.0</ele><time>2026-04-06T11:36:12Z</time></trkpt><trkpt lat="45.4403382285256" lon="10.69645999523599"><ele>66.16666666666667</ele><time>2026-04-06T11:36:14Z</time></trkpt><trkpt lat="45.44027075624241" lon="10.696434369728866"><ele>66.33333333333333</ele><time>2026-04-06T11:36:15Z</time></trkpt><trkpt lat="45.44020195571139" lon="10.69637643268891"><ele>66.5</ele><time>2026-04-06T11:36:17Z</time></trkpt><trkpt lat="45.44012783150339" lon="10.696322311204254"><ele>66.66666666666666</ele><time>2026-04-06T11:36:20Z</time></trkpt><trkpt lat="45.44007059855124" lon="10.696279463853871"><ele>66.83333333333333</ele><time>2026-04-06T11:36:22Z</time></trkpt><trkpt lat="45.439986299482534" lon="10.69617557157968"><ele>67.0</ele><time>2026-04-06T11:36:24Z</time></trkpt><trkpt lat="45.43991680300204" lon="10.696182058991491"><ele>67.0</ele><time>2026-04-06T11:36:25Z</time></trkpt><trkpt lat="45.439843772920156" lon="10.696126878318273"><ele>67.0</ele><time>2026-04-06T11:36:26Z</time></trkpt><trkpt lat="45.43976776374322" lon="10.696075777801898"><ele>67.0</ele><time>2026-04-06T11:36:27Z</time></trkpt><trkpt lat="45.439702733023644" lon="10.696026950552696"><ele>67.0</ele><time>2026-04-06T11:36:28Z</time></trkpt><trkpt lat="45.439643154971066" lon="10.695989181716538"><ele>67.0</ele><time>2026-04-06T11:36:29Z</time></trkpt><trkpt lat="45.43953706540318" lon="10.695898449943785"><ele>67.0</ele><time>2026-04-06T11:36:31Z</time></trkpt><trkpt lat="45.43945020122129" lon="10.695797365676746"><ele>67.0</ele><time>2026-04-06T11:36:33Z</time></trkpt><trkpt lat="45.439402567168244" lon="10.695638927070744"><ele>67.0</ele><time>2026-04-06T11:36:35Z</time></trkpt><trkpt lat="45.43941698304981" lon="10.695478076111124"><ele>67.0</ele><time>2026-04-06T11:36:37Z</time></trkpt><trkpt lat="45.43942157940928" lon="10.695353018493517"><ele>67.0</ele><time>2026-04-06T11:36:50Z</time></trkpt><trkpt lat="45.439471842036795" lon="10.695175288106418"><ele>67.33333333333333</ele><time>2026-04-06T11:36:52Z</time></trkpt><trkpt lat="45.439497164028495" lon="10.695069457166928"><ele>67.66666666666666</ele><time>2026-04-06T11:36:53Z</time></trkpt><trkpt lat="45.43952377368955" lon="10.694957022026415"><ele>68.0</ele><time>2026-04-06T11:36:54Z</time></trkpt><trkpt lat="45.439551330955375" lon="10.694840190428216"><ele>68.33333333333333</ele><time>2026-04-06T11:36:55Z</time></trkpt><trkpt lat="45.43957566290084" lon="10.694735484624134"><ele>68.66666666666667</ele><time>2026-04-06T11:36:56Z</time></trkpt><trkpt lat="45.43959627826206" lon="10.694646772036903"><ele>69.0</ele><time>2026-04-06T11:36:57Z</time></trkpt><trkpt lat="45.43962718145782" lon="10.694513788628951"><ele>69.0</ele><time>2026-04-06T11:36:59Z</time></trkpt><trkpt lat="45.43965290981325" lon="10.694403073680128"><ele>69.0</ele><time>2026-04-06T11:37:01Z</time></trkpt><trkpt lat="45.43967340725709" lon="10.694314868562342"><ele>69.0</ele><time>2026-04-06T11:37:02Z</time></trkpt><trkpt lat="45.439701212935866" lon="10.694195214412673"><ele>69.0</ele><time>2026-04-06T11:37:03Z</time></trkpt><trkpt lat="45.43971377929297" lon="10.69406930449249"><ele>69.0</ele><time>2026-04-06T11:37:04Z</time></trkpt><trkpt lat="45.439743556283936" lon="10.693964064863984"><ele>69.0</ele><time>2026-04-06T11:37:05Z</time></trkpt><trkpt lat="45.43977723117993" lon="10.6938295373896"><ele>69.0</ele><time>2026-04-06T11:37:07Z</time></trkpt><trkpt lat="45.43979587970914" lon="10.693720808718174"><ele>69.0</ele><time>2026-04-06T11:37:16Z</time></trkpt><trkpt lat="45.43980504843681" lon="10.693629410025848"><ele>69.0</ele><time>2026-04-06T11:37:18Z</time></trkpt><trkpt lat="45.43978130403336" lon="10.693475216992418"><ele>69.0</ele><time>2026-04-06T11:37:20Z</time></trkpt><trkpt lat="45.439733176258926" lon="10.69334439218313"><ele>69.0</ele><time>2026-04-06T11:37:22Z</time></trkpt><trkpt lat="45.43966972905528" lon="10.693234101014601"><ele>69.33333333333333</ele><time>2026-04-06T11:37:24Z</time></trkpt><trkpt lat="45.43958754679728" lon="10.693138679014663"><ele>69.66666666666667</ele><time>2026-04-06T11:37:26Z</time></trkpt><trkpt lat="45.43949964983226" lon="10.693074540866728"><ele>70.0</ele><time>2026-04-06T11:37:28Z</time></trkpt><trkpt lat="45.43942365207061" lon="10.693018141815338"><ele>70.33333333333334</ele><time>2026-04-06T11:37:30Z</time></trkpt><trkpt lat="45.43935125351017" lon="10.69296545207323"><ele>70.66666666666667</ele><time>2026-04-06T11:37:32Z</time></trkpt><trkpt lat="45.439291998348594" lon="10.692915855651208"><ele>71.0</ele><time>2026-04-06T11:37:35Z</time></trkpt><trkpt lat="45.43924604387339" lon="10.69284935151069"><ele>71.0</ele><time>2026-04-06T11:37:38Z</time></trkpt><trkpt lat="45.439212047560844" lon="10.692762749290251"><ele>71.0</ele><time>2026-04-06T11:37:40Z</time></trkpt><trkpt lat="45.439224295669256" lon="10.69264656523817"><ele>71.0</ele><time>2026-04-06T11:37:42Z</time></trkpt><trkpt lat="45.43924568026271" lon="10.692551411516483"><ele>71.0</ele><time>2026-04-06T11:37:48Z</time></trkpt><trkpt lat="45.43927299399931" lon="10.692436355267882"><ele>71.0</ele><time>2026-04-06T11:37:57Z</time></trkpt><trkpt lat="45.439299577038625" lon="10.692341547594127"><ele>71.0</ele><time>2026-04-06T11:37:58Z</time></trkpt><trkpt lat="45.43932918803993" lon="10.69224388965392"><ele>70.8</ele><time>2026-04-06T11:37:59Z</time></trkpt><trkpt lat="45.43936246356318" lon="10.692161967630701"><ele>70.6</ele><time>2026-04-06T11:38:00Z</time></trkpt><trkpt lat="45.43939236159228" lon="10.692073189604132"><ele>70.4</ele><time>2026-04-06T11:38:01Z</time></trkpt><trkpt lat="45.439451377389936" lon="10.691899573446532"><ele>70.2</ele><time>2026-04-06T11:38:03Z</time></trkpt><trkpt lat="45.43949629610723" lon="10.691773572933455"><ele>70.0</ele><time>2026-04-06T11:38:04Z</time></trkpt><trkpt lat="45.439544318149885" lon="10.691641499969823"><ele>69.8</ele><time>2026-04-06T11:38:05Z</time></trkpt><trkpt lat="45.43959113203569" lon="10.691509467057012"><ele>69.6</ele><time>2026-04-06T11:38:06Z</time></trkpt><trkpt lat="45.4396325907953" lon="10.6913999862299"><ele>69.4</ele><time>2026-04-06T11:38:07Z</time></trkpt><trkpt lat="45.43966753322583" lon="10.691306947389508"><ele>69.2</ele><time>2026-04-06T11:38:09Z</time></trkpt><trkpt lat="45.43973824948378" lon="10.691175154476618"><ele>69.0</ele><time>2026-04-06T11:38:11Z</time></trkpt><trkpt lat="45.43977580519108" lon="10.691077514424622"><ele>68.33333333333333</ele><time>2026-04-06T11:38:12Z</time></trkpt><trkpt lat="45.43982177226603" lon="10.690983849915115"><ele>67.66666666666667</ele><time>2026-04-06T11:38:13Z</time></trkpt><trkpt lat="45.43987101870125" lon="10.690902022944861"><ele>67.0</ele><time>2026-04-06T11:38:14Z</time></trkpt><trkpt lat="45.43991789494676" lon="10.690835870148952"><ele>66.33333333333334</ele><time>2026-04-06T11:38:15Z</time></trkpt><trkpt lat="45.4399723009674" lon="10.690729591695955"><ele>65.66666666666667</ele><time>2026-04-06T11:38:17Z</time></trkpt><trkpt lat="45.43999250817239" lon="10.690643145661397"><ele>65.0</ele><time>2026-04-06T11:38:20Z</time></trkpt><trkpt lat="45.440023531361405" lon="10.690546419091522"><ele>65.0</ele><time>2026-04-06T11:38:21Z</time></trkpt><trkpt lat="45.44004718119228" lon="10.690443163911242"><ele>65.0</ele><time>2026-04-06T11:38:22Z</time></trkpt><trkpt lat="45.440065071011325" lon="10.690342391785265"><ele>65.0</ele><time>2026-04-06T11:38:23Z</time></trkpt><trkpt lat="45.44010229578982" lon="10.690185182006486"><ele>65.0</ele><time>2026-04-06T11:38:25Z</time></trkpt><trkpt lat="45.44012113770517" lon="10.690082531828148"><ele>65.0</ele><time>2026-04-06T11:38:26Z</time></trkpt><trkpt lat="45.44014143237142" lon="10.689951275398803"><ele>65.0</ele><time>2026-04-06T11:38:27Z</time></trkpt><trkpt lat="45.44015533299618" lon="10.689800883192163"><ele>65.4</ele><time>2026-04-06T11:38:28Z</time></trkpt><trkpt lat="45.44016490191834" lon="10.689647796210457"><ele>65.8</ele><time>2026-04-06T11:38:29Z</time></trkpt><trkpt lat="45.44016787621082" lon="10.689492701993068"><ele>66.2</ele><time>2026-04-06T11:38:30Z</time></trkpt><trkpt lat="45.440166121363966" lon="10.68934332292549"><ele>66.6</ele><time>2026-04-06T11:38:31Z</time></trkpt><trkpt lat="45.440157916825136" lon="10.689195892103557"><ele>67.0</ele><time>2026-04-06T11:38:32Z</time></trkpt><trkpt lat="45.44014258282857" lon="10.689047210240055"><ele>68.0</ele><time>2026-04-06T11:38:33Z</time></trkpt><trkpt lat="45.440122501577086" lon="10.688893821281553"><ele>69.0</ele><time>2026-04-06T11:38:34Z</time></trkpt><trkpt lat="45.44009657283094" lon="10.688733957650005"><ele>70.0</ele><time>2026-04-06T11:38:35Z</time></trkpt><trkpt lat="45.44007345301022" lon="10.688559436612275"><ele>71.0</ele><time>2026-04-06T11:38:36Z</time></trkpt><trkpt lat="45.44005178029443" lon="10.688405217674564"><ele>71.39999999999999</ele><time>2026-04-06T11:38:37Z</time></trkpt><trkpt lat="45.440026796049644" lon="10.688237865425625"><ele>71.8</ele><time>2026-04-06T11:38:39Z</time></trkpt><trkpt lat="45.440010073579366" lon="10.68810924768838"><ele>72.19999999999999</ele><time>2026-04-06T11:38:40Z</time></trkpt><trkpt lat="45.439991237036935" lon="10.68796079990776"><ele>72.6</ele><time>2026-04-06T11:38:41Z</time></trkpt><trkpt lat="45.43995885639571" lon="10.687794593866009"><ele>73.0</ele><time>2026-04-06T11:38:42Z</time></trkpt><trkpt lat="45.43992992675303" lon="10.687627398329377"><ele>73.0</ele><time>2026-04-06T11:38:43Z</time></trkpt><trkpt lat="45.439905903940065" lon="10.687470324354797"><ele>73.0</ele><time>2026-04-06T11:38:44Z</time></trkpt><trkpt lat="45.43988538944118" lon="10.687322961963586"><ele>73.0</ele><time>2026-04-06T11:38:45Z</time></trkpt><trkpt lat="45.43986562317295" lon="10.687193830449191"><ele>73.0</ele><time>2026-04-06T11:38:46Z</time></trkpt><trkpt lat="45.439850313057356" lon="10.687073865991298"><ele>73.0</ele><time>2026-04-06T11:38:47Z</time></trkpt><trkpt lat="45.43983916389159" lon="10.686959546278866"><ele>73.5</ele><time>2026-04-06T11:38:48Z</time></trkpt><trkpt lat="45.439831729852074" lon="10.686850693029658"><ele>74.0</ele><time>2026-04-06T11:38:49Z</time></trkpt><trkpt lat="45.439817046811704" lon="10.68673789240641"><ele>74.5</ele><time>2026-04-06T11:38:50Z</time></trkpt><trkpt lat="45.43980622676292" lon="10.686609360241519"><ele>75.0</ele><time>2026-04-06T11:38:51Z</time></trkpt><trkpt lat="45.43980416603394" lon="10.686463833611839"><ele>75.5</ele><time>2026-04-06T11:38:52Z</time></trkpt><trkpt lat="45.43980769244676" lon="10.686325627081022"><ele>76.0</ele><time>2026-04-06T11:38:53Z</time></trkpt><trkpt lat="45.43981879837388" lon="10.68620885151478"><ele>76.0</ele><time>2026-04-06T11:38:54Z</time></trkpt><trkpt lat="45.43983461646651" lon="10.686108211607223"><ele>76.0</ele><time>2026-04-06T11:38:55Z</time></trkpt><trkpt lat="45.43987115210199" lon="10.685955532780598"><ele>76.0</ele><time>2026-04-06T11:38:57Z</time></trkpt><trkpt lat="45.439903205167276" lon="10.68579819319475"><ele>76.0</ele><time>2026-04-06T11:38:59Z</time></trkpt><trkpt lat="45.43992998194101" lon="10.685680163270899"><ele>76.0</ele><time>2026-04-06T11:39:00Z</time></trkpt><trkpt lat="45.43996368135996" lon="10.685548138213125"><ele>76.25</ele><time>2026-04-06T11:39:01Z</time></trkpt><trkpt lat="45.440003246376676" lon="10.685401135012972"><ele>76.5</ele><time>2026-04-06T11:39:02Z</time></trkpt><trkpt lat="45.44004614601398" lon="10.68524148015064"><ele>76.75</ele><time>2026-04-06T11:39:03Z</time></trkpt><trkpt lat="45.44009051836005" lon="10.685082470082863"><ele>77.0</ele><time>2026-04-06T11:39:04Z</time></trkpt><trkpt lat="45.4401328540273" lon="10.684933111339047"><ele>77.0</ele><time>2026-04-06T11:39:05Z</time></trkpt><trkpt lat="45.440182205760834" lon="10.684761349143225"><ele>77.0</ele><time>2026-04-06T11:39:06Z</time></trkpt><trkpt lat="45.44021596679476" lon="10.684584437835829"><ele>77.0</ele><time>2026-04-06T11:39:07Z</time></trkpt><trkpt lat="45.44026126048275" lon="10.684407671999997"><ele>77.0</ele><time>2026-04-06T11:39:08Z</time></trkpt><trkpt lat="45.440311184264026" lon="10.684230445927328"><ele>77.75</ele><time>2026-04-06T11:39:09Z</time></trkpt><trkpt lat="45.440357924185015" lon="10.684054511196278"><ele>78.5</ele><time>2026-04-06T11:39:10Z</time></trkpt><trkpt lat="45.440403898157236" lon="10.68388055990309"><ele>79.25</ele><time>2026-04-06T11:39:11Z</time></trkpt><trkpt lat="45.440449810603376" lon="10.683704942556705"><ele>80.0</ele><time>2026-04-06T11:39:12Z</time></trkpt><trkpt lat="45.44049241722674" lon="10.683525029670356"><ele>80.75</ele><time>2026-04-06T11:39:13Z</time></trkpt><trkpt lat="45.44053761859941" lon="10.683345886476339"><ele>81.5</ele><time>2026-04-06T11:39:14Z</time></trkpt><trkpt lat="45.440581113374336" lon="10.683169329931696"><ele>82.25</ele><time>2026-04-06T11:39:15Z</time></trkpt><trkpt lat="45.44062155253351" lon="10.683005225575139"><ele>83.0</ele><time>2026-04-06T11:39:16Z</time></trkpt><trkpt lat="45.44065886861814" lon="10.682859801322762"><ele>83.4</ele><time>2026-04-06T11:39:17Z</time></trkpt><trkpt lat="45.44069518721033" lon="10.682723673824038"><ele>83.80000000000001</ele><time>2026-04-06T11:39:18Z</time></trkpt><trkpt lat="45.44073409050116" lon="10.682582152942668"><ele>84.2</ele><time>2026-04-06T11:39:19Z</time></trkpt><trkpt lat="45.4407702620299" lon="10.682439719839763"><ele>84.6</ele><time>2026-04-06T11:39:20Z</time></trkpt><trkpt lat="45.44080057161648" lon="10.682314401364087"><ele>85.0</ele><time>2026-04-06T11:39:21Z</time></trkpt><trkpt lat="45.440825220879844" lon="10.682214307017205"><ele>85.0</ele><time>2026-04-06T11:39:22Z</time></trkpt><trkpt lat="45.44085371685965" lon="10.682103111998524"><ele>85.0</ele><time>2026-04-06T11:39:24Z</time></trkpt><trkpt lat="45.440888929473836" lon="10.681956853807678"><ele>85.0</ele><time>2026-04-06T11:39:26Z</time></trkpt><trkpt lat="45.44092152405458" lon="10.681830277960621"><ele>85.0</ele><time>2026-04-06T11:39:27Z</time></trkpt><trkpt lat="45.440960198070144" lon="10.681699160309101"><ele>85.0</ele><time>2026-04-06T11:39:28Z</time></trkpt><trkpt lat="45.440993032989915" lon="10.681565255629453"><ele>85.2</ele><time>2026-04-06T11:39:29Z</time></trkpt><trkpt lat="45.44101876954651" lon="10.68143078285737"><ele>85.4</ele><time>2026-04-06T11:39:30Z</time></trkpt><trkpt lat="45.4410415075907" lon="10.681295067289343"><ele>85.6</ele><time>2026-04-06T11:39:31Z</time></trkpt><trkpt lat="45.441062559250085" lon="10.681160114622294"><ele>85.8</ele><time>2026-04-06T11:39:32Z</time></trkpt><trkpt lat="45.44107173556008" lon="10.681015191053392"><ele>86.0</ele><time>2026-04-06T11:39:33Z</time></trkpt><trkpt lat="45.44107461307969" lon="10.680874381197608"><ele>86.0</ele><time>2026-04-06T11:39:34Z</time></trkpt><trkpt lat="45.44107980783951" lon="10.680778561459158"><ele>86.0</ele><time>2026-04-06T11:39:35Z</time></trkpt><trkpt lat="45.44108613260946" lon="10.680687899541399"><ele>86.0</ele><time>2026-04-06T11:39:37Z</time></trkpt><trkpt lat="45.44109179092338" lon="10.680590003536055"><ele>86.0</ele><time>2026-04-06T11:39:38Z</time></trkpt><trkpt lat="45.44110371311054" lon="10.680451773458326"><ele>86.0</ele><time>2026-04-06T11:39:39Z</time></trkpt><trkpt lat="45.44112102250239" lon="10.680300499829931"><ele>86.0</ele><time>2026-04-06T11:39:40Z</time></trkpt><trkpt lat="45.441139143858635" lon="10.68014357513983"><ele>85.8</ele><time>2026-04-06T11:39:41Z</time></trkpt><trkpt lat="45.441158730787684" lon="10.679992082036042"><ele>85.6</ele><time>2026-04-06T11:39:42Z</time></trkpt><trkpt lat="45.44118430411253" lon="10.679839289593932"><ele>85.4</ele><time>2026-04-06T11:39:43Z</time></trkpt><trkpt lat="45.44121687926334" lon="10.679682913606396"><ele>85.2</ele><time>2026-04-06T11:39:44Z</time></trkpt><trkpt lat="45.44124978693155" lon="10.679523416163871"><ele>85.0</ele><time>2026-04-06T11:39:45Z</time></trkpt><trkpt lat="45.44128153231273" lon="10.679360925277628"><ele>85.0</ele><time>2026-04-06T11:39:46Z</time></trkpt><trkpt lat="45.44130939243818" lon="10.679203673931076"><ele>85.0</ele><time>2026-04-06T11:39:47Z</time></trkpt><trkpt lat="45.44133506549992" lon="10.679057005220331"><ele>85.0</ele><time>2026-04-06T11:39:48Z</time></trkpt><trkpt lat="45.44136196796266" lon="10.678915451277216"><ele>85.0</ele><time>2026-04-06T11:39:49Z</time></trkpt><trkpt lat="45.441386969856076" lon="10.678780137779423"><ele>85.0</ele><time>2026-04-06T11:39:50Z</time></trkpt><trkpt lat="45.44141482753248" lon="10.678630395318308"><ele>85.0</ele><time>2026-04-06T11:39:51Z</time></trkpt><trkpt lat="45.441440900476685" lon="10.678468274026024"><ele>85.0</ele><time>2026-04-06T11:39:52Z</time></trkpt><trkpt lat="45.441466747286306" lon="10.678305728765896"><ele>85.0</ele><time>2026-04-06T11:39:53Z</time></trkpt><trkpt lat="45.44149716344865" lon="10.678155883853199"><ele>85.0</ele><time>2026-04-06T11:39:54Z</time></trkpt><trkpt lat="45.441531081103335" lon="10.678013147825222"><ele>85.0</ele><time>2026-04-06T11:39:55Z</time></trkpt><trkpt lat="45.44156785997151" lon="10.677873474797435"><ele>85.2</ele><time>2026-04-06T11:39:56Z</time></trkpt><trkpt lat="45.441604301486144" lon="10.677744920889195"><ele>85.4</ele><time>2026-04-06T11:39:57Z</time></trkpt><trkpt lat="45.44163859888352" lon="10.677627673326462"><ele>85.6</ele><time>2026-04-06T11:39:58Z</time></trkpt><trkpt lat="45.441674841236086" lon="10.67751169524291"><ele>85.8</ele><time>2026-04-06T11:39:59Z</time></trkpt><trkpt lat="45.441712334174206" lon="10.677385708525089"><ele>86.0</ele><time>2026-04-06T11:40:00Z</time></trkpt><trkpt lat="45.44175273531483" lon="10.67725465052483"><ele>86.0</ele><time>2026-04-06T11:40:01Z</time></trkpt><trkpt lat="45.441790479789645" lon="10.677133795056704"><ele>86.0</ele><time>2026-04-06T11:40:02Z</time></trkpt><trkpt lat="45.44181349045999" lon="10.67703606902912"><ele>86.0</ele><time>2026-04-06T11:40:03Z</time></trkpt><trkpt lat="45.441844685738495" lon="10.676874118427941"><ele>86.0</ele><time>2026-04-06T11:40:05Z</time></trkpt><trkpt lat="45.44187209253146" lon="10.676761197648249"><ele>86.0</ele><time>2026-04-06T11:40:06Z</time></trkpt><trkpt lat="45.44190106319853" lon="10.676640811204612"><ele>85.4</ele><time>2026-04-06T11:40:07Z</time></trkpt><trkpt lat="45.44192717501851" lon="10.676523541492402"><ele>84.8</ele><time>2026-04-06T11:40:08Z</time></trkpt><trkpt lat="45.441952640070156" lon="10.676412920025335"><ele>84.2</ele><time>2026-04-06T11:40:09Z</time></trkpt><trkpt lat="45.44198458279265" lon="10.67629440602262"><ele>83.60000000000001</ele><time>2026-04-06T11:40:10Z</time></trkpt><trkpt lat="45.44202217817075" lon="10.676167006721549"><ele>83.0</ele><time>2026-04-06T11:40:11Z</time></trkpt><trkpt lat="45.44206413447358" lon="10.676035646850057"><ele>82.80000000000001</ele><time>2026-04-06T11:40:12Z</time></trkpt><trkpt lat="45.44210868837621" lon="10.675899300041316"><ele>82.6</ele><time>2026-04-06T11:40:13Z</time></trkpt><trkpt lat="45.44215060352335" lon="10.675768219626645"><ele>82.4</ele><time>2026-04-06T11:40:14Z</time></trkpt><trkpt lat="45.44219626351383" lon="10.675639886306172"><ele>82.19999999999999</ele><time>2026-04-06T11:40:15Z</time></trkpt><trkpt lat="45.442251836764264" lon="10.675508511556753"><ele>82.0</ele><time>2026-04-06T11:40:16Z</time></trkpt><trkpt lat="45.442311224601426" lon="10.67537803600776"><ele>81.8</ele><time>2026-04-06T11:40:17Z</time></trkpt><trkpt lat="45.44236951648644" lon="10.675249506966834"><ele>81.6</ele><time>2026-04-06T11:40:18Z</time></trkpt><trkpt lat="45.44242460498206" lon="10.675130026443872"><ele>81.39999999999999</ele><time>2026-04-06T11:40:19Z</time></trkpt><trkpt lat="45.44248023187846" lon="10.675017944382509"><ele>81.19999999999999</ele><time>2026-04-06T11:40:20Z</time></trkpt><trkpt lat="45.44253972415386" lon="10.674900766256236"><ele>81.0</ele><time>2026-04-06T11:40:21Z</time></trkpt><trkpt lat="45.442604388777845" lon="10.67478295400976"><ele>81.0</ele><time>2026-04-06T11:40:22Z</time></trkpt><trkpt lat="45.442664776535516" lon="10.674673355396639"><ele>81.0</ele><time>2026-04-06T11:40:23Z</time></trkpt><trkpt lat="45.44272706011078" lon="10.674566028196423"><ele>81.0</ele><time>2026-04-06T11:40:24Z</time></trkpt><trkpt lat="45.44279250784565" lon="10.674452210629005"><ele>81.0</ele><time>2026-04-06T11:40:25Z</time></trkpt><trkpt lat="45.44286238445079" lon="10.674338545564018"><ele>81.0</ele><time>2026-04-06T11:40:26Z</time></trkpt><trkpt lat="45.44293391603017" lon="10.674208835353848"><ele>81.5</ele><time>2026-04-06T11:40:27Z</time></trkpt><trkpt lat="45.443018194841066" lon="10.674068573345917"><ele>82.0</ele><time>2026-04-06T11:40:28Z</time></trkpt><trkpt lat="45.44311141578349" lon="10.673926127737115"><ele>82.5</ele><time>2026-04-06T11:40:29Z</time></trkpt><trkpt lat="45.4432051474576" lon="10.673789824793822"><ele>83.0</ele><time>2026-04-06T11:40:30Z</time></trkpt><trkpt lat="45.443299485904575" lon="10.673646334480031"><ele>82.75</ele><time>2026-04-06T11:40:31Z</time></trkpt><trkpt lat="45.44339310261514" lon="10.67350666201259"><ele>82.5</ele><time>2026-04-06T11:40:32Z</time></trkpt><trkpt lat="45.44348697642704" lon="10.673365567544653"><ele>82.25</ele><time>2026-04-06T11:40:33Z</time></trkpt><trkpt lat="45.4435796358753" lon="10.673230405828171"><ele>82.0</ele><time>2026-04-06T11:40:34Z</time></trkpt><trkpt lat="45.44367146451518" lon="10.673101509870753"><ele>82.0</ele><time>2026-04-06T11:40:35Z</time></trkpt><trkpt lat="45.44376549509609" lon="10.672973548782913"><ele>82.0</ele><time>2026-04-06T11:40:36Z</time></trkpt><trkpt lat="45.44386310656172" lon="10.67284693087359"><ele>82.0</ele><time>2026-04-06T11:40:37Z</time></trkpt><trkpt lat="45.44395512165806" lon="10.672726667081912"><ele>82.0</ele><time>2026-04-06T11:40:38Z</time></trkpt><trkpt lat="45.44405454189203" lon="10.672600664470442"><ele>82.75</ele><time>2026-04-06T11:40:39Z</time></trkpt><trkpt lat="45.444147224743325" lon="10.672478991757208"><ele>83.5</ele><time>2026-04-06T11:40:40Z</time></trkpt><trkpt lat="45.44423523703708" lon="10.67237091000505"><ele>84.25</ele><time>2026-04-06T11:40:41Z</time></trkpt><trkpt lat="45.444320727247444" lon="10.672265363098065"><ele>85.0</ele><time>2026-04-06T11:40:42Z</time></trkpt><trkpt lat="45.44440123366493" lon="10.672164231068889"><ele>85.0</ele><time>2026-04-06T11:40:43Z</time></trkpt><trkpt lat="45.44448455643951" lon="10.672054727872686"><ele>85.0</ele><time>2026-04-06T11:40:44Z</time></trkpt><trkpt lat="45.44456932284529" lon="10.671941906310856"><ele>85.0</ele><time>2026-04-06T11:40:45Z</time></trkpt><trkpt lat="45.44465547304692" lon="10.671831587920355"><ele>85.0</ele><time>2026-04-06T11:40:46Z</time></trkpt><trkpt lat="45.44473873439925" lon="10.67172598410323"><ele>84.5</ele><time>2026-04-06T11:40:47Z</time></trkpt><trkpt lat="45.444829374308526" lon="10.671612075296206"><ele>84.0</ele><time>2026-04-06T11:40:48Z</time></trkpt><trkpt lat="45.444915909140974" lon="10.67149807800477"><ele>83.5</ele><time>2026-04-06T11:40:49Z</time></trkpt><trkpt lat="45.4450040713089" lon="10.671382708672825"><ele>83.0</ele><time>2026-04-06T11:40:50Z</time></trkpt><trkpt lat="45.4450901486553" lon="10.671267290955319"><ele>83.0</ele><time>2026-04-06T11:40:51Z</time></trkpt><trkpt lat="45.44517200734075" lon="10.67116255034256"><ele>83.0</ele><time>2026-04-06T11:40:52Z</time></trkpt><trkpt lat="45.44525869435573" lon="10.671054544076782"><ele>83.0</ele><time>2026-04-06T11:40:53Z</time></trkpt><trkpt lat="45.44534670992793" lon="10.670946915486786"><ele>83.0</ele><time>2026-04-06T11:40:54Z</time></trkpt><trkpt lat="45.44543685708375" lon="10.670835392806296"><ele>82.75</ele><time>2026-04-06T11:40:54.999Z</time></trkpt><trkpt lat="45.445531637688575" lon="10.670713571542716"><ele>82.5</ele><time>2026-04-06T11:40:55.999Z</time></trkpt><trkpt lat="45.4456347423933" lon="10.670570836841856"><ele>82.25</ele><time>2026-04-06T11:40:56.999Z</time></trkpt><trkpt lat="45.44574824986007" lon="10.670413362813607"><ele>82.0</ele><time>2026-04-06T11:40:57.999Z</time></trkpt><trkpt lat="45.44585905221297" lon="10.670264848276044"><ele>82.0</ele><time>2026-04-06T11:40:58.999Z</time></trkpt><trkpt lat="45.44597080999768" lon="10.670129452961955"><ele>82.0</ele><time>2026-04-06T11:40:59.999Z</time></trkpt><trkpt lat="45.446080267763854" lon="10.670002060209413"><ele>82.0</ele><time>2026-04-06T11:41:00.999Z</time></trkpt><trkpt lat="45.446174923045014" lon="10.669890256090214"><ele>82.0</ele><time>2026-04-06T11:41:01.999Z</time></trkpt><trkpt lat="45.44626883005859" lon="10.669775033882635"><ele>82.39999999999999</ele><time>2026-04-06T11:41:02.999Z</time></trkpt><trkpt lat="45.446354653821764" lon="10.669667741008384"><ele>82.8</ele><time>2026-04-06T11:41:03.999Z</time></trkpt><trkpt lat="45.44643219137092" lon="10.6695611846501"><ele>83.2</ele><time>2026-04-06T11:41:04.999Z</time></trkpt><trkpt lat="45.446494362676845" lon="10.66947750587374"><ele>83.6</ele><time>2026-04-06T11:41:05.999Z</time></trkpt><trkpt lat="45.44655154176487" lon="10.669403075128027"><ele>84.0</ele><time>2026-04-06T11:41:06.999Z</time></trkpt><trkpt lat="45.44660289714032" lon="10.669333136928183"><ele>84.0</ele><time>2026-04-06T11:41:07.999Z</time></trkpt><trkpt lat="45.446651037982136" lon="10.669268396232283"><ele>84.0</ele><time>2026-04-06T11:41:08.999Z</time></trkpt><trkpt lat="45.4467352134159" lon="10.669157473254844"><ele>84.0</ele><time>2026-04-06T11:41:10.999Z</time></trkpt><trkpt lat="45.44681095535123" lon="10.669061494041742"><ele>84.0</ele><time>2026-04-06T11:41:12.999Z</time></trkpt><trkpt lat="45.44691594115384" lon="10.668971472457615"><ele>84.0</ele><time>2026-04-06T11:41:14.999Z</time></trkpt><trkpt lat="45.446973342091184" lon="10.668912080681944"><ele>84.0</ele><time>2026-04-06T11:41:15.999Z</time></trkpt><trkpt lat="45.447025775127145" lon="10.668834717445593"><ele>84.0</ele><time>2026-04-06T11:41:16.999Z</time></trkpt><trkpt lat="45.4470783097297" lon="10.668753009707995"><ele>84.0</ele><time>2026-04-06T11:41:17.999Z</time></trkpt><trkpt lat="45.447136481394026" lon="10.668672330222051"><ele>84.0</ele><time>2026-04-06T11:41:18.999Z</time></trkpt><trkpt lat="45.44720045495091" lon="10.668589060029552"><ele>84.0</ele><time>2026-04-06T11:41:19.999Z</time></trkpt><trkpt lat="45.44726806808809" lon="10.668494584672809"><ele>84.0</ele><time>2026-04-06T11:41:20.999Z</time></trkpt><trkpt lat="45.447342406571615" lon="10.668389292456192"><ele>83.75</ele><time>2026-04-06T11:41:21.999Z</time></trkpt><trkpt lat="45.447421416675894" lon="10.668277927527964"><ele>83.5</ele><time>2026-04-06T11:41:22.999Z</time></trkpt><trkpt lat="45.44750703420545" lon="10.668165268245213"><ele>83.25</ele><time>2026-04-06T11:41:23.999Z</time></trkpt><trkpt lat="45.44760125014796" lon="10.668056760536114"><ele>83.0</ele><time>2026-04-06T11:41:24.999Z</time></trkpt><trkpt lat="45.4476966537945" lon="10.66793107198775"><ele>83.0</ele><time>2026-04-06T11:41:25.999Z</time></trkpt><trkpt lat="45.44779480135254" lon="10.66779512938572"><ele>83.0</ele><time>2026-04-06T11:41:26.999Z</time></trkpt><trkpt lat="45.447897110623735" lon="10.667659140268285"><ele>83.0</ele><time>2026-04-06T11:41:27.999Z</time></trkpt><trkpt lat="45.44801695941497" lon="10.66754719669356"><ele>83.0</ele><time>2026-04-06T11:41:28.999Z</time></trkpt><trkpt lat="45.44812341764909" lon="10.66741119473168"><ele>82.25</ele><time>2026-04-06T11:41:29.999Z</time></trkpt><trkpt lat="45.44822089632179" lon="10.66726369459431"><ele>81.5</ele><time>2026-04-06T11:41:30.999Z</time></trkpt><trkpt lat="45.44832976554389" lon="10.66713089120622"><ele>80.75</ele><time>2026-04-06T11:41:31.999Z</time></trkpt><trkpt lat="45.44844303730577" lon="10.66699282105558"><ele>80.0</ele><time>2026-04-06T11:41:32.999Z</time></trkpt><trkpt lat="45.448555000172426" lon="10.66685302356706"><ele>80.0</ele><time>2026-04-06T11:41:33.999Z</time></trkpt><trkpt lat="45.44866780265406" lon="10.666710304811328"><ele>80.0</ele><time>2026-04-06T11:41:34.999Z</time></trkpt><trkpt lat="45.44877626715978" lon="10.666564513832078"><ele>80.0</ele><time>2026-04-06T11:41:35.999Z</time></trkpt><trkpt lat="45.44888633286624" lon="10.666417287731043"><ele>79.5</ele><time>2026-04-06T11:41:36.999Z</time></trkpt><trkpt lat="45.44899629708657" lon="10.666269663445913"><ele>79.0</ele><time>2026-04-06T11:41:37.999Z</time></trkpt><trkpt lat="45.449103692694" lon="10.666123223333893"><ele>78.5</ele><time>2026-04-06T11:41:38.999Z</time></trkpt><trkpt lat="45.449212372717774" lon="10.665982125697864"><ele>78.0</ele><time>2026-04-06T11:41:39.999Z</time></trkpt><trkpt lat="45.449315482290984" lon="10.665845160970553"><ele>78.0</ele><time>2026-04-06T11:41:40.999Z</time></trkpt><trkpt lat="45.44942083780888" lon="10.665710788879778"><ele>78.0</ele><time>2026-04-06T11:41:41.999Z</time></trkpt><trkpt lat="45.44952454771453" lon="10.665577682083061"><ele>78.0</ele><time>2026-04-06T11:41:42.999Z</time></trkpt><trkpt lat="45.449624961533154" lon="10.665446472409172"><ele>78.0</ele><time>2026-04-06T11:41:43.999Z</time></trkpt><trkpt lat="45.44972333881341" lon="10.665319433092934"><ele>77.25</ele><time>2026-04-06T11:41:44.999Z</time></trkpt><trkpt lat="45.44981700759144" lon="10.66519821075336"><ele>76.5</ele><time>2026-04-06T11:41:45.999Z</time></trkpt><trkpt lat="45.44990653387902" lon="10.6650834849985"><ele>75.75</ele><time>2026-04-06T11:41:46.999Z</time></trkpt><trkpt lat="45.44999363428336" lon="10.66497239672631"><ele>75.0</ele><time>2026-04-06T11:41:47.999Z</time></trkpt><trkpt lat="45.45007909422939" lon="10.664861362786182"><ele>75.0</ele><time>2026-04-06T11:41:48.999Z</time></trkpt><trkpt lat="45.450165262717924" lon="10.664749366979498"><ele>75.0</ele><time>2026-04-06T11:41:49.999Z</time></trkpt><trkpt lat="45.45024716472414" lon="10.664643075565325"><ele>75.0</ele><time>2026-04-06T11:41:50.999Z</time></trkpt><trkpt lat="45.450324785850356" lon="10.664540846530945"><ele>75.0</ele><time>2026-04-06T11:41:51.999Z</time></trkpt><trkpt lat="45.45040409190235" lon="10.664436341779393"><ele>75.0</ele><time>2026-04-06T11:41:52.999Z</time></trkpt><trkpt lat="45.450483397851634" lon="10.66433409895122"><ele>74.6</ele><time>2026-04-06T11:41:53.999Z</time></trkpt><trkpt lat="45.45056209293355" lon="10.664231122216703"><ele>74.2</ele><time>2026-04-06T11:41:54.999Z</time></trkpt><trkpt lat="45.45063503900823" lon="10.664132893308665"><ele>73.8</ele><time>2026-04-06T11:41:55.999Z</time></trkpt><trkpt lat="45.450696768439315" lon="10.664048472606881"><ele>73.4</ele><time>2026-04-06T11:41:56.999Z</time></trkpt><trkpt lat="45.45074631091658" lon="10.663981547443205"><ele>73.0</ele><time>2026-04-06T11:41:57.999Z</time></trkpt><trkpt lat="45.450817860925945" lon="10.66388504429424"><ele>73.0</ele><time>2026-04-06T11:41:59.999Z</time></trkpt><trkpt lat="45.450936664724225" lon="10.663760482477757"><ele>73.0</ele><time>2026-04-06T11:42:01.999Z</time></trkpt><trkpt lat="45.451009800044574" lon="10.66366537984756"><ele>73.0</ele><time>2026-04-06T11:42:02.999Z</time></trkpt><trkpt lat="45.4510796704367" lon="10.66357401085447"><ele>73.0</ele><time>2026-04-06T11:42:03.999Z</time></trkpt><trkpt lat="45.451127666417776" lon="10.663492978171591"><ele>73.0</ele><time>2026-04-06T11:42:04.999Z</time></trkpt><trkpt lat="45.45122628381039" lon="10.663404351531542"><ele>72.75</ele><time>2026-04-06T11:42:06.999Z</time></trkpt><trkpt lat="45.4513528158712" lon="10.663389433961417"><ele>72.5</ele><time>2026-04-06T11:42:08.999Z</time></trkpt><trkpt lat="45.45145810355916" lon="10.663356137088778"><ele>72.25</ele><time>2026-04-06T11:42:10.999Z</time></trkpt><trkpt lat="45.45152817824664" lon="10.663230946491794"><ele>72.0</ele><time>2026-04-06T11:42:12.999Z</time></trkpt><trkpt lat="45.451568233159485" lon="10.663066382454366"><ele>72.0</ele><time>2026-04-06T11:42:14.999Z</time></trkpt><trkpt lat="45.45160639152141" lon="10.66293493957507"><ele>72.0</ele><time>2026-04-06T11:42:15.999Z</time></trkpt><trkpt lat="45.45166869087303" lon="10.662818276005632"><ele>72.0</ele><time>2026-04-06T11:42:16.999Z</time></trkpt><trkpt lat="45.45174416870585" lon="10.662701297873594"><ele>72.0</ele><time>2026-04-06T11:42:17.999Z</time></trkpt><trkpt lat="45.45182709522547" lon="10.662589416356106"><ele>72.0</ele><time>2026-04-06T11:42:18.999Z</time></trkpt><trkpt lat="45.451908371801686" lon="10.66247294335103"><ele>72.0</ele><time>2026-04-06T11:42:19.999Z</time></trkpt><trkpt lat="45.45199753989381" lon="10.66235516772978"><ele>72.0</ele><time>2026-04-06T11:42:20.999Z</time></trkpt><trkpt lat="45.452097082495584" lon="10.662232492706483"><ele>72.0</ele><time>2026-04-06T11:42:21.999Z</time></trkpt><trkpt lat="45.452200121462496" lon="10.662105817422036"><ele>72.0</ele><time>2026-04-06T11:42:22.999Z</time></trkpt><trkpt lat="45.45230706343386" lon="10.661971218490878"><ele>71.5</ele><time>2026-04-06T11:42:23.999Z</time></trkpt><trkpt lat="45.45241311881306" lon="10.661836930225812"><ele>71.0</ele><time>2026-04-06T11:42:24.999Z</time></trkpt><trkpt lat="45.45252073420599" lon="10.661693090566128"><ele>70.5</ele><time>2026-04-06T11:42:25.999Z</time></trkpt><trkpt lat="45.452627732132996" lon="10.661549542481177"><ele>70.0</ele><time>2026-04-06T11:42:26.999Z</time></trkpt><trkpt lat="45.452733599598425" lon="10.661409321843045"><ele>70.0</ele><time>2026-04-06T11:42:27.999Z</time></trkpt><trkpt lat="45.452833619726036" lon="10.661269491290225"><ele>70.0</ele><time>2026-04-06T11:42:28.999Z</time></trkpt><trkpt lat="45.45292126792582" lon="10.661133296516326"><ele>70.0</ele><time>2026-04-06T11:42:29.999Z</time></trkpt><trkpt lat="45.45299068105166" lon="10.660962560819346"><ele>70.0</ele><time>2026-04-06T11:42:30.999Z</time></trkpt><trkpt lat="45.453052269798825" lon="10.660788883860187"><ele>69.25</ele><time>2026-04-06T11:42:31.999Z</time></trkpt><trkpt lat="45.45309516716181" lon="10.66059676774001"><ele>68.5</ele><time>2026-04-06T11:42:32.999Z</time></trkpt><trkpt lat="45.45313037831942" lon="10.660398099999817"><ele>67.75</ele><time>2026-04-06T11:42:33.999Z</time></trkpt><trkpt lat="45.45316308018606" lon="10.660192995311968"><ele>67.0</ele><time>2026-04-06T11:42:34.999Z</time></trkpt><trkpt lat="45.4531849808277" lon="10.659980886499168"><ele>67.0</ele><time>2026-04-06T11:42:35.999Z</time></trkpt><trkpt lat="45.453204249344886" lon="10.65976764290427"><ele>67.0</ele><time>2026-04-06T11:42:36.999Z</time></trkpt><trkpt lat="45.45324476672589" lon="10.659561362671287"><ele>67.0</ele><time>2026-04-06T11:42:37.999Z</time></trkpt><trkpt lat="45.45327145704789" lon="10.659351573826953"><ele>67.33333333333333</ele><time>2026-04-06T11:42:38.999Z</time></trkpt><trkpt lat="45.45328776601106" lon="10.659130239364634"><ele>67.66666666666667</ele><time>2026-04-06T11:42:39.999Z</time></trkpt><trkpt lat="45.453317234624535" lon="10.65892146214582"><ele>68.0</ele><time>2026-04-06T11:42:40.999Z</time></trkpt><trkpt lat="45.453348747690285" lon="10.658706574939373"><ele>68.33333333333334</ele><time>2026-04-06T11:42:41.999Z</time></trkpt><trkpt lat="45.45337478376546" lon="10.65848539684693"><ele>68.66666666666667</ele><time>2026-04-06T11:42:42.999Z</time></trkpt><trkpt lat="45.45339897360887" lon="10.658265232652145"><ele>69.0</ele><time>2026-04-06T11:42:43.999Z</time></trkpt><trkpt lat="45.45342485247695" lon="10.658040038509647"><ele>69.0</ele><time>2026-04-06T11:42:44.999Z</time></trkpt><trkpt lat="45.45345348688967" lon="10.657815288258"><ele>69.0</ele><time>2026-04-06T11:42:45.999Z</time></trkpt><trkpt lat="45.453499242766696" lon="10.657591150956227"><ele>69.0</ele><time>2026-04-06T11:42:46.999Z</time></trkpt><trkpt lat="45.45351259467318" lon="10.657358754791721"><ele>69.33333333333333</ele><time>2026-04-06T11:42:47.999Z</time></trkpt><trkpt lat="45.453542005642895" lon="10.657131182083008"><ele>69.66666666666666</ele><time>2026-04-06T11:42:48.999Z</time></trkpt><trkpt lat="45.45357190492506" lon="10.656903505553737"><ele>70.0</ele><time>2026-04-06T11:42:49.999Z</time></trkpt><trkpt lat="45.453602776497" lon="10.656674612958133"><ele>70.33333333333333</ele><time>2026-04-06T11:42:50.999Z</time></trkpt><trkpt lat="45.453633566572925" lon="10.656444916472928"><ele>70.66666666666667</ele><time>2026-04-06T11:42:51.999Z</time></trkpt><trkpt lat="45.45366309118598" lon="10.656218465519444"><ele>71.0</ele><time>2026-04-06T11:42:52.999Z</time></trkpt><trkpt lat="45.45369351281694" lon="10.655998316585197"><ele>71.33333333333334</ele><time>2026-04-06T11:42:53.999Z</time></trkpt><trkpt lat="45.453722938617986" lon="10.655775767667206"><ele>71.66666666666667</ele><time>2026-04-06T11:42:54.999Z</time></trkpt><trkpt lat="45.45375336283952" lon="10.655560104233926"><ele>72.0</ele><time>2026-04-06T11:42:55.999Z</time></trkpt><trkpt lat="45.453780778378785" lon="10.655337120371456"><ele>72.33333333333333</ele><time>2026-04-06T11:42:56.999Z</time></trkpt><trkpt lat="45.45381128171791" lon="10.655117132962326"><ele>72.66666666666666</ele><time>2026-04-06T11:42:57.999Z</time></trkpt><trkpt lat="45.453840989819064" lon="10.654896106438985"><ele>73.0</ele><time>2026-04-06T11:42:58.999Z</time></trkpt><trkpt lat="45.45387209462034" lon="10.654667065997655"><ele>72.0</ele><time>2026-04-06T11:42:59.999Z</time></trkpt><trkpt lat="45.45390430784174" lon="10.65443598095212"><ele>71.0</ele><time>2026-04-06T11:43:00.999Z</time></trkpt><trkpt lat="45.45392851218223" lon="10.654202208041882"><ele>70.0</ele><time>2026-04-06T11:43:01.999Z</time></trkpt><trkpt lat="45.4539618636655" lon="10.653967228683877"><ele>70.0</ele><time>2026-04-06T11:43:02.999Z</time></trkpt><trkpt lat="45.45399516347348" lon="10.65373763624023"><ele>70.0</ele><time>2026-04-06T11:43:03.999Z</time></trkpt><trkpt lat="45.45402811055092" lon="10.653505584019495"><ele>70.0</ele><time>2026-04-06T11:43:04.999Z</time></trkpt><trkpt lat="45.454057988969794" lon="10.653279149439289"><ele>70.0</ele><time>2026-04-06T11:43:05.999Z</time></trkpt><trkpt lat="45.454083503947274" lon="10.653051671931912"><ele>70.0</ele><time>2026-04-06T11:43:06.999Z</time></trkpt><trkpt lat="45.45410993934323" lon="10.652827909230046"><ele>70.0</ele><time>2026-04-06T11:43:07.999Z</time></trkpt><trkpt lat="45.45413323529638" lon="10.65260911866748"><ele>70.0</ele><time>2026-04-06T11:43:08.999Z</time></trkpt><trkpt lat="45.454162820950636" lon="10.652388489622123"><ele>70.0</ele><time>2026-04-06T11:43:09.999Z</time></trkpt><trkpt lat="45.454194165618894" lon="10.652170340800923"><ele>70.0</ele><time>2026-04-06T11:43:10.999Z</time></trkpt><trkpt lat="45.45422342114644" lon="10.651955307157511"><ele>69.33333333333333</ele><time>2026-04-06T11:43:11.999Z</time></trkpt><trkpt lat="45.45425471408033" lon="10.651741576399433"><ele>68.66666666666667</ele><time>2026-04-06T11:43:12.999Z</time></trkpt><trkpt lat="45.45428336788826" lon="10.651526102576318"><ele>68.0</ele><time>2026-04-06T11:43:13.999Z</time></trkpt><trkpt lat="45.454312306216565" lon="10.651313682547519"><ele>68.0</ele><time>2026-04-06T11:43:14.999Z</time></trkpt><trkpt lat="45.45434371603039" lon="10.651101919291087"><ele>68.0</ele><time>2026-04-06T11:43:15.999Z</time></trkpt><trkpt lat="45.45437213879638" lon="10.65088709179135"><ele>68.0</ele><time>2026-04-06T11:43:16.999Z</time></trkpt><trkpt lat="45.454398612303294" lon="10.650671335215867"><ele>68.0</ele><time>2026-04-06T11:43:17.999Z</time></trkpt><trkpt lat="45.454436362441335" lon="10.650448964379638"><ele>68.0</ele><time>2026-04-06T11:43:18.999Z</time></trkpt><trkpt lat="45.45445021359171" lon="10.65021973232095"><ele>68.0</ele><time>2026-04-06T11:43:19.999Z</time></trkpt><trkpt lat="45.45448220273694" lon="10.649991975701395"><ele>68.0</ele><time>2026-04-06T11:43:20.999Z</time></trkpt><trkpt lat="45.454512583009326" lon="10.649764046671937"><ele>68.0</ele><time>2026-04-06T11:43:21.999Z</time></trkpt><trkpt lat="45.45454091401671" lon="10.649535113324786"><ele>68.0</ele><time>2026-04-06T11:43:22.999Z</time></trkpt><trkpt lat="45.45457103823837" lon="10.6493098575972"><ele>68.0</ele><time>2026-04-06T11:43:23.999Z</time></trkpt><trkpt lat="45.45460580948977" lon="10.649083546146374"><ele>68.0</ele><time>2026-04-06T11:43:24.999Z</time></trkpt><trkpt lat="45.45464069535586" lon="10.648868413385767"><ele>68.0</ele><time>2026-04-06T11:43:25.999Z</time></trkpt><trkpt lat="45.45467006514955" lon="10.648655310962015"><ele>67.66666666666667</ele><time>2026-04-06T11:43:26.999Z</time></trkpt><trkpt lat="45.45469806422135" lon="10.648446462958942"><ele>67.33333333333333</ele><time>2026-04-06T11:43:27.999Z</time></trkpt><trkpt lat="45.45472738081803" lon="10.648229317255234"><ele>67.0</ele><time>2026-04-06T11:43:28.999Z</time></trkpt><trkpt lat="45.454755825406856" lon="10.648021314971633"><ele>67.0</ele><time>2026-04-06T11:43:29.999Z</time></trkpt><trkpt lat="45.45479136723321" lon="10.64781190176695"><ele>67.0</ele><time>2026-04-06T11:43:30.999Z</time></trkpt><trkpt lat="45.454834280641705" lon="10.64761378920535"><ele>67.0</ele><time>2026-04-06T11:43:31.999Z</time></trkpt><trkpt lat="45.45487727220178" lon="10.647415414545971"><ele>67.0</ele><time>2026-04-06T11:43:32.999Z</time></trkpt><trkpt lat="45.45492323029961" lon="10.647221036105275"><ele>66.75</ele><time>2026-04-06T11:43:33.999Z</time></trkpt><trkpt lat="45.4549703968206" lon="10.647031309524026"><ele>66.5</ele><time>2026-04-06T11:43:35Z</time></trkpt><trkpt lat="45.45501670789323" lon="10.64683334773645"><ele>66.25</ele><time>2026-04-06T11:43:36Z</time></trkpt><trkpt lat="45.45506251970182" lon="10.646640389530603"><ele>66.0</ele><time>2026-04-06T11:43:37Z</time></trkpt><trkpt lat="45.45511106320363" lon="10.64643872903571"><ele>65.66666666666667</ele><time>2026-04-06T11:43:38Z</time></trkpt><trkpt lat="45.455162724324744" lon="10.646237226079387"><ele>65.33333333333334</ele><time>2026-04-06T11:43:39Z</time></trkpt><trkpt lat="45.4552129626461" lon="10.64603203473864"><ele>65.0</ele><time>2026-04-06T11:43:40Z</time></trkpt><trkpt lat="45.45526143925664" lon="10.645821523289369"><ele>66.0</ele><time>2026-04-06T11:43:41Z</time></trkpt><trkpt lat="45.45530731492467" lon="10.645608697361853"><ele>67.0</ele><time>2026-04-06T11:43:42Z</time></trkpt><trkpt lat="45.45535462634361" lon="10.645399315103624"><ele>68.0</ele><time>2026-04-06T11:43:43Z</time></trkpt><trkpt lat="45.45541241838229" lon="10.645191523539296"><ele>68.0</ele><time>2026-04-06T11:43:44Z</time></trkpt><trkpt lat="45.455460715276686" lon="10.644986665382092"><ele>68.0</ele><time>2026-04-06T11:43:45Z</time></trkpt><trkpt lat="45.455508183537745" lon="10.6447800215556"><ele>68.0</ele><time>2026-04-06T11:43:46Z</time></trkpt><trkpt lat="45.45555287012233" lon="10.644580932417938"><ele>67.75</ele><time>2026-04-06T11:43:47Z</time></trkpt><trkpt lat="45.45559838963079" lon="10.644378596719372"><ele>67.5</ele><time>2026-04-06T11:43:48Z</time></trkpt><trkpt lat="45.45564252925777" lon="10.644183532511146"><ele>67.25</ele><time>2026-04-06T11:43:49Z</time></trkpt><trkpt lat="45.455686607777324" lon="10.643986826530815"><ele>67.0</ele><time>2026-04-06T11:43:50Z</time></trkpt><trkpt lat="45.45572789913387" lon="10.643790255943125"><ele>66.75</ele><time>2026-04-06T11:43:51Z</time></trkpt><trkpt lat="45.455767980457104" lon="10.6436059189002"><ele>66.5</ele><time>2026-04-06T11:43:52Z</time></trkpt><trkpt lat="45.45580388763187" lon="10.643437644682654"><ele>66.25</ele><time>2026-04-06T11:43:53Z</time></trkpt><trkpt lat="45.45583823398388" lon="10.643284885677806"><ele>66.0</ele><time>2026-04-06T11:43:54Z</time></trkpt><trkpt lat="45.455875136596006" lon="10.643133686919343"><ele>66.0</ele><time>2026-04-06T11:43:55Z</time></trkpt><trkpt lat="45.45591069837089" lon="10.642982193113754"><ele>66.0</ele><time>2026-04-06T11:43:56Z</time></trkpt><trkpt lat="45.455949298085045" lon="10.64282302680596"><ele>66.0</ele><time>2026-04-06T11:43:57Z</time></trkpt><trkpt lat="45.45598890774903" lon="10.64265979753906"><ele>66.0</ele><time>2026-04-06T11:43:58Z</time></trkpt><trkpt lat="45.45602932909343" lon="10.64249942964929"><ele>66.25</ele><time>2026-04-06T11:43:59Z</time></trkpt><trkpt lat="45.45607386293981" lon="10.64233595188239"><ele>66.5</ele><time>2026-04-06T11:44:00Z</time></trkpt><trkpt lat="45.45611609066178" lon="10.642171506285463"><ele>66.75</ele><time>2026-04-06T11:44:01Z</time></trkpt><trkpt lat="45.4561620211461" lon="10.64200514503298"><ele>67.0</ele><time>2026-04-06T11:44:02Z</time></trkpt><trkpt lat="45.45620595913104" lon="10.641842962985995"><ele>67.0</ele><time>2026-04-06T11:44:03Z</time></trkpt><trkpt lat="45.45625202289719" lon="10.641676937175001"><ele>67.0</ele><time>2026-04-06T11:44:04Z</time></trkpt><trkpt lat="45.456296518380995" lon="10.641526414832715"><ele>67.0</ele><time>2026-04-06T11:44:05Z</time></trkpt><trkpt lat="45.456337674868635" lon="10.641380222246303"><ele>67.0</ele><time>2026-04-06T11:44:06Z</time></trkpt><trkpt lat="45.45637896989433" lon="10.641233619236118"><ele>67.2</ele><time>2026-04-06T11:44:07Z</time></trkpt><trkpt lat="45.45641855955741" lon="10.641095091731279"><ele>67.4</ele><time>2026-04-06T11:44:08Z</time></trkpt><trkpt lat="45.456454899410886" lon="10.640969640128624"><ele>67.6</ele><time>2026-04-06T11:44:09Z</time></trkpt><trkpt lat="45.456489152830315" lon="10.64085205139785"><ele>67.8</ele><time>2026-04-06T11:44:10Z</time></trkpt><trkpt lat="45.45652457061668" lon="10.640735921079948"><ele>68.0</ele><time>2026-04-06T11:44:11Z</time></trkpt><trkpt lat="45.45655827722413" lon="10.640624168583896"><ele>68.0</ele><time>2026-04-06T11:44:12Z</time></trkpt><trkpt lat="45.45658871650438" lon="10.640521933038213"><ele>68.0</ele><time>2026-04-06T11:44:13Z</time></trkpt><trkpt lat="45.45661764635028" lon="10.640428987208484"><ele>68.0</ele><time>2026-04-06T11:44:14Z</time></trkpt><trkpt lat="45.456649567770135" lon="10.640347041151532"><ele>68.0</ele><time>2026-04-06T11:44:15Z</time></trkpt><trkpt lat="45.45669484090229" lon="10.640255438052675"><ele>68.0</ele><time>2026-04-06T11:44:16Z</time></trkpt><trkpt lat="45.45674650787156" lon="10.64015707675896"><ele>68.0</ele><time>2026-04-06T11:44:17Z</time></trkpt><trkpt lat="45.456782492628236" lon="10.640038441869388"><ele>68.4</ele><time>2026-04-06T11:44:18Z</time></trkpt><trkpt lat="45.456802010280654" lon="10.63991533198239"><ele>68.8</ele><time>2026-04-06T11:44:19Z</time></trkpt><trkpt lat="45.45680897999355" lon="10.639786892251362"><ele>69.2</ele><time>2026-04-06T11:44:20Z</time></trkpt><trkpt lat="45.45682205125151" lon="10.639661265809526"><ele>69.6</ele><time>2026-04-06T11:44:21Z</time></trkpt><trkpt lat="45.456845520971875" lon="10.63953199783326"><ele>70.0</ele><time>2026-04-06T11:44:22Z</time></trkpt><trkpt lat="45.45687914766997" lon="10.639390149305468"><ele>70.0</ele><time>2026-04-06T11:44:23Z</time></trkpt><trkpt lat="45.45692423568261" lon="10.639228462537355"><ele>70.0</ele><time>2026-04-06T11:44:24Z</time></trkpt><trkpt lat="45.45697204070839" lon="10.639060067019408"><ele>70.0</ele><time>2026-04-06T11:44:25Z</time></trkpt><trkpt lat="45.45701884683593" lon="10.638886707890945"><ele>70.0</ele><time>2026-04-06T11:44:26Z</time></trkpt><trkpt lat="45.4570681233089" lon="10.638716154775574"><ele>70.0</ele><time>2026-04-06T11:44:27Z</time></trkpt><trkpt lat="45.45711719889827" lon="10.638544777867702"><ele>70.0</ele><time>2026-04-06T11:44:28Z</time></trkpt><trkpt lat="45.45716378846112" lon="10.63837742049692"><ele>70.0</ele><time>2026-04-06T11:44:29Z</time></trkpt><trkpt lat="45.457209459024966" lon="10.63821378671935"><ele>70.0</ele><time>2026-04-06T11:44:30Z</time></trkpt><trkpt lat="45.45725151159291" lon="10.63804965805463"><ele>70.25</ele><time>2026-04-06T11:44:31Z</time></trkpt><trkpt lat="45.45729322175618" lon="10.637879921764462"><ele>70.5</ele><time>2026-04-06T11:44:32Z</time></trkpt><trkpt lat="45.457339813770226" lon="10.637707086276452"><ele>70.75</ele><time>2026-04-06T11:44:33Z</time></trkpt><trkpt lat="45.45738731014882" lon="10.637538649206014"><ele>71.0</ele><time>2026-04-06T11:44:34Z</time></trkpt><trkpt lat="45.45743888324584" lon="10.637370359498448"><ele>71.25</ele><time>2026-04-06T11:44:35Z</time></trkpt><trkpt lat="45.4574883025974" lon="10.637204282307653"><ele>71.5</ele><time>2026-04-06T11:44:36Z</time></trkpt><trkpt lat="45.457535490965725" lon="10.63704699625066"><ele>71.75</ele><time>2026-04-06T11:44:37Z</time></trkpt><trkpt lat="45.4575745962902" lon="10.636900481656609"><ele>72.0</ele><time>2026-04-06T11:44:38Z</time></trkpt><trkpt lat="45.45760755567406" lon="10.636770170639334"><ele>71.66666666666667</ele><time>2026-04-06T11:44:39Z</time></trkpt><trkpt lat="45.4576521297711" lon="10.636662819017488"><ele>71.33333333333333</ele><time>2026-04-06T11:44:40Z</time></trkpt><trkpt lat="45.45767881618414" lon="10.636566715606138"><ele>71.0</ele><time>2026-04-06T11:44:41Z</time></trkpt><trkpt lat="45.45768227076936" lon="10.63647375325135"><ele>70.66666666666666</ele><time>2026-04-06T11:44:42Z</time></trkpt><trkpt lat="45.45773100142589" lon="10.636314730417888"><ele>70.33333333333333</ele><time>2026-04-06T11:44:44Z</time></trkpt><trkpt lat="45.4577634549022" lon="10.636209265753308"><ele>70.0</ele><time>2026-04-06T11:44:45Z</time></trkpt><trkpt lat="45.457797999145896" lon="10.636077532114992"><ele>70.0</ele><time>2026-04-06T11:44:46Z</time></trkpt><trkpt lat="45.45784089206513" lon="10.63592959362788"><ele>70.0</ele><time>2026-04-06T11:44:47Z</time></trkpt><trkpt lat="45.457895566729235" lon="10.635775281239502"><ele>70.0</ele><time>2026-04-06T11:44:48Z</time></trkpt><trkpt lat="45.45794951322586" lon="10.63560123220014"><ele>70.0</ele><time>2026-04-06T11:44:49Z</time></trkpt><trkpt lat="45.45800340690724" lon="10.635407613936849"><ele>69.66666666666666</ele><time>2026-04-06T11:44:50Z</time></trkpt><trkpt lat="45.4580560985003" lon="10.63521355592985"><ele>69.33333333333333</ele><time>2026-04-06T11:44:51Z</time></trkpt><trkpt lat="45.458110425859616" lon="10.635012143631167"><ele>69.0</ele><time>2026-04-06T11:44:52Z</time></trkpt><trkpt lat="45.45816682009563" lon="10.6348076583447"><ele>69.0</ele><time>2026-04-06T11:44:53Z</time></trkpt><trkpt lat="45.458222165612405" lon="10.634603944022173"><ele>69.0</ele><time>2026-04-06T11:44:54Z</time></trkpt><trkpt lat="45.45828097927722" lon="10.634401453767323"><ele>69.0</ele><time>2026-04-06T11:44:55Z</time></trkpt><trkpt lat="45.45834101132162" lon="10.634194048407409"><ele>68.33333333333333</ele><time>2026-04-06T11:44:56Z</time></trkpt><trkpt lat="45.45839860714794" lon="10.633988390892146"><ele>67.66666666666666</ele><time>2026-04-06T11:44:57Z</time></trkpt><trkpt lat="45.458454940237466" lon="10.633780223709842"><ele>67.0</ele><time>2026-04-06T11:44:58Z</time></trkpt><trkpt lat="45.45850967940008" lon="10.633572191237265"><ele>66.66666666666666</ele><time>2026-04-06T11:44:59Z</time></trkpt><trkpt lat="45.45856883364315" lon="10.633364223629167"><ele>66.33333333333333</ele><time>2026-04-06T11:45:00Z</time></trkpt><trkpt lat="45.45862830958535" lon="10.63315645315915"><ele>66.0</ele><time>2026-04-06T11:45:01Z</time></trkpt><trkpt lat="45.45868755962259" lon="10.632947794698556"><ele>65.66666666666667</ele><time>2026-04-06T11:45:02Z</time></trkpt><trkpt lat="45.45874620832856" lon="10.632739838889753"><ele>65.33333333333334</ele><time>2026-04-06T11:45:03Z</time></trkpt><trkpt lat="45.45880360878758" lon="10.632533240718011"><ele>65.0</ele><time>2026-04-06T11:45:04Z</time></trkpt><trkpt lat="45.45886189258466" lon="10.632327199486667"><ele>65.0</ele><time>2026-04-06T11:45:05Z</time></trkpt><trkpt lat="45.4589199400939" lon="10.632119423413673"><ele>65.0</ele><time>2026-04-06T11:45:06Z</time></trkpt><trkpt lat="45.4589777867462" lon="10.631910466459885"><ele>65.0</ele><time>2026-04-06T11:45:07Z</time></trkpt><trkpt lat="45.45903502274205" lon="10.631700205020758"><ele>65.33333333333334</ele><time>2026-04-06T11:45:08Z</time></trkpt><trkpt lat="45.45909100983555" lon="10.63149212472323"><ele>65.66666666666667</ele><time>2026-04-06T11:45:09Z</time></trkpt><trkpt lat="45.45915047898322" lon="10.631283922601016"><ele>66.0</ele><time>2026-04-06T11:45:10Z</time></trkpt><trkpt lat="45.459212307941776" lon="10.631075640979512"><ele>66.33333333333333</ele><time>2026-04-06T11:45:11Z</time></trkpt><trkpt lat="45.459273003687166" lon="10.630866682754482"><ele>66.66666666666666</ele><time>2026-04-06T11:45:12Z</time></trkpt><trkpt lat="45.45933425537371" lon="10.63065720790285"><ele>67.0</ele><time>2026-04-06T11:45:13Z</time></trkpt><trkpt lat="45.459394834346725" lon="10.63044149909327"><ele>66.66666666666666</ele><time>2026-04-06T11:45:14Z</time></trkpt><trkpt lat="45.45945477452221" lon="10.630226772540311"><ele>66.33333333333333</ele><time>2026-04-06T11:45:15Z</time></trkpt><trkpt lat="45.45951394626348" lon="10.630011814141893"><ele>66.0</ele><time>2026-04-06T11:45:16Z</time></trkpt><trkpt lat="45.459573628537484" lon="10.629799719005733"><ele>66.0</ele><time>2026-04-06T11:45:17Z</time></trkpt><trkpt lat="45.45963466296181" lon="10.629589863792255"><ele>66.0</ele><time>2026-04-06T11:45:18Z</time></trkpt><trkpt lat="45.45969290054269" lon="10.629383807180615"><ele>66.0</ele><time>2026-04-06T11:45:19Z</time></trkpt><trkpt lat="45.45975181622297" lon="10.629180288660825"><ele>66.5</ele><time>2026-04-06T11:45:20Z</time></trkpt><trkpt lat="45.459807187770835" lon="10.62898910109044"><ele>67.0</ele><time>2026-04-06T11:45:21Z</time></trkpt><trkpt lat="45.45985761662869" lon="10.6288144767112"><ele>67.5</ele><time>2026-04-06T11:45:22Z</time></trkpt><trkpt lat="45.45990174125482" lon="10.628638784673267"><ele>68.0</ele><time>2026-04-06T11:45:23Z</time></trkpt><trkpt lat="45.45993453237891" lon="10.628475093550975"><ele>68.0</ele><time>2026-04-06T11:45:24Z</time></trkpt><trkpt lat="45.459961713308594" lon="10.628309131338716"><ele>68.0</ele><time>2026-04-06T11:45:25Z</time></trkpt><trkpt lat="45.460002816607386" lon="10.628142967906246"><ele>68.0</ele><time>2026-04-06T11:45:26Z</time></trkpt><trkpt lat="45.460053415114636" lon="10.62798969617168"><ele>68.0</ele><time>2026-04-06T11:45:27Z</time></trkpt><trkpt lat="45.460091456324434" lon="10.627822348625447"><ele>67.5</ele><time>2026-04-06T11:45:28Z</time></trkpt><trkpt lat="45.46012735275025" lon="10.627658251460272"><ele>67.0</ele><time>2026-04-06T11:45:29Z</time></trkpt><trkpt lat="45.46018736776287" lon="10.627509025941386"><ele>66.5</ele><time>2026-04-06T11:45:30Z</time></trkpt><trkpt lat="45.46026071915397" lon="10.627356182552644"><ele>66.0</ele><time>2026-04-06T11:45:31Z</time></trkpt><trkpt lat="45.46031991384125" lon="10.627192148160644"><ele>66.0</ele><time>2026-04-06T11:45:32Z</time></trkpt><trkpt lat="45.4603694615646" lon="10.627006773865721"><ele>66.0</ele><time>2026-04-06T11:45:33Z</time></trkpt><trkpt lat="45.46042153726855" lon="10.626817047992509"><ele>66.0</ele><time>2026-04-06T11:45:34Z</time></trkpt><trkpt lat="45.46047265318858" lon="10.626627141471726"><ele>66.0</ele><time>2026-04-06T11:45:35Z</time></trkpt><trkpt lat="45.46052509393252" lon="10.626436558434346"><ele>66.25</ele><time>2026-04-06T11:45:36Z</time></trkpt><trkpt lat="45.460577030489866" lon="10.626249613065806"><ele>66.5</ele><time>2026-04-06T11:45:37Z</time></trkpt><trkpt lat="45.46063007202411" lon="10.626065451266992"><ele>66.75</ele><time>2026-04-06T11:45:38Z</time></trkpt><trkpt lat="45.460680292220616" lon="10.62588205534155"><ele>67.0</ele><time>2026-04-06T11:45:39Z</time></trkpt><trkpt lat="45.46073102575052" lon="10.625703212049652"><ele>67.0</ele><time>2026-04-06T11:45:40Z</time></trkpt><trkpt lat="45.460780486632814" lon="10.625525755466859"><ele>67.0</ele><time>2026-04-06T11:45:41Z</time></trkpt><trkpt lat="45.46082939894539" lon="10.62534806378427"><ele>67.0</ele><time>2026-04-06T11:45:42Z</time></trkpt><trkpt lat="45.46087863347422" lon="10.625177860401452"><ele>67.0</ele><time>2026-04-06T11:45:43Z</time></trkpt><trkpt lat="45.46092218623681" lon="10.62502126665707"><ele>66.8</ele><time>2026-04-06T11:45:44Z</time></trkpt><trkpt lat="45.460965578771464" lon="10.624864331814694"><ele>66.6</ele><time>2026-04-06T11:45:45Z</time></trkpt><trkpt lat="45.46100881804399" lon="10.624712068632663"><ele>66.39999999999999</ele><time>2026-04-06T11:45:46Z</time></trkpt><trkpt lat="45.461050948574886" lon="10.624566043752639"><ele>66.2</ele><time>2026-04-06T11:45:47Z</time></trkpt><trkpt lat="45.461088520703036" lon="10.624431826113371"><ele>66.0</ele><time>2026-04-06T11:45:48Z</time></trkpt><trkpt lat="45.46112343334965" lon="10.624300024378408"><ele>66.0</ele><time>2026-04-06T11:45:49Z</time></trkpt><trkpt lat="45.46115641062396" lon="10.624179096350641"><ele>66.0</ele><time>2026-04-06T11:45:50Z</time></trkpt><trkpt lat="45.46118786832341" lon="10.624061541717762"><ele>66.0</ele><time>2026-04-06T11:45:51Z</time></trkpt><trkpt lat="45.46121707865175" lon="10.623954591488165"><ele>66.0</ele><time>2026-04-06T11:45:52Z</time></trkpt><trkpt lat="45.4612439491036" lon="10.623857526077161"><ele>66.0</ele><time>2026-04-06T11:45:53Z</time></trkpt><trkpt lat="45.46126639823145" lon="10.623767436047133"><ele>66.0</ele><time>2026-04-06T11:45:54Z</time></trkpt><trkpt lat="45.461292622900665" lon="10.623675199312133"><ele>66.14285714285714</ele><time>2026-04-06T11:45:55Z</time></trkpt><trkpt lat="45.46132085139731" lon="10.623580322815632"><ele>66.28571428571429</ele><time>2026-04-06T11:45:56Z</time></trkpt><trkpt lat="45.46134911371432" lon="10.623479313702216"><ele>66.42857142857143</ele><time>2026-04-06T11:45:57Z</time></trkpt><trkpt lat="45.46137545810708" lon="10.623382387292322"><ele>66.57142857142857</ele><time>2026-04-06T11:45:58Z</time></trkpt><trkpt lat="45.46140164391628" lon="10.623300013428553"><ele>66.71428571428571</ele><time>2026-04-06T11:45:59Z</time></trkpt><trkpt lat="45.46142407175467" lon="10.623203574847553"><ele>66.85714285714286</ele><time>2026-04-06T11:46:01Z</time></trkpt><trkpt lat="45.46144056062981" lon="10.623109792558779"><ele>67.0</ele><time>2026-04-06T11:46:05Z</time></trkpt><trkpt lat="45.46148446648995" lon="10.622954328243349"><ele>67.0</ele><time>2026-04-06T11:46:07Z</time></trkpt><trkpt lat="45.46151867287489" lon="10.622851814425717"><ele>67.0</ele><time>2026-04-06T11:46:08Z</time></trkpt><trkpt lat="45.4615534052644" lon="10.622747015725738"><ele>67.0</ele><time>2026-04-06T11:46:09Z</time></trkpt><trkpt lat="45.461586659852586" lon="10.62263064780836"><ele>67.0</ele><time>2026-04-06T11:46:10Z</time></trkpt><trkpt lat="45.46161775716752" lon="10.622515720939875"><ele>67.0</ele><time>2026-04-06T11:46:11Z</time></trkpt><trkpt lat="45.461644210325375" lon="10.622398820101168"><ele>67.0</ele><time>2026-04-06T11:46:12Z</time></trkpt><trkpt lat="45.46166673025194" lon="10.622288016687296"><ele>67.0</ele><time>2026-04-06T11:46:13Z</time></trkpt><trkpt lat="45.46168737408052" lon="10.622170548489347"><ele>67.0</ele><time>2026-04-06T11:46:14Z</time></trkpt><trkpt lat="45.46170152153346" lon="10.622059464204279"><ele>67.0</ele><time>2026-04-06T11:46:15Z</time></trkpt><trkpt lat="45.46171571316653" lon="10.621934302930178"><ele>67.0</ele><time>2026-04-06T11:46:16Z</time></trkpt><trkpt lat="45.461732881299035" lon="10.621824297864062"><ele>67.0</ele><time>2026-04-06T11:46:17Z</time></trkpt><trkpt lat="45.461750473103436" lon="10.6217109454957"><ele>67.0</ele><time>2026-04-06T11:46:18Z</time></trkpt><trkpt lat="45.461762620325636" lon="10.621597921266329"><ele>67.0</ele><time>2026-04-06T11:46:19Z</time></trkpt><trkpt lat="45.46177344468783" lon="10.621487482853743"><ele>67.0</ele><time>2026-04-06T11:46:20Z</time></trkpt><trkpt lat="45.461784720361976" lon="10.621370033685928"><ele>67.0</ele><time>2026-04-06T11:46:21Z</time></trkpt><trkpt lat="45.461797046021246" lon="10.621259074932489"><ele>67.0</ele><time>2026-04-06T11:46:22Z</time></trkpt><trkpt lat="45.461808526461986" lon="10.621142920212188"><ele>67.0</ele><time>2026-04-06T11:46:23Z</time></trkpt><trkpt lat="45.461818506628056" lon="10.621024093887645"><ele>67.0</ele><time>2026-04-06T11:46:24Z</time></trkpt><trkpt lat="45.46182885902112" lon="10.620903726840933"><ele>67.0</ele><time>2026-04-06T11:46:25Z</time></trkpt><trkpt lat="45.46184416476591" lon="10.620769568173403"><ele>67.0</ele><time>2026-04-06T11:46:26Z</time></trkpt><trkpt lat="45.461864866371265" lon="10.620632931819783"><ele>67.0</ele><time>2026-04-06T11:46:27Z</time></trkpt><trkpt lat="45.461883976400614" lon="10.620491659739415"><ele>67.0</ele><time>2026-04-06T11:46:28Z</time></trkpt><trkpt lat="45.46190924419768" lon="10.62034637221245"><ele>67.0</ele><time>2026-04-06T11:46:29Z</time></trkpt><trkpt lat="45.46194202870065" lon="10.620205402061561"><ele>66.8</ele><time>2026-04-06T11:46:30Z</time></trkpt><trkpt lat="45.46197637794667" lon="10.62007464143724"><ele>66.6</ele><time>2026-04-06T11:46:31Z</time></trkpt><trkpt lat="45.46200674328301" lon="10.619946227158136"><ele>66.39999999999999</ele><time>2026-04-06T11:46:32Z</time></trkpt><trkpt lat="45.46203511586706" lon="10.619824813027833"><ele>66.2</ele><time>2026-04-06T11:46:33Z</time></trkpt><trkpt lat="45.462062738046036" lon="10.619706422268886"><ele>66.0</ele><time>2026-04-06T11:46:34Z</time></trkpt><trkpt lat="45.4620910249712" lon="10.619591145656152"><ele>65.66666666666667</ele><time>2026-04-06T11:46:35Z</time></trkpt><trkpt lat="45.462117739862464" lon="10.619475120975729"><ele>65.33333333333333</ele><time>2026-04-06T11:46:36Z</time></trkpt><trkpt lat="45.462144631331796" lon="10.61935743013773"><ele>65.0</ele><time>2026-04-06T11:46:37Z</time></trkpt><trkpt lat="45.46217009355637" lon="10.619251895926151"><ele>64.66666666666666</ele><time>2026-04-06T11:46:38Z</time></trkpt><trkpt lat="45.46219658173714" lon="10.6191360448833"><ele>64.33333333333333</ele><time>2026-04-06T11:46:39Z</time></trkpt><trkpt lat="45.46222926133161" lon="10.619016650080598"><ele>64.0</ele><time>2026-04-06T11:46:40Z</time></trkpt><trkpt lat="45.46226085860224" lon="10.618884916144792"><ele>64.0</ele><time>2026-04-06T11:46:41Z</time></trkpt><trkpt lat="45.46229276607414" lon="10.618761991277513"><ele>64.0</ele><time>2026-04-06T11:46:42Z</time></trkpt><trkpt lat="45.46232521497116" lon="10.61862881194339"><ele>64.0</ele><time>2026-04-06T11:46:43Z</time></trkpt><trkpt lat="45.46235643166935" lon="10.618496165108207"><ele>64.0</ele><time>2026-04-06T11:46:44Z</time></trkpt><trkpt lat="45.462387199094444" lon="10.61836560390385"><ele>64.0</ele><time>2026-04-06T11:46:45Z</time></trkpt><trkpt lat="45.462419273824885" lon="10.618235283950426"><ele>64.2</ele><time>2026-04-06T11:46:46Z</time></trkpt><trkpt lat="45.46245178994886" lon="10.618106954086942"><ele>64.4</ele><time>2026-04-06T11:46:47Z</time></trkpt><trkpt lat="45.46248444563111" lon="10.617981038712603"><ele>64.6</ele><time>2026-04-06T11:46:48Z</time></trkpt><trkpt lat="45.46251731515148" lon="10.61785438329341"><ele>64.8</ele><time>2026-04-06T11:46:49Z</time></trkpt><trkpt lat="45.46255105689852" lon="10.617727285833634"><ele>65.0</ele><time>2026-04-06T11:46:50Z</time></trkpt><trkpt lat="45.4625824775824" lon="10.61760393053883"><ele>65.33333333333334</ele><time>2026-04-06T11:46:51Z</time></trkpt><trkpt lat="45.4626110457542" lon="10.617482186932916"><ele>65.66666666666667</ele><time>2026-04-06T11:46:52Z</time></trkpt><trkpt lat="45.46264311588114" lon="10.617364910161344"><ele>66.0</ele><time>2026-04-06T11:46:53Z</time></trkpt><trkpt lat="45.46267348860025" lon="10.61724567593292"><ele>66.33333333333333</ele><time>2026-04-06T11:46:54Z</time></trkpt><trkpt lat="45.46270260932101" lon="10.617128468430872"><ele>66.66666666666666</ele><time>2026-04-06T11:46:55Z</time></trkpt><trkpt lat="45.462731442372935" lon="10.617013304343766"><ele>67.0</ele><time>2026-04-06T11:46:56Z</time></trkpt><trkpt lat="45.46276194177976" lon="10.6169010386593"><ele>67.0</ele><time>2026-04-06T11:46:57Z</time></trkpt><trkpt lat="45.46279423313245" lon="10.616792719663744"><ele>67.0</ele><time>2026-04-06T11:46:58Z</time></trkpt><trkpt lat="45.46282619822994" lon="10.616692344326038"><ele>67.0</ele><time>2026-04-06T11:46:59Z</time></trkpt><trkpt lat="45.46285940174226" lon="10.616603037953189"><ele>67.0</ele><time>2026-04-06T11:47:00Z</time></trkpt><trkpt lat="45.46289355381238" lon="10.616522628290287"><ele>67.0</ele><time>2026-04-06T11:47:01Z</time></trkpt><trkpt lat="45.46293299118414" lon="10.616447428861527"><ele>67.0</ele><time>2026-04-06T11:47:02Z</time></trkpt><trkpt lat="45.462983442006575" lon="10.616366297275063"><ele>67.0</ele><time>2026-04-06T11:47:03Z</time></trkpt><trkpt lat="45.463037665346945" lon="10.616288885343085"><ele>67.0</ele><time>2026-04-06T11:47:04Z</time></trkpt><trkpt lat="45.46308511916247" lon="10.616195760587381"><ele>67.0</ele><time>2026-04-06T11:47:05Z</time></trkpt><trkpt lat="45.4631316460247" lon="10.61608626109862"><ele>67.0</ele><time>2026-04-06T11:47:06Z</time></trkpt><trkpt lat="45.463185666341715" lon="10.615972329577968"><ele>67.0</ele><time>2026-04-06T11:47:07Z</time></trkpt><trkpt lat="45.463250046700146" lon="10.615855488950352"><ele>67.0</ele><time>2026-04-06T11:47:08Z</time></trkpt><trkpt lat="45.46331201819916" lon="10.615736066999522"><ele>67.0</ele><time>2026-04-06T11:47:09Z</time></trkpt><trkpt lat="45.46337632143674" lon="10.615607292899673"><ele>67.0</ele><time>2026-04-06T11:47:10Z</time></trkpt><trkpt lat="45.463442671041776" lon="10.615477720241767"><ele>67.0</ele><time>2026-04-06T11:47:11Z</time></trkpt><trkpt lat="45.46350670150982" lon="10.615349738607762"><ele>67.0</ele><time>2026-04-06T11:47:12Z</time></trkpt><trkpt lat="45.463573347707005" lon="10.61521672897751"><ele>67.0</ele><time>2026-04-06T11:47:13Z</time></trkpt><trkpt lat="45.46364154610754" lon="10.615081916787105"><ele>66.75</ele><time>2026-04-06T11:47:14Z</time></trkpt><trkpt lat="45.46371187056891" lon="10.614946731364535"><ele>66.5</ele><time>2026-04-06T11:47:15Z</time></trkpt><trkpt lat="45.46378315033102" lon="10.614804868342006"><ele>66.25</ele><time>2026-04-06T11:47:16Z</time></trkpt><trkpt lat="45.46385954798063" lon="10.614659369026203"><ele>66.0</ele><time>2026-04-06T11:47:17Z</time></trkpt><trkpt lat="45.463933390519195" lon="10.614518101633642"><ele>66.5</ele><time>2026-04-06T11:47:18Z</time></trkpt><trkpt lat="45.46400338087943" lon="10.614382889364403"><ele>67.0</ele><time>2026-04-06T11:47:19Z</time></trkpt><trkpt lat="45.46407251455732" lon="10.614251855071412"><ele>67.5</ele><time>2026-04-06T11:47:20Z</time></trkpt><trkpt lat="45.4641421414849" lon="10.614122644221645"><ele>68.0</ele><time>2026-04-06T11:47:21Z</time></trkpt><trkpt lat="45.46421016380793" lon="10.61399247108624"><ele>68.0</ele><time>2026-04-06T11:47:22Z</time></trkpt><trkpt lat="45.46427512292328" lon="10.613862935256059"><ele>68.0</ele><time>2026-04-06T11:47:23Z</time></trkpt><trkpt lat="45.46433670808198" lon="10.61374065208066"><ele>68.0</ele><time>2026-04-06T11:47:24Z</time></trkpt><trkpt lat="45.46439841101538" lon="10.613608527351662"><ele>68.0</ele><time>2026-04-06T11:47:25Z</time></trkpt><trkpt lat="45.46446102934239" lon="10.61347703358945"><ele>68.0</ele><time>2026-04-06T11:47:26Z</time></trkpt><trkpt lat="45.464527660138245" lon="10.613347247618279"><ele>68.0</ele><time>2026-04-06T11:47:27Z</time></trkpt><trkpt lat="45.46459139765795" lon="10.613222290074651"><ele>68.0</ele><time>2026-04-06T11:47:28Z</time></trkpt><trkpt lat="45.46464959204589" lon="10.613105230223066"><ele>68.0</ele><time>2026-04-06T11:47:29Z</time></trkpt><trkpt lat="45.464704343291714" lon="10.613000661580928"><ele>68.0</ele><time>2026-04-06T11:47:30Z</time></trkpt><trkpt lat="45.46475646454927" lon="10.612906691479406"><ele>68.0</ele><time>2026-04-06T11:47:31Z</time></trkpt><trkpt lat="45.464803786736205" lon="10.612813283091821"><ele>67.83333333333334</ele><time>2026-04-06T11:47:32Z</time></trkpt><trkpt lat="45.46485094398369" lon="10.612716547348843"><ele>67.66666666666667</ele><time>2026-04-06T11:47:33Z</time></trkpt><trkpt lat="45.464889801578416" lon="10.612619009725561"><ele>67.5</ele><time>2026-04-06T11:47:34Z</time></trkpt><trkpt lat="45.46491476324122" lon="10.61253357258115"><ele>67.33333333333333</ele><time>2026-04-06T11:47:35Z</time></trkpt><trkpt lat="45.4649605595133" lon="10.612359675965118"><ele>67.16666666666666</ele><time>2026-04-06T11:47:37Z</time></trkpt><trkpt lat="45.46499553505921" lon="10.6122557348036"><ele>67.0</ele><time>2026-04-06T11:47:38Z</time></trkpt><trkpt lat="45.465018887091915" lon="10.612135263453332"><ele>67.0</ele><time>2026-04-06T11:47:39Z</time></trkpt><trkpt lat="45.46501960931933" lon="10.611998941114724"><ele>67.0</ele><time>2026-04-06T11:47:40Z</time></trkpt><trkpt lat="45.465018626313494" lon="10.611855360638057"><ele>67.0</ele><time>2026-04-06T11:47:41Z</time></trkpt><trkpt lat="45.46503941111296" lon="10.61171827238524"><ele>67.0</ele><time>2026-04-06T11:47:42Z</time></trkpt><trkpt lat="45.465069704266206" lon="10.611570748137378"><ele>67.0</ele><time>2026-04-06T11:47:43Z</time></trkpt><trkpt lat="45.465091345015686" lon="10.611420684088447"><ele>67.4</ele><time>2026-04-06T11:47:44Z</time></trkpt><trkpt lat="45.46509584941818" lon="10.611266015899036"><ele>67.80000000000001</ele><time>2026-04-06T11:47:45Z</time></trkpt><trkpt lat="45.4650873284218" lon="10.61110749918326"><ele>68.2</ele><time>2026-04-06T11:47:46Z</time></trkpt><trkpt lat="45.465075890625656" lon="10.610949528379146"><ele>68.60000000000001</ele><time>2026-04-06T11:47:47Z</time></trkpt><trkpt lat="45.46506143267556" lon="10.610790210507988"><ele>69.0</ele><time>2026-04-06T11:47:48Z</time></trkpt><trkpt lat="45.46505017758784" lon="10.610642365415199"><ele>69.33333333333333</ele><time>2026-04-06T11:47:49Z</time></trkpt><trkpt lat="45.46503798534545" lon="10.610505733950006"><ele>69.66666666666667</ele><time>2026-04-06T11:47:50Z</time></trkpt><trkpt lat="45.46502739007194" lon="10.610383055292695"><ele>70.0</ele><time>2026-04-06T11:47:51Z</time></trkpt><trkpt lat="45.46501915732422" lon="10.610264611285327"><ele>70.33333333333334</ele><time>2026-04-06T11:47:52Z</time></trkpt><trkpt lat="45.4650140645157" lon="10.610158407208017"><ele>70.66666666666667</ele><time>2026-04-06T11:47:53Z</time></trkpt><trkpt lat="45.46500357949223" lon="10.610043745679114"><ele>71.0</ele><time>2026-04-06T11:47:54Z</time></trkpt><trkpt lat="45.46499182274129" lon="10.609924415971182"><ele>71.39999999999999</ele><time>2026-04-06T11:47:55Z</time></trkpt><trkpt lat="45.46498059826939" lon="10.609793183081964"><ele>71.8</ele><time>2026-04-06T11:47:56Z</time></trkpt><trkpt lat="45.46496749504293" lon="10.609665690891918"><ele>72.19999999999999</ele><time>2026-04-06T11:47:57Z</time></trkpt><trkpt lat="45.46495489368809" lon="10.609536092338207"><ele>72.6</ele><time>2026-04-06T11:47:58Z</time></trkpt><trkpt lat="45.46494686541578" lon="10.609407327742733"><ele>73.0</ele><time>2026-04-06T11:47:59Z</time></trkpt><trkpt lat="45.464938615386025" lon="10.609281660000223"><ele>73.14285714285714</ele><time>2026-04-06T11:48:00Z</time></trkpt><trkpt lat="45.46493165594288" lon="10.609156357231477"><ele>73.28571428571429</ele><time>2026-04-06T11:48:01Z</time></trkpt><trkpt lat="45.464926147410445" lon="10.609047182019589"><ele>73.42857142857143</ele><time>2026-04-06T11:48:02Z</time></trkpt><trkpt lat="45.464921247437864" lon="10.608949828666589"><ele>73.57142857142857</ele><time>2026-04-06T11:48:03Z</time></trkpt><trkpt lat="45.46492030179982" lon="10.608855791689628"><ele>73.71428571428571</ele><time>2026-04-06T11:48:04Z</time></trkpt><trkpt lat="45.46492074893014" lon="10.608756378229543"><ele>73.85714285714286</ele><time>2026-04-06T11:48:05Z</time></trkpt><trkpt lat="45.46492262915979" lon="10.608654741990087"><ele>74.0</ele><time>2026-04-06T11:48:06Z</time></trkpt><trkpt lat="45.46492386700972" lon="10.608563205315965"><ele>74.4</ele><time>2026-04-06T11:48:07Z</time></trkpt><trkpt lat="45.46492900100228" lon="10.608389756266973"><ele>74.80000000000001</ele><time>2026-04-06T11:48:09Z</time></trkpt><trkpt lat="45.464934278442726" lon="10.608299564934951"><ele>75.19999999999999</ele><time>2026-04-06T11:48:10Z</time></trkpt><trkpt lat="45.46493994238147" lon="10.608118866714145"><ele>75.6</ele><time>2026-04-06T11:48:12Z</time></trkpt><trkpt lat="45.46494885757764" lon="10.607955920763173"><ele>76.0</ele><time>2026-04-06T11:48:14Z</time></trkpt><trkpt lat="45.46495343617573" lon="10.60782079419954"><ele>76.5</ele><time>2026-04-06T11:48:16Z</time></trkpt><trkpt lat="45.46495630309592" lon="10.607693186893421"><ele>77.0</ele><time>2026-04-06T11:48:18Z</time></trkpt><trkpt lat="45.46496255373836" lon="10.607578559817176"><ele>77.5</ele><time>2026-04-06T11:48:20Z</time></trkpt><trkpt lat="45.46496950496444" lon="10.607487921628058"><ele>78.0</ele><time>2026-04-06T11:48:22Z</time></trkpt><trkpt lat="45.46497425923509" lon="10.607387626426057"><ele>78.5</ele><time>2026-04-06T11:48:26Z</time></trkpt><trkpt lat="45.4649855365974" lon="10.607260579434236"><ele>79.0</ele><time>2026-04-06T11:49:03Z</time></trkpt><trkpt lat="45.46502082260936" lon="10.60714134302171"><ele>79.0</ele><time>2026-04-06T11:49:05Z</time></trkpt><trkpt lat="45.4649982465498" lon="10.60700555794379"><ele>79.0</ele><time>2026-04-06T11:49:07Z</time></trkpt><trkpt lat="45.46501848870539" lon="10.606902665888091"><ele>79.0</ele><time>2026-04-06T11:49:09Z</time></trkpt><trkpt lat="45.46502088760956" lon="10.606810582799493"><ele>79.0</ele><time>2026-04-06T11:49:18Z</time></trkpt><trkpt lat="45.46507396482372" lon="10.606705058860694"><ele>79.0</ele><time>2026-04-06T11:49:25Z</time></trkpt><trkpt lat="45.46510441308274" lon="10.606568868217453"><ele>79.0</ele><time>2026-04-06T11:49:27Z</time></trkpt><trkpt lat="45.46509430678838" lon="10.60646382642632"><ele>79.33333333333333</ele><time>2026-04-06T11:49:29Z</time></trkpt><trkpt lat="45.465042062234744" lon="10.606413370113062"><ele>79.66666666666666</ele><time>2026-04-06T11:49:30Z</time></trkpt><trkpt lat="45.46503294946786" lon="10.606323728988782"><ele>80.0</ele><time>2026-04-06T11:49:32Z</time></trkpt><trkpt lat="45.465040301411875" lon="10.606221607758183"><ele>80.33333333333333</ele><time>2026-04-06T11:49:35Z</time></trkpt><trkpt lat="45.46503961218448" lon="10.60610749067182"><ele>80.66666666666667</ele><time>2026-04-06T11:49:38Z</time></trkpt><trkpt lat="45.46504140901497" lon="10.605986870840535"><ele>81.0</ele><time>2026-04-06T11:49:40Z</time></trkpt><trkpt lat="45.46504288410803" lon="10.605863308075456"><ele>81.0</ele><time>2026-04-06T11:49:42Z</time></trkpt><trkpt lat="45.46505064417496" lon="10.6057429939595"><ele>81.0</ele><time>2026-04-06T11:49:44Z</time></trkpt><trkpt lat="45.46505161745673" lon="10.60560353576421"><ele>81.0</ele><time>2026-04-06T11:49:46Z</time></trkpt><trkpt lat="45.46505579998483" lon="10.605495695741334"><ele>81.0</ele><time>2026-04-06T11:49:47Z</time></trkpt><trkpt lat="45.46506677302835" lon="10.605357047759538"><ele>81.0</ele><time>2026-04-06T11:49:48Z</time></trkpt><trkpt lat="45.46507135963857" lon="10.605215135058376"><ele>81.0</ele><time>2026-04-06T11:49:49Z</time></trkpt><trkpt lat="45.465073694905186" lon="10.60508067981471"><ele>81.0</ele><time>2026-04-06T11:49:50Z</time></trkpt><trkpt lat="45.465074275081925" lon="10.604957008143815"><ele>81.0</ele><time>2026-04-06T11:49:51Z</time></trkpt><trkpt lat="45.465076377933094" lon="10.60485151915089"><ele>81.0</ele><time>2026-04-06T11:49:52Z</time></trkpt><trkpt lat="45.46508279292088" lon="10.604679735531853"><ele>81.0</ele><time>2026-04-06T11:49:54Z</time></trkpt><trkpt lat="45.465093294546605" lon="10.604489003340278"><ele>80.8</ele><time>2026-04-06T11:49:56Z</time></trkpt><trkpt lat="45.46509187490853" lon="10.604373741300043"><ele>80.6</ele><time>2026-04-06T11:49:57Z</time></trkpt><trkpt lat="45.4650879760342" lon="10.604248039414179"><ele>80.4</ele><time>2026-04-06T11:49:58Z</time></trkpt><trkpt lat="45.465090578147574" lon="10.604095428620921"><ele>80.2</ele><time>2026-04-06T11:49:59Z</time></trkpt><trkpt lat="45.46507603522193" lon="10.603914932635801"><ele>80.0</ele><time>2026-04-06T11:50:00Z</time></trkpt><trkpt lat="45.46505670749051" lon="10.603710443289957"><ele>80.0</ele><time>2026-04-06T11:50:01Z</time></trkpt><trkpt lat="45.46503644145256" lon="10.603509645207613"><ele>80.0</ele><time>2026-04-06T11:50:02Z</time></trkpt><trkpt lat="45.4650173779636" lon="10.603320761896319"><ele>80.0</ele><time>2026-04-06T11:50:03Z</time></trkpt><trkpt lat="45.46499061430655" lon="10.603162470172949"><ele>80.0</ele><time>2026-04-06T11:50:04Z</time></trkpt><trkpt lat="45.46507084753629" lon="10.603027702059572"><ele>80.0</ele><time>2026-04-06T11:50:05Z</time></trkpt><trkpt lat="45.46507304226745" lon="10.60292563733865"><ele>80.0</ele><time>2026-04-06T11:50:06Z</time></trkpt><trkpt lat="45.464994392898674" lon="10.602807519819716"><ele>80.0</ele><time>2026-04-06T11:50:07Z</time></trkpt><trkpt lat="45.46500342092401" lon="10.602717531653115"><ele>80.0</ele><time>2026-04-06T11:50:08Z</time></trkpt><trkpt lat="45.46502035425007" lon="10.602598808485745"><ele>80.0</ele><time>2026-04-06T11:50:10Z</time></trkpt><trkpt lat="45.46503974036473" lon="10.60249855356799"><ele>80.0</ele><time>2026-04-06T11:50:12Z</time></trkpt><trkpt lat="45.465053528244184" lon="10.60234430816182"><ele>79.6</ele><time>2026-04-06T11:50:14Z</time></trkpt><trkpt lat="45.46506974090316" lon="10.602253011686752"><ele>79.2</ele><time>2026-04-06T11:50:15Z</time></trkpt><trkpt lat="45.46509682791397" lon="10.602120354325846"><ele>78.8</ele><time>2026-04-06T11:50:17Z</time></trkpt><trkpt lat="45.46512741670205" lon="10.601972433621375"><ele>78.4</ele><time>2026-04-06T11:50:19Z</time></trkpt><trkpt lat="45.46515558158516" lon="10.601797632895448"><ele>78.0</ele><time>2026-04-06T11:50:21Z</time></trkpt><trkpt lat="45.465152169896605" lon="10.601697040626782"><ele>77.66666666666667</ele><time>2026-04-06T11:50:22Z</time></trkpt><trkpt lat="45.46513855768103" lon="10.601591385578299"><ele>77.33333333333333</ele><time>2026-04-06T11:50:23Z</time></trkpt><trkpt lat="45.46511585395188" lon="10.601490776320752"><ele>77.0</ele><time>2026-04-06T11:50:24Z</time></trkpt><trkpt lat="45.46507770978305" lon="10.60139394839729"><ele>76.66666666666666</ele><time>2026-04-06T11:50:25Z</time></trkpt><trkpt lat="45.465025727763404" lon="10.601293546460013"><ele>76.33333333333333</ele><time>2026-04-06T11:50:26Z</time></trkpt><trkpt lat="45.46496404060697" lon="10.601198036741025"><ele>76.0</ele><time>2026-04-06T11:50:27Z</time></trkpt><trkpt lat="45.464894865513166" lon="10.601113412393572"><ele>76.0</ele><time>2026-04-06T11:50:28Z</time></trkpt><trkpt lat="45.46482659525489" lon="10.601029393509116"><ele>76.0</ele><time>2026-04-06T11:50:29Z</time></trkpt><trkpt lat="45.46476347540291" lon="10.600943645629847"><ele>76.0</ele><time>2026-04-06T11:50:30Z</time></trkpt><trkpt lat="45.464701629546084" lon="10.600852656169153"><ele>76.0</ele><time>2026-04-06T11:50:31Z</time></trkpt><trkpt lat="45.464639932385396" lon="10.600757693818736"><ele>76.0</ele><time>2026-04-06T11:50:32Z</time></trkpt><trkpt lat="45.46458244166614" lon="10.60066138605125"><ele>76.0</ele><time>2026-04-06T11:50:33Z</time></trkpt><trkpt lat="45.46452998132468" lon="10.600551563643721"><ele>75.25</ele><time>2026-04-06T11:50:34Z</time></trkpt><trkpt lat="45.46450784413686" lon="10.60040193433099"><ele>74.5</ele><time>2026-04-06T11:50:35Z</time></trkpt><trkpt lat="45.46447854847912" lon="10.600246368360908"><ele>73.75</ele><time>2026-04-06T11:50:36Z</time></trkpt><trkpt lat="45.4644433149225" lon="10.600069013686102"><ele>73.0</ele><time>2026-04-06T11:50:37Z</time></trkpt><trkpt lat="45.46440258761383" lon="10.599873314214689"><ele>73.0</ele><time>2026-04-06T11:50:38Z</time></trkpt><trkpt lat="45.464360842390846" lon="10.599675336615691"><ele>73.0</ele><time>2026-04-06T11:50:39Z</time></trkpt><trkpt lat="45.464314426821296" lon="10.599458798285351"><ele>73.0</ele><time>2026-04-06T11:50:40Z</time></trkpt><trkpt lat="45.4642665266511" lon="10.599235957530809"><ele>73.0</ele><time>2026-04-06T11:50:41Z</time></trkpt><trkpt lat="45.46420302550565" lon="10.59901476879508"><ele>73.0</ele><time>2026-04-06T11:50:42Z</time></trkpt><trkpt lat="45.4641596356852" lon="10.598778645590958"><ele>73.0</ele><time>2026-04-06T11:50:43Z</time></trkpt><trkpt lat="45.46411309565876" lon="10.59854217213609"><ele>72.33333333333333</ele><time>2026-04-06T11:50:44Z</time></trkpt><trkpt lat="45.464061138132465" lon="10.598301642661951"><ele>71.66666666666667</ele><time>2026-04-06T11:50:45Z</time></trkpt><trkpt lat="45.464007793642786" lon="10.598058193587553"><ele>71.0</ele><time>2026-04-06T11:50:46Z</time></trkpt><trkpt lat="45.463956390528" lon="10.597814251363898"><ele>71.0</ele><time>2026-04-06T11:50:47Z</time></trkpt><trkpt lat="45.463904093564054" lon="10.597571149475245"><ele>71.0</ele><time>2026-04-06T11:50:48Z</time></trkpt><trkpt lat="45.46385375181871" lon="10.59732992198082"><ele>71.0</ele><time>2026-04-06T11:50:49Z</time></trkpt><trkpt lat="45.46380175937314" lon="10.59708634389492"><ele>71.33333333333334</ele><time>2026-04-06T11:50:50Z</time></trkpt><trkpt lat="45.46375060081015" lon="10.59684755773796"><ele>71.66666666666667</ele><time>2026-04-06T11:50:51Z</time></trkpt><trkpt lat="45.46369916268715" lon="10.596608611569641"><ele>72.0</ele><time>2026-04-06T11:50:52Z</time></trkpt><trkpt lat="45.463648978937265" lon="10.596378926420996"><ele>71.66666666666667</ele><time>2026-04-06T11:50:53Z</time></trkpt><trkpt lat="45.46359809750882" lon="10.596152796322347"><ele>71.33333333333334</ele><time>2026-04-06T11:50:54Z</time></trkpt><trkpt lat="45.46354765285035" lon="10.595928422955515"><ele>71.0</ele><time>2026-04-06T11:50:55Z</time></trkpt><trkpt lat="45.463495821976" lon="10.59570316115404"><ele>71.0</ele><time>2026-04-06T11:50:56Z</time></trkpt><trkpt lat="45.46344469944341" lon="10.595481009706948"><ele>71.0</ele><time>2026-04-06T11:50:57Z</time></trkpt><trkpt lat="45.463391429715365" lon="10.595254370200568"><ele>71.0</ele><time>2026-04-06T11:50:58Z</time></trkpt><trkpt lat="45.46334222814199" lon="10.595030830221964"><ele>70.66666666666667</ele><time>2026-04-06T11:50:59Z</time></trkpt><trkpt lat="45.46329314940027" lon="10.594807377074291"><ele>70.33333333333333</ele><time>2026-04-06T11:51:00Z</time></trkpt><trkpt lat="45.46324765787506" lon="10.59458522489471"><ele>70.0</ele><time>2026-04-06T11:51:01Z</time></trkpt><trkpt lat="45.46320134991536" lon="10.594369565734965"><ele>70.0</ele><time>2026-04-06T11:51:02Z</time></trkpt><trkpt lat="45.463152104015265" lon="10.594160525272263"><ele>70.0</ele><time>2026-04-06T11:51:03Z</time></trkpt><trkpt lat="45.46310965101588" lon="10.593962353093174"><ele>70.0</ele><time>2026-04-06T11:51:04Z</time></trkpt><trkpt lat="45.46308176775097" lon="10.593779390628868"><ele>70.0</ele><time>2026-04-06T11:51:05Z</time></trkpt><trkpt lat="45.46306783670989" lon="10.593604895046775"><ele>70.0</ele><time>2026-04-06T11:51:06Z</time></trkpt><trkpt lat="45.463069365218786" lon="10.59344648842447"><ele>70.0</ele><time>2026-04-06T11:51:07Z</time></trkpt><trkpt lat="45.46308495989838" lon="10.593305795210165"><ele>70.0</ele><time>2026-04-06T11:51:08Z</time></trkpt><trkpt lat="45.46311292112298" lon="10.593184071170763"><ele>70.0</ele><time>2026-04-06T11:51:09Z</time></trkpt><trkpt lat="45.46314629740172" lon="10.593079406793695"><ele>70.0</ele><time>2026-04-06T11:51:10Z</time></trkpt><trkpt lat="45.463181051639594" lon="10.592991517555348"><ele>70.0</ele><time>2026-04-06T11:51:11Z</time></trkpt><trkpt lat="45.463207828744984" lon="10.59288364198123"><ele>70.0</ele><time>2026-04-06T11:51:12Z</time></trkpt><trkpt lat="45.46320446238169" lon="10.592749282931937"><ele>70.0</ele><time>2026-04-06T11:51:13Z</time></trkpt><trkpt lat="45.46317398049945" lon="10.592597134410912"><ele>70.0</ele><time>2026-04-06T11:51:14Z</time></trkpt><trkpt lat="45.463142773624014" lon="10.59242854767444"><ele>70.0</ele><time>2026-04-06T11:51:15Z</time></trkpt><trkpt lat="45.4631313544311" lon="10.592245788060353"><ele>70.25</ele><time>2026-04-06T11:51:16Z</time></trkpt><trkpt lat="45.46312960878285" lon="10.592052420742503"><ele>70.5</ele><time>2026-04-06T11:51:17Z</time></trkpt><trkpt lat="45.46313135909184" lon="10.591851508988812"><ele>70.75</ele><time>2026-04-06T11:51:18Z</time></trkpt><trkpt lat="45.463134631680525" lon="10.591642949910678"><ele>71.0</ele><time>2026-04-06T11:51:19Z</time></trkpt><trkpt lat="45.463139866271405" lon="10.591429984293708"><ele>70.0</ele><time>2026-04-06T11:51:20Z</time></trkpt><trkpt lat="45.46314351470344" lon="10.59121236945121"><ele>69.0</ele><time>2026-04-06T11:51:21Z</time></trkpt><trkpt lat="45.463146579048605" lon="10.59099464000251"><ele>68.0</ele><time>2026-04-06T11:51:22Z</time></trkpt><trkpt lat="45.46314714275009" lon="10.590769942361893"><ele>67.33333333333334</ele><time>2026-04-06T11:51:23Z</time></trkpt><trkpt lat="45.46314618243096" lon="10.590542917357293"><ele>66.66666666666667</ele><time>2026-04-06T11:51:24Z</time></trkpt><trkpt lat="45.46314537923236" lon="10.590323314664296"><ele>66.0</ele><time>2026-04-06T11:51:25Z</time></trkpt><trkpt lat="45.46313521902125" lon="10.590105245595291"><ele>66.0</ele><time>2026-04-06T11:51:26Z</time></trkpt><trkpt lat="45.46311116371834" lon="10.5898897650037"><ele>66.0</ele><time>2026-04-06T11:51:27Z</time></trkpt><trkpt lat="45.46306423186403" lon="10.589676962448074"><ele>66.0</ele><time>2026-04-06T11:51:28Z</time></trkpt><trkpt lat="45.46300189252032" lon="10.589481720914097"><ele>67.0</ele><time>2026-04-06T11:51:29Z</time></trkpt><trkpt lat="45.46292777795365" lon="10.58928947177051"><ele>68.0</ele><time>2026-04-06T11:51:30Z</time></trkpt><trkpt lat="45.46284733296705" lon="10.589096344271875"><ele>69.0</ele><time>2026-04-06T11:51:31Z</time></trkpt><trkpt lat="45.46276726454792" lon="10.588905224247478"><ele>69.0</ele><time>2026-04-06T11:51:32Z</time></trkpt><trkpt lat="45.46268743791498" lon="10.588717059609891"><ele>69.0</ele><time>2026-04-06T11:51:33Z</time></trkpt><trkpt lat="45.462608000598436" lon="10.58853325254151"><ele>69.0</ele><time>2026-04-06T11:51:34Z</time></trkpt><trkpt lat="45.46252122481484" lon="10.588350609500015"><ele>68.0</ele><time>2026-04-06T11:51:35Z</time></trkpt><trkpt lat="45.46243009870692" lon="10.588170968936055"><ele>67.0</ele><time>2026-04-06T11:51:36Z</time></trkpt><trkpt lat="45.462337980025474" lon="10.587995231232593"><ele>66.0</ele><time>2026-04-06T11:51:37Z</time></trkpt><trkpt lat="45.46223907163569" lon="10.587816902824526"><ele>66.33333333333333</ele><time>2026-04-06T11:51:38Z</time></trkpt><trkpt lat="45.46213957028081" lon="10.587634810530707"><ele>66.66666666666666</ele><time>2026-04-06T11:51:39Z</time></trkpt><trkpt lat="45.46204113450591" lon="10.587458729478591"><ele>67.0</ele><time>2026-04-06T11:51:40Z</time></trkpt><trkpt lat="45.461943598212905" lon="10.587273291031599"><ele>67.0</ele><time>2026-04-06T11:51:41Z</time></trkpt><trkpt lat="45.461840831413575" lon="10.587091961389326"><ele>67.0</ele><time>2026-04-06T11:51:42Z</time></trkpt><trkpt lat="45.46173965334351" lon="10.586910397311426"><ele>67.0</ele><time>2026-04-06T11:51:43Z</time></trkpt><trkpt lat="45.46163841447771" lon="10.58672670926697"><ele>66.66666666666666</ele><time>2026-04-06T11:51:44Z</time></trkpt><trkpt lat="45.461535311023546" lon="10.586548020979892"><ele>66.33333333333333</ele><time>2026-04-06T11:51:45Z</time></trkpt><trkpt lat="45.46143521850808" lon="10.586367646041563"><ele>66.0</ele><time>2026-04-06T11:51:46Z</time></trkpt><trkpt lat="45.46133703188603" lon="10.586192589858097"><ele>66.25</ele><time>2026-04-06T11:51:47Z</time></trkpt><trkpt lat="45.46123862994597" lon="10.586019410230445"><ele>66.5</ele><time>2026-04-06T11:51:48Z</time></trkpt><trkpt lat="45.46114365183241" lon="10.585852126269444"><ele>66.75</ele><time>2026-04-06T11:51:49Z</time></trkpt><trkpt lat="45.46105501131367" lon="10.585695003051166"><ele>67.0</ele><time>2026-04-06T11:51:50Z</time></trkpt><trkpt lat="45.46097319645126" lon="10.585544181698092"><ele>67.0</ele><time>2026-04-06T11:51:51Z</time></trkpt><trkpt lat="45.46089135199889" lon="10.585407204581102"><ele>67.0</ele><time>2026-04-06T11:51:52Z</time></trkpt><trkpt lat="45.46082632792146" lon="10.585260592182463"><ele>67.0</ele><time>2026-04-06T11:51:53Z</time></trkpt><trkpt lat="45.460743714012686" lon="10.585156588406834"><ele>67.0</ele><time>2026-04-06T11:51:54Z</time></trkpt><trkpt lat="45.460672032069816" lon="10.585054960344005"><ele>67.2</ele><time>2026-04-06T11:51:55Z</time></trkpt><trkpt lat="45.4606121923731" lon="10.584958205936923"><ele>67.4</ele><time>2026-04-06T11:51:56Z</time></trkpt><trkpt lat="45.46056846572959" lon="10.584831492048828"><ele>67.6</ele><time>2026-04-06T11:51:57Z</time></trkpt><trkpt lat="45.460540590646026" lon="10.584674311218533"><ele>67.8</ele><time>2026-04-06T11:51:58Z</time></trkpt><trkpt lat="45.460525510008615" lon="10.584508909959334"><ele>68.0</ele><time>2026-04-06T11:51:59Z</time></trkpt><trkpt lat="45.46051106473206" lon="10.584322532145624"><ele>68.0</ele><time>2026-04-06T11:52:00Z</time></trkpt><trkpt lat="45.46049061698176" lon="10.584130756411703"><ele>68.0</ele><time>2026-04-06T11:52:01Z</time></trkpt><trkpt lat="45.46046707616292" lon="10.583935280527522"><ele>68.0</ele><time>2026-04-06T11:52:02Z</time></trkpt><trkpt lat="45.4604456214218" lon="10.58373795568744"><ele>68.0</ele><time>2026-04-06T11:52:03Z</time></trkpt><trkpt lat="45.460428706118456" lon="10.583554923998639"><ele>68.25</ele><time>2026-04-06T11:52:04Z</time></trkpt><trkpt lat="45.460414025248184" lon="10.583382116232896"><ele>68.5</ele><time>2026-04-06T11:52:05Z</time></trkpt><trkpt lat="45.460398505994426" lon="10.583219616383355"><ele>68.75</ele><time>2026-04-06T11:52:06Z</time></trkpt><trkpt lat="45.46038367509985" lon="10.583064978011654"><ele>69.0</ele><time>2026-04-06T11:52:07Z</time></trkpt><trkpt lat="45.460364456541875" lon="10.582897170023495"><ele>69.2</ele><time>2026-04-06T11:52:08Z</time></trkpt><trkpt lat="45.460347950228055" lon="10.5827334206024"><ele>69.4</ele><time>2026-04-06T11:52:09Z</time></trkpt><trkpt lat="45.46033205937092" lon="10.582575597550695"><ele>69.6</ele><time>2026-04-06T11:52:10Z</time></trkpt><trkpt lat="45.460318108812324" lon="10.582430620796918"><ele>69.8</ele><time>2026-04-06T11:52:11Z</time></trkpt><trkpt lat="45.46030515815024" lon="10.582292514385"><ele>70.0</ele><time>2026-04-06T11:52:12Z</time></trkpt><trkpt lat="45.460289297902506" lon="10.582158470007808"><ele>70.0</ele><time>2026-04-06T11:52:13Z</time></trkpt><trkpt lat="45.46027639180811" lon="10.582035987984483"><ele>70.0</ele><time>2026-04-06T11:52:14Z</time></trkpt><trkpt lat="45.46026363515425" lon="10.581915825269553"><ele>70.0</ele><time>2026-04-06T11:52:15Z</time></trkpt><trkpt lat="45.46025156153737" lon="10.58179629198971"><ele>70.0</ele><time>2026-04-06T11:52:16Z</time></trkpt><trkpt lat="45.46023984759626" lon="10.581677966699244"><ele>70.0</ele><time>2026-04-06T11:52:17Z</time></trkpt><trkpt lat="45.460226117172155" lon="10.581556141146248"><ele>70.0</ele><time>2026-04-06T11:52:18Z</time></trkpt><trkpt lat="45.46020663483557" lon="10.581458727965405"><ele>69.66666666666666</ele><time>2026-04-06T11:52:19Z</time></trkpt><trkpt lat="45.46016965087899" lon="10.581340934558964"><ele>69.33333333333333</ele><time>2026-04-06T11:52:25Z</time></trkpt><trkpt lat="45.460156035058986" lon="10.581250881763232"><ele>69.0</ele><time>2026-04-06T11:52:26Z</time></trkpt><trkpt lat="45.46015143539472" lon="10.581158992497524"><ele>68.66666666666667</ele><time>2026-04-06T11:52:27Z</time></trkpt><trkpt lat="45.46014415223283" lon="10.58104202503982"><ele>68.33333333333334</ele><time>2026-04-06T11:52:28Z</time></trkpt><trkpt lat="45.46014640738745" lon="10.580929770740193"><ele>68.0</ele><time>2026-04-06T11:52:29Z</time></trkpt><trkpt lat="45.460143233269775" lon="10.580790890915901"><ele>68.0</ele><time>2026-04-06T11:52:30Z</time></trkpt><trkpt lat="45.460139566783575" lon="10.580637056686076"><ele>68.0</ele><time>2026-04-06T11:52:31Z</time></trkpt><trkpt lat="45.460121821894035" lon="10.58047149447984"><ele>68.0</ele><time>2026-04-06T11:52:32Z</time></trkpt><trkpt lat="45.460098812181286" lon="10.580296371497967"><ele>68.0</ele><time>2026-04-06T11:52:33Z</time></trkpt><trkpt lat="45.46008089594148" lon="10.580122883252718"><ele>68.0</ele><time>2026-04-06T11:52:34Z</time></trkpt><trkpt lat="45.46006259893942" lon="10.579958544458327"><ele>68.0</ele><time>2026-04-06T11:52:35Z</time></trkpt><trkpt lat="45.460043148060436" lon="10.57980811171151"><ele>68.0</ele><time>2026-04-06T11:52:36Z</time></trkpt><trkpt lat="45.460043155252876" lon="10.579662563800753"><ele>68.0</ele><time>2026-04-06T11:52:37Z</time></trkpt><trkpt lat="45.46002906108074" lon="10.579526588332985"><ele>68.0</ele><time>2026-04-06T11:52:38Z</time></trkpt><trkpt lat="45.46001443485141" lon="10.579385479550153"><ele>68.0</ele><time>2026-04-06T11:52:39Z</time></trkpt><trkpt lat="45.45999892756747" lon="10.579235870847832"><ele>68.0</ele><time>2026-04-06T11:52:40Z</time></trkpt><trkpt lat="45.45998324043752" lon="10.579084526874777"><ele>68.0</ele><time>2026-04-06T11:52:41Z</time></trkpt><trkpt lat="45.459967176751064" lon="10.578929551323817"><ele>68.0</ele><time>2026-04-06T11:52:42Z</time></trkpt><trkpt lat="45.459951436424" lon="10.57876881696187"><ele>68.0</ele><time>2026-04-06T11:52:43Z</time></trkpt><trkpt lat="45.459935521192506" lon="10.578608115888475"><ele>67.8</ele><time>2026-04-06T11:52:44Z</time></trkpt><trkpt lat="45.45992010031663" lon="10.578452406473765"><ele>67.6</ele><time>2026-04-06T11:52:45Z</time></trkpt><trkpt lat="45.459906108372145" lon="10.578311125373567"><ele>67.4</ele><time>2026-04-06T11:52:46Z</time></trkpt><trkpt lat="45.459893244040664" lon="10.57818123042586"><ele>67.2</ele><time>2026-04-06T11:52:47Z</time></trkpt><trkpt lat="45.45988101185287" lon="10.57806500235789"><ele>67.0</ele><time>2026-04-06T11:52:48Z</time></trkpt><trkpt lat="45.45987006488307" lon="10.57796107882133"><ele>67.2</ele><time>2026-04-06T11:52:49Z</time></trkpt><trkpt lat="45.45985812990922" lon="10.577847775984822"><ele>67.4</ele><time>2026-04-06T11:52:50Z</time></trkpt><trkpt lat="45.45984342517443" lon="10.577708178406729"><ele>67.6</ele><time>2026-04-06T11:52:51Z</time></trkpt><trkpt lat="45.45982801657631" lon="10.577553447450585"><ele>67.8</ele><time>2026-04-06T11:52:52Z</time></trkpt><trkpt lat="45.459812195878406" lon="10.577392435306091"><ele>68.0</ele><time>2026-04-06T11:52:53Z</time></trkpt><trkpt lat="45.45978550433731" lon="10.577233074263779"><ele>68.0</ele><time>2026-04-06T11:52:54Z</time></trkpt><trkpt lat="45.4597767617439" lon="10.577077894097181"><ele>68.0</ele><time>2026-04-06T11:52:55Z</time></trkpt><trkpt lat="45.45977135487734" lon="10.57692776436907"><ele>68.0</ele><time>2026-04-06T11:52:56Z</time></trkpt><trkpt lat="45.45976598788864" lon="10.576771310891504"><ele>68.0</ele><time>2026-04-06T11:52:57Z</time></trkpt><trkpt lat="45.459761456897866" lon="10.576620231431376"><ele>68.0</ele><time>2026-04-06T11:52:58Z</time></trkpt><trkpt lat="45.45975923378094" lon="10.576468067588877"><ele>68.4</ele><time>2026-04-06T11:52:59Z</time></trkpt><trkpt lat="45.459755306698426" lon="10.576311988276387"><ele>68.8</ele><time>2026-04-06T11:53:00Z</time></trkpt><trkpt lat="45.45974568846083" lon="10.57616301490272"><ele>69.2</ele><time>2026-04-06T11:53:01Z</time></trkpt><trkpt lat="45.45974681203257" lon="10.576010528604709"><ele>69.6</ele><time>2026-04-06T11:53:02Z</time></trkpt><trkpt lat="45.45974960898901" lon="10.575866736287521"><ele>70.0</ele><time>2026-04-06T11:53:03Z</time></trkpt><trkpt lat="45.4597606051558" lon="10.575735305276607"><ele>70.0</ele><time>2026-04-06T11:53:04Z</time></trkpt><trkpt lat="45.45979082101063" lon="10.575621520110026"><ele>70.0</ele><time>2026-04-06T11:53:05Z</time></trkpt><trkpt lat="45.459821458743534" lon="10.575504861494183"><ele>70.0</ele><time>2026-04-06T11:53:06Z</time></trkpt><trkpt lat="45.45984056329395" lon="10.57537907471053"><ele>70.0</ele><time>2026-04-06T11:53:07Z</time></trkpt><trkpt lat="45.45984833660948" lon="10.575256838720872"><ele>70.0</ele><time>2026-04-06T11:53:08Z</time></trkpt><trkpt lat="45.45986394718365" lon="10.575154601365876"><ele>70.0</ele><time>2026-04-06T11:53:09Z</time></trkpt><trkpt lat="45.45988410390915" lon="10.575051001514243"><ele>70.0</ele><time>2026-04-06T11:53:10Z</time></trkpt><trkpt lat="45.45990104777836" lon="10.574934664538546"><ele>70.0</ele><time>2026-04-06T11:53:11Z</time></trkpt><trkpt lat="45.45991505661464" lon="10.574806526938099"><ele>70.0</ele><time>2026-04-06T11:53:12Z</time></trkpt><trkpt lat="45.459930495768766" lon="10.574674654573439"><ele>70.0</ele><time>2026-04-06T11:53:13Z</time></trkpt><trkpt lat="45.45994413153212" lon="10.574531278274025"><ele>70.0</ele><time>2026-04-06T11:53:14Z</time></trkpt><trkpt lat="45.45995832382522" lon="10.57437736898349"><ele>70.0</ele><time>2026-04-06T11:53:15Z</time></trkpt><trkpt lat="45.459973754949644" lon="10.574206281049067"><ele>70.0</ele><time>2026-04-06T11:53:16Z</time></trkpt><trkpt lat="45.45999435435908" lon="10.574036533114105"><ele>70.0</ele><time>2026-04-06T11:53:17Z</time></trkpt><trkpt lat="45.46001729793807" lon="10.573855289919834"><ele>70.0</ele><time>2026-04-06T11:53:18Z</time></trkpt><trkpt lat="45.460038505181814" lon="10.573666499777099"><ele>70.75</ele><time>2026-04-06T11:53:19Z</time></trkpt><trkpt lat="45.46006091685029" lon="10.573474064093253"><ele>71.5</ele><time>2026-04-06T11:53:20Z</time></trkpt><trkpt lat="45.46008362092384" lon="10.573276693560446"><ele>72.25</ele><time>2026-04-06T11:53:21Z</time></trkpt><trkpt lat="45.46010670799874" lon="10.573076374775477"><ele>73.0</ele><time>2026-04-06T11:53:22Z</time></trkpt><trkpt lat="45.46012510050185" lon="10.572882086314232"><ele>73.25</ele><time>2026-04-06T11:53:23Z</time></trkpt><trkpt lat="45.460146616061365" lon="10.572715543083627"><ele>73.5</ele><time>2026-04-06T11:53:24Z</time></trkpt><trkpt lat="45.460165322224704" lon="10.572545245241296"><ele>73.75</ele><time>2026-04-06T11:53:25Z</time></trkpt><trkpt lat="45.460183465806054" lon="10.572381781864726"><ele>74.0</ele><time>2026-04-06T11:53:26Z</time></trkpt><trkpt lat="45.46020237504178" lon="10.572216382668367"><ele>74.0</ele><time>2026-04-06T11:53:27Z</time></trkpt><trkpt lat="45.46022046992708" lon="10.572044729548745"><ele>74.0</ele><time>2026-04-06T11:53:28Z</time></trkpt><trkpt lat="45.46023770983834" lon="10.57186912469458"><ele>74.0</ele><time>2026-04-06T11:53:29Z</time></trkpt><trkpt lat="45.46025769654131" lon="10.571690620318378"><ele>74.0</ele><time>2026-04-06T11:53:30Z</time></trkpt><trkpt lat="45.46027959942393" lon="10.571511095670541"><ele>74.75</ele><time>2026-04-06T11:53:31Z</time></trkpt><trkpt lat="45.46030219505185" lon="10.571335562768432"><ele>75.5</ele><time>2026-04-06T11:53:32Z</time></trkpt><trkpt lat="45.460323317495615" lon="10.571166973760674"><ele>76.25</ele><time>2026-04-06T11:53:33Z</time></trkpt><trkpt lat="45.46034292807761" lon="10.571009885994554"><ele>77.0</ele><time>2026-04-06T11:53:34Z</time></trkpt><trkpt lat="45.46035962049687" lon="10.570864708387836"><ele>77.16666666666667</ele><time>2026-04-06T11:53:35Z</time></trkpt><trkpt lat="45.4603749629895" lon="10.570733005469366"><ele>77.33333333333334</ele><time>2026-04-06T11:53:36Z</time></trkpt><trkpt lat="45.46039099307254" lon="10.570611367339547"><ele>77.5</ele><time>2026-04-06T11:53:37Z</time></trkpt><trkpt lat="45.46041391536201" lon="10.570494387898156"><ele>77.66666666666667</ele><time>2026-04-06T11:53:38Z</time></trkpt><trkpt lat="45.460433343739155" lon="10.57037472778621"><ele>77.83333333333333</ele><time>2026-04-06T11:53:39Z</time></trkpt><trkpt lat="45.46043659389795" lon="10.570238297214667"><ele>78.0</ele><time>2026-04-06T11:53:40Z</time></trkpt><trkpt lat="45.460443650887406" lon="10.57008995051434"><ele>76.75</ele><time>2026-04-06T11:53:41Z</time></trkpt><trkpt lat="45.46045607082529" lon="10.56993501190968"><ele>75.5</ele><time>2026-04-06T11:53:42Z</time></trkpt><trkpt lat="45.46047035385216" lon="10.569773205717274"><ele>74.25</ele><time>2026-04-06T11:53:43Z</time></trkpt><trkpt lat="45.46048693100935" lon="10.56960596355109"><ele>73.0</ele><time>2026-04-06T11:53:44Z</time></trkpt><trkpt lat="45.460504737120715" lon="10.56944035387083"><ele>75.75</ele><time>2026-04-06T11:53:45Z</time></trkpt><trkpt lat="45.46052480211559" lon="10.569271918906885"><ele>78.5</ele><time>2026-04-06T11:53:46Z</time></trkpt><trkpt lat="45.460543553897566" lon="10.569106899914956"><ele>81.25</ele><time>2026-04-06T11:53:47Z</time></trkpt><trkpt lat="45.460563047391254" lon="10.568942149870335"><ele>84.0</ele><time>2026-04-06T11:53:48Z</time></trkpt><trkpt lat="45.46058380671267" lon="10.568780876561426"><ele>84.6</ele><time>2026-04-06T11:53:49Z</time></trkpt><trkpt lat="45.460600788716086" lon="10.568630810620379"><ele>85.2</ele><time>2026-04-06T11:53:50Z</time></trkpt><trkpt lat="45.460620312440064" lon="10.568488369953076"><ele>85.8</ele><time>2026-04-06T11:53:51Z</time></trkpt><trkpt lat="45.460638791762086" lon="10.568358950709557"><ele>86.39999999999999</ele><time>2026-04-06T11:53:52Z</time></trkpt><trkpt lat="45.46065156493638" lon="10.568235840937666"><ele>87.0</ele><time>2026-04-06T11:53:53Z</time></trkpt><trkpt lat="45.46066407600341" lon="10.568116096621372"><ele>87.0</ele><time>2026-04-06T11:53:54Z</time></trkpt><trkpt lat="45.46067720167692" lon="10.568003776242708"><ele>87.0</ele><time>2026-04-06T11:53:55Z</time></trkpt><trkpt lat="45.46068815311088" lon="10.567901055183555"><ele>87.0</ele><time>2026-04-06T11:53:56Z</time></trkpt><trkpt lat="45.46069921280597" lon="10.56780126746981"><ele>87.0</ele><time>2026-04-06T11:53:57Z</time></trkpt><trkpt lat="45.46070813951277" lon="10.567692219300842"><ele>87.0</ele><time>2026-04-06T11:53:58Z</time></trkpt><trkpt lat="45.46072254200947" lon="10.567587029912813"><ele>87.0</ele><time>2026-04-06T11:53:59Z</time></trkpt><trkpt lat="45.460732907425864" lon="10.567475301744848"><ele>86.16666666666667</ele><time>2026-04-06T11:54:00Z</time></trkpt><trkpt lat="45.46074501139209" lon="10.567369274519521"><ele>85.33333333333333</ele><time>2026-04-06T11:54:01Z</time></trkpt><trkpt lat="45.460758702380396" lon="10.56725898185105"><ele>84.5</ele><time>2026-04-06T11:54:02Z</time></trkpt><trkpt lat="45.460772528319374" lon="10.56714286773414"><ele>83.66666666666666</ele><time>2026-04-06T11:54:03Z</time></trkpt><trkpt lat="45.46078455406074" lon="10.567020128524806"><ele>82.83333333333333</ele><time>2026-04-06T11:54:04Z</time></trkpt><trkpt lat="45.460797247712996" lon="10.566898529534154"><ele>82.0</ele><time>2026-04-06T11:54:05Z</time></trkpt><trkpt lat="45.46080672386732" lon="10.566777429952028"><ele>82.0</ele><time>2026-04-06T11:54:06Z</time></trkpt><trkpt lat="45.46081270138214" lon="10.566667340240015"><ele>82.0</ele><time>2026-04-06T11:54:07Z</time></trkpt><trkpt lat="45.46081735465551" lon="10.56654969310607"><ele>82.0</ele><time>2026-04-06T11:54:08Z</time></trkpt><trkpt lat="45.460823355217386" lon="10.566432079865645"><ele>82.0</ele><time>2026-04-06T11:54:09Z</time></trkpt><trkpt lat="45.4608310572169" lon="10.566320963224578"><ele>82.0</ele><time>2026-04-06T11:54:10Z</time></trkpt><trkpt lat="45.46083525391701" lon="10.566199892929642"><ele>82.0</ele><time>2026-04-06T11:54:11Z</time></trkpt><trkpt lat="45.460839301907896" lon="10.56607395631264"><ele>82.0</ele><time>2026-04-06T11:54:12Z</time></trkpt><trkpt lat="45.46084465695228" lon="10.565940088433358"><ele>82.0</ele><time>2026-04-06T11:54:13Z</time></trkpt><trkpt lat="45.46085646749416" lon="10.565807260578282"><ele>82.0</ele><time>2026-04-06T11:54:14Z</time></trkpt><trkpt lat="45.460867516395716" lon="10.565671690732817"><ele>82.0</ele><time>2026-04-06T11:54:15Z</time></trkpt><trkpt lat="45.460874279197164" lon="10.565528380580208"><ele>82.0</ele><time>2026-04-06T11:54:16Z</time></trkpt><trkpt lat="45.46088096550568" lon="10.565382464935437"><ele>81.8</ele><time>2026-04-06T11:54:17Z</time></trkpt><trkpt lat="45.46089204061379" lon="10.56523049497115"><ele>81.6</ele><time>2026-04-06T11:54:18Z</time></trkpt><trkpt lat="45.46090729224652" lon="10.565073497508598"><ele>81.39999999999999</ele><time>2026-04-06T11:54:19Z</time></trkpt><trkpt lat="45.46091980298683" lon="10.564913075534788"><ele>81.19999999999999</ele><time>2026-04-06T11:54:20Z</time></trkpt><trkpt lat="45.46093099602691" lon="10.564751040789774"><ele>81.0</ele><time>2026-04-06T11:54:21Z</time></trkpt><trkpt lat="45.46094470794846" lon="10.564587098938787"><ele>80.75</ele><time>2026-04-06T11:54:22Z</time></trkpt><trkpt lat="45.460960721162635" lon="10.564429013756166"><ele>80.5</ele><time>2026-04-06T11:54:23Z</time></trkpt><trkpt lat="45.46097832801369" lon="10.564266976422285"><ele>80.25</ele><time>2026-04-06T11:54:24Z</time></trkpt><trkpt lat="45.46099850579778" lon="10.564103727627614"><ele>80.0</ele><time>2026-04-06T11:54:25Z</time></trkpt><trkpt lat="45.46102008855046" lon="10.563936773708802"><ele>80.0</ele><time>2026-04-06T11:54:26Z</time></trkpt><trkpt lat="45.46103952252566" lon="10.563770067656208"><ele>80.0</ele><time>2026-04-06T11:54:27Z</time></trkpt><trkpt lat="45.461059681506306" lon="10.56360545129689"><ele>80.0</ele><time>2026-04-06T11:54:28Z</time></trkpt><trkpt lat="45.46108167752231" lon="10.563438931384681"><ele>80.0</ele><time>2026-04-06T11:54:29Z</time></trkpt><trkpt lat="45.46110162062428" lon="10.563273355723624"><ele>80.0</ele><time>2026-04-06T11:54:30Z</time></trkpt><trkpt lat="45.46111776817829" lon="10.563104973054983"><ele>80.0</ele><time>2026-04-06T11:54:31Z</time></trkpt><trkpt lat="45.4611338163929" lon="10.56293527828289"><ele>80.0</ele><time>2026-04-06T11:54:32Z</time></trkpt><trkpt lat="45.4611410755535" lon="10.562760930197975"><ele>80.0</ele><time>2026-04-06T11:54:33Z</time></trkpt><trkpt lat="45.46114369617162" lon="10.562590342588578"><ele>79.75</ele><time>2026-04-06T11:54:34Z</time></trkpt><trkpt lat="45.46114434004317" lon="10.562418010024826"><ele>79.5</ele><time>2026-04-06T11:54:35Z</time></trkpt><trkpt lat="45.4611469971366" lon="10.562241376354118"><ele>79.25</ele><time>2026-04-06T11:54:36Z</time></trkpt><trkpt lat="45.46114862817713" lon="10.562068219009971"><ele>79.0</ele><time>2026-04-06T11:54:37Z</time></trkpt><trkpt lat="45.461148222630264" lon="10.561893562662602"><ele>78.5</ele><time>2026-04-06T11:54:38Z</time></trkpt><trkpt lat="45.461147516954654" lon="10.561717059907174"><ele>78.0</ele><time>2026-04-06T11:54:39Z</time></trkpt><trkpt lat="45.461149434500285" lon="10.561539134712305"><ele>77.5</ele><time>2026-04-06T11:54:40Z</time></trkpt><trkpt lat="45.46115052364037" lon="10.561365194379546"><ele>77.0</ele><time>2026-04-06T11:54:41Z</time></trkpt><trkpt lat="45.461150807115075" lon="10.561200207228577"><ele>77.0</ele><time>2026-04-06T11:54:42Z</time></trkpt><trkpt lat="45.46114995711207" lon="10.561047219587078"><ele>77.0</ele><time>2026-04-06T11:54:43Z</time></trkpt><trkpt lat="45.46114929312486" lon="10.560901865072575"><ele>77.0</ele><time>2026-04-06T11:54:44Z</time></trkpt><trkpt lat="45.46114827847499" lon="10.560764909969182"><ele>77.0</ele><time>2026-04-06T11:54:45Z</time></trkpt><trkpt lat="45.46115064139346" lon="10.560633166494629"><ele>77.0</ele><time>2026-04-06T11:54:46Z</time></trkpt><trkpt lat="45.46115520969345" lon="10.560511170677296"><ele>77.0</ele><time>2026-04-06T11:54:47Z</time></trkpt><trkpt lat="45.46116819251761" lon="10.560395741823767"><ele>77.0</ele><time>2026-04-06T11:54:48Z</time></trkpt><trkpt lat="45.46119315429366" lon="10.560293673620725"><ele>77.0</ele><time>2026-04-06T11:54:49Z</time></trkpt><trkpt lat="45.46122719701294" lon="10.56020104207387"><ele>77.0</ele><time>2026-04-06T11:54:50Z</time></trkpt><trkpt lat="45.46123537200434" lon="10.560018016387561"><ele>77.0</ele><time>2026-04-06T11:54:52Z</time></trkpt><trkpt lat="45.46120270231817" lon="10.559910506560596"><ele>77.0</ele><time>2026-04-06T11:54:53Z</time></trkpt><trkpt lat="45.46117496452488" lon="10.559794491480032"><ele>77.2</ele><time>2026-04-06T11:54:54Z</time></trkpt><trkpt lat="45.46116252044324" lon="10.559660918697176"><ele>77.4</ele><time>2026-04-06T11:54:55Z</time></trkpt><trkpt lat="45.46116944004983" lon="10.559514361193317"><ele>77.6</ele><time>2026-04-06T11:54:56Z</time></trkpt><trkpt lat="45.46118720862434" lon="10.55936299483183"><ele>77.8</ele><time>2026-04-06T11:54:57Z</time></trkpt><trkpt lat="45.461214232733944" lon="10.559211173021305"><ele>78.0</ele><time>2026-04-06T11:54:58Z</time></trkpt><trkpt lat="45.461253936039846" lon="10.559072598676293"><ele>77.25</ele><time>2026-04-06T11:54:59Z</time></trkpt><trkpt lat="45.461303995166205" lon="10.558932607915658"><ele>76.5</ele><time>2026-04-06T11:55:00Z</time></trkpt><trkpt lat="45.46135463800006" lon="10.558787664980565"><ele>75.75</ele><time>2026-04-06T11:55:01Z</time></trkpt><trkpt lat="45.46140819867104" lon="10.55863891666913"><ele>75.0</ele><time>2026-04-06T11:55:02Z</time></trkpt><trkpt lat="45.46146490232453" lon="10.558483956833848"><ele>75.0</ele><time>2026-04-06T11:55:03Z</time></trkpt><trkpt lat="45.46152060359745" lon="10.558328722773055"><ele>75.0</ele><time>2026-04-06T11:55:04Z</time></trkpt><trkpt lat="45.46157414491275" lon="10.55817824735509"><ele>75.0</ele><time>2026-04-06T11:55:05Z</time></trkpt><trkpt lat="45.461629165325924" lon="10.558026767345664"><ele>75.0</ele><time>2026-04-06T11:55:06Z</time></trkpt><trkpt lat="45.4616858729629" lon="10.557875399007573"><ele>75.5</ele><time>2026-04-06T11:55:07Z</time></trkpt><trkpt lat="45.46174308939033" lon="10.557723948326103"><ele>76.0</ele><time>2026-04-06T11:55:08Z</time></trkpt><trkpt lat="45.46179919790122" lon="10.557566476221917"><ele>76.5</ele><time>2026-04-06T11:55:09Z</time></trkpt><trkpt lat="45.46185643312099" lon="10.557406419375827"><ele>77.0</ele><time>2026-04-06T11:55:10Z</time></trkpt><trkpt lat="45.46191379522465" lon="10.55724852969449"><ele>77.0</ele><time>2026-04-06T11:55:11Z</time></trkpt><trkpt lat="45.46196871114471" lon="10.557099076787953"><ele>77.0</ele><time>2026-04-06T11:55:12Z</time></trkpt><trkpt lat="45.46202345186141" lon="10.556953372890685"><ele>77.0</ele><time>2026-04-06T11:55:13Z</time></trkpt><trkpt lat="45.46207764341791" lon="10.556808838389806"><ele>77.0</ele><time>2026-04-06T11:55:14Z</time></trkpt><trkpt lat="45.46213635402443" lon="10.556659452571862"><ele>76.0</ele><time>2026-04-06T11:55:15Z</time></trkpt><trkpt lat="45.462195610742235" lon="10.556510563065803"><ele>75.0</ele><time>2026-04-06T11:55:16Z</time></trkpt><trkpt lat="45.462252480244025" lon="10.556362694936285"><ele>74.0</ele><time>2026-04-06T11:55:17Z</time></trkpt><trkpt lat="45.46231298853967" lon="10.556213971404752"><ele>73.0</ele><time>2026-04-06T11:55:18Z</time></trkpt><trkpt lat="45.462369711772816" lon="10.556061411918034"><ele>73.0</ele><time>2026-04-06T11:55:19Z</time></trkpt><trkpt lat="45.46242706942799" lon="10.555920689496865"><ele>73.0</ele><time>2026-04-06T11:55:20Z</time></trkpt><trkpt lat="45.46248795653554" lon="10.555786422898894"><ele>73.0</ele><time>2026-04-06T11:55:21Z</time></trkpt><trkpt lat="45.46255609787479" lon="10.555664273792663"><ele>73.0</ele><time>2026-04-06T11:55:22Z</time></trkpt><trkpt lat="45.46263246120007" lon="10.555544187934975"><ele>73.0</ele><time>2026-04-06T11:55:23Z</time></trkpt><trkpt lat="45.46271676635136" lon="10.55542788736416"><ele>73.25</ele><time>2026-04-06T11:55:24Z</time></trkpt><trkpt lat="45.46279809845913" lon="10.555300177515054"><ele>73.5</ele><time>2026-04-06T11:55:25Z</time></trkpt><trkpt lat="45.46287829171752" lon="10.555172354805984"><ele>73.75</ele><time>2026-04-06T11:55:26Z</time></trkpt><trkpt lat="45.46296374393192" lon="10.555043833114995"><ele>74.0</ele><time>2026-04-06T11:55:27Z</time></trkpt><trkpt lat="45.463053166761306" lon="10.554913792337839"><ele>73.25</ele><time>2026-04-06T11:55:28Z</time></trkpt><trkpt lat="45.4631386993931" lon="10.554782412922059"><ele>72.5</ele><time>2026-04-06T11:55:29Z</time></trkpt><trkpt lat="45.46321970688706" lon="10.554642401367815"><ele>71.75</ele><time>2026-04-06T11:55:30Z</time></trkpt><trkpt lat="45.46329527957339" lon="10.55449840266067"><ele>71.0</ele><time>2026-04-06T11:55:31Z</time></trkpt><trkpt lat="45.46336802800658" lon="10.554344427783112"><ele>71.0</ele><time>2026-04-06T11:55:32Z</time></trkpt><trkpt lat="45.463437367082854" lon="10.55418823006933"><ele>71.0</ele><time>2026-04-06T11:55:33Z</time></trkpt><trkpt lat="45.46350535025422" lon="10.55402469923634"><ele>71.0</ele><time>2026-04-06T11:55:34Z</time></trkpt><trkpt lat="45.46357379970823" lon="10.553861483247761"><ele>71.0</ele><time>2026-04-06T11:55:35Z</time></trkpt><trkpt lat="45.463640706642906" lon="10.553698003282609"><ele>71.5</ele><time>2026-04-06T11:55:36Z</time></trkpt><trkpt lat="45.46370676893265" lon="10.55353363647544"><ele>72.0</ele><time>2026-04-06T11:55:37Z</time></trkpt><trkpt lat="45.46377357336331" lon="10.553372235775896"><ele>72.5</ele><time>2026-04-06T11:55:38Z</time></trkpt><trkpt lat="45.46383793352697" lon="10.553213692389118"><ele>73.0</ele><time>2026-04-06T11:55:39Z</time></trkpt><trkpt lat="45.46390474994524" lon="10.553054592430362"><ele>73.0</ele><time>2026-04-06T11:55:40Z</time></trkpt><trkpt lat="45.46396521372478" lon="10.552905041936164"><ele>73.0</ele><time>2026-04-06T11:55:41Z</time></trkpt><trkpt lat="45.464021626591794" lon="10.552759012921713"><ele>73.0</ele><time>2026-04-06T11:55:42Z</time></trkpt><trkpt lat="45.464072478808525" lon="10.552610862950742"><ele>73.0</ele><time>2026-04-06T11:55:43Z</time></trkpt><trkpt lat="45.46412773038729" lon="10.552467073481028"><ele>73.0</ele><time>2026-04-06T11:55:44Z</time></trkpt><trkpt lat="45.4641894654384" lon="10.552318207166888"><ele>73.0</ele><time>2026-04-06T11:55:45Z</time></trkpt><trkpt lat="45.46425780899826" lon="10.552170716290895"><ele>73.0</ele><time>2026-04-06T11:55:46Z</time></trkpt><trkpt lat="45.46432946966557" lon="10.55202773304925"><ele>73.0</ele><time>2026-04-06T11:55:47Z</time></trkpt><trkpt lat="45.46440232878763" lon="10.551889613370102"><ele>73.0</ele><time>2026-04-06T11:55:48Z</time></trkpt><trkpt lat="45.464478451609004" lon="10.551758356346616"><ele>73.0</ele><time>2026-04-06T11:55:49Z</time></trkpt><trkpt lat="45.46455737154209" lon="10.551631132371131"><ele>73.0</ele><time>2026-04-06T11:55:50Z</time></trkpt><trkpt lat="45.464637397382454" lon="10.551505178495356"><ele>73.0</ele><time>2026-04-06T11:55:51Z</time></trkpt><trkpt lat="45.46471344532611" lon="10.551376976933007"><ele>72.75</ele><time>2026-04-06T11:55:52Z</time></trkpt><trkpt lat="45.46478761959794" lon="10.551253609551482"><ele>72.5</ele><time>2026-04-06T11:55:53Z</time></trkpt><trkpt lat="45.4648613489659" lon="10.551131579592075"><ele>72.25</ele><time>2026-04-06T11:55:54Z</time></trkpt><trkpt lat="45.46493279828577" lon="10.55100896089902"><ele>72.0</ele><time>2026-04-06T11:55:55Z</time></trkpt><trkpt lat="45.46500711894725" lon="10.550884471872005"><ele>72.0</ele><time>2026-04-06T11:55:56Z</time></trkpt><trkpt lat="45.46508420546528" lon="10.550760733282258"><ele>72.0</ele><time>2026-04-06T11:55:57Z</time></trkpt><trkpt lat="45.46516154762916" lon="10.55063888737825"><ele>72.0</ele><time>2026-04-06T11:55:58Z</time></trkpt><trkpt lat="45.46523745340811" lon="10.55051546609928"><ele>72.0</ele><time>2026-04-06T11:55:59Z</time></trkpt><trkpt lat="45.46531169151628" lon="10.550389975537549"><ele>71.75</ele><time>2026-04-06T11:56:00Z</time></trkpt><trkpt lat="45.465382900885864" lon="10.550259562757637"><ele>71.5</ele><time>2026-04-06T11:56:01Z</time></trkpt><trkpt lat="45.46545206244412" lon="10.550127005087708"><ele>71.25</ele><time>2026-04-06T11:56:02Z</time></trkpt><trkpt lat="45.46551850023625" lon="10.54999131177192"><ele>71.0</ele><time>2026-04-06T11:56:03Z</time></trkpt><trkpt lat="45.46558199086845" lon="10.549855012180817"><ele>71.0</ele><time>2026-04-06T11:56:04Z</time></trkpt><trkpt lat="45.46564315526174" lon="10.549723190191466"><ele>71.0</ele><time>2026-04-06T11:56:05Z</time></trkpt><trkpt lat="45.46569984225937" lon="10.549591332431717"><ele>71.0</ele><time>2026-04-06T11:56:06Z</time></trkpt><trkpt lat="45.46575790761432" lon="10.549458667990255"><ele>71.0</ele><time>2026-04-06T11:56:07Z</time></trkpt><trkpt lat="45.465812323779765" lon="10.549331209404201"><ele>71.0</ele><time>2026-04-06T11:56:08Z</time></trkpt><trkpt lat="45.465866588266316" lon="10.549200976381206"><ele>71.2</ele><time>2026-04-06T11:56:09Z</time></trkpt><trkpt lat="45.46591925934392" lon="10.549067536810293"><ele>71.39999999999999</ele><time>2026-04-06T11:56:10Z</time></trkpt><trkpt lat="45.46597015332379" lon="10.548934155743147"><ele>71.6</ele><time>2026-04-06T11:56:11Z</time></trkpt><trkpt lat="45.466021537975145" lon="10.548800478120304"><ele>71.8</ele><time>2026-04-06T11:56:12Z</time></trkpt><trkpt lat="45.46606987276071" lon="10.548671754456688"><ele>72.0</ele><time>2026-04-06T11:56:13Z</time></trkpt><trkpt lat="45.466116286291175" lon="10.548542527187326"><ele>72.0</ele><time>2026-04-06T11:56:14Z</time></trkpt><trkpt lat="45.46616042816308" lon="10.548412941819821"><ele>72.0</ele><time>2026-04-06T11:56:15Z</time></trkpt><trkpt lat="45.46620156818703" lon="10.54828075079548"><ele>72.0</ele><time>2026-04-06T11:56:16Z</time></trkpt><trkpt lat="45.46624214513294" lon="10.548148753447963"><ele>72.0</ele><time>2026-04-06T11:56:17Z</time></trkpt><trkpt lat="45.46628396767356" lon="10.548023811540844"><ele>72.0</ele><time>2026-04-06T11:56:18Z</time></trkpt><trkpt lat="45.4663263388615" lon="10.547895909522541"><ele>72.0</ele><time>2026-04-06T11:56:19Z</time></trkpt><trkpt lat="45.46636787918193" lon="10.547766170110066"><ele>72.0</ele><time>2026-04-06T11:56:20Z</time></trkpt><trkpt lat="45.466409397600906" lon="10.547641082541766"><ele>72.0</ele><time>2026-04-06T11:56:21Z</time></trkpt><trkpt lat="45.46645022545589" lon="10.547511843497716"><ele>72.0</ele><time>2026-04-06T11:56:22Z</time></trkpt><trkpt lat="45.46648995814319" lon="10.54738485735237"><ele>72.0</ele><time>2026-04-06T11:56:23Z</time></trkpt><trkpt lat="45.466528298548305" lon="10.547266798592013"><ele>72.0</ele><time>2026-04-06T11:56:24Z</time></trkpt><trkpt lat="45.46656997704735" lon="10.547148763185767"><ele>72.0</ele><time>2026-04-06T11:56:25Z</time></trkpt><trkpt lat="45.46661200295149" lon="10.547033151445413"><ele>72.0</ele><time>2026-04-06T11:56:26Z</time></trkpt><trkpt lat="45.46664907217228" lon="10.546921643796171"><ele>72.0</ele><time>2026-04-06T11:56:27Z</time></trkpt><trkpt lat="45.46668232182175" lon="10.546818124627745"><ele>72.0</ele><time>2026-04-06T11:56:28Z</time></trkpt><trkpt lat="45.46671549789978" lon="10.546720696838403"><ele>72.0</ele><time>2026-04-06T11:56:29Z</time></trkpt><trkpt lat="45.46674618049835" lon="10.546627941250854"><ele>72.16666666666667</ele><time>2026-04-06T11:56:30Z</time></trkpt><trkpt lat="45.46677518300005" lon="10.54654481450861"><ele>72.33333333333333</ele><time>2026-04-06T11:56:31Z</time></trkpt><trkpt lat="45.46682845175907" lon="10.546400886324669"><ele>72.5</ele><time>2026-04-06T11:56:33Z</time></trkpt><trkpt lat="45.4668687181387" lon="10.546286584868522"><ele>72.66666666666666</ele><time>2026-04-06T11:56:35Z</time></trkpt><trkpt lat="45.46690823299242" lon="10.546171638885994"><ele>72.83333333333333</ele><time>2026-04-06T11:56:38Z</time></trkpt><trkpt lat="45.46693715561539" lon="10.546091676032725"><ele>73.0</ele><time>2026-04-06T11:56:40Z</time></trkpt><trkpt lat="45.4669677421857" lon="10.545991755589492"><ele>72.8</ele><time>2026-04-06T11:56:42Z</time></trkpt><trkpt lat="45.4669877959725" lon="10.545869161035043"><ele>72.6</ele><time>2026-04-06T11:56:45Z</time></trkpt><trkpt lat="45.46701325236211" lon="10.545748071486123"><ele>72.4</ele><time>2026-04-06T11:56:47Z</time></trkpt><trkpt lat="45.467049150851594" lon="10.545618130958264"><ele>72.2</ele><time>2026-04-06T11:56:49Z</time></trkpt><trkpt lat="45.46702504076383" lon="10.545443814342864"><ele>72.0</ele><time>2026-04-06T11:56:51Z</time></trkpt><trkpt lat="45.46700885222665" lon="10.545351944041984"><ele>72.0</ele><time>2026-04-06T11:56:52Z</time></trkpt><trkpt lat="45.46699862061559" lon="10.545254372215474"><ele>72.0</ele><time>2026-04-06T11:56:53Z</time></trkpt><trkpt lat="45.466994480540365" lon="10.545152892202408"><ele>72.0</ele><time>2026-04-06T11:56:54Z</time></trkpt><trkpt lat="45.46699248563502" lon="10.545050507889453"><ele>72.0</ele><time>2026-04-06T11:56:55Z</time></trkpt><trkpt lat="45.46698855746549" lon="10.54494387240588"><ele>72.0</ele><time>2026-04-06T11:56:56Z</time></trkpt><trkpt lat="45.466981301781914" lon="10.544833761916099"><ele>72.0</ele><time>2026-04-06T11:56:57Z</time></trkpt><trkpt lat="45.46697070572678" lon="10.544713211984277"><ele>72.0</ele><time>2026-04-06T11:56:58Z</time></trkpt><trkpt lat="45.46695601447611" lon="10.544592086451285"><ele>72.0</ele><time>2026-04-06T11:56:59Z</time></trkpt><trkpt lat="45.46694528994631" lon="10.544473785916688"><ele>72.0</ele><time>2026-04-06T11:57:00Z</time></trkpt><trkpt lat="45.46693166561414" lon="10.544343698867998"><ele>72.0</ele><time>2026-04-06T11:57:01Z</time></trkpt><trkpt lat="45.46691884627078" lon="10.544214195680281"><ele>72.0</ele><time>2026-04-06T11:57:02Z</time></trkpt><trkpt lat="45.46690353063395" lon="10.544084119104022"><ele>72.0</ele><time>2026-04-06T11:57:03Z</time></trkpt><trkpt lat="45.46688838361903" lon="10.543944711886354"><ele>72.16666666666667</ele><time>2026-04-06T11:57:04Z</time></trkpt><trkpt lat="45.46687487590262" lon="10.543805243919975"><ele>72.33333333333333</ele><time>2026-04-06T11:57:05Z</time></trkpt><trkpt lat="45.466866154375516" lon="10.543666295636019"><ele>72.5</ele><time>2026-04-06T11:57:06Z</time></trkpt><trkpt lat="45.46685940046984" lon="10.543536889176554"><ele>72.66666666666666</ele><time>2026-04-06T11:57:07Z</time></trkpt><trkpt lat="45.46685570908724" lon="10.54342062254194"><ele>72.83333333333333</ele><time>2026-04-06T11:57:08Z</time></trkpt><trkpt lat="45.46685951119793" lon="10.543316814614668"><ele>73.0</ele><time>2026-04-06T11:57:09Z</time></trkpt><trkpt lat="45.4668526874351" lon="10.543128783368825"><ele>73.42857142857143</ele><time>2026-04-06T11:57:11Z</time></trkpt><trkpt lat="45.466852889662896" lon="10.543024301028543"><ele>73.85714285714286</ele><time>2026-04-06T11:57:12Z</time></trkpt><trkpt lat="45.466850360047175" lon="10.54292612860438"><ele>74.28571428571428</ele><time>2026-04-06T11:57:13Z</time></trkpt><trkpt lat="45.46684885701725" lon="10.542822866964885"><ele>74.71428571428572</ele><time>2026-04-06T11:57:14Z</time></trkpt><trkpt lat="45.46684832437073" lon="10.542731226579129"><ele>75.14285714285715</ele><time>2026-04-06T11:57:15Z</time></trkpt><trkpt lat="45.466850357470186" lon="10.542592240329432"><ele>75.57142857142857</ele><time>2026-04-06T11:57:17Z</time></trkpt><trkpt lat="45.4668525128023" lon="10.542500908984085"><ele>76.0</ele><time>2026-04-06T11:57:19Z</time></trkpt><trkpt lat="45.466859330687704" lon="10.542363701191771"><ele>76.0</ele><time>2026-04-06T11:57:22Z</time></trkpt><trkpt lat="45.46686287314128" lon="10.542265711677018"><ele>76.0</ele><time>2026-04-06T11:57:24Z</time></trkpt><trkpt lat="45.46687011086653" lon="10.542158342817615"><ele>76.0</ele><time>2026-04-06T11:57:29Z</time></trkpt><trkpt lat="45.46689112341338" lon="10.54200810809555"><ele>76.0</ele><time>2026-04-06T11:57:32Z</time></trkpt><trkpt lat="45.466905408883974" lon="10.541861110234006"><ele>76.0</ele><time>2026-04-06T11:57:34Z</time></trkpt><trkpt lat="45.46690389222445" lon="10.541704303632894"><ele>76.0</ele><time>2026-04-06T11:57:36Z</time></trkpt><trkpt lat="45.46692429764798" lon="10.541548268681224"><ele>76.0</ele><time>2026-04-06T11:57:38Z</time></trkpt><trkpt lat="45.466942616719315" lon="10.54138601069884"><ele>76.0</ele><time>2026-04-06T11:57:40Z</time></trkpt><trkpt lat="45.466954576911476" lon="10.541290218781146"><ele>76.0</ele><time>2026-04-06T11:57:41Z</time></trkpt><trkpt lat="45.466969235790714" lon="10.541187042663477"><ele>76.0</ele><time>2026-04-06T11:57:42Z</time></trkpt><trkpt lat="45.4669599772374" lon="10.54107582769219"><ele>76.0</ele><time>2026-04-06T11:57:43Z</time></trkpt><trkpt lat="45.466973583947066" lon="10.5409636627354"><ele>76.28571428571428</ele><time>2026-04-06T11:57:44Z</time></trkpt><trkpt lat="45.46699168620404" lon="10.54084955840985"><ele>76.57142857142858</ele><time>2026-04-06T11:57:45Z</time></trkpt><trkpt lat="45.46701035288797" lon="10.54074508348536"><ele>76.85714285714286</ele><time>2026-04-06T11:57:46Z</time></trkpt><trkpt lat="45.46702876021378" lon="10.540656569821262"><ele>77.14285714285714</ele><time>2026-04-06T11:57:47Z</time></trkpt><trkpt lat="45.4670458616883" lon="10.540559797427711"><ele>77.42857142857142</ele><time>2026-04-06T11:57:48Z</time></trkpt><trkpt lat="45.46706552517397" lon="10.540459045879086"><ele>77.71428571428572</ele><time>2026-04-06T11:57:49Z</time></trkpt><trkpt lat="45.46708538671919" lon="10.540365730373628"><ele>78.0</ele><time>2026-04-06T11:57:50Z</time></trkpt><trkpt lat="45.467136747764236" lon="10.540237234114354"><ele>78.28571428571429</ele><time>2026-04-06T11:57:52Z</time></trkpt><trkpt lat="45.46715929263801" lon="10.540131712489314"><ele>78.57142857142857</ele><time>2026-04-06T11:58:41Z</time></trkpt><trkpt lat="45.46718774144254" lon="10.540004632895963"><ele>78.85714285714286</ele><time>2026-04-06T11:58:44Z</time></trkpt><trkpt lat="45.46720794757401" lon="10.539914608176902"><ele>79.14285714285714</ele><time>2026-04-06T11:58:48Z</time></trkpt><trkpt lat="45.467228725624146" lon="10.539826204701347"><ele>79.42857142857143</ele><time>2026-04-06T11:58:52Z</time></trkpt><trkpt lat="45.46723674634192" lon="10.539729660098624"><ele>79.71428571428571</ele><time>2026-04-06T11:58:56Z</time></trkpt><trkpt lat="45.467278250711516" lon="10.539639054367996"><ele>80.0</ele><time>2026-04-06T11:59:01Z</time></trkpt><trkpt lat="45.46731498926968" lon="10.539502131347867"><ele>80.2</ele><time>2026-04-06T11:59:04Z</time></trkpt><trkpt lat="45.46735329430754" lon="10.53937379602165"><ele>80.4</ele><time>2026-04-06T11:59:06Z</time></trkpt><trkpt lat="45.467370307268816" lon="10.539264206669444"><ele>80.6</ele><time>2026-04-06T11:59:08Z</time></trkpt><trkpt lat="45.46742896215124" lon="10.539126078798098"><ele>80.8</ele><time>2026-04-06T11:59:10Z</time></trkpt><trkpt lat="45.467470126311774" lon="10.538997879129772"><ele>81.0</ele><time>2026-04-06T11:59:12Z</time></trkpt><trkpt lat="45.467521848118764" lon="10.538844181818352"><ele>81.83333333333333</ele><time>2026-04-06T11:59:14Z</time></trkpt><trkpt lat="45.467553607508925" lon="10.538703787436413"><ele>82.66666666666667</ele><time>2026-04-06T11:59:16Z</time></trkpt><trkpt lat="45.467600487347795" lon="10.538585153857047"><ele>83.5</ele><time>2026-04-06T11:59:18Z</time></trkpt><trkpt lat="45.467645967145025" lon="10.538500574459217"><ele>84.33333333333334</ele><time>2026-04-06T11:59:20Z</time></trkpt><trkpt lat="45.46770701619858" lon="10.538422284386792"><ele>85.16666666666667</ele><time>2026-04-06T11:59:31Z</time></trkpt><trkpt lat="45.46777070176385" lon="10.538403524834486"><ele>86.0</ele><time>2026-04-06T11:59:34Z</time></trkpt><trkpt lat="45.46782919174661" lon="10.538288172053104"><ele>86.0</ele><time>2026-04-06T11:59:37Z</time></trkpt><trkpt lat="45.46780281990572" lon="10.538186003271825"><ele>86.0</ele><time>2026-04-06T11:59:38Z</time></trkpt><trkpt lat="45.467812537657586" lon="10.538025871529957"><ele>86.0</ele><time>2026-04-06T11:59:40Z</time></trkpt><trkpt lat="45.467860789889656" lon="10.537870044433784"><ele>86.0</ele><time>2026-04-06T11:59:42Z</time></trkpt><trkpt lat="45.4678948670397" lon="10.537778144869034"><ele>86.0</ele><time>2026-04-06T11:59:43Z</time></trkpt><trkpt lat="45.467939111098175" lon="10.537658059572768"><ele>85.8</ele><time>2026-04-06T11:59:44Z</time></trkpt><trkpt lat="45.46798041568464" lon="10.537529601144591"><ele>85.6</ele><time>2026-04-06T11:59:45Z</time></trkpt><trkpt lat="45.46802228871421" lon="10.537410271964776"><ele>85.4</ele><time>2026-04-06T11:59:46Z</time></trkpt><trkpt lat="45.46806837738812" lon="10.537294638781372"><ele>85.2</ele><time>2026-04-06T11:59:47Z</time></trkpt><trkpt lat="45.46811089693721" lon="10.537177280445563"><ele>85.0</ele><time>2026-04-06T11:59:48Z</time></trkpt><trkpt lat="45.46815406017853" lon="10.537056149746968"><ele>85.4</ele><time>2026-04-06T11:59:49Z</time></trkpt><trkpt lat="45.46819467978483" lon="10.536933294743543"><ele>85.8</ele><time>2026-04-06T11:59:50Z</time></trkpt><trkpt lat="45.46824132784972" lon="10.536803058388815"><ele>86.19999999999999</ele><time>2026-04-06T11:59:51Z</time></trkpt><trkpt lat="45.46829322009861" lon="10.536669872096782"><ele>86.6</ele><time>2026-04-06T11:59:52Z</time></trkpt><trkpt lat="45.46834094485719" lon="10.536540918166917"><ele>87.0</ele><time>2026-04-06T11:59:53Z</time></trkpt><trkpt lat="45.468385186640184" lon="10.536423264804425"><ele>87.0</ele><time>2026-04-06T11:59:54Z</time></trkpt><trkpt lat="45.46842480258632" lon="10.536306465906497"><ele>87.0</ele><time>2026-04-06T11:59:55Z</time></trkpt><trkpt lat="45.46845939134282" lon="10.536200767726298"><ele>87.0</ele><time>2026-04-06T11:59:56Z</time></trkpt><trkpt lat="45.46849719900589" lon="10.536110868715339"><ele>87.0</ele><time>2026-04-06T11:59:57Z</time></trkpt><trkpt lat="45.468529868901754" lon="10.536014001270084"><ele>87.0</ele><time>2026-04-06T11:59:58Z</time></trkpt><trkpt lat="45.468570736644025" lon="10.535911782386203"><ele>87.0</ele><time>2026-04-06T11:59:59Z</time></trkpt><trkpt lat="45.468611292937894" lon="10.535797214899874"><ele>87.33333333333333</ele><time>2026-04-06T12:00:00Z</time></trkpt><trkpt lat="45.46864840748193" lon="10.535678282685303"><ele>87.66666666666667</ele><time>2026-04-06T12:00:01Z</time></trkpt><trkpt lat="45.46869162953982" lon="10.535561684141273"><ele>88.0</ele><time>2026-04-06T12:00:02Z</time></trkpt><trkpt lat="45.468723271127125" lon="10.535468751607175"><ele>88.33333333333334</ele><time>2026-04-06T12:00:03Z</time></trkpt><trkpt lat="45.468755568115604" lon="10.53537688201982"><ele>88.66666666666667</ele><time>2026-04-06T12:00:05Z</time></trkpt><trkpt lat="45.46880019825189" lon="10.535276778979908"><ele>89.0</ele><time>2026-04-06T12:00:07Z</time></trkpt><trkpt lat="45.46884149282898" lon="10.535152263491929"><ele>89.4</ele><time>2026-04-06T12:00:09Z</time></trkpt><trkpt lat="45.46888494810811" lon="10.53501388360308"><ele>89.80000000000001</ele><time>2026-04-06T12:00:11Z</time></trkpt><trkpt lat="45.46893927471921" lon="10.53488389338424"><ele>90.19999999999999</ele><time>2026-04-06T12:00:13Z</time></trkpt><trkpt lat="45.46897881597311" lon="10.534772488470981"><ele>90.6</ele><time>2026-04-06T12:00:15Z</time></trkpt><trkpt lat="45.4690189315989" lon="10.534653111529902"><ele>91.0</ele><time>2026-04-06T12:00:17Z</time></trkpt><trkpt lat="45.46907051447037" lon="10.534522900452034"><ele>91.33333333333333</ele><time>2026-04-06T12:00:19Z</time></trkpt><trkpt lat="45.46909566386919" lon="10.534432538386087"><ele>91.66666666666666</ele><time>2026-04-06T12:00:20Z</time></trkpt><trkpt lat="45.469130305104365" lon="10.53431217786603"><ele>92.0</ele><time>2026-04-06T12:00:21Z</time></trkpt><trkpt lat="45.46917165186161" lon="10.534183474084308"><ele>92.33333333333333</ele><time>2026-04-06T12:00:22Z</time></trkpt><trkpt lat="45.469218820533854" lon="10.53407426099596"><ele>92.66666666666667</ele><time>2026-04-06T12:00:23Z</time></trkpt><trkpt lat="45.469251543348136" lon="10.533960255899258"><ele>93.0</ele><time>2026-04-06T12:00:24Z</time></trkpt><trkpt lat="45.469285787751566" lon="10.53385586469149"><ele>93.0</ele><time>2026-04-06T12:00:25Z</time></trkpt><trkpt lat="45.46931463949945" lon="10.533751250444245"><ele>93.0</ele><time>2026-04-06T12:00:26Z</time></trkpt><trkpt lat="45.46934223317161" lon="10.533654862276231"><ele>93.0</ele><time>2026-04-06T12:00:27Z</time></trkpt><trkpt lat="45.469368812819106" lon="10.533569427195278"><ele>93.0</ele><time>2026-04-06T12:00:28Z</time></trkpt><trkpt lat="45.46941587206845" lon="10.53340963361679"><ele>93.0</ele><time>2026-04-06T12:00:30Z</time></trkpt><trkpt lat="45.469441373190975" lon="10.533320963212825"><ele>93.0</ele><time>2026-04-06T12:00:31Z</time></trkpt><trkpt lat="45.46946642712448" lon="10.53323137767297"><ele>93.16666666666667</ele><time>2026-04-06T12:00:32Z</time></trkpt><trkpt lat="45.46948545214024" lon="10.533140239735282"><ele>93.33333333333333</ele><time>2026-04-06T12:00:33Z</time></trkpt><trkpt lat="45.46950701407418" lon="10.533048646514688"><ele>93.5</ele><time>2026-04-06T12:00:34Z</time></trkpt><trkpt lat="45.46952899893767" lon="10.532962440627808"><ele>93.66666666666666</ele><time>2026-04-06T12:00:35Z</time></trkpt><trkpt lat="45.469561919038505" lon="10.532829564172458"><ele>93.83333333333333</ele><time>2026-04-06T12:00:37Z</time></trkpt><trkpt lat="45.46958763579522" lon="10.532708364220529"><ele>94.0</ele><time>2026-04-06T12:00:40Z</time></trkpt><trkpt lat="45.46960669294793" lon="10.532619252344775"><ele>94.33333333333333</ele><time>2026-04-06T12:00:42Z</time></trkpt><trkpt lat="45.46963755689514" lon="10.532539601918579"><ele>94.66666666666666</ele><time>2026-04-06T12:00:44Z</time></trkpt><trkpt lat="45.46967016892482" lon="10.532447080434169"><ele>95.0</ele><time>2026-04-06T12:00:50Z</time></trkpt><trkpt lat="45.46973122521285" lon="10.532341087533984"><ele>95.33333333333333</ele><time>2026-04-06T12:00:54Z</time></trkpt><trkpt lat="45.46982330438295" lon="10.532323015005034"><ele>95.66666666666667</ele><time>2026-04-06T12:00:56Z</time></trkpt><trkpt lat="45.46989926093566" lon="10.532278638329112"><ele>96.0</ele><time>2026-04-06T12:00:58Z</time></trkpt><trkpt lat="45.469944724985794" lon="10.53217797002314"><ele>95.8</ele><time>2026-04-06T12:01:00Z</time></trkpt><trkpt lat="45.46987955111481" lon="10.53205304726121"><ele>95.6</ele><time>2026-04-06T12:01:01Z</time></trkpt><trkpt lat="45.46983287779" lon="10.531909885172821"><ele>95.4</ele><time>2026-04-06T12:01:03Z</time></trkpt><trkpt lat="45.469813649982704" lon="10.531817412192959"><ele>95.2</ele><time>2026-04-06T12:01:04Z</time></trkpt><trkpt lat="45.46979473534723" lon="10.531710547966552"><ele>95.0</ele><time>2026-04-06T12:01:05Z</time></trkpt><trkpt lat="45.469773218092676" lon="10.531581975691115"><ele>95.0</ele><time>2026-04-06T12:01:06Z</time></trkpt><trkpt lat="45.46974247048515" lon="10.531433796448356"><ele>95.0</ele><time>2026-04-06T12:01:07Z</time></trkpt><trkpt lat="45.469739647006726" lon="10.531261623638235"><ele>95.0</ele><time>2026-04-06T12:01:08Z</time></trkpt><trkpt lat="45.46971195792063" lon="10.531092764037322"><ele>95.0</ele><time>2026-04-06T12:01:09Z</time></trkpt><trkpt lat="45.46968411386924" lon="10.530920870495951"><ele>95.0</ele><time>2026-04-06T12:01:10Z</time></trkpt><trkpt lat="45.469660428666565" lon="10.53077385213373"><ele>95.0</ele><time>2026-04-06T12:01:11Z</time></trkpt><trkpt lat="45.469619960640436" lon="10.530625521856365"><ele>95.0</ele><time>2026-04-06T12:01:12Z</time></trkpt><trkpt lat="45.46959465617374" lon="10.530481163778218"><ele>95.0</ele><time>2026-04-06T12:01:13Z</time></trkpt><trkpt lat="45.46956484156296" lon="10.530340863338877"><ele>95.0</ele><time>2026-04-06T12:01:14Z</time></trkpt><trkpt lat="45.46954270454392" lon="10.530213304727175"><ele>95.0</ele><time>2026-04-06T12:01:15Z</time></trkpt><trkpt lat="45.469549060508804" lon="10.530085448178111"><ele>95.0</ele><time>2026-04-06T12:01:16Z</time></trkpt><trkpt lat="45.4695153954575" lon="10.529972336937796"><ele>95.0</ele><time>2026-04-06T12:01:17Z</time></trkpt><trkpt lat="45.46949709348488" lon="10.529857895908515"><ele>95.0</ele><time>2026-04-06T12:01:18Z</time></trkpt><trkpt lat="45.46948102693849" lon="10.529757396924703"><ele>95.0</ele><time>2026-04-06T12:01:19Z</time></trkpt><trkpt lat="45.46946536340761" lon="10.529666560381498"><ele>95.0</ele><time>2026-04-06T12:01:20Z</time></trkpt><trkpt lat="45.469447841316864" lon="10.529509915799505"><ele>95.16666666666667</ele><time>2026-04-06T12:01:22Z</time></trkpt><trkpt lat="45.46940530281967" lon="10.529349987466427"><ele>95.33333333333334</ele><time>2026-04-06T12:01:24Z</time></trkpt><trkpt lat="45.46934860191286" lon="10.529239947144992"><ele>95.5</ele><time>2026-04-06T12:01:26Z</time></trkpt><trkpt lat="45.46931261623775" lon="10.529154971373734"><ele>95.66666666666667</ele><time>2026-04-06T12:01:31Z</time></trkpt><trkpt lat="45.469272295036255" lon="10.529063916861853"><ele>95.83333333333333</ele><time>2026-04-06T12:01:35Z</time></trkpt><trkpt lat="45.46927896761733" lon="10.52894424303974"><ele>96.0</ele><time>2026-04-06T12:01:38Z</time></trkpt><trkpt lat="45.46929064094572" lon="10.528854177674992"><ele>96.0</ele><time>2026-04-06T12:01:40Z</time></trkpt><trkpt lat="45.4692533650767" lon="10.5287609134008"><ele>96.0</ele><time>2026-04-06T12:01:42Z</time></trkpt><trkpt lat="45.469174151827694" lon="10.528724328227504"><ele>96.0</ele><time>2026-04-06T12:01:44Z</time></trkpt><trkpt lat="45.46910101122401" lon="10.528805234145908"><ele>96.0</ele><time>2026-04-06T12:01:46Z</time></trkpt><trkpt lat="45.469106751172255" lon="10.528935541184515"><ele>96.0</ele><time>2026-04-06T12:01:48Z</time></trkpt><trkpt lat="45.46920021637812" lon="10.529009942942036"><ele>96.0</ele><time>2026-04-06T12:01:50Z</time></trkpt><trkpt lat="45.46926536310634" lon="10.52901908826731"><ele>96.0</ele><time>2026-04-06T12:01:51Z</time></trkpt><trkpt lat="45.469341381819184" lon="10.529030118577232"><ele>96.0</ele><time>2026-04-06T12:01:52Z</time></trkpt><trkpt lat="45.469427195270896" lon="10.529041401189199"><ele>96.0</ele><time>2026-04-06T12:01:53Z</time></trkpt><trkpt lat="45.46951755930417" lon="10.529036297434372"><ele>96.0</ele><time>2026-04-06T12:01:54Z</time></trkpt><trkpt lat="45.46961570644004" lon="10.528998231321696"><ele>96.0</ele><time>2026-04-06T12:01:55Z</time></trkpt><trkpt lat="45.46971372930576" lon="10.52893493640741"><ele>95.75</ele><time>2026-04-06T12:01:56Z</time></trkpt><trkpt lat="45.46981984602464" lon="10.528866426899427"><ele>95.5</ele><time>2026-04-06T12:01:57Z</time></trkpt><trkpt lat="45.46993943218216" lon="10.52880332917444"><ele>95.25</ele><time>2026-04-06T12:01:58Z</time></trkpt><trkpt lat="45.47006475061387" lon="10.528734920320842"><ele>95.0</ele><time>2026-04-06T12:01:59Z</time></trkpt><trkpt lat="45.47019419347372" lon="10.52865349692739"><ele>95.5</ele><time>2026-04-06T12:02:00Z</time></trkpt><trkpt lat="45.47032763206103" lon="10.528571411031363"><ele>96.0</ele><time>2026-04-06T12:02:01Z</time></trkpt><trkpt lat="45.470465461428475" lon="10.528496456680703"><ele>96.5</ele><time>2026-04-06T12:02:02Z</time></trkpt><trkpt lat="45.470597789228655" lon="10.528425704329992"><ele>97.0</ele><time>2026-04-06T12:02:03Z</time></trkpt><trkpt lat="45.47073587562668" lon="10.528340929500851"><ele>97.66666666666667</ele><time>2026-04-06T12:02:04Z</time></trkpt><trkpt lat="45.47087808799379" lon="10.528249647644126"><ele>98.33333333333334</ele><time>2026-04-06T12:02:05Z</time></trkpt><trkpt lat="45.47102474541019" lon="10.528161488693206"><ele>99.0</ele><time>2026-04-06T12:02:05.999Z</time></trkpt><trkpt lat="45.47117464431455" lon="10.52807206383589"><ele>98.66666666666666</ele><time>2026-04-06T12:02:07Z</time></trkpt><trkpt lat="45.47132739537002" lon="10.527980433116207"><ele>98.33333333333333</ele><time>2026-04-06T12:02:08Z</time></trkpt><trkpt lat="45.47148274110702" lon="10.52789137417387"><ele>98.0</ele><time>2026-04-06T12:02:09Z</time></trkpt><trkpt lat="45.47163841908813" lon="10.527802029068235"><ele>99.0</ele><time>2026-04-06T12:02:10Z</time></trkpt><trkpt lat="45.47179684211752" lon="10.527710117556738"><ele>100.0</ele><time>2026-04-06T12:02:11Z</time></trkpt><trkpt lat="45.47195314623679" lon="10.527617243308411"><ele>101.0</ele><time>2026-04-06T12:02:12Z</time></trkpt><trkpt lat="45.47211441053189" lon="10.52752059900759"><ele>101.33333333333333</ele><time>2026-04-06T12:02:13Z</time></trkpt><trkpt lat="45.472277976467126" lon="10.527425599833109"><ele>101.66666666666666</ele><time>2026-04-06T12:02:14Z</time></trkpt><trkpt lat="45.47243919522563" lon="10.527332219972747"><ele>102.0</ele><time>2026-04-06T12:02:15Z</time></trkpt><trkpt lat="45.47260209422693" lon="10.527235118750875"><ele>102.0</ele><time>2026-04-06T12:02:16Z</time></trkpt><trkpt lat="45.47276407761751" lon="10.527134109692229"><ele>102.0</ele><time>2026-04-06T12:02:17Z</time></trkpt><trkpt lat="45.4729271688235" lon="10.52703411267654"><ele>102.0</ele><time>2026-04-06T12:02:18Z</time></trkpt><trkpt lat="45.473092086591215" lon="10.526936519988853"><ele>102.0</ele><time>2026-04-06T12:02:19Z</time></trkpt><trkpt lat="45.47325692760226" lon="10.526843914170877"><ele>102.0</ele><time>2026-04-06T12:02:20Z</time></trkpt><trkpt lat="45.473419758729406" lon="10.526760382611892"><ele>102.0</ele><time>2026-04-06T12:02:21Z</time></trkpt><trkpt lat="45.47358809957048" lon="10.526703771059754"><ele>102.0</ele><time>2026-04-06T12:02:22Z</time></trkpt><trkpt lat="45.47376067878214" lon="10.526668737949807"><ele>102.0</ele><time>2026-04-06T12:02:23Z</time></trkpt><trkpt lat="45.473931786805146" lon="10.526652443066034"><ele>102.0</ele><time>2026-04-06T12:02:24Z</time></trkpt><trkpt lat="45.4741033491265" lon="10.52665522535649"><ele>102.0</ele><time>2026-04-06T12:02:25Z</time></trkpt><trkpt lat="45.474266664981656" lon="10.526673388800585"><ele>102.0</ele><time>2026-04-06T12:02:26Z</time></trkpt><trkpt lat="45.47441305692058" lon="10.52670236225868"><ele>102.0</ele><time>2026-04-06T12:02:27.001Z</time></trkpt><trkpt lat="45.47454373270647" lon="10.526730748734268"><ele>102.0</ele><time>2026-04-06T12:02:28.001Z</time></trkpt><trkpt lat="45.474650604394284" lon="10.526751013566901"><ele>102.0</ele><time>2026-04-06T12:02:29.001Z</time></trkpt><trkpt lat="45.47473612147534" lon="10.526770013040755"><ele>102.0</ele><time>2026-04-06T12:02:30.001Z</time></trkpt><trkpt lat="45.4748063278789" lon="10.526800589972785"><ele>102.0</ele><time>2026-04-06T12:02:31.001Z</time></trkpt><trkpt lat="45.47486615883981" lon="10.526861389615279"><ele>102.0</ele><time>2026-04-06T12:02:32.001Z</time></trkpt><trkpt lat="45.47491788763572" lon="10.52694537736192"><ele>102.0</ele><time>2026-04-06T12:02:33.001Z</time></trkpt><trkpt lat="45.47498111855549" lon="10.527017278209817"><ele>102.0</ele><time>2026-04-06T12:02:34.001Z</time></trkpt><trkpt lat="45.4750671204358" lon="10.527048181492397"><ele>102.0</ele><time>2026-04-06T12:02:35.001Z</time></trkpt><trkpt lat="45.47516078020202" lon="10.527040135292099"><ele>102.0</ele><time>2026-04-06T12:02:36.001Z</time></trkpt><trkpt lat="45.4752557945488" lon="10.526979305020468"><ele>102.0</ele><time>2026-04-06T12:02:37.001Z</time></trkpt><trkpt lat="45.475353501511975" lon="10.52690757232324"><ele>102.0</ele><time>2026-04-06T12:02:38.001Z</time></trkpt><trkpt lat="45.47547024341687" lon="10.526876652121468"><ele>102.0</ele><time>2026-04-06T12:02:39.001Z</time></trkpt><trkpt lat="45.475595123523576" lon="10.526895541884917"><ele>102.5</ele><time>2026-04-06T12:02:40.001Z</time></trkpt><trkpt lat="45.47572605694317" lon="10.526939055230342"><ele>103.0</ele><time>2026-04-06T12:02:41.001Z</time></trkpt><trkpt lat="45.47586114372637" lon="10.526971209438868"><ele>103.5</ele><time>2026-04-06T12:02:42.001Z</time></trkpt><trkpt lat="45.47600063175917" lon="10.52699921404189"><ele>104.0</ele><time>2026-04-06T12:02:43.001Z</time></trkpt><trkpt lat="45.47613901988276" lon="10.527024574381675"><ele>104.0</ele><time>2026-04-06T12:02:44.001Z</time></trkpt><trkpt lat="45.47627785862408" lon="10.527048302155839"><ele>104.0</ele><time>2026-04-06T12:02:45.001Z</time></trkpt><trkpt lat="45.47641479578146" lon="10.527071357968513"><ele>104.0</ele><time>2026-04-06T12:02:46.001Z</time></trkpt><trkpt lat="45.47654762161316" lon="10.52708771203468"><ele>104.0</ele><time>2026-04-06T12:02:47.001Z</time></trkpt><trkpt lat="45.47667230717221" lon="10.527098303570513"><ele>104.0</ele><time>2026-04-06T12:02:48.001Z</time></trkpt><trkpt lat="45.47679124163565" lon="10.527113706211543"><ele>104.0</ele><time>2026-04-06T12:02:49.001Z</time></trkpt><trkpt lat="45.47692108966373" lon="10.527137683892517"><ele>104.0</ele><time>2026-04-06T12:02:50.001Z</time></trkpt><trkpt lat="45.47706184789809" lon="10.527164595450511"><ele>104.0</ele><time>2026-04-06T12:02:51.001Z</time></trkpt><trkpt lat="45.47720911080594" lon="10.52718629898192"><ele>104.0</ele><time>2026-04-06T12:02:52.001Z</time></trkpt><trkpt lat="45.47736157285984" lon="10.527189226050403"><ele>104.0</ele><time>2026-04-06T12:02:53.001Z</time></trkpt><trkpt lat="45.47751907874042" lon="10.527174861878521"><ele>104.0</ele><time>2026-04-06T12:02:54.001Z</time></trkpt><trkpt lat="45.47767399180008" lon="10.527144435507594"><ele>104.0</ele><time>2026-04-06T12:02:55.001Z</time></trkpt><trkpt lat="45.47783088260998" lon="10.527091394728856"><ele>104.0</ele><time>2026-04-06T12:02:56.001Z</time></trkpt><trkpt lat="45.477987062788465" lon="10.527020832595811"><ele>104.0</ele><time>2026-04-06T12:02:57.001Z</time></trkpt><trkpt lat="45.47814417155898" lon="10.526929438534781"><ele>104.66666666666666</ele><time>2026-04-06T12:02:58.001Z</time></trkpt><trkpt lat="45.47830479526858" lon="10.526828398954184"><ele>105.33333333333334</ele><time>2026-04-06T12:02:59.001Z</time></trkpt><trkpt lat="45.47846676121038" lon="10.526717516865848"><ele>106.0</ele><time>2026-04-06T12:03:00.001Z</time></trkpt><trkpt lat="45.47863110098402" lon="10.526609494257505"><ele>104.66666666666667</ele><time>2026-04-06T12:03:01.001Z</time></trkpt><trkpt lat="45.47879937271634" lon="10.526502042273096"><ele>103.33333333333334</ele><time>2026-04-06T12:03:02.001Z</time></trkpt><trkpt lat="45.47896786729308" lon="10.526398035085597"><ele>102.0</ele><time>2026-04-06T12:03:03.001Z</time></trkpt><trkpt lat="45.47913411948178" lon="10.526292580216841"><ele>102.33333333333334</ele><time>2026-04-06T12:03:04.001Z</time></trkpt><trkpt lat="45.47929593765628" lon="10.526188850581253"><ele>102.66666666666667</ele><time>2026-04-06T12:03:05.001Z</time></trkpt><trkpt lat="45.47945183215557" lon="10.526084495480898"><ele>103.0</ele><time>2026-04-06T12:03:06.001Z</time></trkpt><trkpt lat="45.47960215333414" lon="10.52598493236602"><ele>103.0</ele><time>2026-04-06T12:03:07.001Z</time></trkpt><trkpt lat="45.47974447914577" lon="10.525888242461862"><ele>103.0</ele><time>2026-04-06T12:03:08.001Z</time></trkpt><trkpt lat="45.479880402423355" lon="10.525793444041073"><ele>103.0</ele><time>2026-04-06T12:03:09.001Z</time></trkpt><trkpt lat="45.48000453543241" lon="10.52569702219603"><ele>103.0</ele><time>2026-04-06T12:03:10.001Z</time></trkpt><trkpt lat="45.48011694914592" lon="10.525598017657643"><ele>103.0</ele><time>2026-04-06T12:03:11.001Z</time></trkpt><trkpt lat="45.48021914272476" lon="10.525502264693799"><ele>103.0</ele><time>2026-04-06T12:03:12.001Z</time></trkpt><trkpt lat="45.48031039602661" lon="10.525416102669938"><ele>103.0</ele><time>2026-04-06T12:03:13.001Z</time></trkpt><trkpt lat="45.4803868612561" lon="10.525351881965044"><ele>103.83333333333334</ele><time>2026-04-06T12:03:14.001Z</time></trkpt><trkpt lat="45.48045768172467" lon="10.525305713789562"><ele>104.66666666666667</ele><time>2026-04-06T12:03:15.001Z</time></trkpt><trkpt lat="45.480528862741124" lon="10.525305330575657"><ele>105.5</ele><time>2026-04-06T12:03:16.001Z</time></trkpt><trkpt lat="45.48060188956191" lon="10.52534706662215"><ele>106.33333333333334</ele><time>2026-04-06T12:03:17.001Z</time></trkpt><trkpt lat="45.48067652584559" lon="10.525375301532966"><ele>107.16666666666667</ele><time>2026-04-06T12:03:18.001Z</time></trkpt><trkpt lat="45.48074993532745" lon="10.52535602578096"><ele>108.0</ele><time>2026-04-06T12:03:19.001Z</time></trkpt><trkpt lat="45.480814241419644" lon="10.525298028720828"><ele>108.0</ele><time>2026-04-06T12:03:20.001Z</time></trkpt><trkpt lat="45.480858591992785" lon="10.525197824974391"><ele>108.00000000000001</ele><time>2026-04-06T12:03:21.001Z</time></trkpt><trkpt lat="45.480881007968264" lon="10.525076995333972"><ele>108.00000000000001</ele><time>2026-04-06T12:03:22.001Z</time></trkpt><trkpt lat="45.48088317716031" lon="10.524943662780373"><ele>108.0</ele><time>2026-04-06T12:03:23.001Z</time></trkpt><trkpt lat="45.48088655902492" lon="10.524777228608432"><ele>108.0</ele><time>2026-04-06T12:03:24.001Z</time></trkpt><trkpt lat="45.48092336377845" lon="10.524601774839658"><ele>108.33333333333334</ele><time>2026-04-06T12:03:25.001Z</time></trkpt><trkpt lat="45.480988648021714" lon="10.524420764337147"><ele>108.66666666666667</ele><time>2026-04-06T12:03:26.001Z</time></trkpt><trkpt lat="45.48107260232819" lon="10.524228092368162"><ele>109.0</ele><time>2026-04-06T12:03:27.001Z</time></trkpt><trkpt lat="45.481158877666104" lon="10.524037128646532"><ele>109.0</ele><time>2026-04-06T12:03:28.001Z</time></trkpt><trkpt lat="45.4812576774445" lon="10.523862649062293"><ele>109.0</ele><time>2026-04-06T12:03:29.001Z</time></trkpt><trkpt lat="45.48136833384656" lon="10.523682228461244"><ele>109.0</ele><time>2026-04-06T12:03:30.001Z</time></trkpt><trkpt lat="45.4814898696271" lon="10.52350648813918"><ele>109.33333333333334</ele><time>2026-04-06T12:03:31.001Z</time></trkpt><trkpt lat="45.48161509250273" lon="10.523324280245873"><ele>109.66666666666666</ele><time>2026-04-06T12:03:32.001Z</time></trkpt><trkpt lat="45.48173967322732" lon="10.523134541132293"><ele>110.0</ele><time>2026-04-06T12:03:33.001Z</time></trkpt><trkpt lat="45.481861994716056" lon="10.522937456069322"><ele>108.0</ele><time>2026-04-06T12:03:34.001Z</time></trkpt><trkpt lat="45.48197849870669" lon="10.52273224037777"><ele>106.0</ele><time>2026-04-06T12:03:35.001Z</time></trkpt><trkpt lat="45.48208500260454" lon="10.52251659348557"><ele>104.0</ele><time>2026-04-06T12:03:36.001Z</time></trkpt><trkpt lat="45.48218741866033" lon="10.522293776402636"><ele>105.0</ele><time>2026-04-06T12:03:37.001Z</time></trkpt><trkpt lat="45.48228635254932" lon="10.522067466824"><ele>106.0</ele><time>2026-04-06T12:03:38.001Z</time></trkpt><trkpt lat="45.482382445122916" lon="10.521839331904191"><ele>107.0</ele><time>2026-04-06T12:03:39.001Z</time></trkpt><trkpt lat="45.482482134986874" lon="10.521608491786205"><ele>107.0</ele><time>2026-04-06T12:03:40.001Z</time></trkpt><trkpt lat="45.48258034945271" lon="10.521378654363021"><ele>107.0</ele><time>2026-04-06T12:03:41.001Z</time></trkpt><trkpt lat="45.48268533974421" lon="10.521149282188647"><ele>107.0</ele><time>2026-04-06T12:03:42.001Z</time></trkpt><trkpt lat="45.48278856856707" lon="10.520917528787537"><ele>107.33333333333333</ele><time>2026-04-06T12:03:43.001Z</time></trkpt><trkpt lat="45.482893875163" lon="10.520688468863764"><ele>107.66666666666666</ele><time>2026-04-06T12:03:44.001Z</time></trkpt><trkpt lat="45.48299189710258" lon="10.520473202684704"><ele>108.0</ele><time>2026-04-06T12:03:45.001Z</time></trkpt><trkpt lat="45.4830861028112" lon="10.520262833173108"><ele>107.33333333333334</ele><time>2026-04-06T12:03:46.001Z</time></trkpt><trkpt lat="45.483181106866326" lon="10.52005189753254"><ele>106.66666666666667</ele><time>2026-04-06T12:03:47.001Z</time></trkpt><trkpt lat="45.48327645310203" lon="10.519837574423365"><ele>106.0</ele><time>2026-04-06T12:03:48.001Z</time></trkpt><trkpt lat="45.483371664164295" lon="10.519624497742992"><ele>104.0</ele><time>2026-04-06T12:03:49.001Z</time></trkpt><trkpt lat="45.483466654284406" lon="10.519414300725044"><ele>102.0</ele><time>2026-04-06T12:03:50.001Z</time></trkpt><trkpt lat="45.48356134694153" lon="10.519214120944895"><ele>100.0</ele><time>2026-04-06T12:03:51.001Z</time></trkpt><trkpt lat="45.483656614728886" lon="10.519027074350724"><ele>100.0</ele><time>2026-04-06T12:03:52.001Z</time></trkpt><trkpt lat="45.4837477049544" lon="10.518853491110033"><ele>100.0</ele><time>2026-04-06T12:03:53.001Z</time></trkpt><trkpt lat="45.48383027497375" lon="10.518698377329276"><ele>100.0</ele><time>2026-04-06T12:03:54.001Z</time></trkpt><trkpt lat="45.48390984646979" lon="10.518573203192876"><ele>100.0</ele><time>2026-04-06T12:03:55.001Z</time></trkpt><trkpt lat="45.484009244447186" lon="10.518464930477892"><ele>98.5</ele><time>2026-04-06T12:03:56.001Z</time></trkpt><trkpt lat="45.48412669543299" lon="10.518391476968983"><ele>97.0</ele><time>2026-04-06T12:03:57.001Z</time></trkpt><trkpt lat="45.48425752328655" lon="10.518349123860329"><ele>95.5</ele><time>2026-04-06T12:03:58.001Z</time></trkpt><trkpt lat="45.48440041754138" lon="10.518333433265575"><ele>94.0</ele><time>2026-04-06T12:03:59Z</time></trkpt><trkpt lat="45.484540149089185" lon="10.518323218169904"><ele>91.75</ele><time>2026-04-06T12:04:00Z</time></trkpt><trkpt lat="45.48467642333792" lon="10.51830841486972"><ele>89.5</ele><time>2026-04-06T12:04:01Z</time></trkpt><trkpt lat="45.48480686839879" lon="10.518296534840616"><ele>87.25</ele><time>2026-04-06T12:04:02Z</time></trkpt><trkpt lat="45.4849388537108" lon="10.518285972993693"><ele>85.0</ele><time>2026-04-06T12:04:03Z</time></trkpt><trkpt lat="45.48507072931053" lon="10.518276582215439"><ele>85.0</ele><time>2026-04-06T12:04:04Z</time></trkpt><trkpt lat="45.48520728772577" lon="10.518265794155655"><ele>85.0</ele><time>2026-04-06T12:04:05Z</time></trkpt><trkpt lat="45.48534760297822" lon="10.518256809153739"><ele>85.0</ele><time>2026-04-06T12:04:06Z</time></trkpt><trkpt lat="45.4854826326037" lon="10.518245847591544"><ele>85.0</ele><time>2026-04-06T12:04:07Z</time></trkpt><trkpt lat="45.485612983996965" lon="10.518233130560292"><ele>83.75</ele><time>2026-04-06T12:04:08Z</time></trkpt><trkpt lat="45.48573721765419" lon="10.518210631465601"><ele>82.5</ele><time>2026-04-06T12:04:09Z</time></trkpt><trkpt lat="45.48585982027714" lon="10.518175575270128"><ele>81.25</ele><time>2026-04-06T12:04:10Z</time></trkpt><trkpt lat="45.48598127719097" lon="10.518122460788538"><ele>80.0</ele><time>2026-04-06T12:04:11Z</time></trkpt><trkpt lat="45.4861051853093" lon="10.518052307308922"><ele>80.0</ele><time>2026-04-06T12:04:12Z</time></trkpt><trkpt lat="45.48622698337216" lon="10.517966269235062"><ele>80.0</ele><time>2026-04-06T12:04:13Z</time></trkpt><trkpt lat="45.486337342306136" lon="10.51785831170422"><ele>80.0</ele><time>2026-04-06T12:04:14Z</time></trkpt><trkpt lat="45.48644194889137" lon="10.5177391060591"><ele>80.0</ele><time>2026-04-06T12:04:15Z</time></trkpt><trkpt lat="45.486548978281824" lon="10.517615267942807"><ele>79.0</ele><time>2026-04-06T12:04:16Z</time></trkpt><trkpt lat="45.48665788197374" lon="10.517499187949301"><ele>78.0</ele><time>2026-04-06T12:04:17Z</time></trkpt><trkpt lat="45.48675986384449" lon="10.51738560792346"><ele>77.0</ele><time>2026-04-06T12:04:18Z</time></trkpt><trkpt lat="45.486856427554564" lon="10.51727741306345"><ele>76.0</ele><time>2026-04-06T12:04:19Z</time></trkpt><trkpt lat="45.48694652424209" lon="10.517169751657397"><ele>76.25</ele><time>2026-04-06T12:04:20Z</time></trkpt><trkpt lat="45.487032748446694" lon="10.517053878405925"><ele>76.5</ele><time>2026-04-06T12:04:21Z</time></trkpt><trkpt lat="45.48711746062531" lon="10.516933615845788"><ele>76.75</ele><time>2026-04-06T12:04:22Z</time></trkpt><trkpt lat="45.48720046239771" lon="10.516817108951052"><ele>77.0</ele><time>2026-04-06T12:04:23Z</time></trkpt><trkpt lat="45.48728344851698" lon="10.516700900513934"><ele>76.75</ele><time>2026-04-06T12:04:24Z</time></trkpt><trkpt lat="45.48736758117996" lon="10.516579592820886"><ele>76.5</ele><time>2026-04-06T12:04:25Z</time></trkpt><trkpt lat="45.48745124266754" lon="10.51645568362717"><ele>76.25</ele><time>2026-04-06T12:04:26Z</time></trkpt><trkpt lat="45.48753773399203" lon="10.516328151955767"><ele>76.0</ele><time>2026-04-06T12:04:27Z</time></trkpt><trkpt lat="45.48762899376734" lon="10.516199271393317"><ele>76.0</ele><time>2026-04-06T12:04:28Z</time></trkpt><trkpt lat="45.48772673499002" lon="10.516070725151621"><ele>76.0</ele><time>2026-04-06T12:04:29Z</time></trkpt><trkpt lat="45.48782975353152" lon="10.515947455788433"><ele>76.0</ele><time>2026-04-06T12:04:30Z</time></trkpt><trkpt lat="45.487939752432474" lon="10.515825138882292"><ele>76.0</ele><time>2026-04-06T12:04:31Z</time></trkpt><trkpt lat="45.488057073692154" lon="10.51570490543988"><ele>75.5</ele><time>2026-04-06T12:04:32Z</time></trkpt><trkpt lat="45.48817959359634" lon="10.515586431164602"><ele>75.0</ele><time>2026-04-06T12:04:33Z</time></trkpt><trkpt lat="45.48829582885915" lon="10.515475835170443"><ele>74.5</ele><time>2026-04-06T12:04:34Z</time></trkpt><trkpt lat="45.48840604320366" lon="10.515367071136623"><ele>74.0</ele><time>2026-04-06T12:04:35Z</time></trkpt><trkpt lat="45.48851866185551" lon="10.515258837394862"><ele>74.0</ele><time>2026-04-06T12:04:36Z</time></trkpt><trkpt lat="45.48863341107182" lon="10.515154342306111"><ele>74.0</ele><time>2026-04-06T12:04:37Z</time></trkpt><trkpt lat="45.48874533054889" lon="10.515053049195911"><ele>74.0</ele><time>2026-04-06T12:04:38Z</time></trkpt><trkpt lat="45.48885612020462" lon="10.51495681505025"><ele>74.0</ele><time>2026-04-06T12:04:39Z</time></trkpt><trkpt lat="45.488966909029806" lon="10.514862313325807"><ele>73.75</ele><time>2026-04-06T12:04:40Z</time></trkpt><trkpt lat="45.489078685431664" lon="10.51476251531972"><ele>73.5</ele><time>2026-04-06T12:04:41Z</time></trkpt><trkpt lat="45.4891837650166" lon="10.514666180432712"><ele>73.25</ele><time>2026-04-06T12:04:42Z</time></trkpt><trkpt lat="45.48928625294729" lon="10.514572950303107"><ele>73.0</ele><time>2026-04-06T12:04:43Z</time></trkpt><trkpt lat="45.489383398304035" lon="10.514478509559893"><ele>72.8</ele><time>2026-04-06T12:04:44Z</time></trkpt><trkpt lat="45.489477856995464" lon="10.514390968635169"><ele>72.6</ele><time>2026-04-06T12:04:45Z</time></trkpt><trkpt lat="45.48956592644993" lon="10.514316889219067"><ele>72.4</ele><time>2026-04-06T12:04:46Z</time></trkpt><trkpt lat="45.48965080099418" lon="10.514250067835707"><ele>72.2</ele><time>2026-04-06T12:04:47Z</time></trkpt><trkpt lat="45.48973471843649" lon="10.514197710100936"><ele>72.0</ele><time>2026-04-06T12:04:48Z</time></trkpt><trkpt lat="45.48981853186719" lon="10.514159873940084"><ele>71.5</ele><time>2026-04-06T12:04:49Z</time></trkpt><trkpt lat="45.48990201495568" lon="10.514140484170305"><ele>71.0</ele><time>2026-04-06T12:04:50Z</time></trkpt><trkpt lat="45.489969090560685" lon="10.51415233933881"><ele>70.5</ele><time>2026-04-06T12:04:51Z</time></trkpt><trkpt lat="45.49002315126408" lon="10.514203420876447"><ele>70.0</ele><time>2026-04-06T12:04:52Z</time></trkpt><trkpt lat="45.49007009011818" lon="10.514290926105954"><ele>69.5</ele><time>2026-04-06T12:04:53Z</time></trkpt><trkpt lat="45.49011340644006" lon="10.514388004269545"><ele>69.0</ele><time>2026-04-06T12:04:54Z</time></trkpt><trkpt lat="45.49016009992112" lon="10.514483081822476"><ele>69.0</ele><time>2026-04-06T12:04:55Z</time></trkpt><trkpt lat="45.49022100199581" lon="10.514578870288371"><ele>69.0</ele><time>2026-04-06T12:04:56Z</time></trkpt><trkpt lat="45.49028859709574" lon="10.514668447719075"><ele>69.0</ele><time>2026-04-06T12:04:57Z</time></trkpt><trkpt lat="45.49036867718886" lon="10.51474919478744"><ele>69.0</ele><time>2026-04-06T12:04:58Z</time></trkpt><trkpt lat="45.4904497403963" lon="10.514815897678218"><ele>69.0</ele><time>2026-04-06T12:04:59Z</time></trkpt><trkpt lat="45.490531818886836" lon="10.51487411029804"><ele>69.16666666666667</ele><time>2026-04-06T12:05:00Z</time></trkpt><trkpt lat="45.490621331619906" lon="10.514920825798526"><ele>69.33333333333333</ele><time>2026-04-06T12:05:01Z</time></trkpt><trkpt lat="45.490707106648195" lon="10.514943726677396"><ele>69.5</ele><time>2026-04-06T12:05:02Z</time></trkpt><trkpt lat="45.49079181088674" lon="10.514956456706901"><ele>69.66666666666666</ele><time>2026-04-06T12:05:03Z</time></trkpt><trkpt lat="45.49087165224041" lon="10.514942044623867"><ele>69.83333333333333</ele><time>2026-04-06T12:05:04Z</time></trkpt><trkpt lat="45.49095065413657" lon="10.514901531128505"><ele>70.0</ele><time>2026-04-06T12:05:05Z</time></trkpt><trkpt lat="45.49101790717546" lon="10.514837084111276"><ele>70.0</ele><time>2026-04-06T12:05:06Z</time></trkpt><trkpt lat="45.491079090443826" lon="10.514750678061613"><ele>70.0</ele><time>2026-04-06T12:05:07Z</time></trkpt><trkpt lat="45.491139199528064" lon="10.514642869717687"><ele>70.0</ele><time>2026-04-06T12:05:08Z</time></trkpt><trkpt lat="45.491201785022575" lon="10.514524463189629"><ele>70.0</ele><time>2026-04-06T12:05:09Z</time></trkpt><trkpt lat="45.49126602200962" lon="10.514398037926146"><ele>70.0</ele><time>2026-04-06T12:05:10Z</time></trkpt><trkpt lat="45.49132941724385" lon="10.51427625533128"><ele>69.75</ele><time>2026-04-06T12:05:11Z</time></trkpt><trkpt lat="45.491394128697166" lon="10.514146469344832"><ele>69.5</ele><time>2026-04-06T12:05:12Z</time></trkpt><trkpt lat="45.49145989347094" lon="10.514011636709833"><ele>69.25</ele><time>2026-04-06T12:05:13Z</time></trkpt><trkpt lat="45.49152860900122" lon="10.51387933312413"><ele>69.0</ele><time>2026-04-06T12:05:14Z</time></trkpt><trkpt lat="45.49160222939953" lon="10.513756534899729"><ele>69.4</ele><time>2026-04-06T12:05:15Z</time></trkpt><trkpt lat="45.491679336814286" lon="10.513641300858987"><ele>69.80000000000001</ele><time>2026-04-06T12:05:16Z</time></trkpt><trkpt lat="45.49176664212191" lon="10.513523129046659"><ele>70.19999999999999</ele><time>2026-04-06T12:05:17Z</time></trkpt><trkpt lat="45.49184723086552" lon="10.513410734494942"><ele>70.6</ele><time>2026-04-06T12:05:18Z</time></trkpt><trkpt lat="45.491928367977415" lon="10.51332782812154"><ele>71.0</ele><time>2026-04-06T12:05:19Z</time></trkpt><trkpt lat="45.49200900585124" lon="10.513239372833308"><ele>71.2</ele><time>2026-04-06T12:05:20Z</time></trkpt><trkpt lat="45.49209133518533" lon="10.51315943681918"><ele>71.39999999999999</ele><time>2026-04-06T12:05:21Z</time></trkpt><trkpt lat="45.49217162292372" lon="10.513085469824524"><ele>71.6</ele><time>2026-04-06T12:05:22Z</time></trkpt><trkpt lat="45.492252636529685" lon="10.513020695819575"><ele>71.8</ele><time>2026-04-06T12:05:23Z</time></trkpt><trkpt lat="45.492338750386274" lon="10.512955388830216"><ele>72.0</ele><time>2026-04-06T12:05:24Z</time></trkpt><trkpt lat="45.492419317752045" lon="10.512898185821353"><ele>72.0</ele><time>2026-04-06T12:05:25Z</time></trkpt><trkpt lat="45.49249014800682" lon="10.512845622530437"><ele>72.0</ele><time>2026-04-06T12:05:26Z</time></trkpt><trkpt lat="45.49255248987716" lon="10.512797943089142"><ele>72.0</ele><time>2026-04-06T12:05:27Z</time></trkpt><trkpt lat="45.49261023230323" lon="10.512750336519114"><ele>72.0</ele><time>2026-04-06T12:05:28Z</time></trkpt><trkpt lat="45.49272119279734" lon="10.51267638516706"><ele>72.0</ele><time>2026-04-06T12:05:30Z</time></trkpt><trkpt lat="45.49278126359462" lon="10.51263304844783"><ele>72.0</ele><time>2026-04-06T12:05:31Z</time></trkpt><trkpt lat="45.49284672354357" lon="10.512581645172503"><ele>72.0</ele><time>2026-04-06T12:05:32Z</time></trkpt><trkpt lat="45.492908357703044" lon="10.512536999011294"><ele>72.0</ele><time>2026-04-06T12:05:33Z</time></trkpt><trkpt lat="45.492997121687495" lon="10.512454677969295"><ele>72.0</ele><time>2026-04-06T12:05:35Z</time></trkpt><trkpt lat="45.493106876136814" lon="10.512397607274696"><ele>72.0</ele><time>2026-04-06T12:05:37Z</time></trkpt><trkpt lat="45.493164507035814" lon="10.512353892072305"><ele>72.0</ele><time>2026-04-06T12:05:38Z</time></trkpt><trkpt lat="45.49328711807984" lon="10.512260886957653"><ele>72.0</ele><time>2026-04-06T12:05:40Z</time></trkpt><trkpt lat="45.49337950262184" lon="10.512190809963478"><ele>72.0</ele><time>2026-04-06T12:05:41Z</time></trkpt><trkpt lat="45.49348231651701" lon="10.512088302282667"><ele>72.0</ele><time>2026-04-06T12:05:42Z</time></trkpt><trkpt lat="45.493594343854795" lon="10.512006401150659"><ele>72.0</ele><time>2026-04-06T12:05:43Z</time></trkpt><trkpt lat="45.493715407728736" lon="10.51192121767781"><ele>71.5</ele><time>2026-04-06T12:05:44Z</time></trkpt><trkpt lat="45.493838787582355" lon="10.511833561047936"><ele>71.0</ele><time>2026-04-06T12:05:45Z</time></trkpt><trkpt lat="45.49397038878052" lon="10.511738762427443"><ele>70.5</ele><time>2026-04-06T12:05:46Z</time></trkpt><trkpt lat="45.49410119878599" lon="10.511641754495473"><ele>70.0</ele><time>2026-04-06T12:05:47Z</time></trkpt><trkpt lat="45.49422787335896" lon="10.51154337984465"><ele>70.0</ele><time>2026-04-06T12:05:48Z</time></trkpt><trkpt lat="45.49435112970466" lon="10.51144643335717"><ele>70.0</ele><time>2026-04-06T12:05:49Z</time></trkpt><trkpt lat="45.4944745159441" lon="10.511356539900422"><ele>70.0</ele><time>2026-04-06T12:05:50Z</time></trkpt><trkpt lat="45.49459541769653" lon="10.51126645818001"><ele>70.0</ele><time>2026-04-06T12:05:51Z</time></trkpt><trkpt lat="45.49471255587057" lon="10.511180941473047"><ele>70.0</ele><time>2026-04-06T12:05:52Z</time></trkpt><trkpt lat="45.494827184233124" lon="10.51109541204667"><ele>70.0</ele><time>2026-04-06T12:05:53Z</time></trkpt><trkpt lat="45.49493845407568" lon="10.511013778404706"><ele>70.0</ele><time>2026-04-06T12:05:54Z</time></trkpt><trkpt lat="45.495049417399535" lon="10.510930193668244"><ele>70.0</ele><time>2026-04-06T12:05:55Z</time></trkpt><trkpt lat="45.49516055117364" lon="10.510843274379928"><ele>70.0</ele><time>2026-04-06T12:05:56Z</time></trkpt><trkpt lat="45.49526792485498" lon="10.5107614793235"><ele>70.0</ele><time>2026-04-06T12:05:57Z</time></trkpt><trkpt lat="45.49536896512696" lon="10.510683147607496"><ele>70.0</ele><time>2026-04-06T12:05:58Z</time></trkpt><trkpt lat="45.49546187276949" lon="10.5106108270993"><ele>70.0</ele><time>2026-04-06T12:05:59Z</time></trkpt><trkpt lat="45.495549269676964" lon="10.510542132354445"><ele>70.0</ele><time>2026-04-06T12:06:00Z</time></trkpt><trkpt lat="45.4956349482706" lon="10.510478539202582"><ele>69.8</ele><time>2026-04-06T12:06:01Z</time></trkpt><trkpt lat="45.49571022081407" lon="10.510423071160915"><ele>69.6</ele><time>2026-04-06T12:06:02Z</time></trkpt><trkpt lat="45.49578492531418" lon="10.510362424367647"><ele>69.4</ele><time>2026-04-06T12:06:03Z</time></trkpt><trkpt lat="45.495869558443886" lon="10.510292607408665"><ele>69.2</ele><time>2026-04-06T12:06:04Z</time></trkpt><trkpt lat="45.49596369293738" lon="10.510216319752429"><ele>69.0</ele><time>2026-04-06T12:06:05Z</time></trkpt><trkpt lat="45.496061650490056" lon="10.510138841569749"><ele>69.4</ele><time>2026-04-06T12:06:06Z</time></trkpt><trkpt lat="45.496159033866846" lon="10.510065231547618"><ele>69.80000000000001</ele><time>2026-04-06T12:06:07Z</time></trkpt><trkpt lat="45.496257494113344" lon="10.509994852743178"><ele>70.19999999999999</ele><time>2026-04-06T12:06:08Z</time></trkpt><trkpt lat="45.496350650300414" lon="10.509926263391355"><ele>70.6</ele><time>2026-04-06T12:06:09Z</time></trkpt><trkpt lat="45.49644895274428" lon="10.509846563464803"><ele>71.0</ele><time>2026-04-06T12:06:10Z</time></trkpt><trkpt lat="45.49655833212456" lon="10.509767202899054"><ele>71.0</ele><time>2026-04-06T12:06:11Z</time></trkpt><trkpt lat="45.49667274485422" lon="10.509691791484302"><ele>71.0</ele><time>2026-04-06T12:06:12Z</time></trkpt><trkpt lat="45.49678792159866" lon="10.509622885282775"><ele>71.0</ele><time>2026-04-06T12:06:13Z</time></trkpt><trkpt lat="45.49690375918603" lon="10.509559121814574"><ele>71.0</ele><time>2026-04-06T12:06:14Z</time></trkpt><trkpt lat="45.49701204022963" lon="10.509499885280071"><ele>71.5</ele><time>2026-04-06T12:06:15Z</time></trkpt><trkpt lat="45.49711302048929" lon="10.509442542975025"><ele>72.0</ele><time>2026-04-06T12:06:16Z</time></trkpt><trkpt lat="45.4972031362079" lon="10.50939217436034"><ele>72.5</ele><time>2026-04-06T12:06:17Z</time></trkpt><trkpt lat="45.497283687314706" lon="10.509347527890132"><ele>73.0</ele><time>2026-04-06T12:06:18Z</time></trkpt><trkpt lat="45.497355310484515" lon="10.509307692980434"><ele>73.5</ele><time>2026-04-06T12:06:19Z</time></trkpt><trkpt lat="45.49742840556499" lon="10.50926894906882"><ele>74.0</ele><time>2026-04-06T12:06:20Z</time></trkpt><trkpt lat="45.49749960055173" lon="10.50923516590402"><ele>74.0</ele><time>2026-04-06T12:06:21Z</time></trkpt><trkpt lat="45.49756575229767" lon="10.509212537141734"><ele>74.0</ele><time>2026-04-06T12:06:22Z</time></trkpt><trkpt lat="45.49768281396415" lon="10.509228563983985"><ele>74.0</ele><time>2026-04-06T12:06:24Z</time></trkpt><trkpt lat="45.497803443722404" lon="10.509260354210701"><ele>74.0</ele><time>2026-04-06T12:06:26Z</time></trkpt><trkpt lat="45.4979062437246" lon="10.509195285660624"><ele>74.0</ele><time>2026-04-06T12:06:28Z</time></trkpt><trkpt lat="45.4979609048098" lon="10.509141064117363"><ele>74.5</ele><time>2026-04-06T12:06:29Z</time></trkpt><trkpt lat="45.49802974468149" lon="10.509102332001564"><ele>75.0</ele><time>2026-04-06T12:06:30Z</time></trkpt><trkpt lat="45.498115114930286" lon="10.50909823930937"><ele>75.5</ele><time>2026-04-06T12:06:31Z</time></trkpt><trkpt lat="45.49819987847281" lon="10.509098326859785"><ele>76.0</ele><time>2026-04-06T12:06:32Z</time></trkpt><trkpt lat="45.498276560220646" lon="10.509094084994917"><ele>76.5</ele><time>2026-04-06T12:06:33Z</time></trkpt><trkpt lat="45.49838682722141" lon="10.509100603937167"><ele>77.0</ele><time>2026-04-06T12:06:35Z</time></trkpt><trkpt lat="45.49849313298082" lon="10.50910952764202"><ele>77.0</ele><time>2026-04-06T12:06:37Z</time></trkpt><trkpt lat="45.498612973036195" lon="10.509130414434907"><ele>77.0</ele><time>2026-04-06T12:06:39Z</time></trkpt><trkpt lat="45.49868281407177" lon="10.50914442004989"><ele>77.0</ele><time>2026-04-06T12:06:40Z</time></trkpt><trkpt lat="45.49875091241253" lon="10.5091609252013"><ele>77.0</ele><time>2026-04-06T12:06:41Z</time></trkpt><trkpt lat="45.49887207320927" lon="10.509194035365848"><ele>77.0</ele><time>2026-04-06T12:06:43Z</time></trkpt><trkpt lat="45.49893536115943" lon="10.509210387428523"><ele>77.0</ele><time>2026-04-06T12:06:44Z</time></trkpt><trkpt lat="45.49899874506221" lon="10.50922892000387"><ele>77.85714285714286</ele><time>2026-04-06T12:06:45Z</time></trkpt><trkpt lat="45.499063884070075" lon="10.509247072679319"><ele>78.71428571428572</ele><time>2026-04-06T12:06:46Z</time></trkpt><trkpt lat="45.499126989086925" lon="10.50926573052944"><ele>79.57142857142857</ele><time>2026-04-06T12:06:47Z</time></trkpt><trkpt lat="45.49918445327155" lon="10.509310309533761"><ele>80.42857142857143</ele><time>2026-04-06T12:06:48Z</time></trkpt><trkpt lat="45.49924824973795" lon="10.509333339608636"><ele>81.28571428571429</ele><time>2026-04-06T12:06:49Z</time></trkpt><trkpt lat="45.499311362410694" lon="10.509357034210968"><ele>82.14285714285714</ele><time>2026-04-06T12:06:50Z</time></trkpt><trkpt lat="45.49937938596499" lon="10.509384548875898"><ele>83.0</ele><time>2026-04-06T12:06:51Z</time></trkpt><trkpt lat="45.499448579686586" lon="10.509414005938211"><ele>83.0</ele><time>2026-04-06T12:06:52Z</time></trkpt><trkpt lat="45.499536313009884" lon="10.50945443343491"><ele>83.0</ele><time>2026-04-06T12:06:53Z</time></trkpt><trkpt lat="45.49964365792137" lon="10.5095051120536"><ele>83.0</ele><time>2026-04-06T12:06:54Z</time></trkpt><trkpt lat="45.49976219019361" lon="10.50956654246514"><ele>83.0</ele><time>2026-04-06T12:06:55Z</time></trkpt><trkpt lat="45.499889516025824" lon="10.50961206224114"><ele>82.5</ele><time>2026-04-06T12:06:56Z</time></trkpt><trkpt lat="45.50000740898994" lon="10.509679135878123"><ele>82.0</ele><time>2026-04-06T12:06:57Z</time></trkpt><trkpt lat="45.50011632114108" lon="10.509742512272544"><ele>81.5</ele><time>2026-04-06T12:06:58Z</time></trkpt><trkpt lat="45.500219528361576" lon="10.509801961740282"><ele>81.0</ele><time>2026-04-06T12:06:59Z</time></trkpt><trkpt lat="45.50031205986131" lon="10.509845985427694"><ele>81.0</ele><time>2026-04-06T12:07:00Z</time></trkpt><trkpt lat="45.500411791083174" lon="10.509923061998263"><ele>81.0</ele><time>2026-04-06T12:07:01Z</time></trkpt><trkpt lat="45.50053115760651" lon="10.509990681225256"><ele>81.0</ele><time>2026-04-06T12:07:02Z</time></trkpt><trkpt lat="45.50066386981204" lon="10.510064981085876"><ele>81.0</ele><time>2026-04-06T12:07:03Z</time></trkpt><trkpt lat="45.50079867691102" lon="10.510139493824814"><ele>82.75</ele><time>2026-04-06T12:07:04Z</time></trkpt><trkpt lat="45.500930895502236" lon="10.510212575741356"><ele>84.5</ele><time>2026-04-06T12:07:05Z</time></trkpt><trkpt lat="45.50105840785663" lon="10.510283056367847"><ele>86.25</ele><time>2026-04-06T12:07:06Z</time></trkpt><trkpt lat="45.501176372947306" lon="10.510348067314942"><ele>88.0</ele><time>2026-04-06T12:07:07Z</time></trkpt><trkpt lat="45.50128348908375" lon="10.510381974992997"><ele>87.2</ele><time>2026-04-06T12:07:08Z</time></trkpt><trkpt lat="45.50138155871843" lon="10.510437753817008"><ele>86.4</ele><time>2026-04-06T12:07:09Z</time></trkpt><trkpt lat="45.50147914891171" lon="10.510492809648015"><ele>85.60000000000001</ele><time>2026-04-06T12:07:10Z</time></trkpt><trkpt lat="45.50157480821411" lon="10.510544715412175"><ele>84.80000000000001</ele><time>2026-04-06T12:07:11Z</time></trkpt><trkpt lat="45.501661942396794" lon="10.510594240128443"><ele>84.0</ele><time>2026-04-06T12:07:12Z</time></trkpt><trkpt lat="45.50174397009245" lon="10.510641381309794"><ele>84.0</ele><time>2026-04-06T12:07:13Z</time></trkpt><trkpt lat="45.50183325264923" lon="10.510689351703626"><ele>84.0</ele><time>2026-04-06T12:07:14Z</time></trkpt><trkpt lat="45.501924407239905" lon="10.510738714054263"><ele>84.0</ele><time>2026-04-06T12:07:15Z</time></trkpt><trkpt lat="45.502021939300306" lon="10.510790338291658"><ele>84.0</ele><time>2026-04-06T12:07:16Z</time></trkpt><trkpt lat="45.5021292369111" lon="10.510851126321255"><ele>84.0</ele><time>2026-04-06T12:07:17Z</time></trkpt><trkpt lat="45.50224024778793" lon="10.510915733843028"><ele>85.4</ele><time>2026-04-06T12:07:18Z</time></trkpt><trkpt lat="45.502345468895015" lon="10.510977689385461"><ele>86.80000000000001</ele><time>2026-04-06T12:07:19Z</time></trkpt><trkpt lat="45.50244925074853" lon="10.511035098441848"><ele>88.19999999999999</ele><time>2026-04-06T12:07:20Z</time></trkpt><trkpt lat="45.50255246882454" lon="10.511089120266593"><ele>89.6</ele><time>2026-04-06T12:07:21Z</time></trkpt><trkpt lat="45.50265298647478" lon="10.511142678843418"><ele>91.0</ele><time>2026-04-06T12:07:22Z</time></trkpt><trkpt lat="45.502754014789836" lon="10.511199021085456"><ele>91.0</ele><time>2026-04-06T12:07:23Z</time></trkpt><trkpt lat="45.502857183752894" lon="10.511256093122691"><ele>91.0</ele><time>2026-04-06T12:07:24Z</time></trkpt><trkpt lat="45.50295830542083" lon="10.511312794822704"><ele>91.0</ele><time>2026-04-06T12:07:25Z</time></trkpt><trkpt lat="45.503057535697884" lon="10.51136777105565"><ele>91.0</ele><time>2026-04-06T12:07:26Z</time></trkpt><trkpt lat="45.50315198119377" lon="10.511419208335878"><ele>91.0</ele><time>2026-04-06T12:07:27Z</time></trkpt><trkpt lat="45.50324365031305" lon="10.511466962955138"><ele>91.0</ele><time>2026-04-06T12:07:28Z</time></trkpt><trkpt lat="45.50333301785077" lon="10.511516235803954"><ele>91.0</ele><time>2026-04-06T12:07:29Z</time></trkpt><trkpt lat="45.50342273950173" lon="10.511566544911979"><ele>91.0</ele><time>2026-04-06T12:07:30Z</time></trkpt><trkpt lat="45.50350859055766" lon="10.511616133195647"><ele>91.0</ele><time>2026-04-06T12:07:31Z</time></trkpt><trkpt lat="45.50359283487055" lon="10.511663476941141"><ele>91.0</ele><time>2026-04-06T12:07:32Z</time></trkpt><trkpt lat="45.503679308492785" lon="10.51170775989938"><ele>91.66666666666666</ele><time>2026-04-06T12:07:33Z</time></trkpt><trkpt lat="45.503765449130604" lon="10.511743409262946"><ele>92.33333333333333</ele><time>2026-04-06T12:07:34Z</time></trkpt><trkpt lat="45.50385564801868" lon="10.51177916293669"><ele>93.0</ele><time>2026-04-06T12:07:35Z</time></trkpt><trkpt lat="45.50393681471447" lon="10.511813752478112"><ele>93.66666666666667</ele><time>2026-04-06T12:07:36Z</time></trkpt><trkpt lat="45.50401023151251" lon="10.511849593828615"><ele>94.33333333333334</ele><time>2026-04-06T12:07:37Z</time></trkpt><trkpt lat="45.504089400029294" lon="10.511905733138851"><ele>95.0</ele><time>2026-04-06T12:07:38Z</time></trkpt><trkpt lat="45.5041818697706" lon="10.511989542860746"><ele>95.0</ele><time>2026-04-06T12:07:39Z</time></trkpt><trkpt lat="45.50429035784417" lon="10.512051474139641"><ele>95.0</ele><time>2026-04-06T12:07:40Z</time></trkpt><trkpt lat="45.50439488124742" lon="10.512106505634145"><ele>95.0</ele><time>2026-04-06T12:07:41Z</time></trkpt><trkpt lat="45.50448748178738" lon="10.512188045723036"><ele>95.0</ele><time>2026-04-06T12:07:42Z</time></trkpt><trkpt lat="45.504571029816944" lon="10.512275226123068"><ele>95.0</ele><time>2026-04-06T12:07:43Z</time></trkpt><trkpt lat="45.504653396508466" lon="10.512367263919824"><ele>95.5</ele><time>2026-04-06T12:07:44Z</time></trkpt><trkpt lat="45.50474337737871" lon="10.512472083544038"><ele>96.0</ele><time>2026-04-06T12:07:45.001Z</time></trkpt><trkpt lat="45.504832807992926" lon="10.512587656857903"><ele>96.5</ele><time>2026-04-06T12:07:46.001Z</time></trkpt><trkpt lat="45.504927456226156" lon="10.512726600217377"><ele>97.0</ele><time>2026-04-06T12:07:47.001Z</time></trkpt><trkpt lat="45.505036917492895" lon="10.512882234197162"><ele>96.0</ele><time>2026-04-06T12:07:48.001Z</time></trkpt><trkpt lat="45.50515051898853" lon="10.513054325485994"><ele>95.0</ele><time>2026-04-06T12:07:49.001Z</time></trkpt><trkpt lat="45.505260324690866" lon="10.513233673673039"><ele>94.0</ele><time>2026-04-06T12:07:50.001Z</time></trkpt><trkpt lat="45.50536811978654" lon="10.513414881213665"><ele>94.33333333333333</ele><time>2026-04-06T12:07:51.001Z</time></trkpt><trkpt lat="45.505475575727175" lon="10.513590112404044"><ele>94.66666666666667</ele><time>2026-04-06T12:07:52.001Z</time></trkpt><trkpt lat="45.5055803397135" lon="10.513762803666836"><ele>95.0</ele><time>2026-04-06T12:07:53.001Z</time></trkpt><trkpt lat="45.505686481518296" lon="10.513934257559637"><ele>95.0</ele><time>2026-04-06T12:07:54.001Z</time></trkpt><trkpt lat="45.50579217164865" lon="10.51409696153016"><ele>95.0</ele><time>2026-04-06T12:07:55.001Z</time></trkpt><trkpt lat="45.50590257877491" lon="10.514260122967508"><ele>95.0</ele><time>2026-04-06T12:07:56.001Z</time></trkpt><trkpt lat="45.50601391553196" lon="10.514415247246427"><ele>95.0</ele><time>2026-04-06T12:07:57.001Z</time></trkpt><trkpt lat="45.5061243800481" lon="10.514567263223274"><ele>95.0</ele><time>2026-04-06T12:07:58.001Z</time></trkpt><trkpt lat="45.50623692660908" lon="10.514717322126533"><ele>95.0</ele><time>2026-04-06T12:07:59.001Z</time></trkpt><trkpt lat="45.50635642008782" lon="10.5148679351217"><ele>95.33333333333334</ele><time>2026-04-06T12:08:00.001Z</time></trkpt><trkpt lat="45.5064774002706" lon="10.51500887202146"><ele>95.66666666666667</ele><time>2026-04-06T12:08:01.001Z</time></trkpt><trkpt lat="45.506600356503476" lon="10.515146758612968"><ele>96.0</ele><time>2026-04-06T12:08:02.001Z</time></trkpt><trkpt lat="45.50672608514125" lon="10.51528415002239"><ele>96.66666666666666</ele><time>2026-04-06T12:08:03.001Z</time></trkpt><trkpt lat="45.50684718276553" lon="10.515416262606735"><ele>97.33333333333333</ele><time>2026-04-06T12:08:04.001Z</time></trkpt><trkpt lat="45.50696718817102" lon="10.515544750203954"><ele>98.0</ele><time>2026-04-06T12:08:05.001Z</time></trkpt><trkpt lat="45.507086439191944" lon="10.51567476257433"><ele>98.0</ele><time>2026-04-06T12:08:06.001Z</time></trkpt><trkpt lat="45.50720246442533" lon="10.51580493634227"><ele>98.0</ele><time>2026-04-06T12:08:07.001Z</time></trkpt><trkpt lat="45.50732273225607" lon="10.515935252539856"><ele>98.0</ele><time>2026-04-06T12:08:08.001Z</time></trkpt><trkpt lat="45.50743938835246" lon="10.516067041578307"><ele>98.0</ele><time>2026-04-06T12:08:09.001Z</time></trkpt><trkpt lat="45.50755726857695" lon="10.516198528193666"><ele>98.5</ele><time>2026-04-06T12:08:10.001Z</time></trkpt><trkpt lat="45.50767565079686" lon="10.516327473903528"><ele>99.0</ele><time>2026-04-06T12:08:11Z</time></trkpt><trkpt lat="45.5077912108751" lon="10.516457194120875"><ele>99.5</ele><time>2026-04-06T12:08:12Z</time></trkpt><trkpt lat="45.507911316772656" lon="10.516588127349252"><ele>100.0</ele><time>2026-04-06T12:08:13Z</time></trkpt><trkpt lat="45.50802958901472" lon="10.516721174218983"><ele>100.0</ele><time>2026-04-06T12:08:14Z</time></trkpt><trkpt lat="45.5081539042897" lon="10.516852443628535"><ele>100.0</ele><time>2026-04-06T12:08:15Z</time></trkpt><trkpt lat="45.508275966299934" lon="10.516990000442068"><ele>100.0</ele><time>2026-04-06T12:08:16Z</time></trkpt><trkpt lat="45.50840144557388" lon="10.51713116022829"><ele>100.66666666666667</ele><time>2026-04-06T12:08:17Z</time></trkpt><trkpt lat="45.50853041333896" lon="10.517267097556992"><ele>101.33333333333334</ele><time>2026-04-06T12:08:18Z</time></trkpt><trkpt lat="45.50865674904023" lon="10.517407766060938"><ele>102.0</ele><time>2026-04-06T12:08:19Z</time></trkpt><trkpt lat="45.50878207201202" lon="10.517548419231407"><ele>102.0</ele><time>2026-04-06T12:08:20Z</time></trkpt><trkpt lat="45.50891214985761" lon="10.517685311924932"><ele>102.0</ele><time>2026-04-06T12:08:21Z</time></trkpt><trkpt lat="45.50903579616928" lon="10.517824144738055"><ele>102.0</ele><time>2026-04-06T12:08:22Z</time></trkpt><trkpt lat="45.50915376126284" lon="10.517954104571142"><ele>102.0</ele><time>2026-04-06T12:08:23Z</time></trkpt><trkpt lat="45.50926763058858" lon="10.518080070179975"><ele>102.0</ele><time>2026-04-06T12:08:24Z</time></trkpt><trkpt lat="45.509383030164855" lon="10.518208805996437"><ele>102.0</ele><time>2026-04-06T12:08:25Z</time></trkpt><trkpt lat="45.5094986597653" lon="10.518335017206228"><ele>102.0</ele><time>2026-04-06T12:08:26Z</time></trkpt><trkpt lat="45.50961227252339" lon="10.518457019263925"><ele>102.0</ele><time>2026-04-06T12:08:27Z</time></trkpt><trkpt lat="45.509721459527185" lon="10.518576761115096"><ele>102.0</ele><time>2026-04-06T12:08:28Z</time></trkpt><trkpt lat="45.50982183197294" lon="10.51867728486722"><ele>102.0</ele><time>2026-04-06T12:08:29Z</time></trkpt><trkpt lat="45.50990819290226" lon="10.518765610834212"><ele>102.0</ele><time>2026-04-06T12:08:30Z</time></trkpt><trkpt lat="45.51001052286644" lon="10.51885794988811"><ele>101.8</ele><time>2026-04-06T12:08:31Z</time></trkpt><trkpt lat="45.51010964170926" lon="10.518943173920702"><ele>101.6</ele><time>2026-04-06T12:08:32Z</time></trkpt><trkpt lat="45.51020732084312" lon="10.519022155110713"><ele>101.39999999999999</ele><time>2026-04-06T12:08:33Z</time></trkpt><trkpt lat="45.510297697935776" lon="10.519095966921299"><ele>101.19999999999999</ele><time>2026-04-06T12:08:34Z</time></trkpt><trkpt lat="45.51039217333013" lon="10.519172923598235"><ele>101.0</ele><time>2026-04-06T12:08:35Z</time></trkpt><trkpt lat="45.51048765611392" lon="10.519249225354795"><ele>101.8</ele><time>2026-04-06T12:08:36Z</time></trkpt><trkpt lat="45.51059048622058" lon="10.519321720201981"><ele>102.6</ele><time>2026-04-06T12:08:37Z</time></trkpt><trkpt lat="45.510694227694366" lon="10.519390257509649"><ele>103.4</ele><time>2026-04-06T12:08:38Z</time></trkpt><trkpt lat="45.51079091340343" lon="10.51945213649572"><ele>104.2</ele><time>2026-04-06T12:08:39Z</time></trkpt><trkpt lat="45.51088178958696" lon="10.519511790885675"><ele>105.0</ele><time>2026-04-06T12:08:40Z</time></trkpt><trkpt lat="45.5109681476499" lon="10.519557106914169"><ele>104.5</ele><time>2026-04-06T12:08:41Z</time></trkpt><trkpt lat="45.51105063656617" lon="10.519604565254905"><ele>104.0</ele><time>2026-04-06T12:08:42Z</time></trkpt><trkpt lat="45.511125228393404" lon="10.519643518556625"><ele>103.5</ele><time>2026-04-06T12:08:43Z</time></trkpt><trkpt lat="45.51119431935678" lon="10.51968152157486"><ele>103.0</ele><time>2026-04-06T12:08:44Z</time></trkpt><trkpt lat="45.511263913328655" lon="10.519721960152012"><ele>102.5</ele><time>2026-04-06T12:08:45Z</time></trkpt><trkpt lat="45.5113277147405" lon="10.519765391921062"><ele>102.0</ele><time>2026-04-06T12:08:46Z</time></trkpt><trkpt lat="45.51139510077007" lon="10.519808963757193"><ele>102.0</ele><time>2026-04-06T12:08:47Z</time></trkpt><trkpt lat="45.511467614856265" lon="10.51985247445135"><ele>102.0</ele><time>2026-04-06T12:08:48Z</time></trkpt><trkpt lat="45.511537264548316" lon="10.519881564260693"><ele>102.0</ele><time>2026-04-06T12:08:49Z</time></trkpt><trkpt lat="45.51159948085" lon="10.519909915028439"><ele>102.0</ele><time>2026-04-06T12:08:50Z</time></trkpt><trkpt lat="45.51168871640674" lon="10.519961835043288"><ele>102.0</ele><time>2026-04-06T12:08:52Z</time></trkpt><trkpt lat="45.511769075933515" lon="10.52004041484819"><ele>102.0</ele><time>2026-04-06T12:08:54Z</time></trkpt><trkpt lat="45.51181305657263" lon="10.520108851071976"><ele>102.0</ele><time>2026-04-06T12:08:55Z</time></trkpt><trkpt lat="45.51186941917475" lon="10.520173114423848"><ele>102.0</ele><time>2026-04-06T12:08:56Z</time></trkpt><trkpt lat="45.511936420915106" lon="10.52021352898382"><ele>102.0</ele><time>2026-04-06T12:08:57Z</time></trkpt><trkpt lat="45.512006480250236" lon="10.52023502295914"><ele>102.0</ele><time>2026-04-06T12:08:58Z</time></trkpt><trkpt lat="45.51208175743652" lon="10.52024005183332"><ele>102.0</ele><time>2026-04-06T12:08:59Z</time></trkpt><trkpt lat="45.512161017050516" lon="10.520254848872753"><ele>102.0</ele><time>2026-04-06T12:09:00Z</time></trkpt><trkpt lat="45.51224156672785" lon="10.520290649494662"><ele>102.6</ele><time>2026-04-06T12:09:01Z</time></trkpt><trkpt lat="45.512328125192326" lon="10.52034506925656"><ele>103.19999999999999</ele><time>2026-04-06T12:09:02Z</time></trkpt><trkpt lat="45.512421621855914" lon="10.520408169903346"><ele>103.8</ele><time>2026-04-06T12:09:03Z</time></trkpt><trkpt lat="45.51251721454907" lon="10.520466476764682"><ele>104.4</ele><time>2026-04-06T12:09:04Z</time></trkpt><trkpt lat="45.51260888576049" lon="10.52052146474718"><ele>105.0</ele><time>2026-04-06T12:09:05Z</time></trkpt><trkpt lat="45.51269560533744" lon="10.520575395906254"><ele>104.4</ele><time>2026-04-06T12:09:06Z</time></trkpt><trkpt lat="45.51278269097568" lon="10.520626662202073"><ele>103.8</ele><time>2026-04-06T12:09:07Z</time></trkpt><trkpt lat="45.51286736533659" lon="10.520678705161156"><ele>103.19999999999999</ele><time>2026-04-06T12:09:08.001Z</time></trkpt><trkpt lat="45.5129540866846" lon="10.520730435826353"><ele>102.6</ele><time>2026-04-06T12:09:09.001Z</time></trkpt><trkpt lat="45.51304371128092" lon="10.52078071936008"><ele>102.0</ele><time>2026-04-06T12:09:10.001Z</time></trkpt><trkpt lat="45.51313614483951" lon="10.520834420489642"><ele>102.0</ele><time>2026-04-06T12:09:11.001Z</time></trkpt><trkpt lat="45.51322579892423" lon="10.520886965606778"><ele>102.0</ele><time>2026-04-06T12:09:12.001Z</time></trkpt><trkpt lat="45.513309531727344" lon="10.52093241929734"><ele>102.0</ele><time>2026-04-06T12:09:13.001Z</time></trkpt><trkpt lat="45.51338750828076" lon="10.520976863901542"><ele>102.0</ele><time>2026-04-06T12:09:14.001Z</time></trkpt><trkpt lat="45.513466044569455" lon="10.521022618889209"><ele>102.0</ele><time>2026-04-06T12:09:15.001Z</time></trkpt><trkpt lat="45.51354511151025" lon="10.521069785027372"><ele>102.0</ele><time>2026-04-06T12:09:16.001Z</time></trkpt><trkpt lat="45.5136183987919" lon="10.521112179867139"><ele>102.0</ele><time>2026-04-06T12:09:17.001Z</time></trkpt><trkpt lat="45.51368737481216" lon="10.521149501289065"><ele>102.0</ele><time>2026-04-06T12:09:18.001Z</time></trkpt><trkpt lat="45.51375082137159" lon="10.52118373458958"><ele>102.0</ele><time>2026-04-06T12:09:19.001Z</time></trkpt><trkpt lat="45.513861491163205" lon="10.5212385450675"><ele>102.0</ele><time>2026-04-06T12:09:21.001Z</time></trkpt><trkpt lat="45.51396925711978" lon="10.521293880355262"><ele>102.0</ele><time>2026-04-06T12:09:23.001Z</time></trkpt><trkpt lat="45.51402932606709" lon="10.521325427944785"><ele>102.0</ele><time>2026-04-06T12:09:24.001Z</time></trkpt><trkpt lat="45.514091707138654" lon="10.521363211472803"><ele>101.57142857142857</ele><time>2026-04-06T12:09:25.001Z</time></trkpt><trkpt lat="45.51415552329835" lon="10.521410876437683"><ele>101.14285714285714</ele><time>2026-04-06T12:09:26.001Z</time></trkpt><trkpt lat="45.51421604233786" lon="10.521466736452851"><ele>100.71428571428572</ele><time>2026-04-06T12:09:27.001Z</time></trkpt><trkpt lat="45.51427102799253" lon="10.521518702564839"><ele>100.28571428571428</ele><time>2026-04-06T12:09:28.001Z</time></trkpt><trkpt lat="45.51433905187251" lon="10.52155087997746"><ele>99.85714285714285</ele><time>2026-04-06T12:09:29.001Z</time></trkpt><trkpt lat="45.5144119781106" lon="10.521574310173612"><ele>99.42857142857143</ele><time>2026-04-06T12:09:30.001Z</time></trkpt><trkpt lat="45.51448972802925" lon="10.52159686847488"><ele>99.0</ele><time>2026-04-06T12:09:31.001Z</time></trkpt><trkpt lat="45.51456924519817" lon="10.521632708257068"><ele>100.0</ele><time>2026-04-06T12:09:32.001Z</time></trkpt><trkpt lat="45.514651845971585" lon="10.521682901375812"><ele>101.0</ele><time>2026-04-06T12:09:33.001Z</time></trkpt><trkpt lat="45.51473622872597" lon="10.521736313247136"><ele>102.0</ele><time>2026-04-06T12:09:34.001Z</time></trkpt><trkpt lat="45.5148182012492" lon="10.521789835747386"><ele>103.0</ele><time>2026-04-06T12:09:35.001Z</time></trkpt><trkpt lat="45.51490207149073" lon="10.521845442224052"><ele>104.0</ele><time>2026-04-06T12:09:36.001Z</time></trkpt><trkpt lat="45.51498492563863" lon="10.521900263259067"><ele>104.0</ele><time>2026-04-06T12:09:37.001Z</time></trkpt><trkpt lat="45.51507729368847" lon="10.521958918048096"><ele>104.0</ele><time>2026-04-06T12:09:38.001Z</time></trkpt><trkpt lat="45.515190507738836" lon="10.522018292282388"><ele>104.0</ele><time>2026-04-06T12:09:39.001Z</time></trkpt><trkpt lat="45.515311100486166" lon="10.52212039027748"><ele>104.0</ele><time>2026-04-06T12:09:40.001Z</time></trkpt><trkpt lat="45.515446121123304" lon="10.522202068971284"><ele>104.0</ele><time>2026-04-06T12:09:41.001Z</time></trkpt><trkpt lat="45.51557885098139" lon="10.522280198954338"><ele>104.0</ele><time>2026-04-06T12:09:42.001Z</time></trkpt><trkpt lat="45.515705050188416" lon="10.522354484772624"><ele>104.0</ele><time>2026-04-06T12:09:43.001Z</time></trkpt><trkpt lat="45.515826817321766" lon="10.522426161697283"><ele>104.0</ele><time>2026-04-06T12:09:44.001Z</time></trkpt><trkpt lat="45.515944536987156" lon="10.5224954560984"><ele>104.0</ele><time>2026-04-06T12:09:45.001Z</time></trkpt><trkpt lat="45.51605318538838" lon="10.522559410829784"><ele>104.0</ele><time>2026-04-06T12:09:46.001Z</time></trkpt><trkpt lat="45.51614972983609" lon="10.522616240653898"><ele>104.0</ele><time>2026-04-06T12:09:47.001Z</time></trkpt><trkpt lat="45.51624310777286" lon="10.52264690744645"><ele>104.0</ele><time>2026-04-06T12:09:48.001Z</time></trkpt><trkpt lat="45.5163284884946" lon="10.522697938222453"><ele>104.0</ele><time>2026-04-06T12:09:49.001Z</time></trkpt><trkpt lat="45.516417769458975" lon="10.522750508639799"><ele>104.2</ele><time>2026-04-06T12:09:50.001Z</time></trkpt><trkpt lat="45.51650949529464" lon="10.52280378914805"><ele>104.4</ele><time>2026-04-06T12:09:51.001Z</time></trkpt><trkpt lat="45.51660213501361" lon="10.522857269787819"><ele>104.6</ele><time>2026-04-06T12:09:52.001Z</time></trkpt><trkpt lat="45.516685255445374" lon="10.522931213755658"><ele>104.8</ele><time>2026-04-06T12:09:53.001Z</time></trkpt><trkpt lat="45.51677677380513" lon="10.522985023349868"><ele>105.0</ele><time>2026-04-06T12:09:54.001Z</time></trkpt><trkpt lat="45.5168742905038" lon="10.523042722392214"><ele>105.2</ele><time>2026-04-06T12:09:55.001Z</time></trkpt><trkpt lat="45.51697058486348" lon="10.523100614155856"><ele>105.4</ele><time>2026-04-06T12:09:56.001Z</time></trkpt><trkpt lat="45.51706474336563" lon="10.523157221769063"><ele>105.6</ele><time>2026-04-06T12:09:57.001Z</time></trkpt><trkpt lat="45.51715950715496" lon="10.52321419077458"><ele>105.8</ele><time>2026-04-06T12:09:58.001Z</time></trkpt><trkpt lat="45.51726638257908" lon="10.523258520775233"><ele>106.0</ele><time>2026-04-06T12:09:59.001Z</time></trkpt><trkpt lat="45.51736740492857" lon="10.523328173843174"><ele>106.0</ele><time>2026-04-06T12:10:00.001Z</time></trkpt><trkpt lat="45.517472221208244" lon="10.523400550471475"><ele>106.0</ele><time>2026-04-06T12:10:01.001Z</time></trkpt><trkpt lat="45.517577210881335" lon="10.523475878896734"><ele>106.0</ele><time>2026-04-06T12:10:02.001Z</time></trkpt><trkpt lat="45.517681193804826" lon="10.523552711216627"><ele>106.0</ele><time>2026-04-06T12:10:03.001Z</time></trkpt><trkpt lat="45.51778519487248" lon="10.523630209132005"><ele>106.0</ele><time>2026-04-06T12:10:04.001Z</time></trkpt><trkpt lat="45.51788711928972" lon="10.523710418880695"><ele>106.0</ele><time>2026-04-06T12:10:05.001Z</time></trkpt><trkpt lat="45.51799604623037" lon="10.52380009034492"><ele>106.0</ele><time>2026-04-06T12:10:06.001Z</time></trkpt><trkpt lat="45.518088658418755" lon="10.523880386950287"><ele>106.0</ele><time>2026-04-06T12:10:07.001Z</time></trkpt><trkpt lat="45.518186859402824" lon="10.523960504650699"><ele>106.5</ele><time>2026-04-06T12:10:08.001Z</time></trkpt><trkpt lat="45.51828749466198" lon="10.524043512334925"><ele>107.0</ele><time>2026-04-06T12:10:09.001Z</time></trkpt><trkpt lat="45.518387079767216" lon="10.524127887709321"><ele>107.5</ele><time>2026-04-06T12:10:10.001Z</time></trkpt><trkpt lat="45.518484305580024" lon="10.524207820033553"><ele>108.0</ele><time>2026-04-06T12:10:11.001Z</time></trkpt><trkpt lat="45.518582668461406" lon="10.524290225018419"><ele>108.0</ele><time>2026-04-06T12:10:12.001Z</time></trkpt><trkpt lat="45.51868813394122" lon="10.524378540879361"><ele>108.0</ele><time>2026-04-06T12:10:13.001Z</time></trkpt><trkpt lat="45.5188008614005" lon="10.524473306105111"><ele>108.0</ele><time>2026-04-06T12:10:14.001Z</time></trkpt><trkpt lat="45.51891734382496" lon="10.524568825305142"><ele>108.0</ele><time>2026-04-06T12:10:15.001Z</time></trkpt><trkpt lat="45.51904071149293" lon="10.52467115823338"><ele>108.66666666666666</ele><time>2026-04-06T12:10:16.001Z</time></trkpt><trkpt lat="45.51917662994017" lon="10.524778100018747"><ele>109.33333333333333</ele><time>2026-04-06T12:10:17Z</time></trkpt><trkpt lat="45.519309751992296" lon="10.5249162328821"><ele>110.0</ele><time>2026-04-06T12:10:18Z</time></trkpt><trkpt lat="45.51945435775702" lon="10.52503757644159"><ele>112.33333333333333</ele><time>2026-04-06T12:10:19Z</time></trkpt><trkpt lat="45.51960478550973" lon="10.525133908910657"><ele>114.66666666666666</ele><time>2026-04-06T12:10:20Z</time></trkpt><trkpt lat="45.51974019661863" lon="10.525255503263223"><ele>117.0</ele><time>2026-04-06T12:10:21Z</time></trkpt><trkpt lat="45.519874590385164" lon="10.52537204616259"><ele>114.33333333333334</ele><time>2026-04-06T12:10:22Z</time></trkpt><trkpt lat="45.52000938747155" lon="10.525485505497274"><ele>111.66666666666667</ele><time>2026-04-06T12:10:23Z</time></trkpt><trkpt lat="45.52014481660539" lon="10.525596034794697"><ele>109.0</ele><time>2026-04-06T12:10:24Z</time></trkpt><trkpt lat="45.52027881574178" lon="10.5257033212427"><ele>112.0</ele><time>2026-04-06T12:10:25Z</time></trkpt><trkpt lat="45.520413048848305" lon="10.525809124506754"><ele>115.0</ele><time>2026-04-06T12:10:26Z</time></trkpt><trkpt lat="45.52053457621218" lon="10.525944401603914"><ele>118.0</ele><time>2026-04-06T12:10:27Z</time></trkpt><trkpt lat="45.52066557223029" lon="10.52605458458261"><ele>118.0</ele><time>2026-04-06T12:10:28Z</time></trkpt><trkpt lat="45.52080167153606" lon="10.526149939241781"><ele>118.0</ele><time>2026-04-06T12:10:29Z</time></trkpt><trkpt lat="45.52092708660265" lon="10.526261223525179"><ele>118.0</ele><time>2026-04-06T12:10:30Z</time></trkpt><trkpt lat="45.52104655209691" lon="10.526367059133454"><ele>118.0</ele><time>2026-04-06T12:10:31Z</time></trkpt><trkpt lat="45.52115952254055" lon="10.52646190298146"><ele>117.2</ele><time>2026-04-06T12:10:32Z</time></trkpt><trkpt lat="45.52126467206788" lon="10.526551388003744"><ele>116.4</ele><time>2026-04-06T12:10:33Z</time></trkpt><trkpt lat="45.5213655540465" lon="10.52663102632337"><ele>115.60000000000001</ele><time>2026-04-06T12:10:34Z</time></trkpt><trkpt lat="45.52145702910355" lon="10.526705717531573"><ele>114.80000000000001</ele><time>2026-04-06T12:10:35Z</time></trkpt><trkpt lat="45.52154376304587" lon="10.526779524335465"><ele>114.0</ele><time>2026-04-06T12:10:36Z</time></trkpt><trkpt lat="45.52163484490575" lon="10.526852678796686"><ele>114.0</ele><time>2026-04-06T12:10:37Z</time></trkpt><trkpt lat="45.52172957764807" lon="10.526931270686267"><ele>114.0</ele><time>2026-04-06T12:10:38Z</time></trkpt><trkpt lat="45.52182049392297" lon="10.527008311411429"><ele>114.0</ele><time>2026-04-06T12:10:39Z</time></trkpt><trkpt lat="45.521906024030216" lon="10.527084487301089"><ele>114.0</ele><time>2026-04-06T12:10:40Z</time></trkpt><trkpt lat="45.521993093947714" lon="10.527160387165821"><ele>114.0</ele><time>2026-04-06T12:10:41Z</time></trkpt><trkpt lat="45.522084035746836" lon="10.5272378543131"><ele>115.0</ele><time>2026-04-06T12:10:42Z</time></trkpt><trkpt lat="45.52217925761773" lon="10.527317723847904"><ele>116.0</ele><time>2026-04-06T12:10:43Z</time></trkpt><trkpt lat="45.522277590881735" lon="10.527397768557837"><ele>117.0</ele><time>2026-04-06T12:10:44Z</time></trkpt><trkpt lat="45.522371117856714" lon="10.527474957271874"><ele>118.0</ele><time>2026-04-06T12:10:45Z</time></trkpt><trkpt lat="45.52245509382191" lon="10.527545155792925"><ele>119.0</ele><time>2026-04-06T12:10:46Z</time></trkpt><trkpt lat="45.52252988594208" lon="10.527608534866804"><ele>118.99999999999999</ele><time>2026-04-06T12:10:47Z</time></trkpt><trkpt lat="45.52260144925575" lon="10.527669374256178"><ele>119.0</ele><time>2026-04-06T12:10:48Z</time></trkpt><trkpt lat="45.52267545803129" lon="10.5277292791188"><ele>119.0</ele><time>2026-04-06T12:10:49Z</time></trkpt><trkpt lat="45.52275342474056" lon="10.52778749835246"><ele>119.0</ele><time>2026-04-06T12:10:50Z</time></trkpt><trkpt lat="45.52283449027085" lon="10.527844875984425"><ele>118.99999999999999</ele><time>2026-04-06T12:10:51Z</time></trkpt><trkpt lat="45.522912106882494" lon="10.527900107030577"><ele>119.0</ele><time>2026-04-06T12:10:52Z</time></trkpt><trkpt lat="45.522990575256884" lon="10.527954727681239"><ele>118.99999999999999</ele><time>2026-04-06T12:10:53Z</time></trkpt><trkpt lat="45.52306832380014" lon="10.528008725510729"><ele>119.0</ele><time>2026-04-06T12:10:54Z</time></trkpt><trkpt lat="45.523148239319745" lon="10.528061402307014"><ele>119.0</ele><time>2026-04-06T12:10:55Z</time></trkpt><trkpt lat="45.52322582780256" lon="10.528111648802476"><ele>119.0</ele><time>2026-04-06T12:10:56Z</time></trkpt><trkpt lat="45.52329646059554" lon="10.52816027032585"><ele>118.99999999999999</ele><time>2026-04-06T12:10:57Z</time></trkpt><trkpt lat="45.52335577545832" lon="10.528214606959232"><ele>119.0</ele><time>2026-04-06T12:10:58Z</time></trkpt><trkpt lat="45.52343065289733" lon="10.528332283670624"><ele>119.0</ele><time>2026-04-06T12:11:00Z</time></trkpt><trkpt lat="45.52346655623767" lon="10.528478503385145"><ele>119.0</ele><time>2026-04-06T12:11:02Z</time></trkpt><trkpt lat="45.523536880751195" lon="10.528592947029962"><ele>119.0</ele><time>2026-04-06T12:11:04Z</time></trkpt><trkpt lat="45.523655282816954" lon="10.528587180985655"><ele>119.0</ele><time>2026-04-06T12:11:06Z</time></trkpt><trkpt lat="45.523710820958286" lon="10.528544814478572"><ele>119.0</ele><time>2026-04-06T12:11:07Z</time></trkpt><trkpt lat="45.52376236973026" lon="10.528485330121882"><ele>119.83333333333333</ele><time>2026-04-06T12:11:08Z</time></trkpt><trkpt lat="45.52382230621159" lon="10.52842815002814"><ele>120.66666666666666</ele><time>2026-04-06T12:11:09.001Z</time></trkpt><trkpt lat="45.52389504196937" lon="10.528392947016922"><ele>121.5</ele><time>2026-04-06T12:11:10.001Z</time></trkpt><trkpt lat="45.52397188498151" lon="10.528382416093553"><ele>122.33333333333334</ele><time>2026-04-06T12:11:11.001Z</time></trkpt><trkpt lat="45.524057350109956" lon="10.52839656504453"><ele>123.16666666666667</ele><time>2026-04-06T12:11:12.001Z</time></trkpt><trkpt lat="45.52415126316161" lon="10.528419483504106"><ele>124.0</ele><time>2026-04-06T12:11:13.001Z</time></trkpt><trkpt lat="45.524253815588914" lon="10.528454976357411"><ele>124.0</ele><time>2026-04-06T12:11:14.001Z</time></trkpt><trkpt lat="45.52435649935594" lon="10.528489233472655"><ele>124.0</ele><time>2026-04-06T12:11:15.001Z</time></trkpt><trkpt lat="45.52445155369404" lon="10.52851824313363"><ele>124.0</ele><time>2026-04-06T12:11:16.001Z</time></trkpt><trkpt lat="45.52453450048373" lon="10.528544557930179"><ele>124.0</ele><time>2026-04-06T12:11:17.001Z</time></trkpt><trkpt lat="45.5246137750394" lon="10.528570495543548"><ele>124.0</ele><time>2026-04-06T12:11:18.001Z</time></trkpt><trkpt lat="45.5247002081149" lon="10.528596605986221"><ele>124.00000000000001</ele><time>2026-04-06T12:11:19.001Z</time></trkpt><trkpt lat="45.52478229346726" lon="10.52862400750187"><ele>124.0</ele><time>2026-04-06T12:11:20.001Z</time></trkpt><trkpt lat="45.52486209575749" lon="10.528650323586815"><ele>124.0</ele><time>2026-04-06T12:11:21.001Z</time></trkpt><trkpt lat="45.5249477623495" lon="10.52867773323"><ele>124.0</ele><time>2026-04-06T12:11:22.001Z</time></trkpt><trkpt lat="45.52503553132828" lon="10.52870849147873"><ele>124.00000000000001</ele><time>2026-04-06T12:11:23.001Z</time></trkpt><trkpt lat="45.52512911340902" lon="10.528739598844117"><ele>124.0</ele><time>2026-04-06T12:11:24.001Z</time></trkpt><trkpt lat="45.52522342265416" lon="10.528770027880686"><ele>124.0</ele><time>2026-04-06T12:11:25.001Z</time></trkpt><trkpt lat="45.525318520815" lon="10.528802182947254"><ele>124.0</ele><time>2026-04-06T12:11:26.001Z</time></trkpt><trkpt lat="45.525414610836364" lon="10.528832644209034"><ele>124.0</ele><time>2026-04-06T12:11:27.001Z</time></trkpt><trkpt lat="45.525509984239484" lon="10.528859721138717"><ele>124.0</ele><time>2026-04-06T12:11:28.001Z</time></trkpt><trkpt lat="45.52560159494174" lon="10.528884111786825"><ele>124.0</ele><time>2026-04-06T12:11:29.001Z</time></trkpt><trkpt lat="45.52569384730521" lon="10.52890848875266"><ele>124.6</ele><time>2026-04-06T12:11:30.001Z</time></trkpt><trkpt lat="45.525788566412096" lon="10.528938098865055"><ele>125.2</ele><time>2026-04-06T12:11:31.001Z</time></trkpt><trkpt lat="45.52588816884092" lon="10.528969858868317"><ele>125.79999999999998</ele><time>2026-04-06T12:11:32.001Z</time></trkpt><trkpt lat="45.525986587142896" lon="10.529004984199727"><ele>126.39999999999999</ele><time>2026-04-06T12:11:33.001Z</time></trkpt><trkpt lat="45.52608546944171" lon="10.529041449151565"><ele>127.0</ele><time>2026-04-06T12:11:34.001Z</time></trkpt><trkpt lat="45.52617579232024" lon="10.52907221716892"><ele>126.66666666666667</ele><time>2026-04-06T12:11:35.001Z</time></trkpt><trkpt lat="45.52626307157293" lon="10.529103451934517"><ele>126.33333333333334</ele><time>2026-04-06T12:11:36.001Z</time></trkpt><trkpt lat="45.52635194753846" lon="10.529134635325148"><ele>126.0</ele><time>2026-04-06T12:11:37.001Z</time></trkpt><trkpt lat="45.52644091190799" lon="10.529163355046556"><ele>125.66666666666666</ele><time>2026-04-06T12:11:38.001Z</time></trkpt><trkpt lat="45.52652432421197" lon="10.529189876323379"><ele>125.33333333333333</ele><time>2026-04-06T12:11:39.001Z</time></trkpt><trkpt lat="45.52660365922147" lon="10.529217899168284"><ele>125.0</ele><time>2026-04-06T12:11:40.001Z</time></trkpt><trkpt lat="45.526684278174265" lon="10.529245713684132"><ele>124.99999999999999</ele><time>2026-04-06T12:11:41.001Z</time></trkpt><trkpt lat="45.52676660470405" lon="10.52927367722866"><ele>125.0</ele><time>2026-04-06T12:11:42.001Z</time></trkpt><trkpt lat="45.52684368572445" lon="10.529306619821847"><ele>125.0</ele><time>2026-04-06T12:11:43.001Z</time></trkpt><trkpt lat="45.52691448116043" lon="10.52933568755118"><ele>125.0</ele><time>2026-04-06T12:11:44.001Z</time></trkpt><trkpt lat="45.526992375278226" lon="10.529358908045861"><ele>124.99999999999999</ele><time>2026-04-06T12:11:45.001Z</time></trkpt><trkpt lat="45.527068076485676" lon="10.529372908033162"><ele>125.0</ele><time>2026-04-06T12:11:46.001Z</time></trkpt><trkpt lat="45.52714516241416" lon="10.52938985843108"><ele>125.33333333333333</ele><time>2026-04-06T12:11:47.001Z</time></trkpt><trkpt lat="45.5272262482174" lon="10.52942719007538"><ele>125.66666666666666</ele><time>2026-04-06T12:11:48.001Z</time></trkpt><trkpt lat="45.52731284907201" lon="10.529468243396575"><ele>126.0</ele><time>2026-04-06T12:11:49.001Z</time></trkpt><trkpt lat="45.5274049457748" lon="10.529486630967934"><ele>126.33333333333334</ele><time>2026-04-06T12:11:50.001Z</time></trkpt><trkpt lat="45.527492402253884" lon="10.529493808220503"><ele>126.66666666666667</ele><time>2026-04-06T12:11:51.001Z</time></trkpt><trkpt lat="45.52758294833376" lon="10.529516396843064"><ele>127.0</ele><time>2026-04-06T12:11:52.001Z</time></trkpt><trkpt lat="45.52767436943767" lon="10.52955382354284"><ele>127.19999999999999</ele><time>2026-04-06T12:11:53.001Z</time></trkpt><trkpt lat="45.527767545334804" lon="10.529594764727683"><ele>127.39999999999999</ele><time>2026-04-06T12:11:54.001Z</time></trkpt><trkpt lat="45.527862428728355" lon="10.529634692705903"><ele>127.60000000000001</ele><time>2026-04-06T12:11:55.001Z</time></trkpt><trkpt lat="45.52795802907898" lon="10.529670488733618"><ele>127.80000000000001</ele><time>2026-04-06T12:11:56.001Z</time></trkpt><trkpt lat="45.52805492747411" lon="10.529701853374869"><ele>128.0</ele><time>2026-04-06T12:11:57.001Z</time></trkpt><trkpt lat="45.52815471740188" lon="10.529734711861687"><ele>128.0</ele><time>2026-04-06T12:11:58.001Z</time></trkpt><trkpt lat="45.52825539740933" lon="10.529768686135611"><ele>128.0</ele><time>2026-04-06T12:11:59.001Z</time></trkpt><trkpt lat="45.52835683865878" lon="10.52980317757583"><ele>128.0</ele><time>2026-04-06T12:12:00.001Z</time></trkpt><trkpt lat="45.528456554471795" lon="10.52983705680694"><ele>128.0</ele><time>2026-04-06T12:12:01.001Z</time></trkpt><trkpt lat="45.52855769958036" lon="10.529873110965154"><ele>128.0</ele><time>2026-04-06T12:12:02.001Z</time></trkpt><trkpt lat="45.52866265515985" lon="10.529908046936194"><ele>128.4</ele><time>2026-04-06T12:12:03.001Z</time></trkpt><trkpt lat="45.52876833216908" lon="10.52994084131716"><ele>128.8</ele><time>2026-04-06T12:12:04.001Z</time></trkpt><trkpt lat="45.52887352441728" lon="10.529974794258298"><ele>129.2</ele><time>2026-04-06T12:12:05.001Z</time></trkpt><trkpt lat="45.52897872806268" lon="10.530013081296353"><ele>129.6</ele><time>2026-04-06T12:12:06.001Z</time></trkpt><trkpt lat="45.52908747583311" lon="10.53004895137974"><ele>130.0</ele><time>2026-04-06T12:12:07.001Z</time></trkpt><trkpt lat="45.529199218799505" lon="10.530085685768897"><ele>130.0</ele><time>2026-04-06T12:12:08.001Z</time></trkpt><trkpt lat="45.529310469749234" lon="10.53012371435215"><ele>130.0</ele><time>2026-04-06T12:12:09.001Z</time></trkpt><trkpt lat="45.52942302335727" lon="10.530161573984534"><ele>130.0</ele><time>2026-04-06T12:12:10.001Z</time></trkpt><trkpt lat="45.529535996814566" lon="10.530198532638213"><ele>130.0</ele><time>2026-04-06T12:12:11.001Z</time></trkpt><trkpt lat="45.52964528125447" lon="10.530236045615448"><ele>130.4</ele><time>2026-04-06T12:12:12.001Z</time></trkpt><trkpt lat="45.529747579347564" lon="10.530271564842215"><ele>130.8</ele><time>2026-04-06T12:12:13.001Z</time></trkpt><trkpt lat="45.529842814358254" lon="10.5303036511287"><ele>131.2</ele><time>2026-04-06T12:12:14.001Z</time></trkpt><trkpt lat="45.529931340479706" lon="10.530333532991303"><ele>131.6</ele><time>2026-04-06T12:12:15.001Z</time></trkpt><trkpt lat="45.53001284917446" lon="10.530362119592963"><ele>132.0</ele><time>2026-04-06T12:12:16.001Z</time></trkpt><trkpt lat="45.53009182725908" lon="10.530388198225127"><ele>131.5</ele><time>2026-04-06T12:12:17.001Z</time></trkpt><trkpt lat="45.53017525082285" lon="10.53041750547201"><ele>131.0</ele><time>2026-04-06T12:12:18.001Z</time></trkpt><trkpt lat="45.53025258854877" lon="10.53043930064486"><ele>130.5</ele><time>2026-04-06T12:12:19.001Z</time></trkpt><trkpt lat="45.530326437837914" lon="10.530461552443983"><ele>130.0</ele><time>2026-04-06T12:12:20.001Z</time></trkpt><trkpt lat="45.530396252991046" lon="10.53048920799941"><ele>129.5</ele><time>2026-04-06T12:12:21.001Z</time></trkpt><trkpt lat="45.53046272894595" lon="10.53051410719232"><ele>129.0</ele><time>2026-04-06T12:12:22.001Z</time></trkpt><trkpt lat="45.53056632122945" lon="10.530573840586255"><ele>128.8</ele><time>2026-04-06T12:12:24Z</time></trkpt><trkpt lat="45.53065678881515" lon="10.530682815094035"><ele>128.60000000000002</ele><time>2026-04-06T12:12:26Z</time></trkpt><trkpt lat="45.530713674829826" lon="10.53075602746013"><ele>128.4</ele><time>2026-04-06T12:12:27Z</time></trkpt><trkpt lat="45.53078682738728" lon="10.53080620562813"><ele>128.20000000000002</ele><time>2026-04-06T12:12:28Z</time></trkpt><trkpt lat="45.530878510450755" lon="10.53081850115321"><ele>128.0</ele><time>2026-04-06T12:12:29Z</time></trkpt><trkpt lat="45.53097212347363" lon="10.530799204079687"><ele>127.99999999999999</ele><time>2026-04-06T12:12:30Z</time></trkpt><trkpt lat="45.5310664215265" lon="10.53076881781854"><ele>128.0</ele><time>2026-04-06T12:12:31Z</time></trkpt><trkpt lat="45.53115436251431" lon="10.53076433735277"><ele>128.0</ele><time>2026-04-06T12:12:32Z</time></trkpt><trkpt lat="45.53123538412278" lon="10.530777792639455"><ele>128.0</ele><time>2026-04-06T12:12:33Z</time></trkpt><trkpt lat="45.53131999085989" lon="10.53079692362047"><ele>127.99999999999999</ele><time>2026-04-06T12:12:34Z</time></trkpt><trkpt lat="45.531404716641795" lon="10.530823563290207"><ele>128.0</ele><time>2026-04-06T12:12:35Z</time></trkpt><trkpt lat="45.53148433921305" lon="10.530853787671392"><ele>128.33333333333331</ele><time>2026-04-06T12:12:36Z</time></trkpt><trkpt lat="45.53156380350744" lon="10.530883787522948"><ele>128.66666666666666</ele><time>2026-04-06T12:12:37Z</time></trkpt><trkpt lat="45.53164377712369" lon="10.530910698959698"><ele>129.0</ele><time>2026-04-06T12:12:38Z</time></trkpt><trkpt lat="45.5317069705454" lon="10.530931832204583"><ele>129.33333333333334</ele><time>2026-04-06T12:12:39Z</time></trkpt><trkpt lat="45.53178696264867" lon="10.530959301460554"><ele>129.66666666666669</ele><time>2026-04-06T12:12:41Z</time></trkpt><trkpt lat="45.531878836627705" lon="10.530989176435753"><ele>130.0</ele><time>2026-04-06T12:12:48Z</time></trkpt><trkpt lat="45.53195065038522" lon="10.531009851727744"><ele>130.0</ele><time>2026-04-06T12:12:49Z</time></trkpt><trkpt lat="45.532042260995595" lon="10.531041400738937"><ele>130.0</ele><time>2026-04-06T12:12:50Z</time></trkpt><trkpt lat="45.53214891571454" lon="10.531082786408017"><ele>130.0</ele><time>2026-04-06T12:12:51Z</time></trkpt><trkpt lat="45.5322738576139" lon="10.531123957553419"><ele>130.0</ele><time>2026-04-06T12:12:52Z</time></trkpt><trkpt lat="45.53240171106595" lon="10.531169603069989"><ele>130.0</ele><time>2026-04-06T12:12:53Z</time></trkpt><trkpt lat="45.53254115091118" lon="10.531218407499642"><ele>130.0</ele><time>2026-04-06T12:12:54Z</time></trkpt><trkpt lat="45.532683763786366" lon="10.531267961574201"><ele>130.0</ele><time>2026-04-06T12:12:55Z</time></trkpt><trkpt lat="45.53283488761231" lon="10.531319465109316"><ele>130.0</ele><time>2026-04-06T12:12:56Z</time></trkpt><trkpt lat="45.53299525878512" lon="10.531373209610928"><ele>128.0</ele><time>2026-04-06T12:12:57Z</time></trkpt><trkpt lat="45.533156684281664" lon="10.531427686130444"><ele>126.0</ele><time>2026-04-06T12:12:58Z</time></trkpt><trkpt lat="45.53331807858432" lon="10.531482924488953"><ele>124.0</ele><time>2026-04-06T12:12:59Z</time></trkpt><trkpt lat="45.533481715241045" lon="10.531538601637925"><ele>124.0</ele><time>2026-04-06T12:13:00Z</time></trkpt><trkpt lat="45.53364332957075" lon="10.531592579345288"><ele>124.0</ele><time>2026-04-06T12:13:01Z</time></trkpt><trkpt lat="45.53380521318905" lon="10.531647153349072"><ele>124.0</ele><time>2026-04-06T12:13:02Z</time></trkpt><trkpt lat="45.53396756896842" lon="10.531705555998368"><ele>124.0</ele><time>2026-04-06T12:13:03Z</time></trkpt><trkpt lat="45.53412944294745" lon="10.531760390113451"><ele>124.0</ele><time>2026-04-06T12:13:04Z</time></trkpt><trkpt lat="45.534288236037106" lon="10.531814784333985"><ele>124.0</ele><time>2026-04-06T12:13:05Z</time></trkpt><trkpt lat="45.53444481419309" lon="10.531866599815784"><ele>123.66666666666667</ele><time>2026-04-06T12:13:06Z</time></trkpt><trkpt lat="45.53460545431306" lon="10.531921062590245"><ele>123.33333333333334</ele><time>2026-04-06T12:13:07.001Z</time></trkpt><trkpt lat="45.534773926243204" lon="10.53197827544391"><ele>123.0</ele><time>2026-04-06T12:13:08.001Z</time></trkpt><trkpt lat="45.53494479717718" lon="10.53203752447274"><ele>122.33333333333334</ele><time>2026-04-06T12:13:09.001Z</time></trkpt><trkpt lat="45.53511745766221" lon="10.53209854875279"><ele>121.66666666666667</ele><time>2026-04-06T12:13:10.001Z</time></trkpt><trkpt lat="45.53529316064523" lon="10.532161491434303"><ele>121.0</ele><time>2026-04-06T12:13:11.001Z</time></trkpt><trkpt lat="45.53546872867852" lon="10.53222253924165"><ele>121.0</ele><time>2026-04-06T12:13:12.001Z</time></trkpt><trkpt lat="45.53564639516475" lon="10.532278028086816"><ele>121.0</ele><time>2026-04-06T12:13:13.001Z</time></trkpt><trkpt lat="45.53581853355678" lon="10.532333114657803"><ele>121.0</ele><time>2026-04-06T12:13:14.001Z</time></trkpt><trkpt lat="45.535983941317554" lon="10.532389849924526"><ele>121.0</ele><time>2026-04-06T12:13:15.001Z</time></trkpt><trkpt lat="45.536141692414134" lon="10.532445250378673"><ele>121.0</ele><time>2026-04-06T12:13:16.001Z</time></trkpt><trkpt lat="45.53629107323771" lon="10.532497321106765"><ele>121.0</ele><time>2026-04-06T12:13:17.001Z</time></trkpt><trkpt lat="45.53642917981995" lon="10.532550563694898"><ele>121.5</ele><time>2026-04-06T12:13:18.001Z</time></trkpt><trkpt lat="45.53656127445561" lon="10.532606035216423"><ele>122.0</ele><time>2026-04-06T12:13:19.001Z</time></trkpt><trkpt lat="45.53668693066436" lon="10.532658094464391"><ele>122.5</ele><time>2026-04-06T12:13:20.001Z</time></trkpt><trkpt lat="45.5368024485121" lon="10.532712382809144"><ele>123.0</ele><time>2026-04-06T12:13:21.001Z</time></trkpt><trkpt lat="45.53690580973552" lon="10.532766057871937"><ele>123.0</ele><time>2026-04-06T12:13:22.001Z</time></trkpt><trkpt lat="45.53699201004033" lon="10.532823674045254"><ele>123.0</ele><time>2026-04-06T12:13:23.001Z</time></trkpt><trkpt lat="45.53706559322716" lon="10.532901813285532"><ele>123.0</ele><time>2026-04-06T12:13:24.001Z</time></trkpt><trkpt lat="45.53711671415701" lon="10.533001639260782"><ele>123.0</ele><time>2026-04-06T12:13:25.001Z</time></trkpt><trkpt lat="45.53718519243768" lon="10.533072848685062"><ele>123.0</ele><time>2026-04-06T12:13:26.001Z</time></trkpt><trkpt lat="45.5372635445359" lon="10.533082540854299"><ele>123.0</ele><time>2026-04-06T12:13:27.001Z</time></trkpt><trkpt lat="45.53734253204079" lon="10.53304784926811"><ele>122.80000000000001</ele><time>2026-04-06T12:13:28.001Z</time></trkpt><trkpt lat="45.53740701236663" lon="10.532972603880475"><ele>122.60000000000001</ele><time>2026-04-06T12:13:29.001Z</time></trkpt><trkpt lat="45.53746005050123" lon="10.532847218560663"><ele>122.39999999999999</ele><time>2026-04-06T12:13:30.001Z</time></trkpt><trkpt lat="45.53752095410146" lon="10.532704842425428"><ele>122.19999999999999</ele><time>2026-04-06T12:13:31.001Z</time></trkpt><trkpt lat="45.537604996242635" lon="10.532572359397836"><ele>122.0</ele><time>2026-04-06T12:13:32.001Z</time></trkpt><trkpt lat="45.537713311034395" lon="10.532453857099895"><ele>122.0</ele><time>2026-04-06T12:13:33.001Z</time></trkpt><trkpt lat="45.53783104317054" lon="10.5323466819033"><ele>122.0</ele><time>2026-04-06T12:13:34.001Z</time></trkpt><trkpt lat="45.53795889632807" lon="10.532254232700641"><ele>122.0</ele><time>2026-04-06T12:13:35.001Z</time></trkpt><trkpt lat="45.53809432763207" lon="10.532179367064009"><ele>122.0</ele><time>2026-04-06T12:13:36.001Z</time></trkpt><trkpt lat="45.538234872064734" lon="10.532108233301134"><ele>121.66666666666666</ele><time>2026-04-06T12:13:37.001Z</time></trkpt><trkpt lat="45.53838001179882" lon="10.532032350490091"><ele>121.33333333333334</ele><time>2026-04-06T12:13:38.001Z</time></trkpt><trkpt lat="45.53852598255819" lon="10.531955543857093"><ele>121.0</ele><time>2026-04-06T12:13:39.001Z</time></trkpt><trkpt lat="45.538676469128795" lon="10.531879175289028"><ele>121.33333333333334</ele><time>2026-04-06T12:13:40.001Z</time></trkpt><trkpt lat="45.538830700629845" lon="10.531803614823957"><ele>121.66666666666666</ele><time>2026-04-06T12:13:41.001Z</time></trkpt><trkpt lat="45.53898820946403" lon="10.531728306458701"><ele>122.0</ele><time>2026-04-06T12:13:42.001Z</time></trkpt><trkpt lat="45.5391447548015" lon="10.531659203564994"><ele>122.0</ele><time>2026-04-06T12:13:43.001Z</time></trkpt><trkpt lat="45.539306964665236" lon="10.531594706390784"><ele>122.0</ele><time>2026-04-06T12:13:44.001Z</time></trkpt><trkpt lat="45.539472433838654" lon="10.531538036904934"><ele>122.0</ele><time>2026-04-06T12:13:45.001Z</time></trkpt><trkpt lat="45.53963690929607" lon="10.531491651439566"><ele>122.0</ele><time>2026-04-06T12:13:46.001Z</time></trkpt><trkpt lat="45.53980563476276" lon="10.53145654119862"><ele>122.0</ele><time>2026-04-06T12:13:47.001Z</time></trkpt><trkpt lat="45.539978906708555" lon="10.531430652935331"><ele>122.0</ele><time>2026-04-06T12:13:48.001Z</time></trkpt><trkpt lat="45.540153252004515" lon="10.531413309296891"><ele>122.0</ele><time>2026-04-06T12:13:49.001Z</time></trkpt><trkpt lat="45.54032740839855" lon="10.531404121232805"><ele>122.0</ele><time>2026-04-06T12:13:50.001Z</time></trkpt><trkpt lat="45.540504123013015" lon="10.531396546335941"><ele>122.0</ele><time>2026-04-06T12:13:51.001Z</time></trkpt><trkpt lat="45.540682492297634" lon="10.531397186619888"><ele>121.33333333333333</ele><time>2026-04-06T12:13:52.001Z</time></trkpt><trkpt lat="45.540862341956746" lon="10.531401428900056"><ele>120.66666666666666</ele><time>2026-04-06T12:13:53.001Z</time></trkpt><trkpt lat="45.541039560242076" lon="10.531407422568423"><ele>120.0</ele><time>2026-04-06T12:13:54.001Z</time></trkpt><trkpt lat="45.54121096604697" lon="10.531411538649968"><ele>120.0</ele><time>2026-04-06T12:13:55.001Z</time></trkpt><trkpt lat="45.54138459028726" lon="10.531413778415276"><ele>120.0</ele><time>2026-04-06T12:13:56.001Z</time></trkpt><trkpt lat="45.54155160304967" lon="10.53141300831938"><ele>120.0</ele><time>2026-04-06T12:13:57.001Z</time></trkpt><trkpt lat="45.54170624472983" lon="10.531416264537901"><ele>120.0</ele><time>2026-04-06T12:13:58.001Z</time></trkpt><trkpt lat="45.5418536648149" lon="10.5314229329814"><ele>120.0</ele><time>2026-04-06T12:13:59.001Z</time></trkpt><trkpt lat="45.541979420445486" lon="10.531427755529249"><ele>120.0</ele><time>2026-04-06T12:14:00.001Z</time></trkpt><trkpt lat="45.54208385780823" lon="10.53143281919152"><ele>120.0</ele><time>2026-04-06T12:14:01.001Z</time></trkpt><trkpt lat="45.542164799080176" lon="10.531442365636293"><ele>120.0</ele><time>2026-04-06T12:14:02.001Z</time></trkpt><trkpt lat="45.5422278424434" lon="10.531472380496169"><ele>120.0</ele><time>2026-04-06T12:14:03.001Z</time></trkpt><trkpt lat="45.5422901067846" lon="10.531529675949237"><ele>120.0</ele><time>2026-04-06T12:14:04.001Z</time></trkpt><trkpt lat="45.54234885167633" lon="10.531615080647988"><ele>120.0</ele><time>2026-04-06T12:14:05.001Z</time></trkpt><trkpt lat="45.54242718290265" lon="10.531664183839858"><ele>120.0</ele><time>2026-04-06T12:14:06.001Z</time></trkpt><trkpt lat="45.542508498095415" lon="10.531656594300589"><ele>120.0</ele><time>2026-04-06T12:14:07.001Z</time></trkpt><trkpt lat="45.542586246800454" lon="10.531598754616345"><ele>120.0</ele><time>2026-04-06T12:14:08.001Z</time></trkpt><trkpt lat="45.54265801435703" lon="10.531514760028822"><ele>120.0</ele><time>2026-04-06T12:14:09.001Z</time></trkpt><trkpt lat="45.542738859300776" lon="10.53144384942998"><ele>120.0</ele><time>2026-04-06T12:14:10.001Z</time></trkpt><trkpt lat="45.54284124827296" lon="10.53142220108621"><ele>120.0</ele><time>2026-04-06T12:14:11.001Z</time></trkpt><trkpt lat="45.54294496345515" lon="10.531427149723477"><ele>120.0</ele><time>2026-04-06T12:14:12.001Z</time></trkpt><trkpt lat="45.54305817004837" lon="10.53143734629082"><ele>119.6</ele><time>2026-04-06T12:14:13.001Z</time></trkpt><trkpt lat="45.54316852627926" lon="10.531444020471875"><ele>119.2</ele><time>2026-04-06T12:14:14.001Z</time></trkpt><trkpt lat="45.54327955578982" lon="10.531445305918556"><ele>118.80000000000001</ele><time>2026-04-06T12:14:15.001Z</time></trkpt><trkpt lat="45.54338966430006" lon="10.53144354840906"><ele>118.4</ele><time>2026-04-06T12:14:16.001Z</time></trkpt><trkpt lat="45.543504650758244" lon="10.531445244975961"><ele>118.0</ele><time>2026-04-06T12:14:17.001Z</time></trkpt><trkpt lat="45.54362478422647" lon="10.531445818288184"><ele>117.75</ele><time>2026-04-06T12:14:18.001Z</time></trkpt><trkpt lat="45.54375040673723" lon="10.531446800328771"><ele>117.5</ele><time>2026-04-06T12:14:19.001Z</time></trkpt><trkpt lat="45.54388205220492" lon="10.531451305619138"><ele>117.25</ele><time>2026-04-06T12:14:20.001Z</time></trkpt><trkpt lat="45.544015468037564" lon="10.531456874132791"><ele>117.0</ele><time>2026-04-06T12:14:21.001Z</time></trkpt><trkpt lat="45.544153031790685" lon="10.531460567559009"><ele>117.0</ele><time>2026-04-06T12:14:22.001Z</time></trkpt><trkpt lat="45.5442892711852" lon="10.531468914078532"><ele>117.0</ele><time>2026-04-06T12:14:23.001Z</time></trkpt><trkpt lat="45.544426669459064" lon="10.531490713659569"><ele>117.0</ele><time>2026-04-06T12:14:24.001Z</time></trkpt><trkpt lat="45.54456061979815" lon="10.531531417374445"><ele>117.0</ele><time>2026-04-06T12:14:25.001Z</time></trkpt><trkpt lat="45.544693321487735" lon="10.531588867039485"><ele>117.5</ele><time>2026-04-06T12:14:26.001Z</time></trkpt><trkpt lat="45.544820610880045" lon="10.531651105191461"><ele>118.0</ele><time>2026-04-06T12:14:27.001Z</time></trkpt><trkpt lat="45.544941276107565" lon="10.531728535263941"><ele>118.5</ele><time>2026-04-06T12:14:28.001Z</time></trkpt><trkpt lat="45.54505802432447" lon="10.53181300179684"><ele>119.0</ele><time>2026-04-06T12:14:29Z</time></trkpt><trkpt lat="45.545177692700335" lon="10.531905107715785"><ele>119.0</ele><time>2026-04-06T12:14:30Z</time></trkpt><trkpt lat="45.54529506554326" lon="10.531996941467957"><ele>119.0</ele><time>2026-04-06T12:14:31Z</time></trkpt><trkpt lat="45.54541741160953" lon="10.532084099455076"><ele>119.0</ele><time>2026-04-06T12:14:32Z</time></trkpt><trkpt lat="45.54553920916695" lon="10.532175796681281"><ele>119.0</ele><time>2026-04-06T12:14:33Z</time></trkpt><trkpt lat="45.54566485584126" lon="10.53227068638453"><ele>119.25</ele><time>2026-04-06T12:14:34Z</time></trkpt><trkpt lat="45.54579202357693" lon="10.532364380414188"><ele>119.5</ele><time>2026-04-06T12:14:35Z</time></trkpt><trkpt lat="45.545918516153215" lon="10.532459712167523"><ele>119.75</ele><time>2026-04-06T12:14:36Z</time></trkpt><trkpt lat="45.54604574869402" lon="10.53255714261536"><ele>120.0</ele><time>2026-04-06T12:14:37Z</time></trkpt><trkpt lat="45.54617498966449" lon="10.532653346261586"><ele>119.5</ele><time>2026-04-06T12:14:38Z</time></trkpt><trkpt lat="45.546303893962445" lon="10.532752775995267"><ele>119.0</ele><time>2026-04-06T12:14:39Z</time></trkpt><trkpt lat="45.54643367738011" lon="10.532846830635986"><ele>118.5</ele><time>2026-04-06T12:14:40Z</time></trkpt><trkpt lat="45.54655965247342" lon="10.532940170049676"><ele>118.0</ele><time>2026-04-06T12:14:41Z</time></trkpt><trkpt lat="45.54667855782973" lon="10.533028384272555"><ele>118.0</ele><time>2026-04-06T12:14:42Z</time></trkpt><trkpt lat="45.54678449645441" lon="10.533109221350326"><ele>118.00000000000001</ele><time>2026-04-06T12:14:43Z</time></trkpt><trkpt lat="45.54688452677948" lon="10.533186945888977"><ele>118.00000000000001</ele><time>2026-04-06T12:14:44Z</time></trkpt><trkpt lat="45.54697338495088" lon="10.533254302281582"><ele>118.0</ele><time>2026-04-06T12:14:45Z</time></trkpt><trkpt lat="45.54704470629356" lon="10.533308801304615"><ele>118.0</ele><time>2026-04-06T12:14:46Z</time></trkpt><trkpt lat="45.54714356390049" lon="10.533383653229153"><ele>118.16666666666667</ele><time>2026-04-06T12:14:48Z</time></trkpt><trkpt lat="45.54723728916623" lon="10.533451775898321"><ele>118.33333333333334</ele><time>2026-04-06T12:14:50Z</time></trkpt><trkpt lat="45.547321874461765" lon="10.533565542660526"><ele>118.5</ele><time>2026-04-06T12:14:52Z</time></trkpt><trkpt lat="45.54735326394239" lon="10.533648100188355"><ele>118.66666666666666</ele><time>2026-04-06T12:14:53Z</time></trkpt><trkpt lat="45.54738793600715" lon="10.533738777828056"><ele>118.83333333333333</ele><time>2026-04-06T12:14:54Z</time></trkpt><trkpt lat="45.54742871301809" lon="10.533814922159468"><ele>119.0</ele><time>2026-04-06T12:14:55Z</time></trkpt><trkpt lat="45.547482334700824" lon="10.533865066895212"><ele>119.0</ele><time>2026-04-06T12:14:56Z</time></trkpt><trkpt lat="45.547609944880676" lon="10.533889120253765"><ele>119.0</ele><time>2026-04-06T12:14:58Z</time></trkpt><trkpt lat="45.54768334577404" lon="10.533861181292904"><ele>119.0</ele><time>2026-04-06T12:14:59Z</time></trkpt><trkpt lat="45.547753752074605" lon="10.533824335457297"><ele>119.0</ele><time>2026-04-06T12:15:00Z</time></trkpt><trkpt lat="45.54783161072918" lon="10.533798956253845"><ele>119.0</ele><time>2026-04-06T12:15:01Z</time></trkpt><trkpt lat="45.54799857081265" lon="10.533851247544296"><ele>119.2</ele><time>2026-04-06T12:15:03Z</time></trkpt><trkpt lat="45.548085061317295" lon="10.53390246159176"><ele>119.4</ele><time>2026-04-06T12:15:04Z</time></trkpt><trkpt lat="45.54817666932284" lon="10.533940722948348"><ele>119.6</ele><time>2026-04-06T12:15:05Z</time></trkpt><trkpt lat="45.548279996488134" lon="10.533970983759062"><ele>119.8</ele><time>2026-04-06T12:15:06Z</time></trkpt><trkpt lat="45.548387047931854" lon="10.533994679368494"><ele>120.0</ele><time>2026-04-06T12:15:07Z</time></trkpt><trkpt lat="45.54850448524624" lon="10.534007244715177"><ele>120.0</ele><time>2026-04-06T12:15:08Z</time></trkpt><trkpt lat="45.548628342886765" lon="10.534023339109888"><ele>120.0</ele><time>2026-04-06T12:15:09Z</time></trkpt><trkpt lat="45.5487549601266" lon="10.534032056659344"><ele>120.0</ele><time>2026-04-06T12:15:10Z</time></trkpt><trkpt lat="45.54888629484034" lon="10.534031825227839"><ele>120.0</ele><time>2026-04-06T12:15:11Z</time></trkpt><trkpt lat="45.54901969415493" lon="10.534025869649277"><ele>119.5</ele><time>2026-04-06T12:15:12Z</time></trkpt><trkpt lat="45.54915701000832" lon="10.5340147566872"><ele>119.0</ele><time>2026-04-06T12:15:13Z</time></trkpt><trkpt lat="45.549289874419784" lon="10.533996652234833"><ele>118.5</ele><time>2026-04-06T12:15:14Z</time></trkpt><trkpt lat="45.549417662841" lon="10.533978912909786"><ele>118.0</ele><time>2026-04-06T12:15:15Z</time></trkpt><trkpt lat="45.54954813692763" lon="10.533966108759392"><ele>116.0</ele><time>2026-04-06T12:15:16Z</time></trkpt><trkpt lat="45.54968414186889" lon="10.533953503187238"><ele>114.0</ele><time>2026-04-06T12:15:17Z</time></trkpt><trkpt lat="45.54982401037504" lon="10.533936992173244"><ele>112.0</ele><time>2026-04-06T12:15:18Z</time></trkpt><trkpt lat="45.54996888999605" lon="10.533916304314843"><ele>110.0</ele><time>2026-04-06T12:15:19Z</time></trkpt><trkpt lat="45.55010948894396" lon="10.533895666934695"><ele>110.0</ele><time>2026-04-06T12:15:20Z</time></trkpt><trkpt lat="45.55025755318071" lon="10.533879120787025"><ele>110.0</ele><time>2026-04-06T12:15:21Z</time></trkpt><trkpt lat="45.55040108702543" lon="10.533860343239354"><ele>110.0</ele><time>2026-04-06T12:15:22Z</time></trkpt><trkpt lat="45.55054530462207" lon="10.533841898808769"><ele>110.0</ele><time>2026-04-06T12:15:23Z</time></trkpt><trkpt lat="45.55068952870159" lon="10.533823722447561"><ele>110.25</ele><time>2026-04-06T12:15:24Z</time></trkpt><trkpt lat="45.550831396069" lon="10.5338032115958"><ele>110.5</ele><time>2026-04-06T12:15:25Z</time></trkpt><trkpt lat="45.550971200377155" lon="10.533782442390502"><ele>110.75</ele><time>2026-04-06T12:15:26Z</time></trkpt><trkpt lat="45.5511124703544" lon="10.533763449160626"><ele>111.0</ele><time>2026-04-06T12:15:27Z</time></trkpt><trkpt lat="45.55125304391115" lon="10.533746122252932"><ele>111.5</ele><time>2026-04-06T12:15:28Z</time></trkpt><trkpt lat="45.55139152523739" lon="10.533738247773256"><ele>112.0</ele><time>2026-04-06T12:15:29Z</time></trkpt><trkpt lat="45.551532277723986" lon="10.53370521602905"><ele>112.5</ele><time>2026-04-06T12:15:30Z</time></trkpt><trkpt lat="45.55167216806788" lon="10.533686974669516"><ele>113.0</ele><time>2026-04-06T12:15:31Z</time></trkpt><trkpt lat="45.55180838859791" lon="10.533669617352091"><ele>113.25</ele><time>2026-04-06T12:15:32Z</time></trkpt><trkpt lat="45.55193671879376" lon="10.533652964042492"><ele>113.5</ele><time>2026-04-06T12:15:33Z</time></trkpt><trkpt lat="45.55205790978166" lon="10.533637581368806"><ele>113.75</ele><time>2026-04-06T12:15:34Z</time></trkpt><trkpt lat="45.552168179236" lon="10.533623066141155"><ele>114.0</ele><time>2026-04-06T12:15:35Z</time></trkpt><trkpt lat="45.55228256477846" lon="10.53360710729535"><ele>114.2</ele><time>2026-04-06T12:15:36Z</time></trkpt><trkpt lat="45.55239922995595" lon="10.533592663013376"><ele>114.4</ele><time>2026-04-06T12:15:37Z</time></trkpt><trkpt lat="45.55251595702414" lon="10.533577894842155"><ele>114.6</ele><time>2026-04-06T12:15:38Z</time></trkpt><trkpt lat="45.55262551612563" lon="10.533565757923872"><ele>114.8</ele><time>2026-04-06T12:15:39Z</time></trkpt><trkpt lat="45.55272782358516" lon="10.533552452289275"><ele>115.0</ele><time>2026-04-06T12:15:40Z</time></trkpt><trkpt lat="45.55281724419208" lon="10.53353821572522"><ele>115.16666666666667</ele><time>2026-04-06T12:15:41Z</time></trkpt><trkpt lat="45.55289506133546" lon="10.533522941047643"><ele>115.33333333333334</ele><time>2026-04-06T12:15:42Z</time></trkpt><trkpt lat="45.55296117962351" lon="10.53350690527215"><ele>115.5</ele><time>2026-04-06T12:15:43Z</time></trkpt><trkpt lat="45.55302511780449" lon="10.533491665232685"><ele>115.66666666666666</ele><time>2026-04-06T12:15:44Z</time></trkpt><trkpt lat="45.55313580461539" lon="10.533446512890688"><ele>115.83333333333333</ele><time>2026-04-06T12:15:46Z</time></trkpt><trkpt lat="45.55322562964651" lon="10.533418618941697"><ele>116.0</ele><time>2026-04-06T12:15:48Z</time></trkpt><trkpt lat="45.55330797765744" lon="10.53340732464261"><ele>115.99999999999999</ele><time>2026-04-06T12:15:50Z</time></trkpt><trkpt lat="45.553416304532334" lon="10.533446047475495"><ele>116.0</ele><time>2026-04-06T12:15:52Z</time></trkpt><trkpt lat="45.55348145360982" lon="10.533488435727277"><ele>116.0</ele><time>2026-04-06T12:15:53Z</time></trkpt><trkpt lat="45.55355735940088" lon="10.533505873911434"><ele>116.0</ele><time>2026-04-06T12:15:54Z</time></trkpt><trkpt lat="45.553638489626955" lon="10.533484595217017"><ele>115.99999999999999</ele><time>2026-04-06T12:15:55Z</time></trkpt><trkpt lat="45.553722711642514" lon="10.533437071593807"><ele>116.0</ele><time>2026-04-06T12:15:56Z</time></trkpt><trkpt lat="45.55381531992927" lon="10.53340019959103"><ele>116.4</ele><time>2026-04-06T12:15:57Z</time></trkpt><trkpt lat="45.553917474657595" lon="10.53339088241888"><ele>116.8</ele><time>2026-04-06T12:15:58Z</time></trkpt><trkpt lat="45.554017260677114" lon="10.533382182985802"><ele>117.20000000000002</ele><time>2026-04-06T12:15:59Z</time></trkpt><trkpt lat="45.554115906103775" lon="10.533369122182553"><ele>117.60000000000001</ele><time>2026-04-06T12:16:00Z</time></trkpt><trkpt lat="45.55422466275726" lon="10.533356171572578"><ele>118.0</ele><time>2026-04-06T12:16:01Z</time></trkpt><trkpt lat="45.5543428286502" lon="10.533339096330598"><ele>118.0</ele><time>2026-04-06T12:16:02Z</time></trkpt><trkpt lat="45.5544625171717" lon="10.533326110343248"><ele>118.0</ele><time>2026-04-06T12:16:03Z</time></trkpt><trkpt lat="45.5545853956076" lon="10.533310270506497"><ele>118.0</ele><time>2026-04-06T12:16:04Z</time></trkpt><trkpt lat="45.55470892745923" lon="10.53329523110031"><ele>118.0</ele><time>2026-04-06T12:16:05.001Z</time></trkpt><trkpt lat="45.554837396576545" lon="10.533279718393748"><ele>118.25</ele><time>2026-04-06T12:16:06.001Z</time></trkpt><trkpt lat="45.55497052892366" lon="10.533260701105055"><ele>118.5</ele><time>2026-04-06T12:16:07.001Z</time></trkpt><trkpt lat="45.555105423575135" lon="10.53324317324416"><ele>118.75</ele><time>2026-04-06T12:16:08.001Z</time></trkpt><trkpt lat="45.55523882511199" lon="10.533226585702147"><ele>119.0</ele><time>2026-04-06T12:16:09.001Z</time></trkpt><trkpt lat="45.55537439994478" lon="10.533209918405072"><ele>119.0</ele><time>2026-04-06T12:16:10.001Z</time></trkpt><trkpt lat="45.555503324225135" lon="10.533194903425363"><ele>119.0</ele><time>2026-04-06T12:16:11.001Z</time></trkpt><trkpt lat="45.555624136336625" lon="10.53318132326426"><ele>119.0</ele><time>2026-04-06T12:16:12.001Z</time></trkpt><trkpt lat="45.555736531571924" lon="10.533163481077823"><ele>119.0</ele><time>2026-04-06T12:16:13.001Z</time></trkpt><trkpt lat="45.555825970060845" lon="10.533148347985659"><ele>118.99999999999999</ele><time>2026-04-06T12:16:14.001Z</time></trkpt><trkpt lat="45.55589201991317" lon="10.533140031001608"><ele>119.0</ele><time>2026-04-06T12:16:15.001Z</time></trkpt><trkpt lat="45.55596029264752" lon="10.533128433052616"><ele>119.0</ele><time>2026-04-06T12:16:16.001Z</time></trkpt><trkpt lat="45.556043641292575" lon="10.533119563428185"><ele>119.0</ele><time>2026-04-06T12:16:17.001Z</time></trkpt><trkpt lat="45.55613674536238" lon="10.533113096282603"><ele>118.99999999999999</ele><time>2026-04-06T12:16:18.001Z</time></trkpt><trkpt lat="45.55624395934716" lon="10.533101610048977"><ele>119.0</ele><time>2026-04-06T12:16:19.001Z</time></trkpt><trkpt lat="45.55636290490123" lon="10.533084719683771"><ele>119.5</ele><time>2026-04-06T12:16:20.001Z</time></trkpt><trkpt lat="45.556491380004864" lon="10.533074820707753"><ele>120.0</ele><time>2026-04-06T12:16:21.001Z</time></trkpt><trkpt lat="45.556624500659964" lon="10.533057422136782"><ele>120.5</ele><time>2026-04-06T12:16:22.001Z</time></trkpt><trkpt lat="45.55676879576213" lon="10.533040082523264"><ele>121.0</ele><time>2026-04-06T12:16:23.001Z</time></trkpt><trkpt lat="45.556918662213825" lon="10.533023468368079"><ele>121.0</ele><time>2026-04-06T12:16:24.001Z</time></trkpt><trkpt lat="45.557074701651246" lon="10.533004888107316"><ele>121.0</ele><time>2026-04-06T12:16:25.001Z</time></trkpt><trkpt lat="45.55722305039078" lon="10.53298127243601"><ele>121.0</ele><time>2026-04-06T12:16:26.001Z</time></trkpt><trkpt lat="45.55737096380682" lon="10.532958660427516"><ele>121.0</ele><time>2026-04-06T12:16:27.001Z</time></trkpt><trkpt lat="45.55751035434297" lon="10.532941777921009"><ele>121.0</ele><time>2026-04-06T12:16:28.001Z</time></trkpt><trkpt lat="45.55765131258608" lon="10.532922866692598"><ele>121.0</ele><time>2026-04-06T12:16:29.001Z</time></trkpt><trkpt lat="45.55778789189346" lon="10.53290602025757"><ele>121.0</ele><time>2026-04-06T12:16:30.001Z</time></trkpt><trkpt lat="45.55792762795154" lon="10.53288732392691"><ele>121.25</ele><time>2026-04-06T12:16:31.001Z</time></trkpt><trkpt lat="45.55806549661271" lon="10.532871184336608"><ele>121.5</ele><time>2026-04-06T12:16:32.001Z</time></trkpt><trkpt lat="45.55820568717895" lon="10.532854130806154"><ele>121.75</ele><time>2026-04-06T12:16:33.001Z</time></trkpt><trkpt lat="45.558341459457964" lon="10.53283692607576"><ele>122.0</ele><time>2026-04-06T12:16:34.001Z</time></trkpt><trkpt lat="45.55847648739102" lon="10.532819565531248"><ele>122.0</ele><time>2026-04-06T12:16:35Z</time></trkpt><trkpt lat="45.55861061128229" lon="10.532801843707364"><ele>122.0</ele><time>2026-04-06T12:16:36Z</time></trkpt><trkpt lat="45.558741336633695" lon="10.532784066432752"><ele>122.0</ele><time>2026-04-06T12:16:37Z</time></trkpt><trkpt lat="45.558873128988864" lon="10.532761939646038"><ele>122.0</ele><time>2026-04-06T12:16:38Z</time></trkpt><trkpt lat="45.55900673341305" lon="10.532746941062799"><ele>123.0</ele><time>2026-04-06T12:16:39Z</time></trkpt><trkpt lat="45.55913860350112" lon="10.532733683547168"><ele>124.0</ele><time>2026-04-06T12:16:40Z</time></trkpt><trkpt lat="45.55926896495604" lon="10.532720412873923"><ele>125.0</ele><time>2026-04-06T12:16:41Z</time></trkpt><trkpt lat="45.55939352252748" lon="10.532709485544569"><ele>126.0</ele><time>2026-04-06T12:16:42Z</time></trkpt><trkpt lat="45.55950904450573" lon="10.532704560514187"><ele>126.0</ele><time>2026-04-06T12:16:43Z</time></trkpt><trkpt lat="45.55962643868253" lon="10.532691383737557"><ele>126.0</ele><time>2026-04-06T12:16:44Z</time></trkpt><trkpt lat="45.55972531968277" lon="10.532706402175968"><ele>126.0</ele><time>2026-04-06T12:16:45Z</time></trkpt><trkpt lat="45.55980346519555" lon="10.53271651587871"><ele>126.0</ele><time>2026-04-06T12:16:46Z</time></trkpt><trkpt lat="45.55987601471484" lon="10.53273459379417"><ele>126.0</ele><time>2026-04-06T12:16:47Z</time></trkpt><trkpt lat="45.559940596044044" lon="10.532765233811142"><ele>126.0</ele><time>2026-04-06T12:16:48Z</time></trkpt><trkpt lat="45.56005649795745" lon="10.53284426352453"><ele>126.0</ele><time>2026-04-06T12:16:50Z</time></trkpt><trkpt lat="45.560117764130084" lon="10.532883983328476"><ele>126.0</ele><time>2026-04-06T12:16:51Z</time></trkpt><trkpt lat="45.560186267942285" lon="10.53289526838868"><ele>126.0</ele><time>2026-04-06T12:16:52Z</time></trkpt><trkpt lat="45.56025104466101" lon="10.532859210160652"><ele>126.0</ele><time>2026-04-06T12:16:53Z</time></trkpt><trkpt lat="45.56030978712917" lon="10.532798571839514"><ele>126.0</ele><time>2026-04-06T12:16:54Z</time></trkpt><trkpt lat="45.560362225423944" lon="10.532724712728706"><ele>126.0</ele><time>2026-04-06T12:16:55Z</time></trkpt><trkpt lat="45.560411342329154" lon="10.532650919790115"><ele>126.0</ele><time>2026-04-06T12:16:56Z</time></trkpt><trkpt lat="45.56047547068468" lon="10.532594624936474"><ele>125.6</ele><time>2026-04-06T12:16:57Z</time></trkpt><trkpt lat="45.560557816187156" lon="10.532556520716449"><ele>125.19999999999999</ele><time>2026-04-06T12:16:58Z</time></trkpt><trkpt lat="45.560649143510275" lon="10.532539945429777"><ele>124.80000000000001</ele><time>2026-04-06T12:16:59Z</time></trkpt><trkpt lat="45.56074323324559" lon="10.532520671125337"><ele>124.4</ele><time>2026-04-06T12:17:00Z</time></trkpt><trkpt lat="45.56084709990953" lon="10.532504934999455"><ele>124.0</ele><time>2026-04-06T12:17:01Z</time></trkpt><trkpt lat="45.5609564373852" lon="10.532494277445275"><ele>124.0</ele><time>2026-04-06T12:17:02Z</time></trkpt><trkpt lat="45.561074574189895" lon="10.532483083322102"><ele>124.0</ele><time>2026-04-06T12:17:03Z</time></trkpt><trkpt lat="45.56120274798536" lon="10.532466834131455"><ele>124.0</ele><time>2026-04-06T12:17:04Z</time></trkpt><trkpt lat="45.56133563023136" lon="10.532450812595073"><ele>124.0</ele><time>2026-04-06T12:17:05Z</time></trkpt><trkpt lat="45.561475945880886" lon="10.532427483975239"><ele>124.25</ele><time>2026-04-06T12:17:06Z</time></trkpt><trkpt lat="45.561614677782934" lon="10.53240679815192"><ele>124.5</ele><time>2026-04-06T12:17:07Z</time></trkpt><trkpt lat="45.56175433158338" lon="10.532393566782197"><ele>124.75</ele><time>2026-04-06T12:17:08Z</time></trkpt><trkpt lat="45.561897393928554" lon="10.532379164506889"><ele>125.0</ele><time>2026-04-06T12:17:09Z</time></trkpt><trkpt lat="45.56204183688316" lon="10.532358883453151"><ele>125.5</ele><time>2026-04-06T12:17:10Z</time></trkpt><trkpt lat="45.56218018916536" lon="10.532346094484456"><ele>126.0</ele><time>2026-04-06T12:17:11Z</time></trkpt><trkpt lat="45.56231010751511" lon="10.532327129693298"><ele>126.5</ele><time>2026-04-06T12:17:12Z</time></trkpt><trkpt lat="45.56244307341405" lon="10.532312782058687"><ele>127.0</ele><time>2026-04-06T12:17:13Z</time></trkpt><trkpt lat="45.5625777161801" lon="10.532299729247876"><ele>127.0</ele><time>2026-04-06T12:17:14Z</time></trkpt><trkpt lat="45.562710793666824" lon="10.532284015427503"><ele>127.0</ele><time>2026-04-06T12:17:15Z</time></trkpt><trkpt lat="45.562853478755706" lon="10.53226708763148"><ele>127.0</ele><time>2026-04-06T12:17:16Z</time></trkpt><trkpt lat="45.562999124738525" lon="10.53225099478214"><ele>127.0</ele><time>2026-04-06T12:17:17Z</time></trkpt><trkpt lat="45.56314697764149" lon="10.532232087521795"><ele>127.0</ele><time>2026-04-06T12:17:18Z</time></trkpt><trkpt lat="45.56329732410452" lon="10.53221213594971"><ele>127.0</ele><time>2026-04-06T12:17:19Z</time></trkpt><trkpt lat="45.5634450516959" lon="10.532192027357969"><ele>127.0</ele><time>2026-04-06T12:17:20Z</time></trkpt><trkpt lat="45.56359204426786" lon="10.53217068121322"><ele>127.0</ele><time>2026-04-06T12:17:21Z</time></trkpt><trkpt lat="45.56373261279638" lon="10.5321520339919"><ele>127.75</ele><time>2026-04-06T12:17:22Z</time></trkpt><trkpt lat="45.56386424263579" lon="10.532133540424647"><ele>128.5</ele><time>2026-04-06T12:17:23Z</time></trkpt><trkpt lat="45.5639936656633" lon="10.532115715637778"><ele>129.25</ele><time>2026-04-06T12:17:24Z</time></trkpt><trkpt lat="45.564122297494464" lon="10.532100461944976"><ele>130.0</ele><time>2026-04-06T12:17:25Z</time></trkpt><trkpt lat="45.56423950678474" lon="10.532085130245052"><ele>130.0</ele><time>2026-04-06T12:17:26Z</time></trkpt><trkpt lat="45.56434155794534" lon="10.532071524083715"><ele>130.0</ele><time>2026-04-06T12:17:27Z</time></trkpt><trkpt lat="45.56442908736303" lon="10.532058984818914"><ele>130.0</ele><time>2026-04-06T12:17:28Z</time></trkpt><trkpt lat="45.56449959956158" lon="10.532054142976987"><ele>130.0</ele><time>2026-04-06T12:17:29Z</time></trkpt><trkpt lat="45.564566471958884" lon="10.532059180933608"><ele>130.0</ele><time>2026-04-06T12:17:30Z</time></trkpt><trkpt lat="45.564627368323436" lon="10.53208213161566"><ele>130.0</ele><time>2026-04-06T12:17:31Z</time></trkpt><trkpt lat="45.564717317450864" lon="10.532197255029592"><ele>130.0</ele><time>2026-04-06T12:17:33Z</time></trkpt><trkpt lat="45.56476255157683" lon="10.532262524026315"><ele>130.0</ele><time>2026-04-06T12:17:34Z</time></trkpt><trkpt lat="45.564820468606754" lon="10.532304080408215"><ele>130.0</ele><time>2026-04-06T12:17:35Z</time></trkpt><trkpt lat="45.564941945048965" lon="10.532269717139098"><ele>130.0</ele><time>2026-04-06T12:17:37Z</time></trkpt><trkpt lat="45.564995409897854" lon="10.532207724797237"><ele>130.0</ele><time>2026-04-06T12:17:38Z</time></trkpt><trkpt lat="45.565039372791986" lon="10.532123208552097"><ele>130.0</ele><time>2026-04-06T12:17:39Z</time></trkpt><trkpt lat="45.56506419149937" lon="10.532017335725854"><ele>130.0</ele><time>2026-04-06T12:17:40Z</time></trkpt><trkpt lat="45.565104995886344" lon="10.531930613375621"><ele>130.0</ele><time>2026-04-06T12:17:41Z</time></trkpt><trkpt lat="45.56518008354128" lon="10.531863796750129"><ele>130.0</ele><time>2026-04-06T12:17:42Z</time></trkpt><trkpt lat="45.56527231876535" lon="10.53182576290403"><ele>130.0</ele><time>2026-04-06T12:17:43Z</time></trkpt><trkpt lat="45.565381213886525" lon="10.531789427579836"><ele>130.0</ele><time>2026-04-06T12:17:44Z</time></trkpt><trkpt lat="45.56549799977106" lon="10.531751769131443"><ele>130.5</ele><time>2026-04-06T12:17:45Z</time></trkpt><trkpt lat="45.56562567841204" lon="10.531672455428433"><ele>131.0</ele><time>2026-04-06T12:17:46Z</time></trkpt><trkpt lat="45.56575560369076" lon="10.531604601313386"><ele>131.5</ele><time>2026-04-06T12:17:47Z</time></trkpt><trkpt lat="45.56589177044343" lon="10.5315358548223"><ele>132.0</ele><time>2026-04-06T12:17:48Z</time></trkpt><trkpt lat="45.56602397903262" lon="10.531466198963136"><ele>132.0</ele><time>2026-04-06T12:17:49Z</time></trkpt><trkpt lat="45.566158021313726" lon="10.531393059023364"><ele>132.0</ele><time>2026-04-06T12:17:50Z</time></trkpt><trkpt lat="45.56629240056046" lon="10.531321357667936"><ele>132.0</ele><time>2026-04-06T12:17:51Z</time></trkpt><trkpt lat="45.566427148588645" lon="10.531252429725777"><ele>132.0</ele><time>2026-04-06T12:17:52Z</time></trkpt><trkpt lat="45.566563221237075" lon="10.531184009888417"><ele>132.0</ele><time>2026-04-06T12:17:53Z</time></trkpt><trkpt lat="45.56669676432155" lon="10.531114816360404"><ele>132.0</ele><time>2026-04-06T12:17:54Z</time></trkpt><trkpt lat="45.56682912124802" lon="10.531047174176308"><ele>132.0</ele><time>2026-04-06T12:17:55Z</time></trkpt><trkpt lat="45.56696020840924" lon="10.53098261566042"><ele>132.0</ele><time>2026-04-06T12:17:56Z</time></trkpt><trkpt lat="45.56708670088317" lon="10.530915949500692"><ele>132.0</ele><time>2026-04-06T12:17:57Z</time></trkpt><trkpt lat="45.56720946669042" lon="10.530847961745863"><ele>132.0</ele><time>2026-04-06T12:17:58Z</time></trkpt><trkpt lat="45.567327944379485" lon="10.530780576460224"><ele>132.0</ele><time>2026-04-06T12:17:59Z</time></trkpt><trkpt lat="45.56743328790873" lon="10.530708273660837"><ele>132.0</ele><time>2026-04-06T12:18:00Z</time></trkpt><trkpt lat="45.567532219459764" lon="10.530619789850347"><ele>132.0</ele><time>2026-04-06T12:18:01Z</time></trkpt><trkpt lat="45.56761733989797" lon="10.53051454219076"><ele>132.0</ele><time>2026-04-06T12:18:02Z</time></trkpt><trkpt lat="45.567699781308484" lon="10.530396318540642"><ele>132.0</ele><time>2026-04-06T12:18:03Z</time></trkpt><trkpt lat="45.567777362417225" lon="10.530293419545783"><ele>132.0</ele><time>2026-04-06T12:18:04Z</time></trkpt><trkpt lat="45.567856968961756" lon="10.530206963147636"><ele>132.0</ele><time>2026-04-06T12:18:05Z</time></trkpt><trkpt lat="45.56793921683628" lon="10.530147238791397"><ele>131.79999999999998</ele><time>2026-04-06T12:18:06Z</time></trkpt><trkpt lat="45.56802123520734" lon="10.530083174582147"><ele>131.6</ele><time>2026-04-06T12:18:07Z</time></trkpt><trkpt lat="45.568094268223604" lon="10.5299951139448"><ele>131.39999999999998</ele><time>2026-04-06T12:18:08Z</time></trkpt><trkpt lat="45.56816640330823" lon="10.529908549235637"><ele>131.2</ele><time>2026-04-06T12:18:09Z</time></trkpt><trkpt lat="45.56824354957702" lon="10.529861067100207"><ele>131.0</ele><time>2026-04-06T12:18:10Z</time></trkpt><trkpt lat="45.568428325363946" lon="10.530220608421903"><ele>131.0</ele><time>2026-04-06T12:18:11Z</time></trkpt><trkpt lat="45.56842866034443" lon="10.52989627484607"><ele>131.0</ele><time>2026-04-06T12:18:12Z</time></trkpt><trkpt lat="45.568526244100106" lon="10.529954259445113"><ele>131.0</ele><time>2026-04-06T12:18:13Z</time></trkpt><trkpt lat="45.568642806612615" lon="10.529993409348226"><ele>131.25</ele><time>2026-04-06T12:18:14Z</time></trkpt><trkpt lat="45.56876696721494" lon="10.530002528713107"><ele>131.5</ele><time>2026-04-06T12:18:15Z</time></trkpt><trkpt lat="45.56888686890856" lon="10.52997952506303"><ele>131.75</ele><time>2026-04-06T12:18:16Z</time></trkpt><trkpt lat="45.56900684329943" lon="10.529923181194317"><ele>132.0</ele><time>2026-04-06T12:18:17Z</time></trkpt><trkpt lat="45.569128714797905" lon="10.529851672833503"><ele>132.0</ele><time>2026-04-06T12:18:18Z</time></trkpt><trkpt lat="45.569257901833645" lon="10.529781791142469"><ele>132.0</ele><time>2026-04-06T12:18:19Z</time></trkpt><trkpt lat="45.56938811977577" lon="10.529707589360628"><ele>132.0</ele><time>2026-04-06T12:18:20Z</time></trkpt><trkpt lat="45.569519788381285" lon="10.529636310920633"><ele>132.0</ele><time>2026-04-06T12:18:21Z</time></trkpt><trkpt lat="45.569649370076945" lon="10.529567203936276"><ele>132.5</ele><time>2026-04-06T12:18:22Z</time></trkpt><trkpt lat="45.56977298073203" lon="10.529501738861788"><ele>133.0</ele><time>2026-04-06T12:18:23Z</time></trkpt><trkpt lat="45.569902181216776" lon="10.529434351678752"><ele>133.5</ele><time>2026-04-06T12:18:24Z</time></trkpt><trkpt lat="45.57003044354444" lon="10.529365228215026"><ele>134.0</ele><time>2026-04-06T12:18:25Z</time></trkpt><trkpt lat="45.570156773398445" lon="10.529297492864222"><ele>134.0</ele><time>2026-04-06T12:18:26Z</time></trkpt><trkpt lat="45.570279290187464" lon="10.529235754568296"><ele>134.0</ele><time>2026-04-06T12:18:27Z</time></trkpt><trkpt lat="45.57040017550085" lon="10.52917411962678"><ele>134.0</ele><time>2026-04-06T12:18:28Z</time></trkpt><trkpt lat="45.570519164144464" lon="10.529111759842108"><ele>134.0</ele><time>2026-04-06T12:18:29Z</time></trkpt><trkpt lat="45.570638517889805" lon="10.529047248715807"><ele>134.25</ele><time>2026-04-06T12:18:30Z</time></trkpt><trkpt lat="45.57075611166208" lon="10.528983992577169"><ele>134.5</ele><time>2026-04-06T12:18:31Z</time></trkpt><trkpt lat="45.57087327633578" lon="10.528920578473038"><ele>134.75</ele><time>2026-04-06T12:18:32Z</time></trkpt><trkpt lat="45.570990887479454" lon="10.528856084301802"><ele>135.0</ele><time>2026-04-06T12:18:33Z</time></trkpt><trkpt lat="45.571109770918284" lon="10.528790978180083"><ele>134.75</ele><time>2026-04-06T12:18:34Z</time></trkpt><trkpt lat="45.57122829412014" lon="10.528727514828944"><ele>134.5</ele><time>2026-04-06T12:18:35.001Z</time></trkpt><trkpt lat="45.57134499268509" lon="10.528665643890958"><ele>134.25</ele><time>2026-04-06T12:18:36.001Z</time></trkpt><trkpt lat="45.57146186188852" lon="10.528604247242058"><ele>134.0</ele><time>2026-04-06T12:18:37.001Z</time></trkpt><trkpt lat="45.571575572824344" lon="10.528541170447868"><ele>134.0</ele><time>2026-04-06T12:18:38.001Z</time></trkpt><trkpt lat="45.571689282712406" lon="10.5284745626201"><ele>134.0</ele><time>2026-04-06T12:18:39.001Z</time></trkpt><trkpt lat="45.571801259079066" lon="10.528404982187244"><ele>134.0</ele><time>2026-04-06T12:18:40.001Z</time></trkpt><trkpt lat="45.57191153888465" lon="10.528338267532321"><ele>134.0</ele><time>2026-04-06T12:18:41Z</time></trkpt><trkpt lat="45.572021043803026" lon="10.528273513415682"><ele>134.0</ele><time>2026-04-06T12:18:42Z</time></trkpt><trkpt lat="45.57212854180367" lon="10.52820246483367"><ele>134.0</ele><time>2026-04-06T12:18:43Z</time></trkpt><trkpt lat="45.572238329944" lon="10.528134417273641"><ele>134.0</ele><time>2026-04-06T12:18:44Z</time></trkpt><trkpt lat="45.57234609890867" lon="10.528067750238284"><ele>134.0</ele><time>2026-04-06T12:18:45Z</time></trkpt><trkpt lat="45.57245437826625" lon="10.52799939485495"><ele>134.0</ele><time>2026-04-06T12:18:46Z</time></trkpt><trkpt lat="45.572563660788944" lon="10.527927168466832"><ele>134.0</ele><time>2026-04-06T12:18:47Z</time></trkpt><trkpt lat="45.57267727912502" lon="10.52785194146976"><ele>134.0</ele><time>2026-04-06T12:18:48Z</time></trkpt><trkpt lat="45.572789578376884" lon="10.527779622148145"><ele>134.0</ele><time>2026-04-06T12:18:49Z</time></trkpt><trkpt lat="45.572902554455936" lon="10.527703295927111"><ele>134.25</ele><time>2026-04-06T12:18:50Z</time></trkpt><trkpt lat="45.57301489712938" lon="10.52762556978011"><ele>134.5</ele><time>2026-04-06T12:18:51Z</time></trkpt><trkpt lat="45.57311851975991" lon="10.527561185460918"><ele>134.75</ele><time>2026-04-06T12:18:52Z</time></trkpt><trkpt lat="45.57321506317814" lon="10.52749783379646"><ele>135.0</ele><time>2026-04-06T12:18:53Z</time></trkpt><trkpt lat="45.57331829520987" lon="10.527427804677371"><ele>135.0</ele><time>2026-04-06T12:18:54Z</time></trkpt><trkpt lat="45.57342232957936" lon="10.52735742440088"><ele>135.0</ele><time>2026-04-06T12:18:55Z</time></trkpt><trkpt lat="45.573526063308755" lon="10.52728847335039"><ele>135.0</ele><time>2026-04-06T12:18:56Z</time></trkpt><trkpt lat="45.57362813537178" lon="10.527220146365375"><ele>135.0</ele><time>2026-04-06T12:18:57Z</time></trkpt><trkpt lat="45.57372431761719" lon="10.527156874447163"><ele>135.0</ele><time>2026-04-06T12:18:58Z</time></trkpt><trkpt lat="45.57381025525025" lon="10.527102298126488"><ele>135.2</ele><time>2026-04-06T12:18:59Z</time></trkpt><trkpt lat="45.57389689395029" lon="10.52704575092073"><ele>135.4</ele><time>2026-04-06T12:19:00Z</time></trkpt><trkpt lat="45.57398414806499" lon="10.52698576982289"><ele>135.6</ele><time>2026-04-06T12:19:01Z</time></trkpt><trkpt lat="45.57407433811699" lon="10.526927306237654"><ele>135.8</ele><time>2026-04-06T12:19:02Z</time></trkpt><trkpt lat="45.574166940227656" lon="10.52686262831675"><ele>136.0</ele><time>2026-04-06T12:19:03Z</time></trkpt><trkpt lat="45.574264102577295" lon="10.526799096942396"><ele>136.0</ele><time>2026-04-06T12:19:04Z</time></trkpt><trkpt lat="45.57436120879282" lon="10.526733749701737"><ele>136.0</ele><time>2026-04-06T12:19:05Z</time></trkpt><trkpt lat="45.57445506056801" lon="10.526673623378269"><ele>136.0</ele><time>2026-04-06T12:19:06Z</time></trkpt><trkpt lat="45.574537717898224" lon="10.526620609817419"><ele>136.0</ele><time>2026-04-06T12:19:07Z</time></trkpt><trkpt lat="45.5746138702971" lon="10.52656959704424"><ele>136.0</ele><time>2026-04-06T12:19:08Z</time></trkpt><trkpt lat="45.57468185412626" lon="10.526525379531444"><ele>135.83333333333334</ele><time>2026-04-06T12:19:09Z</time></trkpt><trkpt lat="45.57474770091383" lon="10.526482197119545"><ele>135.66666666666669</ele><time>2026-04-06T12:19:10Z</time></trkpt><trkpt lat="45.5748188653215" lon="10.526434208325579"><ele>135.5</ele><time>2026-04-06T12:19:11Z</time></trkpt><trkpt lat="45.57489567640567" lon="10.526386930565375"><ele>135.33333333333334</ele><time>2026-04-06T12:19:12Z</time></trkpt><trkpt lat="45.57497564448305" lon="10.526357211899478"><ele>135.16666666666666</ele><time>2026-04-06T12:19:13Z</time></trkpt><trkpt lat="45.57504853565783" lon="10.526346449684976"><ele>135.0</ele><time>2026-04-06T12:19:14Z</time></trkpt><trkpt lat="45.57511302167095" lon="10.526360273924178"><ele>135.0</ele><time>2026-04-06T12:19:15Z</time></trkpt><trkpt lat="45.57522755993383" lon="10.526432636636677"><ele>135.0</ele><time>2026-04-06T12:19:17Z</time></trkpt><trkpt lat="45.575344380694794" lon="10.526420694671629"><ele>135.0</ele><time>2026-04-06T12:19:19Z</time></trkpt><trkpt lat="45.575395270706906" lon="10.526364235010046"><ele>135.0</ele><time>2026-04-06T12:19:20Z</time></trkpt><trkpt lat="45.57543557015158" lon="10.526286369219003"><ele>135.0</ele><time>2026-04-06T12:19:21Z</time></trkpt><trkpt lat="45.5754629496993" lon="10.526180583335417"><ele>135.6</ele><time>2026-04-06T12:19:22Z</time></trkpt><trkpt lat="45.5754988723753" lon="10.526065746919492"><ele>136.2</ele><time>2026-04-06T12:19:23Z</time></trkpt><trkpt lat="45.57555955933867" lon="10.525968143606555"><ele>136.8</ele><time>2026-04-06T12:19:24Z</time></trkpt><trkpt lat="45.575644179249956" lon="10.525887618070499"><ele>137.4</ele><time>2026-04-06T12:19:25Z</time></trkpt><trkpt lat="45.57573471178492" lon="10.525827050754625"><ele>138.0</ele><time>2026-04-06T12:19:26Z</time></trkpt><trkpt lat="45.57583361968536" lon="10.525755626414478"><ele>138.0</ele><time>2026-04-06T12:19:27Z</time></trkpt><trkpt lat="45.575941897482856" lon="10.525681670398233"><ele>138.0</ele><time>2026-04-06T12:19:28Z</time></trkpt><trkpt lat="45.57606628165472" lon="10.52559895154503"><ele>138.0</ele><time>2026-04-06T12:19:29Z</time></trkpt><trkpt lat="45.5761945530657" lon="10.525510917481082"><ele>138.0</ele><time>2026-04-06T12:19:30Z</time></trkpt><trkpt lat="45.57633401185611" lon="10.525417332819035"><ele>138.33333333333334</ele><time>2026-04-06T12:19:31Z</time></trkpt><trkpt lat="45.576465788716085" lon="10.525330516235364"><ele>138.66666666666669</ele><time>2026-04-06T12:19:32Z</time></trkpt><trkpt lat="45.57659510025314" lon="10.52523396354559"><ele>139.0</ele><time>2026-04-06T12:19:33Z</time></trkpt><trkpt lat="45.57674381658185" lon="10.52513237720191"><ele>139.0</ele><time>2026-04-06T12:19:34Z</time></trkpt><trkpt lat="45.57690234091193" lon="10.52501931917842"><ele>139.0</ele><time>2026-04-06T12:19:35Z</time></trkpt><trkpt lat="45.577067590034304" lon="10.524912826443574"><ele>139.0</ele><time>2026-04-06T12:19:36Z</time></trkpt><trkpt lat="45.57723116061907" lon="10.524821531646301"><ele>139.0</ele><time>2026-04-06T12:19:37Z</time></trkpt><trkpt lat="45.57739148098222" lon="10.5247245935544"><ele>139.0</ele><time>2026-04-06T12:19:38Z</time></trkpt><trkpt lat="45.57754838817155" lon="10.52462176981201"><ele>139.0</ele><time>2026-04-06T12:19:39Z</time></trkpt><trkpt lat="45.57770571557664" lon="10.524520606986997"><ele>138.66666666666669</ele><time>2026-04-06T12:19:40Z</time></trkpt><trkpt lat="45.577865515143735" lon="10.524419010533267"><ele>138.33333333333334</ele><time>2026-04-06T12:19:41Z</time></trkpt><trkpt lat="45.57802707348642" lon="10.524314346295256"><ele>138.0</ele><time>2026-04-06T12:19:42Z</time></trkpt><trkpt lat="45.578187960737324" lon="10.524206866045663"><ele>138.0</ele><time>2026-04-06T12:19:43Z</time></trkpt><trkpt lat="45.578347296526005" lon="10.524098449177767"><ele>138.0</ele><time>2026-04-06T12:19:44Z</time></trkpt><trkpt lat="45.57850936154391" lon="10.523990757168884"><ele>138.0</ele><time>2026-04-06T12:19:45Z</time></trkpt><trkpt lat="45.57867178153716" lon="10.52388367563829"><ele>138.33333333333334</ele><time>2026-04-06T12:19:46Z</time></trkpt><trkpt lat="45.57883471519799" lon="10.523778832903382"><ele>138.66666666666669</ele><time>2026-04-06T12:19:47Z</time></trkpt><trkpt lat="45.57899764990943" lon="10.523674427653932"><ele>139.0</ele><time>2026-04-06T12:19:48Z</time></trkpt><trkpt lat="45.5791595321727" lon="10.523566260003195"><ele>139.0</ele><time>2026-04-06T12:19:49Z</time></trkpt><trkpt lat="45.57932405654632" lon="10.52345897685536"><ele>139.0</ele><time>2026-04-06T12:19:50Z</time></trkpt><trkpt lat="45.57948946057058" lon="10.52335020702481"><ele>139.0</ele><time>2026-04-06T12:19:51Z</time></trkpt><trkpt lat="45.57965173795967" lon="10.52324674413742"><ele>140.33333333333334</ele><time>2026-04-06T12:19:52Z</time></trkpt><trkpt lat="45.57981460750555" lon="10.523139172452664"><ele>141.66666666666666</ele><time>2026-04-06T12:19:53Z</time></trkpt><trkpt lat="45.57997656670906" lon="10.523028782631789"><ele>143.0</ele><time>2026-04-06T12:19:54Z</time></trkpt><trkpt lat="45.5801380889237" lon="10.522917054684358"><ele>142.66666666666666</ele><time>2026-04-06T12:19:55Z</time></trkpt><trkpt lat="45.58029990683827" lon="10.522809230738321"><ele>142.33333333333334</ele><time>2026-04-06T12:19:56Z</time></trkpt><trkpt lat="45.58046073183252" lon="10.522698687018224"><ele>142.0</ele><time>2026-04-06T12:19:57Z</time></trkpt><trkpt lat="45.580620489605714" lon="10.522591981001607"><ele>142.0</ele><time>2026-04-06T12:19:58Z</time></trkpt><trkpt lat="45.580780606887636" lon="10.522487694678553"><ele>142.0</ele><time>2026-04-06T12:19:59Z</time></trkpt><trkpt lat="45.5809397644939" lon="10.522384963584559"><ele>142.0</ele><time>2026-04-06T12:20:00Z</time></trkpt><trkpt lat="45.581098556417835" lon="10.522282109362408"><ele>142.33333333333334</ele><time>2026-04-06T12:20:01Z</time></trkpt><trkpt lat="45.58125736809821" lon="10.522179351582235"><ele>142.66666666666666</ele><time>2026-04-06T12:20:02Z</time></trkpt><trkpt lat="45.58141374331715" lon="10.522077309078455"><ele>143.0</ele><time>2026-04-06T12:20:03Z</time></trkpt><trkpt lat="45.581569106574186" lon="10.521969103296989"><ele>143.33333333333331</ele><time>2026-04-06T12:20:04Z</time></trkpt><trkpt lat="45.58172259401012" lon="10.521860737125207"><ele>143.66666666666666</ele><time>2026-04-06T12:20:05Z</time></trkpt><trkpt lat="45.581873426696184" lon="10.521741692641433"><ele>144.0</ele><time>2026-04-06T12:20:06Z</time></trkpt><trkpt lat="45.582025088460874" lon="10.521609417848422"><ele>144.0</ele><time>2026-04-06T12:20:07Z</time></trkpt><trkpt lat="45.58217288275728" lon="10.52146572741577"><ele>144.0</ele><time>2026-04-06T12:20:08Z</time></trkpt><trkpt lat="45.582318487481174" lon="10.521312201219208"><ele>144.0</ele><time>2026-04-06T12:20:09.001Z</time></trkpt><trkpt lat="45.58246316588372" lon="10.52115208147015"><ele>144.33333333333334</ele><time>2026-04-06T12:20:10.001Z</time></trkpt><trkpt lat="45.58260486946815" lon="10.520988323874265"><ele>144.66666666666669</ele><time>2026-04-06T12:20:11.001Z</time></trkpt><trkpt lat="45.58274724162924" lon="10.520821491958236"><ele>145.0</ele><time>2026-04-06T12:20:12.001Z</time></trkpt><trkpt lat="45.58289016617652" lon="10.520655441603505"><ele>145.33333333333334</ele><time>2026-04-06T12:20:13.001Z</time></trkpt><trkpt lat="45.58303577491179" lon="10.520494811883735"><ele>145.66666666666666</ele><time>2026-04-06T12:20:14.001Z</time></trkpt><trkpt lat="45.58318424494484" lon="10.52033802184312"><ele>146.0</ele><time>2026-04-06T12:20:15.001Z</time></trkpt><trkpt lat="45.58333804087623" lon="10.520189685418565"><ele>146.0</ele><time>2026-04-06T12:20:16.001Z</time></trkpt><trkpt lat="45.58349535957804" lon="10.520052102424453"><ele>146.0</ele><time>2026-04-06T12:20:17.001Z</time></trkpt><trkpt lat="45.58365421135334" lon="10.519919619174196"><ele>146.0</ele><time>2026-04-06T12:20:18.001Z</time></trkpt><trkpt lat="45.583812494405464" lon="10.51979168330991"><ele>146.33333333333331</ele><time>2026-04-06T12:20:19.001Z</time></trkpt><trkpt lat="45.583969251593416" lon="10.519661191666065"><ele>146.66666666666666</ele><time>2026-04-06T12:20:20.001Z</time></trkpt><trkpt lat="45.58412474230721" lon="10.519528940381955"><ele>147.0</ele><time>2026-04-06T12:20:21.001Z</time></trkpt><trkpt lat="45.58427987117209" lon="10.519398006773564"><ele>148.0</ele><time>2026-04-06T12:20:22.001Z</time></trkpt><trkpt lat="45.584435396749996" lon="10.519269706307252"><ele>149.0</ele><time>2026-04-06T12:20:23.001Z</time></trkpt><trkpt lat="45.58459031298306" lon="10.519143163526058"><ele>150.0</ele><time>2026-04-06T12:20:24.001Z</time></trkpt><trkpt lat="45.584743581855506" lon="10.519018464030687"><ele>150.0</ele><time>2026-04-06T12:20:25.001Z</time></trkpt><trkpt lat="45.58489502879808" lon="10.518891938315416"><ele>150.0</ele><time>2026-04-06T12:20:26.001Z</time></trkpt><trkpt lat="45.585044791953884" lon="10.518765017440288"><ele>150.0</ele><time>2026-04-06T12:20:27.001Z</time></trkpt><trkpt lat="45.58519541969275" lon="10.518639256273334"><ele>151.33333333333334</ele><time>2026-04-06T12:20:28.001Z</time></trkpt><trkpt lat="45.58534499136874" lon="10.518514942668272"><ele>152.66666666666669</ele><time>2026-04-06T12:20:29.001Z</time></trkpt><trkpt lat="45.58549422520238" lon="10.518390710209504"><ele>154.0</ele><time>2026-04-06T12:20:30.001Z</time></trkpt><trkpt lat="45.58563871467388" lon="10.518268282412661"><ele>154.0</ele><time>2026-04-06T12:20:31.001Z</time></trkpt><trkpt lat="45.58577221506932" lon="10.518157348264108"><ele>154.0</ele><time>2026-04-06T12:20:32.001Z</time></trkpt><trkpt lat="45.585897405756384" lon="10.518052637866612"><ele>154.0</ele><time>2026-04-06T12:20:33.001Z</time></trkpt><trkpt lat="45.58601475034195" lon="10.517952223137003"><ele>154.0</ele><time>2026-04-06T12:20:34.001Z</time></trkpt><trkpt lat="45.5861236876508" lon="10.517859815632281"><ele>154.6</ele><time>2026-04-06T12:20:35.001Z</time></trkpt><trkpt lat="45.58622876405278" lon="10.51777159137693"><ele>155.2</ele><time>2026-04-06T12:20:36.001Z</time></trkpt><trkpt lat="45.58631912528195" lon="10.517698518439111"><ele>155.79999999999998</ele><time>2026-04-06T12:20:37.001Z</time></trkpt><trkpt lat="45.586399337349434" lon="10.517634255829867"><ele>156.4</ele><time>2026-04-06T12:20:38.001Z</time></trkpt><trkpt lat="45.58646214792186" lon="10.51758570417784"><ele>157.0</ele><time>2026-04-06T12:20:39.001Z</time></trkpt><trkpt lat="45.58654338269253" lon="10.517535841853885"><ele>157.0</ele><time>2026-04-06T12:20:41.001Z</time></trkpt><trkpt lat="45.586618954521185" lon="10.517529658487192"><ele>157.0</ele><time>2026-04-06T12:20:44.001Z</time></trkpt><trkpt lat="45.58673166905467" lon="10.517595689231808"><ele>157.0</ele><time>2026-04-06T12:20:50Z</time></trkpt><trkpt lat="45.5867823174732" lon="10.517709167032132"><ele>157.0</ele><time>2026-04-06T12:20:51Z</time></trkpt><trkpt lat="45.586829609320844" lon="10.517839197136615"><ele>157.0</ele><time>2026-04-06T12:20:52Z</time></trkpt><trkpt lat="45.58687518115694" lon="10.517997472867087"><ele>156.0</ele><time>2026-04-06T12:20:53Z</time></trkpt><trkpt lat="45.58692112720071" lon="10.518169712776812"><ele>155.0</ele><time>2026-04-06T12:20:54Z</time></trkpt><trkpt lat="45.58696794038594" lon="10.518347580467383"><ele>154.0</ele><time>2026-04-06T12:20:55Z</time></trkpt><trkpt lat="45.5870199846519" lon="10.51853994963503"><ele>153.0</ele><time>2026-04-06T12:20:56Z</time></trkpt><trkpt lat="45.587077721090225" lon="10.518735352074975"><ele>152.33333333333334</ele><time>2026-04-06T12:20:57Z</time></trkpt><trkpt lat="45.587137603180096" lon="10.518932868687443"><ele>151.66666666666669</ele><time>2026-04-06T12:20:58Z</time></trkpt><trkpt lat="45.58720153356758" lon="10.519136295633087"><ele>151.0</ele><time>2026-04-06T12:20:59Z</time></trkpt><trkpt lat="45.5872632785096" lon="10.519337747888937"><ele>151.0</ele><time>2026-04-06T12:21:00Z</time></trkpt><trkpt lat="45.5873250606772" lon="10.51954089956153"><ele>151.0</ele><time>2026-04-06T12:21:01Z</time></trkpt><trkpt lat="45.58738832166379" lon="10.519742826989226"><ele>151.0</ele><time>2026-04-06T12:21:02Z</time></trkpt><trkpt lat="45.58744902793549" lon="10.519939350115944"><ele>151.0</ele><time>2026-04-06T12:21:03Z</time></trkpt><trkpt lat="45.587509661801334" lon="10.520132255297975"><ele>151.0</ele><time>2026-04-06T12:21:04Z</time></trkpt><trkpt lat="45.58757718610878" lon="10.520320829093684"><ele>151.0</ele><time>2026-04-06T12:21:05Z</time></trkpt><trkpt lat="45.58765466980765" lon="10.520501269409035"><ele>151.0</ele><time>2026-04-06T12:21:06Z</time></trkpt><trkpt lat="45.58774583409729" lon="10.520662615498628"><ele>151.5</ele><time>2026-04-06T12:21:07Z</time></trkpt><trkpt lat="45.58784731640171" lon="10.520809828283289"><ele>152.0</ele><time>2026-04-06T12:21:08Z</time></trkpt><trkpt lat="45.58795888466726" lon="10.520944644192431"><ele>152.5</ele><time>2026-04-06T12:21:09Z</time></trkpt><trkpt lat="45.58807638594961" lon="10.521065637896996"><ele>153.0</ele><time>2026-04-06T12:21:10Z</time></trkpt><trkpt lat="45.588198423689136" lon="10.521176934721872"><ele>153.0</ele><time>2026-04-06T12:21:11Z</time></trkpt><trkpt lat="45.58832890133701" lon="10.521283817112508"><ele>153.0</ele><time>2026-04-06T12:21:12Z</time></trkpt><trkpt lat="45.58846793529855" lon="10.521384641423895"><ele>153.0</ele><time>2026-04-06T12:21:13Z</time></trkpt><trkpt lat="45.58861462439435" lon="10.521489366822788"><ele>153.0</ele><time>2026-04-06T12:21:14Z</time></trkpt><trkpt lat="45.5887572332791" lon="10.521592336546634"><ele>153.0</ele><time>2026-04-06T12:21:15Z</time></trkpt><trkpt lat="45.58889468213893" lon="10.521690516421618"><ele>153.0</ele><time>2026-04-06T12:21:16Z</time></trkpt><trkpt lat="45.58902665368842" lon="10.521785916403205"><ele>153.0</ele><time>2026-04-06T12:21:17Z</time></trkpt><trkpt lat="45.58915922070421" lon="10.52187996708858"><ele>153.0</ele><time>2026-04-06T12:21:18Z</time></trkpt><trkpt lat="45.58928630917813" lon="10.521974409950563"><ele>153.0</ele><time>2026-04-06T12:21:19Z</time></trkpt><trkpt lat="45.58941316313789" lon="10.522071732888618"><ele>153.0</ele><time>2026-04-06T12:21:20Z</time></trkpt><trkpt lat="45.58953987280147" lon="10.522168615217685"><ele>154.25</ele><time>2026-04-06T12:21:21Z</time></trkpt><trkpt lat="45.589667999644064" lon="10.522266590148911"><ele>155.5</ele><time>2026-04-06T12:21:22Z</time></trkpt><trkpt lat="45.5897982609693" lon="10.52236482716012"><ele>156.75</ele><time>2026-04-06T12:21:23Z</time></trkpt><trkpt lat="45.58992939759692" lon="10.522465202082904"><ele>158.0</ele><time>2026-04-06T12:21:24Z</time></trkpt><trkpt lat="45.5900609157128" lon="10.522562388919454"><ele>158.0</ele><time>2026-04-06T12:21:25Z</time></trkpt><trkpt lat="45.590191076082306" lon="10.522662046620617"><ele>158.0</ele><time>2026-04-06T12:21:26Z</time></trkpt><trkpt lat="45.59031578539242" lon="10.52275650621124"><ele>158.0</ele><time>2026-04-06T12:21:27Z</time></trkpt><trkpt lat="45.59042928653944" lon="10.522839665468496"><ele>158.0</ele><time>2026-04-06T12:21:28Z</time></trkpt><trkpt lat="45.590530288674124" lon="10.522910935131573"><ele>160.0</ele><time>2026-04-06T12:21:29Z</time></trkpt><trkpt lat="45.59060993983679" lon="10.522963153660246"><ele>162.0</ele><time>2026-04-06T12:21:30Z</time></trkpt><trkpt lat="45.590683519398105" lon="10.523009936642888"><ele>164.0</ele><time>2026-04-06T12:21:31Z</time></trkpt><trkpt lat="45.59074899850011" lon="10.523048950494962"><ele>166.0</ele><time>2026-04-06T12:21:32Z</time></trkpt><trkpt lat="45.59084682732659" lon="10.52309517646656"><ele>168.0</ele><time>2026-04-06T12:21:34Z</time></trkpt><trkpt lat="45.59095709451453" lon="10.523129615221064"><ele>168.0</ele><time>2026-04-06T12:21:36Z</time></trkpt><trkpt lat="45.59104331030415" lon="10.523153284205211"><ele>168.0</ele><time>2026-04-06T12:21:37Z</time></trkpt><trkpt lat="45.5911375995298" lon="10.523178892410272"><ele>168.0</ele><time>2026-04-06T12:21:38Z</time></trkpt><trkpt lat="45.591239837778744" lon="10.523183613211938"><ele>168.0</ele><time>2026-04-06T12:21:39Z</time></trkpt><trkpt lat="45.591347490892524" lon="10.523170416047384"><ele>168.0</ele><time>2026-04-06T12:21:40Z</time></trkpt><trkpt lat="45.591459227187464" lon="10.523143327021737"><ele>168.0</ele><time>2026-04-06T12:21:41Z</time></trkpt><trkpt lat="45.5915710195048" lon="10.523111808654983"><ele>168.0</ele><time>2026-04-06T12:21:42Z</time></trkpt><trkpt lat="45.591675755318384" lon="10.523072706796825"><ele>168.0</ele><time>2026-04-06T12:21:43Z</time></trkpt><trkpt lat="45.591765891910505" lon="10.523030843770147"><ele>168.0</ele><time>2026-04-06T12:21:44Z</time></trkpt><trkpt lat="45.59184568677839" lon="10.522978598405635"><ele>168.0</ele><time>2026-04-06T12:21:45Z</time></trkpt><trkpt lat="45.59191761539585" lon="10.522931025167688"><ele>165.6</ele><time>2026-04-06T12:21:46Z</time></trkpt><trkpt lat="45.59203577005247" lon="10.522885196749273"><ele>163.20000000000002</ele><time>2026-04-06T12:21:48Z</time></trkpt><trkpt lat="45.5921048687112" lon="10.52289532558867"><ele>160.8</ele><time>2026-04-06T12:21:49Z</time></trkpt><trkpt lat="45.59217183978857" lon="10.522922620348453"><ele>158.4</ele><time>2026-04-06T12:21:50Z</time></trkpt><trkpt lat="45.59229318862045" lon="10.522889110188546"><ele>156.0</ele><time>2026-04-06T12:21:52Z</time></trkpt><trkpt lat="45.592340558861245" lon="10.522799337372298"><ele>154.6</ele><time>2026-04-06T12:21:53Z</time></trkpt><trkpt lat="45.5923279441547" lon="10.522664191737924"><ele>153.2</ele><time>2026-04-06T12:21:54Z</time></trkpt><trkpt lat="45.59231029671694" lon="10.522540996465118"><ele>151.8</ele><time>2026-04-06T12:21:55Z</time></trkpt><trkpt lat="45.592304604449325" lon="10.522409467407584"><ele>150.4</ele><time>2026-04-06T12:21:56Z</time></trkpt><trkpt lat="45.59232460564386" lon="10.52226365548788"><ele>149.0</ele><time>2026-04-06T12:21:57Z</time></trkpt><trkpt lat="45.59238111596771" lon="10.522126365779652"><ele>148.6</ele><time>2026-04-06T12:21:58Z</time></trkpt><trkpt lat="45.59245738031913" lon="10.522014336924947"><ele>148.2</ele><time>2026-04-06T12:21:59Z</time></trkpt><trkpt lat="45.59254399827839" lon="10.52196435831004"><ele>147.79999999999998</ele><time>2026-04-06T12:22:00Z</time></trkpt><trkpt lat="45.59265365470908" lon="10.521955187067784"><ele>147.4</ele><time>2026-04-06T12:22:01Z</time></trkpt><trkpt lat="45.5927770378714" lon="10.521976228576865"><ele>147.0</ele><time>2026-04-06T12:22:02Z</time></trkpt><trkpt lat="45.592904178730926" lon="10.52201036732846"><ele>147.0</ele><time>2026-04-06T12:22:03Z</time></trkpt><trkpt lat="45.59302793633558" lon="10.522035369505693"><ele>147.0</ele><time>2026-04-06T12:22:04Z</time></trkpt><trkpt lat="45.59315636572467" lon="10.522039335843854"><ele>147.0</ele><time>2026-04-06T12:22:05Z</time></trkpt><trkpt lat="45.593284944639024" lon="10.522027103483884"><ele>147.0</ele><time>2026-04-06T12:22:06Z</time></trkpt><trkpt lat="45.59340780044408" lon="10.522009337935613"><ele>147.0</ele><time>2026-04-06T12:22:07Z</time></trkpt><trkpt lat="45.59351328297423" lon="10.521998998535706"><ele>147.0</ele><time>2026-04-06T12:22:08Z</time></trkpt><trkpt lat="45.59360591836423" lon="10.521987384793391"><ele>147.0</ele><time>2026-04-06T12:22:09Z</time></trkpt><trkpt lat="45.59367373557286" lon="10.521979660426053"><ele>147.0</ele><time>2026-04-06T12:22:10Z</time></trkpt><trkpt lat="45.59373763587222" lon="10.521960900888557"><ele>147.0</ele><time>2026-04-06T12:22:11Z</time></trkpt><trkpt lat="45.59379794077798" lon="10.52192322395064"><ele>147.0</ele><time>2026-04-06T12:22:12Z</time></trkpt><trkpt lat="45.593851231543056" lon="10.521838750533096"><ele>144.6</ele><time>2026-04-06T12:22:13Z</time></trkpt><trkpt lat="45.593877918768115" lon="10.521711396260166"><ele>142.2</ele><time>2026-04-06T12:22:14Z</time></trkpt><trkpt lat="45.59390622732442" lon="10.52158148301436"><ele>139.8</ele><time>2026-04-06T12:22:15Z</time></trkpt><trkpt lat="45.59391263863123" lon="10.52142824307283"><ele>137.4</ele><time>2026-04-06T12:22:16Z</time></trkpt><trkpt lat="45.59391733696694" lon="10.521259376688116"><ele>135.0</ele><time>2026-04-06T12:22:17Z</time></trkpt><trkpt lat="45.593922534251" lon="10.521079584052442"><ele>135.0</ele><time>2026-04-06T12:22:18Z</time></trkpt><trkpt lat="45.59391256820247" lon="10.520886644620516"><ele>135.0</ele><time>2026-04-06T12:22:19Z</time></trkpt><trkpt lat="45.59392069040644" lon="10.520693998488584"><ele>135.0</ele><time>2026-04-06T12:22:20Z</time></trkpt><trkpt lat="45.59392802917994" lon="10.520493523816233"><ele>135.0</ele><time>2026-04-06T12:22:21Z</time></trkpt><trkpt lat="45.5939348166666" lon="10.520290175046362"><ele>134.5</ele><time>2026-04-06T12:22:22Z</time></trkpt><trkpt lat="45.59394064659766" lon="10.520083133700265"><ele>134.0</ele><time>2026-04-06T12:22:23.001Z</time></trkpt><trkpt lat="45.59394712930151" lon="10.519884029103299"><ele>133.5</ele><time>2026-04-06T12:22:24.001Z</time></trkpt><trkpt lat="45.59395349758026" lon="10.519685029762307"><ele>133.0</ele><time>2026-04-06T12:22:25.001Z</time></trkpt><trkpt lat="45.59395925397008" lon="10.519497993284583"><ele>132.8</ele><time>2026-04-06T12:22:26.001Z</time></trkpt><trkpt lat="45.593966844374584" lon="10.519335033878903"><ele>132.60000000000002</ele><time>2026-04-06T12:22:27.001Z</time></trkpt><trkpt lat="45.59397756317998" lon="10.519190704363881"><ele>132.39999999999998</ele><time>2026-04-06T12:22:28.001Z</time></trkpt><trkpt lat="45.59399862699795" lon="10.519057474956469"><ele>132.2</ele><time>2026-04-06T12:22:29.001Z</time></trkpt><trkpt lat="45.59405467538033" lon="10.518938162178976"><ele>132.0</ele><time>2026-04-06T12:22:30.001Z</time></trkpt><trkpt lat="45.59412922204278" lon="10.51883522064372"><ele>132.0</ele><time>2026-04-06T12:22:31.001Z</time></trkpt><trkpt lat="45.59422266164832" lon="10.518771872424889"><ele>132.0</ele><time>2026-04-06T12:22:32.001Z</time></trkpt><trkpt lat="45.59432392234319" lon="10.518741409335721"><ele>132.0</ele><time>2026-04-06T12:22:33.001Z</time></trkpt><trkpt lat="45.59443047400406" lon="10.518756935307785"><ele>132.0</ele><time>2026-04-06T12:22:34.001Z</time></trkpt><trkpt lat="45.59453788826116" lon="10.518807822291105"><ele>132.0</ele><time>2026-04-06T12:22:35.001Z</time></trkpt><trkpt lat="45.5946296831219" lon="10.518904802022446"><ele>129.5</ele><time>2026-04-06T12:22:36.001Z</time></trkpt><trkpt lat="45.59469297243926" lon="10.51904239050807"><ele>127.0</ele><time>2026-04-06T12:22:37.001Z</time></trkpt><trkpt lat="45.59472495197277" lon="10.519215359022738"><ele>124.5</ele><time>2026-04-06T12:22:38.001Z</time></trkpt><trkpt lat="45.59474319332182" lon="10.519404892670783"><ele>122.0</ele><time>2026-04-06T12:22:39.001Z</time></trkpt><trkpt lat="45.594754017145895" lon="10.519605840650852"><ele>122.0</ele><time>2026-04-06T12:22:40.001Z</time></trkpt><trkpt lat="45.594767606746146" lon="10.519818422663887"><ele>122.0</ele><time>2026-04-06T12:22:41.001Z</time></trkpt><trkpt lat="45.594786840631016" lon="10.520029934029195"><ele>122.0</ele><time>2026-04-06T12:22:42.001Z</time></trkpt><trkpt lat="45.59481093920441" lon="10.520237349670886"><ele>122.0</ele><time>2026-04-06T12:22:43.001Z</time></trkpt><trkpt lat="45.59482960343393" lon="10.520440436262763"><ele>121.5</ele><time>2026-04-06T12:22:44.001Z</time></trkpt><trkpt lat="45.594849196578025" lon="10.52064213376227"><ele>121.0</ele><time>2026-04-06T12:22:45.001Z</time></trkpt><trkpt lat="45.59486760682567" lon="10.520836622695459"><ele>120.5</ele><time>2026-04-06T12:22:46.001Z</time></trkpt><trkpt lat="45.594887074964404" lon="10.5210277775913"><ele>120.0</ele><time>2026-04-06T12:22:47.001Z</time></trkpt><trkpt lat="45.59490449521284" lon="10.521211844107734"><ele>120.25</ele><time>2026-04-06T12:22:48.001Z</time></trkpt><trkpt lat="45.59492219143447" lon="10.52139925843951"><ele>120.5</ele><time>2026-04-06T12:22:49.001Z</time></trkpt><trkpt lat="45.59493957384099" lon="10.52158287658931"><ele>120.75</ele><time>2026-04-06T12:22:50.001Z</time></trkpt><trkpt lat="45.59495453298116" lon="10.521760908635699"><ele>121.0</ele><time>2026-04-06T12:22:51.001Z</time></trkpt><trkpt lat="45.59497163985485" lon="10.521943679267078"><ele>120.75</ele><time>2026-04-06T12:22:52.001Z</time></trkpt><trkpt lat="45.59498842452829" lon="10.52212122262102"><ele>120.5</ele><time>2026-04-06T12:22:53Z</time></trkpt><trkpt lat="45.59500267451305" lon="10.522293909610207"><ele>120.25</ele><time>2026-04-06T12:22:54Z</time></trkpt><trkpt lat="45.595017920519695" lon="10.522461762787803"><ele>120.0</ele><time>2026-04-06T12:22:55Z</time></trkpt><trkpt lat="45.59503193712438" lon="10.522622851794422"><ele>120.0</ele><time>2026-04-06T12:22:56Z</time></trkpt><trkpt lat="45.59504725025571" lon="10.522797240968748"><ele>120.0</ele><time>2026-04-06T12:22:57Z</time></trkpt><trkpt lat="45.595064677313935" lon="10.52296994718312"><ele>120.0</ele><time>2026-04-06T12:22:58Z</time></trkpt><trkpt lat="45.595077416916574" lon="10.523134610098083"><ele>120.0</ele><time>2026-04-06T12:22:59Z</time></trkpt><trkpt lat="45.59509200077129" lon="10.523291275155668"><ele>119.5</ele><time>2026-04-06T12:23:00Z</time></trkpt><trkpt lat="45.59510144118133" lon="10.52342663041992"><ele>119.0</ele><time>2026-04-06T12:23:01Z</time></trkpt><trkpt lat="45.59510723072301" lon="10.523530779793186"><ele>118.5</ele><time>2026-04-06T12:23:02Z</time></trkpt><trkpt lat="45.595111815249446" lon="10.523631476654852"><ele>118.0</ele><time>2026-04-06T12:23:03Z</time></trkpt><trkpt lat="45.59512228894114" lon="10.523727281820657"><ele>117.5</ele><time>2026-04-06T12:23:04Z</time></trkpt><trkpt lat="45.59519972433081" lon="10.523834950514175"><ele>117.0</ele><time>2026-04-06T12:23:06Z</time></trkpt><trkpt lat="45.595323208222545" lon="10.523799954707627"><ele>111.8</ele><time>2026-04-06T12:23:08Z</time></trkpt><trkpt lat="45.595348331193506" lon="10.523647221531334"><ele>106.6</ele><time>2026-04-06T12:23:09Z</time></trkpt><trkpt lat="45.59535614601199" lon="10.523505653914057"><ele>101.39999999999999</ele><time>2026-04-06T12:23:10Z</time></trkpt><trkpt lat="45.59535281162618" lon="10.523350931146622"><ele>96.19999999999999</ele><time>2026-04-06T12:23:11Z</time></trkpt><trkpt lat="45.595376315853876" lon="10.523185203008287"><ele>91.0</ele><time>2026-04-06T12:23:12Z</time></trkpt><trkpt lat="45.595386579432066" lon="10.523006682907074"><ele>91.25</ele><time>2026-04-06T12:23:13Z</time></trkpt><trkpt lat="45.59538414458327" lon="10.522822083676076"><ele>91.5</ele><time>2026-04-06T12:23:14Z</time></trkpt><trkpt lat="45.59539698314188" lon="10.522633707412377"><ele>91.75</ele><time>2026-04-06T12:23:15Z</time></trkpt><trkpt lat="45.595407323817305" lon="10.522453858504726"><ele>92.0</ele><time>2026-04-06T12:23:16Z</time></trkpt><trkpt lat="45.59541697828854" lon="10.522270985877896"><ele>92.0</ele><time>2026-04-06T12:23:17Z</time></trkpt><trkpt lat="45.595426991598316" lon="10.522089891432861"><ele>92.0</ele><time>2026-04-06T12:23:18Z</time></trkpt><trkpt lat="45.5954386665127" lon="10.521910152999505"><ele>92.0</ele><time>2026-04-06T12:23:19Z</time></trkpt><trkpt lat="45.59545137323805" lon="10.52172919145342"><ele>92.0</ele><time>2026-04-06T12:23:20Z</time></trkpt><trkpt lat="45.59546113410676" lon="10.521544562029108"><ele>92.6</ele><time>2026-04-06T12:23:21Z</time></trkpt><trkpt lat="45.595470684859464" lon="10.521361763780714"><ele>93.19999999999999</ele><time>2026-04-06T12:23:22Z</time></trkpt><trkpt lat="45.5954786750511" lon="10.521190205497252"><ele>93.8</ele><time>2026-04-06T12:23:23Z</time></trkpt><trkpt lat="45.59548600678245" lon="10.521048015797417"><ele>94.4</ele><time>2026-04-06T12:23:24Z</time></trkpt><trkpt lat="45.59549342321975" lon="10.520922957082151"><ele>95.0</ele><time>2026-04-06T12:23:25Z</time></trkpt><trkpt lat="45.59550208704767" lon="10.520814406384918"><ele>95.6</ele><time>2026-04-06T12:23:26Z</time></trkpt><trkpt lat="45.595498923733395" lon="10.520715238376381"><ele>96.2</ele><time>2026-04-06T12:23:27Z</time></trkpt><trkpt lat="45.59554202653411" lon="10.520587877584727"><ele>96.80000000000001</ele><time>2026-04-06T12:23:29Z</time></trkpt><trkpt lat="45.59563910489775" lon="10.520602931496914"><ele>97.4</ele><time>2026-04-06T12:23:31Z</time></trkpt><trkpt lat="45.59566429134987" lon="10.520785287376022"><ele>98.0</ele><time>2026-04-06T12:23:33Z</time></trkpt><trkpt lat="45.595657610059405" lon="10.520921441915274"><ele>98.0</ele><time>2026-04-06T12:23:34Z</time></trkpt><trkpt lat="45.595639801821804" lon="10.521084546043333"><ele>98.0</ele><time>2026-04-06T12:23:35Z</time></trkpt><trkpt lat="45.59563197935351" lon="10.521263668148272"><ele>98.0</ele><time>2026-04-06T12:23:36Z</time></trkpt><trkpt lat="45.595633352180556" lon="10.521450642906013"><ele>98.0</ele><time>2026-04-06T12:23:37Z</time></trkpt><trkpt lat="45.59562644270421" lon="10.521650102479756"><ele>97.25</ele><time>2026-04-06T12:23:38Z</time></trkpt><trkpt lat="45.595618146456175" lon="10.521843598691934"><ele>96.5</ele><time>2026-04-06T12:23:39Z</time></trkpt><trkpt lat="45.59561244827622" lon="10.522041350681382"><ele>95.75</ele><time>2026-04-06T12:23:40Z</time></trkpt><trkpt lat="45.5956048224663" lon="10.522239162216636"><ele>95.0</ele><time>2026-04-06T12:23:41Z</time></trkpt><trkpt lat="45.59559725301851" lon="10.522433921866853"><ele>94.25</ele><time>2026-04-06T12:23:42Z</time></trkpt><trkpt lat="45.59558904829963" lon="10.522624281954627"><ele>93.5</ele><time>2026-04-06T12:23:43Z</time></trkpt><trkpt lat="45.595578259421266" lon="10.522806461771966"><ele>92.75</ele><time>2026-04-06T12:23:44Z</time></trkpt><trkpt lat="45.59556742324773" lon="10.522986952263512"><ele>92.0</ele><time>2026-04-06T12:23:45Z</time></trkpt><trkpt lat="45.59556125288783" lon="10.523159464032336"><ele>91.8</ele><time>2026-04-06T12:23:46Z</time></trkpt><trkpt lat="45.595552669302364" lon="10.523315156752048"><ele>91.6</ele><time>2026-04-06T12:23:47Z</time></trkpt><trkpt lat="45.595544917420916" lon="10.523454152414834"><ele>91.39999999999999</ele><time>2026-04-06T12:23:48Z</time></trkpt><trkpt lat="45.595537742965135" lon="10.523583331690192"><ele>91.19999999999999</ele><time>2026-04-06T12:23:49Z</time></trkpt><trkpt lat="45.59552922648416" lon="10.523704904468577"><ele>91.0</ele><time>2026-04-06T12:23:50Z</time></trkpt><trkpt lat="45.595528251537935" lon="10.523815472366595"><ele>90.83333333333333</ele><time>2026-04-06T12:23:51Z</time></trkpt><trkpt lat="45.59552427760571" lon="10.523915630057765"><ele>90.66666666666666</ele><time>2026-04-06T12:23:52Z</time></trkpt><trkpt lat="45.595515296103216" lon="10.524008709257723"><ele>90.5</ele><time>2026-04-06T12:23:53Z</time></trkpt><trkpt lat="45.595549742272425" lon="10.524122459848934"><ele>90.33333333333333</ele><time>2026-04-06T12:23:55Z</time></trkpt><trkpt lat="45.59560714962382" lon="10.524197788371461"><ele>90.16666666666667</ele><time>2026-04-06T12:23:57Z</time></trkpt><trkpt lat="45.59570281649338" lon="10.524046893461964"><ele>90.0</ele><time>2026-04-06T12:23:58Z</time></trkpt><trkpt lat="45.595720701009036" lon="10.52392429848606"><ele>90.0</ele><time>2026-04-06T12:23:59Z</time></trkpt><trkpt lat="45.59571847747384" lon="10.52373262196602"><ele>90.0</ele><time>2026-04-06T12:24:00Z</time></trkpt><trkpt lat="45.59574224826898" lon="10.52354822794882"><ele>90.0</ele><time>2026-04-06T12:24:01Z</time></trkpt><trkpt lat="45.59576879706342" lon="10.523345210071346"><ele>90.0</ele><time>2026-04-06T12:24:02Z</time></trkpt><trkpt lat="45.59579127112541" lon="10.523141150253055"><ele>90.25</ele><time>2026-04-06T12:24:03Z</time></trkpt><trkpt lat="45.59582496586703" lon="10.52292689433271"><ele>90.5</ele><time>2026-04-06T12:24:04Z</time></trkpt><trkpt lat="45.59584531842321" lon="10.522731236443887"><ele>90.75</ele><time>2026-04-06T12:24:05Z</time></trkpt><trkpt lat="45.5958683712673" lon="10.522530002306114"><ele>91.0</ele><time>2026-04-06T12:24:06Z</time></trkpt><trkpt lat="45.595888773263205" lon="10.522320932608851"><ele>91.25</ele><time>2026-04-06T12:24:07Z</time></trkpt><trkpt lat="45.595914868305975" lon="10.522107955618763"><ele>91.5</ele><time>2026-04-06T12:24:08Z</time></trkpt><trkpt lat="45.59593964603269" lon="10.521893768575518"><ele>91.75</ele><time>2026-04-06T12:24:09Z</time></trkpt><trkpt lat="45.59596329976845" lon="10.521688726531373"><ele>92.0</ele><time>2026-04-06T12:24:10Z</time></trkpt><trkpt lat="45.59598840147211" lon="10.52149223604019"><ele>92.75</ele><time>2026-04-06T12:24:11Z</time></trkpt><trkpt lat="45.596011095150914" lon="10.521299183234923"><ele>93.5</ele><time>2026-04-06T12:24:12Z</time></trkpt><trkpt lat="45.59603216447027" lon="10.521111696586182"><ele>94.25</ele><time>2026-04-06T12:24:13Z</time></trkpt><trkpt lat="45.59605292541597" lon="10.5209280043319"><ele>95.0</ele><time>2026-04-06T12:24:14Z</time></trkpt><trkpt lat="45.59607350634577" lon="10.520746207941778"><ele>95.5</ele><time>2026-04-06T12:24:15Z</time></trkpt><trkpt lat="45.596094856369" lon="10.52055895481321"><ele>96.0</ele><time>2026-04-06T12:24:16Z</time></trkpt><trkpt lat="45.596120760920535" lon="10.520359111677019"><ele>96.5</ele><time>2026-04-06T12:24:17Z</time></trkpt><trkpt lat="45.596142486924336" lon="10.520160930977838"><ele>97.0</ele><time>2026-04-06T12:24:18Z</time></trkpt><trkpt lat="45.5961671985322" lon="10.519968094882357"><ele>91.0</ele><time>2026-04-06T12:24:19Z</time></trkpt><trkpt lat="45.59618891655564" lon="10.519783365155934"><ele>85.0</ele><time>2026-04-06T12:24:20Z</time></trkpt><trkpt lat="45.59621016160873" lon="10.519596291242339"><ele>79.0</ele><time>2026-04-06T12:24:21Z</time></trkpt><trkpt lat="45.59623197025604" lon="10.519408550374457"><ele>73.0</ele><time>2026-04-06T12:24:22Z</time></trkpt><trkpt lat="45.59626243780654" lon="10.519231694187066"><ele>73.0</ele><time>2026-04-06T12:24:23Z</time></trkpt><trkpt lat="45.5963014862291" lon="10.519051067315704"><ele>73.0</ele><time>2026-04-06T12:24:24Z</time></trkpt><trkpt lat="45.596351886884165" lon="10.518880662871123"><ele>73.0</ele><time>2026-04-06T12:24:25Z</time></trkpt><trkpt lat="45.59641364654095" lon="10.518725961080127"><ele>73.0</ele><time>2026-04-06T12:24:26Z</time></trkpt><trkpt lat="45.59647277637041" lon="10.518579714333134"><ele>74.0</ele><time>2026-04-06T12:24:27Z</time></trkpt><trkpt lat="45.59652810893283" lon="10.51843577126943"><ele>75.0</ele><time>2026-04-06T12:24:28Z</time></trkpt><trkpt lat="45.59658236461869" lon="10.518295700715704"><ele>76.0</ele><time>2026-04-06T12:24:29Z</time></trkpt><trkpt lat="45.59663518274195" lon="10.518168228710671"><ele>77.0</ele><time>2026-04-06T12:24:30Z</time></trkpt><trkpt lat="45.59668556772946" lon="10.518040163953575"><ele>78.0</ele><time>2026-04-06T12:24:31Z</time></trkpt><trkpt lat="45.596735297365704" lon="10.517918926154545"><ele>79.0</ele><time>2026-04-06T12:24:32Z</time></trkpt><trkpt lat="45.59678386745948" lon="10.51779925257047"><ele>80.0</ele><time>2026-04-06T12:24:33Z</time></trkpt><trkpt lat="45.59683302404489" lon="10.517685167592933"><ele>81.0</ele><time>2026-04-06T12:24:34Z</time></trkpt><trkpt lat="45.59688098151602" lon="10.51758830899916"><ele>82.0</ele><time>2026-04-06T12:24:35.001Z</time></trkpt><trkpt lat="45.596928773778615" lon="10.517502272872356"><ele>83.0</ele><time>2026-04-06T12:24:36.001Z</time></trkpt><trkpt lat="45.59698845982433" lon="10.51744196518741"><ele>84.0</ele><time>2026-04-06T12:24:37.001Z</time></trkpt><trkpt lat="45.59706264557151" lon="10.517415016768158"><ele>81.60000000000001</ele><time>2026-04-06T12:24:38.001Z</time></trkpt><trkpt lat="45.59714715268614" lon="10.51743026125728"><ele>79.2</ele><time>2026-04-06T12:24:39.001Z</time></trkpt><trkpt lat="45.59722768983363" lon="10.517481774665102"><ele>76.80000000000001</ele><time>2026-04-06T12:24:40.001Z</time></trkpt><trkpt lat="45.59729188832822" lon="10.517572244003127"><ele>74.4</ele><time>2026-04-06T12:24:41.001Z</time></trkpt><trkpt lat="45.597337260912184" lon="10.517699052574264"><ele>72.0</ele><time>2026-04-06T12:24:42.001Z</time></trkpt><trkpt lat="45.5973704244058" lon="10.51784458419167"><ele>72.25</ele><time>2026-04-06T12:24:43.001Z</time></trkpt><trkpt lat="45.597408625098595" lon="10.518000785198263"><ele>72.5</ele><time>2026-04-06T12:24:44.001Z</time></trkpt><trkpt lat="45.597454558730405" lon="10.518164746942375"><ele>72.75</ele><time>2026-04-06T12:24:45.001Z</time></trkpt><trkpt lat="45.59750666578512" lon="10.518328444597785"><ele>73.0</ele><time>2026-04-06T12:24:46.001Z</time></trkpt><trkpt lat="45.59755181681439" lon="10.518494778571508"><ele>73.0</ele><time>2026-04-06T12:24:47.001Z</time></trkpt><trkpt lat="45.597587204840686" lon="10.518639389023074"><ele>73.0</ele><time>2026-04-06T12:24:48.001Z</time></trkpt><trkpt lat="45.59761699265355" lon="10.518756036484193"><ele>73.0</ele><time>2026-04-06T12:24:49.001Z</time></trkpt><trkpt lat="45.59764098288154" lon="10.518851628669491"><ele>73.0</ele><time>2026-04-06T12:24:50.001Z</time></trkpt><trkpt lat="45.59768561441105" lon="10.519012123991423"><ele>73.0</ele><time>2026-04-06T12:24:52.001Z</time></trkpt><trkpt lat="45.5977110155019" lon="10.519127868719073"><ele>72.6</ele><time>2026-04-06T12:24:54.001Z</time></trkpt><trkpt lat="45.597747501532915" lon="10.519202467541803"><ele>72.19999999999999</ele><time>2026-04-06T12:24:56.001Z</time></trkpt><trkpt lat="45.597819897403554" lon="10.519233791652027"><ele>71.8</ele><time>2026-04-06T12:24:58Z</time></trkpt><trkpt lat="45.597927281104255" lon="10.51918537358202"><ele>71.39999999999999</ele><time>2026-04-06T12:25:00Z</time></trkpt><trkpt lat="45.59798718769132" lon="10.519151501207508"><ele>71.0</ele><time>2026-04-06T12:25:01Z</time></trkpt><trkpt lat="45.59811437464584" lon="10.51908648193932"><ele>71.0</ele><time>2026-04-06T12:25:03Z</time></trkpt><trkpt lat="45.59819527867201" lon="10.519045884277922"><ele>71.0</ele><time>2026-04-06T12:25:04Z</time></trkpt><trkpt lat="45.59828631343858" lon="10.518997821464694"><ele>71.0</ele><time>2026-04-06T12:25:05Z</time></trkpt><trkpt lat="45.59840096871625" lon="10.518974815043453"><ele>71.0</ele><time>2026-04-06T12:25:06Z</time></trkpt><trkpt lat="45.598517562601415" lon="10.518930302513212"><ele>71.0</ele><time>2026-04-06T12:25:07Z</time></trkpt><trkpt lat="45.598634146116844" lon="10.518873534856459"><ele>70.2</ele><time>2026-04-06T12:25:08Z</time></trkpt><trkpt lat="45.59874631152211" lon="10.518839368414428"><ele>69.39999999999999</ele><time>2026-04-06T12:25:09Z</time></trkpt><trkpt lat="45.59885325769665" lon="10.518800919663933"><ele>68.6</ele><time>2026-04-06T12:25:10Z</time></trkpt><trkpt lat="45.59895782199362" lon="10.518762699342792"><ele>67.8</ele><time>2026-04-06T12:25:11Z</time></trkpt><trkpt lat="45.59906259876104" lon="10.518731954859215"><ele>67.0</ele><time>2026-04-06T12:25:12Z</time></trkpt><trkpt lat="45.5991711130113" lon="10.518712837816622"><ele>67.0</ele><time>2026-04-06T12:25:13Z</time></trkpt><trkpt lat="45.59927978767492" lon="10.518700932728137"><ele>67.0</ele><time>2026-04-06T12:25:14Z</time></trkpt><trkpt lat="45.59938309278399" lon="10.51868995795269"><ele>67.0</ele><time>2026-04-06T12:25:15Z</time></trkpt><trkpt lat="45.59947568970195" lon="10.518676343368108"><ele>67.0</ele><time>2026-04-06T12:25:16Z</time></trkpt><trkpt lat="45.59956772537438" lon="10.518663174434506"><ele>67.0</ele><time>2026-04-06T12:25:17Z</time></trkpt><trkpt lat="45.59966392212381" lon="10.518663597944782"><ele>67.0</ele><time>2026-04-06T12:25:18Z</time></trkpt><trkpt lat="45.599761235676134" lon="10.518682920180115"><ele>67.0</ele><time>2026-04-06T12:25:19Z</time></trkpt><trkpt lat="45.59985620997405" lon="10.518723647544968"><ele>67.0</ele><time>2026-04-06T12:25:20Z</time></trkpt><trkpt lat="45.599954336336516" lon="10.51877094218545"><ele>67.0</ele><time>2026-04-06T12:25:21Z</time></trkpt><trkpt lat="45.60005609652825" lon="10.518816738937183"><ele>67.0</ele><time>2026-04-06T12:25:22Z</time></trkpt><trkpt lat="45.60016015578148" lon="10.518863572538756"><ele>67.0</ele><time>2026-04-06T12:25:23Z</time></trkpt><trkpt lat="45.600261136639666" lon="10.51891344737203"><ele>67.0</ele><time>2026-04-06T12:25:24Z</time></trkpt><trkpt lat="45.600368720131776" lon="10.518960883006484"><ele>67.0</ele><time>2026-04-06T12:25:25Z</time></trkpt><trkpt lat="45.60047453258944" lon="10.51901111135868"><ele>67.0</ele><time>2026-04-06T12:25:26Z</time></trkpt><trkpt lat="45.60057460653394" lon="10.519056504301089"><ele>67.0</ele><time>2026-04-06T12:25:27Z</time></trkpt><trkpt lat="45.60067450626627" lon="10.519104032281508"><ele>67.2</ele><time>2026-04-06T12:25:28Z</time></trkpt><trkpt lat="45.60077311240138" lon="10.51914968588121"><ele>67.4</ele><time>2026-04-06T12:25:29Z</time></trkpt><trkpt lat="45.600869551858004" lon="10.519198134599774"><ele>67.6</ele><time>2026-04-06T12:25:30Z</time></trkpt><trkpt lat="45.60096705957906" lon="10.519246443298586"><ele>67.8</ele><time>2026-04-06T12:25:31Z</time></trkpt><trkpt lat="45.60106183410147" lon="10.51928810730375"><ele>68.0</ele><time>2026-04-06T12:25:32Z</time></trkpt><trkpt lat="45.60115630039891" lon="10.519328963272304"><ele>68.16666666666667</ele><time>2026-04-06T12:25:33Z</time></trkpt><trkpt lat="45.60124796282749" lon="10.519369379588015"><ele>68.33333333333334</ele><time>2026-04-06T12:25:34Z</time></trkpt><trkpt lat="45.601337017209616" lon="10.51941122666013"><ele>68.5</ele><time>2026-04-06T12:25:35Z</time></trkpt><trkpt lat="45.60141898387193" lon="10.519449244069847"><ele>68.66666666666667</ele><time>2026-04-06T12:25:36Z</time></trkpt><trkpt lat="45.60149494261394" lon="10.519485513665552"><ele>68.83333333333333</ele><time>2026-04-06T12:25:37Z</time></trkpt><trkpt lat="45.60156647795153" lon="10.519520371596942"><ele>69.0</ele><time>2026-04-06T12:25:38Z</time></trkpt><trkpt lat="45.601635923922494" lon="10.519553174500352"><ele>69.0</ele><time>2026-04-06T12:25:39Z</time></trkpt><trkpt lat="45.60171217701836" lon="10.519566262859472"><ele>69.0</ele><time>2026-04-06T12:25:40Z</time></trkpt><trkpt lat="45.601789524995" lon="10.519566405674853"><ele>69.0</ele><time>2026-04-06T12:25:41Z</time></trkpt><trkpt lat="45.60186807636562" lon="10.519553997537377"><ele>69.0</ele><time>2026-04-06T12:25:42Z</time></trkpt><trkpt lat="45.601950078033624" lon="10.519536103896327"><ele>69.0</ele><time>2026-04-06T12:25:43Z</time></trkpt><trkpt lat="45.6020310307489" lon="10.519512259181766"><ele>69.0</ele><time>2026-04-06T12:25:44Z</time></trkpt><trkpt lat="45.602111315741546" lon="10.519495227320935"><ele>69.0</ele><time>2026-04-06T12:25:45Z</time></trkpt><trkpt lat="45.60219437567487" lon="10.519485598538559"><ele>69.0</ele><time>2026-04-06T12:25:46Z</time></trkpt><trkpt lat="45.60227512761908" lon="10.519476804964059"><ele>69.0</ele><time>2026-04-06T12:25:47Z</time></trkpt><trkpt lat="45.60235055665232" lon="10.519466713835193"><ele>69.0</ele><time>2026-04-06T12:25:48Z</time></trkpt><trkpt lat="45.602422615977716" lon="10.519456984708482"><ele>69.0</ele><time>2026-04-06T12:25:49Z</time></trkpt><trkpt lat="45.60248788903467" lon="10.51944387980514"><ele>69.0</ele><time>2026-04-06T12:25:50Z</time></trkpt><trkpt lat="45.60258671560279" lon="10.519419968939463"><ele>69.0</ele><time>2026-04-06T12:25:52Z</time></trkpt><trkpt lat="45.60266066704459" lon="10.519397903613736"><ele>69.0</ele><time>2026-04-06T12:25:54Z</time></trkpt><trkpt lat="45.60273716375923" lon="10.519374911296639"><ele>69.0</ele><time>2026-04-06T12:25:56Z</time></trkpt><trkpt lat="45.60284032651873" lon="10.519352118468664"><ele>69.0</ele><time>2026-04-06T12:25:58Z</time></trkpt><trkpt lat="45.602947906239734" lon="10.51935331227566"><ele>69.0</ele><time>2026-04-06T12:26:00Z</time></trkpt><trkpt lat="45.60306525121429" lon="10.519362226713124"><ele>69.33333333333333</ele><time>2026-04-06T12:26:02Z</time></trkpt><trkpt lat="45.603156349350584" lon="10.519382783861953"><ele>69.66666666666667</ele><time>2026-04-06T12:26:04Z</time></trkpt><trkpt lat="45.60321956792055" lon="10.519404382556665"><ele>70.0</ele><time>2026-04-06T12:26:07Z</time></trkpt><trkpt lat="45.60329040713931" lon="10.519431586929274"><ele>70.33333333333334</ele><time>2026-04-06T12:26:13Z</time></trkpt><trkpt lat="45.60337959096407" lon="10.519452356196307"><ele>70.66666666666667</ele><time>2026-04-06T12:26:16Z</time></trkpt><trkpt lat="45.60347883558528" lon="10.519476984998558"><ele>71.0</ele><time>2026-04-06T12:26:18Z</time></trkpt><trkpt lat="45.603590545828624" lon="10.519511141167625"><ele>71.0</ele><time>2026-04-06T12:26:20Z</time></trkpt><trkpt lat="45.60365243606739" lon="10.519529404844649"><ele>71.0</ele><time>2026-04-06T12:26:21.001Z</time></trkpt><trkpt lat="45.60371278125667" lon="10.519558239675364"><ele>71.0</ele><time>2026-04-06T12:26:22.001Z</time></trkpt><trkpt lat="45.60379857212387" lon="10.519596843352248"><ele>71.0</ele><time>2026-04-06T12:26:24.001Z</time></trkpt><trkpt lat="45.60387618328704" lon="10.519612797863669"><ele>71.0</ele><time>2026-04-06T12:26:26.001Z</time></trkpt><trkpt lat="45.60394443385529" lon="10.519631208116653"><ele>71.0</ele><time>2026-04-06T12:26:28.001Z</time></trkpt><trkpt lat="45.6040265831987" lon="10.519648192001899"><ele>71.0</ele><time>2026-04-06T12:26:30.001Z</time></trkpt><trkpt lat="45.604113211253704" lon="10.519677000311956"><ele>71.0</ele><time>2026-04-06T12:26:32.001Z</time></trkpt><trkpt lat="45.604199469864135" lon="10.519697841019726"><ele>71.0</ele><time>2026-04-06T12:26:34.001Z</time></trkpt><trkpt lat="45.60429343695542" lon="10.519705671944369"><ele>71.0</ele><time>2026-04-06T12:26:36.001Z</time></trkpt><trkpt lat="45.60438817594016" lon="10.519748521465571"><ele>71.0</ele><time>2026-04-06T12:26:38.001Z</time></trkpt><trkpt lat="45.60445261173183" lon="10.51976383437445"><ele>71.0</ele><time>2026-04-06T12:26:40.001Z</time></trkpt><trkpt lat="45.60454048035551" lon="10.519777280183789"><ele>71.0</ele><time>2026-04-06T12:26:42.001Z</time></trkpt><trkpt lat="45.604602638147554" lon="10.519795206665236"><ele>71.0</ele><time>2026-04-06T12:26:43.001Z</time></trkpt><trkpt lat="45.60466695812762" lon="10.519815306212596"><ele>71.0</ele><time>2026-04-06T12:26:44.001Z</time></trkpt><trkpt lat="45.60473533291695" lon="10.519839394319868"><ele>71.0</ele><time>2026-04-06T12:26:45.001Z</time></trkpt><trkpt lat="45.60480135641327" lon="10.519866569475356"><ele>71.0</ele><time>2026-04-06T12:26:46.001Z</time></trkpt><trkpt lat="45.60486555191845" lon="10.519899696670489"><ele>71.0</ele><time>2026-04-06T12:26:47.001Z</time></trkpt><trkpt lat="45.60495628151571" lon="10.519979534458034"><ele>71.0</ele><time>2026-04-06T12:26:49.001Z</time></trkpt><trkpt lat="45.60504777507407" lon="10.520071859733221"><ele>71.0</ele><time>2026-04-06T12:26:51.001Z</time></trkpt><trkpt lat="45.60512555202679" lon="10.520194497148834"><ele>71.0</ele><time>2026-04-06T12:26:53.001Z</time></trkpt><trkpt lat="45.605176173792756" lon="10.520313143600786"><ele>71.0</ele><time>2026-04-06T12:26:55.001Z</time></trkpt><trkpt lat="45.605221809567496" lon="10.520451815055418"><ele>71.0</ele><time>2026-04-06T12:26:57.001Z</time></trkpt><trkpt lat="45.60524770104935" lon="10.520534910070824"><ele>71.0</ele><time>2026-04-06T12:26:58.001Z</time></trkpt><trkpt lat="45.605273350169774" lon="10.520617612678947"><ele>71.0</ele><time>2026-04-06T12:26:59.001Z</time></trkpt><trkpt lat="45.605296196567636" lon="10.52070427341376"><ele>71.0</ele><time>2026-04-06T12:27:00.001Z</time></trkpt><trkpt lat="45.60531369641451" lon="10.52079165734774"><ele>71.0</ele><time>2026-04-06T12:27:01.001Z</time></trkpt><trkpt lat="45.605349288275534" lon="10.520945284490477"><ele>71.0</ele><time>2026-04-06T12:27:03.001Z</time></trkpt><trkpt lat="45.60537936540238" lon="10.521096997771636"><ele>71.0</ele><time>2026-04-06T12:27:05Z</time></trkpt><trkpt lat="45.60539354196992" lon="10.521185959655401"><ele>71.0</ele><time>2026-04-06T12:27:07Z</time></trkpt><trkpt lat="45.60540380885409" lon="10.521295757371913"><ele>71.0</ele><time>2026-04-06T12:27:10Z</time></trkpt><trkpt lat="45.60540448412835" lon="10.521386419752968"><ele>71.83333333333334</ele><time>2026-04-06T12:27:12Z</time></trkpt><trkpt lat="45.60540162069536" lon="10.52148898441788"><ele>72.66666666666667</ele><time>2026-04-06T12:27:14Z</time></trkpt><trkpt lat="45.60540179781301" lon="10.521580682616955"><ele>73.5</ele><time>2026-04-06T12:27:16Z</time></trkpt><trkpt lat="45.605402562911955" lon="10.52169967660618"><ele>74.33333333333333</ele><time>2026-04-06T12:27:19Z</time></trkpt><trkpt lat="45.60539942154816" lon="10.521832902792223"><ele>75.16666666666666</ele><time>2026-04-06T12:27:22Z</time></trkpt><trkpt lat="45.605401611698866" lon="10.521950382624548"><ele>76.0</ele><time>2026-04-06T12:27:25Z</time></trkpt><trkpt lat="45.60540174188543" lon="10.522043458478333"><ele>75.5</ele><time>2026-04-06T12:27:28Z</time></trkpt><trkpt lat="45.605411654009714" lon="10.522134679047168"><ele>75.0</ele><time>2026-04-06T12:27:30Z</time></trkpt><trkpt lat="45.60542738938247" lon="10.52227655283359"><ele>74.5</ele><time>2026-04-06T12:27:32Z</time></trkpt><trkpt lat="45.605446451074585" lon="10.522426959250408"><ele>74.0</ele><time>2026-04-06T12:27:34Z</time></trkpt><trkpt lat="45.6054778776082" lon="10.52255681840559"><ele>73.5</ele><time>2026-04-06T12:27:36Z</time></trkpt><trkpt lat="45.60550410639756" lon="10.522647748942022"><ele>73.0</ele><time>2026-04-06T12:27:38Z</time></trkpt><trkpt lat="45.6055468537057" lon="10.5227203521321"><ele>73.0</ele><time>2026-04-06T12:27:42Z</time></trkpt><trkpt lat="45.60559133923046" lon="10.522802162823197"><ele>73.0</ele><time>2026-04-06T12:27:47Z</time></trkpt><trkpt lat="45.605633999532095" lon="10.522888260393646"><ele>73.0</ele><time>2026-04-06T12:27:53Z</time></trkpt><trkpt lat="45.605704882140635" lon="10.522992443264753"><ele>73.0</ele><time>2026-04-06T12:27:55Z</time></trkpt><trkpt lat="45.605761379180606" lon="10.523062476207697"><ele>73.0</ele><time>2026-04-06T12:27:56Z</time></trkpt><trkpt lat="45.60581799237351" lon="10.52313224973552"><ele>73.0</ele><time>2026-04-06T12:27:57Z</time></trkpt><trkpt lat="45.605872618593914" lon="10.523187009304085"><ele>73.4</ele><time>2026-04-06T12:27:58Z</time></trkpt><trkpt lat="45.60593193935676" lon="10.523234039024148"><ele>73.8</ele><time>2026-04-06T12:27:59Z</time></trkpt><trkpt lat="45.60604678574241" lon="10.523240484622477"><ele>74.2</ele><time>2026-04-06T12:28:01Z</time></trkpt><trkpt lat="45.60615846014324" lon="10.523121294275375"><ele>74.6</ele><time>2026-04-06T12:28:03Z</time></trkpt><trkpt lat="45.60620836958133" lon="10.523054477592767"><ele>75.0</ele><time>2026-04-06T12:28:04Z</time></trkpt><trkpt lat="45.60630599864696" lon="10.522938436111597"><ele>74.57142857142857</ele><time>2026-04-06T12:28:06Z</time></trkpt><trkpt lat="45.60636334368137" lon="10.522863296832359"><ele>74.14285714285714</ele><time>2026-04-06T12:28:07Z</time></trkpt><trkpt lat="45.60641054521393" lon="10.52280361985126"><ele>73.71428571428572</ele><time>2026-04-06T12:28:08.001Z</time></trkpt><trkpt lat="45.6064573798371" lon="10.522730139089731"><ele>73.28571428571428</ele><time>2026-04-06T12:28:09.001Z</time></trkpt><trkpt lat="45.606521150057176" lon="10.522662909452828"><ele>72.85714285714286</ele><time>2026-04-06T12:28:10.001Z</time></trkpt><trkpt lat="45.60658297984655" lon="10.522613388335731"><ele>72.42857142857143</ele><time>2026-04-06T12:28:11.001Z</time></trkpt><trkpt lat="45.60663257525997" lon="10.52252106214004"><ele>72.0</ele><time>2026-04-06T12:28:12.001Z</time></trkpt><trkpt lat="45.60668957289232" lon="10.522448169157522"><ele>72.0</ele><time>2026-04-06T12:28:13.001Z</time></trkpt><trkpt lat="45.606743602202876" lon="10.522385281692829"><ele>72.0</ele><time>2026-04-06T12:28:14.001Z</time></trkpt><trkpt lat="45.606823466030754" lon="10.522298791596931"><ele>72.0</ele><time>2026-04-06T12:28:16.001Z</time></trkpt><trkpt lat="45.60692447959521" lon="10.522176006980335"><ele>72.0</ele><time>2026-04-06T12:28:18.001Z</time></trkpt><trkpt lat="45.60698150611507" lon="10.522107652434881"><ele>72.0</ele><time>2026-04-06T12:28:19.001Z</time></trkpt><trkpt lat="45.60709011417255" lon="10.522045252034848"><ele>74.2</ele><time>2026-04-06T12:28:21.001Z</time></trkpt><trkpt lat="45.607165759048264" lon="10.522061165660931"><ele>76.4</ele><time>2026-04-06T12:28:23.001Z</time></trkpt><trkpt lat="45.60717163847664" lon="10.52234813385654"><ele>78.60000000000001</ele><time>2026-04-06T12:28:24.001Z</time></trkpt><trkpt lat="45.60717671603574" lon="10.522466399165241"><ele>80.80000000000001</ele><time>2026-04-06T12:28:25.001Z</time></trkpt><trkpt lat="45.60719585871046" lon="10.522590421957153"><ele>83.0</ele><time>2026-04-06T12:28:26.001Z</time></trkpt><trkpt lat="45.607224847933075" lon="10.52271558810357"><ele>83.0</ele><time>2026-04-06T12:28:27.001Z</time></trkpt><trkpt lat="45.607264697608706" lon="10.522845758667511"><ele>83.0</ele><time>2026-04-06T12:28:28.001Z</time></trkpt><trkpt lat="45.607302987310334" lon="10.522977354606539"><ele>83.0</ele><time>2026-04-06T12:28:29.001Z</time></trkpt><trkpt lat="45.60731149201357" lon="10.523125074113143"><ele>83.0</ele><time>2026-04-06T12:28:30.001Z</time></trkpt><trkpt lat="45.60732329730661" lon="10.523272726329095"><ele>83.0</ele><time>2026-04-06T12:28:31.001Z</time></trkpt><trkpt lat="45.607344162313645" lon="10.523421719930916"><ele>82.60000000000001</ele><time>2026-04-06T12:28:32.001Z</time></trkpt><trkpt lat="45.60735382449369" lon="10.523568523830859"><ele>82.2</ele><time>2026-04-06T12:28:33.001Z</time></trkpt><trkpt lat="45.60736723482801" lon="10.52372068064835"><ele>81.8</ele><time>2026-04-06T12:28:34.001Z</time></trkpt><trkpt lat="45.60738046970207" lon="10.52387090547314"><ele>81.4</ele><time>2026-04-06T12:28:35.001Z</time></trkpt><trkpt lat="45.6073917511492" lon="10.524029051530066"><ele>81.0</ele><time>2026-04-06T12:28:36.001Z</time></trkpt><trkpt lat="45.607410581747246" lon="10.524175953968433"><ele>80.83333333333333</ele><time>2026-04-06T12:28:37.001Z</time></trkpt><trkpt lat="45.60742137215458" lon="10.52430973896169"><ele>80.66666666666667</ele><time>2026-04-06T12:28:38.001Z</time></trkpt><trkpt lat="45.60742739451611" lon="10.52443721914507"><ele>80.5</ele><time>2026-04-06T12:28:39.001Z</time></trkpt><trkpt lat="45.607427153368846" lon="10.524542457492599"><ele>80.33333333333334</ele><time>2026-04-06T12:28:40.001Z</time></trkpt><trkpt lat="45.60742004619119" lon="10.524652771183627"><ele>80.16666666666667</ele><time>2026-04-06T12:28:41.001Z</time></trkpt><trkpt lat="45.60741339205501" lon="10.524767103544505"><ele>80.0</ele><time>2026-04-06T12:28:42.001Z</time></trkpt><trkpt lat="45.60741838562421" lon="10.524901393383779"><ele>80.0</ele><time>2026-04-06T12:28:43.001Z</time></trkpt><trkpt lat="45.60742736619501" lon="10.525041301406892"><ele>80.0</ele><time>2026-04-06T12:28:44.001Z</time></trkpt><trkpt lat="45.607421779847456" lon="10.52519388461891"><ele>80.0</ele><time>2026-04-06T12:28:45.001Z</time></trkpt><trkpt lat="45.6074093723389" lon="10.525342010943062"><ele>80.0</ele><time>2026-04-06T12:28:46.001Z</time></trkpt><trkpt lat="45.60739685098175" lon="10.525490275141374"><ele>80.0</ele><time>2026-04-06T12:28:47.001Z</time></trkpt><trkpt lat="45.60738456590527" lon="10.525646212420014"><ele>80.25</ele><time>2026-04-06T12:28:48.001Z</time></trkpt><trkpt lat="45.607374734119546" lon="10.52581007294164"><ele>80.5</ele><time>2026-04-06T12:28:49.001Z</time></trkpt><trkpt lat="45.60736454904509" lon="10.52597525506409"><ele>80.75</ele><time>2026-04-06T12:28:50.001Z</time></trkpt><trkpt lat="45.60735992448727" lon="10.526143412043387"><ele>81.0</ele><time>2026-04-06T12:28:51.001Z</time></trkpt><trkpt lat="45.60736761024845" lon="10.526311718436425"><ele>81.25</ele><time>2026-04-06T12:28:52.001Z</time></trkpt><trkpt lat="45.60738559253244" lon="10.526476046750762"><ele>81.5</ele><time>2026-04-06T12:28:53.001Z</time></trkpt><trkpt lat="45.60741447630052" lon="10.526637075014827"><ele>81.75</ele><time>2026-04-06T12:28:54.001Z</time></trkpt><trkpt lat="45.607443514668105" lon="10.526799145476382"><ele>82.0</ele><time>2026-04-06T12:28:55.001Z</time></trkpt><trkpt lat="45.60747679385911" lon="10.526961310207371"><ele>82.0</ele><time>2026-04-06T12:28:56.001Z</time></trkpt><trkpt lat="45.60750696848307" lon="10.527120904658393"><ele>82.0</ele><time>2026-04-06T12:28:57.001Z</time></trkpt><trkpt lat="45.60754164069088" lon="10.527285806706365"><ele>82.0</ele><time>2026-04-06T12:28:58.001Z</time></trkpt><trkpt lat="45.60757168455574" lon="10.527450581089733"><ele>82.0</ele><time>2026-04-06T12:28:59.001Z</time></trkpt><trkpt lat="45.607605542693726" lon="10.527609615761115"><ele>82.0</ele><time>2026-04-06T12:29:00.001Z</time></trkpt><trkpt lat="45.60764226070886" lon="10.527772896740192"><ele>82.0</ele><time>2026-04-06T12:29:01.001Z</time></trkpt><trkpt lat="45.60768746760967" lon="10.52793718469443"><ele>82.0</ele><time>2026-04-06T12:29:02.001Z</time></trkpt><trkpt lat="45.607731653745795" lon="10.528100444709086"><ele>82.0</ele><time>2026-04-06T12:29:03.001Z</time></trkpt><trkpt lat="45.60777700102631" lon="10.528266091923475"><ele>81.25</ele><time>2026-04-06T12:29:04.001Z</time></trkpt><trkpt lat="45.60782421021015" lon="10.528429994875456"><ele>80.5</ele><time>2026-04-06T12:29:05.001Z</time></trkpt><trkpt lat="45.60786880504632" lon="10.528601478612176"><ele>79.75</ele><time>2026-04-06T12:29:06.001Z</time></trkpt><trkpt lat="45.60789159009641" lon="10.528766875076625"><ele>79.0</ele><time>2026-04-06T12:29:07.001Z</time></trkpt><trkpt lat="45.607906890736" lon="10.52891914861651"><ele>81.5</ele><time>2026-04-06T12:29:08.001Z</time></trkpt><trkpt lat="45.607911774741886" lon="10.529078973844799"><ele>84.0</ele><time>2026-04-06T12:29:09Z</time></trkpt><trkpt lat="45.60790597917695" lon="10.52924274633243"><ele>86.5</ele><time>2026-04-06T12:29:10Z</time></trkpt><trkpt lat="45.60791423715986" lon="10.529413860022881"><ele>89.0</ele><time>2026-04-06T12:29:11Z</time></trkpt><trkpt lat="45.607884623750586" lon="10.52958059422205"><ele>89.0</ele><time>2026-04-06T12:29:12Z</time></trkpt><trkpt lat="45.60787187108683" lon="10.529737240851755"><ele>89.0</ele><time>2026-04-06T12:29:13Z</time></trkpt><trkpt lat="45.60785727673021" lon="10.529884276817993"><ele>89.0</ele><time>2026-04-06T12:29:14Z</time></trkpt><trkpt lat="45.60783797194973" lon="10.53002928092489"><ele>89.0</ele><time>2026-04-06T12:29:15Z</time></trkpt><trkpt lat="45.60782275297797" lon="10.530180003257446"><ele>89.0</ele><time>2026-04-06T12:29:16Z</time></trkpt><trkpt lat="45.60782472279419" lon="10.530337895633124"><ele>87.0</ele><time>2026-04-06T12:29:17Z</time></trkpt><trkpt lat="45.60781355820163" lon="10.530496395066285"><ele>85.0</ele><time>2026-04-06T12:29:18Z</time></trkpt><trkpt lat="45.60778916088935" lon="10.530662115483727"><ele>83.0</ele><time>2026-04-06T12:29:19Z</time></trkpt><trkpt lat="45.60777796505408" lon="10.530824949735226"><ele>81.0</ele><time>2026-04-06T12:29:20Z</time></trkpt><trkpt lat="45.607767103437816" lon="10.530982923022549"><ele>81.0</ele><time>2026-04-06T12:29:21Z</time></trkpt><trkpt lat="45.607758519219615" lon="10.531126898633874"><ele>81.0</ele><time>2026-04-06T12:29:22Z</time></trkpt><trkpt lat="45.607770770427074" lon="10.531264484217823"><ele>81.0</ele><time>2026-04-06T12:29:23Z</time></trkpt><trkpt lat="45.607769923289425" lon="10.53138515123451"><ele>81.0</ele><time>2026-04-06T12:29:24Z</time></trkpt><trkpt lat="45.6077542569049" lon="10.531512536698306"><ele>81.0</ele><time>2026-04-06T12:29:25Z</time></trkpt><trkpt lat="45.60775475151153" lon="10.531644518569793"><ele>80.83333333333333</ele><time>2026-04-06T12:29:26Z</time></trkpt><trkpt lat="45.60775527116559" lon="10.53178318427724"><ele>80.66666666666667</ele><time>2026-04-06T12:29:27Z</time></trkpt><trkpt lat="45.60775576588554" lon="10.531915196498064"><ele>80.5</ele><time>2026-04-06T12:29:28Z</time></trkpt><trkpt lat="45.60775575780958" lon="10.532031609194666"><ele>80.33333333333334</ele><time>2026-04-06T12:29:29Z</time></trkpt><trkpt lat="45.607755001041255" lon="10.53213200649746"><ele>80.16666666666667</ele><time>2026-04-06T12:29:30Z</time></trkpt><trkpt lat="45.60775034083407" lon="10.532232527219787"><ele>80.0</ele><time>2026-04-06T12:29:31Z</time></trkpt><trkpt lat="45.607744254232045" lon="10.532350561897918"><ele>79.5</ele><time>2026-04-06T12:29:32Z</time></trkpt><trkpt lat="45.60774309576193" lon="10.532474041682345"><ele>79.0</ele><time>2026-04-06T12:29:33Z</time></trkpt><trkpt lat="45.60770792289071" lon="10.532586813991031"><ele>78.5</ele><time>2026-04-06T12:29:34Z</time></trkpt><trkpt lat="45.607665568666185" lon="10.532687949100913"><ele>78.0</ele><time>2026-04-06T12:29:35Z</time></trkpt><trkpt lat="45.607620882667774" lon="10.53277817161046"><ele>77.5</ele><time>2026-04-06T12:29:36Z</time></trkpt><trkpt lat="45.60757724975014" lon="10.53285990426871"><ele>77.0</ele><time>2026-04-06T12:29:37Z</time></trkpt><trkpt lat="45.60749327775113" lon="10.532961525606362"><ele>76.5</ele><time>2026-04-06T12:29:39Z</time></trkpt><trkpt lat="45.60752280358254" lon="10.533077715153883"><ele>76.0</ele><time>2026-04-06T12:29:41Z</time></trkpt><trkpt lat="45.607600151452154" lon="10.533086584649816"><ele>75.5</ele><time>2026-04-06T12:29:43Z</time></trkpt><trkpt lat="45.607628067115" lon="10.532966649885779"><ele>75.0</ele><time>2026-04-06T12:29:45Z</time></trkpt><trkpt lat="45.607551315384484" lon="10.532917065808181"><ele>74.5</ele><time>2026-04-06T12:29:47Z</time></trkpt><trkpt lat="45.607489255520285" lon="10.532979183145708"><ele>74.0</ele><time>2026-04-06T12:29:49Z</time></trkpt><trkpt lat="45.6074439623551" lon="10.5331103295892"><ele>74.0</ele><time>2026-04-06T12:29:52Z</time></trkpt><trkpt lat="45.6073289686479" lon="10.533104841254216"><ele>74.0</ele><time>2026-04-06T12:29:53Z</time></trkpt><trkpt lat="45.60726367474958" lon="10.533192830267383"><ele>74.0</ele><time>2026-04-06T12:29:55Z</time></trkpt><trkpt lat="45.60717230395214" lon="10.533293914837502"><ele>74.0</ele><time>2026-04-06T12:29:57Z</time></trkpt><trkpt lat="45.60707459358816" lon="10.533360044556574"><ele>74.0</ele><time>2026-04-06T12:29:59Z</time></trkpt><trkpt lat="45.60699244865202" lon="10.533434384469263"><ele>67.0</ele><time>2026-04-06T12:30:01Z</time></trkpt><trkpt lat="45.60692130201871" lon="10.533501185871915"><ele>67.0</ele><time>2026-04-06T12:30:03Z</time></trkpt><trkpt lat="45.60686145577924" lon="10.533538980218314"><ele>67.0</ele><time>2026-04-06T12:30:05Z</time></trkpt></trkseg><trkseg><trkpt lat="45.60693888244226" lon="10.533509868154576"><ele>68.0</ele><time>2026-04-06T12:40:39.897Z</time></trkpt><trkpt lat="45.606999663558845" lon="10.533468559852274"><ele>69.0</ele><time>2026-04-06T12:40:40.897Z</time></trkpt><trkpt lat="45.60706292985136" lon="10.533419729928731"><ele>70.0</ele><time>2026-04-06T12:40:41.897Z</time></trkpt><trkpt lat="45.607126005553845" lon="10.533360338264803"><ele>71.0</ele><time>2026-04-06T12:40:42.897Z</time></trkpt><trkpt lat="45.60719514169399" lon="10.533293462546556"><ele>72.0</ele><time>2026-04-06T12:40:43.897Z</time></trkpt><trkpt lat="45.607250972806284" lon="10.533239190452719"><ele>73.0</ele><time>2026-04-06T12:40:44.898Z</time></trkpt><trkpt lat="45.60731546295415" lon="10.53318196881947"><ele>74.0</ele><time>2026-04-06T12:40:46.002Z</time></trkpt><trkpt lat="45.607370575064984" lon="10.533132091072467"><ele>74.0</ele><time>2026-04-06T12:40:47.002Z</time></trkpt><trkpt lat="45.60742731804624" lon="10.53308231283979"><ele>74.0</ele><time>2026-04-06T12:40:48.002Z</time></trkpt><trkpt lat="45.607509811478685" lon="10.533090404183385"><ele>74.0</ele><time>2026-04-06T12:40:51.002Z</time></trkpt><trkpt lat="45.60757997583967" lon="10.533213577059731"><ele>74.0</ele><time>2026-04-06T12:40:53.001Z</time></trkpt><trkpt lat="45.60762542387128" lon="10.533338279506525"><ele>74.0</ele><time>2026-04-06T12:40:54.001Z</time></trkpt><trkpt lat="45.60767397116172" lon="10.53344206721978"><ele>74.0</ele><time>2026-04-06T12:40:55.001Z</time></trkpt><trkpt lat="45.607722764051566" lon="10.53353626887557"><ele>74.0</ele><time>2026-04-06T12:40:56.001Z</time></trkpt><trkpt lat="45.607766956365815" lon="10.533621076149261"><ele>74.0</ele><time>2026-04-06T12:40:57.001Z</time></trkpt><trkpt lat="45.60780992347722" lon="10.533706131107559"><ele>74.0</ele><time>2026-04-06T12:40:58.001Z</time></trkpt><trkpt lat="45.60787784834061" lon="10.533828600424684"><ele>74.0</ele><time>2026-04-06T12:40:59.001Z</time></trkpt><trkpt lat="45.607944353868746" lon="10.533972304719745"><ele>74.0</ele><time>2026-04-06T12:41:00.001Z</time></trkpt><trkpt lat="45.60800528272762" lon="10.534105063250442"><ele>74.0</ele><time>2026-04-06T12:41:01.001Z</time></trkpt><trkpt lat="45.60807057444115" lon="10.534242784950786"><ele>74.0</ele><time>2026-04-06T12:41:02.001Z</time></trkpt><trkpt lat="45.60814382344137" lon="10.534364826321132"><ele>74.0</ele><time>2026-04-06T12:41:03.001Z</time></trkpt><trkpt lat="45.60822869356527" lon="10.534489990128618"><ele>74.0</ele><time>2026-04-06T12:41:04.001Z</time></trkpt><trkpt lat="45.60832732970615" lon="10.53460762472275"><ele>74.0</ele><time>2026-04-06T12:41:05.001Z</time></trkpt><trkpt lat="45.60842267528919" lon="10.534720183463305"><ele>74.0</ele><time>2026-04-06T12:41:06.001Z</time></trkpt><trkpt lat="45.608526424048854" lon="10.534826185810703"><ele>74.0</ele><time>2026-04-06T12:41:07.001Z</time></trkpt><trkpt lat="45.608641271286295" lon="10.534931179377285"><ele>74.0</ele><time>2026-04-06T12:41:08.001Z</time></trkpt><trkpt lat="45.60875282313022" lon="10.535021534524157"><ele>75.75</ele><time>2026-04-06T12:41:09.001Z</time></trkpt><trkpt lat="45.608874430902816" lon="10.53511321591535"><ele>77.5</ele><time>2026-04-06T12:41:10Z</time></trkpt><trkpt lat="45.60899569000109" lon="10.535200089379384"><ele>79.25</ele><time>2026-04-06T12:41:11Z</time></trkpt><trkpt lat="45.60910289497236" lon="10.535281738607104"><ele>81.0</ele><time>2026-04-06T12:41:12Z</time></trkpt><trkpt lat="45.60920173361585" lon="10.535371965938518"><ele>82.25</ele><time>2026-04-06T12:41:13Z</time></trkpt><trkpt lat="45.60929821757963" lon="10.535484805279895"><ele>83.5</ele><time>2026-04-06T12:41:14Z</time></trkpt><trkpt lat="45.60938867560591" lon="10.535620104982485"><ele>84.75</ele><time>2026-04-06T12:41:15Z</time></trkpt><trkpt lat="45.609476303093906" lon="10.535765328260029"><ele>86.0</ele><time>2026-04-06T12:41:16Z</time></trkpt><trkpt lat="45.609564132447424" lon="10.53591858104477"><ele>86.0</ele><time>2026-04-06T12:41:17Z</time></trkpt><trkpt lat="45.609652915635984" lon="10.536066346353143"><ele>86.0</ele><time>2026-04-06T12:41:18Z</time></trkpt><trkpt lat="45.609741126072954" lon="10.536215009207776"><ele>86.0</ele><time>2026-04-06T12:41:19Z</time></trkpt><trkpt lat="45.609828536156044" lon="10.536355860457256"><ele>86.0</ele><time>2026-04-06T12:41:20Z</time></trkpt><trkpt lat="45.60991110221764" lon="10.536497832067644"><ele>84.0</ele><time>2026-04-06T12:41:21Z</time></trkpt><trkpt lat="45.60999201026309" lon="10.536637647863051"><ele>82.0</ele><time>2026-04-06T12:41:22Z</time></trkpt><trkpt lat="45.61007155033154" lon="10.536776225941198"><ele>80.0</ele><time>2026-04-06T12:41:23Z</time></trkpt><trkpt lat="45.61014703229605" lon="10.536920028694123"><ele>78.0</ele><time>2026-04-06T12:41:24Z</time></trkpt><trkpt lat="45.61022079580148" lon="10.537072969903818"><ele>76.0</ele><time>2026-04-06T12:41:25Z</time></trkpt><trkpt lat="45.61028505487844" lon="10.537235896435071"><ele>74.0</ele><time>2026-04-06T12:41:26Z</time></trkpt><trkpt lat="45.61035599236904" lon="10.537393113916902"><ele>72.0</ele><time>2026-04-06T12:41:27Z</time></trkpt><trkpt lat="45.61041845078488" lon="10.537557109107107"><ele>70.0</ele><time>2026-04-06T12:41:28Z</time></trkpt><trkpt lat="45.61048210657836" lon="10.537721378644743"><ele>73.5</ele><time>2026-04-06T12:41:29Z</time></trkpt><trkpt lat="45.61054216347395" lon="10.537889095106536"><ele>77.0</ele><time>2026-04-06T12:41:30Z</time></trkpt><trkpt lat="45.61060387268245" lon="10.538055282681496"><ele>80.5</ele><time>2026-04-06T12:41:31Z</time></trkpt><trkpt lat="45.61066304514017" lon="10.538223909887616"><ele>84.0</ele><time>2026-04-06T12:41:32Z</time></trkpt><trkpt lat="45.61071984410959" lon="10.538390492720238"><ele>84.0</ele><time>2026-04-06T12:41:33Z</time></trkpt><trkpt lat="45.61077548123509" lon="10.538558670711614"><ele>84.0</ele><time>2026-04-06T12:41:34Z</time></trkpt><trkpt lat="45.61083563296549" lon="10.538726161541378"><ele>84.0</ele><time>2026-04-06T12:41:35Z</time></trkpt><trkpt lat="45.61089923152732" lon="10.53889762784478"><ele>84.0</ele><time>2026-04-06T12:41:36Z</time></trkpt><trkpt lat="45.61096246737855" lon="10.539070473109733"><ele>84.5</ele><time>2026-04-06T12:41:37Z</time></trkpt><trkpt lat="45.61103132341402" lon="10.539239311338356"><ele>85.0</ele><time>2026-04-06T12:41:38Z</time></trkpt><trkpt lat="45.6111044394583" lon="10.539405884619832"><ele>85.5</ele><time>2026-04-06T12:41:39Z</time></trkpt><trkpt lat="45.61118298099624" lon="10.539571338853882"><ele>86.0</ele><time>2026-04-06T12:41:40Z</time></trkpt><trkpt lat="45.61126319102737" lon="10.539736658494565"><ele>86.0</ele><time>2026-04-06T12:41:41Z</time></trkpt><trkpt lat="45.611343941784654" lon="10.539896947627566"><ele>86.0</ele><time>2026-04-06T12:41:42Z</time></trkpt><trkpt lat="45.61142337413287" lon="10.54005620777764"><ele>86.0</ele><time>2026-04-06T12:41:43Z</time></trkpt><trkpt lat="45.61150364963543" lon="10.540216669455008"><ele>86.0</ele><time>2026-04-06T12:41:44Z</time></trkpt><trkpt lat="45.61158206625072" lon="10.54037396909761"><ele>83.75</ele><time>2026-04-06T12:41:45Z</time></trkpt><trkpt lat="45.6116611864757" lon="10.540526201166188"><ele>81.5</ele><time>2026-04-06T12:41:46Z</time></trkpt><trkpt lat="45.611739086833424" lon="10.540679224334475"><ele>79.25</ele><time>2026-04-06T12:41:47Z</time></trkpt><trkpt lat="45.61181516524065" lon="10.540833897941972"><ele>77.0</ele><time>2026-04-06T12:41:48Z</time></trkpt><trkpt lat="45.61189061733513" lon="10.540986717965936"><ele>77.0</ele><time>2026-04-06T12:41:49Z</time></trkpt><trkpt lat="45.6119665384288" lon="10.541136187932302"><ele>77.0</ele><time>2026-04-06T12:41:50Z</time></trkpt><trkpt lat="45.612037810241425" lon="10.541286991855216"><ele>77.0</ele><time>2026-04-06T12:41:51Z</time></trkpt><trkpt lat="45.61210308131092" lon="10.541443700566433"><ele>77.0</ele><time>2026-04-06T12:41:52Z</time></trkpt><trkpt lat="45.612165580760426" lon="10.541598933705725"><ele>77.5</ele><time>2026-04-06T12:41:53Z</time></trkpt><trkpt lat="45.61222300221102" lon="10.541760738233407"><ele>78.0</ele><time>2026-04-06T12:41:54Z</time></trkpt><trkpt lat="45.612278264070824" lon="10.54192550530358"><ele>78.5</ele><time>2026-04-06T12:41:55Z</time></trkpt><trkpt lat="45.61233061577784" lon="10.542092789245963"><ele>79.0</ele><time>2026-04-06T12:41:56Z</time></trkpt><trkpt lat="45.61238192673934" lon="10.542257677947903"><ele>79.0</ele><time>2026-04-06T12:41:57Z</time></trkpt><trkpt lat="45.61242653670587" lon="10.542423978623113"><ele>79.0</ele><time>2026-04-06T12:41:58Z</time></trkpt><trkpt lat="45.612469541853486" lon="10.542597237821786"><ele>79.0</ele><time>2026-04-06T12:41:59Z</time></trkpt><trkpt lat="45.61250924062795" lon="10.542770406168598"><ele>79.0</ele><time>2026-04-06T12:42:00Z</time></trkpt><trkpt lat="45.61254749293952" lon="10.542943448870272"><ele>78.0</ele><time>2026-04-06T12:42:01Z</time></trkpt><trkpt lat="45.61258618904882" lon="10.543108823618953"><ele>77.0</ele><time>2026-04-06T12:42:02Z</time></trkpt><trkpt lat="45.61262578819805" lon="10.543265450003314"><ele>76.0</ele><time>2026-04-06T12:42:03Z</time></trkpt><trkpt lat="45.61266250400734" lon="10.543410035194817"><ele>75.0</ele><time>2026-04-06T12:42:04Z</time></trkpt><trkpt lat="45.612694714606725" lon="10.54352377229431"><ele>74.0</ele><time>2026-04-06T12:42:05Z</time></trkpt><trkpt lat="45.61272062221561" lon="10.543613918914472"><ele>73.0</ele><time>2026-04-06T12:42:06Z</time></trkpt><trkpt lat="45.61278396111457" lon="10.543736623978624"><ele>72.0</ele><time>2026-04-06T12:42:08Z</time></trkpt><trkpt lat="45.61282817883787" lon="10.543932984969025"><ele>71.0</ele><time>2026-04-06T12:42:10Z</time></trkpt><trkpt lat="45.61288031341159" lon="10.544065402051944"><ele>70.0</ele><time>2026-04-06T12:42:11Z</time></trkpt><trkpt lat="45.612934412564364" lon="10.544205808567941"><ele>73.75</ele><time>2026-04-06T12:42:12Z</time></trkpt><trkpt lat="45.61298946297328" lon="10.544351010162138"><ele>77.5</ele><time>2026-04-06T12:42:13Z</time></trkpt><trkpt lat="45.613045064296955" lon="10.544495939761903"><ele>81.25</ele><time>2026-04-06T12:42:14Z</time></trkpt><trkpt lat="45.6130987003831" lon="10.54464262252814"><ele>85.0</ele><time>2026-04-06T12:42:15Z</time></trkpt><trkpt lat="45.61315506165311" lon="10.544785668758747"><ele>85.0</ele><time>2026-04-06T12:42:16Z</time></trkpt><trkpt lat="45.61321113393901" lon="10.544921969002907"><ele>85.0</ele><time>2026-04-06T12:42:17Z</time></trkpt><trkpt lat="45.61326256166777" lon="10.545062410578774"><ele>85.0</ele><time>2026-04-06T12:42:18Z</time></trkpt><trkpt lat="45.61331371255499" lon="10.54520468132885"><ele>85.0</ele><time>2026-04-06T12:42:19Z</time></trkpt><trkpt lat="45.61337078700768" lon="10.545354196811305"><ele>82.75</ele><time>2026-04-06T12:42:20Z</time></trkpt><trkpt lat="45.61341057045598" lon="10.545522424334747"><ele>80.5</ele><time>2026-04-06T12:42:21Z</time></trkpt><trkpt lat="45.61344615923691" lon="10.545689204307966"><ele>78.25</ele><time>2026-04-06T12:42:22Z</time></trkpt><trkpt lat="45.613466324695594" lon="10.545854265203127"><ele>76.0</ele><time>2026-04-06T12:42:23Z</time></trkpt><trkpt lat="45.61349805946524" lon="10.546004711619515"><ele>76.0</ele><time>2026-04-06T12:42:24Z</time></trkpt><trkpt lat="45.61352997358129" lon="10.546160770787836"><ele>76.0</ele><time>2026-04-06T12:42:25Z</time></trkpt><trkpt lat="45.613561821644616" lon="10.546317716654967"><ele>76.0</ele><time>2026-04-06T12:42:26Z</time></trkpt><trkpt lat="45.6136109912782" lon="10.546474112735792"><ele>76.0</ele><time>2026-04-06T12:42:27Z</time></trkpt><trkpt lat="45.61364240136688" lon="10.546635509092294"><ele>76.75</ele><time>2026-04-06T12:42:28Z</time></trkpt><trkpt lat="45.61367640926112" lon="10.546800129792528"><ele>77.5</ele><time>2026-04-06T12:42:29Z</time></trkpt><trkpt lat="45.61371085160789" lon="10.54696211605665"><ele>78.25</ele><time>2026-04-06T12:42:30Z</time></trkpt><trkpt lat="45.61373959321055" lon="10.547120507351075"><ele>79.0</ele><time>2026-04-06T12:42:31Z</time></trkpt><trkpt lat="45.61375260215835" lon="10.54728018824181"><ele>79.0</ele><time>2026-04-06T12:42:32Z</time></trkpt><trkpt lat="45.61378130597331" lon="10.54743440721934"><ele>79.0</ele><time>2026-04-06T12:42:33Z</time></trkpt><trkpt lat="45.613810390847846" lon="10.547589454923793"><ele>79.0</ele><time>2026-04-06T12:42:34Z</time></trkpt><trkpt lat="45.61385534818374" lon="10.54774091145743"><ele>79.0</ele><time>2026-04-06T12:42:35Z</time></trkpt><trkpt lat="45.61388552445068" lon="10.547904121399585"><ele>78.0</ele><time>2026-04-06T12:42:36Z</time></trkpt><trkpt lat="45.61391419531002" lon="10.548069305638235"><ele>77.0</ele><time>2026-04-06T12:42:37Z</time></trkpt><trkpt lat="45.61394165284383" lon="10.54823647829757"><ele>76.0</ele><time>2026-04-06T12:42:38Z</time></trkpt><trkpt lat="45.613972612465794" lon="10.548393136000586"><ele>75.0</ele><time>2026-04-06T12:42:39Z</time></trkpt><trkpt lat="45.613998944193156" lon="10.548531404885606"><ele>75.0</ele><time>2026-04-06T12:42:40Z</time></trkpt><trkpt lat="45.61401903316701" lon="10.548651210737898"><ele>75.0</ele><time>2026-04-06T12:42:41Z</time></trkpt><trkpt lat="45.61403210158793" lon="10.548751232980916"><ele>75.0</ele><time>2026-04-06T12:42:42Z</time></trkpt><trkpt lat="45.61402549804807" lon="10.548896415761167"><ele>75.0</ele><time>2026-04-06T12:42:44Z</time></trkpt><trkpt lat="45.61399962193146" lon="10.548992148629205"><ele>75.0</ele><time>2026-04-06T12:42:46Z</time></trkpt><trkpt lat="45.61404075928857" lon="10.549110573664109"><ele>75.0</ele><time>2026-04-06T12:42:48.999Z</time></trkpt><trkpt lat="45.61404793161504" lon="10.54925361832287"><ele>74.6</ele><time>2026-04-06T12:45:19Z</time></trkpt><trkpt lat="45.61407400200324" lon="10.54937171288791"><ele>74.2</ele><time>2026-04-06T12:45:21Z</time></trkpt><trkpt lat="45.61411451526132" lon="10.549462767788224"><ele>73.8</ele><time>2026-04-06T12:45:23Z</time></trkpt><trkpt lat="45.61417533574871" lon="10.549580496292693"><ele>73.4</ele><time>2026-04-06T12:45:26Z</time></trkpt><trkpt lat="45.61421220323776" lon="10.549717160885693"><ele>73.0</ele><time>2026-04-06T12:45:27Z</time></trkpt><trkpt lat="45.61423630611597" lon="10.54987118474595"><ele>73.0</ele><time>2026-04-06T12:45:28Z</time></trkpt><trkpt lat="45.61426602855191" lon="10.550039502176613"><ele>73.0</ele><time>2026-04-06T12:45:29Z</time></trkpt><trkpt lat="45.61429909932813" lon="10.55021228704708"><ele>73.0</ele><time>2026-04-06T12:45:30Z</time></trkpt><trkpt lat="45.61433417207472" lon="10.55039102426137"><ele>73.0</ele><time>2026-04-06T12:45:31Z</time></trkpt><trkpt lat="45.614372933212685" lon="10.5505770202564"><ele>72.75</ele><time>2026-04-06T12:45:32Z</time></trkpt><trkpt lat="45.61441526899615" lon="10.550761938216272"><ele>72.5</ele><time>2026-04-06T12:45:33Z</time></trkpt><trkpt lat="45.61446694545687" lon="10.550944918865614"><ele>72.25</ele><time>2026-04-06T12:45:34Z</time></trkpt><trkpt lat="45.614528434378606" lon="10.551123798270506"><ele>72.0</ele><time>2026-04-06T12:45:35Z</time></trkpt><trkpt lat="45.61459492800252" lon="10.551303333780552"><ele>73.0</ele><time>2026-04-06T12:45:36Z</time></trkpt><trkpt lat="45.61466480545205" lon="10.551486470135266"><ele>74.0</ele><time>2026-04-06T12:45:37Z</time></trkpt><trkpt lat="45.614740449144236" lon="10.551670742752883"><ele>75.0</ele><time>2026-04-06T12:45:38Z</time></trkpt><trkpt lat="45.61481919873513" lon="10.551856801017625"><ele>76.0</ele><time>2026-04-06T12:45:39Z</time></trkpt><trkpt lat="45.61489554942066" lon="10.552044999878952"><ele>76.0</ele><time>2026-04-06T12:45:40Z</time></trkpt><trkpt lat="45.61497018897746" lon="10.552237512615479"><ele>76.0</ele><time>2026-04-06T12:45:41Z</time></trkpt><trkpt lat="45.61504687133378" lon="10.552430648341984"><ele>76.0</ele><time>2026-04-06T12:45:42Z</time></trkpt><trkpt lat="45.61512281579958" lon="10.552612622511285"><ele>76.0</ele><time>2026-04-06T12:45:43Z</time></trkpt><trkpt lat="45.6152020837694" lon="10.552798074288027"><ele>76.0</ele><time>2026-04-06T12:45:44Z</time></trkpt><trkpt lat="45.615273498621434" lon="10.552974931732873"><ele>76.0</ele><time>2026-04-06T12:45:45Z</time></trkpt><trkpt lat="45.61534084183151" lon="10.55315319475079"><ele>76.0</ele><time>2026-04-06T12:45:46Z</time></trkpt><trkpt lat="45.61541202603042" lon="10.553323418181193"><ele>77.25</ele><time>2026-04-06T12:45:47Z</time></trkpt><trkpt lat="45.615483907085135" lon="10.55349562778128"><ele>78.5</ele><time>2026-04-06T12:45:48Z</time></trkpt><trkpt lat="45.61555828055961" lon="10.553665800035567"><ele>79.75</ele><time>2026-04-06T12:45:49Z</time></trkpt><trkpt lat="45.61563895130972" lon="10.55383094993435"><ele>81.0</ele><time>2026-04-06T12:45:50Z</time></trkpt><trkpt lat="45.61571828803035" lon="10.553993571162533"><ele>81.0</ele><time>2026-04-06T12:45:51Z</time></trkpt><trkpt lat="45.61579685130562" lon="10.554158617556629"><ele>81.0</ele><time>2026-04-06T12:45:52Z</time></trkpt><trkpt lat="45.61587514989609" lon="10.554324723431266"><ele>81.0</ele><time>2026-04-06T12:45:53Z</time></trkpt><trkpt lat="45.61595315804327" lon="10.554492155906173"><ele>81.0</ele><time>2026-04-06T12:45:54Z</time></trkpt><trkpt lat="45.61603213188185" lon="10.554659293309035"><ele>80.0</ele><time>2026-04-06T12:45:55Z</time></trkpt><trkpt lat="45.61611270788816" lon="10.554825340164056"><ele>79.0</ele><time>2026-04-06T12:45:56Z</time></trkpt><trkpt lat="45.61619034798412" lon="10.554995024881748"><ele>78.0</ele><time>2026-04-06T12:45:57Z</time></trkpt><trkpt lat="45.616267850877236" lon="10.555163814070433"><ele>77.0</ele><time>2026-04-06T12:45:58Z</time></trkpt><trkpt lat="45.616347842423885" lon="10.55533220695107"><ele>77.0</ele><time>2026-04-06T12:45:59Z</time></trkpt><trkpt lat="45.61642992672035" lon="10.555493981473905"><ele>77.0</ele><time>2026-04-06T12:46:00Z</time></trkpt><trkpt lat="45.616512034376754" lon="10.555655144771249"><ele>77.0</ele><time>2026-04-06T12:46:01Z</time></trkpt><trkpt lat="45.616598067921345" lon="10.555815400109662"><ele>77.0</ele><time>2026-04-06T12:46:02Z</time></trkpt><trkpt lat="45.61668174555916" lon="10.555972529633427"><ele>77.0</ele><time>2026-04-06T12:46:03Z</time></trkpt><trkpt lat="45.61676738764721" lon="10.556124023180958"><ele>77.0</ele><time>2026-04-06T12:46:04Z</time></trkpt><trkpt lat="45.61683691105659" lon="10.556269612366574"><ele>77.0</ele><time>2026-04-06T12:46:05Z</time></trkpt><trkpt lat="45.61692941713655" lon="10.55642995269969"><ele>77.0</ele><time>2026-04-06T12:46:06Z</time></trkpt><trkpt lat="45.61701422324329" lon="10.556580132797869"><ele>77.5</ele><time>2026-04-06T12:46:07Z</time></trkpt><trkpt lat="45.6170959817853" lon="10.556738244497078"><ele>78.0</ele><time>2026-04-06T12:46:08Z</time></trkpt><trkpt lat="45.617182809750595" lon="10.556890876013854"><ele>78.5</ele><time>2026-04-06T12:46:09Z</time></trkpt><trkpt lat="45.6172534989979" lon="10.55704733765645"><ele>79.0</ele><time>2026-04-06T12:46:10Z</time></trkpt><trkpt lat="45.6173305040134" lon="10.557196595042265"><ele>79.0</ele><time>2026-04-06T12:46:11Z</time></trkpt><trkpt lat="45.617414844044056" lon="10.557349323857846"><ele>79.0</ele><time>2026-04-06T12:46:12Z</time></trkpt><trkpt lat="45.61749577061397" lon="10.557497235216442"><ele>79.0</ele><time>2026-04-06T12:46:13Z</time></trkpt><trkpt lat="45.61757819483121" lon="10.557640858594995"><ele>79.0</ele><time>2026-04-06T12:46:14Z</time></trkpt><trkpt lat="45.61765690563259" lon="10.55778432246642"><ele>79.4</ele><time>2026-04-06T12:46:15Z</time></trkpt><trkpt lat="45.617734835540595" lon="10.557923132562735"><ele>79.80000000000001</ele><time>2026-04-06T12:46:16Z</time></trkpt><trkpt lat="45.617808715789096" lon="10.558053238056406"><ele>80.19999999999999</ele><time>2026-04-06T12:46:17Z</time></trkpt><trkpt lat="45.617855517187266" lon="10.558185906839025"><ele>80.6</ele><time>2026-04-06T12:46:18Z</time></trkpt><trkpt lat="45.61790288629601" lon="10.558293309493894"><ele>81.0</ele><time>2026-04-06T12:46:19Z</time></trkpt><trkpt lat="45.617939313576755" lon="10.558399004733367"><ele>81.0</ele><time>2026-04-06T12:46:20Z</time></trkpt><trkpt lat="45.617972086399504" lon="10.558514364951767"><ele>81.0</ele><time>2026-04-06T12:46:21Z</time></trkpt><trkpt lat="45.61799468720436" lon="10.558603745399846"><ele>81.0</ele><time>2026-04-06T12:46:22Z</time></trkpt><trkpt lat="45.618013603648976" lon="10.558692415729995"><ele>81.0</ele><time>2026-04-06T12:46:23Z</time></trkpt><trkpt lat="45.618045244580046" lon="10.558849987095307"><ele>81.0</ele><time>2026-04-06T12:46:25Z</time></trkpt><trkpt lat="45.61806325715597" lon="10.558946899384487"><ele>81.0</ele><time>2026-04-06T12:46:26Z</time></trkpt><trkpt lat="45.61811389015544" lon="10.559019040344705"><ele>80.16666666666667</ele><time>2026-04-06T12:46:27Z</time></trkpt><trkpt lat="45.61814877177795" lon="10.55919714020198"><ele>79.33333333333333</ele><time>2026-04-06T12:46:29Z</time></trkpt><trkpt lat="45.61816315886116" lon="10.559314823698768"><ele>78.5</ele><time>2026-04-06T12:46:30Z</time></trkpt><trkpt lat="45.61815685925198" lon="10.559417789797278"><ele>77.66666666666666</ele><time>2026-04-06T12:46:31Z</time></trkpt><trkpt lat="45.618188510939426" lon="10.559498596201687"><ele>76.83333333333333</ele><time>2026-04-06T12:46:32Z</time></trkpt><trkpt lat="45.61820017803428" lon="10.559590784291617"><ele>76.0</ele><time>2026-04-06T12:46:33Z</time></trkpt><trkpt lat="45.61822317182978" lon="10.55972306646448"><ele>75.66666666666666</ele><time>2026-04-06T12:46:35Z</time></trkpt><trkpt lat="45.618236772196795" lon="10.559839589367796"><ele>75.33333333333333</ele><time>2026-04-06T12:46:45Z</time></trkpt><trkpt lat="45.618262262979876" lon="10.559969861541838"><ele>75.0</ele><time>2026-04-06T12:46:47Z</time></trkpt><trkpt lat="45.61829046792095" lon="10.560114004638201"><ele>74.66666666666667</ele><time>2026-04-06T12:46:49Z</time></trkpt><trkpt lat="45.61830897976182" lon="10.560208610814406"><ele>74.33333333333334</ele><time>2026-04-06T12:46:50Z</time></trkpt><trkpt lat="45.618328309089904" lon="10.560306611201757"><ele>74.0</ele><time>2026-04-06T12:46:51Z</time></trkpt><trkpt lat="45.618349682677895" lon="10.560417744094893"><ele>73.83333333333334</ele><time>2026-04-06T12:46:52Z</time></trkpt><trkpt lat="45.6183707325673" lon="10.560527193718167"><ele>73.66666666666667</ele><time>2026-04-06T12:46:53Z</time></trkpt><trkpt lat="45.61839250433286" lon="10.560640396919137"><ele>73.5</ele><time>2026-04-06T12:46:54Z</time></trkpt><trkpt lat="45.61841588148481" lon="10.56076194694533"><ele>73.33333333333333</ele><time>2026-04-06T12:46:55Z</time></trkpt><trkpt lat="45.618439855742764" lon="10.560884626513122"><ele>73.16666666666666</ele><time>2026-04-06T12:46:56Z</time></trkpt><trkpt lat="45.618494434635814" lon="10.561007900210807"><ele>73.0</ele><time>2026-04-06T12:46:57Z</time></trkpt><trkpt lat="45.61851874564609" lon="10.561148910727502"><ele>72.8</ele><time>2026-04-06T12:46:58Z</time></trkpt><trkpt lat="45.61854219379201" lon="10.561284140088862"><ele>72.6</ele><time>2026-04-06T12:46:59Z</time></trkpt><trkpt lat="45.61856901508662" lon="10.561422862925042"><ele>72.4</ele><time>2026-04-06T12:47:00Z</time></trkpt><trkpt lat="45.61859570310896" lon="10.561565151080814"><ele>72.2</ele><time>2026-04-06T12:47:01Z</time></trkpt><trkpt lat="45.61862302711415" lon="10.561707317463014"><ele>72.0</ele><time>2026-04-06T12:47:02Z</time></trkpt><trkpt lat="45.61865069906045" lon="10.561850324979503"><ele>73.6</ele><time>2026-04-06T12:47:03Z</time></trkpt><trkpt lat="45.61868445409139" lon="10.56199735404886"><ele>75.2</ele><time>2026-04-06T12:47:04Z</time></trkpt><trkpt lat="45.61871498564632" lon="10.562152867139273"><ele>76.8</ele><time>2026-04-06T12:47:05Z</time></trkpt><trkpt lat="45.618741414479885" lon="10.562303038933667"><ele>78.4</ele><time>2026-04-06T12:47:06Z</time></trkpt><trkpt lat="45.61877237510673" lon="10.562456501350821"><ele>80.0</ele><time>2026-04-06T12:47:07Z</time></trkpt><trkpt lat="45.61877767232843" lon="10.562622932757577"><ele>80.0</ele><time>2026-04-06T12:47:08Z</time></trkpt><trkpt lat="45.618809146620144" lon="10.562774081229405"><ele>80.0</ele><time>2026-04-06T12:47:09Z</time></trkpt><trkpt lat="45.6188429580847" lon="10.562922202747204"><ele>80.0</ele><time>2026-04-06T12:47:10Z</time></trkpt><trkpt lat="45.61888224384244" lon="10.563069426852529"><ele>80.0</ele><time>2026-04-06T12:47:11Z</time></trkpt><trkpt lat="45.61891949062591" lon="10.563203263567614"><ele>80.0</ele><time>2026-04-06T12:47:12Z</time></trkpt><trkpt lat="45.61895497913395" lon="10.563326854467421"><ele>79.33333333333334</ele><time>2026-04-06T12:47:13Z</time></trkpt><trkpt lat="45.618987880782086" lon="10.563441436356724"><ele>78.66666666666667</ele><time>2026-04-06T12:47:14Z</time></trkpt><trkpt lat="45.61902207222794" lon="10.563560216349304"><ele>78.0</ele><time>2026-04-06T12:47:15Z</time></trkpt><trkpt lat="45.6190563154658" lon="10.563675344981952"><ele>77.33333333333333</ele><time>2026-04-06T12:47:16Z</time></trkpt><trkpt lat="45.619088647816994" lon="10.563784049052986"><ele>76.66666666666666</ele><time>2026-04-06T12:47:17Z</time></trkpt><trkpt lat="45.61912241156632" lon="10.563897565557197"><ele>76.0</ele><time>2026-04-06T12:47:18Z</time></trkpt><trkpt lat="45.61915836048858" lon="10.564016640752058"><ele>75.39999999999999</ele><time>2026-04-06T12:47:19Z</time></trkpt><trkpt lat="45.619209534166295" lon="10.564124672983986"><ele>74.8</ele><time>2026-04-06T12:47:20Z</time></trkpt><trkpt lat="45.61924871566935" lon="10.564255069982218"><ele>74.19999999999999</ele><time>2026-04-06T12:47:21Z</time></trkpt><trkpt lat="45.61928656069905" lon="10.564378951188754"><ele>73.6</ele><time>2026-04-06T12:47:22Z</time></trkpt><trkpt lat="45.6193126920926" lon="10.564517858057947"><ele>73.0</ele><time>2026-04-06T12:47:23Z</time></trkpt><trkpt lat="45.6193683139146" lon="10.564630271384589"><ele>73.33333333333333</ele><time>2026-04-06T12:47:24Z</time></trkpt><trkpt lat="45.61941833997905" lon="10.56474842597594"><ele>73.66666666666666</ele><time>2026-04-06T12:47:25Z</time></trkpt><trkpt lat="45.619467782006666" lon="10.564848729661895"><ele>74.0</ele><time>2026-04-06T12:47:26Z</time></trkpt><trkpt lat="45.619512098024344" lon="10.564936832586763"><ele>74.33333333333333</ele><time>2026-04-06T12:47:27Z</time></trkpt><trkpt lat="45.61955696654131" lon="10.565009574123206"><ele>74.66666666666667</ele><time>2026-04-06T12:47:28Z</time></trkpt><trkpt lat="45.6196367260191" lon="10.565132053709332"><ele>75.0</ele><time>2026-04-06T12:47:30Z</time></trkpt><trkpt lat="45.619724380750654" lon="10.56524891665552"><ele>75.0</ele><time>2026-04-06T12:47:32Z</time></trkpt><trkpt lat="45.61975669783066" lon="10.565328371930656"><ele>75.0</ele><time>2026-04-06T12:47:33Z</time></trkpt><trkpt lat="45.619804882582244" lon="10.565400349070659"><ele>75.0</ele><time>2026-04-06T12:47:34Z</time></trkpt><trkpt lat="45.619865322276596" lon="10.565458340637296"><ele>75.0</ele><time>2026-04-06T12:47:35Z</time></trkpt><trkpt lat="45.61992090374282" lon="10.565543650349817"><ele>75.0</ele><time>2026-04-06T12:47:36Z</time></trkpt><trkpt lat="45.61998374676586" lon="10.565633264755151"><ele>75.0</ele><time>2026-04-06T12:47:37Z</time></trkpt><trkpt lat="45.62003467428597" lon="10.565741392232306"><ele>75.0</ele><time>2026-04-06T12:47:38Z</time></trkpt><trkpt lat="45.620111915989" lon="10.565823312449535"><ele>75.0</ele><time>2026-04-06T12:47:39Z</time></trkpt><trkpt lat="45.62017018130521" lon="10.565940764737578"><ele>75.0</ele><time>2026-04-06T12:47:40Z</time></trkpt><trkpt lat="45.620238634239975" lon="10.566041480050107"><ele>75.0</ele><time>2026-04-06T12:47:41Z</time></trkpt><trkpt lat="45.62030642316942" lon="10.566141217024931"><ele>75.0</ele><time>2026-04-06T12:47:42Z</time></trkpt><trkpt lat="45.62037759120138" lon="10.56624628567554"><ele>75.0</ele><time>2026-04-06T12:47:43Z</time></trkpt><trkpt lat="45.62045588758165" lon="10.56636177611867"><ele>75.0</ele><time>2026-04-06T12:47:44Z</time></trkpt><trkpt lat="45.62054323598811" lon="10.566490138348106"><ele>75.0</ele><time>2026-04-06T12:47:45Z</time></trkpt><trkpt lat="45.620625865560484" lon="10.566610423914808"><ele>75.0</ele><time>2026-04-06T12:47:46Z</time></trkpt><trkpt lat="45.62071038165435" lon="10.56670146767721"><ele>75.0</ele><time>2026-04-06T12:47:47Z</time></trkpt><trkpt lat="45.62077906115116" lon="10.566807551892563"><ele>75.0</ele><time>2026-04-06T12:47:48Z</time></trkpt><trkpt lat="45.62083053254212" lon="10.566893801587288"><ele>75.0</ele><time>2026-04-06T12:47:49Z</time></trkpt><trkpt lat="45.62090277805891" lon="10.566990372998507"><ele>75.0</ele><time>2026-04-06T12:47:51Z</time></trkpt><trkpt lat="45.620959612767535" lon="10.567074965694207"><ele>75.0</ele><time>2026-04-06T12:47:53Z</time></trkpt><trkpt lat="45.62102548330182" lon="10.567176261346086"><ele>73.4</ele><time>2026-04-06T12:47:55Z</time></trkpt><trkpt lat="45.62111421843422" lon="10.567301076962632"><ele>71.8</ele><time>2026-04-06T12:47:57Z</time></trkpt><trkpt lat="45.621194561991764" lon="10.567424129504635"><ele>70.2</ele><time>2026-04-06T12:47:59Z</time></trkpt><trkpt lat="45.62124003585026" lon="10.5674980698978"><ele>68.6</ele><time>2026-04-06T12:48:00Z</time></trkpt><trkpt lat="45.62129054362455" lon="10.567579847866378"><ele>67.0</ele><time>2026-04-06T12:48:01Z</time></trkpt><trkpt lat="45.62134769362666" lon="10.56766593493751"><ele>68.5</ele><time>2026-04-06T12:48:02Z</time></trkpt><trkpt lat="45.62140068276399" lon="10.56777639253834"><ele>70.0</ele><time>2026-04-06T12:48:03Z</time></trkpt><trkpt lat="45.621457680958144" lon="10.567870425490442"><ele>71.5</ele><time>2026-04-06T12:48:04Z</time></trkpt><trkpt lat="45.62149913092889" lon="10.567943370867415"><ele>73.0</ele><time>2026-04-06T12:48:05Z</time></trkpt><trkpt lat="45.6215434424325" lon="10.568028396101461"><ele>74.5</ele><time>2026-04-06T12:48:06Z</time></trkpt><trkpt lat="45.62160061309876" lon="10.568118183081987"><ele>76.0</ele><time>2026-04-06T12:48:07Z</time></trkpt><trkpt lat="45.62165800395031" lon="10.568222099573905"><ele>76.0</ele><time>2026-04-06T12:48:08Z</time></trkpt><trkpt lat="45.62172567938841" lon="10.56833220598737"><ele>76.0</ele><time>2026-04-06T12:48:09Z</time></trkpt><trkpt lat="45.62179399617328" lon="10.568446415386726"><ele>76.0</ele><time>2026-04-06T12:48:10Z</time></trkpt><trkpt lat="45.621853268301955" lon="10.568575599112712"><ele>76.0</ele><time>2026-04-06T12:48:11Z</time></trkpt><trkpt lat="45.621910997798885" lon="10.5687076206601"><ele>76.0</ele><time>2026-04-06T12:48:12Z</time></trkpt><trkpt lat="45.62197132062795" lon="10.568839769852673"><ele>77.8</ele><time>2026-04-06T12:48:13Z</time></trkpt><trkpt lat="45.622023898008386" lon="10.568978163343075"><ele>79.6</ele><time>2026-04-06T12:48:14Z</time></trkpt><trkpt lat="45.62207836607064" lon="10.569114692215164"><ele>81.4</ele><time>2026-04-06T12:48:15Z</time></trkpt><trkpt lat="45.62213348329444" lon="10.569250433521729"><ele>83.2</ele><time>2026-04-06T12:48:16Z</time></trkpt><trkpt lat="45.62218318931353" lon="10.56938501890115"><ele>85.0</ele><time>2026-04-06T12:48:17Z</time></trkpt><trkpt lat="45.62223551370315" lon="10.56951663016265"><ele>83.0</ele><time>2026-04-06T12:48:18Z</time></trkpt><trkpt lat="45.62228714604671" lon="10.569643136941506"><ele>81.0</ele><time>2026-04-06T12:48:19Z</time></trkpt><trkpt lat="45.622351921061714" lon="10.569778314830792"><ele>79.0</ele><time>2026-04-06T12:48:20Z</time></trkpt><trkpt lat="45.622416443346" lon="10.569909882211364"><ele>77.0</ele><time>2026-04-06T12:48:21Z</time></trkpt><trkpt lat="45.62247960658843" lon="10.57001941166633"><ele>75.0</ele><time>2026-04-06T12:48:22Z</time></trkpt><trkpt lat="45.62253808528359" lon="10.570120265164565"><ele>75.0</ele><time>2026-04-06T12:48:23Z</time></trkpt><trkpt lat="45.62258430989533" lon="10.57020205703255"><ele>75.0</ele><time>2026-04-06T12:48:24Z</time></trkpt><trkpt lat="45.62263476656217" lon="10.570286684482456"><ele>75.0</ele><time>2026-04-06T12:48:27Z</time></trkpt><trkpt lat="45.62268326231597" lon="10.570370140358692"><ele>75.0</ele><time>2026-04-06T12:48:31Z</time></trkpt><trkpt lat="45.622730864164936" lon="10.57044906681713"><ele>75.0</ele><time>2026-04-06T12:48:34Z</time></trkpt><trkpt lat="45.62282816174884" lon="10.570549895628895"><ele>75.0</ele><time>2026-04-06T12:48:36Z</time></trkpt><trkpt lat="45.622884433244586" lon="10.57061558921011"><ele>76.2</ele><time>2026-04-06T12:48:37Z</time></trkpt><trkpt lat="45.62294947473373" lon="10.57069064210843"><ele>77.4</ele><time>2026-04-06T12:48:38Z</time></trkpt><trkpt lat="45.623021551873535" lon="10.570770667200234"><ele>78.6</ele><time>2026-04-06T12:48:39Z</time></trkpt><trkpt lat="45.62309708730103" lon="10.570852921642471"><ele>79.8</ele><time>2026-04-06T12:48:40Z</time></trkpt><trkpt lat="45.6231760527092" lon="10.570942244010576"><ele>81.0</ele><time>2026-04-06T12:48:41Z</time></trkpt><trkpt lat="45.62325988770154" lon="10.571032311731516"><ele>81.0</ele><time>2026-04-06T12:48:42Z</time></trkpt><trkpt lat="45.623338482339456" lon="10.571131360453473"><ele>81.0</ele><time>2026-04-06T12:48:43Z</time></trkpt><trkpt lat="45.62342004996942" lon="10.57124281518608"><ele>81.0</ele><time>2026-04-06T12:48:44Z</time></trkpt><trkpt lat="45.62350074074553" lon="10.571370972465886"><ele>81.0</ele><time>2026-04-06T12:48:45Z</time></trkpt><trkpt lat="45.62357966369727" lon="10.57151108270599"><ele>81.25</ele><time>2026-04-06T12:48:46Z</time></trkpt><trkpt lat="45.62365282556695" lon="10.571651946293604"><ele>81.5</ele><time>2026-04-06T12:48:47Z</time></trkpt><trkpt lat="45.6237128115178" lon="10.57180872482223"><ele>81.75</ele><time>2026-04-06T12:48:48Z</time></trkpt><trkpt lat="45.62377292253544" lon="10.57196364874973"><ele>82.0</ele><time>2026-04-06T12:48:49Z</time></trkpt><trkpt lat="45.62383000883088" lon="10.572129737346966"><ele>82.0</ele><time>2026-04-06T12:48:50Z</time></trkpt><trkpt lat="45.623881836948044" lon="10.572300252914541"><ele>82.0</ele><time>2026-04-06T12:48:51Z</time></trkpt><trkpt lat="45.62393297094229" lon="10.572463549258119"><ele>82.0</ele><time>2026-04-06T12:48:52Z</time></trkpt><trkpt lat="45.623988507891475" lon="10.57262972389543"><ele>82.0</ele><time>2026-04-06T12:48:53Z</time></trkpt><trkpt lat="45.624043922977506" lon="10.572796967782898"><ele>80.75</ele><time>2026-04-06T12:48:54Z</time></trkpt><trkpt lat="45.62409964682648" lon="10.572965497017945"><ele>79.5</ele><time>2026-04-06T12:48:55Z</time></trkpt><trkpt lat="45.62415880659512" lon="10.573130824023716"><ele>78.25</ele><time>2026-04-06T12:48:56Z</time></trkpt><trkpt lat="45.62422698628448" lon="10.573290711544725"><ele>77.0</ele><time>2026-04-06T12:48:57Z</time></trkpt><trkpt lat="45.62430230275959" lon="10.573444734348238"><ele>77.0</ele><time>2026-04-06T12:48:58Z</time></trkpt><trkpt lat="45.62439125505648" lon="10.57359482443668"><ele>77.0</ele><time>2026-04-06T12:48:59Z</time></trkpt><trkpt lat="45.62448563337901" lon="10.573737815791695"><ele>77.0</ele><time>2026-04-06T12:49:00Z</time></trkpt><trkpt lat="45.62459074770873" lon="10.573871902971566"><ele>77.0</ele><time>2026-04-06T12:49:01Z</time></trkpt><trkpt lat="45.62470285452979" lon="10.573997694282715"><ele>78.25</ele><time>2026-04-06T12:49:02Z</time></trkpt><trkpt lat="45.62481361347395" lon="10.57413172545484"><ele>79.5</ele><time>2026-04-06T12:49:03Z</time></trkpt><trkpt lat="45.62492092751319" lon="10.574270327898825"><ele>80.75</ele><time>2026-04-06T12:49:04Z</time></trkpt><trkpt lat="45.62502178267964" lon="10.574421302349997"><ele>82.0</ele><time>2026-04-06T12:49:05Z</time></trkpt><trkpt lat="45.62511595113459" lon="10.574572988604839"><ele>79.5</ele><time>2026-04-06T12:49:06Z</time></trkpt><trkpt lat="45.62520751181022" lon="10.574730191916773"><ele>77.0</ele><time>2026-04-06T12:49:07Z</time></trkpt><trkpt lat="45.62528547967655" lon="10.574899553520725"><ele>74.5</ele><time>2026-04-06T12:49:08Z</time></trkpt><trkpt lat="45.625354614337894" lon="10.575076659745099"><ele>72.0</ele><time>2026-04-06T12:49:09Z</time></trkpt><trkpt lat="45.62542037031176" lon="10.575255535288829"><ele>75.75</ele><time>2026-04-06T12:49:10Z</time></trkpt><trkpt lat="45.625481744280805" lon="10.575439699226122"><ele>79.5</ele><time>2026-04-06T12:49:11Z</time></trkpt><trkpt lat="45.62554427344893" lon="10.575632242635699"><ele>83.25</ele><time>2026-04-06T12:49:12Z</time></trkpt><trkpt lat="45.625598074144314" lon="10.575828170561659"><ele>87.0</ele><time>2026-04-06T12:49:13Z</time></trkpt><trkpt lat="45.62564761405713" lon="10.57602913273968"><ele>85.0</ele><time>2026-04-06T12:49:14Z</time></trkpt><trkpt lat="45.62568075541076" lon="10.576243037598942"><ele>83.0</ele><time>2026-04-06T12:49:15Z</time></trkpt><trkpt lat="45.625728667027204" lon="10.576445745619212"><ele>81.0</ele><time>2026-04-06T12:49:16Z</time></trkpt><trkpt lat="45.62577892429673" lon="10.576651204391741"><ele>81.0</ele><time>2026-04-06T12:49:17Z</time></trkpt><trkpt lat="45.62582714504644" lon="10.576852953098957"><ele>81.0</ele><time>2026-04-06T12:49:18Z</time></trkpt><trkpt lat="45.625885549487464" lon="10.577047704006262"><ele>81.0</ele><time>2026-04-06T12:49:19Z</time></trkpt><trkpt lat="45.62592270868503" lon="10.577251903632476"><ele>81.0</ele><time>2026-04-06T12:49:20Z</time></trkpt><trkpt lat="45.62595459235646" lon="10.577464860450306"><ele>80.0</ele><time>2026-04-06T12:49:21Z</time></trkpt><trkpt lat="45.625982298397474" lon="10.577675733896116"><ele>79.0</ele><time>2026-04-06T12:49:22Z</time></trkpt><trkpt lat="45.6260092999517" lon="10.577890125650935"><ele>78.0</ele><time>2026-04-06T12:49:23Z</time></trkpt><trkpt lat="45.62603715145408" lon="10.5781036371867"><ele>76.66666666666667</ele><time>2026-04-06T12:49:24Z</time></trkpt><trkpt lat="45.62604828819251" lon="10.578326837243853"><ele>75.33333333333334</ele><time>2026-04-06T12:49:25Z</time></trkpt><trkpt lat="45.62607270620053" lon="10.57854248942042"><ele>74.0</ele><time>2026-04-06T12:49:26Z</time></trkpt><trkpt lat="45.62609641983211" lon="10.578757458881306"><ele>73.5</ele><time>2026-04-06T12:49:27Z</time></trkpt><trkpt lat="45.62611697120005" lon="10.578968781207301"><ele>73.0</ele><time>2026-04-06T12:49:28Z</time></trkpt><trkpt lat="45.62613260783314" lon="10.579180945639228"><ele>72.5</ele><time>2026-04-06T12:49:29Z</time></trkpt><trkpt lat="45.62614471950211" lon="10.579394305801896"><ele>72.0</ele><time>2026-04-06T12:49:30Z</time></trkpt><trkpt lat="45.62617706285595" lon="10.579604287438151"><ele>75.25</ele><time>2026-04-06T12:49:31Z</time></trkpt><trkpt lat="45.62618132876236" lon="10.579813611330623"><ele>78.5</ele><time>2026-04-06T12:49:32Z</time></trkpt><trkpt lat="45.62618482123606" lon="10.580024242318498"><ele>81.75</ele><time>2026-04-06T12:49:33Z</time></trkpt><trkpt lat="45.626184798261406" lon="10.580227082420404"><ele>85.0</ele><time>2026-04-06T12:49:34Z</time></trkpt><trkpt lat="45.6261846321695" lon="10.580434804439685"><ele>85.0</ele><time>2026-04-06T12:49:35Z</time></trkpt><trkpt lat="45.62615505512066" lon="10.580640176729535"><ele>85.0</ele><time>2026-04-06T12:49:36Z</time></trkpt><trkpt lat="45.62615604412461" lon="10.580845239739816"><ele>85.0</ele><time>2026-04-06T12:49:37Z</time></trkpt><trkpt lat="45.62615680412868" lon="10.58105232083416"><ele>85.0</ele><time>2026-04-06T12:49:38Z</time></trkpt><trkpt lat="45.626159359508435" lon="10.581258820202956"><ele>85.0</ele><time>2026-04-06T12:49:39Z</time></trkpt><trkpt lat="45.62616240756985" lon="10.581468212843776"><ele>85.0</ele><time>2026-04-06T12:49:40Z</time></trkpt><trkpt lat="45.6261968299643" lon="10.58166902068699"><ele>85.0</ele><time>2026-04-06T12:49:41Z</time></trkpt><trkpt lat="45.6261989597277" lon="10.58187169917483"><ele>85.0</ele><time>2026-04-06T12:49:42Z</time></trkpt><trkpt lat="45.62619645822468" lon="10.58207151472292"><ele>85.0</ele><time>2026-04-06T12:49:43Z</time></trkpt><trkpt lat="45.62619467606009" lon="10.582272336665207"><ele>85.0</ele><time>2026-04-06T12:49:44Z</time></trkpt><trkpt lat="45.62616671047976" lon="10.582474170860939"><ele>85.0</ele><time>2026-04-06T12:49:45Z</time></trkpt><trkpt lat="45.62616377560997" lon="10.582677292917678"><ele>85.0</ele><time>2026-04-06T12:49:46Z</time></trkpt><trkpt lat="45.62615364543174" lon="10.582885140043187"><ele>85.66666666666666</ele><time>2026-04-06T12:49:47Z</time></trkpt><trkpt lat="45.62616045189361" lon="10.583097325629051"><ele>86.33333333333333</ele><time>2026-04-06T12:49:48Z</time></trkpt><trkpt lat="45.626133720081725" lon="10.583312574685452"><ele>87.0</ele><time>2026-04-06T12:49:49Z</time></trkpt><trkpt lat="45.62609960481619" lon="10.583528272175704"><ele>82.66666666666667</ele><time>2026-04-06T12:49:50Z</time></trkpt><trkpt lat="45.6260691725118" lon="10.583748708329816"><ele>78.33333333333334</ele><time>2026-04-06T12:49:51Z</time></trkpt><trkpt lat="45.62604267692599" lon="10.583961782751237"><ele>74.0</ele><time>2026-04-06T12:49:52Z</time></trkpt><trkpt lat="45.62599841694215" lon="10.584169697416241"><ele>74.0</ele><time>2026-04-06T12:49:53Z</time></trkpt><trkpt lat="45.62601826676874" lon="10.584379191884011"><ele>74.0</ele><time>2026-04-06T12:49:54Z</time></trkpt><trkpt lat="45.626040758660395" lon="10.584577675823624"><ele>74.0</ele><time>2026-04-06T12:49:55Z</time></trkpt><trkpt lat="45.62608884708309" lon="10.584765103975622"><ele>74.0</ele><time>2026-04-06T12:49:56Z</time></trkpt><trkpt lat="45.62615710069285" lon="10.584942942135111"><ele>75.0</ele><time>2026-04-06T12:49:57Z</time></trkpt><trkpt lat="45.62624199833425" lon="10.585105836283166"><ele>76.0</ele><time>2026-04-06T12:49:58Z</time></trkpt><trkpt lat="45.626335451251585" lon="10.585265330318338"><ele>77.0</ele><time>2026-04-06T12:49:59Z</time></trkpt><trkpt lat="45.62643445387766" lon="10.585414131024729"><ele>78.0</ele><time>2026-04-06T12:50:00Z</time></trkpt><trkpt lat="45.62654368799235" lon="10.585550017894688"><ele>78.0</ele><time>2026-04-06T12:50:01Z</time></trkpt><trkpt lat="45.62666306009748" lon="10.585657369076545"><ele>78.0</ele><time>2026-04-06T12:50:02Z</time></trkpt><trkpt lat="45.62678681066841" lon="10.585763818765471"><ele>78.0</ele><time>2026-04-06T12:50:03Z</time></trkpt><trkpt lat="45.62691197093764" lon="10.585873231355652"><ele>78.0</ele><time>2026-04-06T12:50:04Z</time></trkpt><trkpt lat="45.627038615785" lon="10.585986842030076"><ele>78.5</ele><time>2026-04-06T12:50:05Z</time></trkpt><trkpt lat="45.627162898647846" lon="10.586112143218198"><ele>79.0</ele><time>2026-04-06T12:50:06Z</time></trkpt><trkpt lat="45.62728958303993" lon="10.586232612384714"><ele>79.5</ele><time>2026-04-06T12:50:07Z</time></trkpt><trkpt lat="45.62741017460956" lon="10.586345995058867"><ele>80.0</ele><time>2026-04-06T12:50:08Z</time></trkpt><trkpt lat="45.627529367641536" lon="10.586456114235531"><ele>79.0</ele><time>2026-04-06T12:50:09Z</time></trkpt><trkpt lat="45.627647555814704" lon="10.586560644546802"><ele>78.0</ele><time>2026-04-06T12:50:10Z</time></trkpt><trkpt lat="45.627775267361244" lon="10.58663931402457"><ele>77.0</ele><time>2026-04-06T12:50:11Z</time></trkpt><trkpt lat="45.627912045473536" lon="10.58668422246197"><ele>76.0</ele><time>2026-04-06T12:50:12Z</time></trkpt><trkpt lat="45.62805442162523" lon="10.586689425355532"><ele>75.75</ele><time>2026-04-06T12:50:13Z</time></trkpt><trkpt lat="45.6281960771074" lon="10.586679078656365"><ele>75.5</ele><time>2026-04-06T12:50:14Z</time></trkpt><trkpt lat="45.62833428136937" lon="10.586663739919953"><ele>75.25</ele><time>2026-04-06T12:50:15Z</time></trkpt><trkpt lat="45.62847446610355" lon="10.586654537189785"><ele>75.0</ele><time>2026-04-06T12:50:16Z</time></trkpt><trkpt lat="45.62861773742783" lon="10.586651220632234"><ele>75.5</ele><time>2026-04-06T12:50:17Z</time></trkpt><trkpt lat="45.628757372437214" lon="10.586648035080028"><ele>76.0</ele><time>2026-04-06T12:50:18Z</time></trkpt><trkpt lat="45.62889482882077" lon="10.58664275377376"><ele>76.5</ele><time>2026-04-06T12:50:19Z</time></trkpt><trkpt lat="45.62902667960485" lon="10.586636603516272"><ele>77.0</ele><time>2026-04-06T12:50:20Z</time></trkpt><trkpt lat="45.62915723818095" lon="10.586638011469777"><ele>77.0</ele><time>2026-04-06T12:50:21Z</time></trkpt><trkpt lat="45.62929441014419" lon="10.586659494952068"><ele>77.0</ele><time>2026-04-06T12:50:22Z</time></trkpt><trkpt lat="45.62942809928213" lon="10.586697238292023"><ele>77.0</ele><time>2026-04-06T12:50:23Z</time></trkpt><trkpt lat="45.629561357007184" lon="10.586760492626313"><ele>77.0</ele><time>2026-04-06T12:50:24Z</time></trkpt><trkpt lat="45.6296919331526" lon="10.586843581864722"><ele>77.75</ele><time>2026-04-06T12:50:25Z</time></trkpt><trkpt lat="45.62981761026092" lon="10.586940567060836"><ele>78.5</ele><time>2026-04-06T12:50:26Z</time></trkpt><trkpt lat="45.629936244580705" lon="10.587064826261411"><ele>79.25</ele><time>2026-04-06T12:50:27Z</time></trkpt><trkpt lat="45.63004798757371" lon="10.58720167471289"><ele>80.0</ele><time>2026-04-06T12:50:28Z</time></trkpt><trkpt lat="45.6301585953892" lon="10.587341431223615"><ele>80.0</ele><time>2026-04-06T12:50:29Z</time></trkpt><trkpt lat="45.63026819504017" lon="10.587488482459614"><ele>80.0</ele><time>2026-04-06T12:50:30Z</time></trkpt><trkpt lat="45.63037603483692" lon="10.587638398451954"><ele>80.0</ele><time>2026-04-06T12:50:31Z</time></trkpt><trkpt lat="45.630479302543236" lon="10.587792912737976"><ele>79.0</ele><time>2026-04-06T12:50:32Z</time></trkpt><trkpt lat="45.63058183290674" lon="10.587937846080607"><ele>78.0</ele><time>2026-04-06T12:50:33Z</time></trkpt><trkpt lat="45.63068005372821" lon="10.588083526813614"><ele>77.0</ele><time>2026-04-06T12:50:34Z</time></trkpt><trkpt lat="45.630777748793435" lon="10.588229460600562"><ele>76.0</ele><time>2026-04-06T12:50:35Z</time></trkpt><trkpt lat="45.63087528844531" lon="10.588371353527396"><ele>76.0</ele><time>2026-04-06T12:50:36Z</time></trkpt><trkpt lat="45.63097158920883" lon="10.588509607716277"><ele>76.0</ele><time>2026-04-06T12:50:37Z</time></trkpt><trkpt lat="45.63106182976302" lon="10.588643367904227"><ele>76.0</ele><time>2026-04-06T12:50:38Z</time></trkpt><trkpt lat="45.63115077553172" lon="10.588776410488057"><ele>76.0</ele><time>2026-04-06T12:50:39Z</time></trkpt><trkpt lat="45.63124045687244" lon="10.588921402867642"><ele>76.0</ele><time>2026-04-06T12:50:40Z</time></trkpt><trkpt lat="45.63133062772346" lon="10.589066662512026"><ele>76.0</ele><time>2026-04-06T12:50:41Z</time></trkpt><trkpt lat="45.6314255598926" lon="10.589215182795847"><ele>76.0</ele><time>2026-04-06T12:50:42Z</time></trkpt><trkpt lat="45.631515089882626" lon="10.589373250285952"><ele>76.0</ele><time>2026-04-06T12:50:43Z</time></trkpt><trkpt lat="45.63160741795287" lon="10.589530920569809"><ele>76.0</ele><time>2026-04-06T12:50:44Z</time></trkpt><trkpt lat="45.63169970324427" lon="10.589689914752096"><ele>76.0</ele><time>2026-04-06T12:50:45Z</time></trkpt><trkpt lat="45.631789512849224" lon="10.58985493677208"><ele>76.0</ele><time>2026-04-06T12:50:46Z</time></trkpt><trkpt lat="45.63188535127565" lon="10.590018036905816"><ele>76.0</ele><time>2026-04-06T12:50:47Z</time></trkpt><trkpt lat="45.631975059111824" lon="10.590185414506402"><ele>79.75</ele><time>2026-04-06T12:50:48Z</time></trkpt><trkpt lat="45.63205816124371" lon="10.590356390851765"><ele>83.5</ele><time>2026-04-06T12:50:49Z</time></trkpt><trkpt lat="45.63213292798879" lon="10.59052701245585"><ele>87.25</ele><time>2026-04-06T12:50:50Z</time></trkpt><trkpt lat="45.63220084242323" lon="10.59069499224555"><ele>91.0</ele><time>2026-04-06T12:50:51Z</time></trkpt><trkpt lat="45.63226530974343" lon="10.590862924953527"><ele>91.0</ele><time>2026-04-06T12:50:52Z</time></trkpt><trkpt lat="45.63233476789591" lon="10.59103470608283"><ele>91.0</ele><time>2026-04-06T12:50:53Z</time></trkpt><trkpt lat="45.63240456544298" lon="10.591204814355363"><ele>91.0</ele><time>2026-04-06T12:50:54Z</time></trkpt><trkpt lat="45.63248271600336" lon="10.591362019875"><ele>91.0</ele><time>2026-04-06T12:50:55Z</time></trkpt><trkpt lat="45.63256901898804" lon="10.591510622436367"><ele>95.0</ele><time>2026-04-06T12:50:56Z</time></trkpt><trkpt lat="45.632662419831135" lon="10.591644963377764"><ele>99.0</ele><time>2026-04-06T12:50:57Z</time></trkpt><trkpt lat="45.63276975144331" lon="10.59176172471261"><ele>103.0</ele><time>2026-04-06T12:50:58Z</time></trkpt><trkpt lat="45.63288086622825" lon="10.591869807995558"><ele>107.0</ele><time>2026-04-06T12:50:59Z</time></trkpt><trkpt lat="45.632988899741385" lon="10.591975993561084"><ele>100.6</ele><time>2026-04-06T12:51:00Z</time></trkpt><trkpt lat="45.63308299881038" lon="10.592088406950442"><ele>94.19999999999999</ele><time>2026-04-06T12:51:01Z</time></trkpt><trkpt lat="45.633165952639985" lon="10.59220552067961"><ele>87.8</ele><time>2026-04-06T12:51:02Z</time></trkpt><trkpt lat="45.6332387524207" lon="10.592321703656467"><ele>81.4</ele><time>2026-04-06T12:51:03Z</time></trkpt><trkpt lat="45.63330476982721" lon="10.592426690258065"><ele>75.0</ele><time>2026-04-06T12:51:04Z</time></trkpt><trkpt lat="45.633364521236054" lon="10.592521638839939"><ele>75.0</ele><time>2026-04-06T12:51:05Z</time></trkpt><trkpt lat="45.63340305773828" lon="10.592630120228334"><ele>75.0</ele><time>2026-04-06T12:51:06Z</time></trkpt><trkpt lat="45.633450424066794" lon="10.592719210932758"><ele>75.0</ele><time>2026-04-06T12:51:07Z</time></trkpt><trkpt lat="45.63349643126158" lon="10.592807251328233"><ele>75.0</ele><time>2026-04-06T12:51:08Z</time></trkpt><trkpt lat="45.63354387095616" lon="10.59289820970442"><ele>75.0</ele><time>2026-04-06T12:51:09Z</time></trkpt><trkpt lat="45.633593785004585" lon="10.59299397806402"><ele>75.0</ele><time>2026-04-06T12:51:10Z</time></trkpt><trkpt lat="45.633644811306496" lon="10.593091880530201"><ele>78.5</ele><time>2026-04-06T12:51:11Z</time></trkpt><trkpt lat="45.63369526797195" lon="10.593188689830155"><ele>82.0</ele><time>2026-04-06T12:51:12Z</time></trkpt><trkpt lat="45.63375794534061" lon="10.593270622617077"><ele>85.5</ele><time>2026-04-06T12:51:13Z</time></trkpt><trkpt lat="45.633794695239246" lon="10.593379457539102"><ele>89.0</ele><time>2026-04-06T12:51:14Z</time></trkpt><trkpt lat="45.633843980963434" lon="10.593474020387692"><ele>92.5</ele><time>2026-04-06T12:51:15Z</time></trkpt><trkpt lat="45.63388963885835" lon="10.593561622536036"><ele>96.0</ele><time>2026-04-06T12:51:16Z</time></trkpt><trkpt lat="45.633931212259625" lon="10.593641388103132"><ele>92.2</ele><time>2026-04-06T12:51:17Z</time></trkpt><trkpt lat="45.63397238649304" lon="10.593720387617651"><ele>88.39999999999999</ele><time>2026-04-06T12:51:18Z</time></trkpt><trkpt lat="45.634012378265986" lon="10.593796622752361"><ele>84.6</ele><time>2026-04-06T12:51:19Z</time></trkpt><trkpt lat="45.634092879129064" lon="10.593949280130873"><ele>80.8</ele><time>2026-04-06T12:51:21Z</time></trkpt><trkpt lat="45.63417673626627" lon="10.594023507558887"><ele>77.0</ele><time>2026-04-06T12:51:22Z</time></trkpt><trkpt lat="45.63424199696901" lon="10.5941548460223"><ele>77.0</ele><time>2026-04-06T12:51:23Z</time></trkpt><trkpt lat="45.634315372842394" lon="10.594301050280418"><ele>77.0</ele><time>2026-04-06T12:51:24Z</time></trkpt><trkpt lat="45.634394357883046" lon="10.59445400773172"><ele>77.0</ele><time>2026-04-06T12:51:25Z</time></trkpt><trkpt lat="45.634475208341755" lon="10.594611294135882"><ele>77.0</ele><time>2026-04-06T12:51:26Z</time></trkpt><trkpt lat="45.63454786772679" lon="10.594783657753393"><ele>77.25</ele><time>2026-04-06T12:51:27Z</time></trkpt><trkpt lat="45.63462000929192" lon="10.594952017710531"><ele>77.5</ele><time>2026-04-06T12:51:28Z</time></trkpt><trkpt lat="45.634692124173505" lon="10.59512347333883"><ele>77.75</ele><time>2026-04-06T12:51:29Z</time></trkpt><trkpt lat="45.63476343829542" lon="10.59529451952907"><ele>78.0</ele><time>2026-04-06T12:51:30Z</time></trkpt><trkpt lat="45.634832067984654" lon="10.595468267191881"><ele>78.0</ele><time>2026-04-06T12:51:31Z</time></trkpt><trkpt lat="45.63488187924476" lon="10.595656824418253"><ele>78.0</ele><time>2026-04-06T12:51:32Z</time></trkpt><trkpt lat="45.63494915225068" lon="10.595835323341328"><ele>78.0</ele><time>2026-04-06T12:51:33Z</time></trkpt><trkpt lat="45.63503594099318" lon="10.595997658019636"><ele>78.0</ele><time>2026-04-06T12:51:34Z</time></trkpt><trkpt lat="45.6351075912469" lon="10.596175297847838"><ele>76.5</ele><time>2026-04-06T12:51:35Z</time></trkpt><trkpt lat="45.635185935425184" lon="10.596343744297922"><ele>75.0</ele><time>2026-04-06T12:51:36Z</time></trkpt><trkpt lat="45.63526790167888" lon="10.59651275867656"><ele>73.5</ele><time>2026-04-06T12:51:37Z</time></trkpt><trkpt lat="45.63535122616334" lon="10.596678716994631"><ele>72.0</ele><time>2026-04-06T12:51:38Z</time></trkpt><trkpt lat="45.635436145328754" lon="10.596840161797997"><ele>73.75</ele><time>2026-04-06T12:51:39Z</time></trkpt><trkpt lat="45.63550676618633" lon="10.596998920600017"><ele>75.5</ele><time>2026-04-06T12:51:40Z</time></trkpt><trkpt lat="45.63557011032323" lon="10.597159641914754"><ele>77.25</ele><time>2026-04-06T12:51:41Z</time></trkpt><trkpt lat="45.63561761196695" lon="10.597320773985638"><ele>79.0</ele><time>2026-04-06T12:51:42Z</time></trkpt><trkpt lat="45.63562487355691" lon="10.597507476922274"><ele>79.0</ele><time>2026-04-06T12:51:43Z</time></trkpt><trkpt lat="45.63565473269389" lon="10.597680598537154"><ele>79.0</ele><time>2026-04-06T12:51:44Z</time></trkpt><trkpt lat="45.63567557061567" lon="10.597851895629868"><ele>79.0</ele><time>2026-04-06T12:51:45Z</time></trkpt><trkpt lat="45.63568819133009" lon="10.598028228583763"><ele>79.0</ele><time>2026-04-06T12:51:46Z</time></trkpt><trkpt lat="45.63569369105642" lon="10.598196765655418"><ele>78.0</ele><time>2026-04-06T12:51:47Z</time></trkpt><trkpt lat="45.63569717224574" lon="10.598363068646046"><ele>77.0</ele><time>2026-04-06T12:51:48Z</time></trkpt><trkpt lat="45.63570026881092" lon="10.598510992929464"><ele>76.0</ele><time>2026-04-06T12:51:49Z</time></trkpt><trkpt lat="45.63569597051579" lon="10.598637478502287"><ele>75.0</ele><time>2026-04-06T12:51:50Z</time></trkpt><trkpt lat="45.635684985961824" lon="10.598758337507228"><ele>74.0</ele><time>2026-04-06T12:51:51Z</time></trkpt><trkpt lat="45.63566274713115" lon="10.598868627656618"><ele>73.66666666666667</ele><time>2026-04-06T12:51:52Z</time></trkpt><trkpt lat="45.63563249544588" lon="10.598983573412116"><ele>73.33333333333334</ele><time>2026-04-06T12:51:53Z</time></trkpt><trkpt lat="45.63559738706967" lon="10.59909255805293"><ele>73.0</ele><time>2026-04-06T12:51:54Z</time></trkpt><trkpt lat="45.63556335444819" lon="10.59918059694702"><ele>72.66666666666667</ele><time>2026-04-06T12:51:55Z</time></trkpt><trkpt lat="45.635522480983575" lon="10.599261202599592"><ele>72.33333333333333</ele><time>2026-04-06T12:51:56Z</time></trkpt><trkpt lat="45.63547779687948" lon="10.59934009765826"><ele>72.0</ele><time>2026-04-06T12:51:57Z</time></trkpt><trkpt lat="45.63543213020575" lon="10.599421902227931"><ele>72.0</ele><time>2026-04-06T12:51:58Z</time></trkpt><trkpt lat="45.63537617374544" lon="10.599525348790975"><ele>72.0</ele><time>2026-04-06T12:51:59Z</time></trkpt><trkpt lat="45.63531351753893" lon="10.59963991040737"><ele>72.0</ele><time>2026-04-06T12:52:00Z</time></trkpt><trkpt lat="45.635263684311" lon="10.599742009121629"><ele>72.0</ele><time>2026-04-06T12:52:01Z</time></trkpt><trkpt lat="45.63520729584071" lon="10.599866483654058"><ele>72.0</ele><time>2026-04-06T12:52:03Z</time></trkpt><trkpt lat="45.6351666029996" lon="10.599969780594227"><ele>72.2</ele><time>2026-04-06T12:52:06Z</time></trkpt><trkpt lat="45.63511627827308" lon="10.60010799630855"><ele>72.4</ele><time>2026-04-06T12:52:08Z</time></trkpt><trkpt lat="45.63508022619449" lon="10.600209714055035"><ele>72.6</ele><time>2026-04-06T12:52:09Z</time></trkpt><trkpt lat="45.63503824249584" lon="10.600332401641683"><ele>72.8</ele><time>2026-04-06T12:52:10Z</time></trkpt><trkpt lat="45.634992199045854" lon="10.600465087650258"><ele>73.0</ele><time>2026-04-06T12:52:11Z</time></trkpt><trkpt lat="45.63494538089292" lon="10.600611640711593"><ele>72.25</ele><time>2026-04-06T12:52:12Z</time></trkpt><trkpt lat="45.63490520525135" lon="10.600770517216175"><ele>71.5</ele><time>2026-04-06T12:52:13Z</time></trkpt><trkpt lat="45.63487869222586" lon="10.600942107388331"><ele>70.75</ele><time>2026-04-06T12:52:14Z</time></trkpt><trkpt lat="45.63487215513621" lon="10.601118506681583"><ele>70.0</ele><time>2026-04-06T12:52:15Z</time></trkpt><trkpt lat="45.63488742856322" lon="10.601293483398413"><ele>69.75</ele><time>2026-04-06T12:52:16Z</time></trkpt><trkpt lat="45.634918875212776" lon="10.601466228796674"><ele>69.5</ele><time>2026-04-06T12:52:17Z</time></trkpt><trkpt lat="45.63497363005772" lon="10.601626013655636"><ele>69.25</ele><time>2026-04-06T12:52:18Z</time></trkpt><trkpt lat="45.63503874111308" lon="10.601774636253504"><ele>69.0</ele><time>2026-04-06T12:52:19Z</time></trkpt><trkpt lat="45.635112275848876" lon="10.601920405592598"><ele>69.0</ele><time>2026-04-06T12:52:20Z</time></trkpt><trkpt lat="45.63520258725509" lon="10.602057416524769"><ele>69.0</ele><time>2026-04-06T12:52:21Z</time></trkpt><trkpt lat="45.635280590825005" lon="10.602208481453575"><ele>69.0</ele><time>2026-04-06T12:52:22Z</time></trkpt><trkpt lat="45.63533930938235" lon="10.602359771658096"><ele>69.0</ele><time>2026-04-06T12:52:23Z</time></trkpt><trkpt lat="45.635420988969905" lon="10.602481441436217"><ele>69.2</ele><time>2026-04-06T12:52:24Z</time></trkpt><trkpt lat="45.63548545656185" lon="10.602607201603165"><ele>69.4</ele><time>2026-04-06T12:52:25Z</time></trkpt><trkpt lat="45.63554771846497" lon="10.602734990922928"><ele>69.6</ele><time>2026-04-06T12:52:26Z</time></trkpt><trkpt lat="45.6356121394175" lon="10.602863991274479"><ele>69.8</ele><time>2026-04-06T12:52:27Z</time></trkpt><trkpt lat="45.63567766659727" lon="10.602990442775576"><ele>70.0</ele><time>2026-04-06T12:52:28Z</time></trkpt><trkpt lat="45.63574582914255" lon="10.603120149261452"><ele>70.0</ele><time>2026-04-06T12:52:29Z</time></trkpt><trkpt lat="45.63581626613983" lon="10.603253213486445"><ele>70.0</ele><time>2026-04-06T12:52:30Z</time></trkpt><trkpt lat="45.6358869250134" lon="10.603383718924007"><ele>70.0</ele><time>2026-04-06T12:52:31Z</time></trkpt><trkpt lat="45.63595038597041" lon="10.603505898366562"><ele>70.0</ele><time>2026-04-06T12:52:32Z</time></trkpt><trkpt lat="45.636007806687886" lon="10.60362005247471"><ele>70.0</ele><time>2026-04-06T12:52:33Z</time></trkpt><trkpt lat="45.6360664445735" lon="10.603737295656945"><ele>70.4</ele><time>2026-04-06T12:52:34Z</time></trkpt><trkpt lat="45.636127370172744" lon="10.60385510896529"><ele>70.8</ele><time>2026-04-06T12:52:35Z</time></trkpt><trkpt lat="45.636190548297606" lon="10.603974015445377"><ele>71.2</ele><time>2026-04-06T12:52:36Z</time></trkpt><trkpt lat="45.63625358577522" lon="10.604097149322111"><ele>71.6</ele><time>2026-04-06T12:52:37Z</time></trkpt><trkpt lat="45.636321352619994" lon="10.604227056896164"><ele>72.0</ele><time>2026-04-06T12:52:38Z</time></trkpt><trkpt lat="45.63638617817684" lon="10.604353103338386"><ele>72.2</ele><time>2026-04-06T12:52:39Z</time></trkpt><trkpt lat="45.63644308865936" lon="10.60446401596328"><ele>72.4</ele><time>2026-04-06T12:52:40Z</time></trkpt><trkpt lat="45.636491363853935" lon="10.604557093235606"><ele>72.6</ele><time>2026-04-06T12:52:41Z</time></trkpt><trkpt lat="45.63653511518627" lon="10.604639374065085"><ele>72.8</ele><time>2026-04-06T12:52:42Z</time></trkpt><trkpt lat="45.63660696112258" lon="10.604773585275643"><ele>73.0</ele><time>2026-04-06T12:52:44Z</time></trkpt><trkpt lat="45.636657474765094" lon="10.604882278334602"><ele>73.0</ele><time>2026-04-06T12:52:46Z</time></trkpt><trkpt lat="45.63669502221003" lon="10.605002901530433"><ele>73.0</ele><time>2026-04-06T12:52:48Z</time></trkpt><trkpt lat="45.63670141452739" lon="10.605158093559448"><ele>73.0</ele><time>2026-04-06T12:52:50Z</time></trkpt><trkpt lat="45.63676665543787" lon="10.605291982449222"><ele>73.0</ele><time>2026-04-06T12:52:52Z</time></trkpt><trkpt lat="45.63682504622841" lon="10.60532845604909"><ele>73.0</ele><time>2026-04-06T12:52:53Z</time></trkpt><trkpt lat="45.63689075828069" lon="10.605376408450304"><ele>73.16666666666666</ele><time>2026-04-06T12:52:54Z</time></trkpt><trkpt lat="45.63694532347947" lon="10.605443722066806"><ele>73.33333333333333</ele><time>2026-04-06T12:52:55Z</time></trkpt><trkpt lat="45.636993413318834" lon="10.605526498982078"><ele>73.5</ele><time>2026-04-06T12:52:56Z</time></trkpt><trkpt lat="45.63704229093946" lon="10.605619896428724"><ele>73.66666666666667</ele><time>2026-04-06T12:52:57Z</time></trkpt><trkpt lat="45.637094118001585" lon="10.605715905052572"><ele>73.83333333333334</ele><time>2026-04-06T12:52:58Z</time></trkpt><trkpt lat="45.63714612228698" lon="10.605813544243372"><ele>74.0</ele><time>2026-04-06T12:52:59Z</time></trkpt><trkpt lat="45.63720360518051" lon="10.605918508658759"><ele>74.25</ele><time>2026-04-06T12:53:00Z</time></trkpt><trkpt lat="45.637280918180146" lon="10.606037519313793"><ele>74.5</ele><time>2026-04-06T12:53:01Z</time></trkpt><trkpt lat="45.63735167230223" lon="10.606195341712814"><ele>74.75</ele><time>2026-04-06T12:53:02Z</time></trkpt><trkpt lat="45.63744814788461" lon="10.606339176657258"><ele>75.0</ele><time>2026-04-06T12:53:03Z</time></trkpt><trkpt lat="45.637549422508904" lon="10.606483273113419"><ele>75.5</ele><time>2026-04-06T12:53:04Z</time></trkpt><trkpt lat="45.637663614180816" lon="10.60661512706297"><ele>76.0</ele><time>2026-04-06T12:53:05Z</time></trkpt><trkpt lat="45.63776562096374" lon="10.606765979521343"><ele>76.5</ele><time>2026-04-06T12:53:06Z</time></trkpt><trkpt lat="45.637870997195776" lon="10.606914173164196"><ele>77.0</ele><time>2026-04-06T12:53:07Z</time></trkpt><trkpt lat="45.637979569745156" lon="10.607054978603637"><ele>77.5</ele><time>2026-04-06T12:53:08Z</time></trkpt><trkpt lat="45.638092563015206" lon="10.607177063428976"><ele>78.0</ele><time>2026-04-06T12:53:09Z</time></trkpt><trkpt lat="45.63821395852961" lon="10.607273044778692"><ele>78.5</ele><time>2026-04-06T12:53:10Z</time></trkpt><trkpt lat="45.638342447546265" lon="10.607351506272536"><ele>79.0</ele><time>2026-04-06T12:53:11Z</time></trkpt><trkpt lat="45.63846633957996" lon="10.60741176602029"><ele>79.0</ele><time>2026-04-06T12:53:12Z</time></trkpt><trkpt lat="45.63859174519297" lon="10.607465864644821"><ele>79.0</ele><time>2026-04-06T12:53:13Z</time></trkpt><trkpt lat="45.638717374070524" lon="10.607518254137036"><ele>79.0</ele><time>2026-04-06T12:53:14Z</time></trkpt><trkpt lat="45.63884098248872" lon="10.607576455640801"><ele>79.0</ele><time>2026-04-06T12:53:15Z</time></trkpt><trkpt lat="45.638957221920194" lon="10.60763062970904"><ele>79.75</ele><time>2026-04-06T12:53:16Z</time></trkpt><trkpt lat="45.639070845614256" lon="10.60768551856485"><ele>80.5</ele><time>2026-04-06T12:53:17Z</time></trkpt><trkpt lat="45.639186124538796" lon="10.60774347025083"><ele>81.25</ele><time>2026-04-06T12:53:18Z</time></trkpt><trkpt lat="45.639304107100926" lon="10.607801556303052"><ele>82.0</ele><time>2026-04-06T12:53:19Z</time></trkpt><trkpt lat="45.63942487963041" lon="10.607857368960486"><ele>82.5</ele><time>2026-04-06T12:53:20Z</time></trkpt><trkpt lat="45.639549559298" lon="10.607913432292566"><ele>83.0</ele><time>2026-04-06T12:53:21Z</time></trkpt><trkpt lat="45.639672481727686" lon="10.607971812276961"><ele>83.5</ele><time>2026-04-06T12:53:22Z</time></trkpt><trkpt lat="45.63979189771485" lon="10.608032011339038"><ele>84.0</ele><time>2026-04-06T12:53:23Z</time></trkpt><trkpt lat="45.639912714013114" lon="10.608091688326546"><ele>84.0</ele><time>2026-04-06T12:53:24Z</time></trkpt><trkpt lat="45.640032538860666" lon="10.608151642301943"><ele>84.0</ele><time>2026-04-06T12:53:25Z</time></trkpt><trkpt lat="45.6401505698792" lon="10.608216195306646"><ele>84.0</ele><time>2026-04-06T12:53:26Z</time></trkpt><trkpt lat="45.64025692429355" lon="10.608289078697208"><ele>84.0</ele><time>2026-04-06T12:53:27Z</time></trkpt><trkpt lat="45.640344378809736" lon="10.608369362813633"><ele>83.33333333333333</ele><time>2026-04-06T12:53:28Z</time></trkpt><trkpt lat="45.64041508575992" lon="10.608439660565573"><ele>82.66666666666667</ele><time>2026-04-06T12:53:29Z</time></trkpt><trkpt lat="45.64047343698092" lon="10.608499587052316"><ele>82.0</ele><time>2026-04-06T12:53:30Z</time></trkpt><trkpt lat="45.64052526400291" lon="10.608563086080688"><ele>81.33333333333334</ele><time>2026-04-06T12:53:31Z</time></trkpt><trkpt lat="45.640606993768024" lon="10.608704164003644"><ele>80.66666666666667</ele><time>2026-04-06T12:53:33Z</time></trkpt><trkpt lat="45.64064604516913" lon="10.608793232598561"><ele>80.0</ele><time>2026-04-06T12:53:34Z</time></trkpt><trkpt lat="45.64068173858937" lon="10.608871680394074"><ele>80.0</ele><time>2026-04-06T12:53:35Z</time></trkpt><trkpt lat="45.640779276481915" lon="10.608978729935576"><ele>80.0</ele><time>2026-04-06T12:53:37Z</time></trkpt><trkpt lat="45.64086202885172" lon="10.609115411741307"><ele>80.0</ele><time>2026-04-06T12:53:39Z</time></trkpt><trkpt lat="45.64089093623484" lon="10.609206934160934"><ele>80.0</ele><time>2026-04-06T12:53:40Z</time></trkpt><trkpt lat="45.64091814193903" lon="10.609300989978786"><ele>80.0</ele><time>2026-04-06T12:53:41Z</time></trkpt><trkpt lat="45.64094876774459" lon="10.60940022719857"><ele>80.0</ele><time>2026-04-06T12:53:42Z</time></trkpt><trkpt lat="45.64098534548735" lon="10.609514582836328"><ele>80.0</ele><time>2026-04-06T12:53:43Z</time></trkpt><trkpt lat="45.641021531116536" lon="10.609630866307077"><ele>80.0</ele><time>2026-04-06T12:53:44Z</time></trkpt><trkpt lat="45.641057320914214" lon="10.609754490809209"><ele>80.0</ele><time>2026-04-06T12:53:45Z</time></trkpt><trkpt lat="45.64109417392639" lon="10.609875941915949"><ele>80.0</ele><time>2026-04-06T12:53:46Z</time></trkpt><trkpt lat="45.64113603483105" lon="10.609995633952106"><ele>81.33333333333334</ele><time>2026-04-06T12:53:47Z</time></trkpt><trkpt lat="45.64117280465042" lon="10.61010664067002"><ele>82.66666666666667</ele><time>2026-04-06T12:53:48Z</time></trkpt><trkpt lat="45.64120528085874" lon="10.610214436201552"><ele>84.0</ele><time>2026-04-06T12:53:49Z</time></trkpt><trkpt lat="45.64123706238158" lon="10.610320645068555"><ele>85.33333333333333</ele><time>2026-04-06T12:53:50Z</time></trkpt><trkpt lat="45.641257485220656" lon="10.610441285234142"><ele>86.66666666666666</ele><time>2026-04-06T12:53:51Z</time></trkpt><trkpt lat="45.641312558174384" lon="10.61054509557443"><ele>88.0</ele><time>2026-04-06T12:53:52Z</time></trkpt><trkpt lat="45.64135039182982" lon="10.610658549095684"><ele>88.0</ele><time>2026-04-06T12:53:53Z</time></trkpt><trkpt lat="45.64138635647942" lon="10.61077277514412"><ele>88.0</ele><time>2026-04-06T12:53:54Z</time></trkpt><trkpt lat="45.64142389191341" lon="10.61089645589395"><ele>88.0</ele><time>2026-04-06T12:53:55Z</time></trkpt><trkpt lat="45.64146498533358" lon="10.611027499039686"><ele>88.0</ele><time>2026-04-06T12:53:56Z</time></trkpt><trkpt lat="45.641509976320336" lon="10.611161284598094"><ele>88.0</ele><time>2026-04-06T12:53:57Z</time></trkpt><trkpt lat="45.64155570546507" lon="10.611299644642232"><ele>87.2</ele><time>2026-04-06T12:53:58Z</time></trkpt><trkpt lat="45.641585034589795" lon="10.611450581227402"><ele>86.4</ele><time>2026-04-06T12:53:59Z</time></trkpt><trkpt lat="45.64163127189617" lon="10.611592433298076"><ele>85.60000000000001</ele><time>2026-04-06T12:54:00Z</time></trkpt><trkpt lat="45.641691367594966" lon="10.611723109338762"><ele>84.80000000000001</ele><time>2026-04-06T12:54:01Z</time></trkpt><trkpt lat="45.64173580215783" lon="10.611856554476281"><ele>84.0</ele><time>2026-04-06T12:54:02Z</time></trkpt><trkpt lat="45.64177774017932" lon="10.611986045771268"><ele>83.4</ele><time>2026-04-06T12:54:03Z</time></trkpt><trkpt lat="45.6418064342316" lon="10.612128197299759"><ele>82.80000000000001</ele><time>2026-04-06T12:54:04Z</time></trkpt><trkpt lat="45.64184887030699" lon="10.612257997310868"><ele>82.19999999999999</ele><time>2026-04-06T12:54:05Z</time></trkpt><trkpt lat="45.6418901404667" lon="10.612379484466091"><ele>81.6</ele><time>2026-04-06T12:54:06Z</time></trkpt><trkpt lat="45.64192637432688" lon="10.612491889080813"><ele>81.0</ele><time>2026-04-06T12:54:07Z</time></trkpt><trkpt lat="45.641975603775094" lon="10.612581687642804"><ele>81.16666666666667</ele><time>2026-04-06T12:54:08Z</time></trkpt><trkpt lat="45.64200532362039" lon="10.6126776891119"><ele>81.33333333333333</ele><time>2026-04-06T12:54:09Z</time></trkpt><trkpt lat="45.642033184718386" lon="10.612767115149358"><ele>81.5</ele><time>2026-04-06T12:54:10Z</time></trkpt><trkpt lat="45.642083695697124" lon="10.61292591794984"><ele>81.66666666666666</ele><time>2026-04-06T12:54:12Z</time></trkpt><trkpt lat="45.642091957026636" lon="10.613016362080765"><ele>81.83333333333333</ele><time>2026-04-06T12:54:13Z</time></trkpt><trkpt lat="45.64212061465441" lon="10.613098333696511"><ele>82.0</ele><time>2026-04-06T12:54:14Z</time></trkpt><trkpt lat="45.64216980390304" lon="10.613245955691111"><ele>82.0</ele><time>2026-04-06T12:54:16Z</time></trkpt><trkpt lat="45.64215525303238" lon="10.613385137800194"><ele>82.0</ele><time>2026-04-06T12:54:18Z</time></trkpt><trkpt lat="45.64211433639107" lon="10.613511941848214"><ele>82.0</ele><time>2026-04-06T12:54:20Z</time></trkpt><trkpt lat="45.642116053967705" lon="10.613641800597595"><ele>82.0</ele><time>2026-04-06T12:54:22Z</time></trkpt><trkpt lat="45.64219390435321" lon="10.613726382710613"><ele>82.0</ele><time>2026-04-06T12:54:24Z</time></trkpt><trkpt lat="45.64230002475328" lon="10.613775333856893"><ele>81.66666666666666</ele><time>2026-04-06T12:54:26Z</time></trkpt><trkpt lat="45.64239266946788" lon="10.613881428928854"><ele>81.33333333333333</ele><time>2026-04-06T12:54:28Z</time></trkpt><trkpt lat="45.642417263648156" lon="10.613970371779214"><ele>81.0</ele><time>2026-04-06T12:54:29Z</time></trkpt><trkpt lat="45.64246893257822" lon="10.614052434409226"><ele>80.66666666666667</ele><time>2026-04-06T12:54:30Z</time></trkpt><trkpt lat="45.64250728798097" lon="10.614153208612414"><ele>80.33333333333334</ele><time>2026-04-06T12:54:31Z</time></trkpt><trkpt lat="45.6425518862721" lon="10.614249860365796"><ele>80.0</ele><time>2026-04-06T12:54:32Z</time></trkpt><trkpt lat="45.64260186696355" lon="10.614347197462141"><ele>80.0</ele><time>2026-04-06T12:54:33Z</time></trkpt><trkpt lat="45.642657416705475" lon="10.614453652343222"><ele>80.0</ele><time>2026-04-06T12:54:34Z</time></trkpt><trkpt lat="45.64272018285262" lon="10.614556958629905"><ele>80.0</ele><time>2026-04-06T12:54:35Z</time></trkpt><trkpt lat="45.64278495753167" lon="10.61465616747238"><ele>80.0</ele><time>2026-04-06T12:54:36Z</time></trkpt><trkpt lat="45.642851055638715" lon="10.614753378640359"><ele>80.0</ele><time>2026-04-06T12:54:37Z</time></trkpt><trkpt lat="45.64292646388509" lon="10.61485727026351"><ele>80.25</ele><time>2026-04-06T12:54:38Z</time></trkpt><trkpt lat="45.64300334056146" lon="10.614996115643976"><ele>80.5</ele><time>2026-04-06T12:54:39Z</time></trkpt><trkpt lat="45.643101938978916" lon="10.615136356992103"><ele>80.75</ele><time>2026-04-06T12:54:40Z</time></trkpt><trkpt lat="45.643212166382234" lon="10.615264153641293"><ele>81.0</ele><time>2026-04-06T12:54:41Z</time></trkpt><trkpt lat="45.64331043602351" lon="10.615413035121453"><ele>81.25</ele><time>2026-04-06T12:54:42Z</time></trkpt><trkpt lat="45.64341446470887" lon="10.615562332165254"><ele>81.5</ele><time>2026-04-06T12:54:43Z</time></trkpt><trkpt lat="45.64351889238006" lon="10.615712604780086"><ele>81.75</ele><time>2026-04-06T12:54:44Z</time></trkpt><trkpt lat="45.64362298006178" lon="10.615863274641713"><ele>82.0</ele><time>2026-04-06T12:54:45Z</time></trkpt><trkpt lat="45.643728896435555" lon="10.616013967644928"><ele>81.75</ele><time>2026-04-06T12:54:46Z</time></trkpt><trkpt lat="45.643832569627406" lon="10.616164397180054"><ele>81.5</ele><time>2026-04-06T12:54:47Z</time></trkpt><trkpt lat="45.643937646361" lon="10.616315420320953"><ele>81.25</ele><time>2026-04-06T12:54:48Z</time></trkpt><trkpt lat="45.644043850255635" lon="10.61646182958882"><ele>81.0</ele><time>2026-04-06T12:54:49Z</time></trkpt><trkpt lat="45.64414916976849" lon="10.616595246661952"><ele>81.0</ele><time>2026-04-06T12:54:50Z</time></trkpt><trkpt lat="45.6442543401135" lon="10.61671566091826"><ele>81.0</ele><time>2026-04-06T12:54:51Z</time></trkpt><trkpt lat="45.6443619001301" lon="10.616821840548322"><ele>81.0</ele><time>2026-04-06T12:54:52Z</time></trkpt><trkpt lat="45.64448084251289" lon="10.616918330944229"><ele>81.0</ele><time>2026-04-06T12:54:53Z</time></trkpt><trkpt lat="45.64460558050716" lon="10.617004943067927"><ele>79.66666666666667</ele><time>2026-04-06T12:54:54Z</time></trkpt><trkpt lat="45.64471914871281" lon="10.617151364317202"><ele>78.33333333333334</ele><time>2026-04-06T12:54:55Z</time></trkpt><trkpt lat="45.64485808401354" lon="10.61722538533056"><ele>77.0</ele><time>2026-04-06T12:54:56Z</time></trkpt><trkpt lat="45.645027710961344" lon="10.617175654490584"><ele>77.0</ele><time>2026-04-06T12:54:57Z</time></trkpt><trkpt lat="45.64517401580581" lon="10.617225300546234"><ele>77.0</ele><time>2026-04-06T12:54:58Z</time></trkpt><trkpt lat="45.64532594814055" lon="10.617265463602056"><ele>77.0</ele><time>2026-04-06T12:54:59Z</time></trkpt><trkpt lat="45.64546526620771" lon="10.617325578315553"><ele>80.5</ele><time>2026-04-06T12:55:00Z</time></trkpt><trkpt lat="45.64560490499528" lon="10.61737676832857"><ele>84.0</ele><time>2026-04-06T12:55:01Z</time></trkpt><trkpt lat="45.64574880761219" lon="10.617421798153227"><ele>87.5</ele><time>2026-04-06T12:55:02Z</time></trkpt><trkpt lat="45.64588344590586" lon="10.617488810781389"><ele>91.0</ele><time>2026-04-06T12:55:03Z</time></trkpt><trkpt lat="45.64600597161937" lon="10.617607275331457"><ele>91.0</ele><time>2026-04-06T12:55:04Z</time></trkpt><trkpt lat="45.64607543073835" lon="10.617793105613302"><ele>91.0</ele><time>2026-04-06T12:55:05Z</time></trkpt><trkpt lat="45.646157496538564" lon="10.617977221176378"><ele>91.0</ele><time>2026-04-06T12:55:06Z</time></trkpt><trkpt lat="45.646255165742694" lon="10.618149179419467"><ele>97.66666666666666</ele><time>2026-04-06T12:55:07Z</time></trkpt><trkpt lat="45.646344876324044" lon="10.618325173047566"><ele>104.33333333333333</ele><time>2026-04-06T12:55:08Z</time></trkpt><trkpt lat="45.64644459248794" lon="10.618486882192144"><ele>111.0</ele><time>2026-04-06T12:55:09Z</time></trkpt><trkpt lat="45.646546618486525" lon="10.618649306164558"><ele>101.33333333333333</ele><time>2026-04-06T12:55:10Z</time></trkpt><trkpt lat="45.646653806322604" lon="10.618818292440366"><ele>91.66666666666666</ele><time>2026-04-06T12:55:11Z</time></trkpt><trkpt lat="45.64676231733265" lon="10.618997459296741"><ele>82.0</ele><time>2026-04-06T12:55:12Z</time></trkpt><trkpt lat="45.6468514157576" lon="10.61920136263213"><ele>82.0</ele><time>2026-04-06T12:55:13Z</time></trkpt><trkpt lat="45.64695684721596" lon="10.619393648396677"><ele>82.0</ele><time>2026-04-06T12:55:14Z</time></trkpt><trkpt lat="45.64704731593554" lon="10.61960276948807"><ele>82.0</ele><time>2026-04-06T12:55:15Z</time></trkpt><trkpt lat="45.647138316680895" lon="10.619809873120037"><ele>81.66666666666666</ele><time>2026-04-06T12:55:16Z</time></trkpt><trkpt lat="45.64721696223603" lon="10.620027833231166"><ele>81.33333333333333</ele><time>2026-04-06T12:55:17Z</time></trkpt><trkpt lat="45.647309557503824" lon="10.620234750760511"><ele>81.0</ele><time>2026-04-06T12:55:18Z</time></trkpt><trkpt lat="45.6474140878267" lon="10.620423959934858"><ele>81.0</ele><time>2026-04-06T12:55:19Z</time></trkpt><trkpt lat="45.64750744747308" lon="10.620623551877394"><ele>81.0</ele><time>2026-04-06T12:55:20Z</time></trkpt><trkpt lat="45.64758567803291" lon="10.620835741616709"><ele>81.0</ele><time>2026-04-06T12:55:21Z</time></trkpt><trkpt lat="45.64767854819492" lon="10.621037089737815"><ele>77.0</ele><time>2026-04-06T12:55:22Z</time></trkpt><trkpt lat="45.64776887807183" lon="10.621233451329667"><ele>73.0</ele><time>2026-04-06T12:55:23Z</time></trkpt><trkpt lat="45.647858110107975" lon="10.62142779778176"><ele>69.0</ele><time>2026-04-06T12:55:24Z</time></trkpt><trkpt lat="45.64794722067335" lon="10.621619618123528"><ele>71.33333333333333</ele><time>2026-04-06T12:55:25Z</time></trkpt><trkpt lat="45.64803984186853" lon="10.621805827493475"><ele>73.66666666666666</ele><time>2026-04-06T12:55:26Z</time></trkpt><trkpt lat="45.64813742168187" lon="10.621976785109213"><ele>76.0</ele><time>2026-04-06T12:55:27Z</time></trkpt><trkpt lat="45.64824340571005" lon="10.622136558125387"><ele>76.0</ele><time>2026-04-06T12:55:28Z</time></trkpt><trkpt lat="45.64835566507681" lon="10.622281114317254"><ele>76.0</ele><time>2026-04-06T12:55:29Z</time></trkpt><trkpt lat="45.64847206335085" lon="10.622433068058907"><ele>76.0</ele><time>2026-04-06T12:55:30Z</time></trkpt><trkpt lat="45.64858635089891" lon="10.622590293590676"><ele>80.33333333333333</ele><time>2026-04-06T12:55:31Z</time></trkpt><trkpt lat="45.648698939594645" lon="10.622752133034764"><ele>84.66666666666667</ele><time>2026-04-06T12:55:32Z</time></trkpt><trkpt lat="45.64880502531284" lon="10.622922572991204"><ele>89.0</ele><time>2026-04-06T12:55:33Z</time></trkpt><trkpt lat="45.6489060920988" lon="10.623110118622245"><ele>89.0</ele><time>2026-04-06T12:55:34Z</time></trkpt><trkpt lat="45.64899881561699" lon="10.62330157713871"><ele>89.0</ele><time>2026-04-06T12:55:35Z</time></trkpt><trkpt lat="45.649080407783096" lon="10.623494198608316"><ele>89.0</ele><time>2026-04-06T12:55:36Z</time></trkpt><trkpt lat="45.649163427497676" lon="10.623692367471302"><ele>83.0</ele><time>2026-04-06T12:55:37Z</time></trkpt><trkpt lat="45.64924977074239" lon="10.623897317483792"><ele>77.0</ele><time>2026-04-06T12:55:38Z</time></trkpt><trkpt lat="45.64933700861357" lon="10.624103152822077"><ele>71.0</ele><time>2026-04-06T12:55:39Z</time></trkpt><trkpt lat="45.64943410959041" lon="10.624307625073998"><ele>75.33333333333334</ele><time>2026-04-06T12:55:40Z</time></trkpt><trkpt lat="45.649540880426194" lon="10.624507875577004"><ele>79.66666666666667</ele><time>2026-04-06T12:55:41Z</time></trkpt><trkpt lat="45.64965098608044" lon="10.624704534366796"><ele>84.0</ele><time>2026-04-06T12:55:42Z</time></trkpt><trkpt lat="45.64976713185248" lon="10.624903039940758"><ele>84.0</ele><time>2026-04-06T12:55:43Z</time></trkpt><trkpt lat="45.64989252631305" lon="10.625086255410556"><ele>84.0</ele><time>2026-04-06T12:55:44Z</time></trkpt><trkpt lat="45.65003069074755" lon="10.625245016521072"><ele>84.0</ele><time>2026-04-06T12:55:45Z</time></trkpt><trkpt lat="45.65015954699534" lon="10.625416726687883"><ele>87.0</ele><time>2026-04-06T12:55:46Z</time></trkpt><trkpt lat="45.65028808888727" lon="10.625592308542892"><ele>90.0</ele><time>2026-04-06T12:55:47Z</time></trkpt><trkpt lat="45.650403845609695" lon="10.625785469429424"><ele>93.0</ele><time>2026-04-06T12:55:48Z</time></trkpt><trkpt lat="45.65051971296653" lon="10.625972383750884"><ele>89.66666666666667</ele><time>2026-04-06T12:55:49Z</time></trkpt><trkpt lat="45.65062774716384" lon="10.62616378638856"><ele>86.33333333333334</ele><time>2026-04-06T12:55:50Z</time></trkpt><trkpt lat="45.65074506282403" lon="10.62635122514228"><ele>83.0</ele><time>2026-04-06T12:55:51Z</time></trkpt><trkpt lat="45.65084655935945" lon="10.626556669641358"><ele>83.0</ele><time>2026-04-06T12:55:52Z</time></trkpt><trkpt lat="45.65095213509032" lon="10.626764830238352"><ele>83.0</ele><time>2026-04-06T12:55:53Z</time></trkpt><trkpt lat="45.6510585815556" lon="10.626967696386169"><ele>83.0</ele><time>2026-04-06T12:55:54Z</time></trkpt><trkpt lat="45.65116722823227" lon="10.627163974474108"><ele>89.0</ele><time>2026-04-06T12:55:55Z</time></trkpt><trkpt lat="45.65128500910301" lon="10.627349762035843"><ele>95.0</ele><time>2026-04-06T12:55:56Z</time></trkpt><trkpt lat="45.65141348486938" lon="10.627523049917002"><ele>101.0</ele><time>2026-04-06T12:55:57Z</time></trkpt><trkpt lat="45.65155000960047" lon="10.627688925950727"><ele>103.0</ele><time>2026-04-06T12:55:58Z</time></trkpt><trkpt lat="45.65169177098038" lon="10.62783814465971"><ele>105.0</ele><time>2026-04-06T12:55:59Z</time></trkpt><trkpt lat="45.65183604973417" lon="10.627984273644016"><ele>107.0</ele><time>2026-04-06T12:56:00Z</time></trkpt><trkpt lat="45.65197348563716" lon="10.62813345967412"><ele>107.0</ele><time>2026-04-06T12:56:01Z</time></trkpt><trkpt lat="45.65210898419998" lon="10.628278848610382"><ele>107.0</ele><time>2026-04-06T12:56:02Z</time></trkpt><trkpt lat="45.65225256802232" lon="10.628406555674491"><ele>107.0</ele><time>2026-04-06T12:56:03Z</time></trkpt><trkpt lat="45.65240802588835" lon="10.628506363523291"><ele>107.0</ele><time>2026-04-06T12:56:04Z</time></trkpt><trkpt lat="45.65255942792712" lon="10.628601471233253"><ele>107.0</ele><time>2026-04-06T12:56:05Z</time></trkpt><trkpt lat="45.65269860572647" lon="10.62870590169845"><ele>107.0</ele><time>2026-04-06T12:56:06Z</time></trkpt><trkpt lat="45.652813341248" lon="10.628836381040367"><ele>106.25</ele><time>2026-04-06T12:56:07Z</time></trkpt><trkpt lat="45.65290743927937" lon="10.628976656583182"><ele>105.5</ele><time>2026-04-06T12:56:08Z</time></trkpt><trkpt lat="45.65299925585145" lon="10.629124433043309"><ele>104.75</ele><time>2026-04-06T12:56:09Z</time></trkpt><trkpt lat="45.65309340495174" lon="10.629283390799372"><ele>104.0</ele><time>2026-04-06T12:56:10Z</time></trkpt><trkpt lat="45.653189258657335" lon="10.62945658439456"><ele>98.33333333333333</ele><time>2026-04-06T12:56:11Z</time></trkpt><trkpt lat="45.65328365306366" lon="10.629634018393691"><ele>92.66666666666666</ele><time>2026-04-06T12:56:12Z</time></trkpt><trkpt lat="45.65337483674943" lon="10.629806239723102"><ele>87.0</ele><time>2026-04-06T12:56:13Z</time></trkpt><trkpt lat="45.65346419547986" lon="10.629976301123742"><ele>87.0</ele><time>2026-04-06T12:56:14Z</time></trkpt><trkpt lat="45.65355583499922" lon="10.630150612317813"><ele>87.0</ele><time>2026-04-06T12:56:15Z</time></trkpt><trkpt lat="45.65365030696126" lon="10.630329672493767"><ele>87.0</ele><time>2026-04-06T12:56:16Z</time></trkpt><trkpt lat="45.65374756904976" lon="10.63051935642336"><ele>90.66666666666666</ele><time>2026-04-06T12:56:17Z</time></trkpt><trkpt lat="45.65383843587906" lon="10.63071387869269"><ele>94.33333333333333</ele><time>2026-04-06T12:56:18Z</time></trkpt><trkpt lat="45.653924865772666" lon="10.630910369323264"><ele>98.0</ele><time>2026-04-06T12:56:19Z</time></trkpt><trkpt lat="45.65400719132705" lon="10.631110196702927"><ele>93.0</ele><time>2026-04-06T12:56:20Z</time></trkpt><trkpt lat="45.654089806352225" lon="10.631312837598108"><ele>88.0</ele><time>2026-04-06T12:56:21Z</time></trkpt><trkpt lat="45.65416995114022" lon="10.631511335688737"><ele>83.0</ele><time>2026-04-06T12:56:22Z</time></trkpt><trkpt lat="45.65424435778379" lon="10.631698272588899"><ele>83.0</ele><time>2026-04-06T12:56:23Z</time></trkpt><trkpt lat="45.65431652440408" lon="10.631880241373034"><ele>83.0</ele><time>2026-04-06T12:56:24Z</time></trkpt><trkpt lat="45.654383634020384" lon="10.632050483021517"><ele>83.0</ele><time>2026-04-06T12:56:25Z</time></trkpt><trkpt lat="45.65444319387408" lon="10.63221594573378"><ele>83.0</ele><time>2026-04-06T12:56:26Z</time></trkpt><trkpt lat="45.65449978480919" lon="10.632389076619603"><ele>83.75</ele><time>2026-04-06T12:56:27Z</time></trkpt><trkpt lat="45.65456188188315" lon="10.632568790075783"><ele>84.5</ele><time>2026-04-06T12:56:28Z</time></trkpt><trkpt lat="45.654638551897406" lon="10.632742676628247"><ele>85.25</ele><time>2026-04-06T12:56:29Z</time></trkpt><trkpt lat="45.65473738224627" lon="10.632908491218359"><ele>86.0</ele><time>2026-04-06T12:56:30Z</time></trkpt><trkpt lat="45.65484147348328" lon="10.633070546634219"><ele>86.0</ele><time>2026-04-06T12:56:31Z</time></trkpt><trkpt lat="45.654944900593456" lon="10.63322957220512"><ele>86.0</ele><time>2026-04-06T12:56:32Z</time></trkpt><trkpt lat="45.655051535949255" lon="10.633397842056764"><ele>86.0</ele><time>2026-04-06T12:56:33Z</time></trkpt><trkpt lat="45.655154893250725" lon="10.6335609390908"><ele>88.75</ele><time>2026-04-06T12:56:34Z</time></trkpt><trkpt lat="45.65525738136745" lon="10.633716260046398"><ele>91.5</ele><time>2026-04-06T12:56:35Z</time></trkpt><trkpt lat="45.65535531445443" lon="10.633859849165297"><ele>94.25</ele><time>2026-04-06T12:56:36Z</time></trkpt><trkpt lat="45.6554553513083" lon="10.633996338656438"><ele>97.0</ele><time>2026-04-06T12:56:37Z</time></trkpt><trkpt lat="45.65554838708942" lon="10.634138650398494"><ele>97.0</ele><time>2026-04-06T12:56:38Z</time></trkpt><trkpt lat="45.65562940745505" lon="10.63429951641777"><ele>97.0</ele><time>2026-04-06T12:56:39Z</time></trkpt><trkpt lat="45.6557084212977" lon="10.634472421171637"><ele>97.0</ele><time>2026-04-06T12:56:40Z</time></trkpt><trkpt lat="45.65579329053426" lon="10.634645665728966"><ele>97.0</ele><time>2026-04-06T12:56:41Z</time></trkpt><trkpt lat="45.655900168927126" lon="10.63479919173892"><ele>96.0</ele><time>2026-04-06T12:56:42Z</time></trkpt><trkpt lat="45.65600871945225" lon="10.63495421559202"><ele>95.0</ele><time>2026-04-06T12:56:43Z</time></trkpt><trkpt lat="45.65611532683541" lon="10.635112953122478"><ele>94.0</ele><time>2026-04-06T12:56:44Z</time></trkpt><trkpt lat="45.65622690069198" lon="10.635252437512747"><ele>92.5</ele><time>2026-04-06T12:56:45Z</time></trkpt><trkpt lat="45.65633814272922" lon="10.635384509828118"><ele>91.0</ele><time>2026-04-06T12:56:46Z</time></trkpt><trkpt lat="45.65645595962424" lon="10.635507856493632"><ele>89.5</ele><time>2026-04-06T12:56:47Z</time></trkpt><trkpt lat="45.65657155159593" lon="10.635623960373595"><ele>88.0</ele><time>2026-04-06T12:56:48Z</time></trkpt><trkpt lat="45.65669226382502" lon="10.635742901065486"><ele>88.0</ele><time>2026-04-06T12:56:49Z</time></trkpt><trkpt lat="45.65682339680314" lon="10.635857093822597"><ele>88.0</ele><time>2026-04-06T12:56:50Z</time></trkpt><trkpt lat="45.65696080163442" lon="10.63595368754997"><ele>88.0</ele><time>2026-04-06T12:56:51Z</time></trkpt><trkpt lat="45.65709451395749" lon="10.636059299587949"><ele>84.66666666666666</ele><time>2026-04-06T12:56:52Z</time></trkpt><trkpt lat="45.65721600868138" lon="10.63619021502426"><ele>81.33333333333333</ele><time>2026-04-06T12:56:53Z</time></trkpt><trkpt lat="45.657331669885636" lon="10.636353893063186"><ele>78.0</ele><time>2026-04-06T12:56:54Z</time></trkpt><trkpt lat="45.65744993059814" lon="10.636518865578655"><ele>78.0</ele><time>2026-04-06T12:56:55Z</time></trkpt><trkpt lat="45.65756470372439" lon="10.63668364917626"><ele>78.0</ele><time>2026-04-06T12:56:56Z</time></trkpt><trkpt lat="45.657673280078626" lon="10.636839535845239"><ele>78.0</ele><time>2026-04-06T12:56:57Z</time></trkpt><trkpt lat="45.657777315501875" lon="10.636986553579476"><ele>81.33333333333333</ele><time>2026-04-06T12:56:58Z</time></trkpt><trkpt lat="45.657885177891515" lon="10.637132953092902"><ele>84.66666666666666</ele><time>2026-04-06T12:56:59Z</time></trkpt><trkpt lat="45.65800373658071" lon="10.637273443467764"><ele>88.0</ele><time>2026-04-06T12:57:00Z</time></trkpt><trkpt lat="45.6581374473006" lon="10.637389472143129"><ele>88.0</ele><time>2026-04-06T12:57:01Z</time></trkpt><trkpt lat="45.65825293279215" lon="10.637543291703247"><ele>88.0</ele><time>2026-04-06T12:57:02Z</time></trkpt><trkpt lat="45.65837326487596" lon="10.637684864316773"><ele>88.0</ele><time>2026-04-06T12:57:03Z</time></trkpt><trkpt lat="45.658477939087966" lon="10.637847801450903"><ele>89.25</ele><time>2026-04-06T12:57:04Z</time></trkpt><trkpt lat="45.65857778139199" lon="10.638013207297782"><ele>90.5</ele><time>2026-04-06T12:57:05Z</time></trkpt><trkpt lat="45.65867958069241" lon="10.638172099482205"><ele>91.75</ele><time>2026-04-06T12:57:06Z</time></trkpt><trkpt lat="45.65879832253998" lon="10.638293792624294"><ele>93.0</ele><time>2026-04-06T12:57:07Z</time></trkpt><trkpt lat="45.658909171895814" lon="10.638425647956458"><ele>93.0</ele><time>2026-04-06T12:57:08Z</time></trkpt><trkpt lat="45.65900880896119" lon="10.638565323308619"><ele>93.0</ele><time>2026-04-06T12:57:09Z</time></trkpt><trkpt lat="45.65911291567511" lon="10.63868662434994"><ele>93.0</ele><time>2026-04-06T12:57:10Z</time></trkpt><trkpt lat="45.65921192527344" lon="10.638801986560177"><ele>93.0</ele><time>2026-04-06T12:57:11Z</time></trkpt><trkpt lat="45.65931033870684" lon="10.638919885106557"><ele>91.75</ele><time>2026-04-06T12:57:12Z</time></trkpt><trkpt lat="45.659389161409784" lon="10.639073617138942"><ele>90.5</ele><time>2026-04-06T12:57:13Z</time></trkpt><trkpt lat="45.65943485634289" lon="10.639249323717419"><ele>89.25</ele><time>2026-04-06T12:57:14Z</time></trkpt><trkpt lat="45.65949003780555" lon="10.639433412832332"><ele>88.0</ele><time>2026-04-06T12:57:15Z</time></trkpt><trkpt lat="45.659567420826626" lon="10.639606257990874"><ele>88.0</ele><time>2026-04-06T12:57:16Z</time></trkpt><trkpt lat="45.659661432732634" lon="10.639767321340086"><ele>88.0</ele><time>2026-04-06T12:57:17Z</time></trkpt><trkpt lat="45.659753439881946" lon="10.639921444448543"><ele>88.0</ele><time>2026-04-06T12:57:18Z</time></trkpt><trkpt lat="45.65984714307714" lon="10.640076802916097"><ele>88.0</ele><time>2026-04-06T12:57:19Z</time></trkpt><trkpt lat="45.65994179819711" lon="10.640233740220589"><ele>91.66666666666666</ele><time>2026-04-06T12:57:20Z</time></trkpt><trkpt lat="45.660046789500214" lon="10.640407814680993"><ele>95.33333333333333</ele><time>2026-04-06T12:57:21Z</time></trkpt><trkpt lat="45.66016345652232" lon="10.640601250609668"><ele>99.0</ele><time>2026-04-06T12:57:22Z</time></trkpt><trkpt lat="45.660284344443546" lon="10.640801690991994"><ele>99.0</ele><time>2026-04-06T12:57:23Z</time></trkpt><trkpt lat="45.660411598626034" lon="10.641007432296762"><ele>99.0</ele><time>2026-04-06T12:57:24Z</time></trkpt><trkpt lat="45.66055194927996" lon="10.641208638663846"><ele>99.0</ele><time>2026-04-06T12:57:25Z</time></trkpt><trkpt lat="45.66069645964946" lon="10.6414154244278"><ele>93.66666666666667</ele><time>2026-04-06T12:57:26Z</time></trkpt><trkpt lat="45.66083818331968" lon="10.641623554130154"><ele>88.33333333333334</ele><time>2026-04-06T12:57:27Z</time></trkpt><trkpt lat="45.660972272458125" lon="10.641831195881407"><ele>83.0</ele><time>2026-04-06T12:57:28Z</time></trkpt><trkpt lat="45.661100442300885" lon="10.642047901104103"><ele>85.33333333333334</ele><time>2026-04-06T12:57:29Z</time></trkpt><trkpt lat="45.661250957992294" lon="10.642227729774028"><ele>87.66666666666667</ele><time>2026-04-06T12:57:30Z</time></trkpt><trkpt lat="45.661396729731415" lon="10.64240990984376"><ele>90.0</ele><time>2026-04-06T12:57:31Z</time></trkpt><trkpt lat="45.66155263007544" lon="10.642573298927553"><ele>90.0</ele><time>2026-04-06T12:57:32Z</time></trkpt><trkpt lat="45.66170072150207" lon="10.642737873031733"><ele>90.0</ele><time>2026-04-06T12:57:33Z</time></trkpt><trkpt lat="45.66184166713298" lon="10.642894974900043"><ele>90.0</ele><time>2026-04-06T12:57:34Z</time></trkpt><trkpt lat="45.661982357812164" lon="10.643052156421877"><ele>92.33333333333334</ele><time>2026-04-06T12:57:35Z</time></trkpt><trkpt lat="45.662122417080944" lon="10.643200436581386"><ele>94.66666666666667</ele><time>2026-04-06T12:57:36Z</time></trkpt><trkpt lat="45.66225966568289" lon="10.64335205552879"><ele>97.0</ele><time>2026-04-06T12:57:37Z</time></trkpt><trkpt lat="45.66239556806132" lon="10.643505242009835"><ele>100.66666666666667</ele><time>2026-04-06T12:57:38Z</time></trkpt><trkpt lat="45.66253142837707" lon="10.643660032131823"><ele>104.33333333333334</ele><time>2026-04-06T12:57:39Z</time></trkpt><trkpt lat="45.66266812503768" lon="10.64381135649895"><ele>108.0</ele><time>2026-04-06T12:57:40Z</time></trkpt><trkpt lat="45.66279853926767" lon="10.6439674585032"><ele>108.0</ele><time>2026-04-06T12:57:41Z</time></trkpt><trkpt lat="45.6629301059472" lon="10.64412413551311"><ele>108.0</ele><time>2026-04-06T12:57:42Z</time></trkpt><trkpt lat="45.663050033297495" lon="10.64428310711238"><ele>108.0</ele><time>2026-04-06T12:57:43Z</time></trkpt><trkpt lat="45.66316144065625" lon="10.644425594163739"><ele>100.75</ele><time>2026-04-06T12:57:44Z</time></trkpt><trkpt lat="45.6632688023243" lon="10.644549767362058"><ele>93.5</ele><time>2026-04-06T12:57:45Z</time></trkpt><trkpt lat="45.66336533533008" lon="10.64466202529293"><ele>86.25</ele><time>2026-04-06T12:57:46Z</time></trkpt><trkpt lat="45.663467638424066" lon="10.644770192341431"><ele>79.0</ele><time>2026-04-06T12:57:47Z</time></trkpt><trkpt lat="45.66357421570842" lon="10.644870894999281"><ele>84.2</ele><time>2026-04-06T12:57:48Z</time></trkpt><trkpt lat="45.66367895596504" lon="10.64495073422927"><ele>89.4</ele><time>2026-04-06T12:57:49Z</time></trkpt><trkpt lat="45.66377679713284" lon="10.645017378818473"><ele>94.6</ele><time>2026-04-06T12:57:50Z</time></trkpt><trkpt lat="45.66388081961771" lon="10.645076410023913"><ele>99.8</ele><time>2026-04-06T12:57:51Z</time></trkpt><trkpt lat="45.66397877622448" lon="10.645133682909389"><ele>105.0</ele><time>2026-04-06T12:57:52Z</time></trkpt><trkpt lat="45.66407321348808" lon="10.645184615535427"><ele>105.0</ele><time>2026-04-06T12:57:53Z</time></trkpt><trkpt lat="45.664153246989336" lon="10.645217583070956"><ele>105.0</ele><time>2026-04-06T12:57:54Z</time></trkpt><trkpt lat="45.66422458626963" lon="10.64523963025449"><ele>105.0</ele><time>2026-04-06T12:57:55Z</time></trkpt><trkpt lat="45.664290229663365" lon="10.645286073982577"><ele>105.0</ele><time>2026-04-06T12:57:56Z</time></trkpt><trkpt lat="45.664365831476665" lon="10.645330429790588"><ele>105.0</ele><time>2026-04-06T12:57:57Z</time></trkpt><trkpt lat="45.66445145783743" lon="10.645363722669726"><ele>105.0</ele><time>2026-04-06T12:57:58Z</time></trkpt><trkpt lat="45.6645360700161" lon="10.645434955239253"><ele>103.0</ele><time>2026-04-06T12:57:59Z</time></trkpt><trkpt lat="45.66461022071993" lon="10.645541775195465"><ele>101.0</ele><time>2026-04-06T12:58:00Z</time></trkpt><trkpt lat="45.664697859487205" lon="10.645647832109862"><ele>99.0</ele><time>2026-04-06T12:58:01Z</time></trkpt><trkpt lat="45.66478135113088" lon="10.64577522045196"><ele>97.0</ele><time>2026-04-06T12:58:02Z</time></trkpt><trkpt lat="45.66487967637572" lon="10.645907361510119"><ele>97.0</ele><time>2026-04-06T12:58:03Z</time></trkpt><trkpt lat="45.66496300859077" lon="10.646066926531844"><ele>97.0</ele><time>2026-04-06T12:58:04Z</time></trkpt><trkpt lat="45.66504773462774" lon="10.64622131409452"><ele>97.0</ele><time>2026-04-06T12:58:05Z</time></trkpt><trkpt lat="45.6651102147873" lon="10.646390179196477"><ele>97.0</ele><time>2026-04-06T12:58:06Z</time></trkpt><trkpt lat="45.66519159865797" lon="10.646519611274922"><ele>93.75</ele><time>2026-04-06T12:58:07Z</time></trkpt><trkpt lat="45.66526122580036" lon="10.646650457968642"><ele>90.5</ele><time>2026-04-06T12:58:08Z</time></trkpt><trkpt lat="45.66534230508556" lon="10.646772551604249"><ele>87.25</ele><time>2026-04-06T12:58:09Z</time></trkpt><trkpt lat="45.665438824229184" lon="10.646895349496367"><ele>84.0</ele><time>2026-04-06T12:58:10Z</time></trkpt><trkpt lat="45.665544200615926" lon="10.647010144345863"><ele>84.0</ele><time>2026-04-06T12:58:11Z</time></trkpt><trkpt lat="45.66565582568681" lon="10.647123999735003"><ele>84.0</ele><time>2026-04-06T12:58:12Z</time></trkpt><trkpt lat="45.66577509584956" lon="10.647242433197249"><ele>84.0</ele><time>2026-04-06T12:58:13Z</time></trkpt><trkpt lat="45.66591747993848" lon="10.647356618804153"><ele>84.0</ele><time>2026-04-06T12:58:14Z</time></trkpt><trkpt lat="45.66609092449395" lon="10.64748487120521"><ele>83.66666666666667</ele><time>2026-04-06T12:58:15Z</time></trkpt><trkpt lat="45.666255864867686" lon="10.64762205079086"><ele>83.33333333333334</ele><time>2026-04-06T12:58:16Z</time></trkpt><trkpt lat="45.66641478550434" lon="10.647763334804447"><ele>83.0</ele><time>2026-04-06T12:58:17Z</time></trkpt><trkpt lat="45.666579738565936" lon="10.647875715604384"><ele>83.0</ele><time>2026-04-06T12:58:18Z</time></trkpt><trkpt lat="45.666750325437114" lon="10.64796432724311"><ele>83.0</ele><time>2026-04-06T12:58:19Z</time></trkpt><trkpt lat="45.6669183553119" lon="10.648089928640832"><ele>83.0</ele><time>2026-04-06T12:58:20Z</time></trkpt><trkpt lat="45.667060996596554" lon="10.648255128360978"><ele>81.33333333333334</ele><time>2026-04-06T12:58:21Z</time></trkpt><trkpt lat="45.66720452562079" lon="10.64843711133082"><ele>79.66666666666667</ele><time>2026-04-06T12:58:22Z</time></trkpt><trkpt lat="45.667355814973845" lon="10.64860469497238"><ele>78.0</ele><time>2026-04-06T12:58:23Z</time></trkpt><trkpt lat="45.66749659958306" lon="10.648792735345479"><ele>78.0</ele><time>2026-04-06T12:58:24Z</time></trkpt><trkpt lat="45.66763784476508" lon="10.648972012752006"><ele>78.0</ele><time>2026-04-06T12:58:25Z</time></trkpt><trkpt lat="45.66778056378492" lon="10.649140215526003"><ele>78.0</ele><time>2026-04-06T12:58:26Z</time></trkpt><trkpt lat="45.66793104121328" lon="10.649291909868102"><ele>76.0</ele><time>2026-04-06T12:58:27Z</time></trkpt><trkpt lat="45.66810084504389" lon="10.649405776905311"><ele>74.0</ele><time>2026-04-06T12:58:28Z</time></trkpt><trkpt lat="45.66827930643726" lon="10.64950144952014"><ele>72.0</ele><time>2026-04-06T12:58:29Z</time></trkpt><trkpt lat="45.668460973801665" lon="10.649597505011752"><ele>74.0</ele><time>2026-04-06T12:58:30Z</time></trkpt><trkpt lat="45.66864306155096" lon="10.649692544194304"><ele>76.0</ele><time>2026-04-06T12:58:31Z</time></trkpt><trkpt lat="45.6688240084021" lon="10.649786924176567"><ele>78.0</ele><time>2026-04-06T12:58:32Z</time></trkpt><trkpt lat="45.6690031762858" lon="10.64988295237198"><ele>78.0</ele><time>2026-04-06T12:58:33Z</time></trkpt><trkpt lat="45.66918643778444" lon="10.649972351508291"><ele>78.0</ele><time>2026-04-06T12:58:34Z</time></trkpt><trkpt lat="45.66936870875122" lon="10.650063691674431"><ele>78.0</ele><time>2026-04-06T12:58:35Z</time></trkpt><trkpt lat="45.66954748830497" lon="10.650157597409324"><ele>78.33333333333333</ele><time>2026-04-06T12:58:36Z</time></trkpt><trkpt lat="45.66972192652809" lon="10.650262362548135"><ele>78.66666666666666</ele><time>2026-04-06T12:58:37Z</time></trkpt><trkpt lat="45.66989430011547" lon="10.650378899440753"><ele>79.0</ele><time>2026-04-06T12:58:38Z</time></trkpt><trkpt lat="45.670053291471305" lon="10.650509447979806"><ele>79.0</ele><time>2026-04-06T12:58:39Z</time></trkpt><trkpt lat="45.670201877302276" lon="10.650675507836281"><ele>79.0</ele><time>2026-04-06T12:58:40Z</time></trkpt><trkpt lat="45.67033862704399" lon="10.65084938788645"><ele>79.0</ele><time>2026-04-06T12:58:41Z</time></trkpt><trkpt lat="45.670467878891614" lon="10.651037878032747"><ele>78.0</ele><time>2026-04-06T12:58:42Z</time></trkpt><trkpt lat="45.67060816089971" lon="10.651202032481423"><ele>77.0</ele><time>2026-04-06T12:58:43Z</time></trkpt><trkpt lat="45.67076126489374" lon="10.651330454065949"><ele>76.0</ele><time>2026-04-06T12:58:44Z</time></trkpt><trkpt lat="45.67093165492356" lon="10.651425384417486"><ele>76.33333333333333</ele><time>2026-04-06T12:58:45Z</time></trkpt><trkpt lat="45.67111121501164" lon="10.651495968251872"><ele>76.66666666666667</ele><time>2026-04-06T12:58:46Z</time></trkpt><trkpt lat="45.67129558561182" lon="10.651556416925073"><ele>77.0</ele><time>2026-04-06T12:58:47Z</time></trkpt><trkpt lat="45.671484284871354" lon="10.651589868256359"><ele>77.0</ele><time>2026-04-06T12:58:48Z</time></trkpt><trkpt lat="45.67167205066666" lon="10.651592574341263"><ele>77.0</ele><time>2026-04-06T12:58:49Z</time></trkpt><trkpt lat="45.67186133736958" lon="10.651567309983932"><ele>77.0</ele><time>2026-04-06T12:58:50Z</time></trkpt><trkpt lat="45.672046064613625" lon="10.65151424831437"><ele>76.0</ele><time>2026-04-06T12:58:51Z</time></trkpt><trkpt lat="45.672222737178416" lon="10.651436111828446"><ele>75.0</ele><time>2026-04-06T12:58:52Z</time></trkpt><trkpt lat="45.672396464623176" lon="10.651343935134996"><ele>74.0</ele><time>2026-04-06T12:58:53Z</time></trkpt><trkpt lat="45.672565523832745" lon="10.651248609658266"><ele>74.0</ele><time>2026-04-06T12:58:54Z</time></trkpt><trkpt lat="45.67272797354272" lon="10.651160063970444"><ele>74.0</ele><time>2026-04-06T12:58:55Z</time></trkpt><trkpt lat="45.672883214351444" lon="10.65107508925315"><ele>74.0</ele><time>2026-04-06T12:58:56Z</time></trkpt><trkpt lat="45.673032402492865" lon="10.650995795151571"><ele>74.5</ele><time>2026-04-06T12:58:57Z</time></trkpt><trkpt lat="45.673174038261855" lon="10.650918119921842"><ele>75.0</ele><time>2026-04-06T12:58:58Z</time></trkpt><trkpt lat="45.67330865532212" lon="10.65084345715549"><ele>75.5</ele><time>2026-04-06T12:58:59Z</time></trkpt><trkpt lat="45.673445757253056" lon="10.650768732161625"><ele>76.0</ele><time>2026-04-06T12:59:00Z</time></trkpt><trkpt lat="45.6735773910147" lon="10.65069702523948"><ele>75.8</ele><time>2026-04-06T12:59:01Z</time></trkpt><trkpt lat="45.67370162612708" lon="10.650630473161629"><ele>75.6</ele><time>2026-04-06T12:59:02Z</time></trkpt><trkpt lat="45.67381148630357" lon="10.650572469479997"><ele>75.4</ele><time>2026-04-06T12:59:03Z</time></trkpt><trkpt lat="45.673897598648466" lon="10.650531905325371"><ele>75.2</ele><time>2026-04-06T12:59:04Z</time></trkpt><trkpt lat="45.67396857598541" lon="10.650497571350765"><ele>75.0</ele><time>2026-04-06T12:59:05Z</time></trkpt><trkpt lat="45.67404175078543" lon="10.650464139714225"><ele>75.0</ele><time>2026-04-06T12:59:06Z</time></trkpt><trkpt lat="45.67411052585371" lon="10.65043651321522"><ele>75.0</ele><time>2026-04-06T12:59:07Z</time></trkpt><trkpt lat="45.67417611412961" lon="10.650421188222104"><ele>75.0</ele><time>2026-04-06T12:59:08Z</time></trkpt><trkpt lat="45.6742473160493" lon="10.650415668897255"><ele>75.0</ele><time>2026-04-06T12:59:09Z</time></trkpt><trkpt lat="45.67432974266765" lon="10.65043460970507"><ele>75.0</ele><time>2026-04-06T12:59:10Z</time></trkpt><trkpt lat="45.674424639285" lon="10.650453994247371"><ele>75.0</ele><time>2026-04-06T12:59:11Z</time></trkpt><trkpt lat="45.67451694157252" lon="10.650436435508954"><ele>75.6</ele><time>2026-04-06T12:59:12Z</time></trkpt><trkpt lat="45.67461801959783" lon="10.650440478025597"><ele>76.2</ele><time>2026-04-06T12:59:13Z</time></trkpt><trkpt lat="45.67472460693463" lon="10.650475816084628"><ele>76.8</ele><time>2026-04-06T12:59:14Z</time></trkpt><trkpt lat="45.67482266399289" lon="10.650527422940586"><ele>77.4</ele><time>2026-04-06T12:59:15Z</time></trkpt><trkpt lat="45.67491458207724" lon="10.650584595871457"><ele>78.0</ele><time>2026-04-06T12:59:16Z</time></trkpt><trkpt lat="45.67499694701975" lon="10.650651602621497"><ele>78.0</ele><time>2026-04-06T12:59:17Z</time></trkpt><trkpt lat="45.67507149616052" lon="10.65072157141877"><ele>78.0</ele><time>2026-04-06T12:59:18Z</time></trkpt><trkpt lat="45.675137720201036" lon="10.650797419256465"><ele>78.0</ele><time>2026-04-06T12:59:19Z</time></trkpt><trkpt lat="45.675202409714444" lon="10.650871593705036"><ele>78.0</ele><time>2026-04-06T12:59:20Z</time></trkpt><trkpt lat="45.67526351226922" lon="10.650947159228357"><ele>78.0</ele><time>2026-04-06T12:59:21Z</time></trkpt><trkpt lat="45.67533314077163" lon="10.651034835834826"><ele>78.0</ele><time>2026-04-06T12:59:22Z</time></trkpt><trkpt lat="45.675419049940466" lon="10.65113839772964"><ele>77.5</ele><time>2026-04-06T12:59:23Z</time></trkpt><trkpt lat="45.67550194517063" lon="10.651246744615756"><ele>77.0</ele><time>2026-04-06T12:59:24Z</time></trkpt><trkpt lat="45.67559807574557" lon="10.651356205848964"><ele>76.5</ele><time>2026-04-06T12:59:25Z</time></trkpt><trkpt lat="45.67571185319936" lon="10.65149374688117"><ele>76.0</ele><time>2026-04-06T12:59:26Z</time></trkpt><trkpt lat="45.67583334240976" lon="10.65164331032136"><ele>76.0</ele><time>2026-04-06T12:59:27Z</time></trkpt><trkpt lat="45.67595764646577" lon="10.651795010144587"><ele>76.0</ele><time>2026-04-06T12:59:28Z</time></trkpt><trkpt lat="45.676070763303805" lon="10.651949338108718"><ele>76.0</ele><time>2026-04-06T12:59:29Z</time></trkpt><trkpt lat="45.67618578014883" lon="10.652101051618125"><ele>75.33333333333333</ele><time>2026-04-06T12:59:30Z</time></trkpt><trkpt lat="45.676308477865796" lon="10.652248048762637"><ele>74.66666666666667</ele><time>2026-04-06T12:59:31Z</time></trkpt><trkpt lat="45.67642398380502" lon="10.652390126741388"><ele>74.0</ele><time>2026-04-06T12:59:32Z</time></trkpt><trkpt lat="45.676537588816316" lon="10.652523305643472"><ele>74.0</ele><time>2026-04-06T12:59:33Z</time></trkpt><trkpt lat="45.67665813664219" lon="10.652641278243982"><ele>74.0</ele><time>2026-04-06T12:59:34Z</time></trkpt><trkpt lat="45.676778724809026" lon="10.652743124927756"><ele>74.0</ele><time>2026-04-06T12:59:35Z</time></trkpt><trkpt lat="45.67690076363674" lon="10.652830453907685"><ele>74.0</ele><time>2026-04-06T12:59:36Z</time></trkpt><trkpt lat="45.67700606125541" lon="10.652923908366997"><ele>73.2</ele><time>2026-04-06T12:59:37Z</time></trkpt><trkpt lat="45.677109656120265" lon="10.652999472327979"><ele>72.4</ele><time>2026-04-06T12:59:38Z</time></trkpt><trkpt lat="45.677201775495014" lon="10.653069369843733"><ele>71.6</ele><time>2026-04-06T12:59:39Z</time></trkpt><trkpt lat="45.677294677488334" lon="10.653140549572377"><ele>70.8</ele><time>2026-04-06T12:59:40Z</time></trkpt><trkpt lat="45.67739336733961" lon="10.653215374304763"><ele>70.0</ele><time>2026-04-06T12:59:41Z</time></trkpt><trkpt lat="45.67748958615971" lon="10.653287240821928"><ele>70.0</ele><time>2026-04-06T12:59:42Z</time></trkpt><trkpt lat="45.67757897637555" lon="10.653351937242391"><ele>70.0</ele><time>2026-04-06T12:59:43Z</time></trkpt><trkpt lat="45.67767583406173" lon="10.653398333686358"><ele>70.0</ele><time>2026-04-06T12:59:44Z</time></trkpt><trkpt lat="45.6777664139631" lon="10.653458475158205"><ele>70.0</ele><time>2026-04-06T12:59:45Z</time></trkpt><trkpt lat="45.677863511691335" lon="10.653517171638216"><ele>70.0</ele><time>2026-04-06T12:59:46Z</time></trkpt><trkpt lat="45.677970421835454" lon="10.653572217713048"><ele>68.8</ele><time>2026-04-06T12:59:47Z</time></trkpt><trkpt lat="45.678075309522725" lon="10.653622838423653"><ele>67.6</ele><time>2026-04-06T12:59:48Z</time></trkpt><trkpt lat="45.678177580448" lon="10.653654956990515"><ele>66.4</ele><time>2026-04-06T12:59:49Z</time></trkpt><trkpt lat="45.67828283797539" lon="10.653687086284885"><ele>65.2</ele><time>2026-04-06T12:59:50Z</time></trkpt><trkpt lat="45.67839015651169" lon="10.653714925794178"><ele>64.0</ele><time>2026-04-06T12:59:51Z</time></trkpt><trkpt lat="45.67850346186901" lon="10.65374532157607"><ele>64.60000000000001</ele><time>2026-04-06T12:59:52Z</time></trkpt><trkpt lat="45.67861747677435" lon="10.653769768182004"><ele>65.2</ele><time>2026-04-06T12:59:53Z</time></trkpt><trkpt lat="45.67872223062726" lon="10.653790269259627"><ele>65.80000000000001</ele><time>2026-04-06T12:59:54Z</time></trkpt><trkpt lat="45.67881791439101" lon="10.65381063188669"><ele>66.4</ele><time>2026-04-06T12:59:55Z</time></trkpt><trkpt lat="45.67891672851118" lon="10.653834579341495"><ele>67.0</ele><time>2026-04-06T12:59:56Z</time></trkpt><trkpt lat="45.679015728383916" lon="10.65385574344782"><ele>67.0</ele><time>2026-04-06T12:59:57Z</time></trkpt><trkpt lat="45.67911875724599" lon="10.653881691787983"><ele>67.0</ele><time>2026-04-06T12:59:58Z</time></trkpt><trkpt lat="45.679221075852006" lon="10.653908694830758"><ele>67.0</ele><time>2026-04-06T12:59:59Z</time></trkpt><trkpt lat="45.67934363757822" lon="10.653929590287794"><ele>67.0</ele><time>2026-04-06T13:00:00Z</time></trkpt><trkpt lat="45.67945965722407" lon="10.653957457926003"><ele>67.75</ele><time>2026-04-06T13:00:01Z</time></trkpt><trkpt lat="45.67957479521989" lon="10.653984608856875"><ele>68.5</ele><time>2026-04-06T13:00:02Z</time></trkpt><trkpt lat="45.67969805036941" lon="10.654006959542738"><ele>69.25</ele><time>2026-04-06T13:00:03Z</time></trkpt><trkpt lat="45.67983359544099" lon="10.654037580544578"><ele>70.0</ele><time>2026-04-06T13:00:04Z</time></trkpt><trkpt lat="45.67998419053953" lon="10.65406895656497"><ele>70.0</ele><time>2026-04-06T13:00:05Z</time></trkpt><trkpt lat="45.680147125736774" lon="10.654105524917544"><ele>70.0</ele><time>2026-04-06T13:00:06Z</time></trkpt><trkpt lat="45.68031722498839" lon="10.654149189024468"><ele>70.0</ele><time>2026-04-06T13:00:07Z</time></trkpt><trkpt lat="45.68048521981568" lon="10.654193560006584"><ele>71.66666666666666</ele><time>2026-04-06T13:00:08Z</time></trkpt><trkpt lat="45.68065336904735" lon="10.654238089155058"><ele>73.33333333333333</ele><time>2026-04-06T13:00:09Z</time></trkpt><trkpt lat="45.680820707172714" lon="10.65428199821143"><ele>75.0</ele><time>2026-04-06T13:00:10Z</time></trkpt><trkpt lat="45.68098496409898" lon="10.654329353934846"><ele>74.66666666666667</ele><time>2026-04-06T13:00:11Z</time></trkpt><trkpt lat="45.68114108791307" lon="10.65439027911333"><ele>74.33333333333334</ele><time>2026-04-06T13:00:12Z</time></trkpt><trkpt lat="45.68129112825659" lon="10.654469952702506"><ele>74.0</ele><time>2026-04-06T13:00:13Z</time></trkpt><trkpt lat="45.6814357260597" lon="10.654566331281213"><ele>74.0</ele><time>2026-04-06T13:00:14Z</time></trkpt><trkpt lat="45.68157460768108" lon="10.654675862571864"><ele>74.0</ele><time>2026-04-06T13:00:15Z</time></trkpt><trkpt lat="45.68170934501947" lon="10.654803879061607"><ele>74.0</ele><time>2026-04-06T13:00:16Z</time></trkpt><trkpt lat="45.681838067615516" lon="10.654949601820308"><ele>75.66666666666667</ele><time>2026-04-06T13:00:17Z</time></trkpt><trkpt lat="45.6819608297948" lon="10.655109732272715"><ele>77.33333333333333</ele><time>2026-04-06T13:00:18Z</time></trkpt><trkpt lat="45.68207854204932" lon="10.655280137516002"><ele>79.0</ele><time>2026-04-06T13:00:19Z</time></trkpt><trkpt lat="45.682198118819436" lon="10.65545494511412"><ele>79.0</ele><time>2026-04-06T13:00:20Z</time></trkpt><trkpt lat="45.68231845836925" lon="10.65562405645226"><ele>79.0</ele><time>2026-04-06T13:00:21Z</time></trkpt><trkpt lat="45.68244021704463" lon="10.65579108221822"><ele>79.0</ele><time>2026-04-06T13:00:22Z</time></trkpt><trkpt lat="45.68256101907892" lon="10.655956814307027"><ele>80.33333333333333</ele><time>2026-04-06T13:00:23Z</time></trkpt><trkpt lat="45.682679531826736" lon="10.656121425613405"><ele>81.66666666666667</ele><time>2026-04-06T13:00:24Z</time></trkpt><trkpt lat="45.68279464205264" lon="10.656288605440762"><ele>83.0</ele><time>2026-04-06T13:00:25Z</time></trkpt><trkpt lat="45.68291150842185" lon="10.656452576369785"><ele>83.0</ele><time>2026-04-06T13:00:26Z</time></trkpt><trkpt lat="45.683029423449604" lon="10.656612776324453"><ele>83.0</ele><time>2026-04-06T13:00:27Z</time></trkpt><trkpt lat="45.68314358751255" lon="10.656773374728932"><ele>83.0</ele><time>2026-04-06T13:00:28Z</time></trkpt><trkpt lat="45.68325538897249" lon="10.656930589936858"><ele>80.0</ele><time>2026-04-06T13:00:29Z</time></trkpt><trkpt lat="45.68336444791426" lon="10.65709180093392"><ele>77.0</ele><time>2026-04-06T13:00:30Z</time></trkpt><trkpt lat="45.68347642501778" lon="10.657253760797026"><ele>74.0</ele><time>2026-04-06T13:00:31Z</time></trkpt><trkpt lat="45.68358997533539" lon="10.657409613907651"><ele>73.66666666666667</ele><time>2026-04-06T13:00:32Z</time></trkpt><trkpt lat="45.68370753681178" lon="10.65755388459966"><ele>73.33333333333333</ele><time>2026-04-06T13:00:33Z</time></trkpt><trkpt lat="45.68383412192151" lon="10.657689319450977"><ele>73.0</ele><time>2026-04-06T13:00:34Z</time></trkpt><trkpt lat="45.68396579472241" lon="10.657815096143933"><ele>73.0</ele><time>2026-04-06T13:00:35Z</time></trkpt><trkpt lat="45.68410209751698" lon="10.657937768028912"><ele>73.0</ele><time>2026-04-06T13:00:36Z</time></trkpt><trkpt lat="45.68423942027576" lon="10.658065089518"><ele>73.0</ele><time>2026-04-06T13:00:37Z</time></trkpt><trkpt lat="45.68437879768437" lon="10.658195178827205"><ele>78.33333333333333</ele><time>2026-04-06T13:00:38Z</time></trkpt><trkpt lat="45.68451331378653" lon="10.658327611017958"><ele>83.66666666666667</ele><time>2026-04-06T13:00:39Z</time></trkpt><trkpt lat="45.68464973964191" lon="10.658456954679052"><ele>89.0</ele><time>2026-04-06T13:00:40Z</time></trkpt><trkpt lat="45.68478610800647" lon="10.658585003769785"><ele>84.0</ele><time>2026-04-06T13:00:41Z</time></trkpt><trkpt lat="45.684922725752656" lon="10.658713621030506"><ele>79.0</ele><time>2026-04-06T13:00:42Z</time></trkpt><trkpt lat="45.68505858380169" lon="10.658843655830308"><ele>74.0</ele><time>2026-04-06T13:00:43Z</time></trkpt><trkpt lat="45.68519427464286" lon="10.658969163326748"><ele>78.33333333333334</ele><time>2026-04-06T13:00:44Z</time></trkpt><trkpt lat="45.685325110659846" lon="10.65909294036016"><ele>82.66666666666667</ele><time>2026-04-06T13:00:45Z</time></trkpt><trkpt lat="45.685454925163775" lon="10.659219082768997"><ele>87.0</ele><time>2026-04-06T13:00:46Z</time></trkpt><trkpt lat="45.68558231592061" lon="10.659345087736597"><ele>82.0</ele><time>2026-04-06T13:00:47Z</time></trkpt><trkpt lat="45.68570895675387" lon="10.65946504999179"><ele>77.0</ele><time>2026-04-06T13:00:48Z</time></trkpt><trkpt lat="45.6858335047654" lon="10.659584516976238"><ele>72.0</ele><time>2026-04-06T13:00:49Z</time></trkpt><trkpt lat="45.68595859388765" lon="10.659700762273776"><ele>72.0</ele><time>2026-04-06T13:00:50Z</time></trkpt><trkpt lat="45.68608289579805" lon="10.659809183527926"><ele>72.0</ele><time>2026-04-06T13:00:51Z</time></trkpt><trkpt lat="45.68620740678581" lon="10.659918392932818"><ele>72.0</ele><time>2026-04-06T13:00:52Z</time></trkpt><trkpt lat="45.68633407965388" lon="10.660006149144868"><ele>72.0</ele><time>2026-04-06T13:00:53Z</time></trkpt><trkpt lat="45.68645854855644" lon="10.660094701370925"><ele>71.25</ele><time>2026-04-06T13:00:54Z</time></trkpt><trkpt lat="45.6865833007797" lon="10.660184496533022"><ele>70.5</ele><time>2026-04-06T13:00:55Z</time></trkpt><trkpt lat="45.686708356671446" lon="10.660268395187751"><ele>69.75</ele><time>2026-04-06T13:00:56Z</time></trkpt><trkpt lat="45.686840523788945" lon="10.660350274485044"><ele>69.0</ele><time>2026-04-06T13:00:57Z</time></trkpt><trkpt lat="45.686979874976856" lon="10.660432476515982"><ele>72.66666666666667</ele><time>2026-04-06T13:00:58Z</time></trkpt><trkpt lat="45.68711986797824" lon="10.66051216538739"><ele>76.33333333333334</ele><time>2026-04-06T13:00:59Z</time></trkpt><trkpt lat="45.68725843832052" lon="10.660596259463334"><ele>80.0</ele><time>2026-04-06T13:01:00Z</time></trkpt><trkpt lat="45.687397341890346" lon="10.660686421634177"><ele>80.0</ele><time>2026-04-06T13:01:01Z</time></trkpt><trkpt lat="45.68753454807321" lon="10.660780688770673"><ele>80.0</ele><time>2026-04-06T13:01:02Z</time></trkpt><trkpt lat="45.6876703167323" lon="10.660878751623716"><ele>80.0</ele><time>2026-04-06T13:01:03Z</time></trkpt><trkpt lat="45.68779801128966" lon="10.660983157692872"><ele>82.0</ele><time>2026-04-06T13:01:04Z</time></trkpt><trkpt lat="45.687919450830336" lon="10.661093556779585"><ele>84.0</ele><time>2026-04-06T13:01:05Z</time></trkpt><trkpt lat="45.68803752605245" lon="10.661222858616247"><ele>86.0</ele><time>2026-04-06T13:01:06Z</time></trkpt><trkpt lat="45.68815117894872" lon="10.661363601946823"><ele>88.0</ele><time>2026-04-06T13:01:07Z</time></trkpt><trkpt lat="45.688251636312074" lon="10.661525680880333"><ele>88.0</ele><time>2026-04-06T13:01:08Z</time></trkpt><trkpt lat="45.688357177040544" lon="10.661682165445134"><ele>88.0</ele><time>2026-04-06T13:01:09Z</time></trkpt><trkpt lat="45.68846727611166" lon="10.66182422571141"><ele>88.0</ele><time>2026-04-06T13:01:10Z</time></trkpt><trkpt lat="45.688568604914735" lon="10.661982337401325"><ele>89.25</ele><time>2026-04-06T13:01:11Z</time></trkpt><trkpt lat="45.68866492859863" lon="10.662139981156757"><ele>90.5</ele><time>2026-04-06T13:01:12Z</time></trkpt><trkpt lat="45.68874564048063" lon="10.662318112718742"><ele>91.75</ele><time>2026-04-06T13:01:13Z</time></trkpt><trkpt lat="45.68884489817851" lon="10.662471764982383"><ele>93.0</ele><time>2026-04-06T13:01:14Z</time></trkpt><trkpt lat="45.68892935189625" lon="10.66264329794339"><ele>91.5</ele><time>2026-04-06T13:01:15Z</time></trkpt><trkpt lat="45.689012134359444" lon="10.662817467606175"><ele>90.0</ele><time>2026-04-06T13:01:16Z</time></trkpt><trkpt lat="45.6891010891404" lon="10.662989195820918"><ele>88.5</ele><time>2026-04-06T13:01:17Z</time></trkpt><trkpt lat="45.68917545843647" lon="10.663171352942177"><ele>87.0</ele><time>2026-04-06T13:01:18Z</time></trkpt><trkpt lat="45.68926101393124" lon="10.663342736795776"><ele>87.0</ele><time>2026-04-06T13:01:19Z</time></trkpt><trkpt lat="45.68934698689507" lon="10.66351209858955"><ele>87.0</ele><time>2026-04-06T13:01:20Z</time></trkpt><trkpt lat="45.68943335393384" lon="10.663676196689622"><ele>87.0</ele><time>2026-04-06T13:01:21Z</time></trkpt><trkpt lat="45.68953457683897" lon="10.663810493896484"><ele>87.0</ele><time>2026-04-06T13:01:22Z</time></trkpt><trkpt lat="45.689627850837326" lon="10.663930667781298"><ele>90.0</ele><time>2026-04-06T13:01:23Z</time></trkpt><trkpt lat="45.68973758104034" lon="10.664026586179096"><ele>93.0</ele><time>2026-04-06T13:01:24Z</time></trkpt><trkpt lat="45.689857864317574" lon="10.664095895737555"><ele>96.0</ele><time>2026-04-06T13:01:25Z</time></trkpt><trkpt lat="45.68996914601061" lon="10.66414378634225"><ele>99.0</ele><time>2026-04-06T13:01:26Z</time></trkpt><trkpt lat="45.690072222571544" lon="10.66417367516944"><ele>99.0</ele><time>2026-04-06T13:01:27Z</time></trkpt><trkpt lat="45.69016345968445" lon="10.664198002293116"><ele>99.0</ele><time>2026-04-06T13:01:28Z</time></trkpt><trkpt lat="45.69024234740298" lon="10.664215414359175"><ele>99.0</ele><time>2026-04-06T13:01:29Z</time></trkpt><trkpt lat="45.69030889674824" lon="10.664260918756199"><ele>99.0</ele><time>2026-04-06T13:01:30Z</time></trkpt><trkpt lat="45.69041770972985" lon="10.664299333852071"><ele>99.0</ele><time>2026-04-06T13:01:32Z</time></trkpt><trkpt lat="45.690500454142125" lon="10.664338826166976"><ele>99.0</ele><time>2026-04-06T13:02:02Z</time></trkpt><trkpt lat="45.69056123257685" lon="10.664380648903231"><ele>99.25</ele><time>2026-04-06T13:02:03Z</time></trkpt><trkpt lat="45.69066113710789" lon="10.66441104407079"><ele>99.5</ele><time>2026-04-06T13:02:04Z</time></trkpt><trkpt lat="45.69074934756492" lon="10.664530886022074"><ele>99.75</ele><time>2026-04-06T13:02:05Z</time></trkpt><trkpt lat="45.69083195899341" lon="10.66467953987686"><ele>100.0</ele><time>2026-04-06T13:02:06Z</time></trkpt><trkpt lat="45.690926404300754" lon="10.664838640076477"><ele>100.0</ele><time>2026-04-06T13:02:07Z</time></trkpt><trkpt lat="45.691032939580005" lon="10.665007831236426"><ele>100.0</ele><time>2026-04-06T13:02:08Z</time></trkpt><trkpt lat="45.69113936891988" lon="10.665184070310579"><ele>100.0</ele><time>2026-04-06T13:02:09Z</time></trkpt><trkpt lat="45.69123504502972" lon="10.665373648284616"><ele>102.66666666666667</ele><time>2026-04-06T13:02:10Z</time></trkpt><trkpt lat="45.69134247742811" lon="10.665550297501953"><ele>105.33333333333334</ele><time>2026-04-06T13:02:11Z</time></trkpt><trkpt lat="45.691448814443525" lon="10.665725145592367"><ele>108.0</ele><time>2026-04-06T13:02:12Z</time></trkpt><trkpt lat="45.69155342509026" lon="10.665897616035197"><ele>108.0</ele><time>2026-04-06T13:02:13Z</time></trkpt><trkpt lat="45.69165511682614" lon="10.666064821747028"><ele>108.0</ele><time>2026-04-06T13:02:14Z</time></trkpt><trkpt lat="45.69175624943181" lon="10.66623110810904"><ele>108.0</ele><time>2026-04-06T13:02:15Z</time></trkpt><trkpt lat="45.69185322049089" lon="10.666390834188602"><ele>109.25</ele><time>2026-04-06T13:02:16Z</time></trkpt><trkpt lat="45.691950728886404" lon="10.666551517560531"><ele>110.5</ele><time>2026-04-06T13:02:17Z</time></trkpt><trkpt lat="45.69204411469944" lon="10.66670409209021"><ele>111.75</ele><time>2026-04-06T13:02:18Z</time></trkpt><trkpt lat="45.69214641049737" lon="10.66682839978463"><ele>113.0</ele><time>2026-04-06T13:02:19Z</time></trkpt><trkpt lat="45.692233825827" lon="10.666952804814166"><ele>110.5</ele><time>2026-04-06T13:02:20Z</time></trkpt><trkpt lat="45.69233936300546" lon="10.667052430207068"><ele>108.0</ele><time>2026-04-06T13:02:21Z</time></trkpt><trkpt lat="45.69246508435001" lon="10.667119406777966"><ele>105.5</ele><time>2026-04-06T13:02:22Z</time></trkpt><trkpt lat="45.692603101257475" lon="10.66715792429909"><ele>103.0</ele><time>2026-04-06T13:02:23Z</time></trkpt><trkpt lat="45.69274502770806" lon="10.667174771032355"><ele>104.5</ele><time>2026-04-06T13:02:24Z</time></trkpt><trkpt lat="45.69288959279292" lon="10.667196025932922"><ele>106.0</ele><time>2026-04-06T13:02:25Z</time></trkpt><trkpt lat="45.69303332436485" lon="10.66722013720317"><ele>107.5</ele><time>2026-04-06T13:02:26Z</time></trkpt><trkpt lat="45.69317871827902" lon="10.667249974583216"><ele>109.0</ele><time>2026-04-06T13:02:27Z</time></trkpt><trkpt lat="45.69332060213905" lon="10.667275409419478"><ele>109.0</ele><time>2026-04-06T13:02:28Z</time></trkpt><trkpt lat="45.69345398226686" lon="10.667314038645943"><ele>109.0</ele><time>2026-04-06T13:02:29Z</time></trkpt><trkpt lat="45.693568559122504" lon="10.667410499642504"><ele>109.0</ele><time>2026-04-06T13:02:30Z</time></trkpt><trkpt lat="45.69367515573878" lon="10.667523834981408"><ele>109.0</ele><time>2026-04-06T13:02:31Z</time></trkpt><trkpt lat="45.69377398948025" lon="10.667664405560899"><ele>108.25</ele><time>2026-04-06T13:02:32Z</time></trkpt><trkpt lat="45.69387767890767" lon="10.66779733995407"><ele>107.5</ele><time>2026-04-06T13:02:33Z</time></trkpt><trkpt lat="45.69398859754289" lon="10.667924848917684"><ele>106.75</ele><time>2026-04-06T13:02:34Z</time></trkpt><trkpt lat="45.694121708423694" lon="10.668016995906108"><ele>106.0</ele><time>2026-04-06T13:02:35Z</time></trkpt><trkpt lat="45.694270797523316" lon="10.668082522404486"><ele>106.0</ele><time>2026-04-06T13:02:36Z</time></trkpt><trkpt lat="45.6944174570908" lon="10.668146928767744"><ele>106.0</ele><time>2026-04-06T13:02:37Z</time></trkpt><trkpt lat="45.694565136584686" lon="10.668205714327684"><ele>106.0</ele><time>2026-04-06T13:02:38Z</time></trkpt><trkpt lat="45.6946997207182" lon="10.668264565691402"><ele>106.0</ele><time>2026-04-06T13:02:39Z</time></trkpt><trkpt lat="45.69481498784418" lon="10.66834622058097"><ele>107.5</ele><time>2026-04-06T13:02:40Z</time></trkpt><trkpt lat="45.69490549289322" lon="10.668486036975903"><ele>109.0</ele><time>2026-04-06T13:02:41Z</time></trkpt><trkpt lat="45.6949889943444" lon="10.668634482102656"><ele>110.5</ele><time>2026-04-06T13:02:42Z</time></trkpt><trkpt lat="45.69506132876701" lon="10.668797600474335"><ele>112.0</ele><time>2026-04-06T13:02:43Z</time></trkpt><trkpt lat="45.69514185204259" lon="10.668965045215721"><ele>112.0</ele><time>2026-04-06T13:02:44Z</time></trkpt><trkpt lat="45.69521589161031" lon="10.669148497216394"><ele>112.0</ele><time>2026-04-06T13:02:45Z</time></trkpt><trkpt lat="45.69529088874296" lon="10.669326452365407"><ele>112.0</ele><time>2026-04-06T13:02:46Z</time></trkpt><trkpt lat="45.69536702404684" lon="10.669504413783276"><ele>112.0</ele><time>2026-04-06T13:02:47Z</time></trkpt><trkpt lat="45.69544602851178" lon="10.669679324142406"><ele>118.33333333333334</ele><time>2026-04-06T13:02:48Z</time></trkpt><trkpt lat="45.69552314688886" lon="10.669864866969917"><ele>124.66666666666666</ele><time>2026-04-06T13:02:49Z</time></trkpt><trkpt lat="45.695599426848936" lon="10.670049525549672"><ele>131.0</ele><time>2026-04-06T13:02:50Z</time></trkpt><trkpt lat="45.69567740636946" lon="10.670234436347377"><ele>129.0</ele><time>2026-04-06T13:02:51Z</time></trkpt><trkpt lat="45.69575533748581" lon="10.670416635774298"><ele>127.0</ele><time>2026-04-06T13:02:52Z</time></trkpt><trkpt lat="45.69582002860629" lon="10.670600025317366"><ele>125.0</ele><time>2026-04-06T13:02:53Z</time></trkpt><trkpt lat="45.69585862908239" lon="10.67079839561802"><ele>123.0</ele><time>2026-04-06T13:02:54Z</time></trkpt><trkpt lat="45.6959261655268" lon="10.670976469207126"><ele>120.5</ele><time>2026-04-06T13:02:55Z</time></trkpt><trkpt lat="45.69599492572317" lon="10.671147143515196"><ele>118.0</ele><time>2026-04-06T13:02:56Z</time></trkpt><trkpt lat="45.696086074941164" lon="10.671303600424611"><ele>115.5</ele><time>2026-04-06T13:02:57Z</time></trkpt><trkpt lat="45.6962005391203" lon="10.671450659081046"><ele>113.0</ele><time>2026-04-06T13:02:58Z</time></trkpt><trkpt lat="45.69632290593337" lon="10.67159367737109"><ele>115.33333333333333</ele><time>2026-04-06T13:02:59Z</time></trkpt><trkpt lat="45.696430978686486" lon="10.67175212542974"><ele>117.66666666666666</ele><time>2026-04-06T13:03:00Z</time></trkpt><trkpt lat="45.696545052498536" lon="10.671895750778205"><ele>120.0</ele><time>2026-04-06T13:03:01Z</time></trkpt><trkpt lat="45.69666014307595" lon="10.672042799093006"><ele>120.0</ele><time>2026-04-06T13:03:02Z</time></trkpt><trkpt lat="45.6967759655332" lon="10.672189686654296"><ele>120.0</ele><time>2026-04-06T13:03:03Z</time></trkpt><trkpt lat="45.69689066250266" lon="10.672334426039168"><ele>120.0</ele><time>2026-04-06T13:03:04Z</time></trkpt><trkpt lat="45.696999416486285" lon="10.67247355047295"><ele>122.75</ele><time>2026-04-06T13:03:05Z</time></trkpt><trkpt lat="45.69710418593732" lon="10.67261290039946"><ele>125.5</ele><time>2026-04-06T13:03:06Z</time></trkpt><trkpt lat="45.697188299693686" lon="10.67276428617706"><ele>128.25</ele><time>2026-04-06T13:03:07Z</time></trkpt><trkpt lat="45.69727159121683" lon="10.67293043880652"><ele>131.0</ele><time>2026-04-06T13:03:08Z</time></trkpt><trkpt lat="45.69735623297071" lon="10.673102716056396"><ele>131.0</ele><time>2026-04-06T13:03:09Z</time></trkpt><trkpt lat="45.697443510925886" lon="10.673279733287838"><ele>131.0</ele><time>2026-04-06T13:03:10Z</time></trkpt><trkpt lat="45.6975323684865" lon="10.67345967422506"><ele>131.0</ele><time>2026-04-06T13:03:11Z</time></trkpt><trkpt lat="45.69762580367493" lon="10.673640452782953"><ele>127.66666666666666</ele><time>2026-04-06T13:03:12Z</time></trkpt><trkpt lat="45.697741076548255" lon="10.673800425610207"><ele>124.33333333333334</ele><time>2026-04-06T13:03:13Z</time></trkpt><trkpt lat="45.69785396353519" lon="10.673967003059913"><ele>121.0</ele><time>2026-04-06T13:03:14Z</time></trkpt><trkpt lat="45.697974705853696" lon="10.674135464296086"><ele>124.66666666666667</ele><time>2026-04-06T13:03:15Z</time></trkpt><trkpt lat="45.69809511436033" lon="10.674308384465698"><ele>128.33333333333334</ele><time>2026-04-06T13:03:16Z</time></trkpt><trkpt lat="45.69820478682593" lon="10.674503742205022"><ele>132.0</ele><time>2026-04-06T13:03:17Z</time></trkpt><trkpt lat="45.6983378203362" lon="10.67466590828683"><ele>132.0</ele><time>2026-04-06T13:03:18Z</time></trkpt><trkpt lat="45.69845809998866" lon="10.67484138646355"><ele>132.0</ele><time>2026-04-06T13:03:19Z</time></trkpt><trkpt lat="45.69857482642198" lon="10.675014044631832"><ele>132.0</ele><time>2026-04-06T13:03:20Z</time></trkpt><trkpt lat="45.69869205764285" lon="10.675181985768992"><ele>135.66666666666666</ele><time>2026-04-06T13:03:21Z</time></trkpt><trkpt lat="45.698804408091064" lon="10.675354067816986"><ele>139.33333333333331</ele><time>2026-04-06T13:03:22Z</time></trkpt><trkpt lat="45.6989146468572" lon="10.675515569103434"><ele>143.0</ele><time>2026-04-06T13:03:23Z</time></trkpt><trkpt lat="45.69902711289383" lon="10.675678498729637"><ele>143.0</ele><time>2026-04-06T13:03:24Z</time></trkpt><trkpt lat="45.69913431468738" lon="10.675838998657214"><ele>143.0</ele><time>2026-04-06T13:03:25Z</time></trkpt><trkpt lat="45.69923569571643" lon="10.6760040814193"><ele>143.0</ele><time>2026-04-06T13:03:26Z</time></trkpt><trkpt lat="45.69931735981648" lon="10.676197568721843"><ele>148.0</ele><time>2026-04-06T13:03:27Z</time></trkpt><trkpt lat="45.699414039007394" lon="10.6763720391976"><ele>153.0</ele><time>2026-04-06T13:03:28Z</time></trkpt><trkpt lat="45.69949516545305" lon="10.676566701032689"><ele>158.0</ele><time>2026-04-06T13:03:29Z</time></trkpt><trkpt lat="45.69958456145883" lon="10.676755121144954"><ele>158.0</ele><time>2026-04-06T13:03:30Z</time></trkpt><trkpt lat="45.69968081216141" lon="10.676935152810376"><ele>158.0</ele><time>2026-04-06T13:03:31Z</time></trkpt><trkpt lat="45.699785538218876" lon="10.677106460586462"><ele>158.0</ele><time>2026-04-06T13:03:32Z</time></trkpt><trkpt lat="45.699897368745184" lon="10.67726355771689"><ele>152.66666666666666</ele><time>2026-04-06T13:03:33Z</time></trkpt><trkpt lat="45.7000302242567" lon="10.67741002344514"><ele>147.33333333333334</ele><time>2026-04-06T13:03:34Z</time></trkpt><trkpt lat="45.70016459924057" lon="10.677544188913036"><ele>142.0</ele><time>2026-04-06T13:03:35Z</time></trkpt><trkpt lat="45.70030981103184" lon="10.677679142596984"><ele>144.66666666666669</ele><time>2026-04-06T13:03:36Z</time></trkpt><trkpt lat="45.70045172067056" lon="10.677816825426433"><ele>147.33333333333334</ele><time>2026-04-06T13:03:37Z</time></trkpt><trkpt lat="45.70059514241333" lon="10.677957439231028"><ele>150.0</ele><time>2026-04-06T13:03:38Z</time></trkpt><trkpt lat="45.70073949205789" lon="10.678090882129224"><ele>150.0</ele><time>2026-04-06T13:03:39Z</time></trkpt><trkpt lat="45.70088230251372" lon="10.678231383806024"><ele>150.0</ele><time>2026-04-06T13:03:40Z</time></trkpt><trkpt lat="45.701021630475225" lon="10.678364015155093"><ele>150.0</ele><time>2026-04-06T13:03:41Z</time></trkpt><trkpt lat="45.70115860187509" lon="10.678496675570031"><ele>155.33333333333334</ele><time>2026-04-06T13:03:42Z</time></trkpt><trkpt lat="45.70128221165138" lon="10.678648083626554"><ele>160.66666666666669</ele><time>2026-04-06T13:03:43Z</time></trkpt><trkpt lat="45.70140724440033" lon="10.678789956778648"><ele>166.0</ele><time>2026-04-06T13:03:44Z</time></trkpt><trkpt lat="45.70153558858176" lon="10.678930433854495"><ele>166.0</ele><time>2026-04-06T13:03:45Z</time></trkpt><trkpt lat="45.701631606758696" lon="10.67912000308916"><ele>166.0</ele><time>2026-04-06T13:03:46Z</time></trkpt><trkpt lat="45.70172968720361" lon="10.679303884741572"><ele>166.0</ele><time>2026-04-06T13:03:47Z</time></trkpt><trkpt lat="45.70183733382677" lon="10.679479370769638"><ele>170.25</ele><time>2026-04-06T13:03:48Z</time></trkpt><trkpt lat="45.701927589681645" lon="10.679666897788799"><ele>174.5</ele><time>2026-04-06T13:03:49Z</time></trkpt><trkpt lat="45.70201332006377" lon="10.679842744162631"><ele>178.75</ele><time>2026-04-06T13:03:50Z</time></trkpt><trkpt lat="45.70209373289726" lon="10.680004697520438"><ele>183.0</ele><time>2026-04-06T13:03:51Z</time></trkpt><trkpt lat="45.70218313473721" lon="10.68014948605136"><ele>175.75</ele><time>2026-04-06T13:03:52Z</time></trkpt><trkpt lat="45.70229103502518" lon="10.680274591869894"><ele>168.5</ele><time>2026-04-06T13:03:53Z</time></trkpt><trkpt lat="45.702402288541485" lon="10.680372874145325"><ele>161.25</ele><time>2026-04-06T13:03:54Z</time></trkpt><trkpt lat="45.702516471918706" lon="10.680435221074498"><ele>154.0</ele><time>2026-04-06T13:03:55Z</time></trkpt><trkpt lat="45.702635100147106" lon="10.680487765426365"><ele>154.0</ele><time>2026-04-06T13:03:56Z</time></trkpt><trkpt lat="45.702743863828005" lon="10.680602568315075"><ele>154.0</ele><time>2026-04-06T13:03:57Z</time></trkpt><trkpt lat="45.702840773030246" lon="10.680747642118096"><ele>154.0</ele><time>2026-04-06T13:03:58Z</time></trkpt><trkpt lat="45.70291840406785" lon="10.680931568626796"><ele>154.0</ele><time>2026-04-06T13:03:59Z</time></trkpt><trkpt lat="45.70300525835845" lon="10.681121122975652"><ele>156.66666666666669</ele><time>2026-04-06T13:04:00Z</time></trkpt><trkpt lat="45.70309959492852" lon="10.681296559392262"><ele>159.33333333333334</ele><time>2026-04-06T13:04:01Z</time></trkpt><trkpt lat="45.70316083665486" lon="10.681500241744496"><ele>162.0</ele><time>2026-04-06T13:04:02Z</time></trkpt><trkpt lat="45.70323772231475" lon="10.681695562395893"><ele>162.0</ele><time>2026-04-06T13:04:03Z</time></trkpt><trkpt lat="45.703294437055234" lon="10.681901776668958"><ele>162.0</ele><time>2026-04-06T13:04:04Z</time></trkpt><trkpt lat="45.70335085509543" lon="10.682098685060238"><ele>162.0</ele><time>2026-04-06T13:04:05Z</time></trkpt><trkpt lat="45.70341233760557" lon="10.682298696187766"><ele>160.33333333333334</ele><time>2026-04-06T13:04:06Z</time></trkpt><trkpt lat="45.7034665671354" lon="10.682499179485173"><ele>158.66666666666669</ele><time>2026-04-06T13:04:07Z</time></trkpt><trkpt lat="45.703523482303225" lon="10.682700995947974"><ele>157.0</ele><time>2026-04-06T13:04:08Z</time></trkpt><trkpt lat="45.703548585888704" lon="10.682914066792707"><ele>156.25</ele><time>2026-04-06T13:04:09Z</time></trkpt><trkpt lat="45.70357818355613" lon="10.683108613580178"><ele>155.5</ele><time>2026-04-06T13:04:10Z</time></trkpt><trkpt lat="45.70361565080053" lon="10.683298995178784"><ele>154.75</ele><time>2026-04-06T13:04:11Z</time></trkpt><trkpt lat="45.703666954205374" lon="10.68346126344368"><ele>154.0</ele><time>2026-04-06T13:04:12Z</time></trkpt><trkpt lat="45.70372794526892" lon="10.683636551544001"><ele>170.0</ele><time>2026-04-06T13:04:13Z</time></trkpt><trkpt lat="45.70379275544263" lon="10.683808453885959"><ele>186.0</ele><time>2026-04-06T13:04:14Z</time></trkpt><trkpt lat="45.70386942199869" lon="10.683990518974671"><ele>202.0</ele><time>2026-04-06T13:04:15Z</time></trkpt><trkpt lat="45.70393962950115" lon="10.68414577232362"><ele>218.0</ele><time>2026-04-06T13:04:16Z</time></trkpt><trkpt lat="45.70402527907789" lon="10.684325291262953"><ele>203.75</ele><time>2026-04-06T13:04:17Z</time></trkpt><trkpt lat="45.7041027744939" lon="10.68446454993566"><ele>189.5</ele><time>2026-04-06T13:04:18Z</time></trkpt><trkpt lat="45.70419234573205" lon="10.68462522086463"><ele>175.25</ele><time>2026-04-06T13:04:19Z</time></trkpt><trkpt lat="45.70427363668554" lon="10.684755062336754"><ele>161.0</ele><time>2026-04-06T13:04:20Z</time></trkpt><trkpt lat="45.70435981927396" lon="10.684880991670735"><ele>174.0</ele><time>2026-04-06T13:04:21Z</time></trkpt><trkpt lat="45.70445348833633" lon="10.685015203054979"><ele>187.0</ele><time>2026-04-06T13:04:22.069Z</time></trkpt><trkpt lat="45.70453590642843" lon="10.685129238545196"><ele>200.0</ele><time>2026-04-06T13:04:23.035Z</time></trkpt><trkpt lat="45.704625998016645" lon="10.685255917153645"><ele>213.0</ele><time>2026-04-06T13:04:24.03Z</time></trkpt><trkpt lat="45.70482514011524" lon="10.685532484455702"><ele>199.0</ele><time>2026-04-06T13:04:25.031Z</time></trkpt><trkpt lat="45.70591071278348" lon="10.68722200183269"><ele>222.5</ele><time>2026-04-06T13:04:28.612Z</time></trkpt><trkpt lat="45.70616487503216" lon="10.687747512517408"><ele>246.0</ele><time>2026-04-06T13:04:29.607Z</time></trkpt><trkpt lat="45.706395337014364" lon="10.688299928608865"><ele>224.0</ele><time>2026-04-06T13:04:30.609Z</time></trkpt><trkpt lat="45.70667753885297" lon="10.688799115003935"><ele>202.0</ele><time>2026-04-06T13:04:31.609Z</time></trkpt><trkpt lat="45.70696061251485" lon="10.689297736712767"><ele>208.0</ele><time>2026-04-06T13:04:32.608Z</time></trkpt><trkpt lat="45.7071871" lon="10.6896973"><ele>214.0</ele><time>2026-04-06T13:04:33.607Z</time></trkpt><trkpt lat="45.70825997719935" lon="10.692215088000202"><ele>214.0</ele><time>2026-04-06T13:05:05Z</time></trkpt><trkpt lat="45.70829828642603" lon="10.692405122516528"><ele>214.0</ele><time>2026-04-06T13:05:06Z</time></trkpt><trkpt lat="45.70832922949872" lon="10.69258615281608"><ele>214.0</ele><time>2026-04-06T13:05:07Z</time></trkpt><trkpt lat="45.708371682216715" lon="10.692742598303532"><ele>214.0</ele><time>2026-04-06T13:05:08Z</time></trkpt><trkpt lat="45.70839854558961" lon="10.692915485927802"><ele>214.0</ele><time>2026-04-06T13:05:09Z</time></trkpt><trkpt lat="45.70843238014314" lon="10.69308736210957"><ele>214.0</ele><time>2026-04-06T13:05:10Z</time></trkpt><trkpt lat="45.708495221968185" lon="10.693374009376438"><ele>214.0</ele><time>2026-04-06T13:05:11Z</time></trkpt><trkpt lat="45.708557941557615" lon="10.693600409863482"><ele>233.66666666666666</ele><time>2026-04-06T13:05:12Z</time></trkpt><trkpt lat="45.70860379903738" lon="10.693818288181511"><ele>253.33333333333331</ele><time>2026-04-06T13:05:13Z</time></trkpt><trkpt lat="45.708681130555554" lon="10.69402066509664"><ele>273.0</ele><time>2026-04-06T13:05:14Z</time></trkpt><trkpt lat="45.70876137078265" lon="10.694207078864606"><ele>273.0</ele><time>2026-04-06T13:05:15Z</time></trkpt><trkpt lat="45.7088457842751" lon="10.694383072912219"><ele>273.0</ele><time>2026-04-06T13:05:16Z</time></trkpt><trkpt lat="45.70893513334705" lon="10.694579323630178"><ele>273.0</ele><time>2026-04-06T13:05:17Z</time></trkpt><trkpt lat="45.70902056305233" lon="10.694780083990695"><ele>273.0</ele><time>2026-04-06T13:05:18Z</time></trkpt><trkpt lat="45.70910897594989" lon="10.694967343236762"><ele>273.0</ele><time>2026-04-06T13:05:19Z</time></trkpt><trkpt lat="45.70920045572684" lon="10.69511969827451"><ele>273.0</ele><time>2026-04-06T13:05:20Z</time></trkpt><trkpt lat="45.709284126100655" lon="10.695271024241691"><ele>273.0</ele><time>2026-04-06T13:05:21Z</time></trkpt><trkpt lat="45.70938148990227" lon="10.69544711654701"><ele>273.25</ele><time>2026-04-06T13:05:22.048Z</time></trkpt><trkpt lat="45.709475921618775" lon="10.695614077840844"><ele>273.5</ele><time>2026-04-06T13:05:23.046Z</time></trkpt><trkpt lat="45.7095710545384" lon="10.69578156061063"><ele>273.75</ele><time>2026-04-06T13:05:24.047Z</time></trkpt><trkpt lat="45.70966456024377" lon="10.695946178136882"><ele>274.0</ele><time>2026-04-06T13:05:25.046Z</time></trkpt><trkpt lat="45.70974987260531" lon="10.696084774236729"><ele>259.0</ele><time>2026-04-06T13:05:26.028Z</time></trkpt><trkpt lat="45.709842025916174" lon="10.696221722468614"><ele>244.0</ele><time>2026-04-06T13:05:27.027Z</time></trkpt><trkpt lat="45.71112886391671" lon="10.697674943506108"><ele>251.0</ele><time>2026-04-06T13:05:30.609Z</time></trkpt><trkpt lat="45.7114703696515" lon="10.698096169822513"><ele>251.0</ele><time>2026-04-06T13:05:31.612Z</time></trkpt><trkpt lat="45.71181112545121" lon="10.698515069892352"><ele>251.0</ele><time>2026-04-06T13:05:32.612Z</time></trkpt><trkpt lat="45.71215098151874" lon="10.698933020811427"><ele>214.5</ele><time>2026-04-06T13:05:33.609Z</time></trkpt><trkpt lat="45.71240202670939" lon="10.699439422763808"><ele>178.0</ele><time>2026-04-06T13:05:34.609Z</time></trkpt><trkpt lat="45.7123955" lon="10.700080045302832"><ele>164.5</ele><time>2026-04-06T13:05:35.607Z</time></trkpt><trkpt lat="45.71223726642303" lon="10.700376769808367"><ele>151.0</ele><time>2026-04-06T13:05:57Z</time></trkpt><trkpt lat="45.71244360382907" lon="10.700489653241535"><ele>151.0</ele><time>2026-04-06T13:05:58Z</time></trkpt><trkpt lat="45.71255489258532" lon="10.700419730102217"><ele>151.0</ele><time>2026-04-06T13:05:59Z</time></trkpt><trkpt lat="45.712666783479875" lon="10.700475762692028"><ele>151.0</ele><time>2026-04-06T13:06:00Z</time></trkpt><trkpt lat="45.71277619952514" lon="10.700546599280093"><ele>151.0</ele><time>2026-04-06T13:06:01Z</time></trkpt><trkpt lat="45.71289059738591" lon="10.700609806351325"><ele>158.0</ele><time>2026-04-06T13:06:02Z</time></trkpt><trkpt lat="45.713005163115156" lon="10.700680432195105"><ele>165.0</ele><time>2026-04-06T13:06:03Z</time></trkpt><trkpt lat="45.7131256332495" lon="10.700751797943726"><ele>172.0</ele><time>2026-04-06T13:06:04Z</time></trkpt><trkpt lat="45.7132573718195" lon="10.700828328142459"><ele>179.0</ele><time>2026-04-06T13:06:05Z</time></trkpt><trkpt lat="45.713391425521166" lon="10.700908814298034"><ele>179.0</ele><time>2026-04-06T13:06:06Z</time></trkpt><trkpt lat="45.71352248369048" lon="10.700992099369056"><ele>179.0</ele><time>2026-04-06T13:06:07Z</time></trkpt><trkpt lat="45.71364972166815" lon="10.70106798532889"><ele>179.0</ele><time>2026-04-06T13:06:08Z</time></trkpt><trkpt lat="45.713773215758216" lon="10.701143727526542"><ele>179.0</ele><time>2026-04-06T13:06:09Z</time></trkpt><trkpt lat="45.71388428676398" lon="10.701214854819852"><ele>176.6</ele><time>2026-04-06T13:06:10Z</time></trkpt><trkpt lat="45.71398132769887" lon="10.701275291429251"><ele>174.2</ele><time>2026-04-06T13:06:11Z</time></trkpt><trkpt lat="45.714074279237764" lon="10.701342611031862"><ele>171.79999999999998</ele><time>2026-04-06T13:06:12Z</time></trkpt><trkpt lat="45.71416415555094" lon="10.701416114881404"><ele>169.39999999999998</ele><time>2026-04-06T13:06:13Z</time></trkpt><trkpt lat="45.71424374239365" lon="10.70150982154542"><ele>167.0</ele><time>2026-04-06T13:06:14Z</time></trkpt><trkpt lat="45.714325702104" lon="10.701627241049966"><ele>166.25</ele><time>2026-04-06T13:06:15Z</time></trkpt><trkpt lat="45.71441292457942" lon="10.701750294391564"><ele>165.5</ele><time>2026-04-06T13:06:16Z</time></trkpt><trkpt lat="45.71449723981065" lon="10.7018678156874"><ele>164.75</ele><time>2026-04-06T13:06:17Z</time></trkpt><trkpt lat="45.71457437025964" lon="10.701977939162186"><ele>164.0</ele><time>2026-04-06T13:06:18Z</time></trkpt><trkpt lat="45.71465353365739" lon="10.702085815107372"><ele>164.0</ele><time>2026-04-06T13:06:19Z</time></trkpt><trkpt lat="45.71473794952928" lon="10.702195169799111"><ele>164.0</ele><time>2026-04-06T13:06:20Z</time></trkpt><trkpt lat="45.714826793053334" lon="10.702311704168789"><ele>164.0</ele><time>2026-04-06T13:06:21Z</time></trkpt><trkpt lat="45.71492957215261" lon="10.702436456978862"><ele>164.0</ele><time>2026-04-06T13:06:22Z</time></trkpt><trkpt lat="45.71505780196538" lon="10.702557611510418"><ele>164.0</ele><time>2026-04-06T13:06:23Z</time></trkpt><trkpt lat="45.71519002802302" lon="10.702714256252781"><ele>164.0</ele><time>2026-04-06T13:06:24Z</time></trkpt><trkpt lat="45.71533753256047" lon="10.702862081687304"><ele>164.0</ele><time>2026-04-06T13:06:25Z</time></trkpt><trkpt lat="45.71548535410857" lon="10.703010248572012"><ele>163.66666666666666</ele><time>2026-04-06T13:06:26Z</time></trkpt><trkpt lat="45.715642328451075" lon="10.703139695649698"><ele>163.33333333333334</ele><time>2026-04-06T13:06:27Z</time></trkpt><trkpt lat="45.7157887459285" lon="10.703293883671593"><ele>163.0</ele><time>2026-04-06T13:06:28Z</time></trkpt><trkpt lat="45.715937417743625" lon="10.703445647745726"><ele>162.66666666666669</ele><time>2026-04-06T13:06:29Z</time></trkpt><trkpt lat="45.716080745073185" lon="10.703587780677381"><ele>162.33333333333334</ele><time>2026-04-06T13:06:30Z</time></trkpt><trkpt lat="45.71621988055956" lon="10.703725273450605"><ele>162.0</ele><time>2026-04-06T13:06:31Z</time></trkpt><trkpt lat="45.71635238978513" lon="10.703866814390265"><ele>162.0</ele><time>2026-04-06T13:06:32Z</time></trkpt><trkpt lat="45.71647914724039" lon="10.704009317726893"><ele>162.0</ele><time>2026-04-06T13:06:33Z</time></trkpt><trkpt lat="45.71659682375896" lon="10.70416058815187"><ele>162.0</ele><time>2026-04-06T13:06:34Z</time></trkpt><trkpt lat="45.71670439866962" lon="10.704323366513322"><ele>164.33333333333334</ele><time>2026-04-06T13:06:35Z</time></trkpt><trkpt lat="45.716800469721534" lon="10.704492403419712"><ele>166.66666666666669</ele><time>2026-04-06T13:06:36Z</time></trkpt><trkpt lat="45.716898731789904" lon="10.7046622982571"><ele>169.0</ele><time>2026-04-06T13:06:37Z</time></trkpt><trkpt lat="45.71699466303138" lon="10.704829703975326"><ele>169.0</ele><time>2026-04-06T13:06:38Z</time></trkpt><trkpt lat="45.71709169351675" lon="10.704992924060969"><ele>169.0</ele><time>2026-04-06T13:06:39Z</time></trkpt><trkpt lat="45.71718924508873" lon="10.705148062718994"><ele>169.0</ele><time>2026-04-06T13:06:40Z</time></trkpt><trkpt lat="45.7172880881853" lon="10.705299010735006"><ele>169.0</ele><time>2026-04-06T13:06:41Z</time></trkpt><trkpt lat="45.71738830305555" lon="10.705445603999445"><ele>171.75</ele><time>2026-04-06T13:06:42Z</time></trkpt><trkpt lat="45.71748555809533" lon="10.705585327892788"><ele>174.5</ele><time>2026-04-06T13:06:43Z</time></trkpt><trkpt lat="45.71757854672434" lon="10.705718700234891"><ele>177.25</ele><time>2026-04-06T13:06:44Z</time></trkpt><trkpt lat="45.71766801704618" lon="10.705844280908506"><ele>180.0</ele><time>2026-04-06T13:06:45Z</time></trkpt><trkpt lat="45.71776981847993" lon="10.7059705066379"><ele>175.5</ele><time>2026-04-06T13:06:46Z</time></trkpt><trkpt lat="45.717883121061014" lon="10.70609449290018"><ele>171.0</ele><time>2026-04-06T13:06:47Z</time></trkpt><trkpt lat="45.71800099960041" lon="10.70621052680089"><ele>166.5</ele><time>2026-04-06T13:06:48Z</time></trkpt><trkpt lat="45.71812034686564" lon="10.706319339612564"><ele>162.0</ele><time>2026-04-06T13:06:49Z</time></trkpt><trkpt lat="45.71822899338368" lon="10.706446804146093"><ele>162.0</ele><time>2026-04-06T13:06:50Z</time></trkpt><trkpt lat="45.71835706696431" lon="10.706566544758298"><ele>162.0</ele><time>2026-04-06T13:06:51Z</time></trkpt><trkpt lat="45.71849202546886" lon="10.70668276968583"><ele>162.0</ele><time>2026-04-06T13:06:52Z</time></trkpt><trkpt lat="45.71862728065673" lon="10.706795120934952"><ele>165.5</ele><time>2026-04-06T13:06:53Z</time></trkpt><trkpt lat="45.71875756154814" lon="10.706901200852785"><ele>169.0</ele><time>2026-04-06T13:06:54Z</time></trkpt><trkpt lat="45.71888852399675" lon="10.707005506693367"><ele>172.5</ele><time>2026-04-06T13:06:55Z</time></trkpt><trkpt lat="45.71901423956685" lon="10.707107512112009"><ele>176.0</ele><time>2026-04-06T13:06:56Z</time></trkpt><trkpt lat="45.71913669550536" lon="10.707209565697518"><ele>176.0</ele><time>2026-04-06T13:06:57Z</time></trkpt><trkpt lat="45.7192523737168" lon="10.707313174792976"><ele>176.0</ele><time>2026-04-06T13:06:58Z</time></trkpt><trkpt lat="45.719365967889765" lon="10.707414032367918"><ele>176.0</ele><time>2026-04-06T13:06:59Z</time></trkpt><trkpt lat="45.71949780548292" lon="10.707523430562153"><ele>176.0</ele><time>2026-04-06T13:07:00Z</time></trkpt><trkpt lat="45.719664439881946" lon="10.70763632455307"><ele>187.0</ele><time>2026-04-06T13:07:01Z</time></trkpt><trkpt lat="45.7198319627844" lon="10.707730051876261"><ele>198.0</ele><time>2026-04-06T13:07:02Z</time></trkpt><trkpt lat="45.7199754367624" lon="10.70780666784718"><ele>209.0</ele><time>2026-04-06T13:07:03Z</time></trkpt><trkpt lat="45.72011180349333" lon="10.707876569598627"><ele>209.66666666666669</ele><time>2026-04-06T13:07:04Z</time></trkpt><trkpt lat="45.720252348021674" lon="10.707957904892922"><ele>210.33333333333331</ele><time>2026-04-06T13:07:05Z</time></trkpt><trkpt lat="45.72040102432827" lon="10.70804375005347"><ele>211.0</ele><time>2026-04-06T13:07:06Z</time></trkpt><trkpt lat="45.72056433653677" lon="10.708103714264922"><ele>211.0</ele><time>2026-04-06T13:07:07Z</time></trkpt><trkpt lat="45.72072434470691" lon="10.708187830898193"><ele>211.0</ele><time>2026-04-06T13:07:08Z</time></trkpt><trkpt lat="45.720889546096586" lon="10.708291969864623"><ele>211.0</ele><time>2026-04-06T13:07:09.07Z</time></trkpt><trkpt lat="45.721042174785" lon="10.708390497247764"><ele>207.0</ele><time>2026-04-06T13:07:10.034Z</time></trkpt><trkpt lat="45.72119014906591" lon="10.708489968677227"><ele>203.0</ele><time>2026-04-06T13:07:11.032Z</time></trkpt><trkpt lat="45.72133803726871" lon="10.708587720907463"><ele>199.0</ele><time>2026-04-06T13:07:12.034Z</time></trkpt><trkpt lat="45.7214831354675" lon="10.70867813376547"><ele>219.0</ele><time>2026-04-06T13:07:13.032Z</time></trkpt><trkpt lat="45.72322907958736" lon="10.710005498783156"><ele>272.0</ele><time>2026-04-06T13:07:16.612Z</time></trkpt><trkpt lat="45.723689998484836" lon="10.710612494791688"><ele>284.0</ele><time>2026-04-06T13:07:17.608Z</time></trkpt><trkpt lat="45.72415530522086" lon="10.711224292204928"><ele>288.0</ele><time>2026-04-06T13:07:18.612Z</time></trkpt><trkpt lat="45.7244945" lon="10.7116699"><ele>86.0</ele><time>2026-04-06T13:07:19.61Z</time></trkpt><trkpt lat="45.72801724887123" lon="10.717857431792023"><ele>86.0</ele><time>2026-04-06T13:08:06Z</time></trkpt><trkpt lat="45.72801226634887" lon="10.718105352831982"><ele>86.0</ele><time>2026-04-06T13:08:07Z</time></trkpt><trkpt lat="45.72798120908815" lon="10.718388809280247"><ele>86.0</ele><time>2026-04-06T13:08:08Z</time></trkpt><trkpt lat="45.727938306683626" lon="10.718607821286499"><ele>87.5</ele><time>2026-04-06T13:08:09Z</time></trkpt><trkpt lat="45.72793207667273" lon="10.718793369728862"><ele>89.0</ele><time>2026-04-06T13:08:10Z</time></trkpt><trkpt lat="45.72792237095354" lon="10.718968039159243"><ele>90.5</ele><time>2026-04-06T13:08:11Z</time></trkpt><trkpt lat="45.72791310933555" lon="10.719133051334543"><ele>92.0</ele><time>2026-04-06T13:08:12Z</time></trkpt><trkpt lat="45.727926530644986" lon="10.719286217731039"><ele>88.75</ele><time>2026-04-06T13:08:13Z</time></trkpt><trkpt lat="45.72793428866505" lon="10.719430181860979"><ele>85.5</ele><time>2026-04-06T13:08:14Z</time></trkpt><trkpt lat="45.727956251638545" lon="10.719585916120558"><ele>82.25</ele><time>2026-04-06T13:08:15Z</time></trkpt><trkpt lat="45.72800083715345" lon="10.719749255121865"><ele>79.0</ele><time>2026-04-06T13:08:16Z</time></trkpt><trkpt lat="45.728073603648355" lon="10.719905643081438"><ele>79.0</ele><time>2026-04-06T13:08:17Z</time></trkpt><trkpt lat="45.72816409545566" lon="10.720040401499139"><ele>79.0</ele><time>2026-04-06T13:08:18Z</time></trkpt><trkpt lat="45.728264706915155" lon="10.720140206295515"><ele>79.0</ele><time>2026-04-06T13:08:19Z</time></trkpt><trkpt lat="45.72837708144113" lon="10.720184972869319"><ele>79.0</ele><time>2026-04-06T13:08:20Z</time></trkpt><trkpt lat="45.728475771830944" lon="10.720234986382378"><ele>82.80000000000001</ele><time>2026-04-06T13:08:21Z</time></trkpt><trkpt lat="45.72857114406866" lon="10.720274933560821"><ele>86.60000000000001</ele><time>2026-04-06T13:08:22Z</time></trkpt><trkpt lat="45.728679901971404" lon="10.720305580039945"><ele>90.4</ele><time>2026-04-06T13:08:23Z</time></trkpt><trkpt lat="45.72878149085198" lon="10.720341104167431"><ele>94.2</ele><time>2026-04-06T13:08:24Z</time></trkpt><trkpt lat="45.728876393809536" lon="10.720387928650647"><ele>98.0</ele><time>2026-04-06T13:08:25Z</time></trkpt><trkpt lat="45.72896510078151" lon="10.72046260366184"><ele>98.0</ele><time>2026-04-06T13:08:26Z</time></trkpt><trkpt lat="45.729053394241035" lon="10.720529400321855"><ele>98.0</ele><time>2026-04-06T13:08:27Z</time></trkpt><trkpt lat="45.72914963811131" lon="10.720612308017438"><ele>98.0</ele><time>2026-04-06T13:08:28Z</time></trkpt><trkpt lat="45.729232964489526" lon="10.720705330425048"><ele>98.0</ele><time>2026-04-06T13:08:29Z</time></trkpt><trkpt lat="45.7293113315608" lon="10.720805201729362"><ele>98.0</ele><time>2026-04-06T13:08:30Z</time></trkpt><trkpt lat="45.729393018703554" lon="10.720925128556006"><ele>106.75</ele><time>2026-04-06T13:08:31Z</time></trkpt><trkpt lat="45.72946425141274" lon="10.721057199922008"><ele>115.5</ele><time>2026-04-06T13:08:32Z</time></trkpt><trkpt lat="45.72952851540586" lon="10.721181540741194"><ele>124.25</ele><time>2026-04-06T13:08:33Z</time></trkpt><trkpt lat="45.72960602698717" lon="10.721334881667323"><ele>133.0</ele><time>2026-04-06T13:08:34Z</time></trkpt><trkpt lat="45.72965907022748" lon="10.721472866015594"><ele>133.0</ele><time>2026-04-06T13:08:35Z</time></trkpt><trkpt lat="45.729795871404825" lon="10.72170978447925"><ele>133.0</ele><time>2026-04-06T13:08:36Z</time></trkpt><trkpt lat="45.72992009975916" lon="10.721955503231184"><ele>133.0</ele><time>2026-04-06T13:08:37Z</time></trkpt><trkpt lat="45.730027394822166" lon="10.72216772839651"><ele>115.0</ele><time>2026-04-06T13:08:38Z</time></trkpt><trkpt lat="45.73012919688669" lon="10.722369356625027"><ele>97.0</ele><time>2026-04-06T13:08:39Z</time></trkpt><trkpt lat="45.730234829643365" lon="10.722564965853174"><ele>79.0</ele><time>2026-04-06T13:08:40Z</time></trkpt><trkpt lat="45.7303423049556" lon="10.72276194469042"><ele>79.0</ele><time>2026-04-06T13:08:41Z</time></trkpt><trkpt lat="45.730431313071286" lon="10.722972983693172"><ele>79.0</ele><time>2026-04-06T13:08:42Z</time></trkpt><trkpt lat="45.73054506752648" lon="10.723167609552906"><ele>79.0</ele><time>2026-04-06T13:08:43Z</time></trkpt><trkpt lat="45.73064588370875" lon="10.72338279438574"><ele>79.66666666666666</ele><time>2026-04-06T13:08:44Z</time></trkpt><trkpt lat="45.730743754699375" lon="10.72360152898491"><ele>80.33333333333333</ele><time>2026-04-06T13:08:45Z</time></trkpt><trkpt lat="45.730837874550076" lon="10.723822235056726"><ele>81.0</ele><time>2026-04-06T13:08:46Z</time></trkpt><trkpt lat="45.730928091680255" lon="10.72404323956658"><ele>81.0</ele><time>2026-04-06T13:08:47Z</time></trkpt><trkpt lat="45.73101144000609" lon="10.724267005697204"><ele>81.0</ele><time>2026-04-06T13:08:48Z</time></trkpt><trkpt lat="45.73108938126718" lon="10.72449218806676"><ele>81.0</ele><time>2026-04-06T13:08:49Z</time></trkpt><trkpt lat="45.7311635906284" lon="10.7247140878733"><ele>85.66666666666667</ele><time>2026-04-06T13:08:50Z</time></trkpt><trkpt lat="45.73123294784818" lon="10.724937004063966"><ele>90.33333333333334</ele><time>2026-04-06T13:08:51Z</time></trkpt><trkpt lat="45.73130051985875" lon="10.725158004618903"><ele>95.0</ele><time>2026-04-06T13:08:52Z</time></trkpt><trkpt lat="45.73137522015556" lon="10.725368595984586"><ele>95.0</ele><time>2026-04-06T13:08:53Z</time></trkpt><trkpt lat="45.73146079543453" lon="10.725577493429705"><ele>95.0</ele><time>2026-04-06T13:08:54Z</time></trkpt><trkpt lat="45.73155260186408" lon="10.725776664773434"><ele>95.0</ele><time>2026-04-06T13:08:55Z</time></trkpt><trkpt lat="45.731650655193036" lon="10.725976106877141"><ele>90.66666666666667</ele><time>2026-04-06T13:08:56Z</time></trkpt><trkpt lat="45.731749716865814" lon="10.726176113714672"><ele>86.33333333333333</ele><time>2026-04-06T13:08:57Z</time></trkpt><trkpt lat="45.73184992563786" lon="10.726371730261475"><ele>82.0</ele><time>2026-04-06T13:08:58Z</time></trkpt><trkpt lat="45.73195693296926" lon="10.726568632349855"><ele>87.0</ele><time>2026-04-06T13:08:59Z</time></trkpt><trkpt lat="45.73205934149182" lon="10.726772939909406"><ele>92.0</ele><time>2026-04-06T13:09:00Z</time></trkpt><trkpt lat="45.73215776801639" lon="10.72697838809704"><ele>97.0</ele><time>2026-04-06T13:09:01Z</time></trkpt><trkpt lat="45.732258334664984" lon="10.727183724665233"><ele>97.0</ele><time>2026-04-06T13:09:02Z</time></trkpt><trkpt lat="45.73236115967315" lon="10.727387721807666"><ele>97.0</ele><time>2026-04-06T13:09:03Z</time></trkpt><trkpt lat="45.73246159806784" lon="10.727592757088889"><ele>97.0</ele><time>2026-04-06T13:09:04Z</time></trkpt><trkpt lat="45.73256999805602" lon="10.727789196777714"><ele>91.0</ele><time>2026-04-06T13:09:05Z</time></trkpt><trkpt lat="45.732688544251" lon="10.727968919687624"><ele>85.0</ele><time>2026-04-06T13:09:06Z</time></trkpt><trkpt lat="45.73281403032612" lon="10.728145023395221"><ele>79.0</ele><time>2026-04-06T13:09:07Z</time></trkpt><trkpt lat="45.73293830521278" lon="10.72832058958656"><ele>83.0</ele><time>2026-04-06T13:09:08Z</time></trkpt><trkpt lat="45.733056333399595" lon="10.728498647425655"><ele>87.0</ele><time>2026-04-06T13:09:09Z</time></trkpt><trkpt lat="45.7331627573034" lon="10.728674007977085"><ele>91.0</ele><time>2026-04-06T13:09:10Z</time></trkpt><trkpt lat="45.73324699646911" lon="10.728866184773056"><ele>91.0</ele><time>2026-04-06T13:09:11Z</time></trkpt><trkpt lat="45.733329368709036" lon="10.729045486611415"><ele>91.0</ele><time>2026-04-06T13:09:12Z</time></trkpt><trkpt lat="45.73340248852897" lon="10.729239390766635"><ele>91.0</ele><time>2026-04-06T13:09:13Z</time></trkpt><trkpt lat="45.73346666050951" lon="10.72944110324502"><ele>89.0</ele><time>2026-04-06T13:09:14Z</time></trkpt><trkpt lat="45.73354429641363" lon="10.729631740830452"><ele>87.0</ele><time>2026-04-06T13:09:15Z</time></trkpt><trkpt lat="45.73360834558669" lon="10.729816256270215"><ele>85.0</ele><time>2026-04-06T13:09:16Z</time></trkpt><trkpt lat="45.73368531910161" lon="10.729991421368593"><ele>83.0</ele><time>2026-04-06T13:09:17Z</time></trkpt><trkpt lat="45.73377907222222" lon="10.73015324506167"><ele>83.5</ele><time>2026-04-06T13:09:18Z</time></trkpt><trkpt lat="45.73387912338054" lon="10.730298646638255"><ele>84.0</ele><time>2026-04-06T13:09:19Z</time></trkpt><trkpt lat="45.73397827337803" lon="10.730431561285393"><ele>84.5</ele><time>2026-04-06T13:09:20Z</time></trkpt><trkpt lat="45.734073256089765" lon="10.730560959348814"><ele>85.0</ele><time>2026-04-06T13:09:21Z</time></trkpt><trkpt lat="45.734169917405836" lon="10.730697342607343"><ele>85.0</ele><time>2026-04-06T13:09:22Z</time></trkpt><trkpt lat="45.73425521725354" lon="10.730851247880867"><ele>85.0</ele><time>2026-04-06T13:09:23Z</time></trkpt><trkpt lat="45.73435296609206" lon="10.730992101283967"><ele>85.0</ele><time>2026-04-06T13:09:24Z</time></trkpt><trkpt lat="45.73445132633923" lon="10.731133835778085"><ele>85.0</ele><time>2026-04-06T13:09:25Z</time></trkpt><trkpt lat="45.73455426236218" lon="10.731282392792878"><ele>89.33333333333333</ele><time>2026-04-06T13:09:26Z</time></trkpt><trkpt lat="45.73466245965007" lon="10.731434885398397"><ele>93.66666666666666</ele><time>2026-04-06T13:09:27Z</time></trkpt><trkpt lat="45.7347695068667" lon="10.731586391539828"><ele>98.0</ele><time>2026-04-06T13:09:28Z</time></trkpt><trkpt lat="45.73487381957883" lon="10.731736085946636"><ele>98.0</ele><time>2026-04-06T13:09:29Z</time></trkpt><trkpt lat="45.73497678129595" lon="10.731884769918032"><ele>98.0</ele><time>2026-04-06T13:09:30Z</time></trkpt><trkpt lat="45.73508881733992" lon="10.73201880429456"><ele>98.0</ele><time>2026-04-06T13:09:31Z</time></trkpt><trkpt lat="45.73515397335547" lon="10.732211636701626"><ele>98.0</ele><time>2026-04-06T13:09:32Z</time></trkpt><trkpt lat="45.73527412320759" lon="10.732422834392626"><ele>98.25</ele><time>2026-04-06T13:09:33.079Z</time></trkpt><trkpt lat="45.73533840916862" lon="10.732452517369655"><ele>98.5</ele><time>2026-04-06T13:09:34Z</time></trkpt><trkpt lat="45.735444914392694" lon="10.732572444727705"><ele>98.75</ele><time>2026-04-06T13:09:35Z</time></trkpt><trkpt lat="45.73553965036916" lon="10.73270630967925"><ele>99.0</ele><time>2026-04-06T13:09:36Z</time></trkpt><trkpt lat="45.73558856289121" lon="10.732860831432912"><ele>99.0</ele><time>2026-04-06T13:09:37Z</time></trkpt><trkpt lat="45.73561687251562" lon="10.733021514896244"><ele>99.0</ele><time>2026-04-06T13:09:38Z</time></trkpt><trkpt lat="45.73561725377566" lon="10.733188476545253"><ele>99.0</ele><time>2026-04-06T13:09:39Z</time></trkpt><trkpt lat="45.73563855909793" lon="10.733346950074932"><ele>99.0</ele><time>2026-04-06T13:09:40Z</time></trkpt><trkpt lat="45.73564538817279" lon="10.733499668340437"><ele>97.5</ele><time>2026-04-06T13:09:41Z</time></trkpt><trkpt lat="45.73565348939237" lon="10.733629942352865"><ele>96.0</ele><time>2026-04-06T13:09:42Z</time></trkpt><trkpt lat="45.735666368122274" lon="10.733740095431363"><ele>94.5</ele><time>2026-04-06T13:09:43Z</time></trkpt><trkpt lat="45.73568361818503" lon="10.733841862502933"><ele>93.0</ele><time>2026-04-06T13:09:44Z</time></trkpt><trkpt lat="45.735708386124166" lon="10.733962385422469"><ele>91.5</ele><time>2026-04-06T13:09:45Z</time></trkpt><trkpt lat="45.735741160016104" lon="10.734092042585411"><ele>90.0</ele><time>2026-04-06T13:09:46Z</time></trkpt><trkpt lat="45.735784915915595" lon="10.734228494797076"><ele>90.0</ele><time>2026-04-06T13:09:47Z</time></trkpt><trkpt lat="45.735839389617716" lon="10.734365403180428"><ele>90.0</ele><time>2026-04-06T13:09:48Z</time></trkpt><trkpt lat="45.73589886897453" lon="10.734503135693119"><ele>90.0</ele><time>2026-04-06T13:09:49Z</time></trkpt><trkpt lat="45.73597572179654" lon="10.734635362462214"><ele>90.0</ele><time>2026-04-06T13:09:50Z</time></trkpt><trkpt lat="45.73605555493385" lon="10.734756550231712"><ele>93.75</ele><time>2026-04-06T13:09:51Z</time></trkpt><trkpt lat="45.736145881586154" lon="10.73486908466183"><ele>97.5</ele><time>2026-04-06T13:09:52Z</time></trkpt><trkpt lat="45.7362460614677" lon="10.73497346355677"><ele>101.25</ele><time>2026-04-06T13:09:53Z</time></trkpt><trkpt lat="45.73635327671431" lon="10.735069137411893"><ele>105.0</ele><time>2026-04-06T13:09:54Z</time></trkpt><trkpt lat="45.7364714321526" lon="10.735156463077464"><ele>101.0</ele><time>2026-04-06T13:09:55Z</time></trkpt><trkpt lat="45.73658985228668" lon="10.735243102606386"><ele>97.0</ele><time>2026-04-06T13:09:56Z</time></trkpt><trkpt lat="45.736710309950055" lon="10.735329947005313"><ele>93.0</ele><time>2026-04-06T13:09:57Z</time></trkpt><trkpt lat="45.73682439585171" lon="10.735419260497837"><ele>89.0</ele><time>2026-04-06T13:09:58Z</time></trkpt><trkpt lat="45.736941732355746" lon="10.735503613731783"><ele>89.0</ele><time>2026-04-06T13:09:59Z</time></trkpt><trkpt lat="45.737058433068654" lon="10.735572357107312"><ele>89.0</ele><time>2026-04-06T13:10:00Z</time></trkpt><trkpt lat="45.73718913020251" lon="10.735634883799872"><ele>89.0</ele><time>2026-04-06T13:10:01Z</time></trkpt><trkpt lat="45.73732474663228" lon="10.735668012987823"><ele>89.0</ele><time>2026-04-06T13:10:02Z</time></trkpt><trkpt lat="45.73746211202195" lon="10.73568863129024"><ele>89.0</ele><time>2026-04-06T13:10:03Z</time></trkpt><trkpt lat="45.7375993173793" lon="10.735706418576314"><ele>89.0</ele><time>2026-04-06T13:10:04Z</time></trkpt><trkpt lat="45.73773886206216" lon="10.735714369400183"><ele>89.0</ele><time>2026-04-06T13:10:05Z</time></trkpt><trkpt lat="45.737882285602225" lon="10.735720294988212"><ele>89.0</ele><time>2026-04-06T13:10:06Z</time></trkpt><trkpt lat="45.738028181883635" lon="10.73571823276782"><ele>94.5</ele><time>2026-04-06T13:10:07Z</time></trkpt><trkpt lat="45.738177208688555" lon="10.735730582118308"><ele>100.0</ele><time>2026-04-06T13:10:08Z</time></trkpt><trkpt lat="45.738323990941346" lon="10.735749513737728"><ele>105.5</ele><time>2026-04-06T13:10:09Z</time></trkpt><trkpt lat="45.73846906003808" lon="10.735775102049882"><ele>111.0</ele><time>2026-04-06T13:10:10Z</time></trkpt><trkpt lat="45.738607729354776" lon="10.735809165998417"><ele>123.5</ele><time>2026-04-06T13:10:11Z</time></trkpt><trkpt lat="45.738748214995866" lon="10.735852211151043"><ele>136.0</ele><time>2026-04-06T13:10:12Z</time></trkpt><trkpt lat="45.73888349174624" lon="10.735900995155086"><ele>148.5</ele><time>2026-04-06T13:10:13Z</time></trkpt><trkpt lat="45.739020586671174" lon="10.735961011398532"><ele>161.0</ele><time>2026-04-06T13:10:14.063Z</time></trkpt><trkpt lat="45.73913537844383" lon="10.736019045903571"><ele>158.5</ele><time>2026-04-06T13:10:15.056Z</time></trkpt><trkpt lat="45.73925777494625" lon="10.736081373497706"><ele>156.0</ele><time>2026-04-06T13:10:16.049Z</time></trkpt><trkpt lat="45.73936204182311" lon="10.736145162032598"><ele>153.5</ele><time>2026-04-06T13:10:17.044Z</time></trkpt><trkpt lat="45.73947364686523" lon="10.736217665918213"><ele>151.0</ele><time>2026-04-06T13:10:18.044Z</time></trkpt><trkpt lat="45.7410090820085" lon="10.737990557454141"><ele>102.0</ele><time>2026-04-06T13:10:21.61Z</time></trkpt><trkpt lat="45.74144339318382" lon="10.738640706299735"><ele>152.0</ele><time>2026-04-06T13:10:22.609Z</time></trkpt><trkpt lat="45.74189235490053" lon="10.739271065327497"><ele>94.0</ele><time>2026-04-06T13:10:23.609Z</time></trkpt><trkpt lat="45.74237102132949" lon="10.739854329153362"><ele>109.0</ele><time>2026-04-06T13:10:24.608Z</time></trkpt><trkpt lat="45.74287487459263" lon="10.74039364070216"><ele>109.0</ele><time>2026-04-06T13:10:25.608Z</time></trkpt><trkpt lat="45.74337662512619" lon="10.74093776468919"><ele>99.5</ele><time>2026-04-06T13:10:26.608Z</time></trkpt><trkpt lat="45.7434814" lon="10.7410517"><ele>90.0</ele><time>2026-04-06T13:10:27.609Z</time></trkpt><trkpt lat="45.76189479552282" lon="10.753834105723042"><ele>90.0</ele><time>2026-04-06T13:12:46Z</time></trkpt><trkpt lat="45.76196648028589" lon="10.753963540283296"><ele>90.0</ele><time>2026-04-06T13:12:46.996Z</time></trkpt><trkpt lat="45.7620773886097" lon="10.754055827332195"><ele>90.0</ele><time>2026-04-06T13:12:47.996Z</time></trkpt><trkpt lat="45.76217953383065" lon="10.754152889969948"><ele>90.0</ele><time>2026-04-06T13:12:49.004Z</time></trkpt><trkpt lat="45.76227317275307" lon="10.754305885635258"><ele>90.0</ele><time>2026-04-06T13:12:50.004Z</time></trkpt><trkpt lat="45.76236242233807" lon="10.75442888802698"><ele>90.0</ele><time>2026-04-06T13:12:51Z</time></trkpt><trkpt lat="45.76244736681795" lon="10.754552881275098"><ele>90.0</ele><time>2026-04-06T13:12:52.001Z</time></trkpt><trkpt lat="45.762523991388505" lon="10.754688084712878"><ele>90.0</ele><time>2026-04-06T13:12:53.001Z</time></trkpt><trkpt lat="45.76258956914205" lon="10.754827088107644"><ele>160.5</ele><time>2026-04-06T13:12:54.001Z</time></trkpt><trkpt lat="45.762647658241306" lon="10.754988618308479"><ele>231.0</ele><time>2026-04-06T13:12:55.001Z</time></trkpt><trkpt lat="45.76270279434984" lon="10.75515622716979"><ele>301.5</ele><time>2026-04-06T13:12:56.001Z</time></trkpt><trkpt lat="45.762759126652064" lon="10.755318092704213"><ele>372.0</ele><time>2026-04-06T13:12:57.001Z</time></trkpt><trkpt lat="45.762817048016935" lon="10.755473055761106"><ele>374.25</ele><time>2026-04-06T13:12:58.001Z</time></trkpt><trkpt lat="45.76287842010731" lon="10.755630783542523"><ele>376.5</ele><time>2026-04-06T13:12:59.001Z</time></trkpt><trkpt lat="45.76294281617325" lon="10.755786127242226"><ele>378.75</ele><time>2026-04-06T13:13:00.001Z</time></trkpt><trkpt lat="45.763014628226145" lon="10.75594063661418"><ele>381.0</ele><time>2026-04-06T13:13:01.001Z</time></trkpt><trkpt lat="45.763096146938395" lon="10.756091230565623"><ele>381.0</ele><time>2026-04-06T13:13:02.001Z</time></trkpt><trkpt lat="45.76319227101862" lon="10.756251953557662"><ele>381.0</ele><time>2026-04-06T13:13:03.001Z</time></trkpt><trkpt lat="45.76330385538142" lon="10.75642020962264"><ele>381.0</ele><time>2026-04-06T13:13:04Z</time></trkpt><trkpt lat="45.763423252130515" lon="10.756596140073642"><ele>388.0</ele><time>2026-04-06T13:13:05Z</time></trkpt><trkpt lat="45.763541034165605" lon="10.756763013959608"><ele>395.0</ele><time>2026-04-06T13:13:06Z</time></trkpt><trkpt lat="45.76365298180142" lon="10.756921630590794"><ele>402.0</ele><time>2026-04-06T13:13:07Z</time></trkpt><trkpt lat="45.76375960248696" lon="10.757073745762009"><ele>402.0</ele><time>2026-04-06T13:13:08Z</time></trkpt><trkpt lat="45.763855959704514" lon="10.757217923384855"><ele>402.0</ele><time>2026-04-06T13:13:09Z</time></trkpt><trkpt lat="45.76393952578635" lon="10.757363686207057"><ele>402.0</ele><time>2026-04-06T13:13:10Z</time></trkpt><trkpt lat="45.76401107140219" lon="10.757516261151396"><ele>402.0</ele><time>2026-04-06T13:13:11Z</time></trkpt><trkpt lat="45.76407760491103" lon="10.757664858836419"><ele>401.5</ele><time>2026-04-06T13:13:12Z</time></trkpt><trkpt lat="45.76414551427328" lon="10.757815401487614"><ele>401.0</ele><time>2026-04-06T13:13:13Z</time></trkpt><trkpt lat="45.76422207804519" lon="10.757962246759535"><ele>400.5</ele><time>2026-04-06T13:13:14Z</time></trkpt><trkpt lat="45.764307665704244" lon="10.758093434662827"><ele>400.0</ele><time>2026-04-06T13:13:15Z</time></trkpt><trkpt lat="45.76440784627567" lon="10.758214379680112"><ele>399.25</ele><time>2026-04-06T13:13:16Z</time></trkpt><trkpt lat="45.7645050849835" lon="10.758317989473028"><ele>398.5</ele><time>2026-04-06T13:13:17Z</time></trkpt><trkpt lat="45.764599721483414" lon="10.758418826564366"><ele>397.75</ele><time>2026-04-06T13:13:18Z</time></trkpt><trkpt lat="45.76470034679236" lon="10.758522551724324"><ele>397.0</ele><time>2026-04-06T13:13:19Z</time></trkpt><trkpt lat="45.764806769086675" lon="10.758588280846778"><ele>397.0</ele><time>2026-04-06T13:13:20Z</time></trkpt><trkpt lat="45.764908165790345" lon="10.758659671833689"><ele>397.0</ele><time>2026-04-06T13:13:21Z</time></trkpt><trkpt lat="45.765006932825365" lon="10.758739624565743"><ele>397.0</ele><time>2026-04-06T13:13:22Z</time></trkpt><trkpt lat="45.76511493452247" lon="10.758775896643385"><ele>397.0</ele><time>2026-04-06T13:13:23Z</time></trkpt><trkpt lat="45.76522087642887" lon="10.758789468804661"><ele>397.0</ele><time>2026-04-06T13:13:24Z</time></trkpt><trkpt lat="45.76532649464628" lon="10.758833765657284"><ele>406.25</ele><time>2026-04-06T13:13:25Z</time></trkpt><trkpt lat="45.765435136220354" lon="10.758902759581687"><ele>415.5</ele><time>2026-04-06T13:13:26Z</time></trkpt><trkpt lat="45.765537338383716" lon="10.759008399550721"><ele>424.75</ele><time>2026-04-06T13:13:27Z</time></trkpt><trkpt lat="45.765628273458915" lon="10.759128184994331"><ele>434.0</ele><time>2026-04-06T13:13:28Z</time></trkpt><trkpt lat="45.765709837838" lon="10.759253981770716"><ele>434.0</ele><time>2026-04-06T13:13:29Z</time></trkpt><trkpt lat="45.76579609934771" lon="10.759360830019453"><ele>434.0</ele><time>2026-04-06T13:13:30Z</time></trkpt><trkpt lat="45.765896621705046" lon="10.759447951358723"><ele>434.0</ele><time>2026-04-06T13:13:31Z</time></trkpt><trkpt lat="45.76600535125397" lon="10.759506413132367"><ele>434.0</ele><time>2026-04-06T13:13:32Z</time></trkpt><trkpt lat="45.766107006558094" lon="10.75957494184167"><ele>437.75</ele><time>2026-04-06T13:13:33Z</time></trkpt><trkpt lat="45.76620075411505" lon="10.759669803419007"><ele>441.5</ele><time>2026-04-06T13:13:34Z</time></trkpt><trkpt lat="45.76628442142544" lon="10.759791233908246"><ele>445.25</ele><time>2026-04-06T13:13:35Z</time></trkpt><trkpt lat="45.7663580962241" lon="10.759915089769441"><ele>449.0</ele><time>2026-04-06T13:13:36Z</time></trkpt><trkpt lat="45.766436456126236" lon="10.760024335539303"><ele>449.0</ele><time>2026-04-06T13:13:37Z</time></trkpt><trkpt lat="45.76652218307527" lon="10.760115128167493"><ele>449.0</ele><time>2026-04-06T13:13:38Z</time></trkpt><trkpt lat="45.766625159992344" lon="10.760185866146628"><ele>449.0</ele><time>2026-04-06T13:13:39Z</time></trkpt><trkpt lat="45.766733357154635" lon="10.760249231169913"><ele>449.0</ele><time>2026-04-06T13:13:40Z</time></trkpt><trkpt lat="45.76683618934359" lon="10.760319239896997"><ele>448.4</ele><time>2026-04-06T13:13:41Z</time></trkpt><trkpt lat="45.766928156849644" lon="10.760407225650502"><ele>447.79999999999995</ele><time>2026-04-06T13:13:42Z</time></trkpt><trkpt lat="45.76700915650693" lon="10.76050390673469"><ele>447.20000000000005</ele><time>2026-04-06T13:13:43Z</time></trkpt><trkpt lat="45.767089108328264" lon="10.760594991969361"><ele>446.6</ele><time>2026-04-06T13:13:44Z</time></trkpt><trkpt lat="45.76716570893913" lon="10.76067180511164"><ele>446.0</ele><time>2026-04-06T13:13:45Z</time></trkpt><trkpt lat="45.76723989147252" lon="10.76073882505135"><ele>445.99999999999994</ele><time>2026-04-06T13:13:46Z</time></trkpt><trkpt lat="45.76730165662311" lon="10.760792172077611"><ele>446.0</ele><time>2026-04-06T13:13:47Z</time></trkpt><trkpt lat="45.76735990204934" lon="10.760839394955221"><ele>446.0</ele><time>2026-04-06T13:13:48Z</time></trkpt><trkpt lat="45.767422492484485" lon="10.760889817250689"><ele>446.0</ele><time>2026-04-06T13:13:49Z</time></trkpt><trkpt lat="45.76749912190658" lon="10.760952703473661"><ele>445.99999999999994</ele><time>2026-04-06T13:13:51Z</time></trkpt><trkpt lat="45.76756957859214" lon="10.76101309277436"><ele>446.0</ele><time>2026-04-06T13:13:57Z</time></trkpt><trkpt lat="45.76762393573159" lon="10.761072932022955"><ele>430.66666666666663</ele><time>2026-04-06T13:13:59Z</time></trkpt><trkpt lat="45.767676590124914" lon="10.761136841629321"><ele>415.3333333333333</ele><time>2026-04-06T13:14:03Z</time></trkpt><trkpt lat="45.76772991383134" lon="10.761226547839852"><ele>400.0</ele><time>2026-04-06T13:14:11Z</time></trkpt><trkpt lat="45.76778944235949" lon="10.761325639652492"><ele>384.66666666666663</ele><time>2026-04-06T13:14:14Z</time></trkpt><trkpt lat="45.76784078648405" lon="10.761414251698085"><ele>369.3333333333333</ele><time>2026-04-06T13:14:16Z</time></trkpt><trkpt lat="45.76789930611713" lon="10.761502212762357"><ele>354.0</ele><time>2026-04-06T13:14:18Z</time></trkpt><trkpt lat="45.76795796983561" lon="10.76160642983554"><ele>354.0</ele><time>2026-04-06T13:14:20Z</time></trkpt><trkpt lat="45.76804100756134" lon="10.7616783594939"><ele>354.0</ele><time>2026-04-06T13:14:22Z</time></trkpt><trkpt lat="45.76812000156241" lon="10.76176170627657"><ele>354.0</ele><time>2026-04-06T13:14:24Z</time></trkpt><trkpt lat="45.768212176337556" lon="10.761844535748782"><ele>354.0</ele><time>2026-04-06T13:14:26Z</time></trkpt><trkpt lat="45.7683013273535" lon="10.761925979949726"><ele>354.0</ele><time>2026-04-06T13:14:28Z</time></trkpt><trkpt lat="45.768382856688284" lon="10.762005713694107"><ele>354.0</ele><time>2026-04-06T13:14:30Z</time></trkpt><trkpt lat="45.76846499281379" lon="10.76208687841368"><ele>354.0</ele><time>2026-04-06T13:14:32Z</time></trkpt><trkpt lat="45.76858180447359" lon="10.762207178100027"><ele>354.0</ele><time>2026-04-06T13:14:34Z</time></trkpt><trkpt lat="45.768665130320805" lon="10.762287352895695"><ele>354.0</ele><time>2026-04-06T13:14:35Z</time></trkpt><trkpt lat="45.76875650464114" lon="10.762378266362807"><ele>363.5</ele><time>2026-04-06T13:14:36Z</time></trkpt><trkpt lat="45.7688560958538" lon="10.762478926886674"><ele>373.0</ele><time>2026-04-06T13:14:37Z</time></trkpt><trkpt lat="45.76895305857467" lon="10.762603050556146"><ele>382.5</ele><time>2026-04-06T13:14:38Z</time></trkpt><trkpt lat="45.76905923314879" lon="10.762713515015726"><ele>392.0</ele><time>2026-04-06T13:14:39Z</time></trkpt><trkpt lat="45.76916921562693" lon="10.762827941236747"><ele>392.0</ele><time>2026-04-06T13:14:40Z</time></trkpt><trkpt lat="45.76928274389077" lon="10.762945483228936"><ele>392.0</ele><time>2026-04-06T13:14:41Z</time></trkpt><trkpt lat="45.769397590484736" lon="10.763064577185478"><ele>392.0</ele><time>2026-04-06T13:14:42Z</time></trkpt><trkpt lat="45.76951478295122" lon="10.763185248717582"><ele>392.0</ele><time>2026-04-06T13:14:43Z</time></trkpt><trkpt lat="45.76962958811524" lon="10.763302912926454"><ele>390.25</ele><time>2026-04-06T13:14:44Z</time></trkpt><trkpt lat="45.769744475868926" lon="10.763418097223388"><ele>388.5</ele><time>2026-04-06T13:14:45Z</time></trkpt><trkpt lat="45.76986656247628" lon="10.763522734808706"><ele>386.75</ele><time>2026-04-06T13:14:46Z</time></trkpt><trkpt lat="45.76997968996514" lon="10.763630176766563"><ele>385.0</ele><time>2026-04-06T13:14:47Z</time></trkpt><trkpt lat="45.77009522154882" lon="10.763737046772007"><ele>385.0</ele><time>2026-04-06T13:14:48Z</time></trkpt><trkpt lat="45.77021299114378" lon="10.763833042758543"><ele>385.0</ele><time>2026-04-06T13:14:49Z</time></trkpt><trkpt lat="45.7703337099574" lon="10.763927907253116"><ele>385.0</ele><time>2026-04-06T13:14:50Z</time></trkpt><trkpt lat="45.77044576279186" lon="10.764021236312882"><ele>385.0</ele><time>2026-04-06T13:14:51Z</time></trkpt><trkpt lat="45.77056207958216" lon="10.764097792561968"><ele>312.25</ele><time>2026-04-06T13:14:52Z</time></trkpt><trkpt lat="45.77068805812865" lon="10.764153137005394"><ele>239.5</ele><time>2026-04-06T13:14:53Z</time></trkpt><trkpt lat="45.77078518084301" lon="10.764284131348894"><ele>166.75</ele><time>2026-04-06T13:14:54Z</time></trkpt><trkpt lat="45.770900569144665" lon="10.764367403628077"><ele>94.0</ele><time>2026-04-06T13:14:55Z</time></trkpt><trkpt lat="45.771007662510094" lon="10.764437914683718"><ele>157.66666666666666</ele><time>2026-04-06T13:14:56Z</time></trkpt><trkpt lat="45.77111630984519" lon="10.764504853735145"><ele>221.33333333333334</ele><time>2026-04-06T13:14:57.072Z</time></trkpt><trkpt lat="45.77122015851873" lon="10.76457225241778"><ele>285.0</ele><time>2026-04-06T13:14:58.044Z</time></trkpt><trkpt lat="45.7731375729827" lon="10.76548867617238"><ele>299.0</ele><time>2026-04-06T13:15:01.61Z</time></trkpt><trkpt lat="45.7737142945934" lon="10.765851581232806"><ele>288.0</ele><time>2026-04-06T13:15:02.611Z</time></trkpt><trkpt lat="45.77424653529542" lon="10.766330944357463"><ele>331.0</ele><time>2026-04-06T13:15:03.611Z</time></trkpt><trkpt lat="45.77472103901297" lon="10.7669161467883"><ele>331.0</ele><time>2026-04-06T13:15:04.607Z</time></trkpt><trkpt lat="45.775142371581325" lon="10.76758945993294"><ele>331.0</ele><time>2026-04-06T13:15:05.611Z</time></trkpt><trkpt lat="45.7751862" lon="10.7676612"><ele>331.0</ele><time>2026-04-06T13:15:06.609Z</time></trkpt><trkpt lat="45.77858767667091" lon="10.772083361464867"><ele>253.66666666666666</ele><time>2026-04-06T13:15:55Z</time></trkpt><trkpt lat="45.77866381627354" lon="10.772310484231072"><ele>176.33333333333331</ele><time>2026-04-06T13:15:56Z</time></trkpt><trkpt lat="45.778828572990626" lon="10.772445919347383"><ele>99.0</ele><time>2026-04-06T13:15:57Z</time></trkpt><trkpt lat="45.778974386022256" lon="10.772558873503602"><ele>93.66666666666667</ele><time>2026-04-06T13:15:58Z</time></trkpt><trkpt lat="45.779095864551316" lon="10.772728682275165"><ele>88.33333333333334</ele><time>2026-04-06T13:15:59Z</time></trkpt><trkpt lat="45.779214189253686" lon="10.77289408241047"><ele>83.0</ele><time>2026-04-06T13:16:00Z</time></trkpt><trkpt lat="45.77932651317161" lon="10.773051094355289"><ele>83.66666666666667</ele><time>2026-04-06T13:16:01Z</time></trkpt><trkpt lat="45.77946150993439" lon="10.773234504914615"><ele>84.33333333333333</ele><time>2026-04-06T13:16:02Z</time></trkpt><trkpt lat="45.77958208689639" lon="10.773388950307218"><ele>85.0</ele><time>2026-04-06T13:16:03Z</time></trkpt><trkpt lat="45.77971761906132" lon="10.773534146511533"><ele>85.0</ele><time>2026-04-06T13:16:04Z</time></trkpt><trkpt lat="45.7798523164584" lon="10.773641299146632"><ele>85.0</ele><time>2026-04-06T13:16:05Z</time></trkpt><trkpt lat="45.77997700159573" lon="10.773741571156714"><ele>85.0</ele><time>2026-04-06T13:16:06Z</time></trkpt><trkpt lat="45.780102576179175" lon="10.77385568912639"><ele>85.0</ele><time>2026-04-06T13:16:07Z</time></trkpt><trkpt lat="45.78022513052474" lon="10.773947650528994"><ele>91.5</ele><time>2026-04-06T13:16:08Z</time></trkpt><trkpt lat="45.780347597277995" lon="10.774038266728256"><ele>98.0</ele><time>2026-04-06T13:16:09Z</time></trkpt><trkpt lat="45.7804678359834" lon="10.774124887935857"><ele>104.5</ele><time>2026-04-06T13:16:10Z</time></trkpt><trkpt lat="45.78058226691794" lon="10.774200185084013"><ele>111.0</ele><time>2026-04-06T13:16:11Z</time></trkpt><trkpt lat="45.78069145293487" lon="10.774294920038429"><ele>110.0</ele><time>2026-04-06T13:16:12Z</time></trkpt><trkpt lat="45.780782069934894" lon="10.774430864373166"><ele>109.0</ele><time>2026-04-06T13:16:13Z</time></trkpt><trkpt lat="45.7808505456718" lon="10.774593593580233"><ele>108.0</ele><time>2026-04-06T13:16:14Z</time></trkpt><trkpt lat="45.78091607636855" lon="10.774755932710793"><ele>107.0</ele><time>2026-04-06T13:16:15Z</time></trkpt><trkpt lat="45.780962525823675" lon="10.774931224667219"><ele>110.0</ele><time>2026-04-06T13:16:16Z</time></trkpt><trkpt lat="45.78104640993114" lon="10.775068069043579"><ele>113.0</ele><time>2026-04-06T13:16:17Z</time></trkpt><trkpt lat="45.78110148833445" lon="10.775259932925252"><ele>116.0</ele><time>2026-04-06T13:16:18Z</time></trkpt><trkpt lat="45.7811449880267" lon="10.775433504046523"><ele>119.0</ele><time>2026-04-06T13:16:19Z</time></trkpt><trkpt lat="45.78118756454697" lon="10.775602297171908"><ele>119.0</ele><time>2026-04-06T13:16:20Z</time></trkpt><trkpt lat="45.78122358953307" lon="10.775767927190843"><ele>119.0</ele><time>2026-04-06T13:16:21Z</time></trkpt><trkpt lat="45.7812741480048" lon="10.775903804693248"><ele>119.0</ele><time>2026-04-06T13:16:22Z</time></trkpt><trkpt lat="45.781299118087766" lon="10.77607536074808"><ele>119.0</ele><time>2026-04-06T13:16:23Z</time></trkpt><trkpt lat="45.78133454125443" lon="10.776258672991943"><ele>112.75</ele><time>2026-04-06T13:16:24Z</time></trkpt><trkpt lat="45.78136961604123" lon="10.776423090806523"><ele>106.5</ele><time>2026-04-06T13:16:25Z</time></trkpt><trkpt lat="45.78143437602463" lon="10.77658890268831"><ele>100.25</ele><time>2026-04-06T13:16:26Z</time></trkpt><trkpt lat="45.78151414206273" lon="10.776743226845664"><ele>94.0</ele><time>2026-04-06T13:16:27Z</time></trkpt><trkpt lat="45.781599473248114" lon="10.776884834235625"><ele>91.75</ele><time>2026-04-06T13:16:28Z</time></trkpt><trkpt lat="45.78170948871957" lon="10.776982369980072"><ele>89.5</ele><time>2026-04-06T13:16:29Z</time></trkpt><trkpt lat="45.78182017906728" lon="10.777042288252805"><ele>87.25</ele><time>2026-04-06T13:16:30Z</time></trkpt><trkpt lat="45.78193883305834" lon="10.777069916674117"><ele>85.0</ele><time>2026-04-06T13:16:31Z</time></trkpt><trkpt lat="45.782071878718305" lon="10.777120652709659"><ele>85.0</ele><time>2026-04-06T13:16:32Z</time></trkpt><trkpt lat="45.78221278060329" lon="10.777181264594779"><ele>85.0</ele><time>2026-04-06T13:16:33Z</time></trkpt><trkpt lat="45.78234414801592" lon="10.777246254451278"><ele>85.0</ele><time>2026-04-06T13:16:34Z</time></trkpt><trkpt lat="45.782473264592106" lon="10.77731002741203"><ele>85.0</ele><time>2026-04-06T13:16:35Z</time></trkpt><trkpt lat="45.782599584112205" lon="10.77738062450175"><ele>86.0</ele><time>2026-04-06T13:16:36Z</time></trkpt><trkpt lat="45.78272640589033" lon="10.777447781876173"><ele>87.0</ele><time>2026-04-06T13:16:37Z</time></trkpt><trkpt lat="45.78285728060005" lon="10.777505390661695"><ele>88.0</ele><time>2026-04-06T13:16:38Z</time></trkpt><trkpt lat="45.78298706432594" lon="10.777563820954427"><ele>89.0</ele><time>2026-04-06T13:16:39Z</time></trkpt><trkpt lat="45.78312516085678" lon="10.777561411686964"><ele>89.0</ele><time>2026-04-06T13:16:40Z</time></trkpt><trkpt lat="45.783250831725155" lon="10.777587156269039"><ele>89.0</ele><time>2026-04-06T13:16:41Z</time></trkpt><trkpt lat="45.78337984920667" lon="10.777617494288044"><ele>89.0</ele><time>2026-04-06T13:16:42Z</time></trkpt><trkpt lat="45.78351165869354" lon="10.77764022199982"><ele>89.0</ele><time>2026-04-06T13:16:43Z</time></trkpt><trkpt lat="45.783645463761886" lon="10.777654687529216"><ele>90.5</ele><time>2026-04-06T13:16:44Z</time></trkpt><trkpt lat="45.78377526582886" lon="10.77765926768527"><ele>92.0</ele><time>2026-04-06T13:16:45Z</time></trkpt><trkpt lat="45.78390157503153" lon="10.777647743841465"><ele>93.5</ele><time>2026-04-06T13:16:46Z</time></trkpt><trkpt lat="45.78403706210458" lon="10.77762041522691"><ele>95.0</ele><time>2026-04-06T13:16:47Z</time></trkpt><trkpt lat="45.78416533875128" lon="10.777580523766101"><ele>95.0</ele><time>2026-04-06T13:16:48Z</time></trkpt><trkpt lat="45.78429930179065" lon="10.777526362722096"><ele>95.0</ele><time>2026-04-06T13:16:49Z</time></trkpt><trkpt lat="45.78445210246573" lon="10.777477822986187"><ele>95.0</ele><time>2026-04-06T13:16:50Z</time></trkpt><trkpt lat="45.784610204247244" lon="10.777406718323418"><ele>95.0</ele><time>2026-04-06T13:16:51Z</time></trkpt><trkpt lat="45.78478303372966" lon="10.777330254996084"><ele>95.0</ele><time>2026-04-06T13:16:52Z</time></trkpt><trkpt lat="45.78495285429244" lon="10.777231619698783"><ele>95.0</ele><time>2026-04-06T13:16:53Z</time></trkpt><trkpt lat="45.785128866452936" lon="10.77715973695088"><ele>95.0</ele><time>2026-04-06T13:16:54Z</time></trkpt><trkpt lat="45.78529571466161" lon="10.777087351926813"><ele>95.0</ele><time>2026-04-06T13:16:55Z</time></trkpt><trkpt lat="45.7854495416714" lon="10.777017911699803"><ele>95.0</ele><time>2026-04-06T13:16:56Z</time></trkpt><trkpt lat="45.78559376532154" lon="10.776948146003864"><ele>95.0</ele><time>2026-04-06T13:16:57Z</time></trkpt><trkpt lat="45.7857467715795" lon="10.776902011607898"><ele>95.0</ele><time>2026-04-06T13:16:58.071Z</time></trkpt><trkpt lat="45.785878869291544" lon="10.77684769629358"><ele>95.0</ele><time>2026-04-06T13:16:59.055Z</time></trkpt><trkpt lat="45.786013305408616" lon="10.776796806448871"><ele>95.0</ele><time>2026-04-06T13:17:00.054Z</time></trkpt><trkpt lat="45.786150928023694" lon="10.776755115400576"><ele>262.0</ele><time>2026-04-06T13:17:01.055Z</time></trkpt><trkpt lat="45.788698080679445" lon="10.777557206046804"><ele>180.0</ele><time>2026-04-06T13:17:05.61Z</time></trkpt><trkpt lat="45.79438984575696" lon="10.781688896171062"><ele>180.0</ele><time>2026-04-06T13:17:56Z</time></trkpt><trkpt lat="45.79449844412522" lon="10.781907897557097"><ele>180.0</ele><time>2026-04-06T13:17:57Z</time></trkpt><trkpt lat="45.79460801034595" lon="10.78200426168627"><ele>180.0</ele><time>2026-04-06T13:17:58Z</time></trkpt><trkpt lat="45.79472500592717" lon="10.78211094461349"><ele>180.0</ele><time>2026-04-06T13:17:59Z</time></trkpt><trkpt lat="45.79483601629818" lon="10.782210120253454"><ele>180.0</ele><time>2026-04-06T13:18:00Z</time></trkpt><trkpt lat="45.79495241730685" lon="10.782279181902375"><ele>180.0</ele><time>2026-04-06T13:18:01Z</time></trkpt><trkpt lat="45.79506643627426" lon="10.782331420588806"><ele>180.0</ele><time>2026-04-06T13:18:02Z</time></trkpt><trkpt lat="45.79518847880789" lon="10.78236751309576"><ele>180.0</ele><time>2026-04-06T13:18:03Z</time></trkpt><trkpt lat="45.79531678764554" lon="10.782399603065741"><ele>180.0</ele><time>2026-04-06T13:18:04Z</time></trkpt><trkpt lat="45.79543216252138" lon="10.782441280444285"><ele>180.0</ele><time>2026-04-06T13:18:05Z</time></trkpt><trkpt lat="45.79554408168885" lon="10.782487321568903"><ele>180.0</ele><time>2026-04-06T13:18:06Z</time></trkpt><trkpt lat="45.79564610176237" lon="10.782544367244519"><ele>180.0</ele><time>2026-04-06T13:18:07Z</time></trkpt><trkpt lat="45.79574891072358" lon="10.782600002401113"><ele>180.0</ele><time>2026-04-06T13:18:08Z</time></trkpt><trkpt lat="45.795849994564634" lon="10.78266505806599"><ele>180.0</ele><time>2026-04-06T13:18:09Z</time></trkpt><trkpt lat="45.795952648282466" lon="10.782733361982464"><ele>180.0</ele><time>2026-04-06T13:18:10Z</time></trkpt><trkpt lat="45.79605333853386" lon="10.782801962869895"><ele>180.0</ele><time>2026-04-06T13:18:11Z</time></trkpt><trkpt lat="45.79615228569832" lon="10.782859316050201"><ele>180.0</ele><time>2026-04-06T13:18:12Z</time></trkpt><trkpt lat="45.79625904150567" lon="10.782895414033995"><ele>180.0</ele><time>2026-04-06T13:18:13Z</time></trkpt><trkpt lat="45.796363332483715" lon="10.782898171173189"><ele>180.0</ele><time>2026-04-06T13:18:14Z</time></trkpt><trkpt lat="45.79647654002159" lon="10.782888868565639"><ele>180.0</ele><time>2026-04-06T13:18:15Z</time></trkpt><trkpt lat="45.79658418745291" lon="10.782873836913009"><ele>180.0</ele><time>2026-04-06T13:18:16Z</time></trkpt><trkpt lat="45.79669342368917" lon="10.782860285310862"><ele>180.0</ele><time>2026-04-06T13:18:17Z</time></trkpt><trkpt lat="45.79680426576188" lon="10.78285557328909"><ele>180.0</ele><time>2026-04-06T13:18:18Z</time></trkpt><trkpt lat="45.79691921387492" lon="10.782851086044046"><ele>180.0</ele><time>2026-04-06T13:18:19Z</time></trkpt><trkpt lat="45.79703357393317" lon="10.782851877656075"><ele>180.0</ele><time>2026-04-06T13:18:20Z</time></trkpt><trkpt lat="45.797149190494295" lon="10.782859365167683"><ele>180.0</ele><time>2026-04-06T13:18:21Z</time></trkpt><trkpt lat="45.79726541119135" lon="10.782873620121359"><ele>180.0</ele><time>2026-04-06T13:18:22Z</time></trkpt><trkpt lat="45.79738294314463" lon="10.78289390169538"><ele>180.0</ele><time>2026-04-06T13:18:23Z</time></trkpt><trkpt lat="45.79750681958382" lon="10.78291038090497"><ele>180.0</ele><time>2026-04-06T13:18:24Z</time></trkpt><trkpt lat="45.7976134733777" lon="10.782912624997138"><ele>154.5</ele><time>2026-04-06T13:18:25Z</time></trkpt><trkpt lat="45.79774436740826" lon="10.782905127341284"><ele>129.0</ele><time>2026-04-06T13:18:26Z</time></trkpt><trkpt lat="45.79786421683368" lon="10.782879363189386"><ele>103.5</ele><time>2026-04-06T13:18:27Z</time></trkpt><trkpt lat="45.79798543881794" lon="10.78286840731966"><ele>78.0</ele><time>2026-04-06T13:18:28Z</time></trkpt><trkpt lat="45.79810610636464" lon="10.782879914988639"><ele>78.0</ele><time>2026-04-06T13:18:29Z</time></trkpt><trkpt lat="45.798217426805635" lon="10.782913445493008"><ele>78.0</ele><time>2026-04-06T13:18:30Z</time></trkpt><trkpt lat="45.7983269181531" lon="10.782959559554518"><ele>78.0</ele><time>2026-04-06T13:18:31Z</time></trkpt><trkpt lat="45.79843653020448" lon="10.78300663890509"><ele>78.0</ele><time>2026-04-06T13:18:32Z</time></trkpt><trkpt lat="45.79854348735905" lon="10.783062797100365"><ele>78.25</ele><time>2026-04-06T13:18:33Z</time></trkpt><trkpt lat="45.79865236758801" lon="10.78311904264629"><ele>78.5</ele><time>2026-04-06T13:18:34Z</time></trkpt><trkpt lat="45.7987630449579" lon="10.783174650445877"><ele>78.75</ele><time>2026-04-06T13:18:35Z</time></trkpt><trkpt lat="45.798874940405334" lon="10.783229528607817"><ele>79.0</ele><time>2026-04-06T13:18:36Z</time></trkpt><trkpt lat="45.798985551786714" lon="10.783281634856014"><ele>79.0</ele><time>2026-04-06T13:18:37Z</time></trkpt><trkpt lat="45.799099377274715" lon="10.783314618804882"><ele>79.0</ele><time>2026-04-06T13:18:38Z</time></trkpt><trkpt lat="45.79921638834957" lon="10.783329990892918"><ele>79.0</ele><time>2026-04-06T13:18:39Z</time></trkpt><trkpt lat="45.799332895471274" lon="10.7833397908006"><ele>79.0</ele><time>2026-04-06T13:18:40Z</time></trkpt><trkpt lat="45.79944963929032" lon="10.783356975640855"><ele>87.0</ele><time>2026-04-06T13:18:41Z</time></trkpt><trkpt lat="45.79956829025659" lon="10.783365973821974"><ele>95.0</ele><time>2026-04-06T13:18:42Z</time></trkpt><trkpt lat="45.799687924162846" lon="10.783369235178473"><ele>103.0</ele><time>2026-04-06T13:18:43Z</time></trkpt><trkpt lat="45.799809612590906" lon="10.783367599539742"><ele>111.0</ele><time>2026-04-06T13:18:44Z</time></trkpt><trkpt lat="45.79990953768753" lon="10.78339171764057"><ele>111.0</ele><time>2026-04-06T13:18:45Z</time></trkpt><trkpt lat="45.79999849472046" lon="10.783445244189165"><ele>111.0</ele><time>2026-04-06T13:18:46Z</time></trkpt><trkpt lat="45.80009920423334" lon="10.783480195320477"><ele>111.0</ele><time>2026-04-06T13:18:47Z</time></trkpt><trkpt lat="45.80017478251722" lon="10.783540147048612"><ele>111.0</ele><time>2026-04-06T13:18:48Z</time></trkpt><trkpt lat="45.80024732882933" lon="10.78361326342133"><ele>111.0</ele><time>2026-04-06T13:18:49Z</time></trkpt><trkpt lat="45.80030698060086" lon="10.783717574993965"><ele>107.19999999999999</ele><time>2026-04-06T13:18:50Z</time></trkpt><trkpt lat="45.80036681898457" lon="10.783836247702176"><ele>103.39999999999999</ele><time>2026-04-06T13:18:51Z</time></trkpt><trkpt lat="45.80041655802166" lon="10.783974719768757"><ele>99.6</ele><time>2026-04-06T13:18:52Z</time></trkpt><trkpt lat="45.80046139579704" lon="10.784119983759037"><ele>95.8</ele><time>2026-04-06T13:18:53Z</time></trkpt><trkpt lat="45.80050449548356" lon="10.78425832998882"><ele>92.0</ele><time>2026-04-06T13:18:54Z</time></trkpt><trkpt lat="45.80054400669316" lon="10.784391340987263"><ele>90.0</ele><time>2026-04-06T13:18:55Z</time></trkpt><trkpt lat="45.800579412474676" lon="10.784522790596265"><ele>88.0</ele><time>2026-04-06T13:18:56Z</time></trkpt><trkpt lat="45.80061344331351" lon="10.784648858479706"><ele>86.0</ele><time>2026-04-06T13:18:57Z</time></trkpt><trkpt lat="45.800648286039774" lon="10.784776947925428"><ele>84.0</ele><time>2026-04-06T13:18:58Z</time></trkpt><trkpt lat="45.80068620426149" lon="10.784902655634228"><ele>82.0</ele><time>2026-04-06T13:18:59Z</time></trkpt><trkpt lat="45.80072926249298" lon="10.785027682926632"><ele>82.0</ele><time>2026-04-06T13:19:00Z</time></trkpt><trkpt lat="45.80078184313507" lon="10.78515385977417"><ele>82.0</ele><time>2026-04-06T13:19:01Z</time></trkpt><trkpt lat="45.80084129640687" lon="10.785277847494454"><ele>82.0</ele><time>2026-04-06T13:19:02Z</time></trkpt><trkpt lat="45.800912193110726" lon="10.785396909075821"><ele>82.0</ele><time>2026-04-06T13:19:03Z</time></trkpt><trkpt lat="45.8009910350823" lon="10.78551085203632"><ele>82.0</ele><time>2026-04-06T13:19:04Z</time></trkpt><trkpt lat="45.801071009041245" lon="10.785614076876877"><ele>82.6</ele><time>2026-04-06T13:19:05Z</time></trkpt><trkpt lat="45.801151089865364" lon="10.785705508044916"><ele>83.19999999999999</ele><time>2026-04-06T13:19:06Z</time></trkpt><trkpt lat="45.801224283893816" lon="10.785785189517467"><ele>83.8</ele><time>2026-04-06T13:19:07Z</time></trkpt><trkpt lat="45.80129434214937" lon="10.785861713231457"><ele>84.4</ele><time>2026-04-06T13:19:08Z</time></trkpt><trkpt lat="45.80137003141812" lon="10.78594635094222"><ele>85.0</ele><time>2026-04-06T13:19:09Z</time></trkpt><trkpt lat="45.801448119295976" lon="10.786033889929078"><ele>85.0</ele><time>2026-04-06T13:19:10Z</time></trkpt><trkpt lat="45.801522699821234" lon="10.7861207204986"><ele>85.0</ele><time>2026-04-06T13:19:11Z</time></trkpt><trkpt lat="45.801593153178686" lon="10.786199576476696"><ele>85.0</ele><time>2026-04-06T13:19:12Z</time></trkpt><trkpt lat="45.80166011444357" lon="10.786268793261167"><ele>85.0</ele><time>2026-04-06T13:19:13Z</time></trkpt><trkpt lat="45.80172539673497" lon="10.78633057498495"><ele>85.0</ele><time>2026-04-06T13:19:14Z</time></trkpt><trkpt lat="45.80178742059596" lon="10.786382401112276"><ele>85.0</ele><time>2026-04-06T13:19:14.999Z</time></trkpt><trkpt lat="45.8018656326764" lon="10.786439558364501"><ele>85.0</ele><time>2026-04-06T13:19:16.999Z</time></trkpt><trkpt lat="45.80195285306887" lon="10.786496033488204"><ele>85.0</ele><time>2026-04-06T13:19:19.999Z</time></trkpt><trkpt lat="45.802074408236436" lon="10.786569937857271"><ele>85.0</ele><time>2026-04-06T13:19:21.999Z</time></trkpt><trkpt lat="45.802159747078214" lon="10.786617002949528"><ele>85.0</ele><time>2026-04-06T13:19:22.999Z</time></trkpt><trkpt lat="45.80225196852765" lon="10.786668222866007"><ele>85.0</ele><time>2026-04-06T13:19:23.999Z</time></trkpt><trkpt lat="45.80235217459458" lon="10.786717135914932"><ele>85.0</ele><time>2026-04-06T13:19:24.999Z</time></trkpt><trkpt lat="45.80246306251664" lon="10.786766889374693"><ele>85.0</ele><time>2026-04-06T13:19:25.999Z</time></trkpt><trkpt lat="45.802581225414315" lon="10.7868180095175"><ele>85.0</ele><time>2026-04-06T13:19:26.999Z</time></trkpt><trkpt lat="45.80270425516927" lon="10.786871895693379"><ele>85.0</ele><time>2026-04-06T13:19:27.999Z</time></trkpt><trkpt lat="45.80283253865327" lon="10.78692692880029"><ele>84.0</ele><time>2026-04-06T13:19:28.999Z</time></trkpt><trkpt lat="45.80296310663942" lon="10.786984513773799"><ele>83.0</ele><time>2026-04-06T13:19:29.999Z</time></trkpt><trkpt lat="45.80310021216487" lon="10.787041713116801"><ele>82.0</ele><time>2026-04-06T13:19:30.999Z</time></trkpt><trkpt lat="45.803239465283305" lon="10.787099084048007"><ele>81.0</ele><time>2026-04-06T13:19:31.999Z</time></trkpt><trkpt lat="45.803382573759386" lon="10.787155554567802"><ele>82.33333333333333</ele><time>2026-04-06T13:19:32.999Z</time></trkpt><trkpt lat="45.80352719432806" lon="10.787214179817935"><ele>83.66666666666666</ele><time>2026-04-06T13:19:33.999Z</time></trkpt><trkpt lat="45.80367659789099" lon="10.787276039087056"><ele>85.0</ele><time>2026-04-06T13:19:34.999Z</time></trkpt><trkpt lat="45.803823063053464" lon="10.787340792133833"><ele>85.0</ele><time>2026-04-06T13:19:35.999Z</time></trkpt><trkpt lat="45.80397139257267" lon="10.787394107747408"><ele>85.0</ele><time>2026-04-06T13:19:36.999Z</time></trkpt><trkpt lat="45.80412133096765" lon="10.787429073866221"><ele>85.0</ele><time>2026-04-06T13:19:37.999Z</time></trkpt><trkpt lat="45.80427134800375" lon="10.78744390398337"><ele>85.25</ele><time>2026-04-06T13:19:38.999Z</time></trkpt><trkpt lat="45.80442018087335" lon="10.787451182499483"><ele>85.5</ele><time>2026-04-06T13:19:39.999Z</time></trkpt><trkpt lat="45.80455565960033" lon="10.78745053135693"><ele>85.75</ele><time>2026-04-06T13:19:40.999Z</time></trkpt><trkpt lat="45.804679547044415" lon="10.787442408758578"><ele>86.0</ele><time>2026-04-06T13:19:41.999Z</time></trkpt><trkpt lat="45.80480275721601" lon="10.787434205293815"><ele>86.0</ele><time>2026-04-06T13:19:42.999Z</time></trkpt><trkpt lat="45.80491689719461" lon="10.787427347578504"><ele>86.0</ele><time>2026-04-06T13:19:43.999Z</time></trkpt><trkpt lat="45.8050218726763" lon="10.78741650978259"><ele>86.0</ele><time>2026-04-06T13:19:44.999Z</time></trkpt><trkpt lat="45.805112996264796" lon="10.787409569272533"><ele>86.0</ele><time>2026-04-06T13:19:45.999Z</time></trkpt><trkpt lat="45.80518341229468" lon="10.787400471456705"><ele>86.0</ele><time>2026-04-06T13:19:46.999Z</time></trkpt><trkpt lat="45.80530085609059" lon="10.78738681048172"><ele>86.16666666666667</ele><time>2026-04-06T13:19:48.999Z</time></trkpt><trkpt lat="45.80538613833414" lon="10.787380620283773"><ele>86.33333333333334</ele><time>2026-04-06T13:19:50.999Z</time></trkpt><trkpt lat="45.8054570270409" lon="10.787375880638228"><ele>86.5</ele><time>2026-04-06T13:19:52.999Z</time></trkpt><trkpt lat="45.80553339230698" lon="10.78736570213124"><ele>86.66666666666667</ele><time>2026-04-06T13:19:56.999Z</time></trkpt><trkpt lat="45.80566341331386" lon="10.78737731439346"><ele>86.83333333333333</ele><time>2026-04-06T13:19:58.999Z</time></trkpt><trkpt lat="45.80574806612119" lon="10.787374055187872"><ele>87.0</ele><time>2026-04-06T13:19:59.999Z</time></trkpt><trkpt lat="45.80584170883733" lon="10.787372098775947"><ele>87.0</ele><time>2026-04-06T13:20:00.999Z</time></trkpt><trkpt lat="45.80592972632886" lon="10.787373282767694"><ele>87.0</ele><time>2026-04-06T13:20:01.999Z</time></trkpt><trkpt lat="45.80600393382134" lon="10.787376629988497"><ele>87.0</ele><time>2026-04-06T13:20:02.999Z</time></trkpt><trkpt lat="45.806103695194096" lon="10.787360217080183"><ele>87.0</ele><time>2026-04-06T13:20:04.999Z</time></trkpt><trkpt lat="45.80620440707296" lon="10.78737007146218"><ele>87.0</ele><time>2026-04-06T13:20:08Z</time></trkpt><trkpt lat="45.80627520577981" lon="10.787381460970574"><ele>87.0</ele><time>2026-04-06T13:20:10Z</time></trkpt><trkpt lat="45.80635041882199" lon="10.787414009672958"><ele>87.5</ele><time>2026-04-06T13:20:12Z</time></trkpt><trkpt lat="45.80641938088856" lon="10.787425969895066"><ele>88.0</ele><time>2026-04-06T13:20:13Z</time></trkpt><trkpt lat="45.80650679281631" lon="10.787445340746702"><ele>88.5</ele><time>2026-04-06T13:20:14Z</time></trkpt><trkpt lat="45.80659602811303" lon="10.787467680642825"><ele>89.0</ele><time>2026-04-06T13:20:15Z</time></trkpt><trkpt lat="45.806689605274045" lon="10.787492630297569"><ele>89.5</ele><time>2026-04-06T13:20:16Z</time></trkpt><trkpt lat="45.80678205142885" lon="10.787521641903101"><ele>90.0</ele><time>2026-04-06T13:20:17Z</time></trkpt><trkpt lat="45.80687144396918" lon="10.787552460711883"><ele>90.83333333333333</ele><time>2026-04-06T13:20:18Z</time></trkpt><trkpt lat="45.80695314749358" lon="10.787581512704215"><ele>91.66666666666667</ele><time>2026-04-06T13:20:19Z</time></trkpt><trkpt lat="45.807027704214796" lon="10.787608761307133"><ele>92.5</ele><time>2026-04-06T13:20:20Z</time></trkpt><trkpt lat="45.80709974298665" lon="10.787636271057892"><ele>93.33333333333334</ele><time>2026-04-06T13:20:21Z</time></trkpt><trkpt lat="45.807166690249325" lon="10.7876642936498"><ele>94.16666666666667</ele><time>2026-04-06T13:20:22Z</time></trkpt><trkpt lat="45.80726046028112" lon="10.787706915600717"><ele>95.0</ele><time>2026-04-06T13:20:24Z</time></trkpt><trkpt lat="45.80736766988215" lon="10.787765484878756"><ele>94.66666666666667</ele><time>2026-04-06T13:20:27Z</time></trkpt><trkpt lat="45.807425002068875" lon="10.787802840088947"><ele>94.33333333333334</ele><time>2026-04-06T13:20:28Z</time></trkpt><trkpt lat="45.80750838281551" lon="10.787835826098192"><ele>94.0</ele><time>2026-04-06T13:20:30Z</time></trkpt><trkpt lat="45.80757257316914" lon="10.787913912235425"><ele>93.66666666666667</ele><time>2026-04-06T13:20:32Z</time></trkpt><trkpt lat="45.8076395728718" lon="10.787971097205975"><ele>93.33333333333333</ele><time>2026-04-06T13:20:34Z</time></trkpt><trkpt lat="45.80771078263656" lon="10.788011513954244"><ele>93.0</ele><time>2026-04-06T13:20:43Z</time></trkpt><trkpt lat="45.80776444736703" lon="10.78809825571473"><ele>93.0</ele><time>2026-04-06T13:20:46.999Z</time></trkpt><trkpt lat="45.80785251652119" lon="10.78820493086306"><ele>93.0</ele><time>2026-04-06T13:20:48.999Z</time></trkpt><trkpt lat="45.80792533945399" lon="10.788301842157663"><ele>93.0</ele><time>2026-04-06T13:20:50.999Z</time></trkpt><trkpt lat="45.80798929699887" lon="10.788394330712237"><ele>93.0</ele><time>2026-04-06T13:20:52.999Z</time></trkpt><trkpt lat="45.808034166995355" lon="10.78846961330116"><ele>93.0</ele><time>2026-04-06T13:20:55.999Z</time></trkpt><trkpt lat="45.80807642689065" lon="10.788541515965637"><ele>93.0</ele><time>2026-04-06T13:21:01.999Z</time></trkpt><trkpt lat="45.808148715628406" lon="10.788640903690503"><ele>92.4</ele><time>2026-04-06T13:21:04.999Z</time></trkpt><trkpt lat="45.808204034412796" lon="10.788756355969497"><ele>91.80000000000001</ele><time>2026-04-06T13:21:06.999Z</time></trkpt><trkpt lat="45.808265069254155" lon="10.788898867253472"><ele>91.2</ele><time>2026-04-06T13:21:08.999Z</time></trkpt><trkpt lat="45.808277729221224" lon="10.788989636146102"><ele>90.6</ele><time>2026-04-06T13:21:09.999Z</time></trkpt><trkpt lat="45.80833425975967" lon="10.78911741964212"><ele>90.0</ele><time>2026-04-06T13:21:11.999Z</time></trkpt><trkpt lat="45.808387426737724" lon="10.78923217145135"><ele>90.0</ele><time>2026-04-06T13:21:13.999Z</time></trkpt><trkpt lat="45.80842498869209" lon="10.789307574314789"><ele>90.0</ele><time>2026-04-06T13:21:14.999Z</time></trkpt><trkpt lat="45.808473864058634" lon="10.789398766874996"><ele>90.0</ele><time>2026-04-06T13:21:15.999Z</time></trkpt><trkpt lat="45.808528409338045" lon="10.789495366653018"><ele>90.0</ele><time>2026-04-06T13:21:16.999Z</time></trkpt><trkpt lat="45.80857688501292" lon="10.789575375424418"><ele>90.0</ele><time>2026-04-06T13:21:17.999Z</time></trkpt><trkpt lat="45.808653371950605" lon="10.789698217092742"><ele>90.0</ele><time>2026-04-06T13:21:19.999Z</time></trkpt><trkpt lat="45.8087353664107" lon="10.789816087618997"><ele>90.0</ele><time>2026-04-06T13:21:21.999Z</time></trkpt><trkpt lat="45.808803399714584" lon="10.789875615559206"><ele>90.0</ele><time>2026-04-06T13:21:23.999Z</time></trkpt><trkpt lat="45.8088429313817" lon="10.789956589572627"><ele>90.0</ele><time>2026-04-06T13:21:25.999Z</time></trkpt><trkpt lat="45.80891188234196" lon="10.790013797006518"><ele>90.0</ele><time>2026-04-06T13:21:28.999Z</time></trkpt><trkpt lat="45.80895702750001" lon="10.79009203842295"><ele>90.0</ele><time>2026-04-06T13:21:31.999Z</time></trkpt><trkpt lat="45.809006999341285" lon="10.790149658936864"><ele>90.0</ele><time>2026-04-06T13:21:33.999Z</time></trkpt><trkpt lat="45.809086512673254" lon="10.79022773948413"><ele>90.0</ele><time>2026-04-06T13:21:44.999Z</time></trkpt><trkpt lat="45.809150080399284" lon="10.79028806807703"><ele>90.0</ele><time>2026-04-06T13:21:46.999Z</time></trkpt><trkpt lat="45.80922773392985" lon="10.790337202161867"><ele>90.0</ele><time>2026-04-06T13:21:48.999Z</time></trkpt><trkpt lat="45.80929711455321" lon="10.790400172867013"><ele>90.0</ele><time>2026-04-06T13:21:50.999Z</time></trkpt><trkpt lat="45.809384839081545" lon="10.7904574298566"><ele>90.0</ele><time>2026-04-06T13:21:52.999Z</time></trkpt><trkpt lat="45.80945500595066" lon="10.790543219553571"><ele>90.0</ele><time>2026-04-06T13:21:55Z</time></trkpt><trkpt lat="45.809528589032624" lon="10.790604611105156"><ele>90.66666666666667</ele><time>2026-04-06T13:21:57Z</time></trkpt><trkpt lat="45.80959427695345" lon="10.790659140476153"><ele>91.33333333333333</ele><time>2026-04-06T13:21:59Z</time></trkpt><trkpt lat="45.80965199113873" lon="10.790707012502356"><ele>92.0</ele><time>2026-04-06T13:22:01Z</time></trkpt><trkpt lat="45.80972949372446" lon="10.790771298256674"><ele>92.66666666666666</ele><time>2026-04-06T13:22:03Z</time></trkpt><trkpt lat="45.809805060480734" lon="10.790833976157801"><ele>93.33333333333333</ele><time>2026-04-06T13:22:04Z</time></trkpt><trkpt lat="45.8098972325142" lon="10.790911240165427"><ele>94.0</ele><time>2026-04-06T13:22:05Z</time></trkpt><trkpt lat="45.80999255825463" lon="10.79099016713012"><ele>94.33333333333333</ele><time>2026-04-06T13:22:06Z</time></trkpt><trkpt lat="45.810084492949144" lon="10.791065042172105"><ele>94.66666666666666</ele><time>2026-04-06T13:22:07Z</time></trkpt><trkpt lat="45.81015661213715" lon="10.791124704466872"><ele>95.0</ele><time>2026-04-06T13:22:08Z</time></trkpt><trkpt lat="45.81021476354255" lon="10.791173987891197"><ele>95.33333333333333</ele><time>2026-04-06T13:22:09Z</time></trkpt><trkpt lat="45.810278921396424" lon="10.791230109675631"><ele>95.66666666666667</ele><time>2026-04-06T13:22:10Z</time></trkpt><trkpt lat="45.81033399388001" lon="10.791281245202658"><ele>96.0</ele><time>2026-04-06T13:22:11Z</time></trkpt><trkpt lat="45.81040736725995" lon="10.791349476104791"><ele>96.0</ele><time>2026-04-06T13:22:13Z</time></trkpt><trkpt lat="45.81046361809943" lon="10.791404432320313"><ele>96.0</ele><time>2026-04-06T13:22:16Z</time></trkpt><trkpt lat="45.81052265073601" lon="10.79146277889043"><ele>96.0</ele><time>2026-04-06T13:22:20Z</time></trkpt><trkpt lat="45.81060892423973" lon="10.79154804974968"><ele>96.0</ele><time>2026-04-06T13:22:23Z</time></trkpt><trkpt lat="45.810665971970124" lon="10.791604434482261"><ele>96.0</ele><time>2026-04-06T13:22:35Z</time></trkpt><trkpt lat="45.8107456546268" lon="10.791654971426365"><ele>96.0</ele><time>2026-04-06T13:22:42Z</time></trkpt><trkpt lat="45.810806032189475" lon="10.791716763125272"><ele>95.99999999999999</ele><time>2026-04-06T13:22:44Z</time></trkpt><trkpt lat="45.810895054214456" lon="10.791798017781797"><ele>96.0</ele><time>2026-04-06T13:22:46Z</time></trkpt><trkpt lat="45.81095390550097" lon="10.791845602688927"><ele>96.0</ele><time>2026-04-06T13:22:47Z</time></trkpt><trkpt lat="45.811016614072486" lon="10.791885547330626"><ele>96.0</ele><time>2026-04-06T13:22:48Z</time></trkpt><trkpt lat="45.811077324910535" lon="10.791920633853772"><ele>96.0</ele><time>2026-04-06T13:22:49Z</time></trkpt><trkpt lat="45.811138996964786" lon="10.791955800151403"><ele>95.99999999999999</ele><time>2026-04-06T13:22:50Z</time></trkpt><trkpt lat="45.81120240760909" lon="10.791985591283442"><ele>96.0</ele><time>2026-04-06T13:22:51Z</time></trkpt><trkpt lat="45.81131712604393" lon="10.792035850090485"><ele>95.66666666666667</ele><time>2026-04-06T13:22:53Z</time></trkpt><trkpt lat="45.81141837501222" lon="10.792065901201621"><ele>95.33333333333333</ele><time>2026-04-06T13:22:55Z</time></trkpt><trkpt lat="45.81151305028058" lon="10.792099333858156"><ele>95.0</ele><time>2026-04-06T13:22:57Z</time></trkpt><trkpt lat="45.81160055516105" lon="10.792120103544889"><ele>94.66666666666666</ele><time>2026-04-06T13:22:59Z</time></trkpt><trkpt lat="45.811673176950386" lon="10.792141385723818"><ele>94.33333333333333</ele><time>2026-04-06T13:23:01Z</time></trkpt><trkpt lat="45.81175049567553" lon="10.792165909230945"><ele>94.0</ele><time>2026-04-06T13:23:04Z</time></trkpt><trkpt lat="45.81181528278712" lon="10.792187423111555"><ele>94.28571428571428</ele><time>2026-04-06T13:23:12Z</time></trkpt><trkpt lat="45.811880432235895" lon="10.792204582242297"><ele>94.57142857142857</ele><time>2026-04-06T13:23:14Z</time></trkpt><trkpt lat="45.81196621582504" lon="10.792227620862157"><ele>94.85714285714286</ele><time>2026-04-06T13:23:17Z</time></trkpt><trkpt lat="45.81203947272078" lon="10.792250969511839"><ele>95.14285714285714</ele><time>2026-04-06T13:23:19Z</time></trkpt><trkpt lat="45.81210749826649" lon="10.792266193860964"><ele>95.42857142857143</ele><time>2026-04-06T13:23:22Z</time></trkpt><trkpt lat="45.81217259625965" lon="10.7922770762818"><ele>95.71428571428571</ele><time>2026-04-06T13:23:25Z</time></trkpt><trkpt lat="45.812237265876604" lon="10.792291920306907"><ele>96.0</ele><time>2026-04-06T13:23:28Z</time></trkpt><trkpt lat="45.81230082753281" lon="10.792298031948679"><ele>95.99999999999999</ele><time>2026-04-06T13:23:30Z</time></trkpt><trkpt lat="45.81237896237293" lon="10.792301379703254"><ele>96.0</ele><time>2026-04-06T13:23:33Z</time></trkpt><trkpt lat="45.81246581289517" lon="10.792305285109345"><ele>96.0</ele><time>2026-04-06T13:23:37Z</time></trkpt><trkpt lat="45.812531098513354" lon="10.792304856827048"><ele>96.0</ele><time>2026-04-06T13:23:40Z</time></trkpt><trkpt lat="45.8126023406393" lon="10.792300748689136"><ele>96.0</ele><time>2026-04-06T13:23:44Z</time></trkpt><trkpt lat="45.812677754024335" lon="10.79229357327478"><ele>95.99999999999999</ele><time>2026-04-06T13:23:48Z</time></trkpt><trkpt lat="45.81274054032342" lon="10.792285419665367"><ele>96.0</ele><time>2026-04-06T13:23:53Z</time></trkpt><trkpt lat="45.81282051312902" lon="10.792270667487777"><ele>95.5</ele><time>2026-04-06T13:24:08Z</time></trkpt><trkpt lat="45.81290888799189" lon="10.792239691389563"><ele>95.0</ele><time>2026-04-06T13:24:12Z</time></trkpt><trkpt lat="45.81299686075055" lon="10.792204767349844"><ele>94.5</ele><time>2026-04-06T13:24:14Z</time></trkpt><trkpt lat="45.81308139870561" lon="10.792180805822928"><ele>94.0</ele><time>2026-04-06T13:24:16Z</time></trkpt><trkpt lat="45.81315138973638" lon="10.792161466304941"><ele>93.5</ele><time>2026-04-06T13:24:19Z</time></trkpt><trkpt lat="45.8132330032416" lon="10.792136621967568"><ele>93.0</ele><time>2026-04-06T13:25:04Z</time></trkpt><trkpt lat="45.81332548495273" lon="10.792115891600323"><ele>93.0</ele><time>2026-04-06T13:25:06Z</time></trkpt><trkpt lat="45.81339018097614" lon="10.792084672921748"><ele>93.0</ele><time>2026-04-06T13:25:07Z</time></trkpt><trkpt lat="45.81347657417499" lon="10.792039696433761"><ele>93.0</ele><time>2026-04-06T13:25:09Z</time></trkpt><trkpt lat="45.81354169477765" lon="10.791980317673632"><ele>93.0</ele><time>2026-04-06T13:25:18Z</time></trkpt><trkpt lat="45.81361237970882" lon="10.791968166760466"><ele>93.0</ele><time>2026-04-06T13:25:30Z</time></trkpt><trkpt lat="45.8136715176903" lon="10.791936971344416"><ele>93.0</ele><time>2026-04-06T13:25:38Z</time></trkpt><trkpt lat="45.81374651365699" lon="10.791897410839345"><ele>92.0</ele><time>2026-04-06T13:25:44Z</time></trkpt><trkpt lat="45.813813787854116" lon="10.791862411290126"><ele>91.0</ele><time>2026-04-06T13:25:48Z</time></trkpt><trkpt lat="45.81387409518136" lon="10.79183109119113"><ele>90.0</ele><time>2026-04-06T13:25:50Z</time></trkpt><trkpt lat="45.81394474520361" lon="10.791770352495622"><ele>89.0</ele><time>2026-04-06T13:25:52Z</time></trkpt><trkpt lat="45.81403108956698" lon="10.791730045617895"><ele>88.0</ele><time>2026-04-06T13:25:54Z</time></trkpt><trkpt lat="45.81409889705928" lon="10.79170182766668"><ele>87.0</ele><time>2026-04-06T13:25:56Z</time></trkpt><trkpt lat="45.8141807741643" lon="10.791658633237878"><ele>89.39999999999999</ele><time>2026-04-06T13:25:58Z</time></trkpt><trkpt lat="45.81428680721571" lon="10.791604860120314"><ele>91.8</ele><time>2026-04-06T13:26:00Z</time></trkpt><trkpt lat="45.81438326162545" lon="10.791557959701668"><ele>94.2</ele><time>2026-04-06T13:26:02Z</time></trkpt><trkpt lat="45.81446260894448" lon="10.79152457263443"><ele>96.6</ele><time>2026-04-06T13:26:04Z</time></trkpt><trkpt lat="45.81455049593035" lon="10.791494433058933"><ele>99.0</ele><time>2026-04-06T13:26:06Z</time></trkpt><trkpt lat="45.814635826000746" lon="10.791467730379798"><ele>99.2</ele><time>2026-04-06T13:26:08Z</time></trkpt><trkpt lat="45.814737684625655" lon="10.791443679022406"><ele>99.4</ele><time>2026-04-06T13:26:10Z</time></trkpt><trkpt lat="45.81480552548142" lon="10.791433654369046"><ele>99.6</ele><time>2026-04-06T13:26:11Z</time></trkpt><trkpt lat="45.814871020971765" lon="10.79142348081506"><ele>99.8</ele><time>2026-04-06T13:26:12Z</time></trkpt><trkpt lat="45.81498501995776" lon="10.791415531131886"><ele>100.0</ele><time>2026-04-06T13:26:14Z</time></trkpt><trkpt lat="45.81510390156636" lon="10.791423687075554"><ele>103.28571428571429</ele><time>2026-04-06T13:26:16Z</time></trkpt><trkpt lat="45.81517216261367" lon="10.791422311672145"><ele>106.57142857142858</ele><time>2026-04-06T13:26:17Z</time></trkpt><trkpt lat="45.81524835402094" lon="10.791422892171973"><ele>109.85714285714286</ele><time>2026-04-06T13:26:18Z</time></trkpt><trkpt lat="45.81532299099979" lon="10.79143137744218"><ele>113.14285714285715</ele><time>2026-04-06T13:26:19Z</time></trkpt><trkpt lat="45.81540416083585" lon="10.791438379685156"><ele>116.42857142857143</ele><time>2026-04-06T13:26:20Z</time></trkpt><trkpt lat="45.81547346654048" lon="10.791451968073126"><ele>119.71428571428574</ele><time>2026-04-06T13:26:21Z</time></trkpt><trkpt lat="45.8155376156758" lon="10.791468085249662"><ele>123.00000000000001</ele><time>2026-04-06T13:26:22Z</time></trkpt><trkpt lat="45.8156516359424" lon="10.791512881760195"><ele>123.0</ele><time>2026-04-06T13:26:24Z</time></trkpt><trkpt lat="45.81575632321469" lon="10.791560160342241"><ele>123.00000000000001</ele><time>2026-04-06T13:26:26Z</time></trkpt><trkpt lat="45.81583650373432" lon="10.791631369618365"><ele>123.00000000000001</ele><time>2026-04-06T13:26:28Z</time></trkpt><trkpt lat="45.81593255328231" lon="10.791710144081613"><ele>123.0</ele><time>2026-04-06T13:26:30.07Z</time></trkpt><trkpt lat="45.81604816530676" lon="10.79179469331185"><ele>123.0</ele><time>2026-04-06T13:26:32.058Z</time></trkpt><trkpt lat="45.81610478356239" lon="10.791841729984524"><ele>125.2</ele><time>2026-04-06T13:26:33.047Z</time></trkpt><trkpt lat="45.8161570457254" lon="10.79189223199831"><ele>127.4</ele><time>2026-04-06T13:26:34.042Z</time></trkpt><trkpt lat="45.816223913255705" lon="10.792042332449732"><ele>129.60000000000002</ele><time>2026-04-06T13:26:36.041Z</time></trkpt><trkpt lat="45.81629756360087" lon="10.792131971428327"><ele>131.8</ele><time>2026-04-06T13:26:38.041Z</time></trkpt><trkpt lat="45.81636020530642" lon="10.792202334074949"><ele>134.0</ele><time>2026-04-06T13:26:39.039Z</time></trkpt><trkpt lat="45.81642699525848" lon="10.792280793832463"><ele>134.0</ele><time>2026-04-06T13:26:40.041Z</time></trkpt><trkpt lat="45.81649361748494" lon="10.792362026938553"><ele>134.0</ele><time>2026-04-06T13:26:41.039Z</time></trkpt><trkpt lat="45.81655656855616" lon="10.792447095773433"><ele>134.0</ele><time>2026-04-06T13:26:42.04Z</time></trkpt><trkpt lat="45.81661089177679" lon="10.792528298080965"><ele>134.0</ele><time>2026-04-06T13:26:43.037Z</time></trkpt><trkpt lat="45.816655448315" lon="10.792599185745749"><ele>134.0</ele><time>2026-04-06T13:26:44.037Z</time></trkpt><trkpt lat="45.81669943004413" lon="10.792673314729408"><ele>134.0</ele><time>2026-04-06T13:26:45.031Z</time></trkpt><trkpt lat="45.81674654487351" lon="10.79275520783099"><ele>140.0</ele><time>2026-04-06T13:26:46.034Z</time></trkpt><trkpt lat="45.81706007319536" lon="10.793214403904944"><ele>146.0</ele><time>2026-04-06T13:26:52Z</time></trkpt><trkpt lat="45.81709895489819" lon="10.79332102322317"><ele>146.0</ele><time>2026-04-06T13:26:53Z</time></trkpt><trkpt lat="45.81712159092819" lon="10.793468376578671"><ele>146.0</ele><time>2026-04-06T13:26:55Z</time></trkpt><trkpt lat="45.81715694186871" lon="10.793574354543427"><ele>146.0</ele><time>2026-04-06T13:26:56Z</time></trkpt><trkpt lat="45.81719317394669" lon="10.793682602884846"><ele>146.0</ele><time>2026-04-06T13:26:57Z</time></trkpt><trkpt lat="45.817242462987544" lon="10.793804598247352"><ele>146.0</ele><time>2026-04-06T13:26:58Z</time></trkpt><trkpt lat="45.81727820955821" lon="10.793902265308663"><ele>146.0</ele><time>2026-04-06T13:26:59Z</time></trkpt><trkpt lat="45.81730733028611" lon="10.793997222399"><ele>142.0</ele><time>2026-04-06T13:27:00Z</time></trkpt><trkpt lat="45.81733778305346" lon="10.79408435843517"><ele>138.0</ele><time>2026-04-06T13:27:01Z</time></trkpt><trkpt lat="45.81738776451585" lon="10.794239308290601"><ele>134.0</ele><time>2026-04-06T13:27:03Z</time></trkpt><trkpt lat="45.81742201306952" lon="10.794328728898138"><ele>130.0</ele><time>2026-04-06T13:27:04Z</time></trkpt><trkpt lat="45.81745846282795" lon="10.794418674033661"><ele>125.99999999999999</ele><time>2026-04-06T13:27:05Z</time></trkpt><trkpt lat="45.817496771590484" lon="10.794503337156627"><ele>122.0</ele><time>2026-04-06T13:27:06Z</time></trkpt><trkpt lat="45.81754432050394" lon="10.794586240643142"><ele>122.49999999999999</ele><time>2026-04-06T13:27:07Z</time></trkpt><trkpt lat="45.817596435619315" lon="10.794670338302417"><ele>123.0</ele><time>2026-04-06T13:27:08Z</time></trkpt><trkpt lat="45.81764641313277" lon="10.794747233759994"><ele>123.5</ele><time>2026-04-06T13:27:09Z</time></trkpt><trkpt lat="45.817678644251416" lon="10.794833247898014"><ele>124.0</ele><time>2026-04-06T13:27:10Z</time></trkpt><trkpt lat="45.817750932125655" lon="10.79495065212682"><ele>124.49999999999999</ele><time>2026-04-06T13:27:12Z</time></trkpt><trkpt lat="45.81782275442449" lon="10.795066839371794"><ele>125.0</ele><time>2026-04-06T13:27:14Z</time></trkpt><trkpt lat="45.81789448763246" lon="10.79518579482979"><ele>120.2</ele><time>2026-04-06T13:27:16Z</time></trkpt><trkpt lat="45.817968439248034" lon="10.795309215561387"><ele>115.4</ele><time>2026-04-06T13:27:18Z</time></trkpt><trkpt lat="45.81805089593207" lon="10.795446830734116"><ele>110.6</ele><time>2026-04-06T13:27:20Z</time></trkpt><trkpt lat="45.81809509102808" lon="10.79551976124592"><ele>105.8</ele><time>2026-04-06T13:27:21Z</time></trkpt><trkpt lat="45.818142993565736" lon="10.79559796488422"><ele>101.0</ele><time>2026-04-06T13:27:22Z</time></trkpt><trkpt lat="45.818194037295555" lon="10.795681296769954"><ele>100.99999999999999</ele><time>2026-04-06T13:27:23Z</time></trkpt><trkpt lat="45.81824705847943" lon="10.795759702178227"><ele>101.0</ele><time>2026-04-06T13:27:24Z</time></trkpt><trkpt lat="45.818308480651844" lon="10.79581249865745"><ele>101.0</ele><time>2026-04-06T13:27:25Z</time></trkpt><trkpt lat="45.81835143817045" lon="10.795898982648183"><ele>101.0</ele><time>2026-04-06T13:27:26Z</time></trkpt><trkpt lat="45.81840684979367" lon="10.795964988206673"><ele>100.99999999999999</ele><time>2026-04-06T13:27:27Z</time></trkpt><trkpt lat="45.818477503356256" lon="10.79603386463053"><ele>101.0</ele><time>2026-04-06T13:27:28Z</time></trkpt><trkpt lat="45.818539577667906" lon="10.796090108038685"><ele>103.0</ele><time>2026-04-06T13:27:29Z</time></trkpt><trkpt lat="45.81860266683664" lon="10.796147181859617"><ele>105.0</ele><time>2026-04-06T13:27:30Z</time></trkpt><trkpt lat="45.818666875687995" lon="10.796203738273865"><ele>107.0</ele><time>2026-04-06T13:27:31Z</time></trkpt><trkpt lat="45.81872979433061" lon="10.796259657620945"><ele>109.0</ele><time>2026-04-06T13:27:32Z</time></trkpt><trkpt lat="45.81878871772382" lon="10.796312050052208"><ele>111.0</ele><time>2026-04-06T13:27:33Z</time></trkpt><trkpt lat="45.81884375991843" lon="10.796360991466535"><ele>112.99999999999999</ele><time>2026-04-06T13:27:34Z</time></trkpt><trkpt lat="45.81890190863427" lon="10.796412695078125"><ele>114.99999999999999</ele><time>2026-04-06T13:27:35Z</time></trkpt><trkpt lat="45.818967173115645" lon="10.796470902428627"><ele>114.99999999999999</ele><time>2026-04-06T13:27:36Z</time></trkpt><trkpt lat="45.81902728695047" lon="10.796526442453322"><ele>115.0</ele><time>2026-04-06T13:27:37Z</time></trkpt><trkpt lat="45.819084385286445" lon="10.796586710375525"><ele>114.99999999999999</ele><time>2026-04-06T13:27:38Z</time></trkpt><trkpt lat="45.81913659794216" lon="10.796648512729728"><ele>114.99999999999999</ele><time>2026-04-06T13:27:39Z</time></trkpt><trkpt lat="45.81918618130952" lon="10.796712992745299"><ele>115.0</ele><time>2026-04-06T13:27:40Z</time></trkpt><trkpt lat="45.8192375622889" lon="10.796788363285863"><ele>114.99999999999999</ele><time>2026-04-06T13:27:41Z</time></trkpt><trkpt lat="45.81929394680162" lon="10.796877565697235"><ele>114.99999999999999</ele><time>2026-04-06T13:27:42Z</time></trkpt><trkpt lat="45.81934340573626" lon="10.796981250928777"><ele>121.42857142857142</ele><time>2026-04-06T13:27:43Z</time></trkpt><trkpt lat="45.81939126130031" lon="10.797081630461507"><ele>127.85714285714286</ele><time>2026-04-06T13:27:44Z</time></trkpt><trkpt lat="45.819435651252974" lon="10.797175393551127"><ele>134.28571428571428</ele><time>2026-04-06T13:27:45Z</time></trkpt><trkpt lat="45.81947774476927" lon="10.797261043425946"><ele>140.71428571428572</ele><time>2026-04-06T13:27:46Z</time></trkpt><trkpt lat="45.81951749505141" lon="10.797341687076583"><ele>147.14285714285714</ele><time>2026-04-06T13:27:47Z</time></trkpt><trkpt lat="45.81957036957287" lon="10.797408701750614"><ele>153.57142857142856</ele><time>2026-04-06T13:27:48Z</time></trkpt><trkpt lat="45.81960770897955" lon="10.79748742703637"><ele>160.0</ele><time>2026-04-06T13:27:49Z</time></trkpt><trkpt lat="45.8196796671426" lon="10.797642400314402"><ele>152.66666666666669</ele><time>2026-04-06T13:27:51Z</time></trkpt><trkpt lat="45.819712492009614" lon="10.797739627022144"><ele>145.33333333333334</ele><time>2026-04-06T13:27:52Z</time></trkpt><trkpt lat="45.819760628062426" lon="10.797837724091906"><ele>138.0</ele><time>2026-04-06T13:27:53Z</time></trkpt><trkpt lat="45.819814120956565" lon="10.797946627003226"><ele>130.66666666666666</ele><time>2026-04-06T13:27:54Z</time></trkpt><trkpt lat="45.81986503421605" lon="10.798050643952758"><ele>123.33333333333333</ele><time>2026-04-06T13:27:55Z</time></trkpt><trkpt lat="45.81991040436068" lon="10.798143385579003"><ele>116.0</ele><time>2026-04-06T13:27:56Z</time></trkpt><trkpt lat="45.819956912551014" lon="10.79823847853589"><ele>115.99999999999999</ele><time>2026-04-06T13:27:57Z</time></trkpt><trkpt lat="45.820005648747255" lon="10.798338127005644"><ele>116.0</ele><time>2026-04-06T13:27:58Z</time></trkpt><trkpt lat="45.82005260802615" lon="10.79843414228152"><ele>116.0</ele><time>2026-04-06T13:27:59Z</time></trkpt><trkpt lat="45.820098925840725" lon="10.798528846006205"><ele>116.0</ele><time>2026-04-06T13:28:00Z</time></trkpt><trkpt lat="45.820147699942986" lon="10.798628571956481"><ele>115.99999999999999</ele><time>2026-04-06T13:28:01Z</time></trkpt><trkpt lat="45.82019911141391" lon="10.798733690425724"><ele>116.0</ele><time>2026-04-06T13:28:02Z</time></trkpt><trkpt lat="45.82026496379209" lon="10.798827832692034"><ele>112.83333333333333</ele><time>2026-04-06T13:28:03.071Z</time></trkpt><trkpt lat="45.82031004466261" lon="10.79892230657535"><ele>109.66666666666666</ele><time>2026-04-06T13:28:04.064Z</time></trkpt><trkpt lat="45.82034004212765" lon="10.79902190447071"><ele>106.5</ele><time>2026-04-06T13:28:05Z</time></trkpt><trkpt lat="45.82038545339691" lon="10.79911860248296"><ele>103.33333333333334</ele><time>2026-04-06T13:28:06Z</time></trkpt><trkpt lat="45.820427959375394" lon="10.79921021691303"><ele>100.16666666666667</ele><time>2026-04-06T13:28:07Z</time></trkpt><trkpt lat="45.820488017668914" lon="10.799330556612023"><ele>97.0</ele><time>2026-04-06T13:28:08Z</time></trkpt><trkpt lat="45.82055012396418" lon="10.799452323050625"><ele>97.0</ele><time>2026-04-06T13:28:09Z</time></trkpt><trkpt lat="45.82061103449193" lon="10.799569028525998"><ele>97.0</ele><time>2026-04-06T13:28:10Z</time></trkpt><trkpt lat="45.820690576464855" lon="10.799625008024712"><ele>97.0</ele><time>2026-04-06T13:28:11Z</time></trkpt><trkpt lat="45.82079921911198" lon="10.799697938722261"><ele>97.0</ele><time>2026-04-06T13:28:12Z</time></trkpt><trkpt lat="45.8208654515464" lon="10.799760630794117"><ele>97.0</ele><time>2026-04-06T13:28:13Z</time></trkpt><trkpt lat="45.82094004370927" lon="10.799824312133957"><ele>99.66666666666667</ele><time>2026-04-06T13:28:14Z</time></trkpt><trkpt lat="45.821007209550764" lon="10.79988256768435"><ele>102.33333333333334</ele><time>2026-04-06T13:28:15Z</time></trkpt><trkpt lat="45.821070572689386" lon="10.79994026809337"><ele>105.0</ele><time>2026-04-06T13:28:16Z</time></trkpt><trkpt lat="45.821137871278665" lon="10.800006557168494"><ele>107.66666666666666</ele><time>2026-04-06T13:28:17Z</time></trkpt><trkpt lat="45.821203724329365" lon="10.800083950838337"><ele>110.33333333333333</ele><time>2026-04-06T13:28:18Z</time></trkpt><trkpt lat="45.8212656372938" lon="10.80017145793326"><ele>113.0</ele><time>2026-04-06T13:28:19Z</time></trkpt><trkpt lat="45.821322369050925" lon="10.800259631636393"><ele>113.0</ele><time>2026-04-06T13:28:20Z</time></trkpt><trkpt lat="45.82136768626679" lon="10.800344191098466"><ele>113.0</ele><time>2026-04-06T13:28:21Z</time></trkpt><trkpt lat="45.82140627556631" lon="10.800427184247452"><ele>113.0</ele><time>2026-04-06T13:28:22Z</time></trkpt><trkpt lat="45.82144043056847" lon="10.800511143618973"><ele>113.0</ele><time>2026-04-06T13:28:23Z</time></trkpt><trkpt lat="45.82147184135033" lon="10.800597687683068"><ele>113.0</ele><time>2026-04-06T13:28:24Z</time></trkpt><trkpt lat="45.82150249424729" lon="10.800684852911617"><ele>113.0</ele><time>2026-04-06T13:28:25Z</time></trkpt><trkpt lat="45.82153076105634" lon="10.800771119542043"><ele>113.0</ele><time>2026-04-06T13:28:26Z</time></trkpt><trkpt lat="45.821557312813354" lon="10.800856040468782"><ele>112.99999999999999</ele><time>2026-04-06T13:28:27Z</time></trkpt><trkpt lat="45.82158096957488" lon="10.800941826408089"><ele>113.0</ele><time>2026-04-06T13:28:28Z</time></trkpt><trkpt lat="45.82160402121988" lon="10.801033744975923"><ele>113.0</ele><time>2026-04-06T13:28:29Z</time></trkpt><trkpt lat="45.821624325531914" lon="10.801129546339741"><ele>113.0</ele><time>2026-04-06T13:28:30Z</time></trkpt><trkpt lat="45.82163943028252" lon="10.801231873033707"><ele>112.99999999999999</ele><time>2026-04-06T13:28:31Z</time></trkpt><trkpt lat="45.82165142236268" lon="10.801332139782835"><ele>113.0</ele><time>2026-04-06T13:28:32Z</time></trkpt><trkpt lat="45.82166230735071" lon="10.801510265813256"><ele>113.0</ele><time>2026-04-06T13:28:34Z</time></trkpt><trkpt lat="45.82166239400907" lon="10.801682592141228"><ele>113.00000000000001</ele><time>2026-04-06T13:28:36Z</time></trkpt><trkpt lat="45.82168077898181" lon="10.801845355598086"><ele>113.00000000000001</ele><time>2026-04-06T13:28:38Z</time></trkpt><trkpt lat="45.82166453019116" lon="10.802025555635003"><ele>113.0</ele><time>2026-04-06T13:28:40Z</time></trkpt><trkpt lat="45.82165765534458" lon="10.802119250996807"><ele>113.0</ele><time>2026-04-06T13:28:41Z</time></trkpt><trkpt lat="45.82165464087816" lon="10.802221396072678"><ele>113.16666666666666</ele><time>2026-04-06T13:28:42Z</time></trkpt><trkpt lat="45.82162685577141" lon="10.802331324642369"><ele>113.33333333333333</ele><time>2026-04-06T13:28:43Z</time></trkpt><trkpt lat="45.82163106665281" lon="10.802445289692296"><ele>113.5</ele><time>2026-04-06T13:28:44Z</time></trkpt><trkpt lat="45.82164001818756" lon="10.802559387883429"><ele>113.66666666666666</ele><time>2026-04-06T13:28:45Z</time></trkpt><trkpt lat="45.82165206204752" lon="10.802665939763358"><ele>113.83333333333333</ele><time>2026-04-06T13:28:46Z</time></trkpt><trkpt lat="45.82166846383921" lon="10.802772403573286"><ele>114.0</ele><time>2026-04-06T13:28:47Z</time></trkpt><trkpt lat="45.82168818916402" lon="10.802874193399939"><ele>113.2</ele><time>2026-04-06T13:28:48Z</time></trkpt><trkpt lat="45.82170946194785" lon="10.80296442092214"><ele>112.4</ele><time>2026-04-06T13:28:49Z</time></trkpt><trkpt lat="45.82175471999489" lon="10.803119540047154"><ele>111.6</ele><time>2026-04-06T13:28:51Z</time></trkpt><trkpt lat="45.82180208572595" lon="10.803253247430861"><ele>110.8</ele><time>2026-04-06T13:28:53Z</time></trkpt><trkpt lat="45.821857839390184" lon="10.803403658129085"><ele>110.0</ele><time>2026-04-06T13:28:55Z</time></trkpt><trkpt lat="45.82191185301292" lon="10.803549414944218"><ele>115.4</ele><time>2026-04-06T13:28:57Z</time></trkpt><trkpt lat="45.821964995109155" lon="10.803692455703917"><ele>120.8</ele><time>2026-04-06T13:28:59Z</time></trkpt><trkpt lat="45.822019256924435" lon="10.803837536559813"><ele>126.19999999999999</ele><time>2026-04-06T13:29:01Z</time></trkpt><trkpt lat="45.82207691547405" lon="10.803992569798682"><ele>131.6</ele><time>2026-04-06T13:29:03Z</time></trkpt><trkpt lat="45.8221104116838" lon="10.804084108130228"><ele>137.0</ele><time>2026-04-06T13:29:04Z</time></trkpt><trkpt lat="45.82214389771762" lon="10.804176748506203"><ele>137.00000000000003</ele><time>2026-04-06T13:29:05Z</time></trkpt><trkpt lat="45.82217807063012" lon="10.80426531952891"><ele>137.0</ele><time>2026-04-06T13:29:06Z</time></trkpt><trkpt lat="45.82221803765308" lon="10.804359284481057"><ele>137.0</ele><time>2026-04-06T13:29:07Z</time></trkpt><trkpt lat="45.82226510676926" lon="10.80444978393155"><ele>137.0</ele><time>2026-04-06T13:29:08Z</time></trkpt><trkpt lat="45.82231656499115" lon="10.804535323900476"><ele>137.0</ele><time>2026-04-06T13:29:09Z</time></trkpt><trkpt lat="45.822368867756694" lon="10.804608768244313"><ele>137.00000000000003</ele><time>2026-04-06T13:29:10Z</time></trkpt><trkpt lat="45.82241265060667" lon="10.804677613110854"><ele>137.0</ele><time>2026-04-06T13:29:11Z</time></trkpt><trkpt lat="45.82248365227052" lon="10.804821021933684"><ele>134.16666666666666</ele><time>2026-04-06T13:29:13Z</time></trkpt><trkpt lat="45.82254200574338" lon="10.804960369303481"><ele>131.33333333333331</ele><time>2026-04-06T13:29:15Z</time></trkpt><trkpt lat="45.82257489121408" lon="10.8050413552567"><ele>128.5</ele><time>2026-04-06T13:29:16Z</time></trkpt><trkpt lat="45.82261555183863" lon="10.805142849211814"><ele>125.66666666666666</ele><time>2026-04-06T13:29:17Z</time></trkpt><trkpt lat="45.82265121654028" lon="10.805236439542988"><ele>122.83333333333333</ele><time>2026-04-06T13:29:18Z</time></trkpt><trkpt lat="45.82268668973979" lon="10.80533223778528"><ele>120.0</ele><time>2026-04-06T13:29:19Z</time></trkpt><trkpt lat="45.82272377072625" lon="10.8054405438611"><ele>128.33333333333334</ele><time>2026-04-06T13:29:20Z</time></trkpt><trkpt lat="45.82275953690441" lon="10.80555642881242"><ele>136.66666666666666</ele><time>2026-04-06T13:29:21Z</time></trkpt><trkpt lat="45.82278753451865" lon="10.805671892925952"><ele>145.0</ele><time>2026-04-06T13:29:22Z</time></trkpt><trkpt lat="45.82281092093631" lon="10.805776439252774"><ele>153.33333333333331</ele><time>2026-04-06T13:29:23Z</time></trkpt><trkpt lat="45.822832991209715" lon="10.805880740017562"><ele>161.66666666666666</ele><time>2026-04-06T13:29:24Z</time></trkpt><trkpt lat="45.82285395617615" lon="10.805980431137902"><ele>170.0</ele><time>2026-04-06T13:29:25Z</time></trkpt><trkpt lat="45.82287426623599" lon="10.806079008409258"><ele>170.0</ele><time>2026-04-06T13:29:26Z</time></trkpt><trkpt lat="45.82289395456784" lon="10.806174568045709"><ele>170.0</ele><time>2026-04-06T13:29:27Z</time></trkpt><trkpt lat="45.82291491727452" lon="10.806276313063806"><ele>170.0</ele><time>2026-04-06T13:29:28Z</time></trkpt><trkpt lat="45.82293493601974" lon="10.806373476384461"><ele>170.0</ele><time>2026-04-06T13:29:29Z</time></trkpt><trkpt lat="45.822953275959755" lon="10.806462491460536"><ele>170.0</ele><time>2026-04-06T13:29:30Z</time></trkpt><trkpt lat="45.822972401632434" lon="10.806554911544165"><ele>170.0</ele><time>2026-04-06T13:29:31Z</time></trkpt><trkpt lat="45.82299698383224" lon="10.806668071283998"><ele>170.0</ele><time>2026-04-06T13:29:32.059Z</time></trkpt><trkpt lat="45.823024475105875" lon="10.806794622485295"><ele>158.33333333333331</ele><time>2026-04-06T13:29:33.061Z</time></trkpt><trkpt lat="45.82305118143875" lon="10.806917560298286"><ele>146.66666666666666</ele><time>2026-04-06T13:29:34.053Z</time></trkpt><trkpt lat="45.823130691654264" lon="10.807379649004947"><ele>135.0</ele><time>2026-04-06T13:29:39Z</time></trkpt><trkpt lat="45.823151754061826" lon="10.80748396119587"><ele>135.0</ele><time>2026-04-06T13:29:40Z</time></trkpt><trkpt lat="45.823211012548946" lon="10.807595183048724"><ele>135.0</ele><time>2026-04-06T13:29:41Z</time></trkpt><trkpt lat="45.82325004187218" lon="10.807707570527521"><ele>135.0</ele><time>2026-04-06T13:29:42Z</time></trkpt><trkpt lat="45.82328986619001" lon="10.807821806579163"><ele>135.0</ele><time>2026-04-06T13:29:43Z</time></trkpt><trkpt lat="45.82332808249581" lon="10.80792166663739"><ele>135.0</ele><time>2026-04-06T13:29:44Z</time></trkpt><trkpt lat="45.823379090977106" lon="10.808069584261542"><ele>132.8</ele><time>2026-04-06T13:29:46Z</time></trkpt><trkpt lat="45.82341549159149" lon="10.808148359541136"><ele>130.6</ele><time>2026-04-06T13:29:47Z</time></trkpt><trkpt lat="45.823516810045525" lon="10.808388521155635"><ele>128.4</ele><time>2026-04-06T13:29:50Z</time></trkpt><trkpt lat="45.823578429513866" lon="10.808482605540002"><ele>126.2</ele><time>2026-04-06T13:29:51Z</time></trkpt><trkpt lat="45.82364238940974" lon="10.808503629482614"><ele>124.0</ele><time>2026-04-06T13:29:52Z</time></trkpt><trkpt lat="45.823710799267445" lon="10.808601316876645"><ele>124.0</ele><time>2026-04-06T13:29:54Z</time></trkpt><trkpt lat="45.82380359252004" lon="10.808708715894383"><ele>124.0</ele><time>2026-04-06T13:29:56Z</time></trkpt><trkpt lat="45.82389732398062" lon="10.808814887135295"><ele>124.0</ele><time>2026-04-06T13:29:58Z</time></trkpt><trkpt lat="45.82400358249161" lon="10.808913046905408"><ele>124.0</ele><time>2026-04-06T13:30:00Z</time></trkpt><trkpt lat="45.82404412023844" lon="10.808998287989388"><ele>124.0</ele><time>2026-04-06T13:30:01Z</time></trkpt><trkpt lat="45.82411866793845" lon="10.8091104712984"><ele>124.00000000000001</ele><time>2026-04-06T13:30:03Z</time></trkpt><trkpt lat="45.82414194946655" lon="10.809197464669516"><ele>124.0</ele><time>2026-04-06T13:30:04Z</time></trkpt><trkpt lat="45.824180942221425" lon="10.809326859908081"><ele>124.0</ele><time>2026-04-06T13:30:06Z</time></trkpt><trkpt lat="45.82420137634176" lon="10.809426571163785"><ele>124.0</ele><time>2026-04-06T13:30:08Z</time></trkpt><trkpt lat="45.8242127411399" lon="10.80955184986041"><ele>124.00000000000001</ele><time>2026-04-06T13:30:10Z</time></trkpt><trkpt lat="45.82421170140212" lon="10.809731808449309"><ele>124.0</ele><time>2026-04-06T13:30:12Z</time></trkpt><trkpt lat="45.82420290881532" lon="10.809832688300727"><ele>121.33333333333334</ele><time>2026-04-06T13:30:13Z</time></trkpt><trkpt lat="45.82419436946436" lon="10.809940756083014"><ele>118.66666666666667</ele><time>2026-04-06T13:30:14Z</time></trkpt><trkpt lat="45.824186029949296" lon="10.810050956827668"><ele>116.0</ele><time>2026-04-06T13:30:15Z</time></trkpt><trkpt lat="45.82418216838819" lon="10.81016338250699"><ele>113.33333333333334</ele><time>2026-04-06T13:30:16Z</time></trkpt><trkpt lat="45.824180541908724" lon="10.810285556064615"><ele>110.66666666666667</ele><time>2026-04-06T13:30:17Z</time></trkpt><trkpt lat="45.82418309404805" lon="10.810408908726744"><ele>108.0</ele><time>2026-04-06T13:30:18Z</time></trkpt><trkpt lat="45.824222279332986" lon="10.810527833900094"><ele>107.75</ele><time>2026-04-06T13:30:19Z</time></trkpt><trkpt lat="45.82424865559188" lon="10.81068865159229"><ele>107.5</ele><time>2026-04-06T13:30:20Z</time></trkpt><trkpt lat="45.824276061639196" lon="10.810875610434557"><ele>107.25</ele><time>2026-04-06T13:30:21Z</time></trkpt><trkpt lat="45.82431133536821" lon="10.811088761295876"><ele>107.0</ele><time>2026-04-06T13:30:22Z</time></trkpt><trkpt lat="45.82432688430476" lon="10.811303805739353"><ele>112.5</ele><time>2026-04-06T13:30:23Z</time></trkpt><trkpt lat="45.82437149757186" lon="10.811501589080349"><ele>118.0</ele><time>2026-04-06T13:30:24Z</time></trkpt><trkpt lat="45.824415020259615" lon="10.811699351657193"><ele>123.5</ele><time>2026-04-06T13:30:25Z</time></trkpt><trkpt lat="45.82445875544418" lon="10.811893505580324"><ele>129.0</ele><time>2026-04-06T13:30:26Z</time></trkpt><trkpt lat="45.82450288988333" lon="10.812087972678343"><ele>129.0</ele><time>2026-04-06T13:30:27Z</time></trkpt><trkpt lat="45.82454646760821" lon="10.812278486505111"><ele>129.0</ele><time>2026-04-06T13:30:28Z</time></trkpt><trkpt lat="45.82458723121651" lon="10.812456697509603"><ele>129.0</ele><time>2026-04-06T13:30:29Z</time></trkpt><trkpt lat="45.8246221434943" lon="10.812611343332716"><ele>129.0</ele><time>2026-04-06T13:30:30Z</time></trkpt><trkpt lat="45.82465389006576" lon="10.8127432773273"><ele>127.66666666666667</ele><time>2026-04-06T13:30:31Z</time></trkpt><trkpt lat="45.82468845178435" lon="10.812849295348867"><ele>126.33333333333334</ele><time>2026-04-06T13:30:32Z</time></trkpt><trkpt lat="45.82472387002026" lon="10.812940017728662"><ele>125.0</ele><time>2026-04-06T13:30:33Z</time></trkpt><trkpt lat="45.82478017833823" lon="10.813023668040723"><ele>123.66666666666667</ele><time>2026-04-06T13:30:34Z</time></trkpt><trkpt lat="45.824826856891235" lon="10.81313062949326"><ele>122.33333333333334</ele><time>2026-04-06T13:30:35Z</time></trkpt><trkpt lat="45.82488634329154" lon="10.81323418922828"><ele>121.0</ele><time>2026-04-06T13:30:36Z</time></trkpt><trkpt lat="45.82496295885211" lon="10.813380694087664"><ele>123.33333333333334</ele><time>2026-04-06T13:30:37Z</time></trkpt><trkpt lat="45.82506543940267" lon="10.813529051267826"><ele>125.66666666666666</ele><time>2026-04-06T13:30:38Z</time></trkpt><trkpt lat="45.825190648817134" lon="10.813663312853228"><ele>128.0</ele><time>2026-04-06T13:30:39Z</time></trkpt><trkpt lat="45.82532731683292" lon="10.813786395957708"><ele>128.0</ele><time>2026-04-06T13:30:40Z</time></trkpt><trkpt lat="45.82543433785351" lon="10.813957586574027"><ele>128.0</ele><time>2026-04-06T13:30:41Z</time></trkpt><trkpt lat="45.82553782166355" lon="10.814134481572756"><ele>128.0</ele><time>2026-04-06T13:30:42Z</time></trkpt><trkpt lat="45.82563873382811" lon="10.814315891764931"><ele>122.5</ele><time>2026-04-06T13:30:43Z</time></trkpt><trkpt lat="45.825733259610836" lon="10.814484196479912"><ele>117.0</ele><time>2026-04-06T13:30:44Z</time></trkpt><trkpt lat="45.825817250829424" lon="10.814648263158123"><ele>111.5</ele><time>2026-04-06T13:30:45Z</time></trkpt><trkpt lat="45.825889912848766" lon="10.8148226883942"><ele>106.0</ele><time>2026-04-06T13:30:46Z</time></trkpt><trkpt lat="45.82595290122768" lon="10.814977328981927"><ele>108.25</ele><time>2026-04-06T13:30:47Z</time></trkpt><trkpt lat="45.82602164670023" lon="10.815099771457705"><ele>110.5</ele><time>2026-04-06T13:30:48Z</time></trkpt><trkpt lat="45.82608095617699" lon="10.815222017519655"><ele>112.75</ele><time>2026-04-06T13:30:49Z</time></trkpt><trkpt lat="45.826159572039" lon="10.815342077494192"><ele>115.0</ele><time>2026-04-06T13:30:50Z</time></trkpt><trkpt lat="45.826264347155615" lon="10.815458865544867"><ele>115.0</ele><time>2026-04-06T13:30:51Z</time></trkpt><trkpt lat="45.82638534360458" lon="10.815597436156345"><ele>115.0</ele><time>2026-04-06T13:30:52Z</time></trkpt><trkpt lat="45.82651685288834" lon="10.815721094926467"><ele>115.0</ele><time>2026-04-06T13:30:53Z</time></trkpt><trkpt lat="45.826655454866035" lon="10.815852537493301"><ele>115.0</ele><time>2026-04-06T13:30:54Z</time></trkpt><trkpt lat="45.82679492132339" lon="10.815986698310065"><ele>115.0</ele><time>2026-04-06T13:30:55Z</time></trkpt><trkpt lat="45.82693041668988" lon="10.816117039108597"><ele>115.0</ele><time>2026-04-06T13:30:56Z</time></trkpt><trkpt lat="45.82706059950581" lon="10.816242269457362"><ele>119.66666666666667</ele><time>2026-04-06T13:30:57Z</time></trkpt><trkpt lat="45.82717944748776" lon="10.816381923370447"><ele>124.33333333333334</ele><time>2026-04-06T13:30:58Z</time></trkpt><trkpt lat="45.82728722280157" lon="10.816544001022816"><ele>129.0</ele><time>2026-04-06T13:30:59Z</time></trkpt><trkpt lat="45.82738809723429" lon="10.816725475048711"><ele>122.33333333333334</ele><time>2026-04-06T13:31:00Z</time></trkpt><trkpt lat="45.8274802989588" lon="10.816920764666929"><ele>115.66666666666667</ele><time>2026-04-06T13:31:01Z</time></trkpt><trkpt lat="45.82756246999695" lon="10.81712586413324"><ele>109.0</ele><time>2026-04-06T13:31:02Z</time></trkpt><trkpt lat="45.82762685579436" lon="10.817339868834729"><ele>120.0</ele><time>2026-04-06T13:31:03Z</time></trkpt><trkpt lat="45.82767339314969" lon="10.817561157977465"><ele>131.0</ele><time>2026-04-06T13:31:04Z</time></trkpt><trkpt lat="45.82770184305001" lon="10.817789513745074"><ele>142.0</ele><time>2026-04-06T13:31:05Z</time></trkpt><trkpt lat="45.827705955783166" lon="10.81801417966683"><ele>142.0</ele><time>2026-04-06T13:31:06Z</time></trkpt><trkpt lat="45.82770118472133" lon="10.818246157986556"><ele>142.0</ele><time>2026-04-06T13:31:07Z</time></trkpt><trkpt lat="45.82769497344641" lon="10.818479568431174"><ele>142.0</ele><time>2026-04-06T13:31:08Z</time></trkpt><trkpt lat="45.827689951628166" lon="10.818712315488247"><ele>140.0</ele><time>2026-04-06T13:31:09Z</time></trkpt><trkpt lat="45.82768626664696" lon="10.818944576323444"><ele>138.0</ele><time>2026-04-06T13:31:10Z</time></trkpt><trkpt lat="45.82768827532285" lon="10.8191791151913"><ele>136.0</ele><time>2026-04-06T13:31:11Z</time></trkpt><trkpt lat="45.82770694948471" lon="10.819411391323898"><ele>132.33333333333334</ele><time>2026-04-06T13:31:12Z</time></trkpt><trkpt lat="45.82774140539785" lon="10.819639154410954"><ele>128.66666666666666</ele><time>2026-04-06T13:31:13Z</time></trkpt><trkpt lat="45.82778957367589" lon="10.819864194290476"><ele>125.0</ele><time>2026-04-06T13:31:14Z</time></trkpt><trkpt lat="45.827844662228834" lon="10.820068829465693"><ele>119.0</ele><time>2026-04-06T13:31:15Z</time></trkpt><trkpt lat="45.82790328715704" lon="10.82024622057084"><ele>113.0</ele><time>2026-04-06T13:31:16Z</time></trkpt><trkpt lat="45.82798737732061" lon="10.820385495170877"><ele>107.0</ele><time>2026-04-06T13:31:17Z</time></trkpt><trkpt lat="45.828047301029756" lon="10.820516036591751"><ele>101.0</ele><time>2026-04-06T13:31:18Z</time></trkpt><trkpt lat="45.82810878665247" lon="10.820629509150642"><ele>101.0</ele><time>2026-04-06T13:31:19Z</time></trkpt><trkpt lat="45.828183176774274" lon="10.820744465371494"><ele>101.0</ele><time>2026-04-06T13:31:20Z</time></trkpt><trkpt lat="45.82825768832462" lon="10.820898306026798"><ele>101.0</ele><time>2026-04-06T13:31:21Z</time></trkpt><trkpt lat="45.82837278490404" lon="10.821039791497066"><ele>101.0</ele><time>2026-04-06T13:31:22Z</time></trkpt><trkpt lat="45.82850755556556" lon="10.821181629006512"><ele>104.66666666666666</ele><time>2026-04-06T13:31:23Z</time></trkpt><trkpt lat="45.828644302016784" lon="10.821323337523516"><ele>108.33333333333334</ele><time>2026-04-06T13:31:24Z</time></trkpt><trkpt lat="45.82877643436539" lon="10.821471729058725"><ele>112.0</ele><time>2026-04-06T13:31:25Z</time></trkpt><trkpt lat="45.82890009678351" lon="10.821634128219792"><ele>112.0</ele><time>2026-04-06T13:31:26Z</time></trkpt><trkpt lat="45.82901769799651" lon="10.821794501068577"><ele>112.0</ele><time>2026-04-06T13:31:27Z</time></trkpt><trkpt lat="45.82914118682226" lon="10.821933606854863"><ele>112.0</ele><time>2026-04-06T13:31:28Z</time></trkpt><trkpt lat="45.829254611006455" lon="10.822089783401513"><ele>110.33333333333334</ele><time>2026-04-06T13:31:29Z</time></trkpt><trkpt lat="45.82935114038492" lon="10.822253513564025"><ele>108.66666666666666</ele><time>2026-04-06T13:31:30Z</time></trkpt><trkpt lat="45.829472560018296" lon="10.82236344018945"><ele>107.0</ele><time>2026-04-06T13:31:31Z</time></trkpt><trkpt lat="45.82958685245411" lon="10.822530474348223"><ele>107.0</ele><time>2026-04-06T13:31:32Z</time></trkpt><trkpt lat="45.829750856781736" lon="10.82258050501469"><ele>107.0</ele><time>2026-04-06T13:31:33Z</time></trkpt><trkpt lat="45.82993680500586" lon="10.82264641710678"><ele>107.0</ele><time>2026-04-06T13:31:34Z</time></trkpt><trkpt lat="45.83010491535134" lon="10.822719317369073"><ele>101.0</ele><time>2026-04-06T13:31:35Z</time></trkpt><trkpt lat="45.830265705089204" lon="10.822797407058774"><ele>95.0</ele><time>2026-04-06T13:31:36Z</time></trkpt><trkpt lat="45.83043710152551" lon="10.822877440741479"><ele>89.0</ele><time>2026-04-06T13:31:37Z</time></trkpt><trkpt lat="45.8306021701197" lon="10.82296844338846"><ele>89.0</ele><time>2026-04-06T13:31:38Z</time></trkpt><trkpt lat="45.830773490648994" lon="10.823053519303313"><ele>89.0</ele><time>2026-04-06T13:31:39Z</time></trkpt><trkpt lat="45.83093678063209" lon="10.823142653202744"><ele>89.0</ele><time>2026-04-06T13:31:40Z</time></trkpt><trkpt lat="45.831091895832564" lon="10.823259532694397"><ele>89.33333333333334</ele><time>2026-04-06T13:31:41Z</time></trkpt><trkpt lat="45.83123297310711" lon="10.823411698849723"><ele>89.66666666666667</ele><time>2026-04-06T13:31:42Z</time></trkpt><trkpt lat="45.83134526706967" lon="10.823605906998708"><ele>90.0</ele><time>2026-04-06T13:31:43Z</time></trkpt><trkpt lat="45.83146823860871" lon="10.82379073847533"><ele>90.0</ele><time>2026-04-06T13:31:44Z</time></trkpt><trkpt lat="45.83160143683818" lon="10.823958162232252"><ele>90.0</ele><time>2026-04-06T13:31:45Z</time></trkpt><trkpt lat="45.83171909031985" lon="10.824144006454084"><ele>90.0</ele><time>2026-04-06T13:31:46Z</time></trkpt><trkpt lat="45.831836339420846" lon="10.824318163847048"><ele>89.66666666666667</ele><time>2026-04-06T13:31:47Z</time></trkpt><trkpt lat="45.831950624959944" lon="10.824484804810847"><ele>89.33333333333334</ele><time>2026-04-06T13:31:48Z</time></trkpt><trkpt lat="45.83206836478846" lon="10.824635643985866"><ele>89.0</ele><time>2026-04-06T13:31:49Z</time></trkpt><trkpt lat="45.83219922403651" lon="10.82476460284656"><ele>89.0</ele><time>2026-04-06T13:31:50Z</time></trkpt><trkpt lat="45.83234177762078" lon="10.824861432563267"><ele>89.0</ele><time>2026-04-06T13:31:51Z</time></trkpt><trkpt lat="45.832492606410014" lon="10.82493839369755"><ele>89.0</ele><time>2026-04-06T13:31:52Z</time></trkpt><trkpt lat="45.83264834837187" lon="10.825034483333438"><ele>81.0</ele><time>2026-04-06T13:31:53Z</time></trkpt><trkpt lat="45.83279780014749" lon="10.825131414506053"><ele>73.0</ele><time>2026-04-06T13:31:54Z</time></trkpt><trkpt lat="45.83295388718151" lon="10.825217966588239"><ele>65.0</ele><time>2026-04-06T13:31:55Z</time></trkpt><trkpt lat="45.83311820327673" lon="10.825268210807286"><ele>65.0</ele><time>2026-04-06T13:31:56Z</time></trkpt><trkpt lat="45.83328392677974" lon="10.825319139616992"><ele>65.0</ele><time>2026-04-06T13:31:57Z</time></trkpt><trkpt lat="45.8334482282194" lon="10.825391751398818"><ele>65.0</ele><time>2026-04-06T13:31:58Z</time></trkpt><trkpt lat="45.83361374242368" lon="10.825420847726422"><ele>64.0</ele><time>2026-04-06T13:31:59Z</time></trkpt><trkpt lat="45.8337658020024" lon="10.825469308825504"><ele>63.0</ele><time>2026-04-06T13:32:00Z</time></trkpt><trkpt lat="45.833918262146504" lon="10.825496619310307"><ele>62.0</ele><time>2026-04-06T13:32:01Z</time></trkpt><trkpt lat="45.83407258980989" lon="10.825500066703288"><ele>62.0</ele><time>2026-04-06T13:32:02Z</time></trkpt><trkpt lat="45.83423543177858" lon="10.82546678912744"><ele>62.0</ele><time>2026-04-06T13:32:03Z</time></trkpt><trkpt lat="45.83440499588976" lon="10.825446518688148"><ele>62.0</ele><time>2026-04-06T13:32:04Z</time></trkpt><trkpt lat="45.834583979083206" lon="10.825447836740311"><ele>62.0</ele><time>2026-04-06T13:32:05Z</time></trkpt><trkpt lat="45.834762749513004" lon="10.825424331989284"><ele>62.0</ele><time>2026-04-06T13:32:06Z</time></trkpt><trkpt lat="45.83493737820049" lon="10.825391729871058"><ele>62.0</ele><time>2026-04-06T13:32:07Z</time></trkpt><trkpt lat="45.83509267285139" lon="10.825356322664517"><ele>62.0</ele><time>2026-04-06T13:32:08Z</time></trkpt><trkpt lat="45.835260305609815" lon="10.825318102399946"><ele>62.0</ele><time>2026-04-06T13:32:09Z</time></trkpt><trkpt lat="45.835432441817474" lon="10.825278855434824"><ele>62.0</ele><time>2026-04-06T13:32:10Z</time></trkpt><trkpt lat="45.83560256132494" lon="10.825247843372159"><ele>62.0</ele><time>2026-04-06T13:32:11Z</time></trkpt><trkpt lat="45.83575424739415" lon="10.825227630525394"><ele>62.0</ele><time>2026-04-06T13:32:12Z</time></trkpt><trkpt lat="45.83588382639224" lon="10.825212486856406"><ele>62.0</ele><time>2026-04-06T13:32:13Z</time></trkpt><trkpt lat="45.83608835072005" lon="10.825209467047362"><ele>62.0</ele><time>2026-04-06T13:32:14Z</time></trkpt><trkpt lat="45.83625087818437" lon="10.825226657805162"><ele>62.0</ele><time>2026-04-06T13:32:15Z</time></trkpt><trkpt lat="45.83641296209452" lon="10.825257429855803"><ele>62.0</ele><time>2026-04-06T13:32:16Z</time></trkpt><trkpt lat="45.83656739934407" lon="10.82526866221313"><ele>62.0</ele><time>2026-04-06T13:32:17Z</time></trkpt><trkpt lat="45.83672776302838" lon="10.82528604089847"><ele>62.0</ele><time>2026-04-06T13:32:18Z</time></trkpt><trkpt lat="45.83688033646941" lon="10.825288508643075"><ele>62.0</ele><time>2026-04-06T13:32:19Z</time></trkpt><trkpt lat="45.837085557699304" lon="10.825464138939422"><ele>62.0</ele><time>2026-04-06T13:32:20Z</time></trkpt><trkpt lat="45.837252279843575" lon="10.82543167697539"><ele>62.0</ele><time>2026-04-06T13:32:21Z</time></trkpt><trkpt lat="45.83740376682717" lon="10.825504673561415"><ele>62.0</ele><time>2026-04-06T13:32:22Z</time></trkpt><trkpt lat="45.83757096415093" lon="10.825580898444525"><ele>62.0</ele><time>2026-04-06T13:32:23Z</time></trkpt><trkpt lat="45.83775455605841" lon="10.825683682539186"><ele>62.0</ele><time>2026-04-06T13:32:24Z</time></trkpt><trkpt lat="45.83790237784988" lon="10.825812206020762"><ele>62.0</ele><time>2026-04-06T13:32:25Z</time></trkpt><trkpt lat="45.838016168106144" lon="10.825814818265503"><ele>62.0</ele><time>2026-04-06T13:32:26Z</time></trkpt><trkpt lat="45.83814906387482" lon="10.825828207861102"><ele>62.0</ele><time>2026-04-06T13:32:27Z</time></trkpt><trkpt lat="45.83830767189696" lon="10.825842326867011"><ele>62.0</ele><time>2026-04-06T13:32:28Z</time></trkpt><trkpt lat="45.838469601545015" lon="10.825861729299211"><ele>73.0</ele><time>2026-04-06T13:32:29Z</time></trkpt><trkpt lat="45.83863087563687" lon="10.82590331039152"><ele>84.0</ele><time>2026-04-06T13:32:30Z</time></trkpt><trkpt lat="45.83878794047177" lon="10.825940598324738"><ele>95.0</ele><time>2026-04-06T13:32:31Z</time></trkpt><trkpt lat="45.83894303350838" lon="10.825975448145158"><ele>84.0</ele><time>2026-04-06T13:32:32Z</time></trkpt><trkpt lat="45.839094958136876" lon="10.82602020685839"><ele>73.0</ele><time>2026-04-06T13:32:33Z</time></trkpt><trkpt lat="45.83926252886352" lon="10.826065681638605"><ele>62.0</ele><time>2026-04-06T13:32:34Z</time></trkpt><trkpt lat="45.83945897553865" lon="10.826127446867705"><ele>62.0</ele><time>2026-04-06T13:32:35Z</time></trkpt><trkpt lat="45.83961365986523" lon="10.826094727002404"><ele>62.0</ele><time>2026-04-06T13:32:36Z</time></trkpt><trkpt lat="45.8397695685766" lon="10.826044628886464"><ele>62.0</ele><time>2026-04-06T13:32:37Z</time></trkpt><trkpt lat="45.83993286973541" lon="10.826024872887814"><ele>62.0</ele><time>2026-04-06T13:32:38Z</time></trkpt><trkpt lat="45.84010279622029" lon="10.825994291422154"><ele>62.0</ele><time>2026-04-06T13:32:39Z</time></trkpt><trkpt lat="45.840269947136164" lon="10.825942026997621"><ele>62.0</ele><time>2026-04-06T13:32:40Z</time></trkpt><trkpt lat="45.840435706171576" lon="10.825878755402146"><ele>69.0</ele><time>2026-04-06T13:32:41Z</time></trkpt><trkpt lat="45.84060503252503" lon="10.825808170775048"><ele>76.0</ele><time>2026-04-06T13:32:42Z</time></trkpt><trkpt lat="45.84077842201657" lon="10.82579124844439"><ele>83.0</ele><time>2026-04-06T13:32:43Z</time></trkpt><trkpt lat="45.840948829152396" lon="10.825782013247204"><ele>86.0</ele><time>2026-04-06T13:32:44Z</time></trkpt><trkpt lat="45.84111748087237" lon="10.825797473165167"><ele>89.0</ele><time>2026-04-06T13:32:45Z</time></trkpt><trkpt lat="45.84130862172044" lon="10.825803485244512"><ele>92.0</ele><time>2026-04-06T13:32:46Z</time></trkpt><trkpt lat="45.84148791163112" lon="10.825845416850214"><ele>92.0</ele><time>2026-04-06T13:32:47Z</time></trkpt><trkpt lat="45.841655818662524" lon="10.825891619273682"><ele>92.0</ele><time>2026-04-06T13:32:48Z</time></trkpt><trkpt lat="45.84181613694928" lon="10.82596961776772"><ele>92.0</ele><time>2026-04-06T13:32:49Z</time></trkpt><trkpt lat="45.841980239174646" lon="10.826075979091295"><ele>85.33333333333334</ele><time>2026-04-06T13:32:50Z</time></trkpt><trkpt lat="45.84212121489747" lon="10.82622375846391"><ele>78.66666666666667</ele><time>2026-04-06T13:32:51Z</time></trkpt><trkpt lat="45.84227930410561" lon="10.826336772255248"><ele>72.0</ele><time>2026-04-06T13:32:52Z</time></trkpt><trkpt lat="45.84243706828378" lon="10.826390454957574"><ele>72.0</ele><time>2026-04-06T13:32:53Z</time></trkpt><trkpt lat="45.84261100938886" lon="10.826435217687369"><ele>72.0</ele><time>2026-04-06T13:32:54Z</time></trkpt><trkpt lat="45.84278451013754" lon="10.82649838473717"><ele>72.0</ele><time>2026-04-06T13:32:55Z</time></trkpt><trkpt lat="45.842937000224765" lon="10.826587146267"><ele>70.33333333333333</ele><time>2026-04-06T13:32:56Z</time></trkpt><trkpt lat="45.84309337522656" lon="10.826675432161764"><ele>68.66666666666666</ele><time>2026-04-06T13:32:57Z</time></trkpt><trkpt lat="45.84324340428203" lon="10.82673839619831"><ele>67.0</ele><time>2026-04-06T13:32:58Z</time></trkpt><trkpt lat="45.84337542429395" lon="10.826816966954883"><ele>71.5</ele><time>2026-04-06T13:32:59Z</time></trkpt><trkpt lat="45.84349751188373" lon="10.826891749825277"><ele>76.0</ele><time>2026-04-06T13:33:00Z</time></trkpt><trkpt lat="45.843601876543964" lon="10.826993071664141"><ele>80.5</ele><time>2026-04-06T13:33:01Z</time></trkpt><trkpt lat="45.843712352394014" lon="10.827067166704326"><ele>85.0</ele><time>2026-04-06T13:33:02Z</time></trkpt><trkpt lat="45.84380507152643" lon="10.827192510165059"><ele>85.0</ele><time>2026-04-06T13:33:03Z</time></trkpt><trkpt lat="45.843903432622824" lon="10.827308214399592"><ele>85.0</ele><time>2026-04-06T13:33:04Z</time></trkpt><trkpt lat="45.84399140343795" lon="10.82743460517413"><ele>85.0</ele><time>2026-04-06T13:33:05Z</time></trkpt><trkpt lat="45.84407390022136" lon="10.827562142586517"><ele>85.0</ele><time>2026-04-06T13:33:06Z</time></trkpt><trkpt lat="45.84414964588818" lon="10.8276809052206"><ele>84.8</ele><time>2026-04-06T13:33:07Z</time></trkpt><trkpt lat="45.84421306078888" lon="10.827780006922989"><ele>84.6</ele><time>2026-04-06T13:33:08Z</time></trkpt><trkpt lat="45.844267594380135" lon="10.827862122130174"><ele>84.4</ele><time>2026-04-06T13:33:09Z</time></trkpt><trkpt lat="45.8443391135098" lon="10.827936812586639"><ele>84.2</ele><time>2026-04-06T13:33:10Z</time></trkpt><trkpt lat="45.84439665038315" lon="10.828046870760433"><ele>84.0</ele><time>2026-04-06T13:33:11Z</time></trkpt><trkpt lat="45.84448526921912" lon="10.828154045274502"><ele>84.0</ele><time>2026-04-06T13:33:12Z</time></trkpt><trkpt lat="45.84459680729088" lon="10.828268951234719"><ele>84.0</ele><time>2026-04-06T13:33:13Z</time></trkpt><trkpt lat="45.84472187453547" lon="10.828380849543926"><ele>84.0</ele><time>2026-04-06T13:33:14Z</time></trkpt><trkpt lat="45.84484147317172" lon="10.82848229491852"><ele>84.0</ele><time>2026-04-06T13:33:15Z</time></trkpt><trkpt lat="45.8449464555034" lon="10.82857012225886"><ele>81.2</ele><time>2026-04-06T13:33:16Z</time></trkpt><trkpt lat="45.84505006498974" lon="10.828657817271639"><ele>78.4</ele><time>2026-04-06T13:33:17Z</time></trkpt><trkpt lat="45.845146032460455" lon="10.8287412298017"><ele>75.6</ele><time>2026-04-06T13:33:18Z</time></trkpt><trkpt lat="45.84523347987898" lon="10.828824236922664"><ele>72.8</ele><time>2026-04-06T13:33:19Z</time></trkpt><trkpt lat="45.84530886165963" lon="10.82891382521837"><ele>70.0</ele><time>2026-04-06T13:33:20Z</time></trkpt><trkpt lat="45.84538408889143" lon="10.829016349672614"><ele>71.75</ele><time>2026-04-06T13:33:21Z</time></trkpt><trkpt lat="45.84545302391675" lon="10.82913340015193"><ele>73.5</ele><time>2026-04-06T13:33:22Z</time></trkpt><trkpt lat="45.84552588778609" lon="10.829265343607567"><ele>75.25</ele><time>2026-04-06T13:33:23Z</time></trkpt><trkpt lat="45.845602860841964" lon="10.82940644464068"><ele>77.0</ele><time>2026-04-06T13:33:24Z</time></trkpt><trkpt lat="45.84568157392536" lon="10.829548828417682"><ele>77.0</ele><time>2026-04-06T13:33:25Z</time></trkpt><trkpt lat="45.84576111741531" lon="10.829690620615803"><ele>77.0</ele><time>2026-04-06T13:33:26Z</time></trkpt><trkpt lat="45.84584408136746" lon="10.829833096482059"><ele>77.0</ele><time>2026-04-06T13:33:27Z</time></trkpt><trkpt lat="45.84593636785523" lon="10.829956183839693"><ele>77.0</ele><time>2026-04-06T13:33:28Z</time></trkpt><trkpt lat="45.84603519937945" lon="10.830057551648828"><ele>74.0</ele><time>2026-04-06T13:33:29Z</time></trkpt><trkpt lat="45.84613972418036" lon="10.830128111132106"><ele>71.0</ele><time>2026-04-06T13:33:30Z</time></trkpt><trkpt lat="45.84626531740385" lon="10.830188039467405"><ele>68.0</ele><time>2026-04-06T13:33:31Z</time></trkpt><trkpt lat="45.84637496813123" lon="10.830228037858294"><ele>65.0</ele><time>2026-04-06T13:33:32Z</time></trkpt><trkpt lat="45.8464845595407" lon="10.830258343122516"><ele>65.0</ele><time>2026-04-06T13:33:33Z</time></trkpt><trkpt lat="45.84659035148065" lon="10.830301157093565"><ele>65.0</ele><time>2026-04-06T13:33:34Z</time></trkpt><trkpt lat="45.84670526245117" lon="10.830338045170349"><ele>65.0</ele><time>2026-04-06T13:33:35Z</time></trkpt><trkpt lat="45.8468142871485" lon="10.830373221745365"><ele>65.0</ele><time>2026-04-06T13:33:36Z</time></trkpt><trkpt lat="45.846925557610625" lon="10.830407028653676"><ele>65.25</ele><time>2026-04-06T13:33:37Z</time></trkpt><trkpt lat="45.84703924141257" lon="10.830437444019124"><ele>65.5</ele><time>2026-04-06T13:33:38Z</time></trkpt><trkpt lat="45.84715598625528" lon="10.830457752323909"><ele>65.75</ele><time>2026-04-06T13:33:39Z</time></trkpt><trkpt lat="45.84727257568429" lon="10.830475031339947"><ele>66.0</ele><time>2026-04-06T13:33:40Z</time></trkpt><trkpt lat="45.84740701763367" lon="10.830482879884874"><ele>66.0</ele><time>2026-04-06T13:33:41Z</time></trkpt><trkpt lat="45.84755173381383" lon="10.830506834229759"><ele>66.0</ele><time>2026-04-06T13:33:42Z</time></trkpt><trkpt lat="45.84771776198388" lon="10.830531223721"><ele>66.0</ele><time>2026-04-06T13:33:43Z</time></trkpt><trkpt lat="45.84787662929383" lon="10.830548766555097"><ele>68.66666666666667</ele><time>2026-04-06T13:33:44Z</time></trkpt><trkpt lat="45.84803219735263" lon="10.83055755047241"><ele>71.33333333333334</ele><time>2026-04-06T13:33:45Z</time></trkpt><trkpt lat="45.84818819575127" lon="10.830593658260103"><ele>74.0</ele><time>2026-04-06T13:33:46Z</time></trkpt><trkpt lat="45.848349748621935" lon="10.83065842385533"><ele>81.66666666666667</ele><time>2026-04-06T13:33:47Z</time></trkpt><trkpt lat="45.84848759447104" lon="10.830748540620647"><ele>89.33333333333334</ele><time>2026-04-06T13:33:48Z</time></trkpt><trkpt lat="45.84864275869398" lon="10.830804946682315"><ele>97.0</ele><time>2026-04-06T13:33:49Z</time></trkpt><trkpt lat="45.848799537522815" lon="10.830871706386409"><ele>97.0</ele><time>2026-04-06T13:33:50Z</time></trkpt><trkpt lat="45.84895755535486" lon="10.830950607316945"><ele>97.0</ele><time>2026-04-06T13:33:51Z</time></trkpt><trkpt lat="45.84912046389184" lon="10.831027873721727"><ele>97.0</ele><time>2026-04-06T13:33:52Z</time></trkpt><trkpt lat="45.849277656235344" lon="10.831095671836794"><ele>89.33333333333334</ele><time>2026-04-06T13:33:53Z</time></trkpt><trkpt lat="45.84943777785123" lon="10.831177314410075"><ele>81.66666666666667</ele><time>2026-04-06T13:33:54Z</time></trkpt><trkpt lat="45.849589328938066" lon="10.831284344941013"><ele>74.0</ele><time>2026-04-06T13:33:55Z</time></trkpt><trkpt lat="45.849742607428546" lon="10.83140626965472"><ele>74.0</ele><time>2026-04-06T13:33:56Z</time></trkpt><trkpt lat="45.84989123525026" lon="10.831526852943846"><ele>74.0</ele><time>2026-04-06T13:33:57Z</time></trkpt><trkpt lat="45.850041790718514" lon="10.831640564478677"><ele>74.0</ele><time>2026-04-06T13:33:58Z</time></trkpt><trkpt lat="45.850192069074815" lon="10.831746080447068"><ele>74.66666666666667</ele><time>2026-04-06T13:33:59Z</time></trkpt><trkpt lat="45.85035448014871" lon="10.831807789755185"><ele>75.33333333333333</ele><time>2026-04-06T13:34:00Z</time></trkpt><trkpt lat="45.85051443387466" lon="10.83186971209797"><ele>76.0</ele><time>2026-04-06T13:34:01Z</time></trkpt><trkpt lat="45.85067879553616" lon="10.831919153272395"><ele>76.0</ele><time>2026-04-06T13:34:02Z</time></trkpt><trkpt lat="45.850840898198484" lon="10.83194402975996"><ele>76.0</ele><time>2026-04-06T13:34:03Z</time></trkpt><trkpt lat="45.85100629080433" lon="10.83200023429541"><ele>76.0</ele><time>2026-04-06T13:34:04Z</time></trkpt><trkpt lat="45.85116236993073" lon="10.832052419450624"><ele>77.66666666666666</ele><time>2026-04-06T13:34:05Z</time></trkpt><trkpt lat="45.85132479358555" lon="10.832121206922396"><ele>79.33333333333333</ele><time>2026-04-06T13:34:06Z</time></trkpt><trkpt lat="45.85147736293877" lon="10.8321698464943"><ele>81.0</ele><time>2026-04-06T13:34:07Z</time></trkpt><trkpt lat="45.85163227947811" lon="10.832222875871468"><ele>81.0</ele><time>2026-04-06T13:34:08Z</time></trkpt><trkpt lat="45.85177831323263" lon="10.83229663498032"><ele>81.0</ele><time>2026-04-06T13:34:09Z</time></trkpt><trkpt lat="45.85192016067508" lon="10.832355133374696"><ele>81.0</ele><time>2026-04-06T13:34:10Z</time></trkpt><trkpt lat="45.852070034717634" lon="10.832427135483243"><ele>87.66666666666666</ele><time>2026-04-06T13:34:11Z</time></trkpt><trkpt lat="45.852219222198464" lon="10.832530415003465"><ele>94.33333333333333</ele><time>2026-04-06T13:34:12Z</time></trkpt><trkpt lat="45.85237241820183" lon="10.83256269867988"><ele>101.0</ele><time>2026-04-06T13:34:13Z</time></trkpt><trkpt lat="45.852527353119164" lon="10.832633695494566"><ele>92.66666666666666</ele><time>2026-04-06T13:34:14Z</time></trkpt><trkpt lat="45.85269206628844" lon="10.832734046887401"><ele>84.33333333333333</ele><time>2026-04-06T13:34:15Z</time></trkpt><trkpt lat="45.852896867358176" lon="10.8328568151877"><ele>76.0</ele><time>2026-04-06T13:34:16Z</time></trkpt><trkpt lat="45.853066351127836" lon="10.832964032914187"><ele>76.0</ele><time>2026-04-06T13:34:17Z</time></trkpt><trkpt lat="45.85321884614593" lon="10.833061118569937"><ele>76.0</ele><time>2026-04-06T13:34:18Z</time></trkpt><trkpt lat="45.85336543870186" lon="10.833196588664935"><ele>76.0</ele><time>2026-04-06T13:34:19Z</time></trkpt><trkpt lat="45.85353318771534" lon="10.833305011949179"><ele>79.0</ele><time>2026-04-06T13:34:20Z</time></trkpt><trkpt lat="45.85369430205932" lon="10.83340553631825"><ele>82.0</ele><time>2026-04-06T13:34:21Z</time></trkpt><trkpt lat="45.85385945701003" lon="10.833528775806673"><ele>85.0</ele><time>2026-04-06T13:34:22Z</time></trkpt><trkpt lat="45.85401424531442" lon="10.83364318676846"><ele>85.0</ele><time>2026-04-06T13:34:23Z</time></trkpt><trkpt lat="45.85416306592285" lon="10.833750820221484"><ele>85.0</ele><time>2026-04-06T13:34:24Z</time></trkpt><trkpt lat="45.85431410690853" lon="10.833861564230954"><ele>85.0</ele><time>2026-04-06T13:34:25Z</time></trkpt><trkpt lat="45.854469591634995" lon="10.833967506250223"><ele>84.33333333333333</ele><time>2026-04-06T13:34:26Z</time></trkpt><trkpt lat="45.85463123891148" lon="10.834055195736092"><ele>83.66666666666667</ele><time>2026-04-06T13:34:27Z</time></trkpt><trkpt lat="45.85479833795784" lon="10.834114494191448"><ele>83.0</ele><time>2026-04-06T13:34:28Z</time></trkpt><trkpt lat="45.85496738651327" lon="10.834135494386908"><ele>79.0</ele><time>2026-04-06T13:34:29Z</time></trkpt><trkpt lat="45.855135832752374" lon="10.834148177879882"><ele>75.0</ele><time>2026-04-06T13:34:30Z</time></trkpt><trkpt lat="45.85530422126259" lon="10.834139377752402"><ele>71.0</ele><time>2026-04-06T13:34:31Z</time></trkpt><trkpt lat="45.855466783067406" lon="10.834121022240605"><ele>71.0</ele><time>2026-04-06T13:34:32Z</time></trkpt><trkpt lat="45.855629844472496" lon="10.83407929983604"><ele>71.0</ele><time>2026-04-06T13:34:33Z</time></trkpt><trkpt lat="45.855786719629634" lon="10.834028828965291"><ele>71.0</ele><time>2026-04-06T13:34:34Z</time></trkpt><trkpt lat="45.855944429588455" lon="10.833946036725566"><ele>68.0</ele><time>2026-04-06T13:34:35Z</time></trkpt><trkpt lat="45.85609372265386" lon="10.833848789040951"><ele>65.0</ele><time>2026-04-06T13:34:36Z</time></trkpt><trkpt lat="45.856237656496695" lon="10.833724750642421"><ele>62.0</ele><time>2026-04-06T13:34:37Z</time></trkpt><trkpt lat="45.85638523819203" lon="10.833621790591703"><ele>62.0</ele><time>2026-04-06T13:34:38Z</time></trkpt><trkpt lat="45.85653734145118" lon="10.83353244654139"><ele>62.0</ele><time>2026-04-06T13:34:39Z</time></trkpt><trkpt lat="45.85667911086946" lon="10.833409295384639"><ele>62.0</ele><time>2026-04-06T13:34:40Z</time></trkpt><trkpt lat="45.856840463995205" lon="10.833219961343145"><ele>62.0</ele><time>2026-04-06T13:34:41Z</time></trkpt><trkpt lat="45.85700344928086" lon="10.83316770160731"><ele>62.0</ele><time>2026-04-06T13:34:42Z</time></trkpt><trkpt lat="45.857174257969696" lon="10.83310986974399"><ele>62.0</ele><time>2026-04-06T13:34:43.073Z</time></trkpt><trkpt lat="45.85732602354015" lon="10.833074028607783"><ele>62.0</ele><time>2026-04-06T13:34:44.05Z</time></trkpt><trkpt lat="45.85749160284604" lon="10.833041117726898"><ele>62.0</ele><time>2026-04-06T13:34:45.048Z</time></trkpt><trkpt lat="45.85761253455761" lon="10.833010911450236"><ele>62.0</ele><time>2026-04-06T13:34:46Z</time></trkpt><trkpt lat="45.85775141126053" lon="10.832996743705401"><ele>62.0</ele><time>2026-04-06T13:34:47Z</time></trkpt><trkpt lat="45.857962359853154" lon="10.832975291543526"><ele>62.0</ele><time>2026-04-06T13:34:48Z</time></trkpt><trkpt lat="45.85812492375626" lon="10.832940525082716"><ele>62.0</ele><time>2026-04-06T13:34:49Z</time></trkpt><trkpt lat="45.85828404537516" lon="10.832892361209167"><ele>62.0</ele><time>2026-04-06T13:34:50Z</time></trkpt><trkpt lat="45.858450513359536" lon="10.832807721722844"><ele>62.0</ele><time>2026-04-06T13:34:51Z</time></trkpt><trkpt lat="45.85860739948185" lon="10.832722983246505"><ele>62.0</ele><time>2026-04-06T13:34:52Z</time></trkpt><trkpt lat="45.85873568829134" lon="10.832632550627158"><ele>62.0</ele><time>2026-04-06T13:34:53Z</time></trkpt><trkpt lat="45.858874089386234" lon="10.832558336797206"><ele>62.0</ele><time>2026-04-06T13:34:54Z</time></trkpt><trkpt lat="45.85902273158662" lon="10.832571959514299"><ele>62.0</ele><time>2026-04-06T13:34:55Z</time></trkpt><trkpt lat="45.859169864357966" lon="10.832612767474146"><ele>62.0</ele><time>2026-04-06T13:34:56Z</time></trkpt><trkpt lat="45.85932509805543" lon="10.8326875854758"><ele>62.0</ele><time>2026-04-06T13:34:57Z</time></trkpt><trkpt lat="45.85947945349994" lon="10.832738182984457"><ele>62.0</ele><time>2026-04-06T13:34:58Z</time></trkpt><trkpt lat="45.85963638017582" lon="10.8327517433251"><ele>62.0</ele><time>2026-04-06T13:34:59Z</time></trkpt><trkpt lat="45.85979341431726" lon="10.832739086565478"><ele>62.0</ele><time>2026-04-06T13:35:00Z</time></trkpt><trkpt lat="45.859957173126766" lon="10.832712412508208"><ele>62.0</ele><time>2026-04-06T13:35:01Z</time></trkpt><trkpt lat="45.860139164725815" lon="10.832666349365287"><ele>62.0</ele><time>2026-04-06T13:35:02Z</time></trkpt><trkpt lat="45.860260777860034" lon="10.832623636859994"><ele>62.0</ele><time>2026-04-06T13:35:03Z</time></trkpt><trkpt lat="45.86040594325066" lon="10.832596830883343"><ele>62.0</ele><time>2026-04-06T13:35:04Z</time></trkpt><trkpt lat="45.86055323679497" lon="10.832569093179378"><ele>62.0</ele><time>2026-04-06T13:35:05Z</time></trkpt><trkpt lat="45.86069077094412" lon="10.832543193305868"><ele>62.0</ele><time>2026-04-06T13:35:06Z</time></trkpt><trkpt lat="45.86080858687077" lon="10.832521076715024"><ele>62.0</ele><time>2026-04-06T13:35:07Z</time></trkpt><trkpt lat="45.86094325592842" lon="10.832514235296715"><ele>62.0</ele><time>2026-04-06T13:35:08Z</time></trkpt><trkpt lat="45.86108866419342" lon="10.832565728159206"><ele>62.0</ele><time>2026-04-06T13:35:09Z</time></trkpt><trkpt lat="45.86125625884945" lon="10.832660101086802"><ele>62.0</ele><time>2026-04-06T13:35:10Z</time></trkpt><trkpt lat="45.861388789044675" lon="10.832730613923143"><ele>62.0</ele><time>2026-04-06T13:35:11Z</time></trkpt><trkpt lat="45.861541382499254" lon="10.832803577109223"><ele>62.0</ele><time>2026-04-06T13:35:12Z</time></trkpt><trkpt lat="45.86167830678576" lon="10.832845926856704"><ele>62.0</ele><time>2026-04-06T13:35:13Z</time></trkpt><trkpt lat="45.8618148729297" lon="10.832883005948057"><ele>62.0</ele><time>2026-04-06T13:35:14Z</time></trkpt><trkpt lat="45.86195240499871" lon="10.832917250196541"><ele>62.0</ele><time>2026-04-06T13:35:15Z</time></trkpt><trkpt lat="45.86208250745394" lon="10.832977178329278"><ele>62.0</ele><time>2026-04-06T13:35:16Z</time></trkpt><trkpt lat="45.862230271888826" lon="10.833038675633095"><ele>62.0</ele><time>2026-04-06T13:35:17Z</time></trkpt><trkpt lat="45.862371703912764" lon="10.833089627874957"><ele>62.0</ele><time>2026-04-06T13:35:18Z</time></trkpt><trkpt lat="45.86251163508742" lon="10.833170850589125"><ele>62.0</ele><time>2026-04-06T13:35:19.073Z</time></trkpt><trkpt lat="45.86264227008822" lon="10.833244936199236"><ele>62.0</ele><time>2026-04-06T13:35:20.058Z</time></trkpt><trkpt lat="45.862770375239236" lon="10.83332919230351"><ele>62.0</ele><time>2026-04-06T13:35:21.057Z</time></trkpt><trkpt lat="45.86289608195798" lon="10.833414901602668"><ele>62.0</ele><time>2026-04-06T13:35:22.055Z</time></trkpt><trkpt lat="45.86482956068716" lon="10.834280065372408"><ele>62.0</ele><time>2026-04-06T13:35:25.608Z</time></trkpt><trkpt lat="45.86544740163501" lon="10.834452822030784"><ele>62.0</ele><time>2026-04-06T13:35:26.609Z</time></trkpt><trkpt lat="45.86607127911313" lon="10.834558995952687"><ele>62.0</ele><time>2026-04-06T13:35:27.606Z</time></trkpt><trkpt lat="45.86669706962885" lon="10.83466326620605"><ele>62.0</ele><time>2026-04-06T13:35:28.607Z</time></trkpt><trkpt lat="45.8670627" lon="10.8347045"><ele>62.0</ele><time>2026-04-06T13:35:29.609Z</time></trkpt><trkpt lat="45.87014830502903" lon="10.835332037487593"><ele>62.0</ele><time>2026-04-06T13:36:26Z</time></trkpt><trkpt lat="45.87028802931907" lon="10.835271935396028"><ele>62.0</ele><time>2026-04-06T13:36:27Z</time></trkpt><trkpt lat="45.87038324790734" lon="10.835364426831243"><ele>62.0</ele><time>2026-04-06T13:36:28Z</time></trkpt><trkpt lat="45.87053731896351" lon="10.835434451161618"><ele>62.0</ele><time>2026-04-06T13:36:30Z</time></trkpt><trkpt lat="45.87071614895421" lon="10.8354811737486"><ele>62.0</ele><time>2026-04-06T13:36:31Z</time></trkpt><trkpt lat="45.87083023442337" lon="10.835546219049727"><ele>62.0</ele><time>2026-04-06T13:36:32Z</time></trkpt><trkpt lat="45.870992496569905" lon="10.835682623102471"><ele>62.0</ele><time>2026-04-06T13:36:33Z</time></trkpt><trkpt lat="45.87112040927298" lon="10.835770201557287"><ele>62.0</ele><time>2026-04-06T13:36:34Z</time></trkpt><trkpt lat="45.871255172715244" lon="10.835789315546782"><ele>62.0</ele><time>2026-04-06T13:36:35Z</time></trkpt><trkpt lat="45.87139293632468" lon="10.835809721995536"><ele>62.0</ele><time>2026-04-06T13:36:36.07Z</time></trkpt><trkpt lat="45.87151757982618" lon="10.835818270351016"><ele>62.0</ele><time>2026-04-06T13:36:37.066Z</time></trkpt><trkpt lat="45.87164114086567" lon="10.835823525679146"><ele>62.0</ele><time>2026-04-06T13:36:38.052Z</time></trkpt><trkpt lat="45.87187796342489" lon="10.835828852628296"><ele>62.0</ele><time>2026-04-06T13:36:40.043Z</time></trkpt><trkpt lat="45.872004521574816" lon="10.835831574406484"><ele>62.0</ele><time>2026-04-06T13:36:41.039Z</time></trkpt><trkpt lat="45.872129585956905" lon="10.835834275599556"><ele>62.0</ele><time>2026-04-06T13:36:42.032Z</time></trkpt><trkpt lat="45.87225525950875" lon="10.835836978330663"><ele>62.0</ele><time>2026-04-06T13:36:43.026Z</time></trkpt><trkpt lat="45.87422030256441" lon="10.83584972480035"><ele>62.0</ele><time>2026-04-06T13:36:46.605Z</time></trkpt><trkpt lat="45.8747122" lon="10.8359746"><ele>67.0</ele><time>2026-04-06T13:36:47.609Z</time></trkpt><trkpt lat="45.87970168147303" lon="10.837699996925162"><ele>67.0</ele><time>2026-04-06T13:37:25Z</time></trkpt><trkpt lat="45.87982709158686" lon="10.837725900050383"><ele>67.0</ele><time>2026-04-06T13:37:26Z</time></trkpt><trkpt lat="45.88004623522023" lon="10.837833305784876"><ele>67.0</ele><time>2026-04-06T13:37:27Z</time></trkpt><trkpt lat="45.88017188457809" lon="10.837873172346976"><ele>67.5</ele><time>2026-04-06T13:37:28Z</time></trkpt><trkpt lat="45.88029805107728" lon="10.837908217342976"><ele>68.0</ele><time>2026-04-06T13:37:29Z</time></trkpt><trkpt lat="45.88042123442326" lon="10.8379311852423"><ele>68.5</ele><time>2026-04-06T13:37:30Z</time></trkpt><trkpt lat="45.880543322125675" lon="10.837962846604825"><ele>69.0</ele><time>2026-04-06T13:37:31.001Z</time></trkpt><trkpt lat="45.88066969553739" lon="10.837986719703727"><ele>69.0</ele><time>2026-04-06T13:37:32.001Z</time></trkpt><trkpt lat="45.8807906054044" lon="10.838008969868698"><ele>69.0</ele><time>2026-04-06T13:37:33.001Z</time></trkpt><trkpt lat="45.880922779155334" lon="10.83803152665396"><ele>69.0</ele><time>2026-04-06T13:37:34.001Z</time></trkpt><trkpt lat="45.88104178216479" lon="10.838041026061335"><ele>69.0</ele><time>2026-04-06T13:37:35.001Z</time></trkpt><trkpt lat="45.88116796364172" lon="10.838058135863088"><ele>71.25</ele><time>2026-04-06T13:37:36.001Z</time></trkpt><trkpt lat="45.88129264632648" lon="10.8380788010881"><ele>73.5</ele><time>2026-04-06T13:37:37.001Z</time></trkpt><trkpt lat="45.8814124943415" lon="10.838095542204721"><ele>75.75</ele><time>2026-04-06T13:37:38.001Z</time></trkpt><trkpt lat="45.881531630632644" lon="10.838114986537606"><ele>78.0</ele><time>2026-04-06T13:37:39.001Z</time></trkpt><trkpt lat="45.88164802234746" lon="10.838130430755347"><ele>78.0</ele><time>2026-04-06T13:37:40.001Z</time></trkpt><trkpt lat="45.88176255040485" lon="10.838138298594707"><ele>78.0</ele><time>2026-04-06T13:37:41.001Z</time></trkpt><trkpt lat="45.88187096632989" lon="10.838149650284745"><ele>78.0</ele><time>2026-04-06T13:37:42.001Z</time></trkpt><trkpt lat="45.881962722521884" lon="10.838161661242978"><ele>78.0</ele><time>2026-04-06T13:37:43.001Z</time></trkpt><trkpt lat="45.88204914249653" lon="10.838164339795114"><ele>78.0</ele><time>2026-04-06T13:37:44.001Z</time></trkpt><trkpt lat="45.88212668950788" lon="10.83817346038295"><ele>77.5</ele><time>2026-04-06T13:37:45.001Z</time></trkpt><trkpt lat="45.882192683908904" lon="10.838197490593863"><ele>77.0</ele><time>2026-04-06T13:37:46.001Z</time></trkpt><trkpt lat="45.88228184611402" lon="10.83820222535024"><ele>76.5</ele><time>2026-04-06T13:37:48.001Z</time></trkpt><trkpt lat="45.88239381950963" lon="10.838251040345098"><ele>76.0</ele><time>2026-04-06T13:37:50.001Z</time></trkpt><trkpt lat="45.88247505254203" lon="10.838252691825362"><ele>75.5</ele><time>2026-04-06T13:37:51.001Z</time></trkpt><trkpt lat="45.88254291272159" lon="10.83828142118094"><ele>75.0</ele><time>2026-04-06T13:37:52.001Z</time></trkpt><trkpt lat="45.88261451254436" lon="10.83830148688152"><ele>75.0</ele><time>2026-04-06T13:37:53.001Z</time></trkpt><trkpt lat="45.88268927186293" lon="10.838324549916708"><ele>75.0</ele><time>2026-04-06T13:37:54.001Z</time></trkpt><trkpt lat="45.882754731100334" lon="10.838349109322952"><ele>75.0</ele><time>2026-04-06T13:37:55.001Z</time></trkpt><trkpt lat="45.882833681663705" lon="10.838375906230542"><ele>75.0</ele><time>2026-04-06T13:37:57.001Z</time></trkpt><trkpt lat="45.88295321187675" lon="10.838427911332424"><ele>75.0</ele><time>2026-04-06T13:37:59.001Z</time></trkpt><trkpt lat="45.88303366408876" lon="10.838457167594843"><ele>75.0</ele><time>2026-04-06T13:38:00.001Z</time></trkpt><trkpt lat="45.88311782950905" lon="10.838488009393547"><ele>74.0</ele><time>2026-04-06T13:38:01.001Z</time></trkpt><trkpt lat="45.88320641120622" lon="10.83850010343163"><ele>73.0</ele><time>2026-04-06T13:38:02.001Z</time></trkpt><trkpt lat="45.883293704726015" lon="10.838534577822259"><ele>72.0</ele><time>2026-04-06T13:38:03.001Z</time></trkpt><trkpt lat="45.88337291638352" lon="10.838565678791594"><ele>71.0</ele><time>2026-04-06T13:38:04.001Z</time></trkpt><trkpt lat="45.88344933465533" lon="10.838589540508492"><ele>70.0</ele><time>2026-04-06T13:38:05.001Z</time></trkpt><trkpt lat="45.883529762446805" lon="10.838609704491624"><ele>69.0</ele><time>2026-04-06T13:38:06.001Z</time></trkpt><trkpt lat="45.88360925699446" lon="10.83862425049927"><ele>69.0</ele><time>2026-04-06T13:38:07.001Z</time></trkpt><trkpt lat="45.883687153662265" lon="10.838626228534709"><ele>69.0</ele><time>2026-04-06T13:38:08.001Z</time></trkpt><trkpt lat="45.883757636437984" lon="10.83861422570864"><ele>69.0</ele><time>2026-04-06T13:38:09.001Z</time></trkpt><trkpt lat="45.88382383340579" lon="10.838598180977517"><ele>69.0</ele><time>2026-04-06T13:38:10.001Z</time></trkpt><trkpt lat="45.88389306713338" lon="10.838571116314162"><ele>69.0</ele><time>2026-04-06T13:38:11.001Z</time></trkpt><trkpt lat="45.88396517268327" lon="10.838539867458993"><ele>69.0</ele><time>2026-04-06T13:38:12.001Z</time></trkpt><trkpt lat="45.88403695525623" lon="10.838501286743444"><ele>69.0</ele><time>2026-04-06T13:38:13.001Z</time></trkpt><trkpt lat="45.884106147589506" lon="10.838447033666014"><ele>70.4</ele><time>2026-04-06T13:38:14.001Z</time></trkpt><trkpt lat="45.8841743584061" lon="10.838385867941325"><ele>71.80000000000001</ele><time>2026-04-06T13:38:15.001Z</time></trkpt><trkpt lat="45.884248237977445" lon="10.838321511524391"><ele>73.19999999999999</ele><time>2026-04-06T13:38:16.001Z</time></trkpt><trkpt lat="45.884326815755415" lon="10.83825290568131"><ele>74.6</ele><time>2026-04-06T13:38:17.001Z</time></trkpt><trkpt lat="45.88440706394445" lon="10.838181334173372"><ele>76.0</ele><time>2026-04-06T13:38:18.001Z</time></trkpt><trkpt lat="45.88449334631782" lon="10.838113615231922"><ele>76.39999999999999</ele><time>2026-04-06T13:38:19.001Z</time></trkpt><trkpt lat="45.88458774426308" lon="10.838047257290109"><ele>76.8</ele><time>2026-04-06T13:38:20.001Z</time></trkpt><trkpt lat="45.88468840819091" lon="10.837991283620735"><ele>77.19999999999999</ele><time>2026-04-06T13:38:21.001Z</time></trkpt><trkpt lat="45.88479687082085" lon="10.837955079058768"><ele>77.6</ele><time>2026-04-06T13:38:22.001Z</time></trkpt><trkpt lat="45.88491611854945" lon="10.837938970416225"><ele>78.0</ele><time>2026-04-06T13:38:23.001Z</time></trkpt><trkpt lat="45.885032597107006" lon="10.837930806673718"><ele>79.0</ele><time>2026-04-06T13:38:24.001Z</time></trkpt><trkpt lat="45.88514559498944" lon="10.837924500271546"><ele>80.0</ele><time>2026-04-06T13:38:25.001Z</time></trkpt><trkpt lat="45.88525609155022" lon="10.837920553392129"><ele>81.0</ele><time>2026-04-06T13:38:26.001Z</time></trkpt><trkpt lat="45.88535346054812" lon="10.837915403610907"><ele>82.0</ele><time>2026-04-06T13:38:27.001Z</time></trkpt><trkpt lat="45.88543926688095" lon="10.837908038094408"><ele>83.0</ele><time>2026-04-06T13:38:28.001Z</time></trkpt><trkpt lat="45.885509187448434" lon="10.837903168530914"><ele>83.0</ele><time>2026-04-06T13:38:29.001Z</time></trkpt><trkpt lat="45.8856009697885" lon="10.837912455781352"><ele>83.0</ele><time>2026-04-06T13:38:31.001Z</time></trkpt><trkpt lat="45.88574219524077" lon="10.837904907944427"><ele>83.0</ele><time>2026-04-06T13:38:33.001Z</time></trkpt><trkpt lat="45.88582596301865" lon="10.837901131870346"><ele>83.0</ele><time>2026-04-06T13:38:34.001Z</time></trkpt><trkpt lat="45.88591011309371" lon="10.837897852419253"><ele>83.0</ele><time>2026-04-06T13:38:35.001Z</time></trkpt><trkpt lat="45.885980583747454" lon="10.83789510608102"><ele>83.60000000000001</ele><time>2026-04-06T13:38:36.001Z</time></trkpt><trkpt lat="45.88609634068463" lon="10.837890594876674"><ele>84.2</ele><time>2026-04-06T13:38:38.001Z</time></trkpt><trkpt lat="45.886162708398466" lon="10.83788800845575"><ele>84.8</ele><time>2026-04-06T13:38:40.001Z</time></trkpt><trkpt lat="45.88623082236681" lon="10.837883407151127"><ele>85.4</ele><time>2026-04-06T13:38:43.001Z</time></trkpt><trkpt lat="45.886351200826354" lon="10.837875629778354"><ele>86.0</ele><time>2026-04-06T13:38:45.001Z</time></trkpt><trkpt lat="45.88645950040145" lon="10.837868632818699"><ele>86.0</ele><time>2026-04-06T13:38:47.001Z</time></trkpt><trkpt lat="45.886541424755805" lon="10.837864337597034"><ele>86.0</ele><time>2026-04-06T13:38:49.001Z</time></trkpt><trkpt lat="45.886620558258116" lon="10.837861564587127"><ele>86.0</ele><time>2026-04-06T13:38:51.001Z</time></trkpt><trkpt lat="45.88669584813685" lon="10.83786087764174"><ele>86.0</ele><time>2026-04-06T13:38:55.001Z</time></trkpt><trkpt lat="45.886780356491386" lon="10.837867590753202"><ele>86.0</ele><time>2026-04-06T13:38:58.001Z</time></trkpt><trkpt lat="45.88685964992573" lon="10.837888393105633"><ele>86.0</ele><time>2026-04-06T13:39:00.001Z</time></trkpt><trkpt lat="45.88695014219069" lon="10.83790109079469"><ele>86.0</ele><time>2026-04-06T13:39:02.001Z</time></trkpt><trkpt lat="45.88703068988244" lon="10.837950468417153"><ele>86.0</ele><time>2026-04-06T13:39:04.001Z</time></trkpt><trkpt lat="45.88714093482406" lon="10.83801855236347"><ele>86.0</ele><time>2026-04-06T13:39:06.001Z</time></trkpt><trkpt lat="45.88720104209473" lon="10.838055902974867"><ele>86.0</ele><time>2026-04-06T13:39:07.001Z</time></trkpt><trkpt lat="45.88729859475607" lon="10.83809871306745"><ele>86.0</ele><time>2026-04-06T13:39:09.001Z</time></trkpt><trkpt lat="45.88737207511835" lon="10.838059956964097"><ele>86.0</ele><time>2026-04-06T13:39:11.001Z</time></trkpt><trkpt lat="45.887412641892666" lon="10.837916694730524"><ele>86.0</ele><time>2026-04-06T13:39:13.001Z</time></trkpt><trkpt lat="45.88746362083123" lon="10.83776380320741"><ele>86.0</ele><time>2026-04-06T13:39:15.001Z</time></trkpt><trkpt lat="45.88755218271244" lon="10.837625028875044"><ele>86.0</ele><time>2026-04-06T13:39:17.001Z</time></trkpt><trkpt lat="45.887604716925935" lon="10.837516626850732"><ele>86.0</ele><time>2026-04-06T13:39:18.001Z</time></trkpt><trkpt lat="45.88767646414623" lon="10.837386581774295"><ele>90.5</ele><time>2026-04-06T13:39:19.001Z</time></trkpt><trkpt lat="45.88775889130251" lon="10.837241803550244"><ele>95.0</ele><time>2026-04-06T13:39:20.001Z</time></trkpt><trkpt lat="45.887840724261295" lon="10.837091057753293"><ele>99.5</ele><time>2026-04-06T13:39:21.001Z</time></trkpt><trkpt lat="45.88791609592158" lon="10.836917882186297"><ele>104.0</ele><time>2026-04-06T13:39:22.001Z</time></trkpt><trkpt lat="45.88799166589865" lon="10.8367665137336"><ele>110.25</ele><time>2026-04-06T13:39:23.001Z</time></trkpt><trkpt lat="45.888053038261916" lon="10.836604629657202"><ele>116.5</ele><time>2026-04-06T13:39:24.001Z</time></trkpt><trkpt lat="45.88813158731085" lon="10.83645483682931"><ele>122.75</ele><time>2026-04-06T13:39:25.001Z</time></trkpt><trkpt lat="45.88821495360844" lon="10.83630494817868"><ele>129.0</ele><time>2026-04-06T13:39:26.001Z</time></trkpt><trkpt lat="45.88830201450445" lon="10.836169277232164"><ele>129.0</ele><time>2026-04-06T13:39:27.001Z</time></trkpt><trkpt lat="45.888394120393045" lon="10.836039241719742"><ele>129.0</ele><time>2026-04-06T13:39:28.078Z</time></trkpt><trkpt lat="45.88848431216221" lon="10.835926373246766"><ele>129.0</ele><time>2026-04-06T13:39:29.045Z</time></trkpt><trkpt lat="45.888585716857214" lon="10.83580827818657"><ele>129.0</ele><time>2026-04-06T13:39:30.038Z</time></trkpt><trkpt lat="45.88878359530963" lon="10.835626444121186"><ele>142.0</ele><time>2026-04-06T13:39:31.037Z</time></trkpt><trkpt lat="45.88935019702558" lon="10.835266489189301"><ele>142.0</ele><time>2026-04-06T13:39:35.604Z</time></trkpt><trkpt lat="45.889482675229665" lon="10.835223700081704"><ele>142.0</ele><time>2026-04-06T13:39:36.609Z</time></trkpt><trkpt lat="45.8896140954014" lon="10.835169779443651"><ele>142.0</ele><time>2026-04-06T13:39:37.608Z</time></trkpt><trkpt lat="45.88988598330951" lon="10.835143185342165"><ele>142.0</ele><time>2026-04-06T13:39:39.604Z</time></trkpt><trkpt lat="45.890023078993565" lon="10.835149044413933"><ele>142.0</ele><time>2026-04-06T13:39:40.609Z</time></trkpt><trkpt lat="45.890159075936936" lon="10.835167530878834"><ele>142.0</ele><time>2026-04-06T13:39:41.609Z</time></trkpt><trkpt lat="45.89029446301681" lon="10.835192401798695"><ele>142.0</ele><time>2026-04-06T13:39:42.609Z</time></trkpt><trkpt lat="45.89042820006572" lon="10.835231828664524"><ele>146.25</ele><time>2026-04-06T13:39:43.609Z</time></trkpt><trkpt lat="45.89055936088008" lon="10.835283704709692"><ele>150.5</ele><time>2026-04-06T13:39:44.605Z</time></trkpt><trkpt lat="45.8906888759884" lon="10.835347919435293"><ele>154.75</ele><time>2026-04-06T13:39:45.609Z</time></trkpt><trkpt lat="45.89081585221198" lon="10.835418977841975"><ele>159.0</ele><time>2026-04-06T13:39:46.607Z</time></trkpt><trkpt lat="45.89093048003869" lon="10.835526809936843"><ele>166.75</ele><time>2026-04-06T13:39:47.608Z</time></trkpt><trkpt lat="45.89105736731982" lon="10.835600329942578"><ele>174.5</ele><time>2026-04-06T13:39:48.605Z</time></trkpt><trkpt lat="45.891164844639846" lon="10.835723542859288"><ele>182.25</ele><time>2026-04-06T13:39:49.609Z</time></trkpt><trkpt lat="45.89128792197411" lon="10.835811324797287"><ele>190.0</ele><time>2026-04-06T13:39:50.609Z</time></trkpt><trkpt lat="45.891390491751736" lon="10.835942178081384"><ele>168.75</ele><time>2026-04-06T13:39:51.607Z</time></trkpt><trkpt lat="45.89151204197958" lon="10.83603386910379"><ele>147.5</ele><time>2026-04-06T13:39:52.605Z</time></trkpt><trkpt lat="45.89161478338191" lon="10.836165891852067"><ele>126.25</ele><time>2026-04-06T13:39:53.609Z</time></trkpt><trkpt lat="45.89173622710325" lon="10.836258508785443"><ele>105.0</ele><time>2026-04-06T13:39:54.609Z</time></trkpt><trkpt lat="45.891838132537636" lon="10.836389729311744"><ele>104.0</ele><time>2026-04-06T13:39:55.605Z</time></trkpt><trkpt lat="45.89195021196035" lon="10.836502053748786"><ele>103.0</ele><time>2026-04-06T13:39:56.606Z</time></trkpt><trkpt lat="45.89272425975971" lon="10.837273918639974"><ele>103.0</ele><time>2026-04-06T13:39:58.001Z</time></trkpt><trkpt lat="45.89280157626075" lon="10.837356280110189"><ele>103.0</ele><time>2026-04-06T13:39:59.001Z</time></trkpt><trkpt lat="45.89292936291625" lon="10.83747526419987"><ele>103.0</ele><time>2026-04-06T13:40:00.001Z</time></trkpt><trkpt lat="45.89406488256266" lon="10.838293378725076"><ele>102.33333333333334</ele><time>2026-04-06T13:40:08.001Z</time></trkpt><trkpt lat="45.894220350126936" lon="10.838323737984977"><ele>101.66666666666666</ele><time>2026-04-06T13:40:09.001Z</time></trkpt><trkpt lat="45.89438785962002" lon="10.838358613726795"><ele>101.0</ele><time>2026-04-06T13:40:10.001Z</time></trkpt><trkpt lat="45.89454191671735" lon="10.838390416638221"><ele>101.0</ele><time>2026-04-06T13:40:11.001Z</time></trkpt><trkpt lat="45.89471597182884" lon="10.838427056653044"><ele>101.0</ele><time>2026-04-06T13:40:12.001Z</time></trkpt><trkpt lat="45.89488500384311" lon="10.83846961902111"><ele>101.0</ele><time>2026-04-06T13:40:13.001Z</time></trkpt><trkpt lat="45.89506829975021" lon="10.83845455679146"><ele>101.66666666666666</ele><time>2026-04-06T13:40:14.001Z</time></trkpt><trkpt lat="45.895237347119384" lon="10.838445111830609"><ele>102.33333333333334</ele><time>2026-04-06T13:40:15.001Z</time></trkpt><trkpt lat="45.89540606984939" lon="10.838419173055772"><ele>103.0</ele><time>2026-04-06T13:40:16.001Z</time></trkpt><trkpt lat="45.89556114077882" lon="10.838381042014639"><ele>103.0</ele><time>2026-04-06T13:40:17.001Z</time></trkpt><trkpt lat="45.89569881481284" lon="10.838334308119789"><ele>103.0</ele><time>2026-04-06T13:40:18.001Z</time></trkpt><trkpt lat="45.895813623588595" lon="10.838284500442708"><ele>103.0</ele><time>2026-04-06T13:40:19.001Z</time></trkpt><trkpt lat="45.89591756787587" lon="10.838242246943771"><ele>103.0</ele><time>2026-04-06T13:40:20.001Z</time></trkpt><trkpt lat="45.896005488984606" lon="10.838206236941705"><ele>102.83333333333334</ele><time>2026-04-06T13:40:21.001Z</time></trkpt><trkpt lat="45.89607503077842" lon="10.838178305515243"><ele>102.66666666666667</ele><time>2026-04-06T13:40:22.001Z</time></trkpt><trkpt lat="45.89614015773967" lon="10.838159093388176"><ele>102.5</ele><time>2026-04-06T13:40:23.001Z</time></trkpt><trkpt lat="45.89624575712061" lon="10.838174052231793"><ele>102.33333333333334</ele><time>2026-04-06T13:40:25.001Z</time></trkpt><trkpt lat="45.89628377228771" lon="10.838267505330954"><ele>102.16666666666667</ele><time>2026-04-06T13:40:26.001Z</time></trkpt><trkpt lat="45.89632157268137" lon="10.838345526522025"><ele>102.0</ele><time>2026-04-06T13:40:27.001Z</time></trkpt><trkpt lat="45.896372571177274" lon="10.838418459845935"><ele>101.19999999999999</ele><time>2026-04-06T13:40:28.001Z</time></trkpt><trkpt lat="45.89642868679892" lon="10.838496129780316"><ele>100.4</ele><time>2026-04-06T13:40:29.001Z</time></trkpt><trkpt lat="45.89646844342583" lon="10.838607521391593"><ele>99.6</ele><time>2026-04-06T13:40:30.001Z</time></trkpt><trkpt lat="45.89647213265829" lon="10.838752668293823"><ele>98.80000000000001</ele><time>2026-04-06T13:40:31.001Z</time></trkpt><trkpt lat="45.896462123747604" lon="10.838913503046872"><ele>98.0</ele><time>2026-04-06T13:40:32.001Z</time></trkpt><trkpt lat="45.89644448975119" lon="10.839095669133735"><ele>98.0</ele><time>2026-04-06T13:40:33.001Z</time></trkpt><trkpt lat="45.89643173310875" lon="10.839280178871238"><ele>98.0</ele><time>2026-04-06T13:40:34.001Z</time></trkpt><trkpt lat="45.896415140613016" lon="10.839470439273894"><ele>98.0</ele><time>2026-04-06T13:40:35.001Z</time></trkpt><trkpt lat="45.89638581035629" lon="10.839664509841194"><ele>98.0</ele><time>2026-04-06T13:40:36.001Z</time></trkpt><trkpt lat="45.896341139546756" lon="10.839859967725738"><ele>97.33333333333333</ele><time>2026-04-06T13:40:37.001Z</time></trkpt><trkpt lat="45.896276607960374" lon="10.840054255612843"><ele>96.66666666666666</ele><time>2026-04-06T13:40:38.001Z</time></trkpt><trkpt lat="45.89619928791903" lon="10.840239899838485"><ele>96.0</ele><time>2026-04-06T13:40:39.001Z</time></trkpt><trkpt lat="45.89610926209548" lon="10.84041788325761"><ele>95.66666666666667</ele><time>2026-04-06T13:40:40.001Z</time></trkpt><trkpt lat="45.89600116062144" lon="10.840577497937515"><ele>95.33333333333334</ele><time>2026-04-06T13:40:41.001Z</time></trkpt><trkpt lat="45.89588847381673" lon="10.840725528232069"><ele>95.0</ele><time>2026-04-06T13:40:42.001Z</time></trkpt><trkpt lat="45.89577771278147" lon="10.840861791556376"><ele>94.25</ele><time>2026-04-06T13:40:43.001Z</time></trkpt><trkpt lat="45.89567390058193" lon="10.84099376509405"><ele>93.5</ele><time>2026-04-06T13:40:44.001Z</time></trkpt><trkpt lat="45.89557064454361" lon="10.841128308489719"><ele>92.75</ele><time>2026-04-06T13:40:45.001Z</time></trkpt><trkpt lat="45.89547137113686" lon="10.841259830189934"><ele>92.0</ele><time>2026-04-06T13:40:46.001Z</time></trkpt><trkpt lat="45.895378193972405" lon="10.841382291094117"><ele>92.0</ele><time>2026-04-06T13:40:47.001Z</time></trkpt><trkpt lat="45.895292591987676" lon="10.84149638705409"><ele>92.0</ele><time>2026-04-06T13:40:48.001Z</time></trkpt><trkpt lat="45.895218113851016" lon="10.841613050262389"><ele>92.0</ele><time>2026-04-06T13:40:49.001Z</time></trkpt><trkpt lat="45.89513747492131" lon="10.841716790665613"><ele>92.0</ele><time>2026-04-06T13:40:50.001Z</time></trkpt><trkpt lat="45.89507096752096" lon="10.841844688440812"><ele>92.0</ele><time>2026-04-06T13:40:51.001Z</time></trkpt><trkpt lat="45.89500839279778" lon="10.841982355522353"><ele>92.0</ele><time>2026-04-06T13:40:52.001Z</time></trkpt><trkpt lat="45.894952309949325" lon="10.842125393824158"><ele>92.0</ele><time>2026-04-06T13:40:53.001Z</time></trkpt><trkpt lat="45.8949021607831" lon="10.842271120527618"><ele>92.0</ele><time>2026-04-06T13:40:54.001Z</time></trkpt><trkpt lat="45.89485173101873" lon="10.842420337505105"><ele>92.0</ele><time>2026-04-06T13:40:55.001Z</time></trkpt><trkpt lat="45.8948204596785" lon="10.842568078359692"><ele>91.83333333333334</ele><time>2026-04-06T13:40:56.001Z</time></trkpt><trkpt lat="45.89477713189638" lon="10.842699286553712"><ele>91.66666666666667</ele><time>2026-04-06T13:40:57.001Z</time></trkpt><trkpt lat="45.8947380283383" lon="10.842816706468865"><ele>91.5</ele><time>2026-04-06T13:40:58.001Z</time></trkpt><trkpt lat="45.89470418755765" lon="10.842917003902485"><ele>91.33333333333333</ele><time>2026-04-06T13:40:59.001Z</time></trkpt><trkpt lat="45.894672286490156" lon="10.843001399208402"><ele>91.16666666666666</ele><time>2026-04-06T13:41:00.001Z</time></trkpt><trkpt lat="45.89460754673094" lon="10.843132815740935"><ele>91.0</ele><time>2026-04-06T13:41:02.001Z</time></trkpt><trkpt lat="45.89451085017741" lon="10.843211174588056"><ele>91.0</ele><time>2026-04-06T13:41:04.001Z</time></trkpt><trkpt lat="45.89444070655317" lon="10.843213724840437"><ele>91.0</ele><time>2026-04-06T13:41:05.001Z</time></trkpt><trkpt lat="45.89437275491663" lon="10.843202720902175"><ele>91.0</ele><time>2026-04-06T13:41:06.001Z</time></trkpt><trkpt lat="45.89429831921688" lon="10.84321037147826"><ele>91.0</ele><time>2026-04-06T13:41:07.001Z</time></trkpt><trkpt lat="45.89422418233272" lon="10.843233791972875"><ele>91.0</ele><time>2026-04-06T13:41:08.001Z</time></trkpt><trkpt lat="45.89414399829548" lon="10.843238351295021"><ele>91.0</ele><time>2026-04-06T13:41:09.001Z</time></trkpt><trkpt lat="45.894056642585326" lon="10.84321868376483"><ele>90.19999999999999</ele><time>2026-04-06T13:41:10.001Z</time></trkpt><trkpt lat="45.89396294356958" lon="10.843179051921023"><ele>89.39999999999999</ele><time>2026-04-06T13:41:11.001Z</time></trkpt><trkpt lat="45.89386380837467" lon="10.84313871586393"><ele>88.6</ele><time>2026-04-06T13:41:12.001Z</time></trkpt><trkpt lat="45.893761350885995" lon="10.843089327139662"><ele>87.8</ele><time>2026-04-06T13:41:13.001Z</time></trkpt><trkpt lat="45.89365771214352" lon="10.843026865366808"><ele>87.0</ele><time>2026-04-06T13:41:14.001Z</time></trkpt><trkpt lat="45.89355091002115" lon="10.842972694627095"><ele>87.0</ele><time>2026-04-06T13:41:15.001Z</time></trkpt><trkpt lat="45.89343656095401" lon="10.842938240580999"><ele>87.0</ele><time>2026-04-06T13:41:16.001Z</time></trkpt><trkpt lat="45.89331995953587" lon="10.842920103189032"><ele>87.0</ele><time>2026-04-06T13:41:17.001Z</time></trkpt><trkpt lat="45.89320006948253" lon="10.842917036872851"><ele>87.0</ele><time>2026-04-06T13:41:18.001Z</time></trkpt><trkpt lat="45.89307897370873" lon="10.842921539484625"><ele>86.75</ele><time>2026-04-06T13:41:19.001Z</time></trkpt><trkpt lat="45.89295456339086" lon="10.842921754548405"><ele>86.5</ele><time>2026-04-06T13:41:20Z</time></trkpt><trkpt lat="45.89282989185347" lon="10.842921159240937"><ele>86.25</ele><time>2026-04-06T13:41:21Z</time></trkpt><trkpt lat="45.89270218007557" lon="10.842922361509967"><ele>86.0</ele><time>2026-04-06T13:41:22Z</time></trkpt><trkpt lat="45.89257522856045" lon="10.842921225349324"><ele>86.5</ele><time>2026-04-06T13:41:23Z</time></trkpt><trkpt lat="45.892447199890384" lon="10.842920593954638"><ele>87.0</ele><time>2026-04-06T13:41:24Z</time></trkpt><trkpt lat="45.8923166184825" lon="10.842930886414548"><ele>87.5</ele><time>2026-04-06T13:41:25Z</time></trkpt><trkpt lat="45.892185999394684" lon="10.842938990477982"><ele>88.0</ele><time>2026-04-06T13:41:26Z</time></trkpt><trkpt lat="45.89205436409684" lon="10.84294034920793"><ele>88.0</ele><time>2026-04-06T13:41:27Z</time></trkpt><trkpt lat="45.891921780365315" lon="10.842942977685212"><ele>88.0</ele><time>2026-04-06T13:41:28Z</time></trkpt><trkpt lat="45.89178591562179" lon="10.842948214442119"><ele>88.0</ele><time>2026-04-06T13:41:29Z</time></trkpt><trkpt lat="45.8916512508951" lon="10.842952998707275"><ele>88.0</ele><time>2026-04-06T13:41:30Z</time></trkpt><trkpt lat="45.89151622735185" lon="10.842956624359793"><ele>87.25</ele><time>2026-04-06T13:41:31Z</time></trkpt><trkpt lat="45.891386217958875" lon="10.842959007201927"><ele>86.5</ele><time>2026-04-06T13:41:32Z</time></trkpt><trkpt lat="45.89125708605803" lon="10.84296509818598"><ele>85.75</ele><time>2026-04-06T13:41:33Z</time></trkpt><trkpt lat="45.8911259391664" lon="10.842973543831032"><ele>85.0</ele><time>2026-04-06T13:41:34Z</time></trkpt><trkpt lat="45.890991239263705" lon="10.842975372091844"><ele>84.25</ele><time>2026-04-06T13:41:35Z</time></trkpt><trkpt lat="45.890864331173304" lon="10.842978389822923"><ele>83.5</ele><time>2026-04-06T13:41:36Z</time></trkpt><trkpt lat="45.8907423304133" lon="10.842984032087672"><ele>82.75</ele><time>2026-04-06T13:41:37Z</time></trkpt><trkpt lat="45.8906142369382" lon="10.842982704050222"><ele>82.0</ele><time>2026-04-06T13:41:38Z</time></trkpt><trkpt lat="45.890478778715085" lon="10.842993091198998"><ele>82.0</ele><time>2026-04-06T13:41:39Z</time></trkpt><trkpt lat="45.89035299762723" lon="10.84299169756568"><ele>82.0</ele><time>2026-04-06T13:41:40Z</time></trkpt><trkpt lat="45.89022520158097" lon="10.84299813565784"><ele>82.0</ele><time>2026-04-06T13:41:41Z</time></trkpt><trkpt lat="45.890103752252855" lon="10.84299933216206"><ele>82.0</ele><time>2026-04-06T13:41:42Z</time></trkpt><trkpt lat="45.88998672582419" lon="10.843008638857507"><ele>81.6</ele><time>2026-04-06T13:41:43Z</time></trkpt><trkpt lat="45.88987514314148" lon="10.84301164143237"><ele>81.19999999999999</ele><time>2026-04-06T13:41:44Z</time></trkpt><trkpt lat="45.88977839723929" lon="10.84301814740006"><ele>80.8</ele><time>2026-04-06T13:41:45Z</time></trkpt><trkpt lat="45.88969216375783" lon="10.842998797768072"><ele>80.4</ele><time>2026-04-06T13:41:46Z</time></trkpt><trkpt lat="45.889619016602424" lon="10.8430243021398"><ele>80.0</ele><time>2026-04-06T13:41:47Z</time></trkpt><trkpt lat="45.88951412017224" lon="10.843021901006109"><ele>80.0</ele><time>2026-04-06T13:41:49Z</time></trkpt><trkpt lat="45.88943524428941" lon="10.843024893308307"><ele>80.0</ele><time>2026-04-06T13:41:51Z</time></trkpt><trkpt lat="45.88936427721357" lon="10.84300623260923"><ele>80.0</ele><time>2026-04-06T13:41:53Z</time></trkpt><trkpt lat="45.88927760335581" lon="10.84296168617643"><ele>80.0</ele><time>2026-04-06T13:41:57Z</time></trkpt><trkpt lat="45.88921311881742" lon="10.842924338593471"><ele>80.0</ele><time>2026-04-06T13:41:59Z</time></trkpt><trkpt lat="45.88913529557519" lon="10.842970842074509"><ele>80.0</ele><time>2026-04-06T13:42:03Z</time></trkpt><trkpt lat="45.88909709214539" lon="10.843093468964005"><ele>80.0</ele><time>2026-04-06T13:42:06Z</time></trkpt><trkpt lat="45.889120537779654" lon="10.84318174023984"><ele>80.0</ele><time>2026-04-06T13:42:08Z</time></trkpt><trkpt lat="45.88919836801636" lon="10.843284501656473"><ele>80.0</ele><time>2026-04-06T13:42:12Z</time></trkpt><trkpt lat="45.88926725091535" lon="10.843350894359704"><ele>80.0</ele><time>2026-04-06T13:42:14Z</time></trkpt><trkpt lat="45.88930188173622" lon="10.84346525462593"><ele>80.0</ele><time>2026-04-06T13:42:17.001Z</time></trkpt><trkpt lat="45.88928522371531" lon="10.843613438787598"><ele>80.0</ele><time>2026-04-06T13:42:19.001Z</time></trkpt><trkpt lat="45.88924639017785" lon="10.843717710350031"><ele>79.4</ele><time>2026-04-06T13:42:20.001Z</time></trkpt><trkpt lat="45.8891990087374" lon="10.843841231955341"><ele>78.8</ele><time>2026-04-06T13:42:21.001Z</time></trkpt><trkpt lat="45.889147499351864" lon="10.843966089615245"><ele>78.2</ele><time>2026-04-06T13:42:22.001Z</time></trkpt><trkpt lat="45.88909680230922" lon="10.844091494441551"><ele>77.6</ele><time>2026-04-06T13:42:23.001Z</time></trkpt><trkpt lat="45.889047322509775" lon="10.844204389471717"><ele>77.0</ele><time>2026-04-06T13:42:24.001Z</time></trkpt><trkpt lat="45.888999498746486" lon="10.844311745929998"><ele>76.8</ele><time>2026-04-06T13:42:25.001Z</time></trkpt><trkpt lat="45.88896153494166" lon="10.844409571010162"><ele>76.6</ele><time>2026-04-06T13:42:26.001Z</time></trkpt><trkpt lat="45.88893176897721" lon="10.844490831822364"><ele>76.39999999999999</ele><time>2026-04-06T13:42:27.001Z</time></trkpt><trkpt lat="45.888907943194766" lon="10.844585108594496"><ele>76.2</ele><time>2026-04-06T13:42:29.001Z</time></trkpt><trkpt lat="45.88907397173988" lon="10.844694352211896"><ele>76.0</ele><time>2026-04-06T13:42:31.001Z</time></trkpt><trkpt lat="45.88916622497646" lon="10.844714894157553"><ele>76.2</ele><time>2026-04-06T13:42:32.001Z</time></trkpt><trkpt lat="45.889262960028674" lon="10.844741300181681"><ele>76.39999999999999</ele><time>2026-04-06T13:42:33Z</time></trkpt><trkpt lat="45.889361926897706" lon="10.844781774079609"><ele>76.6</ele><time>2026-04-06T13:42:34Z</time></trkpt><trkpt lat="45.889459705059046" lon="10.84482227496648"><ele>76.8</ele><time>2026-04-06T13:42:35Z</time></trkpt><trkpt lat="45.88956278617397" lon="10.844863975320738"><ele>77.0</ele><time>2026-04-06T13:42:36Z</time></trkpt><trkpt lat="45.88966798514953" lon="10.84490226207605"><ele>77.0</ele><time>2026-04-06T13:42:37Z</time></trkpt><trkpt lat="45.88976953132848" lon="10.844948042045166"><ele>77.0</ele><time>2026-04-06T13:42:38Z</time></trkpt><trkpt lat="45.88987089192509" lon="10.844988220244183"><ele>77.0</ele><time>2026-04-06T13:42:39Z</time></trkpt><trkpt lat="45.88996230787164" lon="10.845025107820032"><ele>77.0</ele><time>2026-04-06T13:42:40Z</time></trkpt><trkpt lat="45.89003473467737" lon="10.84506440015668"><ele>77.0</ele><time>2026-04-06T13:42:41Z</time></trkpt><trkpt lat="45.890094807299604" lon="10.845095477344735"><ele>77.0</ele><time>2026-04-06T13:42:42Z</time></trkpt><trkpt lat="45.89017082901653" lon="10.845115081222355"><ele>77.5</ele><time>2026-04-06T13:42:44Z</time></trkpt><trkpt lat="45.89025023682867" lon="10.845040032401025"><ele>78.0</ele><time>2026-04-06T13:42:47Z</time></trkpt><trkpt lat="45.89028020778711" lon="10.844957416877943"><ele>78.5</ele><time>2026-04-06T13:42:48Z</time></trkpt><trkpt lat="45.8903185577213" lon="10.844854155511795"><ele>79.0</ele><time>2026-04-06T13:43:12Z</time></trkpt><trkpt lat="45.89031972619308" lon="10.844737112759027"><ele>79.5</ele><time>2026-04-06T13:43:14Z</time></trkpt><trkpt lat="45.890246370260904" lon="10.844613826942416"><ele>80.0</ele><time>2026-04-06T13:43:16Z</time></trkpt><trkpt lat="45.89018785832256" lon="10.844546051088608"><ele>80.0</ele><time>2026-04-06T13:43:17Z</time></trkpt><trkpt lat="45.890121021269835" lon="10.844470191432048"><ele>80.0</ele><time>2026-04-06T13:43:18Z</time></trkpt><trkpt lat="45.89004803431482" lon="10.844388296512077"><ele>80.0</ele><time>2026-04-06T13:43:19Z</time></trkpt><trkpt lat="45.88997314079841" lon="10.84430263315126"><ele>80.0</ele><time>2026-04-06T13:43:20Z</time></trkpt><trkpt lat="45.88989483134707" lon="10.844210708059931"><ele>80.0</ele><time>2026-04-06T13:43:21Z</time></trkpt><trkpt lat="45.88981500350187" lon="10.844117609461415"><ele>79.8</ele><time>2026-04-06T13:43:22Z</time></trkpt><trkpt lat="45.889730547576136" lon="10.844026894269382"><ele>79.6</ele><time>2026-04-06T13:43:23Z</time></trkpt><trkpt lat="45.8896449935012" lon="10.84393355272942"><ele>79.4</ele><time>2026-04-06T13:43:24Z</time></trkpt><trkpt lat="45.88956276461934" lon="10.843843795932143"><ele>79.2</ele><time>2026-04-06T13:43:25Z</time></trkpt><trkpt lat="45.88949014833354" lon="10.843759964617682"><ele>79.0</ele><time>2026-04-06T13:43:26Z</time></trkpt><trkpt lat="45.88942757001611" lon="10.843693945470914"><ele>79.0</ele><time>2026-04-06T13:43:27Z</time></trkpt><trkpt lat="45.889323369954894" lon="10.843657579365322"><ele>79.0</ele><time>2026-04-06T13:43:29Z</time></trkpt><trkpt lat="45.889226566123966" lon="10.843743756969232"><ele>79.0</ele><time>2026-04-06T13:43:31Z</time></trkpt><trkpt lat="45.889190066675546" lon="10.843826027041843"><ele>79.0</ele><time>2026-04-06T13:43:32Z</time></trkpt><trkpt lat="45.889150538709984" lon="10.843921427919456"><ele>79.0</ele><time>2026-04-06T13:43:33Z</time></trkpt><trkpt lat="45.88911153057431" lon="10.844014744200752"><ele>79.0</ele><time>2026-04-06T13:43:34Z</time></trkpt><trkpt lat="45.88907905701263" lon="10.844101180593569"><ele>78.71428571428572</ele><time>2026-04-06T13:43:35Z</time></trkpt><trkpt lat="45.889045346865856" lon="10.84419432219392"><ele>78.42857142857143</ele><time>2026-04-06T13:43:36Z</time></trkpt><trkpt lat="45.88901017766467" lon="10.844291797880972"><ele>78.14285714285714</ele><time>2026-04-06T13:43:37Z</time></trkpt><trkpt lat="45.88897580985137" lon="10.844377546139256"><ele>77.85714285714286</ele><time>2026-04-06T13:43:38Z</time></trkpt><trkpt lat="45.88892675701407" lon="10.844473492888696"><ele>77.57142857142857</ele><time>2026-04-06T13:43:40Z</time></trkpt><trkpt lat="45.88888932922722" lon="10.844555048412069"><ele>77.28571428571429</ele><time>2026-04-06T13:43:42Z</time></trkpt><trkpt lat="45.888827036106974" lon="10.844610201162082"><ele>77.0</ele><time>2026-04-06T13:43:44Z</time></trkpt><trkpt lat="45.88875012742838" lon="10.844607522393042"><ele>76.83333333333334</ele><time>2026-04-06T13:43:46Z</time></trkpt><trkpt lat="45.88866400085627" lon="10.844563851017162"><ele>76.66666666666667</ele><time>2026-04-06T13:43:48Z</time></trkpt><trkpt lat="45.888588625553844" lon="10.844527683319432"><ele>76.5</ele><time>2026-04-06T13:43:50Z</time></trkpt><trkpt lat="45.888525039133135" lon="10.844509481250363"><ele>76.33333333333333</ele><time>2026-04-06T13:43:53Z</time></trkpt><trkpt lat="45.88843975928546" lon="10.844471516518526"><ele>76.16666666666666</ele><time>2026-04-06T13:43:56Z</time></trkpt><trkpt lat="45.88835568517866" lon="10.8444340544937"><ele>76.0</ele><time>2026-04-06T13:43:58Z</time></trkpt><trkpt lat="45.88826138550995" lon="10.84440085406466"><ele>76.0</ele><time>2026-04-06T13:44:00Z</time></trkpt><trkpt lat="45.88818357710257" lon="10.844379562032671"><ele>76.0</ele><time>2026-04-06T13:44:02Z</time></trkpt><trkpt lat="45.88810058304372" lon="10.844339931885294"><ele>76.0</ele><time>2026-04-06T13:44:06Z</time></trkpt><trkpt lat="45.888017096198055" lon="10.844308355952357"><ele>76.0</ele><time>2026-04-06T13:44:09Z</time></trkpt><trkpt lat="45.8879421069173" lon="10.844281805320568"><ele>76.0</ele><time>2026-04-06T13:44:12Z</time></trkpt><trkpt lat="45.88787933324028" lon="10.844266437389154"><ele>76.0</ele><time>2026-04-06T13:44:21Z</time></trkpt><trkpt lat="45.887795170048804" lon="10.844232120736324"><ele>76.0</ele><time>2026-04-06T13:44:24Z</time></trkpt><trkpt lat="45.88773760880183" lon="10.844183824813523"><ele>76.0</ele><time>2026-04-06T13:44:26Z</time></trkpt><trkpt lat="45.88764262149483" lon="10.84414719958304"><ele>76.0</ele><time>2026-04-06T13:44:28Z</time></trkpt><trkpt lat="45.887530997715636" lon="10.844120653105103"><ele>76.0</ele><time>2026-04-06T13:44:30Z</time></trkpt><trkpt lat="45.887432871337964" lon="10.844077084118394"><ele>76.0</ele><time>2026-04-06T13:44:32Z</time></trkpt><trkpt lat="45.887352200453954" lon="10.844038081763932"><ele>75.5</ele><time>2026-04-06T13:44:37Z</time></trkpt><trkpt lat="45.88728486917943" lon="10.844017781740986"><ele>75.0</ele><time>2026-04-06T13:44:38Z</time></trkpt><trkpt lat="45.887207627352694" lon="10.843993843596131"><ele>74.5</ele><time>2026-04-06T13:44:39Z</time></trkpt><trkpt lat="45.88712718647985" lon="10.843963954765087"><ele>74.0</ele><time>2026-04-06T13:44:40Z</time></trkpt><trkpt lat="45.887053764358" lon="10.843936597503623"><ele>73.5</ele><time>2026-04-06T13:44:41Z</time></trkpt><trkpt lat="45.88698705752085" lon="10.843911044111689"><ele>73.0</ele><time>2026-04-06T13:44:42Z</time></trkpt><trkpt lat="45.88690099546148" lon="10.843877953741055"><ele>73.0</ele><time>2026-04-06T13:44:44Z</time></trkpt><trkpt lat="45.88681839462414" lon="10.84384220570584"><ele>73.0</ele><time>2026-04-06T13:44:47Z</time></trkpt><trkpt lat="45.886749133814135" lon="10.843811458069279"><ele>73.0</ele><time>2026-04-06T13:44:49Z</time></trkpt><trkpt lat="45.886680800912494" lon="10.843789499834035"><ele>73.0</ele><time>2026-04-06T13:44:51Z</time></trkpt><trkpt lat="45.88659212872531" lon="10.843755472849557"><ele>73.0</ele><time>2026-04-06T13:44:54Z</time></trkpt><trkpt lat="45.88651653418765" lon="10.84372346394031"><ele>73.0</ele><time>2026-04-06T13:44:56Z</time></trkpt><trkpt lat="45.88643288599573" lon="10.843686724902783"><ele>72.8</ele><time>2026-04-06T13:44:58Z</time></trkpt><trkpt lat="45.88635908151015" lon="10.843648441842644"><ele>72.6</ele><time>2026-04-06T13:45:00Z</time></trkpt><trkpt lat="45.886258023726825" lon="10.843879233293269"><ele>72.4</ele><time>2026-04-06T13:45:08Z</time></trkpt><trkpt lat="45.88623433608637" lon="10.843975746804073"><ele>72.2</ele><time>2026-04-06T13:45:10Z</time></trkpt><trkpt lat="45.88621810172632" lon="10.844112991129824"><ele>72.0</ele><time>2026-04-06T13:45:12Z</time></trkpt><trkpt lat="45.88620335685443" lon="10.844238621398793"><ele>71.5</ele><time>2026-04-06T13:45:14Z</time></trkpt><trkpt lat="45.88619249879172" lon="10.84433113489836"><ele>71.0</ele><time>2026-04-06T13:45:17Z</time></trkpt><trkpt lat="45.88618171246301" lon="10.844423037239437"><ele>70.5</ele><time>2026-04-06T13:45:20Z</time></trkpt><trkpt lat="45.88616553916257" lon="10.844560838022321"><ele>70.0</ele><time>2026-04-06T13:45:23Z</time></trkpt><trkpt lat="45.886147431682865" lon="10.844706148740352"><ele>69.5</ele><time>2026-04-06T13:45:25Z</time></trkpt><trkpt lat="45.88612840569633" lon="10.844819045954425"><ele>69.0</ele><time>2026-04-06T13:45:27Z</time></trkpt><trkpt lat="45.88610533789106" lon="10.844929518004433"><ele>69.0</ele><time>2026-04-06T13:45:29Z</time></trkpt><trkpt lat="45.88605638642073" lon="10.844987922545942"><ele>69.0</ele><time>2026-04-06T13:45:32Z</time></trkpt><trkpt lat="45.88599836339267" lon="10.845032015239779"><ele>69.0</ele><time>2026-04-06T13:45:34Z</time></trkpt><trkpt lat="45.88592538943415" lon="10.84506496268828"><ele>69.0</ele><time>2026-04-06T13:45:37Z</time></trkpt><trkpt lat="45.88590369152048" lon="10.845182125600624"><ele>69.0</ele><time>2026-04-06T13:45:40Z</time></trkpt><trkpt lat="45.88587542100274" lon="10.845275193575823"><ele>69.0</ele><time>2026-04-06T13:45:45Z</time></trkpt><trkpt lat="45.885874172257616" lon="10.845391644067465"><ele>69.0</ele><time>2026-04-06T13:46:26Z</time></trkpt><trkpt lat="45.88588210273379" lon="10.845486665050158"><ele>69.4</ele><time>2026-04-06T13:46:28Z</time></trkpt><trkpt lat="45.88590776151092" lon="10.845636396722263"><ele>69.80000000000001</ele><time>2026-04-06T13:46:30Z</time></trkpt><trkpt lat="45.8859090452478" lon="10.845796893862381"><ele>70.19999999999999</ele><time>2026-04-06T13:46:32Z</time></trkpt><trkpt lat="45.88585014037215" lon="10.845962316863694"><ele>70.6</ele><time>2026-04-06T13:46:34Z</time></trkpt><trkpt lat="45.88582462196804" lon="10.846057928326287"><ele>71.0</ele><time>2026-04-06T13:46:35Z</time></trkpt><trkpt lat="45.88579837405447" lon="10.846155661652121"><ele>71.0</ele><time>2026-04-06T13:46:36Z</time></trkpt><trkpt lat="45.88577069418563" lon="10.846258726805647"><ele>71.0</ele><time>2026-04-06T13:46:37Z</time></trkpt><trkpt lat="45.88573929614436" lon="10.846376442191692"><ele>71.0</ele><time>2026-04-06T13:46:38Z</time></trkpt><trkpt lat="45.88570243216121" lon="10.846516660635496"><ele>71.0</ele><time>2026-04-06T13:46:39Z</time></trkpt><trkpt lat="45.88566437131099" lon="10.846661431447234"><ele>71.0</ele><time>2026-04-06T13:46:40Z</time></trkpt><trkpt lat="45.88562628335073" lon="10.846806305495457"><ele>71.2</ele><time>2026-04-06T13:46:41Z</time></trkpt><trkpt lat="45.88558821120456" lon="10.846951119363629"><ele>71.39999999999999</ele><time>2026-04-06T13:46:42Z</time></trkpt><trkpt lat="45.88555047991103" lon="10.847094636710846"><ele>71.6</ele><time>2026-04-06T13:46:43Z</time></trkpt><trkpt lat="45.88551815464859" lon="10.847218901777685"><ele>71.8</ele><time>2026-04-06T13:46:44Z</time></trkpt><trkpt lat="45.88548645200647" lon="10.847338493559192"><ele>72.0</ele><time>2026-04-06T13:46:45Z</time></trkpt><trkpt lat="45.8854556560328" lon="10.847454665254588"><ele>72.0</ele><time>2026-04-06T13:46:46Z</time></trkpt><trkpt lat="45.88541628380018" lon="10.847603185816848"><ele>72.0</ele><time>2026-04-06T13:46:47Z</time></trkpt><trkpt lat="45.88540822026588" lon="10.84779956222367"><ele>72.0</ele><time>2026-04-06T13:46:48Z</time></trkpt><trkpt lat="45.885363592630625" lon="10.847952450961124"><ele>72.0</ele><time>2026-04-06T13:46:49Z</time></trkpt><trkpt lat="45.885322053518" lon="10.848098207663549"><ele>71.8</ele><time>2026-04-06T13:46:50Z</time></trkpt><trkpt lat="45.88528091057342" lon="10.848237648343916"><ele>71.6</ele><time>2026-04-06T13:46:51Z</time></trkpt><trkpt lat="45.88521451707093" lon="10.848355678536949"><ele>71.39999999999999</ele><time>2026-04-06T13:46:52Z</time></trkpt><trkpt lat="45.885170746252065" lon="10.848478042664643"><ele>71.2</ele><time>2026-04-06T13:46:53Z</time></trkpt><trkpt lat="45.885124176341314" lon="10.848603352329457"><ele>71.0</ele><time>2026-04-06T13:46:54Z</time></trkpt><trkpt lat="45.88508105348292" lon="10.848723561614579"><ele>71.0</ele><time>2026-04-06T13:46:55Z</time></trkpt><trkpt lat="45.88503738189942" lon="10.848845167404484"><ele>71.0</ele><time>2026-04-06T13:46:56Z</time></trkpt><trkpt lat="45.884988701977676" lon="10.848974709483802"><ele>71.0</ele><time>2026-04-06T13:46:57Z</time></trkpt><trkpt lat="45.88494592840456" lon="10.84908954733547"><ele>71.0</ele><time>2026-04-06T13:46:58Z</time></trkpt><trkpt lat="45.88490476347033" lon="10.849197629199372"><ele>71.0</ele><time>2026-04-06T13:46:59Z</time></trkpt><trkpt lat="45.88486608008935" lon="10.849296079041109"><ele>71.16666666666667</ele><time>2026-04-06T13:47:00Z</time></trkpt><trkpt lat="45.88482583942642" lon="10.849395891158228"><ele>71.33333333333334</ele><time>2026-04-06T13:47:01Z</time></trkpt><trkpt lat="45.884782187378796" lon="10.849499094723694"><ele>71.5</ele><time>2026-04-06T13:47:02Z</time></trkpt><trkpt lat="45.88473623862495" lon="10.849603115832302"><ele>71.66666666666667</ele><time>2026-04-06T13:47:03Z</time></trkpt><trkpt lat="45.88468828414589" lon="10.849708496784977"><ele>71.83333333333333</ele><time>2026-04-06T13:47:04Z</time></trkpt><trkpt lat="45.884642214887954" lon="10.849809735777622"><ele>72.0</ele><time>2026-04-06T13:47:05Z</time></trkpt><trkpt lat="45.884596915046124" lon="10.849906561291915"><ele>72.0</ele><time>2026-04-06T13:47:06Z</time></trkpt><trkpt lat="45.88455660294158" lon="10.849993127687256"><ele>72.0</ele><time>2026-04-06T13:47:07Z</time></trkpt><trkpt lat="45.88451912593535" lon="10.850066115669206"><ele>72.0</ele><time>2026-04-06T13:47:08Z</time></trkpt><trkpt lat="45.88445781889834" lon="10.850185693906923"><ele>72.0</ele><time>2026-04-06T13:47:10Z</time></trkpt><trkpt lat="45.884408516494496" lon="10.850281859168174"><ele>72.0</ele><time>2026-04-06T13:47:12Z</time></trkpt><trkpt lat="45.8843629582287" lon="10.85036393756132"><ele>72.0</ele><time>2026-04-06T13:47:14Z</time></trkpt><trkpt lat="45.88431980841994" lon="10.85044388160288"><ele>71.66666666666667</ele><time>2026-04-06T13:47:16Z</time></trkpt><trkpt lat="45.884271524462015" lon="10.850533337760277"><ele>71.33333333333333</ele><time>2026-04-06T13:47:20Z</time></trkpt><trkpt lat="45.884225842521914" lon="10.850617816900913"><ele>71.0</ele><time>2026-04-06T13:47:22Z</time></trkpt><trkpt lat="45.88417169736789" lon="10.850718555202219"><ele>70.66666666666666</ele><time>2026-04-06T13:47:24Z</time></trkpt><trkpt lat="45.8841134902069" lon="10.850825828943822"><ele>70.33333333333333</ele><time>2026-04-06T13:47:26Z</time></trkpt><trkpt lat="45.88404809166831" lon="10.850945602122152"><ele>70.0</ele><time>2026-04-06T13:47:28Z</time></trkpt><trkpt lat="45.883977027210086" lon="10.851076720479128"><ele>70.0</ele><time>2026-04-06T13:47:30Z</time></trkpt><trkpt lat="45.883916435698" lon="10.851189366627857"><ele>70.0</ele><time>2026-04-06T13:47:32Z</time></trkpt><trkpt lat="45.88384555915869" lon="10.851321133628234"><ele>70.0</ele><time>2026-04-06T13:47:34Z</time></trkpt><trkpt lat="45.88380353656135" lon="10.851399260364087"><ele>70.0</ele><time>2026-04-06T13:47:35Z</time></trkpt><trkpt lat="45.8837621587178" lon="10.851473316962647"><ele>70.0</ele><time>2026-04-06T13:47:36Z</time></trkpt><trkpt lat="45.88372039017802" lon="10.85154927291924"><ele>70.0</ele><time>2026-04-06T13:47:37Z</time></trkpt><trkpt lat="45.8836788127441" lon="10.851624881461438"><ele>70.0</ele><time>2026-04-06T13:47:38Z</time></trkpt><trkpt lat="45.883640239468015" lon="10.851696558604406"><ele>70.0</ele><time>2026-04-06T13:47:39Z</time></trkpt><trkpt lat="45.8835700767296" lon="10.851827581749786"><ele>70.0</ele><time>2026-04-06T13:47:41Z</time></trkpt><trkpt lat="45.88350786879972" lon="10.851943749683526"><ele>70.0</ele><time>2026-04-06T13:47:43Z</time></trkpt><trkpt lat="45.88345101627939" lon="10.852048737723665"><ele>70.0</ele><time>2026-04-06T13:47:45Z</time></trkpt><trkpt lat="45.88339552880876" lon="10.852149678560025"><ele>69.5</ele><time>2026-04-06T13:47:47Z</time></trkpt><trkpt lat="45.88334966229569" lon="10.852233117274984"><ele>69.0</ele><time>2026-04-06T13:47:49Z</time></trkpt><trkpt lat="45.88330906721687" lon="10.852306966470696"><ele>68.5</ele><time>2026-04-06T13:47:51Z</time></trkpt><trkpt lat="45.88325744584188" lon="10.852401513490868"><ele>68.0</ele><time>2026-04-06T13:47:53Z</time></trkpt><trkpt lat="45.883208068280894" lon="10.852493513848199"><ele>67.5</ele><time>2026-04-06T13:47:55Z</time></trkpt><trkpt lat="45.8831604864089" lon="10.852582168496225"><ele>67.0</ele><time>2026-04-06T13:47:58Z</time></trkpt><trkpt lat="45.8831178919738" lon="10.852661530756347"><ele>67.0</ele><time>2026-04-06T13:48:00Z</time></trkpt><trkpt lat="45.88305836734095" lon="10.852770209968796"><ele>67.0</ele><time>2026-04-06T13:48:02Z</time></trkpt><trkpt lat="45.88301169497187" lon="10.852880192058361"><ele>67.0</ele><time>2026-04-06T13:48:04Z</time></trkpt><trkpt lat="45.882958831022066" lon="10.852960196443123"><ele>67.0</ele><time>2026-04-06T13:48:06Z</time></trkpt><trkpt lat="45.882913789074145" lon="10.853034660298672"><ele>67.0</ele><time>2026-04-06T13:48:08Z</time></trkpt><trkpt lat="45.88286476372108" lon="10.85311750851132"><ele>67.0</ele><time>2026-04-06T13:48:10Z</time></trkpt><trkpt lat="45.8828051998181" lon="10.85321049226992"><ele>67.0</ele><time>2026-04-06T13:48:12Z</time></trkpt><trkpt lat="45.882719303176074" lon="10.85331810198008"><ele>67.0</ele><time>2026-04-06T13:48:14Z</time></trkpt><trkpt lat="45.88262795928075" lon="10.853432652754254"><ele>67.0</ele><time>2026-04-06T13:48:16Z</time></trkpt><trkpt lat="45.88253792532807" lon="10.853544290558398"><ele>67.0</ele><time>2026-04-06T13:48:18Z</time></trkpt><trkpt lat="45.882463716215824" lon="10.85363873802767"><ele>66.83333333333333</ele><time>2026-04-06T13:48:20Z</time></trkpt><trkpt lat="45.88240168481777" lon="10.85373446003986"><ele>66.66666666666666</ele><time>2026-04-06T13:48:22Z</time></trkpt><trkpt lat="45.88232057101014" lon="10.853857729788821"><ele>66.5</ele><time>2026-04-06T13:48:24Z</time></trkpt><trkpt lat="45.88226966040776" lon="10.85392589297382"><ele>66.33333333333333</ele><time>2026-04-06T13:48:25Z</time></trkpt><trkpt lat="45.8822054154851" lon="10.85399353544936"><ele>66.16666666666667</ele><time>2026-04-06T13:48:26Z</time></trkpt><trkpt lat="45.882127986434135" lon="10.854044606262793"><ele>66.0</ele><time>2026-04-06T13:48:27Z</time></trkpt><trkpt lat="45.882039014916835" lon="10.854083028217289"><ele>66.0</ele><time>2026-04-06T13:48:28Z</time></trkpt><trkpt lat="45.881955598631" lon="10.854153537519496"><ele>66.0</ele><time>2026-04-06T13:48:29Z</time></trkpt><trkpt lat="45.88188064621087" lon="10.85423232150815"><ele>66.0</ele><time>2026-04-06T13:48:30Z</time></trkpt><trkpt lat="45.88181468167106" lon="10.854303823447262"><ele>66.0</ele><time>2026-04-06T13:48:31Z</time></trkpt><trkpt lat="45.88175413473055" lon="10.854368051315266"><ele>66.0</ele><time>2026-04-06T13:48:32Z</time></trkpt><trkpt lat="45.88169743551228" lon="10.854428041370328"><ele>66.0</ele><time>2026-04-06T13:48:33Z</time></trkpt><trkpt lat="45.88164489157779" lon="10.854482949048752"><ele>66.16666666666667</ele><time>2026-04-06T13:48:34Z</time></trkpt><trkpt lat="45.88154841706747" lon="10.854584529994902"><ele>66.33333333333333</ele><time>2026-04-06T13:48:36Z</time></trkpt><trkpt lat="45.88146397050356" lon="10.854673446321677"><ele>66.5</ele><time>2026-04-06T13:48:38Z</time></trkpt><trkpt lat="45.88140908475417" lon="10.854731237272748"><ele>66.66666666666666</ele><time>2026-04-06T13:48:40Z</time></trkpt><trkpt lat="45.88134624358362" lon="10.854797404681822"><ele>66.83333333333333</ele><time>2026-04-06T13:48:52Z</time></trkpt><trkpt lat="45.88130230648329" lon="10.854872000679798"><ele>67.0</ele><time>2026-04-06T13:48:54Z</time></trkpt><trkpt lat="45.881236529781354" lon="10.854939696618572"><ele>67.0</ele><time>2026-04-06T13:48:56Z</time></trkpt><trkpt lat="45.8811605713327" lon="10.855009028314269"><ele>67.0</ele><time>2026-04-06T13:48:59Z</time></trkpt><trkpt lat="45.88107383441464" lon="10.855084231650292"><ele>67.0</ele><time>2026-04-06T13:49:01Z</time></trkpt><trkpt lat="45.88103325462496" lon="10.855154006187947"><ele>67.0</ele><time>2026-04-06T13:49:02Z</time></trkpt><trkpt lat="45.880981718945414" lon="10.855209668812149"><ele>67.0</ele><time>2026-04-06T13:49:03Z</time></trkpt><trkpt lat="45.88092552028886" lon="10.855264802335475"><ele>67.0</ele><time>2026-04-06T13:49:04Z</time></trkpt><trkpt lat="45.880870163562406" lon="10.855327572916197"><ele>67.4</ele><time>2026-04-06T13:49:05Z</time></trkpt><trkpt lat="45.880769903068646" lon="10.85542809932261"><ele>67.80000000000001</ele><time>2026-04-06T13:49:07Z</time></trkpt><trkpt lat="45.88067347715558" lon="10.85552266167478"><ele>68.2</ele><time>2026-04-06T13:49:09Z</time></trkpt><trkpt lat="45.88058662165523" lon="10.855621145422923"><ele>68.60000000000001</ele><time>2026-04-06T13:49:11Z</time></trkpt><trkpt lat="45.880534810295465" lon="10.855678646223877"><ele>69.0</ele><time>2026-04-06T13:49:12Z</time></trkpt><trkpt lat="45.880475403930085" lon="10.855737849532543"><ele>69.0</ele><time>2026-04-06T13:49:13Z</time></trkpt><trkpt lat="45.8804124947354" lon="10.855802372964433"><ele>69.0</ele><time>2026-04-06T13:49:14Z</time></trkpt><trkpt lat="45.880349363389165" lon="10.855864968711986"><ele>69.0</ele><time>2026-04-06T13:49:15Z</time></trkpt><trkpt lat="45.880293747434926" lon="10.855920033955442"><ele>69.0</ele><time>2026-04-06T13:49:16Z</time></trkpt><trkpt lat="45.8802403126495" lon="10.855976143538916"><ele>69.0</ele><time>2026-04-06T13:49:17Z</time></trkpt><trkpt lat="45.88018537098092" lon="10.856035574430136"><ele>69.0</ele><time>2026-04-06T13:49:18Z</time></trkpt><trkpt lat="45.88013002104738" lon="10.8560957468383"><ele>69.0</ele><time>2026-04-06T13:49:19Z</time></trkpt><trkpt lat="45.880079249707244" lon="10.856153669784668"><ele>68.60000000000001</ele><time>2026-04-06T13:49:20Z</time></trkpt><trkpt lat="45.87998554380735" lon="10.856253658433673"><ele>68.2</ele><time>2026-04-06T13:49:22Z</time></trkpt><trkpt lat="45.87988730699418" lon="10.856330675193535"><ele>67.80000000000001</ele><time>2026-04-06T13:49:24Z</time></trkpt><trkpt lat="45.87983332633368" lon="10.856386734865364"><ele>67.4</ele><time>2026-04-06T13:49:26Z</time></trkpt><trkpt lat="45.87977527579045" lon="10.856471483824894"><ele>67.0</ele><time>2026-04-06T13:49:29Z</time></trkpt><trkpt lat="45.879677590329436" lon="10.85655042532261"><ele>67.0</ele><time>2026-04-06T13:49:31Z</time></trkpt><trkpt lat="45.87957297318563" lon="10.856659726707534"><ele>67.0</ele><time>2026-04-06T13:49:33Z</time></trkpt><trkpt lat="45.87951594072165" lon="10.85672024146392"><ele>67.0</ele><time>2026-04-06T13:49:34Z</time></trkpt><trkpt lat="45.879457529348755" lon="10.85678332314491"><ele>67.0</ele><time>2026-04-06T13:49:35Z</time></trkpt><trkpt lat="45.879394681062195" lon="10.856847676378202"><ele>67.0</ele><time>2026-04-06T13:49:36Z</time></trkpt><trkpt lat="45.87932964137672" lon="10.856911931537894"><ele>67.0</ele><time>2026-04-06T13:49:37Z</time></trkpt><trkpt lat="45.879269609680975" lon="10.856969985236377"><ele>67.4</ele><time>2026-04-06T13:49:38Z</time></trkpt><trkpt lat="45.87917463793952" lon="10.857052142442067"><ele>67.80000000000001</ele><time>2026-04-06T13:49:40Z</time></trkpt><trkpt lat="45.87905981055662" lon="10.857132189141154"><ele>68.2</ele><time>2026-04-06T13:49:42Z</time></trkpt><trkpt lat="45.87898552132282" lon="10.857144377900402"><ele>68.60000000000001</ele><time>2026-04-06T13:49:43Z</time></trkpt><trkpt lat="45.87891351290678" lon="10.857159655249557"><ele>69.0</ele><time>2026-04-06T13:49:44Z</time></trkpt><trkpt lat="45.878801014180006" lon="10.85719441915161"><ele>69.0</ele><time>2026-04-06T13:49:46Z</time></trkpt><trkpt lat="45.87872576245137" lon="10.857186525828471"><ele>69.0</ele><time>2026-04-06T13:49:48Z</time></trkpt><trkpt lat="45.87870331283857" lon="10.85709009892502"><ele>69.0</ele><time>2026-04-06T13:49:50Z</time></trkpt><trkpt lat="45.878691591314855" lon="10.856929052768434"><ele>69.0</ele><time>2026-04-06T13:49:52Z</time></trkpt><trkpt lat="45.87865158460552" lon="10.856813468305338"><ele>69.0</ele><time>2026-04-06T13:49:57Z</time></trkpt><trkpt lat="45.878636554423586" lon="10.856694162272897"><ele>69.0</ele><time>2026-04-06T13:50:00Z</time></trkpt><trkpt lat="45.878651117794256" lon="10.856848902819953"><ele>69.0</ele><time>2026-04-06T13:53:51Z</time></trkpt><trkpt lat="45.87866164885453" lon="10.856942305972723"><ele>69.0</ele><time>2026-04-06T13:53:52Z</time></trkpt><trkpt lat="45.87853078092442" lon="10.857151174841913"><ele>69.0</ele><time>2026-04-06T13:53:54Z</time></trkpt><trkpt lat="45.8785471212036" lon="10.857246580463926"><ele>69.0</ele><time>2026-04-06T13:53:56Z</time></trkpt><trkpt lat="45.8786011063206" lon="10.857200009934724"><ele>69.0</ele><time>2026-04-06T13:53:58Z</time></trkpt><trkpt lat="45.87853530236607" lon="10.857227081048325"><ele>68.75</ele><time>2026-04-06T13:53:59Z</time></trkpt><trkpt lat="45.878423597807895" lon="10.857296219821533"><ele>68.5</ele><time>2026-04-06T13:54:01Z</time></trkpt><trkpt lat="45.87830709692893" lon="10.857324200459233"><ele>68.25</ele><time>2026-04-06T13:54:03Z</time></trkpt><trkpt lat="45.878198705278436" lon="10.857369612514379"><ele>68.0</ele><time>2026-04-06T13:54:05Z</time></trkpt><trkpt lat="45.8780843741909" lon="10.857417535328631"><ele>68.0</ele><time>2026-04-06T13:54:07Z</time></trkpt><trkpt lat="45.87802249629152" lon="10.857442843654612"><ele>68.0</ele><time>2026-04-06T13:54:08Z</time></trkpt><trkpt lat="45.8779575570224" lon="10.857470693056047"><ele>68.0</ele><time>2026-04-06T13:54:09Z</time></trkpt><trkpt lat="45.87788924413586" lon="10.857498000124924"><ele>68.0</ele><time>2026-04-06T13:54:10Z</time></trkpt><trkpt lat="45.877825293346035" lon="10.857524470973516"><ele>68.0</ele><time>2026-04-06T13:54:11Z</time></trkpt><trkpt lat="45.877804808538485" lon="10.857689367958569"><ele>68.0</ele><time>2026-04-06T13:54:12Z</time></trkpt><trkpt lat="45.87771698074633" lon="10.857761805781339"><ele>68.33333333333334</ele><time>2026-04-06T13:54:14Z</time></trkpt><trkpt lat="45.877656213447594" lon="10.85780024823272"><ele>68.66666666666667</ele><time>2026-04-06T13:54:15Z</time></trkpt><trkpt lat="45.877433373742264" lon="10.857510326017662"><ele>69.0</ele><time>2026-04-06T13:54:16Z</time></trkpt><trkpt lat="45.8773572207226" lon="10.857574070169278"><ele>72.25</ele><time>2026-04-06T13:54:17Z</time></trkpt><trkpt lat="45.87739143477526" lon="10.857929293742608"><ele>75.5</ele><time>2026-04-06T13:54:18Z</time></trkpt><trkpt lat="45.87730418020063" lon="10.857972499592538"><ele>78.75</ele><time>2026-04-06T13:54:19Z</time></trkpt><trkpt lat="45.87722770182464" lon="10.8580120879491"><ele>82.0</ele><time>2026-04-06T13:54:20Z</time></trkpt><trkpt lat="45.87715267726803" lon="10.858002903727982"><ele>82.0</ele><time>2026-04-06T13:54:21Z</time></trkpt><trkpt lat="45.877045824328945" lon="10.85804569608907"><ele>82.0</ele><time>2026-04-06T13:54:23Z</time></trkpt><trkpt lat="45.8769409541946" lon="10.858087694483197"><ele>82.0</ele><time>2026-04-06T13:54:25Z</time></trkpt><trkpt lat="45.876843270629315" lon="10.858152961263482"><ele>82.0</ele><time>2026-04-06T13:54:27Z</time></trkpt><trkpt lat="45.87670364038103" lon="10.858214746705668"><ele>81.83333333333333</ele><time>2026-04-06T13:54:29Z</time></trkpt><trkpt lat="45.876613277901335" lon="10.858298020472793"><ele>81.66666666666666</ele><time>2026-04-06T13:54:30Z</time></trkpt><trkpt lat="45.87655607527674" lon="10.858375406518771"><ele>81.5</ele><time>2026-04-06T13:54:31Z</time></trkpt><trkpt lat="45.87651377401548" lon="10.858444989760274"><ele>81.33333333333333</ele><time>2026-04-06T13:54:32Z</time></trkpt><trkpt lat="45.87646474749436" lon="10.858545643592079"><ele>81.16666666666667</ele><time>2026-04-06T13:54:33Z</time></trkpt><trkpt lat="45.87642630924653" lon="10.858648949656004"><ele>81.0</ele><time>2026-04-06T13:54:34Z</time></trkpt><trkpt lat="45.87638954276668" lon="10.858770577229926"><ele>81.0</ele><time>2026-04-06T13:54:35Z</time></trkpt><trkpt lat="45.8763662000775" lon="10.858873233807339"><ele>81.0</ele><time>2026-04-06T13:54:36Z</time></trkpt><trkpt lat="45.87635362695035" lon="10.85897347243521"><ele>81.0</ele><time>2026-04-06T13:54:37Z</time></trkpt><trkpt lat="45.876344755838176" lon="10.859155178892955"><ele>81.0</ele><time>2026-04-06T13:54:39Z</time></trkpt><trkpt lat="45.87635050353986" lon="10.85924965810324"><ele>81.0</ele><time>2026-04-06T13:54:40Z</time></trkpt><trkpt lat="45.876362626076656" lon="10.859341735757933"><ele>81.0</ele><time>2026-04-06T13:54:41Z</time></trkpt><trkpt lat="45.87639319557938" lon="10.859511008860313"><ele>81.16666666666667</ele><time>2026-04-06T13:54:43Z</time></trkpt><trkpt lat="45.87641327679646" lon="10.859610069161207"><ele>81.33333333333333</ele><time>2026-04-06T13:54:44Z</time></trkpt><trkpt lat="45.87643633801271" lon="10.859718916582413"><ele>81.5</ele><time>2026-04-06T13:54:45Z</time></trkpt><trkpt lat="45.87646061788325" lon="10.859833516115994"><ele>81.66666666666666</ele><time>2026-04-06T13:54:46Z</time></trkpt><trkpt lat="45.876485477876265" lon="10.85995210276792"><ele>81.83333333333333</ele><time>2026-04-06T13:54:47Z</time></trkpt><trkpt lat="45.87651349935862" lon="10.860087250398625"><ele>82.0</ele><time>2026-04-06T13:54:48Z</time></trkpt><trkpt lat="45.87654262160643" lon="10.860227706961044"><ele>82.0</ele><time>2026-04-06T13:54:49Z</time></trkpt><trkpt lat="45.87656565926791" lon="10.860341126461337"><ele>82.0</ele><time>2026-04-06T13:54:50Z</time></trkpt><trkpt lat="45.876584618207396" lon="10.86044442856998"><ele>82.0</ele><time>2026-04-06T13:54:51Z</time></trkpt><trkpt lat="45.87659965780171" lon="10.860536342246371"><ele>82.0</ele><time>2026-04-06T13:54:52Z</time></trkpt><trkpt lat="45.87661251985324" lon="10.860628383326077"><ele>82.0</ele><time>2026-04-06T13:54:53Z</time></trkpt><trkpt lat="45.876624073975535" lon="10.860724323339493"><ele>82.0</ele><time>2026-04-06T13:54:54Z</time></trkpt><trkpt lat="45.87663966344228" lon="10.860895814907579"><ele>84.14285714285714</ele><time>2026-04-06T13:54:56Z</time></trkpt><trkpt lat="45.8766474927221" lon="10.860987873544603"><ele>86.28571428571428</ele><time>2026-04-06T13:54:57Z</time></trkpt><trkpt lat="45.876655889879274" lon="10.861088024204433"><ele>88.42857142857142</ele><time>2026-04-06T13:54:58Z</time></trkpt><trkpt lat="45.87666492336521" lon="10.861195763615125"><ele>90.57142857142857</ele><time>2026-04-06T13:54:59Z</time></trkpt><trkpt lat="45.8766741043007" lon="10.861305261797288"><ele>92.71428571428572</ele><time>2026-04-06T13:55:00Z</time></trkpt><trkpt lat="45.876683751351294" lon="10.861420319246115"><ele>94.85714285714285</ele><time>2026-04-06T13:55:01Z</time></trkpt><trkpt lat="45.876692424528365" lon="10.861523761565607"><ele>97.0</ele><time>2026-04-06T13:55:02Z</time></trkpt><trkpt lat="45.876701968130426" lon="10.861642104070475"><ele>97.0</ele><time>2026-04-06T13:55:03Z</time></trkpt><trkpt lat="45.876712611419585" lon="10.861775132310553"><ele>97.0</ele><time>2026-04-06T13:55:04Z</time></trkpt><trkpt lat="45.876723757746355" lon="10.861914447806612"><ele>97.0</ele><time>2026-04-06T13:55:05Z</time></trkpt><trkpt lat="45.87673565806299" lon="10.862063086781555"><ele>97.0</ele><time>2026-04-06T13:55:06Z</time></trkpt><trkpt lat="45.876748294842066" lon="10.862218451476735"><ele>97.0</ele><time>2026-04-06T13:55:07Z</time></trkpt><trkpt lat="45.876760488972224" lon="10.862368373969042"><ele>105.6</ele><time>2026-04-06T13:55:08Z</time></trkpt><trkpt lat="45.87677182808216" lon="10.862505964557151"><ele>114.19999999999999</ele><time>2026-04-06T13:55:09Z</time></trkpt><trkpt lat="45.87678261902479" lon="10.862632207369867"><ele>122.8</ele><time>2026-04-06T13:55:10Z</time></trkpt><trkpt lat="45.87679484245024" lon="10.86276079591561"><ele>131.4</ele><time>2026-04-06T13:55:11Z</time></trkpt><trkpt lat="45.87680960246722" lon="10.862890035476404"><ele>140.0</ele><time>2026-04-06T13:55:12Z</time></trkpt><trkpt lat="45.87683366427497" lon="10.863026311371772"><ele>140.0</ele><time>2026-04-06T13:55:13Z</time></trkpt><trkpt lat="45.8768636304579" lon="10.863162087443131"><ele>140.0</ele><time>2026-04-06T13:55:14Z</time></trkpt><trkpt lat="45.876899297932255" lon="10.863297939508943"><ele>140.0</ele><time>2026-04-06T13:55:15Z</time></trkpt><trkpt lat="45.87693739607872" lon="10.863437192841221"><ele>140.0</ele><time>2026-04-06T13:55:16Z</time></trkpt><trkpt lat="45.876977400392974" lon="10.863580173551576"><ele>140.0</ele><time>2026-04-06T13:55:17Z</time></trkpt><trkpt lat="45.87701576116463" lon="10.863716790239213"><ele>135.6</ele><time>2026-04-06T13:55:18Z</time></trkpt><trkpt lat="45.87705308481659" lon="10.863851645124928"><ele>131.2</ele><time>2026-04-06T13:55:19Z</time></trkpt><trkpt lat="45.87709015728056" lon="10.863988422268385"><ele>126.80000000000001</ele><time>2026-04-06T13:55:20Z</time></trkpt><trkpt lat="45.87712829958572" lon="10.864130360891428"><ele>122.4</ele><time>2026-04-06T13:55:21Z</time></trkpt><trkpt lat="45.87716929042955" lon="10.864288103188478"><ele>118.0</ele><time>2026-04-06T13:55:22Z</time></trkpt><trkpt lat="45.87720761531552" lon="10.864454897569725"><ele>118.0</ele><time>2026-04-06T13:55:23Z</time></trkpt><trkpt lat="45.877237006349134" lon="10.864615501544623"><ele>118.00000000000001</ele><time>2026-04-06T13:55:24Z</time></trkpt><trkpt lat="45.87726029280399" lon="10.864770682823398"><ele>118.00000000000001</ele><time>2026-04-06T13:55:25Z</time></trkpt><trkpt lat="45.877280987220686" lon="10.864919791179913"><ele>118.0</ele><time>2026-04-06T13:55:26Z</time></trkpt><trkpt lat="45.87729854695599" lon="10.86504631326317"><ele>118.0</ele><time>2026-04-06T13:55:27Z</time></trkpt><trkpt lat="45.877314123980454" lon="10.865154001295295"><ele>113.33333333333334</ele><time>2026-04-06T13:55:28Z</time></trkpt><trkpt lat="45.877328529228755" lon="10.865251261011332"><ele>108.66666666666667</ele><time>2026-04-06T13:55:29Z</time></trkpt><trkpt lat="45.87734382069005" lon="10.865354504557413"><ele>104.0</ele><time>2026-04-06T13:55:30Z</time></trkpt><trkpt lat="45.87737668676719" lon="10.865471281791889"><ele>99.33333333333334</ele><time>2026-04-06T13:55:31Z</time></trkpt><trkpt lat="45.87739167969202" lon="10.865575439461708"><ele>94.66666666666667</ele><time>2026-04-06T13:55:32Z</time></trkpt><trkpt lat="45.87740215158715" lon="10.865698847784195"><ele>90.0</ele><time>2026-04-06T13:55:33Z</time></trkpt><trkpt lat="45.87741434366531" lon="10.865818687569492"><ele>90.0</ele><time>2026-04-06T13:55:34Z</time></trkpt><trkpt lat="45.87743147704428" lon="10.865938066085908"><ele>90.0</ele><time>2026-04-06T13:55:35Z</time></trkpt><trkpt lat="45.87744005454042" lon="10.866039941503907"><ele>90.0</ele><time>2026-04-06T13:55:36Z</time></trkpt><trkpt lat="45.877454165165126" lon="10.866133090031662"><ele>90.0</ele><time>2026-04-06T13:55:37Z</time></trkpt><trkpt lat="45.87746859070316" lon="10.866233683410963"><ele>90.0</ele><time>2026-04-06T13:55:38Z</time></trkpt><trkpt lat="45.87748596017762" lon="10.866431163676374"><ele>90.0</ele><time>2026-04-06T13:55:40Z</time></trkpt><trkpt lat="45.87751346479062" lon="10.866543490923503"><ele>88.5</ele><time>2026-04-06T13:55:41Z</time></trkpt><trkpt lat="45.87753761427547" lon="10.866670497707215"><ele>87.0</ele><time>2026-04-06T13:55:42Z</time></trkpt><trkpt lat="45.87754749621934" lon="10.866781365729052"><ele>85.5</ele><time>2026-04-06T13:55:43Z</time></trkpt><trkpt lat="45.877558573906796" lon="10.866885144684431"><ele>84.0</ele><time>2026-04-06T13:55:44Z</time></trkpt><trkpt lat="45.87756935892574" lon="10.866995923293102"><ele>82.5</ele><time>2026-04-06T13:55:45Z</time></trkpt><trkpt lat="45.87757299614259" lon="10.867099938343333"><ele>81.0</ele><time>2026-04-06T13:55:46Z</time></trkpt><trkpt lat="45.87756237544412" lon="10.867268332307942"><ele>80.8</ele><time>2026-04-06T13:55:48Z</time></trkpt><trkpt lat="45.87754374605013" lon="10.867393554165798"><ele>80.6</ele><time>2026-04-06T13:55:50Z</time></trkpt><trkpt lat="45.87753163974286" lon="10.867566554401105"><ele>80.4</ele><time>2026-04-06T13:55:53Z</time></trkpt><trkpt lat="45.87749838976589" lon="10.867716132171928"><ele>80.2</ele><time>2026-04-06T13:55:55Z</time></trkpt><trkpt lat="45.8774659995479" lon="10.867820326950307"><ele>80.0</ele><time>2026-04-06T13:55:57Z</time></trkpt><trkpt lat="45.877415501667876" lon="10.86792176493155"><ele>77.4</ele><time>2026-04-06T13:55:59Z</time></trkpt><trkpt lat="45.877381141546124" lon="10.86802687401689"><ele>74.8</ele><time>2026-04-06T13:56:00Z</time></trkpt><trkpt lat="45.877354059232864" lon="10.86815884317919"><ele>72.2</ele><time>2026-04-06T13:56:01Z</time></trkpt><trkpt lat="45.87730606188219" lon="10.868293996538362"><ele>69.6</ele><time>2026-04-06T13:56:02Z</time></trkpt><trkpt lat="45.87726172646222" lon="10.868433170937294"><ele>67.0</ele><time>2026-04-06T13:56:03Z</time></trkpt><trkpt lat="45.87722369387649" lon="10.868537022179016"><ele>66.66666666666666</ele><time>2026-04-06T13:56:04Z</time></trkpt><trkpt lat="45.87719186564171" lon="10.868635675925903"><ele>66.33333333333333</ele><time>2026-04-06T13:56:05Z</time></trkpt><trkpt lat="45.87716007684554" lon="10.868740357902036"><ele>66.0</ele><time>2026-04-06T13:56:06Z</time></trkpt><trkpt lat="45.877124010774516" lon="10.868851713311273"><ele>65.66666666666667</ele><time>2026-04-06T13:56:07Z</time></trkpt><trkpt lat="45.87708986646442" lon="10.868948792494823"><ele>65.33333333333334</ele><time>2026-04-06T13:56:08Z</time></trkpt><trkpt lat="45.877056738588244" lon="10.869054715707192"><ele>65.0</ele><time>2026-04-06T13:56:09Z</time></trkpt><trkpt lat="45.87702028611221" lon="10.86916958465519"><ele>65.33333333333334</ele><time>2026-04-06T13:56:10Z</time></trkpt><trkpt lat="45.87698286325409" lon="10.869284389181747"><ele>65.66666666666667</ele><time>2026-04-06T13:56:11Z</time></trkpt><trkpt lat="45.87694471091225" lon="10.869389804566795"><ele>66.0</ele><time>2026-04-06T13:56:12Z</time></trkpt><trkpt lat="45.876912190374654" lon="10.869486727952635"><ele>66.33333333333333</ele><time>2026-04-06T13:56:13Z</time></trkpt><trkpt lat="45.8768798927004" lon="10.869576300107953"><ele>66.66666666666666</ele><time>2026-04-06T13:56:14Z</time></trkpt><trkpt lat="45.87684924645586" lon="10.86965687924407"><ele>67.0</ele><time>2026-04-06T13:56:15Z</time></trkpt><trkpt lat="45.8767966340503" lon="10.869787543969077"><ele>66.85714285714286</ele><time>2026-04-06T13:56:17Z</time></trkpt><trkpt lat="45.87676165337571" lon="10.869877729318773"><ele>66.71428571428571</ele><time>2026-04-06T13:56:19Z</time></trkpt><trkpt lat="45.87671948032651" lon="10.869953507405148"><ele>66.57142857142857</ele><time>2026-04-06T13:56:30Z</time></trkpt><trkpt lat="45.8766786203896" lon="10.870033522377161"><ele>66.42857142857143</ele><time>2026-04-06T13:56:35Z</time></trkpt><trkpt lat="45.876634506549905" lon="10.87011887784242"><ele>66.28571428571429</ele><time>2026-04-06T13:56:40Z</time></trkpt><trkpt lat="45.876589899457535" lon="10.870206622705492"><ele>66.14285714285714</ele><time>2026-04-06T13:56:45Z</time></trkpt><trkpt lat="45.87655527586329" lon="10.870283494495524"><ele>66.0</ele><time>2026-04-06T13:56:56Z</time></trkpt><trkpt lat="45.87653927065057" lon="10.870371802252473"><ele>65.83333333333333</ele><time>2026-04-06T13:57:00Z</time></trkpt><trkpt lat="45.87647236022098" lon="10.870453423028621"><ele>65.66666666666667</ele><time>2026-04-06T13:57:16Z</time></trkpt><trkpt lat="45.87640050853149" lon="10.87052526393762"><ele>65.5</ele><time>2026-04-06T13:57:18Z</time></trkpt><trkpt lat="45.876336673779875" lon="10.870610404732"><ele>65.33333333333334</ele><time>2026-04-06T13:57:20Z</time></trkpt><trkpt lat="45.876285099020954" lon="10.870663472586035"><ele>65.16666666666667</ele><time>2026-04-06T13:57:22Z</time></trkpt><trkpt lat="45.87624176006225" lon="10.870741171079123"><ele>65.0</ele><time>2026-04-06T13:57:25Z</time></trkpt><trkpt lat="45.87618930802067" lon="10.870826822708343"><ele>65.0</ele><time>2026-04-06T13:57:28Z</time></trkpt><trkpt lat="45.87611675239373" lon="10.870899267588994"><ele>65.0</ele><time>2026-04-06T13:57:31Z</time></trkpt><trkpt lat="45.87605439819844" lon="10.8709578981355"><ele>65.0</ele><time>2026-04-06T13:57:34Z</time></trkpt><trkpt lat="45.87599433355483" lon="10.87103079440195"><ele>65.0</ele><time>2026-04-06T13:57:37Z</time></trkpt><trkpt lat="45.87594230526039" lon="10.87109474531244"><ele>65.0</ele><time>2026-04-06T13:57:40Z</time></trkpt><trkpt lat="45.875882588913946" lon="10.871152086360528"><ele>65.0</ele><time>2026-04-06T13:57:58Z</time></trkpt><trkpt lat="45.87581620366494" lon="10.871260434450651"><ele>65.16666666666667</ele><time>2026-04-06T13:58:01Z</time></trkpt><trkpt lat="45.87577064694603" lon="10.871330627810947"><ele>65.33333333333334</ele><time>2026-04-06T13:58:03Z</time></trkpt><trkpt lat="45.87572885524758" lon="10.871403521235724"><ele>65.5</ele><time>2026-04-06T13:58:11Z</time></trkpt><trkpt lat="45.87567705758089" lon="10.871488992742815"><ele>65.66666666666667</ele><time>2026-04-06T13:58:14Z</time></trkpt><trkpt lat="45.87562995454616" lon="10.871574849894676"><ele>65.83333333333333</ele><time>2026-04-06T13:58:17Z</time></trkpt><trkpt lat="45.8755744022013" lon="10.871706517188025"><ele>66.0</ele><time>2026-04-06T13:58:21Z</time></trkpt><trkpt lat="45.875500125821546" lon="10.871830252584722"><ele>66.0</ele><time>2026-04-06T13:58:23Z</time></trkpt><trkpt lat="45.875432178779384" lon="10.871957094333506"><ele>66.0</ele><time>2026-04-06T13:58:25Z</time></trkpt><trkpt lat="45.875349136197215" lon="10.872066259961326"><ele>66.0</ele><time>2026-04-06T13:58:27Z</time></trkpt><trkpt lat="45.87528750505927" lon="10.872209200730452"><ele>66.0</ele><time>2026-04-06T13:58:29Z</time></trkpt><trkpt lat="45.87523676160179" lon="10.872288234800404"><ele>66.0</ele><time>2026-04-06T13:58:31Z</time></trkpt><trkpt lat="45.875186409215004" lon="10.872361688327706"><ele>66.0</ele><time>2026-04-06T13:58:35Z</time></trkpt><trkpt lat="45.875139648620326" lon="10.872428031804613"><ele>66.0</ele><time>2026-04-06T13:58:38Z</time></trkpt><trkpt lat="45.87508890336844" lon="10.872507653894347"><ele>66.0</ele><time>2026-04-06T13:58:40Z</time></trkpt><trkpt lat="45.87499198982229" lon="10.87264297647709"><ele>66.0</ele><time>2026-04-06T13:58:42Z</time></trkpt><trkpt lat="45.87493378692915" lon="10.8727090960573"><ele>66.0</ele><time>2026-04-06T13:58:43Z</time></trkpt><trkpt lat="45.87487781398231" lon="10.872775407443243"><ele>66.0</ele><time>2026-04-06T13:58:44Z</time></trkpt><trkpt lat="45.874818514334976" lon="10.872843101456077"><ele>66.16666666666667</ele><time>2026-04-06T13:58:45Z</time></trkpt><trkpt lat="45.874758535663595" lon="10.872906597550276"><ele>66.33333333333333</ele><time>2026-04-06T13:58:46Z</time></trkpt><trkpt lat="45.87469699054652" lon="10.872969900640625"><ele>66.5</ele><time>2026-04-06T13:58:47Z</time></trkpt><trkpt lat="45.874643623225765" lon="10.873030155516416"><ele>66.66666666666666</ele><time>2026-04-06T13:58:48Z</time></trkpt><trkpt lat="45.87455568569475" lon="10.873128650389727"><ele>66.83333333333333</ele><time>2026-04-06T13:58:50Z</time></trkpt><trkpt lat="45.874490219898654" lon="10.873196061758643"><ele>67.0</ele><time>2026-04-06T13:58:52Z</time></trkpt><trkpt lat="45.8744273629118" lon="10.87326121902668"><ele>67.0</ele><time>2026-04-06T13:58:55Z</time></trkpt><trkpt lat="45.874358897875695" lon="10.873331869649718"><ele>67.0</ele><time>2026-04-06T13:58:57Z</time></trkpt><trkpt lat="45.87428327137533" lon="10.873412844030975"><ele>67.0</ele><time>2026-04-06T13:58:59Z</time></trkpt><trkpt lat="45.87421845969873" lon="10.873445495035813"><ele>67.0</ele><time>2026-04-06T13:59:01Z</time></trkpt><trkpt lat="45.874145689913284" lon="10.873508417165892"><ele>67.0</ele><time>2026-04-06T13:59:04Z</time></trkpt><trkpt lat="45.87405403323604" lon="10.87358174153431"><ele>67.0</ele><time>2026-04-06T13:59:07Z</time></trkpt><trkpt lat="45.87398893193524" lon="10.873628680106888"><ele>67.0</ele><time>2026-04-06T13:59:08Z</time></trkpt><trkpt lat="45.87391745362747" lon="10.873675901059116"><ele>67.0</ele><time>2026-04-06T13:59:09Z</time></trkpt><trkpt lat="45.87385076415738" lon="10.873716567540653"><ele>67.0</ele><time>2026-04-06T13:59:10Z</time></trkpt><trkpt lat="45.87378719658523" lon="10.87375360366031"><ele>67.0</ele><time>2026-04-06T13:59:11Z</time></trkpt><trkpt lat="45.87372678349277" lon="10.87378880350658"><ele>67.0</ele><time>2026-04-06T13:59:12Z</time></trkpt><trkpt lat="45.87361525419208" lon="10.873851245097931"><ele>67.0</ele><time>2026-04-06T13:59:14Z</time></trkpt><trkpt lat="45.87353332726875" lon="10.873897684029188"><ele>67.0</ele><time>2026-04-06T13:59:16Z</time></trkpt><trkpt lat="45.873473810016655" lon="10.87393142048662"><ele>67.0</ele><time>2026-04-06T13:59:18Z</time></trkpt><trkpt lat="45.87341399616274" lon="10.873965325153234"><ele>67.0</ele><time>2026-04-06T13:59:21Z</time></trkpt><trkpt lat="45.873341791847984" lon="10.874027698500047"><ele>67.0</ele><time>2026-04-06T13:59:24Z</time></trkpt><trkpt lat="45.87326649095814" lon="10.874063340553596"><ele>67.0</ele><time>2026-04-06T13:59:26Z</time></trkpt><trkpt lat="45.87318320937829" lon="10.874099051681592"><ele>67.0</ele><time>2026-04-06T13:59:29Z</time></trkpt><trkpt lat="45.87310059192237" lon="10.874141211386046"><ele>67.0</ele><time>2026-04-06T13:59:31Z</time></trkpt><trkpt lat="45.872975976062314" lon="10.874212777679261"><ele>67.0</ele><time>2026-04-06T13:59:33Z</time></trkpt><trkpt lat="45.87288232377262" lon="10.874269468525187"><ele>67.0</ele><time>2026-04-06T13:59:34Z</time></trkpt><trkpt lat="45.87278993859435" lon="10.874325618417897"><ele>67.0</ele><time>2026-04-06T13:59:35Z</time></trkpt><trkpt lat="45.87270585842393" lon="10.874376722081234"><ele>67.0</ele><time>2026-04-06T13:59:36Z</time></trkpt><trkpt lat="45.8726348406905" lon="10.87444072483171"><ele>66.83333333333333</ele><time>2026-04-06T13:59:37Z</time></trkpt><trkpt lat="45.87257302187958" lon="10.874492317603332"><ele>66.66666666666666</ele><time>2026-04-06T13:59:38Z</time></trkpt><trkpt lat="45.87248617081563" lon="10.874587458339471"><ele>66.5</ele><time>2026-04-06T13:59:40Z</time></trkpt><trkpt lat="45.87243110843792" lon="10.874637878768477"><ele>66.33333333333333</ele><time>2026-04-06T13:59:42Z</time></trkpt><trkpt lat="45.87235840407658" lon="10.874691141167826"><ele>66.16666666666667</ele><time>2026-04-06T13:59:45Z</time></trkpt><trkpt lat="45.872269197931516" lon="10.874739533503368"><ele>66.0</ele><time>2026-04-06T13:59:48Z</time></trkpt><trkpt lat="45.87219679393252" lon="10.874783588206583"><ele>66.0</ele><time>2026-04-06T13:59:50Z</time></trkpt><trkpt lat="45.87210514633767" lon="10.874866973576275"><ele>66.0</ele><time>2026-04-06T13:59:52Z</time></trkpt><trkpt lat="45.87202291719093" lon="10.874935949509794"><ele>66.0</ele><time>2026-04-06T13:59:54Z</time></trkpt><trkpt lat="45.87195686572423" lon="10.874985405566905"><ele>66.0</ele><time>2026-04-06T13:59:56Z</time></trkpt><trkpt lat="45.87186372765602" lon="10.875030123053323"><ele>66.0</ele><time>2026-04-06T13:59:58Z</time></trkpt><trkpt lat="45.871748942261775" lon="10.875075169329937"><ele>66.0</ele><time>2026-04-06T14:00:00Z</time></trkpt><trkpt lat="45.87168263665829" lon="10.875104013954228"><ele>66.0</ele><time>2026-04-06T14:00:01Z</time></trkpt><trkpt lat="45.871617572511866" lon="10.875129737479927"><ele>66.0</ele><time>2026-04-06T14:00:02Z</time></trkpt><trkpt lat="45.87150944971906" lon="10.875167391699856"><ele>66.0</ele><time>2026-04-06T14:00:04Z</time></trkpt><trkpt lat="45.87142957948109" lon="10.875194620986584"><ele>66.0</ele><time>2026-04-06T14:00:06Z</time></trkpt><trkpt lat="45.87135718839595" lon="10.875209576551073"><ele>66.0</ele><time>2026-04-06T14:00:09Z</time></trkpt><trkpt lat="45.87131550503915" lon="10.875277721581371"><ele>66.16666666666667</ele><time>2026-04-06T14:00:12Z</time></trkpt><trkpt lat="45.87124246785736" lon="10.875295821537991"><ele>66.33333333333333</ele><time>2026-04-06T14:00:15Z</time></trkpt><trkpt lat="45.87120444901339" lon="10.875398233513632"><ele>66.5</ele><time>2026-04-06T14:00:17Z</time></trkpt><trkpt lat="45.871161946129405" lon="10.875465952713734"><ele>66.66666666666666</ele><time>2026-04-06T14:00:19Z</time></trkpt><trkpt lat="45.871080501157294" lon="10.875548427751516"><ele>66.83333333333333</ele><time>2026-04-06T14:00:22Z</time></trkpt><trkpt lat="45.87103937779869" lon="10.875620661573127"><ele>67.0</ele><time>2026-04-06T14:00:23Z</time></trkpt><trkpt lat="45.87099525045715" lon="10.87570013538881"><ele>67.0</ele><time>2026-04-06T14:00:24Z</time></trkpt><trkpt lat="45.87094795524947" lon="10.875814116405307"><ele>67.0</ele><time>2026-04-06T14:00:26Z</time></trkpt><trkpt lat="45.870882159010044" lon="10.875875766632296"><ele>67.0</ele><time>2026-04-06T14:00:28Z</time></trkpt><trkpt lat="45.87085865102117" lon="10.875960570721174"><ele>67.0</ele><time>2026-04-06T14:00:30Z</time></trkpt><trkpt lat="45.87077961059131" lon="10.876030363945484"><ele>67.0</ele><time>2026-04-06T14:00:37Z</time></trkpt><trkpt lat="45.87071282708024" lon="10.876052695270207"><ele>67.0</ele><time>2026-04-06T14:00:39Z</time></trkpt><trkpt lat="45.87067748824468" lon="10.876166972492008"><ele>67.25</ele><time>2026-04-06T14:00:41Z</time></trkpt><trkpt lat="45.87076264022472" lon="10.876336721349697"><ele>67.5</ele><time>2026-04-06T14:00:43Z</time></trkpt><trkpt lat="45.870832373725605" lon="10.876445936552688"><ele>67.75</ele><time>2026-04-06T14:00:44Z</time></trkpt><trkpt lat="45.870917843541" lon="10.87656900523293"><ele>68.0</ele><time>2026-04-06T14:00:45Z</time></trkpt><trkpt lat="45.87101233458776" lon="10.876703076448305"><ele>69.5</ele><time>2026-04-06T14:00:46Z</time></trkpt><trkpt lat="45.87111120645671" lon="10.876844813265983"><ele>71.0</ele><time>2026-04-06T14:00:47Z</time></trkpt><trkpt lat="45.871218168635416" lon="10.876991394331846"><ele>72.5</ele><time>2026-04-06T14:00:48Z</time></trkpt><trkpt lat="45.87132813137241" lon="10.877142989886861"><ele>74.0</ele><time>2026-04-06T14:00:49Z</time></trkpt><trkpt lat="45.87144148461432" lon="10.877301802110072"><ele>74.0</ele><time>2026-04-06T14:00:50Z</time></trkpt><trkpt lat="45.8715555874709" lon="10.877464817729916"><ele>74.0</ele><time>2026-04-06T14:00:51Z</time></trkpt><trkpt lat="45.87166989428027" lon="10.87762639965213"><ele>74.0</ele><time>2026-04-06T14:00:52Z</time></trkpt><trkpt lat="45.871787626953804" lon="10.877786769669866"><ele>74.33333333333334</ele><time>2026-04-06T14:00:53Z</time></trkpt><trkpt lat="45.87190163976544" lon="10.87794862907385"><ele>74.66666666666667</ele><time>2026-04-06T14:00:54Z</time></trkpt><trkpt lat="45.87202217011067" lon="10.878110608064757"><ele>75.0</ele><time>2026-04-06T14:00:55Z</time></trkpt><trkpt lat="45.872132904588774" lon="10.87827532466251"><ele>84.66666666666666</ele><time>2026-04-06T14:00:56Z</time></trkpt><trkpt lat="45.872248239842406" lon="10.878438125674288"><ele>94.33333333333333</ele><time>2026-04-06T14:00:57Z</time></trkpt><trkpt lat="45.87236658223275" lon="10.878601252909585"><ele>104.0</ele><time>2026-04-06T14:00:58Z</time></trkpt><trkpt lat="45.87248563700748" lon="10.878766070843346"><ele>104.0</ele><time>2026-04-06T14:00:59Z</time></trkpt><trkpt lat="45.87260459483113" lon="10.878930709827102"><ele>104.0</ele><time>2026-04-06T14:01:00Z</time></trkpt><trkpt lat="45.87272451518752" lon="10.879095162476952"><ele>104.0</ele><time>2026-04-06T14:01:01Z</time></trkpt><trkpt lat="45.872845100920884" lon="10.879261063810498"><ele>103.66666666666666</ele><time>2026-04-06T14:01:02Z</time></trkpt><trkpt lat="45.87296551421429" lon="10.87942771681147"><ele>103.33333333333334</ele><time>2026-04-06T14:01:03Z</time></trkpt><trkpt lat="45.87308732781807" lon="10.879593626803366"><ele>103.0</ele><time>2026-04-06T14:01:04Z</time></trkpt><trkpt lat="45.87321118995349" lon="10.879763930963904"><ele>103.0</ele><time>2026-04-06T14:01:05Z</time></trkpt><trkpt lat="45.87333804807652" lon="10.879939332265295"><ele>103.0</ele><time>2026-04-06T14:01:06Z</time></trkpt><trkpt lat="45.87346372971947" lon="10.880113819417101"><ele>103.0</ele><time>2026-04-06T14:01:06.999Z</time></trkpt><trkpt lat="45.873587595906784" lon="10.880289371589972"><ele>102.0</ele><time>2026-04-06T14:01:07.999Z</time></trkpt><trkpt lat="45.873715846292995" lon="10.880462907860984"><ele>101.0</ele><time>2026-04-06T14:01:08.999Z</time></trkpt><trkpt lat="45.87383844358295" lon="10.880640357655395"><ele>100.0</ele><time>2026-04-06T14:01:09.999Z</time></trkpt><trkpt lat="45.87396127970913" lon="10.880813466736422"><ele>101.66666666666667</ele><time>2026-04-06T14:01:10.999Z</time></trkpt><trkpt lat="45.87408820547657" lon="10.880986202513556"><ele>103.33333333333334</ele><time>2026-04-06T14:01:11.999Z</time></trkpt><trkpt lat="45.874214662287415" lon="10.881155130571246"><ele>105.0</ele><time>2026-04-06T14:01:12.999Z</time></trkpt><trkpt lat="45.87434350309212" lon="10.881318875653557"><ele>105.0</ele><time>2026-04-06T14:01:13.999Z</time></trkpt><trkpt lat="45.874471055063964" lon="10.88147819082612"><ele>105.0</ele><time>2026-04-06T14:01:14.999Z</time></trkpt><trkpt lat="45.87459881170152" lon="10.881635591431865"><ele>105.0</ele><time>2026-04-06T14:01:15.999Z</time></trkpt><trkpt lat="45.87472543799405" lon="10.881788023841686"><ele>104.75</ele><time>2026-04-06T14:01:16.999Z</time></trkpt><trkpt lat="45.87484586646841" lon="10.881927927379726"><ele>104.5</ele><time>2026-04-06T14:01:17.999Z</time></trkpt><trkpt lat="45.87496022459344" lon="10.882051533601816"><ele>104.25</ele><time>2026-04-06T14:01:19Z</time></trkpt><trkpt lat="45.875072608433335" lon="10.882174912725874"><ele>104.0</ele><time>2026-04-06T14:01:20Z</time></trkpt><trkpt lat="45.87518621111394" lon="10.882292309130726"><ele>104.0</ele><time>2026-04-06T14:01:21Z</time></trkpt><trkpt lat="45.875293421910705" lon="10.882400765601147"><ele>104.0</ele><time>2026-04-06T14:01:22Z</time></trkpt><trkpt lat="45.87539755707623" lon="10.882504354473387"><ele>104.0</ele><time>2026-04-06T14:01:23Z</time></trkpt><trkpt lat="45.875501340055976" lon="10.88260266024624"><ele>104.0</ele><time>2026-04-06T14:01:24Z</time></trkpt><trkpt lat="45.875606711896566" lon="10.882705104304744"><ele>106.5</ele><time>2026-04-06T14:01:25Z</time></trkpt><trkpt lat="45.87570979373508" lon="10.88280667896696"><ele>109.0</ele><time>2026-04-06T14:01:26Z</time></trkpt><trkpt lat="45.8758151455878" lon="10.882905135455161"><ele>111.5</ele><time>2026-04-06T14:01:27Z</time></trkpt><trkpt lat="45.87592425692884" lon="10.883002799447064"><ele>114.0</ele><time>2026-04-06T14:01:28Z</time></trkpt><trkpt lat="45.876032695987405" lon="10.883110021045738"><ele>114.0</ele><time>2026-04-06T14:01:29Z</time></trkpt><trkpt lat="45.87614500209842" lon="10.883214966394927"><ele>114.0</ele><time>2026-04-06T14:01:30Z</time></trkpt><trkpt lat="45.876259152213066" lon="10.883324419238697"><ele>114.0</ele><time>2026-04-06T14:01:31Z</time></trkpt><trkpt lat="45.87637198776836" lon="10.88343357158534"><ele>114.0</ele><time>2026-04-06T14:01:32Z</time></trkpt><trkpt lat="45.87647886137847" lon="10.883538665910672"><ele>117.75</ele><time>2026-04-06T14:01:33Z</time></trkpt><trkpt lat="45.8765823173441" lon="10.883638923340797"><ele>121.5</ele><time>2026-04-06T14:01:34Z</time></trkpt><trkpt lat="45.87668945808657" lon="10.883736443461496"><ele>125.25</ele><time>2026-04-06T14:01:35Z</time></trkpt><trkpt lat="45.87680131742729" lon="10.883835056897137"><ele>129.0</ele><time>2026-04-06T14:01:36Z</time></trkpt><trkpt lat="45.87690727376072" lon="10.883933115477728"><ele>129.0</ele><time>2026-04-06T14:01:37Z</time></trkpt><trkpt lat="45.87699724330783" lon="10.884019517251977"><ele>129.0</ele><time>2026-04-06T14:01:38Z</time></trkpt><trkpt lat="45.87708611897443" lon="10.884108311736277"><ele>129.0</ele><time>2026-04-06T14:01:39Z</time></trkpt><trkpt lat="45.877180597650636" lon="10.884202691310422"><ele>129.0</ele><time>2026-04-06T14:01:40Z</time></trkpt><trkpt lat="45.87727842041284" lon="10.88429586309004"><ele>129.0</ele><time>2026-04-06T14:01:41Z</time></trkpt><trkpt lat="45.8773723273746" lon="10.884382043452346"><ele>130.8</ele><time>2026-04-06T14:01:42Z</time></trkpt><trkpt lat="45.877461763900705" lon="10.884462339470831"><ele>132.60000000000002</ele><time>2026-04-06T14:01:43Z</time></trkpt><trkpt lat="45.8775399878092" lon="10.884536715199276"><ele>134.4</ele><time>2026-04-06T14:01:44Z</time></trkpt><trkpt lat="45.87761990611223" lon="10.884614751672169"><ele>136.20000000000002</ele><time>2026-04-06T14:01:45Z</time></trkpt><trkpt lat="45.877697832270464" lon="10.884692665633413"><ele>138.0</ele><time>2026-04-06T14:01:46Z</time></trkpt><trkpt lat="45.87777734814835" lon="10.884767219643045"><ele>138.0</ele><time>2026-04-06T14:01:47Z</time></trkpt><trkpt lat="45.87784443676385" lon="10.884829353852833"><ele>138.0</ele><time>2026-04-06T14:01:48Z</time></trkpt><trkpt lat="45.87790533151059" lon="10.884897104703192"><ele>138.0</ele><time>2026-04-06T14:01:49Z</time></trkpt><trkpt lat="45.87796617686967" lon="10.88497998460275"><ele>138.0</ele><time>2026-04-06T14:01:50Z</time></trkpt><trkpt lat="45.878028078572235" lon="10.88505917396475"><ele>138.0</ele><time>2026-04-06T14:01:51Z</time></trkpt><trkpt lat="45.87808354453897" lon="10.885136446473375"><ele>138.0</ele><time>2026-04-06T14:01:52Z</time></trkpt><trkpt lat="45.878133755117624" lon="10.885222498350398"><ele>142.66666666666666</ele><time>2026-04-06T14:01:53Z</time></trkpt><trkpt lat="45.878186494138404" lon="10.885312111724792"><ele>147.33333333333334</ele><time>2026-04-06T14:01:54Z</time></trkpt><trkpt lat="45.87823882376616" lon="10.885409022431526"><ele>152.0</ele><time>2026-04-06T14:01:55Z</time></trkpt><trkpt lat="45.87828135309732" lon="10.885528593584437"><ele>156.66666666666669</ele><time>2026-04-06T14:01:56Z</time></trkpt><trkpt lat="45.87831800655671" lon="10.885644071766281"><ele>161.33333333333334</ele><time>2026-04-06T14:01:57Z</time></trkpt><trkpt lat="45.878356987352255" lon="10.885773689975377"><ele>166.0</ele><time>2026-04-06T14:01:58Z</time></trkpt><trkpt lat="45.87839003742249" lon="10.885897279197808"><ele>166.83333333333334</ele><time>2026-04-06T14:01:59Z</time></trkpt><trkpt lat="45.87845325072915" lon="10.886028410766103"><ele>167.66666666666669</ele><time>2026-04-06T14:02:00Z</time></trkpt><trkpt lat="45.878496909076695" lon="10.886103979630416"><ele>168.5</ele><time>2026-04-06T14:02:01Z</time></trkpt><trkpt lat="45.878536656399866" lon="10.886191424104336"><ele>169.33333333333334</ele><time>2026-04-06T14:02:02Z</time></trkpt><trkpt lat="45.87858229668642" lon="10.886289109948802"><ele>170.16666666666666</ele><time>2026-04-06T14:02:03Z</time></trkpt><trkpt lat="45.87862294223746" lon="10.886375378063553"><ele>171.0</ele><time>2026-04-06T14:02:04Z</time></trkpt><trkpt lat="45.87867520451595" lon="10.886445963474685"><ele>171.0</ele><time>2026-04-06T14:02:05Z</time></trkpt><trkpt lat="45.87874069275074" lon="10.886511448510806"><ele>171.0</ele><time>2026-04-06T14:02:06Z</time></trkpt><trkpt lat="45.87881939895846" lon="10.88656035941843"><ele>171.0</ele><time>2026-04-06T14:02:07Z</time></trkpt><trkpt lat="45.87890355392003" lon="10.886598914190444"><ele>171.0</ele><time>2026-04-06T14:02:08Z</time></trkpt><trkpt lat="45.87898606935806" lon="10.886618653980154"><ele>171.0</ele><time>2026-04-06T14:02:09Z</time></trkpt><trkpt lat="45.879067833461576" lon="10.88664163462952"><ele>171.0</ele><time>2026-04-06T14:02:10Z</time></trkpt><trkpt lat="45.87915273037133" lon="10.886596751907874"><ele>171.0</ele><time>2026-04-06T14:02:11Z</time></trkpt><trkpt lat="45.87923402145431" lon="10.886553426995075"><ele>171.0</ele><time>2026-04-06T14:02:12Z</time></trkpt><trkpt lat="45.87931787567929" lon="10.886505738850207"><ele>171.0</ele><time>2026-04-06T14:02:13Z</time></trkpt><trkpt lat="45.87938785153109" lon="10.88642433515351"><ele>171.0</ele><time>2026-04-06T14:02:14Z</time></trkpt><trkpt lat="45.879450686890756" lon="10.88632323703225"><ele>171.0</ele><time>2026-04-06T14:02:15Z</time></trkpt><trkpt lat="45.879515874792766" lon="10.886196944442199"><ele>173.0</ele><time>2026-04-06T14:02:16Z</time></trkpt><trkpt lat="45.87959433490614" lon="10.886043226598701"><ele>175.0</ele><time>2026-04-06T14:02:17Z</time></trkpt><trkpt lat="45.87967307273346" lon="10.885888224161446"><ele>177.0</ele><time>2026-04-06T14:02:18Z</time></trkpt><trkpt lat="45.87974580029578" lon="10.885744947990435"><ele>179.0</ele><time>2026-04-06T14:02:19Z</time></trkpt><trkpt lat="45.879809437129474" lon="10.885618348719106"><ele>179.0</ele><time>2026-04-06T14:02:20Z</time></trkpt><trkpt lat="45.87987646531879" lon="10.88548545558587"><ele>179.0</ele><time>2026-04-06T14:02:21Z</time></trkpt><trkpt lat="45.8799326359754" lon="10.885374089056018"><ele>179.0</ele><time>2026-04-06T14:02:22Z</time></trkpt><trkpt lat="45.879979233999585" lon="10.885281445596966"><ele>179.0</ele><time>2026-04-06T14:02:23Z</time></trkpt><trkpt lat="45.88001933399935" lon="10.885201610010489"><ele>179.0</ele><time>2026-04-06T14:02:24Z</time></trkpt><trkpt lat="45.88006071470175" lon="10.885121509027092"><ele>179.0</ele><time>2026-04-06T14:02:25Z</time></trkpt><trkpt lat="45.88010654055065" lon="10.885036047454886"><ele>177.5</ele><time>2026-04-06T14:02:26Z</time></trkpt><trkpt lat="45.880151291472586" lon="10.884963847201792"><ele>176.0</ele><time>2026-04-06T14:02:27Z</time></trkpt><trkpt lat="45.88022854841817" lon="10.884871093200914"><ele>174.5</ele><time>2026-04-06T14:02:29Z</time></trkpt><trkpt lat="45.88030283748626" lon="10.884850075865566"><ele>173.0</ele><time>2026-04-06T14:02:32Z</time></trkpt><trkpt lat="45.880404003654036" lon="10.884863557802332"><ele>171.5</ele><time>2026-04-06T14:02:37Z</time></trkpt><trkpt lat="45.880461807260644" lon="10.884913798384112"><ele>170.0</ele><time>2026-04-06T14:02:39Z</time></trkpt><trkpt lat="45.880520481974756" lon="10.884967380407485"><ele>170.0</ele><time>2026-04-06T14:02:41Z</time></trkpt><trkpt lat="45.88055065967326" lon="10.88506262548546"><ele>170.0</ele><time>2026-04-06T14:02:43Z</time></trkpt><trkpt lat="45.88057397916166" lon="10.885167917661542"><ele>170.0</ele><time>2026-04-06T14:02:46Z</time></trkpt><trkpt lat="45.88057651413963" lon="10.885318098733851"><ele>170.0</ele><time>2026-04-06T14:02:48Z</time></trkpt><trkpt lat="45.88054181771455" lon="10.885413142244586"><ele>170.0</ele><time>2026-04-06T14:02:49Z</time></trkpt><trkpt lat="45.88049733456195" lon="10.8854912702535"><ele>170.0</ele><time>2026-04-06T14:02:50Z</time></trkpt><trkpt lat="45.880454452786765" lon="10.885558094150817"><ele>174.5</ele><time>2026-04-06T14:02:51Z</time></trkpt><trkpt lat="45.880407446298676" lon="10.885635510896325"><ele>179.0</ele><time>2026-04-06T14:02:52Z</time></trkpt><trkpt lat="45.88036242250377" lon="10.88571364336438"><ele>183.5</ele><time>2026-04-06T14:02:53Z</time></trkpt><trkpt lat="45.880292381175984" lon="10.885808870741045"><ele>188.0</ele><time>2026-04-06T14:02:55Z</time></trkpt><trkpt lat="45.880220886565944" lon="10.885908549436477"><ele>192.50000000000003</ele><time>2026-04-06T14:03:03Z</time></trkpt><trkpt lat="45.88017068965915" lon="10.885994238184399"><ele>197.0</ele><time>2026-04-06T14:03:04Z</time></trkpt><trkpt lat="45.8801120101308" lon="10.886077100696358"><ele>197.33333333333334</ele><time>2026-04-06T14:03:05Z</time></trkpt><trkpt lat="45.88005703990691" lon="10.886167599184986"><ele>197.66666666666669</ele><time>2026-04-06T14:03:06Z</time></trkpt><trkpt lat="45.88000207493756" lon="10.886253947567283"><ele>198.0</ele><time>2026-04-06T14:03:07Z</time></trkpt><trkpt lat="45.87995509557772" lon="10.886339930268726"><ele>198.33333333333331</ele><time>2026-04-06T14:03:08Z</time></trkpt><trkpt lat="45.87990869982604" lon="10.88642765098333"><ele>198.66666666666666</ele><time>2026-04-06T14:03:10Z</time></trkpt><trkpt lat="45.879876006048995" lon="10.886533196856778"><ele>199.0</ele><time>2026-04-06T14:03:14Z</time></trkpt><trkpt lat="45.87984873191854" lon="10.886689061114678"><ele>201.99999999999997</ele><time>2026-04-06T14:03:20Z</time></trkpt><trkpt lat="45.87982255055668" lon="10.886793414023478"><ele>205.0</ele><time>2026-04-06T14:03:21Z</time></trkpt><trkpt lat="45.87979237025636" lon="10.88688813990573"><ele>208.0</ele><time>2026-04-06T14:03:22Z</time></trkpt><trkpt lat="45.879759547046355" lon="10.887028476527368"><ele>211.0</ele><time>2026-04-06T14:03:24Z</time></trkpt><trkpt lat="45.879734296028424" lon="10.88713511764886"><ele>213.99999999999997</ele><time>2026-04-06T14:03:26Z</time></trkpt><trkpt lat="45.87970581632329" lon="10.887247712098953"><ele>217.0</ele><time>2026-04-06T14:03:29Z</time></trkpt><trkpt lat="45.879670340135334" lon="10.887331509208527"><ele>216.99999999999997</ele><time>2026-04-06T14:03:33Z</time></trkpt><trkpt lat="45.87961668810138" lon="10.887426164006234"><ele>217.0</ele><time>2026-04-06T14:03:36Z</time></trkpt><trkpt lat="45.87955826757102" lon="10.887495924219833"><ele>217.0</ele><time>2026-04-06T14:03:40Z</time></trkpt><trkpt lat="45.879496708845515" lon="10.887529146632716"><ele>217.0</ele><time>2026-04-06T14:03:43Z</time></trkpt><trkpt lat="45.87937343745255" lon="10.887542163522136"><ele>216.99999999999997</ele><time>2026-04-06T14:03:46Z</time></trkpt><trkpt lat="45.87930669162102" lon="10.887533379951648"><ele>217.0</ele><time>2026-04-06T14:03:47Z</time></trkpt><trkpt lat="45.87917445582976" lon="10.88751394897891"><ele>216.99999999999997</ele><time>2026-04-06T14:03:49Z</time></trkpt><trkpt lat="45.879095688429715" lon="10.887499820261743"><ele>217.0</ele><time>2026-04-06T14:03:50Z</time></trkpt><trkpt lat="45.879027565796555" lon="10.8874911677315"><ele>217.0</ele><time>2026-04-06T14:03:51Z</time></trkpt><trkpt lat="45.878949125537915" lon="10.887489033466824"><ele>217.0</ele><time>2026-04-06T14:03:52Z</time></trkpt><trkpt lat="45.87886886525629" lon="10.887527869083085"><ele>216.99999999999997</ele><time>2026-04-06T14:03:53Z</time></trkpt><trkpt lat="45.878797255024686" lon="10.887549311723761"><ele>217.0</ele><time>2026-04-06T14:03:54Z</time></trkpt><trkpt lat="45.878703080844254" lon="10.88760278635533"><ele>216.99999999999997</ele><time>2026-04-06T14:03:56Z</time></trkpt><trkpt lat="45.87865370389709" lon="10.887660007087065"><ele>217.0</ele><time>2026-04-06T14:03:58Z</time></trkpt><trkpt lat="45.87856257833578" lon="10.88779075891882"><ele>217.0</ele><time>2026-04-06T14:04:00Z</time></trkpt><trkpt lat="45.878520658297525" lon="10.88786666500268"><ele>217.0</ele><time>2026-04-06T14:04:01Z</time></trkpt><trkpt lat="45.87848694898349" lon="10.887950495978284"><ele>216.99999999999997</ele><time>2026-04-06T14:04:02Z</time></trkpt><trkpt lat="45.878446958210645" lon="10.888026409943178"><ele>217.0</ele><time>2026-04-06T14:04:03Z</time></trkpt><trkpt lat="45.87845163711665" lon="10.888123099193823"><ele>216.99999999999997</ele><time>2026-04-06T14:04:04Z</time></trkpt><trkpt lat="45.878446054346604" lon="10.888216185107739"><ele>217.0</ele><time>2026-04-06T14:04:05Z</time></trkpt><trkpt lat="45.878440104919875" lon="10.888309002406123"><ele>217.0</ele><time>2026-04-06T14:04:06Z</time></trkpt><trkpt lat="45.87843945492304" lon="10.888509671320879"><ele>217.0</ele><time>2026-04-06T14:04:08Z</time></trkpt><trkpt lat="45.87844082781013" lon="10.888625193307451"><ele>216.99999999999997</ele><time>2026-04-06T14:04:09Z</time></trkpt><trkpt lat="45.87844265852609" lon="10.888724582706097"><ele>217.0</ele><time>2026-04-06T14:04:10Z</time></trkpt><trkpt lat="45.878434417289895" lon="10.888880496068392"><ele>216.8</ele><time>2026-04-06T14:04:12Z</time></trkpt><trkpt lat="45.87843037338391" lon="10.889012157233728"><ele>216.6</ele><time>2026-04-06T14:04:14Z</time></trkpt><trkpt lat="45.878433511323855" lon="10.889180006284477"><ele>216.40000000000003</ele><time>2026-04-06T14:04:16Z</time></trkpt><trkpt lat="45.87843413032964" lon="10.88932241595195"><ele>216.20000000000002</ele><time>2026-04-06T14:04:18Z</time></trkpt><trkpt lat="45.878435116345955" lon="10.889444778353697"><ele>216.0</ele><time>2026-04-06T14:04:20Z</time></trkpt><trkpt lat="45.878437551997436" lon="10.889573015981917"><ele>217.0</ele><time>2026-04-06T14:04:22Z</time></trkpt><trkpt lat="45.87844038634735" lon="10.889705869651195"><ele>218.0</ele><time>2026-04-06T14:04:24Z</time></trkpt><trkpt lat="45.878444219123296" lon="10.889862772165898"><ele>219.0</ele><time>2026-04-06T14:04:26Z</time></trkpt><trkpt lat="45.87844318326818" lon="10.889955495146605"><ele>220.0</ele><time>2026-04-06T14:04:27Z</time></trkpt><trkpt lat="45.87844542793385" lon="10.890057425633943"><ele>221.0</ele><time>2026-04-06T14:04:28Z</time></trkpt><trkpt lat="45.878447409367155" lon="10.890171198404058"><ele>222.0</ele><time>2026-04-06T14:04:29Z</time></trkpt><trkpt lat="45.878452349079836" lon="10.89030407129617"><ele>222.33333333333334</ele><time>2026-04-06T14:04:30Z</time></trkpt><trkpt lat="45.87845597490019" lon="10.890436153545574"><ele>222.66666666666669</ele><time>2026-04-06T14:04:31Z</time></trkpt><trkpt lat="45.8784544153991" lon="10.890556678798998"><ele>223.0</ele><time>2026-04-06T14:04:32Z</time></trkpt><trkpt lat="45.87845352076102" lon="10.890662179426442"><ele>223.33333333333334</ele><time>2026-04-06T14:04:33Z</time></trkpt><trkpt lat="45.878453453595306" lon="10.89076384741189"><ele>223.66666666666669</ele><time>2026-04-06T14:04:34Z</time></trkpt><trkpt lat="45.878455390520614" lon="10.890869263486179"><ele>224.0</ele><time>2026-04-06T14:04:35Z</time></trkpt><trkpt lat="45.87845540490754" lon="10.890971873441863"><ele>224.0</ele><time>2026-04-06T14:04:36Z</time></trkpt><trkpt lat="45.87845659679625" lon="10.89107635861455"><ele>224.0</ele><time>2026-04-06T14:04:37Z</time></trkpt><trkpt lat="45.87845907137804" lon="10.891180318216175"><ele>224.0</ele><time>2026-04-06T14:04:38Z</time></trkpt><trkpt lat="45.87846079076418" lon="10.891284135958768"><ele>224.0</ele><time>2026-04-06T14:04:39Z</time></trkpt><trkpt lat="45.878460703655875" lon="10.891390721901427"><ele>224.0</ele><time>2026-04-06T14:04:40Z</time></trkpt><trkpt lat="45.87846197966169" lon="10.891495499217664"><ele>224.0</ele><time>2026-04-06T14:04:41Z</time></trkpt><trkpt lat="45.878459927176635" lon="10.891598903378307"><ele>224.0</ele><time>2026-04-06T14:04:42Z</time></trkpt><trkpt lat="45.87845650756509" lon="10.891705368027573"><ele>224.00000000000003</ele><time>2026-04-06T14:04:43Z</time></trkpt><trkpt lat="45.87845119365203" lon="10.891809089803514"><ele>224.0</ele><time>2026-04-06T14:04:44Z</time></trkpt><trkpt lat="45.87844398230271" lon="10.891905728775777"><ele>224.0</ele><time>2026-04-06T14:04:45Z</time></trkpt><trkpt lat="45.87843635810335" lon="10.891999725340044"><ele>224.0</ele><time>2026-04-06T14:04:46Z</time></trkpt><trkpt lat="45.87842420154873" lon="10.892153681747372"><ele>224.00000000000003</ele><time>2026-04-06T14:04:48Z</time></trkpt><trkpt lat="45.87841293836642" lon="10.892277161555274"><ele>224.0</ele><time>2026-04-06T14:04:50Z</time></trkpt><trkpt lat="45.87839650111306" lon="10.892410160490503"><ele>224.00000000000003</ele><time>2026-04-06T14:04:52Z</time></trkpt><trkpt lat="45.87837586265665" lon="10.892529323576717"><ele>224.0</ele><time>2026-04-06T14:04:55Z</time></trkpt><trkpt lat="45.87835737028946" lon="10.892640645251046"><ele>224.0</ele><time>2026-04-06T14:04:58Z</time></trkpt><trkpt lat="45.87833254876987" lon="10.892769318222031"><ele>224.0</ele><time>2026-04-06T14:05:00Z</time></trkpt><trkpt lat="45.878296294555895" lon="10.892942740377611"><ele>224.00000000000003</ele><time>2026-04-06T14:05:02Z</time></trkpt><trkpt lat="45.878278680586895" lon="10.893030827292302"><ele>224.0</ele><time>2026-04-06T14:05:03Z</time></trkpt><trkpt lat="45.87824523850589" lon="10.893197638159656"><ele>223.75</ele><time>2026-04-06T14:05:05Z</time></trkpt><trkpt lat="45.878211788641266" lon="10.8933772454049"><ele>223.5</ele><time>2026-04-06T14:05:07Z</time></trkpt><trkpt lat="45.87817901188019" lon="10.89354053388617"><ele>223.25</ele><time>2026-04-06T14:05:09Z</time></trkpt><trkpt lat="45.87815212877317" lon="10.8936856100546"><ele>223.0</ele><time>2026-04-06T14:05:11Z</time></trkpt><trkpt lat="45.8781312923909" lon="10.893824012728576"><ele>223.0</ele><time>2026-04-06T14:05:13Z</time></trkpt><trkpt lat="45.87811242694854" lon="10.893970987044707"><ele>223.0</ele><time>2026-04-06T14:05:15Z</time></trkpt><trkpt lat="45.87809976232497" lon="10.894174920902552"><ele>223.0</ele><time>2026-04-06T14:05:17Z</time></trkpt><trkpt lat="45.87809372984246" lon="10.894305007273957"><ele>223.0</ele><time>2026-04-06T14:05:18Z</time></trkpt><trkpt lat="45.878086148095655" lon="10.894434510557627"><ele>223.0</ele><time>2026-04-06T14:05:19Z</time></trkpt><trkpt lat="45.87807982808572" lon="10.894540484677675"><ele>223.0</ele><time>2026-04-06T14:05:20Z</time></trkpt><trkpt lat="45.87806888126359" lon="10.894684021037312"><ele>223.0</ele><time>2026-04-06T14:05:22Z</time></trkpt><trkpt lat="45.87806382675411" lon="10.894830845280387"><ele>223.0</ele><time>2026-04-06T14:05:24Z</time></trkpt><trkpt lat="45.878059885212735" lon="10.894988370075017"><ele>223.0</ele><time>2026-04-06T14:05:26Z</time></trkpt><trkpt lat="45.878060579810416" lon="10.895111842081194"><ele>223.0</ele><time>2026-04-06T14:05:28Z</time></trkpt><trkpt lat="45.87805523607798" lon="10.895233068229992"><ele>222.99999999999997</ele><time>2026-04-06T14:05:30Z</time></trkpt><trkpt lat="45.87805221266606" lon="10.895340930059389"><ele>223.0</ele><time>2026-04-06T14:05:32Z</time></trkpt><trkpt lat="45.87804694642515" lon="10.895452772735432"><ele>223.0</ele><time>2026-04-06T14:05:34Z</time></trkpt><trkpt lat="45.87804218757477" lon="10.895580841522568"><ele>223.0</ele><time>2026-04-06T14:05:36Z</time></trkpt><trkpt lat="45.878045326195085" lon="10.895689663802269"><ele>222.99999999999997</ele><time>2026-04-06T14:05:38Z</time></trkpt><trkpt lat="45.87804441617069" lon="10.895785921569326"><ele>223.0</ele><time>2026-04-06T14:05:40Z</time></trkpt><trkpt lat="45.87804677152941" lon="10.895938398551568"><ele>223.16666666666666</ele><time>2026-04-06T14:05:42Z</time></trkpt><trkpt lat="45.87804892003177" lon="10.896055847147943"><ele>223.33333333333331</ele><time>2026-04-06T14:05:43Z</time></trkpt><trkpt lat="45.87803956528906" lon="10.896175317785113"><ele>223.5</ele><time>2026-04-06T14:05:44Z</time></trkpt><trkpt lat="45.87802674817763" lon="10.896302941177641"><ele>223.66666666666669</ele><time>2026-04-06T14:05:45Z</time></trkpt><trkpt lat="45.87801597626052" lon="10.896434299654992"><ele>223.83333333333334</ele><time>2026-04-06T14:05:46Z</time></trkpt><trkpt lat="45.87800860735653" lon="10.89656837137927"><ele>224.0</ele><time>2026-04-06T14:05:47Z</time></trkpt><trkpt lat="45.878001384651476" lon="10.896688861853841"><ele>224.33333333333334</ele><time>2026-04-06T14:05:48Z</time></trkpt><trkpt lat="45.877981853694344" lon="10.896796088245997"><ele>224.66666666666669</ele><time>2026-04-06T14:05:49Z</time></trkpt><trkpt lat="45.877943872661085" lon="10.896894645287157"><ele>225.0</ele><time>2026-04-06T14:05:50Z</time></trkpt><trkpt lat="45.87790683608536" lon="10.89698994348803"><ele>225.33333333333331</ele><time>2026-04-06T14:05:51Z</time></trkpt><trkpt lat="45.87789156019845" lon="10.897103241768285"><ele>225.66666666666666</ele><time>2026-04-06T14:05:52Z</time></trkpt><trkpt lat="45.877909303195324" lon="10.897215132148057"><ele>226.0</ele><time>2026-04-06T14:05:53Z</time></trkpt><trkpt lat="45.87794658249642" lon="10.89732987920126"><ele>226.0</ele><time>2026-04-06T14:05:54Z</time></trkpt><trkpt lat="45.877980465981594" lon="10.897461643962908"><ele>226.00000000000003</ele><time>2026-04-06T14:05:55Z</time></trkpt><trkpt lat="45.87798950873338" lon="10.897605648331593"><ele>226.00000000000003</ele><time>2026-04-06T14:05:56Z</time></trkpt><trkpt lat="45.87799149807591" lon="10.89774705324591"><ele>226.0</ele><time>2026-04-06T14:05:57Z</time></trkpt><trkpt lat="45.877987660152215" lon="10.897883258738679"><ele>226.0</ele><time>2026-04-06T14:05:58Z</time></trkpt><trkpt lat="45.87798411068299" lon="10.898028943490834"><ele>226.20000000000002</ele><time>2026-04-06T14:05:59Z</time></trkpt><trkpt lat="45.877980577301955" lon="10.89818275679403"><ele>226.40000000000003</ele><time>2026-04-06T14:06:00Z</time></trkpt><trkpt lat="45.87797539736901" lon="10.898338409010142"><ele>226.6</ele><time>2026-04-06T14:06:01Z</time></trkpt><trkpt lat="45.877973174508014" lon="10.89849581021499"><ele>226.8</ele><time>2026-04-06T14:06:02Z</time></trkpt><trkpt lat="45.87797029114401" lon="10.898650968505963"><ele>227.0</ele><time>2026-04-06T14:06:03Z</time></trkpt><trkpt lat="45.87796552117641" lon="10.898800436524041"><ele>227.2</ele><time>2026-04-06T14:06:04Z</time></trkpt><trkpt lat="45.87796054363006" lon="10.898948560818537"><ele>227.39999999999998</ele><time>2026-04-06T14:06:05Z</time></trkpt><trkpt lat="45.87795710932767" lon="10.899097954376659"><ele>227.60000000000002</ele><time>2026-04-06T14:06:06Z</time></trkpt><trkpt lat="45.87795219459237" lon="10.89924657040995"><ele>227.8</ele><time>2026-04-06T14:06:07Z</time></trkpt><trkpt lat="45.87794765951266" lon="10.899395811699025"><ele>228.0</ele><time>2026-04-06T14:06:08Z</time></trkpt><trkpt lat="45.87794623731666" lon="10.89955937959292"><ele>228.75</ele><time>2026-04-06T14:06:09Z</time></trkpt><trkpt lat="45.877945508824375" lon="10.899746047499459"><ele>229.5</ele><time>2026-04-06T14:06:10Z</time></trkpt><trkpt lat="45.87794463316211" lon="10.899951291890648"><ele>230.25</ele><time>2026-04-06T14:06:11Z</time></trkpt><trkpt lat="45.87793854419475" lon="10.900166999705931"><ele>231.0</ele><time>2026-04-06T14:06:12Z</time></trkpt><trkpt lat="45.877929032249604" lon="10.900383297682035"><ele>233.0</ele><time>2026-04-06T14:06:13Z</time></trkpt><trkpt lat="45.877919374699054" lon="10.900593209637517"><ele>235.0</ele><time>2026-04-06T14:06:14Z</time></trkpt><trkpt lat="45.8779077907538" lon="10.900796735118282"><ele>237.0</ele><time>2026-04-06T14:06:15Z</time></trkpt><trkpt lat="45.87789282719855" lon="10.900996191199425"><ele>239.0</ele><time>2026-04-06T14:06:16Z</time></trkpt><trkpt lat="45.87786841701953" lon="10.901194280760205"><ele>240.75</ele><time>2026-04-06T14:06:17Z</time></trkpt><trkpt lat="45.877831818281045" lon="10.90138576611398"><ele>242.5</ele><time>2026-04-06T14:06:18Z</time></trkpt><trkpt lat="45.877785595050085" lon="10.901571003372416"><ele>244.25</ele><time>2026-04-06T14:06:19Z</time></trkpt><trkpt lat="45.87773209951407" lon="10.90174187400335"><ele>246.0</ele><time>2026-04-06T14:06:20Z</time></trkpt><trkpt lat="45.87767159398433" lon="10.901909827319646"><ele>247.33333333333331</ele><time>2026-04-06T14:06:21Z</time></trkpt><trkpt lat="45.87759946313701" lon="10.902092094519467"><ele>248.66666666666666</ele><time>2026-04-06T14:06:22Z</time></trkpt><trkpt lat="45.877513878427415" lon="10.902278904891622"><ele>250.0</ele><time>2026-04-06T14:06:23Z</time></trkpt><trkpt lat="45.87742210599109" lon="10.902478615664702"><ele>252.33333333333331</ele><time>2026-04-06T14:06:24Z</time></trkpt><trkpt lat="45.8773284970726" lon="10.902686278860777"><ele>254.66666666666669</ele><time>2026-04-06T14:06:25Z</time></trkpt><trkpt lat="45.877233439054294" lon="10.902901132907795"><ele>257.0</ele><time>2026-04-06T14:06:26Z</time></trkpt><trkpt lat="45.87713311521689" lon="10.903122522386127"><ele>257.0</ele><time>2026-04-06T14:06:27Z</time></trkpt><trkpt lat="45.87702972732543" lon="10.903345808295883"><ele>257.0</ele><time>2026-04-06T14:06:28Z</time></trkpt><trkpt lat="45.87692470832902" lon="10.903571409181763"><ele>257.0</ele><time>2026-04-06T14:06:29Z</time></trkpt><trkpt lat="45.87681988652637" lon="10.903787125353354"><ele>259.33333333333337</ele><time>2026-04-06T14:06:30Z</time></trkpt><trkpt lat="45.87672149553295" lon="10.904000502265331"><ele>261.6666666666667</ele><time>2026-04-06T14:06:31Z</time></trkpt><trkpt lat="45.87662651259855" lon="10.904207799325661"><ele>264.0</ele><time>2026-04-06T14:06:32Z</time></trkpt><trkpt lat="45.876531194703205" lon="10.90441356566608"><ele>267.3333333333333</ele><time>2026-04-06T14:06:33Z</time></trkpt><trkpt lat="45.876428434313226" lon="10.904600624690286"><ele>270.66666666666663</ele><time>2026-04-06T14:06:34Z</time></trkpt><trkpt lat="45.876313105648876" lon="10.90476900672017"><ele>274.0</ele><time>2026-04-06T14:06:35Z</time></trkpt><trkpt lat="45.87617918068932" lon="10.904909348081844"><ele>274.0</ele><time>2026-04-06T14:06:36Z</time></trkpt><trkpt lat="45.87603562225007" lon="10.905024312506677"><ele>274.0</ele><time>2026-04-06T14:06:37Z</time></trkpt><trkpt lat="45.87588039508155" lon="10.905113364542238"><ele>274.0</ele><time>2026-04-06T14:06:38Z</time></trkpt><trkpt lat="45.87571968661528" lon="10.9051705784942"><ele>274.0</ele><time>2026-04-06T14:06:39Z</time></trkpt><trkpt lat="45.87556163556925" lon="10.905216429558285"><ele>274.0</ele><time>2026-04-06T14:06:40Z</time></trkpt><trkpt lat="45.87542127157572" lon="10.9052455856408"><ele>274.0</ele><time>2026-04-06T14:06:41Z</time></trkpt><trkpt lat="45.875294042540375" lon="10.905274631295978"><ele>274.0</ele><time>2026-04-06T14:06:42Z</time></trkpt><trkpt lat="45.875173736895064" lon="10.905303485359793"><ele>273.75</ele><time>2026-04-06T14:06:43Z</time></trkpt><trkpt lat="45.875055781003645" lon="10.905336695416041"><ele>273.5</ele><time>2026-04-06T14:06:44Z</time></trkpt><trkpt lat="45.87493676484208" lon="10.905372306807479"><ele>273.25</ele><time>2026-04-06T14:06:45Z</time></trkpt><trkpt lat="45.87481952557787" lon="10.905405983168606"><ele>273.0</ele><time>2026-04-06T14:06:46Z</time></trkpt><trkpt lat="45.8747088983889" lon="10.905442699581615"><ele>273.0</ele><time>2026-04-06T14:06:47Z</time></trkpt><trkpt lat="45.8745997207047" lon="10.905490898913705"><ele>273.0</ele><time>2026-04-06T14:06:48Z</time></trkpt><trkpt lat="45.87449626883174" lon="10.905562243932275"><ele>273.0</ele><time>2026-04-06T14:06:49Z</time></trkpt><trkpt lat="45.8743916157123" lon="10.905667863224574"><ele>273.0</ele><time>2026-04-06T14:06:50Z</time></trkpt><trkpt lat="45.874295839025365" lon="10.905801824808536"><ele>274.0</ele><time>2026-04-06T14:06:51Z</time></trkpt><trkpt lat="45.87420261859132" lon="10.905947761425969"><ele>275.0</ele><time>2026-04-06T14:06:52Z</time></trkpt><trkpt lat="45.87411448948521" lon="10.906105184166051"><ele>276.0</ele><time>2026-04-06T14:06:53Z</time></trkpt><trkpt lat="45.87402976743429" lon="10.906258564174328"><ele>277.0</ele><time>2026-04-06T14:06:54Z</time></trkpt><trkpt lat="45.87394822460373" lon="10.906396509152156"><ele>277.0</ele><time>2026-04-06T14:06:55Z</time></trkpt><trkpt lat="45.87386799622477" lon="10.906529087049805"><ele>277.0</ele><time>2026-04-06T14:06:56Z</time></trkpt><trkpt lat="45.87378715815684" lon="10.906662649034253"><ele>277.0</ele><time>2026-04-06T14:06:57Z</time></trkpt><trkpt lat="45.873699504239205" lon="10.906791580156069"><ele>277.0</ele><time>2026-04-06T14:06:58Z</time></trkpt><trkpt lat="45.873610674940885" lon="10.90692468395117"><ele>278.0</ele><time>2026-04-06T14:06:59Z</time></trkpt><trkpt lat="45.87351259117023" lon="10.907028293398474"><ele>279.0</ele><time>2026-04-06T14:07:00Z</time></trkpt><trkpt lat="45.87340138029518" lon="10.90711064113185"><ele>280.0</ele><time>2026-04-06T14:07:01Z</time></trkpt><trkpt lat="45.873288044651055" lon="10.907169252967082"><ele>281.0</ele><time>2026-04-06T14:07:02Z</time></trkpt><trkpt lat="45.87317185376847" lon="10.90721332845475"><ele>278.5</ele><time>2026-04-06T14:07:03Z</time></trkpt><trkpt lat="45.87304336215253" lon="10.907262575665824"><ele>276.0</ele><time>2026-04-06T14:07:04Z</time></trkpt><trkpt lat="45.872904118234004" lon="10.907319977413746"><ele>273.5</ele><time>2026-04-06T14:07:05Z</time></trkpt><trkpt lat="45.87274338253779" lon="10.907391344886436"><ele>271.0</ele><time>2026-04-06T14:07:06Z</time></trkpt><trkpt lat="45.872569819094984" lon="10.907453629250561"><ele>269.66666666666663</ele><time>2026-04-06T14:07:07Z</time></trkpt><trkpt lat="45.87239480957552" lon="10.907509727434638"><ele>268.3333333333333</ele><time>2026-04-06T14:07:08Z</time></trkpt><trkpt lat="45.87221836989671" lon="10.907573496338708"><ele>267.0</ele><time>2026-04-06T14:07:09Z</time></trkpt><trkpt lat="45.872031964047245" lon="10.907648416691828"><ele>262.6666666666667</ele><time>2026-04-06T14:07:10Z</time></trkpt><trkpt lat="45.87184576065485" lon="10.907720397792021"><ele>258.33333333333337</ele><time>2026-04-06T14:07:11Z</time></trkpt><trkpt lat="45.87166667760678" lon="10.907783994082516"><ele>254.0</ele><time>2026-04-06T14:07:12Z</time></trkpt><trkpt lat="45.87150492365156" lon="10.907836151548727"><ele>253.5</ele><time>2026-04-06T14:07:13Z</time></trkpt><trkpt lat="45.8713627878508" lon="10.907881073325282"><ele>253.0</ele><time>2026-04-06T14:07:14Z</time></trkpt><trkpt lat="45.871220780235596" lon="10.907908509498771"><ele>252.5</ele><time>2026-04-06T14:07:15Z</time></trkpt><trkpt lat="45.87107644036376" lon="10.90791892692026"><ele>252.0</ele><time>2026-04-06T14:07:16Z</time></trkpt><trkpt lat="45.870922814465764" lon="10.907907711420643"><ele>251.25</ele><time>2026-04-06T14:07:17Z</time></trkpt><trkpt lat="45.8707751182536" lon="10.907875863642257"><ele>250.5</ele><time>2026-04-06T14:07:18Z</time></trkpt><trkpt lat="45.87064070200252" lon="10.907848636474833"><ele>249.75</ele><time>2026-04-06T14:07:19Z</time></trkpt><trkpt lat="45.87051123553746" lon="10.907805669816447"><ele>249.0</ele><time>2026-04-06T14:07:20Z</time></trkpt><trkpt lat="45.870376927792144" lon="10.907780888602721"><ele>249.0</ele><time>2026-04-06T14:07:21Z</time></trkpt><trkpt lat="45.87023426923586" lon="10.907748049942139"><ele>249.0</ele><time>2026-04-06T14:07:22Z</time></trkpt><trkpt lat="45.87009486422388" lon="10.907716851903821"><ele>249.0</ele><time>2026-04-06T14:07:23Z</time></trkpt><trkpt lat="45.86996179686378" lon="10.907683535984287"><ele>249.0</ele><time>2026-04-06T14:07:24Z</time></trkpt><trkpt lat="45.86982748912377" lon="10.907638266876253"><ele>247.75</ele><time>2026-04-06T14:07:25Z</time></trkpt><trkpt lat="45.86969965297484" lon="10.907583595801803"><ele>246.5</ele><time>2026-04-06T14:07:26Z</time></trkpt><trkpt lat="45.86957755162847" lon="10.907511645950649"><ele>245.25</ele><time>2026-04-06T14:07:27Z</time></trkpt><trkpt lat="45.86946090925213" lon="10.907416987174363"><ele>244.0</ele><time>2026-04-06T14:07:28Z</time></trkpt><trkpt lat="45.86935053050202" lon="10.907311064554209"><ele>244.5</ele><time>2026-04-06T14:07:29Z</time></trkpt><trkpt lat="45.869243156417056" lon="10.907197482857471"><ele>245.0</ele><time>2026-04-06T14:07:30Z</time></trkpt><trkpt lat="45.869133880385824" lon="10.907088843185068"><ele>245.5</ele><time>2026-04-06T14:07:31Z</time></trkpt><trkpt lat="45.869024257093365" lon="10.906993207966677"><ele>246.0</ele><time>2026-04-06T14:07:32Z</time></trkpt><trkpt lat="45.86891423440728" lon="10.906907619822965"><ele>246.0</ele><time>2026-04-06T14:07:33Z</time></trkpt><trkpt lat="45.86880826471989" lon="10.906855952519525"><ele>246.0</ele><time>2026-04-06T14:07:34Z</time></trkpt><trkpt lat="45.868698118795876" lon="10.906838150448278"><ele>246.0</ele><time>2026-04-06T14:07:35Z</time></trkpt><trkpt lat="45.868582966263126" lon="10.9068633465828"><ele>246.0</ele><time>2026-04-06T14:07:36Z</time></trkpt><trkpt lat="45.86847219754023" lon="10.906926064785933"><ele>246.0</ele><time>2026-04-06T14:07:37Z</time></trkpt><trkpt lat="45.8683746318347" lon="10.907009024270458"><ele>246.0</ele><time>2026-04-06T14:07:38Z</time></trkpt><trkpt lat="45.86828788308514" lon="10.907120954785766"><ele>246.0</ele><time>2026-04-06T14:07:39Z</time></trkpt><trkpt lat="45.86822710469172" lon="10.90727327251952"><ele>246.0</ele><time>2026-04-06T14:07:40Z</time></trkpt><trkpt lat="45.8681823677475" lon="10.907424961646399"><ele>245.0</ele><time>2026-04-06T14:07:41Z</time></trkpt><trkpt lat="45.868162069654815" lon="10.907584668543235"><ele>244.0</ele><time>2026-04-06T14:07:42Z</time></trkpt><trkpt lat="45.86815880295425" lon="10.907745832799627"><ele>243.0</ele><time>2026-04-06T14:07:43Z</time></trkpt><trkpt lat="45.86816927253006" lon="10.907923981196861"><ele>242.0</ele><time>2026-04-06T14:07:44Z</time></trkpt><trkpt lat="45.86818530365457" lon="10.908093425699187"><ele>242.0</ele><time>2026-04-06T14:07:45Z</time></trkpt><trkpt lat="45.868206641619864" lon="10.908255077939138"><ele>242.0</ele><time>2026-04-06T14:07:46Z</time></trkpt><trkpt lat="45.86822711386189" lon="10.90842174293425"><ele>242.0</ele><time>2026-04-06T14:07:47Z</time></trkpt><trkpt lat="45.86824633953858" lon="10.908583020002489"><ele>242.0</ele><time>2026-04-06T14:07:48Z</time></trkpt><trkpt lat="45.8682690364833" lon="10.90873613386587"><ele>243.0</ele><time>2026-04-06T14:07:49Z</time></trkpt><trkpt lat="45.86829695803808" lon="10.908894670865141"><ele>244.0</ele><time>2026-04-06T14:07:50Z</time></trkpt><trkpt lat="45.86833246232215" lon="10.909038505992278"><ele>245.0</ele><time>2026-04-06T14:07:51Z</time></trkpt><trkpt lat="45.868371842253865" lon="10.909165544128676"><ele>246.0</ele><time>2026-04-06T14:07:52Z</time></trkpt><trkpt lat="45.868409663027926" lon="10.909285360252252"><ele>247.0</ele><time>2026-04-06T14:07:53Z</time></trkpt><trkpt lat="45.86844849547009" lon="10.90940144417132"><ele>243.66666666666666</ele><time>2026-04-06T14:07:54Z</time></trkpt><trkpt lat="45.868486153893656" lon="10.90951815028097"><ele>240.33333333333331</ele><time>2026-04-06T14:07:55Z</time></trkpt><trkpt lat="45.868522714744245" lon="10.909630425257912"><ele>237.0</ele><time>2026-04-06T14:07:56Z</time></trkpt><trkpt lat="45.86856369225974" lon="10.909747761731717"><ele>233.66666666666669</ele><time>2026-04-06T14:07:57Z</time></trkpt><trkpt lat="45.86860289547171" lon="10.909857581076105"><ele>230.33333333333334</ele><time>2026-04-06T14:07:58Z</time></trkpt><trkpt lat="45.868639689488376" lon="10.909960895851682"><ele>227.0</ele><time>2026-04-06T14:07:59Z</time></trkpt><trkpt lat="45.86867299628343" lon="10.910061417395832"><ele>227.42857142857144</ele><time>2026-04-06T14:08:00Z</time></trkpt><trkpt lat="45.86870534096683" lon="10.910156578145228"><ele>227.8571428571429</ele><time>2026-04-06T14:08:01Z</time></trkpt><trkpt lat="45.868737665661826" lon="10.910247504723593"><ele>228.28571428571428</ele><time>2026-04-06T14:08:02Z</time></trkpt><trkpt lat="45.86876982238029" lon="10.910340455453097"><ele>228.71428571428572</ele><time>2026-04-06T14:08:03Z</time></trkpt><trkpt lat="45.86879875932998" lon="10.910428343362392"><ele>229.14285714285714</ele><time>2026-04-06T14:08:04Z</time></trkpt><trkpt lat="45.86882761108638" lon="10.910519977870791"><ele>229.57142857142856</ele><time>2026-04-06T14:08:05Z</time></trkpt><trkpt lat="45.868855646855295" lon="10.910616932130221"><ele>229.99999999999997</ele><time>2026-04-06T14:08:06Z</time></trkpt><trkpt lat="45.86887871301581" lon="10.910724197780109"><ele>230.0</ele><time>2026-04-06T14:08:07Z</time></trkpt><trkpt lat="45.86889278632682" lon="10.91084332432731"><ele>230.0</ele><time>2026-04-06T14:08:08Z</time></trkpt><trkpt lat="45.86889661116957" lon="10.910977557565676"><ele>230.0</ele><time>2026-04-06T14:08:09Z</time></trkpt><trkpt lat="45.86889451926909" lon="10.911139158474127"><ele>230.0</ele><time>2026-04-06T14:08:10Z</time></trkpt><trkpt lat="45.86887435448751" lon="10.911312968192995"><ele>230.0</ele><time>2026-04-06T14:08:11Z</time></trkpt><trkpt lat="45.868829029325504" lon="10.911488383842183"><ele>228.33333333333334</ele><time>2026-04-06T14:08:12Z</time></trkpt><trkpt lat="45.86876872759716" lon="10.911668194448046"><ele>226.66666666666669</ele><time>2026-04-06T14:08:13Z</time></trkpt><trkpt lat="45.86869625244648" lon="10.911860923597132"><ele>225.0</ele><time>2026-04-06T14:08:14Z</time></trkpt><trkpt lat="45.86860144028" lon="10.912065891428032"><ele>223.33333333333331</ele><time>2026-04-06T14:08:15Z</time></trkpt><trkpt lat="45.86849246053479" lon="10.912271997766144"><ele>221.66666666666666</ele><time>2026-04-06T14:08:16Z</time></trkpt><trkpt lat="45.86838988763311" lon="10.912479442344829"><ele>220.0</ele><time>2026-04-06T14:08:17Z</time></trkpt><trkpt lat="45.8682931821201" lon="10.912694998573631"><ele>223.66666666666666</ele><time>2026-04-06T14:08:18Z</time></trkpt><trkpt lat="45.86820321887541" lon="10.912916134356632"><ele>227.33333333333331</ele><time>2026-04-06T14:08:19Z</time></trkpt><trkpt lat="45.86812894968634" lon="10.913132120422485"><ele>231.0</ele><time>2026-04-06T14:08:20Z</time></trkpt><trkpt lat="45.868078532047306" lon="10.913346064005317"><ele>229.20000000000002</ele><time>2026-04-06T14:08:21Z</time></trkpt><trkpt lat="45.868058560793656" lon="10.913546151610037"><ele>227.40000000000003</ele><time>2026-04-06T14:08:22Z</time></trkpt><trkpt lat="45.86804513551164" lon="10.91370755574535"><ele>225.6</ele><time>2026-04-06T14:08:23Z</time></trkpt><trkpt lat="45.86803108620327" lon="10.913849021370837"><ele>223.8</ele><time>2026-04-06T14:08:24Z</time></trkpt><trkpt lat="45.868022015310956" lon="10.913969874572565"><ele>222.0</ele><time>2026-04-06T14:08:25Z</time></trkpt><trkpt lat="45.86800481386141" lon="10.914101229215456"><ele>222.0</ele><time>2026-04-06T14:08:26Z</time></trkpt><trkpt lat="45.86798339258734" lon="10.914235002856705"><ele>222.0</ele><time>2026-04-06T14:08:27Z</time></trkpt><trkpt lat="45.86793958906787" lon="10.914361999854837"><ele>222.0</ele><time>2026-04-06T14:08:28Z</time></trkpt><trkpt lat="45.86788021739976" lon="10.914465024702345"><ele>222.0</ele><time>2026-04-06T14:08:29Z</time></trkpt><trkpt lat="45.867807808066765" lon="10.914548766857143"><ele>222.0</ele><time>2026-04-06T14:08:30Z</time></trkpt><trkpt lat="45.867716355183966" lon="10.914616301699466"><ele>222.75</ele><time>2026-04-06T14:08:31Z</time></trkpt><trkpt lat="45.8675918325366" lon="10.914649277946365"><ele>223.5</ele><time>2026-04-06T14:08:32Z</time></trkpt><trkpt lat="45.86746020420575" lon="10.914659992318775"><ele>224.25</ele><time>2026-04-06T14:08:33Z</time></trkpt><trkpt lat="45.86732758105016" lon="10.914665319335583"><ele>225.0</ele><time>2026-04-06T14:08:34Z</time></trkpt><trkpt lat="45.86718692177018" lon="10.914675801515523"><ele>225.0</ele><time>2026-04-06T14:08:35Z</time></trkpt><trkpt lat="45.867055789629525" lon="10.914689179308931"><ele>225.0</ele><time>2026-04-06T14:08:36Z</time></trkpt><trkpt lat="45.866918279036796" lon="10.914703883829556"><ele>225.0</ele><time>2026-04-06T14:08:37Z</time></trkpt><trkpt lat="45.86677706055407" lon="10.914713732512315"><ele>225.0</ele><time>2026-04-06T14:08:38Z</time></trkpt><trkpt lat="45.86663494058702" lon="10.914725525969056"><ele>225.75</ele><time>2026-04-06T14:08:39Z</time></trkpt><trkpt lat="45.8665010838447" lon="10.914737504740582"><ele>226.5</ele><time>2026-04-06T14:08:40Z</time></trkpt><trkpt lat="45.86637357233559" lon="10.91475039379003"><ele>227.25</ele><time>2026-04-06T14:08:41Z</time></trkpt><trkpt lat="45.866248956994156" lon="10.914771983166483"><ele>228.0</ele><time>2026-04-06T14:08:42Z</time></trkpt><trkpt lat="45.8661254386324" lon="10.914811001008294"><ele>228.0</ele><time>2026-04-06T14:08:43Z</time></trkpt><trkpt lat="45.86600836226102" lon="10.914864152075038"><ele>228.0</ele><time>2026-04-06T14:08:44Z</time></trkpt><trkpt lat="45.86589842874301" lon="10.914924618728609"><ele>228.0</ele><time>2026-04-06T14:08:45Z</time></trkpt><trkpt lat="45.86578293936315" lon="10.915000478312868"><ele>228.0</ele><time>2026-04-06T14:08:46Z</time></trkpt><trkpt lat="45.86565800110062" lon="10.915105949678901"><ele>225.33333333333331</ele><time>2026-04-06T14:08:47Z</time></trkpt><trkpt lat="45.865527236757124" lon="10.915232352757688"><ele>222.66666666666666</ele><time>2026-04-06T14:08:48Z</time></trkpt><trkpt lat="45.86538920325093" lon="10.915379960988615"><ele>220.0</ele><time>2026-04-06T14:08:49Z</time></trkpt><trkpt lat="45.86524190439504" lon="10.915531438983608"><ele>225.0</ele><time>2026-04-06T14:08:50Z</time></trkpt><trkpt lat="45.86507364280278" lon="10.915676475194822"><ele>230.0</ele><time>2026-04-06T14:08:51Z</time></trkpt><trkpt lat="45.86491023231744" lon="10.915842307332658"><ele>235.0</ele><time>2026-04-06T14:08:52Z</time></trkpt><trkpt lat="45.86476230592126" lon="10.9160196996967"><ele>235.0</ele><time>2026-04-06T14:08:53Z</time></trkpt><trkpt lat="45.86461255442928" lon="10.916163691122158"><ele>235.0</ele><time>2026-04-06T14:08:54Z</time></trkpt><trkpt lat="45.86447020554829" lon="10.916291138712632"><ele>235.0</ele><time>2026-04-06T14:08:55Z</time></trkpt><trkpt lat="45.864346862915056" lon="10.916393083524623"><ele>235.25</ele><time>2026-04-06T14:08:56Z</time></trkpt><trkpt lat="45.86422785315815" lon="10.916470698133365"><ele>235.5</ele><time>2026-04-06T14:08:57Z</time></trkpt><trkpt lat="45.864106527832874" lon="10.916540230508776"><ele>235.75</ele><time>2026-04-06T14:08:58Z</time></trkpt><trkpt lat="45.86397446082305" lon="10.916595872712263"><ele>236.0</ele><time>2026-04-06T14:08:59Z</time></trkpt><trkpt lat="45.863836546396435" lon="10.916636877185079"><ele>236.0</ele><time>2026-04-06T14:09:00Z</time></trkpt><trkpt lat="45.86370439350296" lon="10.91667609072005"><ele>236.0</ele><time>2026-04-06T14:09:01Z</time></trkpt><trkpt lat="45.86357767061928" lon="10.91671512090326"><ele>236.0</ele><time>2026-04-06T14:09:02Z</time></trkpt><trkpt lat="45.863452633442236" lon="10.916752950307552"><ele>236.0</ele><time>2026-04-06T14:09:03Z</time></trkpt><trkpt lat="45.86332543040136" lon="10.916772878236364"><ele>231.0</ele><time>2026-04-06T14:09:04Z</time></trkpt><trkpt lat="45.8632041742688" lon="10.916804664610659"><ele>226.0</ele><time>2026-04-06T14:09:05Z</time></trkpt><trkpt lat="45.863087176584166" lon="10.9168406554475"><ele>221.0</ele><time>2026-04-06T14:09:06Z</time></trkpt><trkpt lat="45.862961878127145" lon="10.91687889297884"><ele>216.0</ele><time>2026-04-06T14:09:07Z</time></trkpt><trkpt lat="45.86283949078838" lon="10.916915690955344"><ele>216.0</ele><time>2026-04-06T14:09:08Z</time></trkpt><trkpt lat="45.86271935335442" lon="10.916949949655965"><ele>216.0</ele><time>2026-04-06T14:09:09Z</time></trkpt><trkpt lat="45.862599621974894" lon="10.916986506628248"><ele>216.0</ele><time>2026-04-06T14:09:10Z</time></trkpt><trkpt lat="45.862483413029736" lon="10.917027238167636"><ele>216.0</ele><time>2026-04-06T14:09:11Z</time></trkpt><trkpt lat="45.86236610094943" lon="10.917072889602892"><ele>216.25</ele><time>2026-04-06T14:09:12Z</time></trkpt><trkpt lat="45.86223565839756" lon="10.917122187450536"><ele>216.5</ele><time>2026-04-06T14:09:13Z</time></trkpt><trkpt lat="45.86209485850746" lon="10.917170922753572"><ele>216.75</ele><time>2026-04-06T14:09:14Z</time></trkpt><trkpt lat="45.86196279830974" lon="10.91723263066975"><ele>217.0</ele><time>2026-04-06T14:09:15Z</time></trkpt><trkpt lat="45.86184301237731" lon="10.91729536352477"><ele>216.25</ele><time>2026-04-06T14:09:16Z</time></trkpt><trkpt lat="45.861731865399236" lon="10.917358914310906"><ele>215.5</ele><time>2026-04-06T14:09:17Z</time></trkpt><trkpt lat="45.86162511157141" lon="10.917426080493337"><ele>214.75</ele><time>2026-04-06T14:09:18Z</time></trkpt><trkpt lat="45.86151884909361" lon="10.917498543330325"><ele>214.0</ele><time>2026-04-06T14:09:19Z</time></trkpt><trkpt lat="45.86142045710572" lon="10.917576060490978"><ele>214.0</ele><time>2026-04-06T14:09:20Z</time></trkpt><trkpt lat="45.86132533173499" lon="10.917653429681009"><ele>213.99999999999997</ele><time>2026-04-06T14:09:21Z</time></trkpt><trkpt lat="45.861230768643054" lon="10.91773312324652"><ele>213.99999999999997</ele><time>2026-04-06T14:09:22Z</time></trkpt><trkpt lat="45.861133413857594" lon="10.917817583677168"><ele>214.0</ele><time>2026-04-06T14:09:23Z</time></trkpt><trkpt lat="45.861041863231975" lon="10.917897368455964"><ele>214.0</ele><time>2026-04-06T14:09:24Z</time></trkpt><trkpt lat="45.86095570889544" lon="10.91797234769631"><ele>216.79999999999998</ele><time>2026-04-06T14:09:25Z</time></trkpt><trkpt lat="45.86087174280675" lon="10.91804716842851"><ele>219.59999999999997</ele><time>2026-04-06T14:09:26Z</time></trkpt><trkpt lat="45.860782812703654" lon="10.918124264167885"><ele>222.4</ele><time>2026-04-06T14:09:27Z</time></trkpt><trkpt lat="45.860689031844984" lon="10.91820522206027"><ele>225.2</ele><time>2026-04-06T14:09:28Z</time></trkpt><trkpt lat="45.86059745223311" lon="10.918283319847786"><ele>228.0</ele><time>2026-04-06T14:09:29Z</time></trkpt><trkpt lat="45.86050756817703" lon="10.918364047128177"><ele>227.5</ele><time>2026-04-06T14:09:30Z</time></trkpt><trkpt lat="45.86042013868087" lon="10.91843662669895"><ele>227.0</ele><time>2026-04-06T14:09:31Z</time></trkpt><trkpt lat="45.86033176182651" lon="10.918508310858947"><ele>226.5</ele><time>2026-04-06T14:09:32Z</time></trkpt><trkpt lat="45.86023577037525" lon="10.918596000911608"><ele>226.0</ele><time>2026-04-06T14:09:33Z</time></trkpt><trkpt lat="45.86011477253416" lon="10.918679921844179"><ele>226.0</ele><time>2026-04-06T14:09:34Z</time></trkpt><trkpt lat="45.859994635115314" lon="10.918805422938297"><ele>226.0</ele><time>2026-04-06T14:09:35Z</time></trkpt><trkpt lat="45.85986154946735" lon="10.918914611329075"><ele>226.0</ele><time>2026-04-06T14:09:36Z</time></trkpt><trkpt lat="45.859737038394805" lon="10.919025421163116"><ele>226.0</ele><time>2026-04-06T14:09:37Z</time></trkpt><trkpt lat="45.85961787288704" lon="10.91912630063234"><ele>226.0</ele><time>2026-04-06T14:09:38Z</time></trkpt><trkpt lat="45.859502964660024" lon="10.919218903207025"><ele>226.0</ele><time>2026-04-06T14:09:39Z</time></trkpt><trkpt lat="45.85939174616311" lon="10.919311859855757"><ele>226.0</ele><time>2026-04-06T14:09:40Z</time></trkpt><trkpt lat="45.859294032858195" lon="10.919394159529444"><ele>226.0</ele><time>2026-04-06T14:09:41Z</time></trkpt><trkpt lat="45.85919732162309" lon="10.91947580067289"><ele>226.0</ele><time>2026-04-06T14:09:42Z</time></trkpt><trkpt lat="45.85910124439203" lon="10.919558255691307"><ele>226.0</ele><time>2026-04-06T14:09:43Z</time></trkpt><trkpt lat="45.858994710132656" lon="10.919654528910007"><ele>226.0</ele><time>2026-04-06T14:09:44Z</time></trkpt><trkpt lat="45.85887120511625" lon="10.919735200526999"><ele>226.0</ele><time>2026-04-06T14:09:45Z</time></trkpt><trkpt lat="45.8587454060554" lon="10.919842226858282"><ele>226.0</ele><time>2026-04-06T14:09:46Z</time></trkpt><trkpt lat="45.858627995761154" lon="10.919960653941937"><ele>226.0</ele><time>2026-04-06T14:09:47Z</time></trkpt><trkpt lat="45.85850569922625" lon="10.920064132413348"><ele>226.0</ele><time>2026-04-06T14:09:48Z</time></trkpt><trkpt lat="45.85838100954797" lon="10.920170664334925"><ele>226.0</ele><time>2026-04-06T14:09:49Z</time></trkpt><trkpt lat="45.8582610126913" lon="10.920269312591081"><ele>224.5</ele><time>2026-04-06T14:09:50Z</time></trkpt><trkpt lat="45.858140884581566" lon="10.920371307247764"><ele>223.0</ele><time>2026-04-06T14:09:51Z</time></trkpt><trkpt lat="45.8580188107991" lon="10.920483043811473"><ele>221.5</ele><time>2026-04-06T14:09:52Z</time></trkpt><trkpt lat="45.85790664815673" lon="10.920610395211304"><ele>220.0</ele><time>2026-04-06T14:09:53Z</time></trkpt><trkpt lat="45.8578099800073" lon="10.920750550647165"><ele>220.0</ele><time>2026-04-06T14:09:54Z</time></trkpt><trkpt lat="45.85771928802691" lon="10.920897400643907"><ele>220.0</ele><time>2026-04-06T14:09:55Z</time></trkpt><trkpt lat="45.85763981564718" lon="10.921055689263007"><ele>220.0</ele><time>2026-04-06T14:09:56Z</time></trkpt><trkpt lat="45.85757312587151" lon="10.921220517178659"><ele>220.0</ele><time>2026-04-06T14:09:57Z</time></trkpt><trkpt lat="45.857513468734886" lon="10.921398554542389"><ele>221.0</ele><time>2026-04-06T14:09:58Z</time></trkpt><trkpt lat="45.85746376216757" lon="10.921608864700847"><ele>222.0</ele><time>2026-04-06T14:09:59Z</time></trkpt><trkpt lat="45.857413130824405" lon="10.92183493254454"><ele>223.0</ele><time>2026-04-06T14:10:00Z</time></trkpt><trkpt lat="45.85735538209748" lon="10.922065991476492"><ele>223.0</ele><time>2026-04-06T14:10:01Z</time></trkpt><trkpt lat="45.857299068759104" lon="10.922302647580864"><ele>223.0</ele><time>2026-04-06T14:10:02Z</time></trkpt><trkpt lat="45.857244122097434" lon="10.92253790003355"><ele>223.0</ele><time>2026-04-06T14:10:03Z</time></trkpt><trkpt lat="45.85719022975839" lon="10.92277323040068"><ele>222.66666666666666</ele><time>2026-04-06T14:10:04Z</time></trkpt><trkpt lat="45.857136977112035" lon="10.923010830862832"><ele>222.33333333333331</ele><time>2026-04-06T14:10:05Z</time></trkpt><trkpt lat="45.857083559602124" lon="10.92324411881555"><ele>222.0</ele><time>2026-04-06T14:10:06Z</time></trkpt><trkpt lat="45.85703237611819" lon="10.923475391960269"><ele>221.0</ele><time>2026-04-06T14:10:07Z</time></trkpt><trkpt lat="45.85697944751583" lon="10.923700037548146"><ele>220.0</ele><time>2026-04-06T14:10:08Z</time></trkpt><trkpt lat="45.85692763596419" lon="10.92392580374819"><ele>219.0</ele><time>2026-04-06T14:10:09Z</time></trkpt><trkpt lat="45.856874949273006" lon="10.924146297798336"><ele>219.66666666666669</ele><time>2026-04-06T14:10:10Z</time></trkpt><trkpt lat="45.85682457069766" lon="10.924363902893763"><ele>220.33333333333334</ele><time>2026-04-06T14:10:11Z</time></trkpt><trkpt lat="45.85677372584807" lon="10.924583077191851"><ele>221.0</ele><time>2026-04-06T14:10:12Z</time></trkpt><trkpt lat="45.856724958286314" lon="10.924798286582712"><ele>221.0</ele><time>2026-04-06T14:10:13Z</time></trkpt><trkpt lat="45.85667569802993" lon="10.925004989832967"><ele>221.0</ele><time>2026-04-06T14:10:14Z</time></trkpt><trkpt lat="45.856629473546874" lon="10.925202189363034"><ele>221.0</ele><time>2026-04-06T14:10:15Z</time></trkpt><trkpt lat="45.85658553138495" lon="10.925388848547774"><ele>221.0</ele><time>2026-04-06T14:10:16Z</time></trkpt><trkpt lat="45.856543221001964" lon="10.925573559359867"><ele>221.0</ele><time>2026-04-06T14:10:17Z</time></trkpt><trkpt lat="45.856500696278886" lon="10.925755234800835"><ele>221.0</ele><time>2026-04-06T14:10:18Z</time></trkpt><trkpt lat="45.8564587012327" lon="10.925939776242657"><ele>221.0</ele><time>2026-04-06T14:10:19Z</time></trkpt><trkpt lat="45.856419020377565" lon="10.926111437963115"><ele>221.0</ele><time>2026-04-06T14:10:20Z</time></trkpt><trkpt lat="45.85637646143824" lon="10.926292080097284"><ele>222.20000000000002</ele><time>2026-04-06T14:10:21Z</time></trkpt><trkpt lat="45.856337120974636" lon="10.926468729759918"><ele>223.40000000000003</ele><time>2026-04-06T14:10:22Z</time></trkpt><trkpt lat="45.85630480173414" lon="10.926629662402906"><ele>224.6</ele><time>2026-04-06T14:10:23Z</time></trkpt><trkpt lat="45.85627430083424" lon="10.926774089084535"><ele>225.8</ele><time>2026-04-06T14:10:24Z</time></trkpt><trkpt lat="45.85624715709445" lon="10.926907103164247"><ele>227.0</ele><time>2026-04-06T14:10:25Z</time></trkpt><trkpt lat="45.85622340596272" lon="10.92702861903995"><ele>228.0</ele><time>2026-04-06T14:10:26Z</time></trkpt><trkpt lat="45.85619826462565" lon="10.927159298749267"><ele>229.0</ele><time>2026-04-06T14:10:27Z</time></trkpt><trkpt lat="45.85617021743186" lon="10.927292292427614"><ele>230.0</ele><time>2026-04-06T14:10:28Z</time></trkpt><trkpt lat="45.85613655511143" lon="10.927413633758695"><ele>231.0</ele><time>2026-04-06T14:10:29Z</time></trkpt><trkpt lat="45.85610833195119" lon="10.927516891908784"><ele>232.0</ele><time>2026-04-06T14:10:30Z</time></trkpt><trkpt lat="45.8560738909514" lon="10.927671188435061"><ele>232.66666666666666</ele><time>2026-04-06T14:10:32Z</time></trkpt><trkpt lat="45.85604342799871" lon="10.927816618712836"><ele>233.33333333333331</ele><time>2026-04-06T14:10:34Z</time></trkpt><trkpt lat="45.856024747293894" lon="10.927910903865072"><ele>234.0</ele><time>2026-04-06T14:10:35Z</time></trkpt><trkpt lat="45.856005372891524" lon="10.928027235371498"><ele>234.66666666666669</ele><time>2026-04-06T14:10:36Z</time></trkpt><trkpt lat="45.85598305642047" lon="10.928156865253799"><ele>235.33333333333334</ele><time>2026-04-06T14:10:37Z</time></trkpt><trkpt lat="45.85595364156897" lon="10.928288524254432"><ele>236.0</ele><time>2026-04-06T14:10:38Z</time></trkpt><trkpt lat="45.85592021263533" lon="10.928420892263418"><ele>234.33333333333334</ele><time>2026-04-06T14:10:39Z</time></trkpt><trkpt lat="45.855889493718585" lon="10.928547712296462"><ele>232.66666666666669</ele><time>2026-04-06T14:10:40Z</time></trkpt><trkpt lat="45.85586211360494" lon="10.928669784666573"><ele>231.0</ele><time>2026-04-06T14:10:41Z</time></trkpt><trkpt lat="45.85583594795946" lon="10.928782125414855"><ele>229.33333333333331</ele><time>2026-04-06T14:10:42Z</time></trkpt><trkpt lat="45.85581179470683" lon="10.928891908049463"><ele>227.66666666666666</ele><time>2026-04-06T14:10:43Z</time></trkpt><trkpt lat="45.85578870808048" lon="10.928999866292965"><ele>226.0</ele><time>2026-04-06T14:10:44Z</time></trkpt><trkpt lat="45.85576593981695" lon="10.92910872067735"><ele>225.99999999999997</ele><time>2026-04-06T14:10:45Z</time></trkpt><trkpt lat="45.855740688575665" lon="10.929217860501018"><ele>226.0</ele><time>2026-04-06T14:10:46Z</time></trkpt><trkpt lat="45.855714499724435" lon="10.929330965810388"><ele>226.0</ele><time>2026-04-06T14:10:47Z</time></trkpt><trkpt lat="45.85568474830237" lon="10.92944745532094"><ele>226.0</ele><time>2026-04-06T14:10:48Z</time></trkpt><trkpt lat="45.85565675290337" lon="10.929563203477246"><ele>225.99999999999997</ele><time>2026-04-06T14:10:49Z</time></trkpt><trkpt lat="45.85563079100265" lon="10.929680204545965"><ele>226.0</ele><time>2026-04-06T14:10:50Z</time></trkpt><trkpt lat="45.85560309576928" lon="10.929799730826382"><ele>225.99999999999997</ele><time>2026-04-06T14:10:51Z</time></trkpt><trkpt lat="45.85557318186011" lon="10.92992172164222"><ele>226.0</ele><time>2026-04-06T14:10:52Z</time></trkpt><trkpt lat="45.855542123524344" lon="10.93004440056273"><ele>226.0</ele><time>2026-04-06T14:10:53Z</time></trkpt><trkpt lat="45.855511837627695" lon="10.930166830682577"><ele>226.0</ele><time>2026-04-06T14:10:54Z</time></trkpt><trkpt lat="45.85548395538173" lon="10.930280403480472"><ele>225.99999999999997</ele><time>2026-04-06T14:10:55Z</time></trkpt><trkpt lat="45.855461406694864" lon="10.930385709896495"><ele>226.0</ele><time>2026-04-06T14:10:56Z</time></trkpt><trkpt lat="45.85543840597169" lon="10.930493633603596"><ele>226.66666666666666</ele><time>2026-04-06T14:10:57Z</time></trkpt><trkpt lat="45.85541518113422" lon="10.930602605466403"><ele>227.33333333333331</ele><time>2026-04-06T14:10:58Z</time></trkpt><trkpt lat="45.85539132115703" lon="10.93070553078956"><ele>228.0</ele><time>2026-04-06T14:10:59Z</time></trkpt><trkpt lat="45.855369066982014" lon="10.930800479795614"><ele>228.66666666666669</ele><time>2026-04-06T14:11:00Z</time></trkpt><trkpt lat="45.855347112221324" lon="10.930890563879435"><ele>229.33333333333334</ele><time>2026-04-06T14:11:01Z</time></trkpt><trkpt lat="45.85530839788613" lon="10.931059753829867"><ele>230.0</ele><time>2026-04-06T14:11:03Z</time></trkpt><trkpt lat="45.85527222463257" lon="10.931211227648893"><ele>230.0</ele><time>2026-04-06T14:11:05Z</time></trkpt><trkpt lat="45.855230341621976" lon="10.931358366724481"><ele>230.0</ele><time>2026-04-06T14:11:07Z</time></trkpt><trkpt lat="45.85518689802518" lon="10.931485826712418"><ele>230.0</ele><time>2026-04-06T14:11:09Z</time></trkpt><trkpt lat="45.85509353895563" lon="10.931606029844472"><ele>230.0</ele><time>2026-04-06T14:11:11Z</time></trkpt><trkpt lat="45.855031146300334" lon="10.931662285771859"><ele>230.0</ele><time>2026-04-06T14:11:12Z</time></trkpt><trkpt lat="45.85497997540494" lon="10.931730463336054"><ele>229.71428571428567</ele><time>2026-04-06T14:11:13Z</time></trkpt><trkpt lat="45.85494997887559" lon="10.931819062944049"><ele>229.42857142857142</ele><time>2026-04-06T14:11:14Z</time></trkpt><trkpt lat="45.85493760821513" lon="10.931914636016575"><ele>229.1428571428571</ele><time>2026-04-06T14:11:15Z</time></trkpt><trkpt lat="45.85495176899231" lon="10.932013966509436"><ele>228.85714285714283</ele><time>2026-04-06T14:11:16Z</time></trkpt><trkpt lat="45.85498021266628" lon="10.93211205256226"><ele>228.57142857142856</ele><time>2026-04-06T14:11:17Z</time></trkpt><trkpt lat="45.85499523362932" lon="10.932216634243069"><ele>228.28571428571428</ele><time>2026-04-06T14:11:18Z</time></trkpt><trkpt lat="45.85499123256603" lon="10.932320516936176"><ele>228.0</ele><time>2026-04-06T14:11:19Z</time></trkpt><trkpt lat="45.85497435723835" lon="10.932429005227988"><ele>228.0</ele><time>2026-04-06T14:11:20Z</time></trkpt><trkpt lat="45.85498064017173" lon="10.93253886536693"><ele>228.0</ele><time>2026-04-06T14:11:21Z</time></trkpt><trkpt lat="45.854927175231786" lon="10.932666004212594"><ele>228.0</ele><time>2026-04-06T14:11:22Z</time></trkpt><trkpt lat="45.854901731034474" lon="10.932789939079392"><ele>228.0</ele><time>2026-04-06T14:11:23Z</time></trkpt><trkpt lat="45.85487251829748" lon="10.932920205210326"><ele>228.0</ele><time>2026-04-06T14:11:24Z</time></trkpt><trkpt lat="45.85484561228932" lon="10.933040455794316"><ele>228.0</ele><time>2026-04-06T14:11:25Z</time></trkpt><trkpt lat="45.85481889834695" lon="10.93315956311356"><ele>228.0</ele><time>2026-04-06T14:11:26Z</time></trkpt><trkpt lat="45.85479290209165" lon="10.933279872218336"><ele>228.0</ele><time>2026-04-06T14:11:27Z</time></trkpt><trkpt lat="45.854767272389424" lon="10.933406898462719"><ele>228.0</ele><time>2026-04-06T14:11:28Z</time></trkpt><trkpt lat="45.85473978773493" lon="10.933530109260122"><ele>228.0</ele><time>2026-04-06T14:11:29Z</time></trkpt><trkpt lat="45.85471073204441" lon="10.93365572416516"><ele>228.0</ele><time>2026-04-06T14:11:30Z</time></trkpt><trkpt lat="45.85468244945877" lon="10.93377645615071"><ele>228.0</ele><time>2026-04-06T14:11:31Z</time></trkpt><trkpt lat="45.85465788558502" lon="10.933892353670474"><ele>228.0</ele><time>2026-04-06T14:11:32Z</time></trkpt><trkpt lat="45.85463285584643" lon="10.934013022051666"><ele>228.0</ele><time>2026-04-06T14:11:33Z</time></trkpt><trkpt lat="45.85460469915436" lon="10.934138561697951"><ele>228.0</ele><time>2026-04-06T14:11:34Z</time></trkpt><trkpt lat="45.8545770025631" lon="10.93426061495268"><ele>228.0</ele><time>2026-04-06T14:11:35Z</time></trkpt><trkpt lat="45.854554338273026" lon="10.93437065616175"><ele>228.0</ele><time>2026-04-06T14:11:36.001Z</time></trkpt><trkpt lat="45.854533838386835" lon="10.934473136192008"><ele>228.0</ele><time>2026-04-06T14:11:37.001Z</time></trkpt><trkpt lat="45.85451281399124" lon="10.934571547605373"><ele>228.0</ele><time>2026-04-06T14:11:38.001Z</time></trkpt><trkpt lat="45.85449152349585" lon="10.934670423587246"><ele>228.0</ele><time>2026-04-06T14:11:39.001Z</time></trkpt><trkpt lat="45.85446833596025" lon="10.934772286172702"><ele>228.0</ele><time>2026-04-06T14:11:40.001Z</time></trkpt><trkpt lat="45.85444684331698" lon="10.934872645830893"><ele>228.0</ele><time>2026-04-06T14:11:41.001Z</time></trkpt><trkpt lat="45.85442249211997" lon="10.934980594468012"><ele>228.0</ele><time>2026-04-06T14:11:42.001Z</time></trkpt><trkpt lat="45.85439656283757" lon="10.935096872373675"><ele>227.0</ele><time>2026-04-06T14:11:43Z</time></trkpt><trkpt lat="45.8543684086097" lon="10.935221026288351"><ele>226.0</ele><time>2026-04-06T14:11:44Z</time></trkpt><trkpt lat="45.85433933569814" lon="10.935350934234169"><ele>225.0</ele><time>2026-04-06T14:11:45Z</time></trkpt><trkpt lat="45.854311917586706" lon="10.93547788046717"><ele>224.0</ele><time>2026-04-06T14:11:46Z</time></trkpt><trkpt lat="45.854282433767935" lon="10.935602068918667"><ele>223.0</ele><time>2026-04-06T14:11:47Z</time></trkpt><trkpt lat="45.85425493656099" lon="10.935725531483971"><ele>222.8</ele><time>2026-04-06T14:11:48Z</time></trkpt><trkpt lat="45.85422786206171" lon="10.935846633144894"><ele>222.60000000000002</ele><time>2026-04-06T14:11:49Z</time></trkpt><trkpt lat="45.85420004474285" lon="10.935976582191692"><ele>222.39999999999998</ele><time>2026-04-06T14:11:50Z</time></trkpt><trkpt lat="45.85417363520474" lon="10.936111159486929"><ele>222.2</ele><time>2026-04-06T14:11:51Z</time></trkpt><trkpt lat="45.85415567703275" lon="10.936251301694902"><ele>222.0</ele><time>2026-04-06T14:11:52Z</time></trkpt><trkpt lat="45.854141840225076" lon="10.936397704129266"><ele>221.6</ele><time>2026-04-06T14:11:53Z</time></trkpt><trkpt lat="45.85413582682304" lon="10.936548165773505"><ele>221.2</ele><time>2026-04-06T14:11:54Z</time></trkpt><trkpt lat="45.85413829115839" lon="10.93670672362699"><ele>220.8</ele><time>2026-04-06T14:11:55Z</time></trkpt><trkpt lat="45.854148502551006" lon="10.936870108734418"><ele>220.4</ele><time>2026-04-06T14:11:56Z</time></trkpt><trkpt lat="45.85416494849981" lon="10.937037994206257"><ele>220.0</ele><time>2026-04-06T14:11:57Z</time></trkpt><trkpt lat="45.85418584645641" lon="10.937198288011286"><ele>219.75</ele><time>2026-04-06T14:11:58Z</time></trkpt><trkpt lat="45.854214062850566" lon="10.937358707703236"><ele>219.5</ele><time>2026-04-06T14:11:59Z</time></trkpt><trkpt lat="45.85425028665205" lon="10.937518304110977"><ele>219.25</ele><time>2026-04-06T14:12:00Z</time></trkpt><trkpt lat="45.854291609118334" lon="10.937677805224656"><ele>219.0</ele><time>2026-04-06T14:12:01Z</time></trkpt><trkpt lat="45.85433273682144" lon="10.937830990114632"><ele>219.0</ele><time>2026-04-06T14:12:02Z</time></trkpt><trkpt lat="45.85437531253254" lon="10.937984735663926"><ele>219.0</ele><time>2026-04-06T14:12:03Z</time></trkpt><trkpt lat="45.8544181564884" lon="10.938136182425287"><ele>219.0</ele><time>2026-04-06T14:12:04Z</time></trkpt><trkpt lat="45.85446316488956" lon="10.938289551829566"><ele>219.0</ele><time>2026-04-06T14:12:05Z</time></trkpt><trkpt lat="45.854506906064096" lon="10.938439583172531"><ele>218.79999999999998</ele><time>2026-04-06T14:12:06Z</time></trkpt><trkpt lat="45.85455064297738" lon="10.938588260379317"><ele>218.59999999999997</ele><time>2026-04-06T14:12:07Z</time></trkpt><trkpt lat="45.85459231403316" lon="10.93873349606959"><ele>218.4</ele><time>2026-04-06T14:12:08Z</time></trkpt><trkpt lat="45.85463555856803" lon="10.938880117626482"><ele>218.2</ele><time>2026-04-06T14:12:09Z</time></trkpt><trkpt lat="45.854678017583865" lon="10.939023016995671"><ele>218.0</ele><time>2026-04-06T14:12:10Z</time></trkpt><trkpt lat="45.85471847400609" lon="10.939161967987944"><ele>218.2</ele><time>2026-04-06T14:12:11Z</time></trkpt><trkpt lat="45.85476103678735" lon="10.939306104642712"><ele>218.4</ele><time>2026-04-06T14:12:12Z</time></trkpt><trkpt lat="45.85480216238963" lon="10.939448988886422"><ele>218.59999999999997</ele><time>2026-04-06T14:12:13Z</time></trkpt><trkpt lat="45.8548439533453" lon="10.939595987079205"><ele>218.79999999999998</ele><time>2026-04-06T14:12:14Z</time></trkpt><trkpt lat="45.85488765740989" lon="10.939744322544843"><ele>219.0</ele><time>2026-04-06T14:12:15Z</time></trkpt><trkpt lat="45.85492835474332" lon="10.939892738541086"><ele>219.0</ele><time>2026-04-06T14:12:16Z</time></trkpt><trkpt lat="45.85496864516596" lon="10.940040247247673"><ele>218.99999999999997</ele><time>2026-04-06T14:12:17Z</time></trkpt><trkpt lat="45.855010899719026" lon="10.940178617692599"><ele>218.99999999999997</ele><time>2026-04-06T14:12:18Z</time></trkpt><trkpt lat="45.85505636922054" lon="10.940328593409964"><ele>219.0</ele><time>2026-04-06T14:12:19Z</time></trkpt><trkpt lat="45.855102321248445" lon="10.940480274698999"><ele>219.0</ele><time>2026-04-06T14:12:20Z</time></trkpt><trkpt lat="45.85514873755935" lon="10.940636772027098"><ele>224.5</ele><time>2026-04-06T14:12:21Z</time></trkpt><trkpt lat="45.85519369539661" lon="10.94079782190786"><ele>230.0</ele><time>2026-04-06T14:12:22Z</time></trkpt><trkpt lat="45.85523835627838" lon="10.940961298318115"><ele>235.5</ele><time>2026-04-06T14:12:23Z</time></trkpt><trkpt lat="45.8552833553616" lon="10.941124743967427"><ele>241.0</ele><time>2026-04-06T14:12:24Z</time></trkpt><trkpt lat="45.855327420629294" lon="10.9412843106037"><ele>242.0</ele><time>2026-04-06T14:12:25Z</time></trkpt><trkpt lat="45.85536972678803" lon="10.941431650722405"><ele>243.00000000000003</ele><time>2026-04-06T14:12:26Z</time></trkpt><trkpt lat="45.85540846055187" lon="10.941569787359986"><ele>244.00000000000003</ele><time>2026-04-06T14:12:27Z</time></trkpt><trkpt lat="45.855443152662595" lon="10.941712155571421"><ele>245.0</ele><time>2026-04-06T14:12:28Z</time></trkpt><trkpt lat="45.855468745696484" lon="10.941868372846699"><ele>246.0</ele><time>2026-04-06T14:12:29Z</time></trkpt><trkpt lat="45.855489370522264" lon="10.942033691134975"><ele>246.75</ele><time>2026-04-06T14:12:30Z</time></trkpt><trkpt lat="45.855500250611314" lon="10.94220892080112"><ele>247.5</ele><time>2026-04-06T14:12:31Z</time></trkpt><trkpt lat="45.85549944185986" lon="10.942390927292935"><ele>248.25</ele><time>2026-04-06T14:12:32Z</time></trkpt><trkpt lat="45.855485768279834" lon="10.942582801642521"><ele>249.0</ele><time>2026-04-06T14:12:33Z</time></trkpt><trkpt lat="45.85546617799364" lon="10.942773602021381"><ele>249.75</ele><time>2026-04-06T14:12:34Z</time></trkpt><trkpt lat="45.855441155049355" lon="10.942961647542493"><ele>250.5</ele><time>2026-04-06T14:12:35Z</time></trkpt><trkpt lat="45.85541199090552" lon="10.943162848789527"><ele>251.25</ele><time>2026-04-06T14:12:36Z</time></trkpt><trkpt lat="45.85538340126182" lon="10.943365529250626"><ele>252.0</ele><time>2026-04-06T14:12:37Z</time></trkpt><trkpt lat="45.855359617547805" lon="10.943573777967663"><ele>253.5</ele><time>2026-04-06T14:12:38Z</time></trkpt><trkpt lat="45.85533730692847" lon="10.943776233923275"><ele>255.0</ele><time>2026-04-06T14:12:39Z</time></trkpt><trkpt lat="45.85531143344219" lon="10.943990532616064"><ele>256.5</ele><time>2026-04-06T14:12:40Z</time></trkpt><trkpt lat="45.85528535201369" lon="10.944204938974531"><ele>258.0</ele><time>2026-04-06T14:12:41Z</time></trkpt><trkpt lat="45.855259237528585" lon="10.944420366383888"><ele>260.75</ele><time>2026-04-06T14:12:42Z</time></trkpt><trkpt lat="45.855232671704044" lon="10.94463383090341"><ele>263.5</ele><time>2026-04-06T14:12:43Z</time></trkpt><trkpt lat="45.85520353046317" lon="10.94483724677657"><ele>266.25</ele><time>2026-04-06T14:12:44Z</time></trkpt><trkpt lat="45.85517296210692" lon="10.945033313399524"><ele>269.0</ele><time>2026-04-06T14:12:45Z</time></trkpt><trkpt lat="45.85514075887247" lon="10.94522569260843"><ele>273.6666666666667</ele><time>2026-04-06T14:12:46Z</time></trkpt><trkpt lat="45.85513498396455" lon="10.945515422850837"><ele>278.3333333333333</ele><time>2026-04-06T14:12:47Z</time></trkpt><trkpt lat="45.855100281482166" lon="10.945725754075255"><ele>283.0</ele><time>2026-04-06T14:12:48Z</time></trkpt><trkpt lat="45.855074949925346" lon="10.945926040490809"><ele>271.75</ele><time>2026-04-06T14:12:49Z</time></trkpt><trkpt lat="45.85504592517283" lon="10.946131230065907"><ele>260.5</ele><time>2026-04-06T14:12:50Z</time></trkpt><trkpt lat="45.85501890173532" lon="10.946339930288879"><ele>249.25</ele><time>2026-04-06T14:12:51Z</time></trkpt><trkpt lat="45.85499283366725" lon="10.946550634496575"><ele>238.0</ele><time>2026-04-06T14:12:52Z</time></trkpt><trkpt lat="45.85496704167224" lon="10.946756004743662"><ele>238.0</ele><time>2026-04-06T14:12:53Z</time></trkpt><trkpt lat="45.854938675715225" lon="10.94697204622805"><ele>238.0</ele><time>2026-04-06T14:12:54Z</time></trkpt><trkpt lat="45.85491480670165" lon="10.947192269132497"><ele>238.0</ele><time>2026-04-06T14:12:55Z</time></trkpt><trkpt lat="45.85489182616929" lon="10.947412159042738"><ele>239.0</ele><time>2026-04-06T14:12:56Z</time></trkpt><trkpt lat="45.854867948620296" lon="10.94762278159934"><ele>240.0</ele><time>2026-04-06T14:12:57Z</time></trkpt><trkpt lat="45.85484135302132" lon="10.947834097607226"><ele>241.0</ele><time>2026-04-06T14:12:58Z</time></trkpt><trkpt lat="45.854818159370076" lon="10.948032057998686"><ele>242.0</ele><time>2026-04-06T14:12:59Z</time></trkpt><trkpt lat="45.854798020208875" lon="10.948231830698742"><ele>241.75</ele><time>2026-04-06T14:13:00Z</time></trkpt><trkpt lat="45.85477020462786" lon="10.948431277069727"><ele>241.5</ele><time>2026-04-06T14:13:01Z</time></trkpt><trkpt lat="45.8547414190434" lon="10.94862994615335"><ele>241.25</ele><time>2026-04-06T14:13:02Z</time></trkpt><trkpt lat="45.85471576090825" lon="10.948832296016347"><ele>241.0</ele><time>2026-04-06T14:13:03Z</time></trkpt><trkpt lat="45.854689892185625" lon="10.949054823814162"><ele>238.66666666666666</ele><time>2026-04-06T14:13:04Z</time></trkpt><trkpt lat="45.85465956786243" lon="10.949286742833223"><ele>236.33333333333331</ele><time>2026-04-06T14:13:05Z</time></trkpt><trkpt lat="45.85462045373828" lon="10.949528520078045"><ele>234.0</ele><time>2026-04-06T14:13:06Z</time></trkpt><trkpt lat="45.85458811218234" lon="10.949786764509938"><ele>230.66666666666669</ele><time>2026-04-06T14:13:07Z</time></trkpt><trkpt lat="45.85455563989877" lon="10.950046052789792"><ele>227.33333333333334</ele><time>2026-04-06T14:13:08Z</time></trkpt><trkpt lat="45.854536264589115" lon="10.950299627350944"><ele>224.0</ele><time>2026-04-06T14:13:09Z</time></trkpt><trkpt lat="45.85449960428777" lon="10.950539705554778"><ele>224.0</ele><time>2026-04-06T14:13:10Z</time></trkpt><trkpt lat="45.85446582813167" lon="10.950780478651978"><ele>224.0</ele><time>2026-04-06T14:13:11Z</time></trkpt><trkpt lat="45.854432151255466" lon="10.951018022943124"><ele>224.0</ele><time>2026-04-06T14:13:12Z</time></trkpt><trkpt lat="45.854401408238125" lon="10.951251879373503"><ele>224.0</ele><time>2026-04-06T14:13:13Z</time></trkpt><trkpt lat="45.85437362176198" lon="10.951482230894822"><ele>224.0</ele><time>2026-04-06T14:13:14Z</time></trkpt><trkpt lat="45.85434419164298" lon="10.95170868679081"><ele>224.0</ele><time>2026-04-06T14:13:15Z</time></trkpt><trkpt lat="45.85431674638407" lon="10.951936206480978"><ele>224.0</ele><time>2026-04-06T14:13:16Z</time></trkpt><trkpt lat="45.85429174679184" lon="10.95215434794757"><ele>224.0</ele><time>2026-04-06T14:13:17Z</time></trkpt><trkpt lat="45.85427362908867" lon="10.952370639146112"><ele>224.0</ele><time>2026-04-06T14:13:18Z</time></trkpt><trkpt lat="45.85426347041571" lon="10.952571487776511"><ele>224.0</ele><time>2026-04-06T14:13:19Z</time></trkpt><trkpt lat="45.85426535056846" lon="10.952776356674145"><ele>223.0</ele><time>2026-04-06T14:13:20Z</time></trkpt><trkpt lat="45.85428237812666" lon="10.952981969824396"><ele>222.0</ele><time>2026-04-06T14:13:21Z</time></trkpt><trkpt lat="45.8543090300928" lon="10.953201742501486"><ele>221.0</ele><time>2026-04-06T14:13:22Z</time></trkpt><trkpt lat="45.85433706006183" lon="10.953424099733073"><ele>219.0</ele><time>2026-04-06T14:13:23Z</time></trkpt><trkpt lat="45.854373157058184" lon="10.953658651866352"><ele>217.0</ele><time>2026-04-06T14:13:24Z</time></trkpt><trkpt lat="45.85441041844888" lon="10.953895017407264"><ele>215.0</ele><time>2026-04-06T14:13:25Z</time></trkpt><trkpt lat="45.85444703148723" lon="10.954137209446815"><ele>214.33333333333334</ele><time>2026-04-06T14:13:26Z</time></trkpt><trkpt lat="45.85448540600294" lon="10.954379113523823"><ele>213.66666666666669</ele><time>2026-04-06T14:13:27Z</time></trkpt><trkpt lat="45.854521611231505" lon="10.954620969014966"><ele>213.0</ele><time>2026-04-06T14:13:28Z</time></trkpt><trkpt lat="45.85455338065535" lon="10.954859805283782"><ele>212.0</ele><time>2026-04-06T14:13:29Z</time></trkpt><trkpt lat="45.85458178296561" lon="10.955096274309966"><ele>211.0</ele><time>2026-04-06T14:13:30Z</time></trkpt><trkpt lat="45.85460323418565" lon="10.955315858897054"><ele>210.0</ele><time>2026-04-06T14:13:31Z</time></trkpt><trkpt lat="45.854610584714415" lon="10.955540853296835"><ele>210.0</ele><time>2026-04-06T14:13:32Z</time></trkpt><trkpt lat="45.854597576066546" lon="10.955761594110967"><ele>210.0</ele><time>2026-04-06T14:13:33Z</time></trkpt><trkpt lat="45.854572899247586" lon="10.955983676970181"><ele>210.0</ele><time>2026-04-06T14:13:34Z</time></trkpt><trkpt lat="45.85453028134217" lon="10.9562002480415"><ele>210.0</ele><time>2026-04-06T14:13:35Z</time></trkpt><trkpt lat="45.85447779287706" lon="10.956416442691344"><ele>210.0</ele><time>2026-04-06T14:13:36Z</time></trkpt><trkpt lat="45.854412892326124" lon="10.956631779837666"><ele>210.0</ele><time>2026-04-06T14:13:37Z</time></trkpt><trkpt lat="45.85434899740592" lon="10.956843719281764"><ele>207.33333333333331</ele><time>2026-04-06T14:13:38Z</time></trkpt><trkpt lat="45.854284386947995" lon="10.957051410741826"><ele>204.66666666666666</ele><time>2026-04-06T14:13:39Z</time></trkpt><trkpt lat="45.854206402316436" lon="10.95725937585572"><ele>202.0</ele><time>2026-04-06T14:13:40Z</time></trkpt><trkpt lat="45.854116220541215" lon="10.957469143881488"><ele>201.66666666666666</ele><time>2026-04-06T14:13:41Z</time></trkpt><trkpt lat="45.854011570452094" lon="10.957681907668176"><ele>201.33333333333331</ele><time>2026-04-06T14:13:42Z</time></trkpt><trkpt lat="45.85389759290583" lon="10.957890169490966"><ele>201.0</ele><time>2026-04-06T14:13:43Z</time></trkpt><trkpt lat="45.853773415254146" lon="10.9580890394348"><ele>201.0</ele><time>2026-04-06T14:13:44Z</time></trkpt><trkpt lat="45.853640698199015" lon="10.958271196050507"><ele>201.0</ele><time>2026-04-06T14:13:45Z</time></trkpt><trkpt lat="45.85349812037705" lon="10.958441032181277"><ele>201.0</ele><time>2026-04-06T14:13:46Z</time></trkpt><trkpt lat="45.85334974882597" lon="10.958595931961268"><ele>201.0</ele><time>2026-04-06T14:13:47Z</time></trkpt><trkpt lat="45.853193276716034" lon="10.958747585890292"><ele>201.0</ele><time>2026-04-06T14:13:48Z</time></trkpt><trkpt lat="45.85303728007634" lon="10.958899736689668"><ele>201.0</ele><time>2026-04-06T14:13:49Z</time></trkpt><trkpt lat="45.852885684746084" lon="10.959050085852633"><ele>201.0</ele><time>2026-04-06T14:13:50Z</time></trkpt><trkpt lat="45.85273627214565" lon="10.959198061726696"><ele>201.0</ele><time>2026-04-06T14:13:51Z</time></trkpt><trkpt lat="45.85258994104852" lon="10.95935202953512"><ele>201.0</ele><time>2026-04-06T14:13:52Z</time></trkpt><trkpt lat="45.852445877054805" lon="10.959509769668099"><ele>200.66666666666669</ele><time>2026-04-06T14:13:53Z</time></trkpt><trkpt lat="45.85230013908056" lon="10.959677665508211"><ele>200.33333333333334</ele><time>2026-04-06T14:13:54Z</time></trkpt><trkpt lat="45.85215385803075" lon="10.959857199759734"><ele>200.0</ele><time>2026-04-06T14:13:55Z</time></trkpt><trkpt lat="45.852006067319145" lon="10.960048707147136"><ele>199.66666666666669</ele><time>2026-04-06T14:13:56Z</time></trkpt><trkpt lat="45.85185843204895" lon="10.960251085559578"><ele>199.33333333333331</ele><time>2026-04-06T14:13:57Z</time></trkpt><trkpt lat="45.85171377076882" lon="10.96045113124098"><ele>199.0</ele><time>2026-04-06T14:13:58Z</time></trkpt><trkpt lat="45.851573877017856" lon="10.960644094873826"><ele>199.0</ele><time>2026-04-06T14:13:59Z</time></trkpt><trkpt lat="45.85144265024349" lon="10.96083739494922"><ele>199.0</ele><time>2026-04-06T14:14:00Z</time></trkpt><trkpt lat="45.85132320117514" lon="10.96102703200894"><ele>199.0</ele><time>2026-04-06T14:14:01Z</time></trkpt><trkpt lat="45.85120472673231" lon="10.961220143507035"><ele>199.0</ele><time>2026-04-06T14:14:02Z</time></trkpt><trkpt lat="45.85108744211063" lon="10.961419415321755"><ele>199.0</ele><time>2026-04-06T14:14:03Z</time></trkpt><trkpt lat="45.850968476322336" lon="10.961626805860964"><ele>199.0</ele><time>2026-04-06T14:14:04Z</time></trkpt><trkpt lat="45.85084673361248" lon="10.961837142523372"><ele>201.66666666666666</ele><time>2026-04-06T14:14:05Z</time></trkpt><trkpt lat="45.850723075675866" lon="10.96204991343826"><ele>204.33333333333331</ele><time>2026-04-06T14:14:06Z</time></trkpt><trkpt lat="45.85059853848474" lon="10.96226271220856"><ele>207.0</ele><time>2026-04-06T14:14:07Z</time></trkpt><trkpt lat="45.85047977481859" lon="10.962471008561637"><ele>207.33333333333331</ele><time>2026-04-06T14:14:08Z</time></trkpt><trkpt lat="45.85036675978959" lon="10.962667042712523"><ele>207.66666666666666</ele><time>2026-04-06T14:14:09Z</time></trkpt><trkpt lat="45.85025147027158" lon="10.962874554415578"><ele>208.0</ele><time>2026-04-06T14:14:10Z</time></trkpt><trkpt lat="45.850132204266096" lon="10.963091155670387"><ele>216.66666666666666</ele><time>2026-04-06T14:14:11Z</time></trkpt><trkpt lat="45.85001085951328" lon="10.963307698543396"><ele>225.33333333333331</ele><time>2026-04-06T14:14:12Z</time></trkpt><trkpt lat="45.84989260461184" lon="10.963526898423146"><ele>234.0</ele><time>2026-04-06T14:14:13Z</time></trkpt><trkpt lat="45.84976199938664" lon="10.96373491701218"><ele>238.33333333333331</ele><time>2026-04-06T14:14:14Z</time></trkpt><trkpt lat="45.849628318069044" lon="10.96395216575733"><ele>242.66666666666666</ele><time>2026-04-06T14:14:15Z</time></trkpt><trkpt lat="45.84949295039825" lon="10.9641736046879"><ele>247.0</ele><time>2026-04-06T14:14:16Z</time></trkpt><trkpt lat="45.84935849162623" lon="10.964394860321358"><ele>261.66666666666663</ele><time>2026-04-06T14:14:17Z</time></trkpt><trkpt lat="45.84923246458885" lon="10.964611198595776"><ele>276.3333333333333</ele><time>2026-04-06T14:14:18Z</time></trkpt><trkpt lat="45.84910526479638" lon="10.964835063584426"><ele>291.0</ele><time>2026-04-06T14:14:19Z</time></trkpt><trkpt lat="45.8488496511677" lon="10.965253692533237"><ele>299.3333333333333</ele><time>2026-04-06T14:14:20Z</time></trkpt><trkpt lat="45.848712005120625" lon="10.965503753791284"><ele>307.66666666666663</ele><time>2026-04-06T14:14:21Z</time></trkpt><trkpt lat="45.84857507541654" lon="10.96575251370479"><ele>316.0</ele><time>2026-04-06T14:14:22Z</time></trkpt><trkpt lat="45.84843926014132" lon="10.96599924902618"><ele>333.0</ele><time>2026-04-06T14:14:23Z</time></trkpt><trkpt lat="45.84830171728887" lon="10.966249122797711"><ele>350.0</ele><time>2026-04-06T14:14:24Z</time></trkpt><trkpt lat="45.8481656286543" lon="10.966496354742697"><ele>367.0</ele><time>2026-04-06T14:14:25Z</time></trkpt><trkpt lat="45.84802892932494" lon="10.966744282378585"><ele>372.66666666666663</ele><time>2026-04-06T14:14:26Z</time></trkpt><trkpt lat="45.847893983518" lon="10.966987788445582"><ele>378.3333333333333</ele><time>2026-04-06T14:14:27Z</time></trkpt><trkpt lat="45.84776187575314" lon="10.967226173147898"><ele>384.0</ele><time>2026-04-06T14:14:28Z</time></trkpt><trkpt lat="45.847628795545816" lon="10.967466312846296"><ele>393.66666666666663</ele><time>2026-04-06T14:14:29Z</time></trkpt><trkpt lat="45.84749530998955" lon="10.967707183877256"><ele>403.3333333333333</ele><time>2026-04-06T14:14:30Z</time></trkpt><trkpt lat="45.84736256664675" lon="10.967946715575913"><ele>413.0</ele><time>2026-04-06T14:14:31Z</time></trkpt><trkpt lat="45.84723544146448" lon="10.968176109431042"><ele>406.0</ele><time>2026-04-06T14:14:32Z</time></trkpt><trkpt lat="45.847107882350564" lon="10.96840781965011"><ele>399.0</ele><time>2026-04-06T14:14:33Z</time></trkpt><trkpt lat="45.84698525244039" lon="10.968630686166717"><ele>392.0</ele><time>2026-04-06T14:14:34Z</time></trkpt><trkpt lat="45.84686475223556" lon="10.968849682186358"><ele>400.66666666666663</ele><time>2026-04-06T14:14:35Z</time></trkpt><trkpt lat="45.84674005775838" lon="10.969076300792343"><ele>409.33333333333337</ele><time>2026-04-06T14:14:36Z</time></trkpt><trkpt lat="45.846616838030336" lon="10.969300238079809"><ele>418.0</ele><time>2026-04-06T14:14:37Z</time></trkpt><trkpt lat="45.84653642288878" lon="10.969446384903927"><ele>418.0</ele><time>2026-04-06T14:14:38Z</time></trkpt><trkpt lat="45.84643950566901" lon="10.969622521095534"><ele>418.0</ele><time>2026-04-06T14:14:39Z</time></trkpt><trkpt lat="45.846325062391934" lon="10.96983050943707"><ele>418.0</ele><time>2026-04-06T14:14:40Z</time></trkpt><trkpt lat="45.846207867277386" lon="10.970043497295206"><ele>405.0</ele><time>2026-04-06T14:14:41Z</time></trkpt><trkpt lat="45.84608635905526" lon="10.97026432671052"><ele>392.0</ele><time>2026-04-06T14:14:42Z</time></trkpt><trkpt lat="45.845975460459634" lon="10.97046587293652"><ele>379.0</ele><time>2026-04-06T14:14:43Z</time></trkpt><trkpt lat="45.845854140661004" lon="10.97068635851191"><ele>297.0</ele><time>2026-04-06T14:14:44.02Z</time></trkpt><trkpt lat="45.84460732710499" lon="10.97296257370326"><ele>292.0</ele><time>2026-04-06T14:14:47.609Z</time></trkpt><trkpt lat="45.84410559234555" lon="10.973871931337701"><ele>267.0</ele><time>2026-04-06T14:14:48.609Z</time></trkpt><trkpt lat="45.84360639609261" lon="10.974781471282586"><ele>259.0</ele><time>2026-04-06T14:14:49.607Z</time></trkpt><trkpt lat="45.8431446735798" lon="10.975732555324509"><ele>247.0</ele><time>2026-04-06T14:14:50.607Z</time></trkpt><trkpt lat="45.84276322982208" lon="10.976752572349762"><ele>261.0</ele><time>2026-04-06T14:14:51.606Z</time></trkpt><trkpt lat="45.842461977031476" lon="10.977825194075542"><ele>257.0</ele><time>2026-04-06T14:14:52.604Z</time></trkpt><trkpt lat="45.84224133883866" lon="10.978944804790252"><ele>250.0</ele><time>2026-04-06T14:14:53.609Z</time></trkpt><trkpt lat="45.8421123600305" lon="10.98008564778791"><ele>259.0</ele><time>2026-04-06T14:14:54.607Z</time></trkpt><trkpt lat="45.8420718" lon="10.981239818076824"><ele>269.0</ele><time>2026-04-06T14:14:55.605Z</time></trkpt><trkpt lat="45.842120336119315" lon="10.982400236821762"><ele>271.0</ele><time>2026-04-06T14:14:56.609Z</time></trkpt><trkpt lat="45.84225629554817" lon="10.983541686703356"><ele>278.0</ele><time>2026-04-06T14:14:57.609Z</time></trkpt><trkpt lat="45.8424780283048" lon="10.9846513899379"><ele>238.0</ele><time>2026-04-06T14:14:58.606Z</time></trkpt><trkpt lat="45.84278120108202" lon="10.985723370064182"><ele>210.0</ele><time>2026-04-06T14:14:59.604Z</time></trkpt><trkpt lat="45.84312105178209" lon="10.986778057738638"><ele>195.0</ele><time>2026-04-06T14:15:00.607Z</time></trkpt><trkpt lat="45.844933867615936" lon="10.990007062919695"><ele>197.0</ele><time>2026-04-06T14:15:44Z</time></trkpt><trkpt lat="45.8437429948518" lon="10.988525086216995"><ele>197.0</ele><time>2026-04-06T14:15:45Z</time></trkpt><trkpt lat="45.8438943781126" lon="10.988772719153552"><ele>197.0</ele><time>2026-04-06T14:15:46Z</time></trkpt><trkpt lat="45.844057430901785" lon="10.989022686698306"><ele>196.5</ele><time>2026-04-06T14:15:47Z</time></trkpt><trkpt lat="45.844232124069975" lon="10.989256290772282"><ele>196.0</ele><time>2026-04-06T14:15:48Z</time></trkpt><trkpt lat="45.84439836545759" lon="10.989465932929129"><ele>195.5</ele><time>2026-04-06T14:15:49Z</time></trkpt><trkpt lat="45.844549907445895" lon="10.989703634676681"><ele>195.0</ele><time>2026-04-06T14:15:50Z</time></trkpt><trkpt lat="45.844724328434445" lon="10.989923876045404"><ele>194.5</ele><time>2026-04-06T14:15:51Z</time></trkpt><trkpt lat="45.8448876898001" lon="10.99015633321597"><ele>194.0</ele><time>2026-04-06T14:15:52Z</time></trkpt><trkpt lat="45.84505483197135" lon="10.99039264204708"><ele>194.0</ele><time>2026-04-06T14:15:53Z</time></trkpt><trkpt lat="45.8452063579942" lon="10.990635980465234"><ele>194.0</ele><time>2026-04-06T14:15:54Z</time></trkpt><trkpt lat="45.84535930539067" lon="10.990851215303554"><ele>194.0</ele><time>2026-04-06T14:15:55Z</time></trkpt><trkpt lat="45.845517578630826" lon="10.991078969618648"><ele>192.33333333333334</ele><time>2026-04-06T14:15:56Z</time></trkpt><trkpt lat="45.84567248343386" lon="10.991308354776884"><ele>190.66666666666669</ele><time>2026-04-06T14:15:57Z</time></trkpt><trkpt lat="45.84583017675707" lon="10.991532861331407"><ele>189.0</ele><time>2026-04-06T14:15:58Z</time></trkpt><trkpt lat="45.84595223510529" lon="10.991805303118097"><ele>186.0</ele><time>2026-04-06T14:15:59Z</time></trkpt><trkpt lat="45.84608540531495" lon="10.992068022152411"><ele>183.0</ele><time>2026-04-06T14:16:00Z</time></trkpt><trkpt lat="45.84619700724629" lon="10.99235621298272"><ele>181.5</ele><time>2026-04-06T14:16:01Z</time></trkpt><trkpt lat="45.846278646683416" lon="10.992669227823955"><ele>180.0</ele><time>2026-04-06T14:16:02Z</time></trkpt><trkpt lat="45.84635975081364" lon="10.992986067175979"><ele>180.0</ele><time>2026-04-06T14:16:03Z</time></trkpt><trkpt lat="45.84642247778933" lon="10.993308888321366"><ele>180.0</ele><time>2026-04-06T14:16:04Z</time></trkpt><trkpt lat="45.84646887898978" lon="10.99363646636064"><ele>177.0</ele><time>2026-04-06T14:16:05Z</time></trkpt><trkpt lat="45.84649916344448" lon="10.993966786433752"><ele>174.0</ele><time>2026-04-06T14:16:06Z</time></trkpt><trkpt lat="45.84651845809169" lon="10.994302497129897"><ele>168.0</ele><time>2026-04-06T14:16:07Z</time></trkpt><trkpt lat="45.84653731561362" lon="10.99463721447699"><ele>162.0</ele><time>2026-04-06T14:16:08Z</time></trkpt><trkpt lat="45.84653569419727" lon="10.994974295899956"><ele>159.0</ele><time>2026-04-06T14:16:09Z</time></trkpt><trkpt lat="45.846546116701894" lon="10.995318212945094"><ele>156.0</ele><time>2026-04-06T14:16:10Z</time></trkpt><trkpt lat="45.84656238918145" lon="10.995662133537671"><ele>155.5</ele><time>2026-04-06T14:16:11Z</time></trkpt><trkpt lat="45.846577785565664" lon="10.996010002350097"><ele>155.0</ele><time>2026-04-06T14:16:12Z</time></trkpt><trkpt lat="45.846596225767534" lon="10.996356811212515"><ele>155.0</ele><time>2026-04-06T14:16:13Z</time></trkpt><trkpt lat="45.846612917383894" lon="10.996703954583563"><ele>155.0</ele><time>2026-04-06T14:16:14Z</time></trkpt><trkpt lat="45.84662868049126" lon="10.997047940477572"><ele>155.0</ele><time>2026-04-06T14:16:15Z</time></trkpt><trkpt lat="45.84664319882883" lon="10.997382906427937"><ele>155.0</ele><time>2026-04-06T14:16:16Z</time></trkpt><trkpt lat="45.8466588459785" lon="10.997706216355876"><ele>155.33333333333331</ele><time>2026-04-06T14:16:17Z</time></trkpt><trkpt lat="45.84667686309808" lon="10.998022810409447"><ele>155.66666666666666</ele><time>2026-04-06T14:16:18Z</time></trkpt><trkpt lat="45.84669922669528" lon="10.998329531829059"><ele>156.0</ele><time>2026-04-06T14:16:19Z</time></trkpt><trkpt lat="45.846723467927575" lon="10.998632780969832"><ele>156.0</ele><time>2026-04-06T14:16:20Z</time></trkpt><trkpt lat="45.846742379967665" lon="10.998904031397316"><ele>156.0</ele><time>2026-04-06T14:16:21Z</time></trkpt><trkpt lat="45.84677538113289" lon="10.999146013425065"><ele>156.0</ele><time>2026-04-06T14:16:22Z</time></trkpt><trkpt lat="45.846836872464685" lon="10.999380143851862"><ele>156.33333333333334</ele><time>2026-04-06T14:16:23Z</time></trkpt><trkpt lat="45.84692270500632" lon="10.999615661891026"><ele>156.66666666666669</ele><time>2026-04-06T14:16:24Z</time></trkpt><trkpt lat="45.84703855831136" lon="10.999832351877878"><ele>157.0</ele><time>2026-04-06T14:16:25Z</time></trkpt><trkpt lat="45.84717733025333" lon="11.000010085059996"><ele>157.0</ele><time>2026-04-06T14:16:26Z</time></trkpt><trkpt lat="45.847326342897865" lon="11.000155460566836"><ele>157.0</ele><time>2026-04-06T14:16:27Z</time></trkpt><trkpt lat="45.84748717061853" lon="11.000272713127623"><ele>157.0</ele><time>2026-04-06T14:16:28Z</time></trkpt><trkpt lat="45.84766023500327" lon="11.000353766226205"><ele>157.0</ele><time>2026-04-06T14:16:29Z</time></trkpt><trkpt lat="45.84784572983801" lon="11.000393665167643"><ele>157.0</ele><time>2026-04-06T14:16:30Z</time></trkpt><trkpt lat="45.84803810036451" lon="11.000423514552402"><ele>157.0</ele><time>2026-04-06T14:16:31Z</time></trkpt><trkpt lat="45.84822327188621" lon="11.000449789316178"><ele>157.0</ele><time>2026-04-06T14:16:32Z</time></trkpt><trkpt lat="45.848398190724645" lon="11.000483089511455"><ele>157.0</ele><time>2026-04-06T14:16:33Z</time></trkpt><trkpt lat="45.84856806461298" lon="11.000515506727739"><ele>157.0</ele><time>2026-04-06T14:16:34Z</time></trkpt><trkpt lat="45.84873899113003" lon="11.000553282490236"><ele>158.0</ele><time>2026-04-06T14:16:35Z</time></trkpt><trkpt lat="45.84891362797976" lon="11.0005888838916"><ele>159.0</ele><time>2026-04-06T14:16:36Z</time></trkpt><trkpt lat="45.84908792052694" lon="11.0006248390388"><ele>160.0</ele><time>2026-04-06T14:16:37Z</time></trkpt><trkpt lat="45.84925375379678" lon="11.000663250464491"><ele>159.5</ele><time>2026-04-06T14:16:38Z</time></trkpt><trkpt lat="45.8494078187113" lon="11.000714858569719"><ele>159.0</ele><time>2026-04-06T14:16:39Z</time></trkpt><trkpt lat="45.849552770680816" lon="11.00074414898118"><ele>158.5</ele><time>2026-04-06T14:16:40Z</time></trkpt><trkpt lat="45.84967955721531" lon="11.000745090665982"><ele>158.0</ele><time>2026-04-06T14:16:41Z</time></trkpt><trkpt lat="45.84978454665976" lon="11.000768113085986"><ele>158.0</ele><time>2026-04-06T14:16:42Z</time></trkpt><trkpt lat="45.849874960251235" lon="11.000800266286449"><ele>158.0</ele><time>2026-04-06T14:16:43Z</time></trkpt><trkpt lat="45.849950210305515" lon="11.000868867181792"><ele>158.0</ele><time>2026-04-06T14:16:44Z</time></trkpt><trkpt lat="45.85001227016093" lon="11.00096584641899"><ele>158.0</ele><time>2026-04-06T14:16:45Z</time></trkpt><trkpt lat="45.85004652893299" lon="11.001079627224268"><ele>158.0</ele><time>2026-04-06T14:16:46Z</time></trkpt><trkpt lat="45.850061180568815" lon="11.00118453524797"><ele>158.0</ele><time>2026-04-06T14:16:47Z</time></trkpt><trkpt lat="45.85005529993729" lon="11.001294928616222"><ele>158.0</ele><time>2026-04-06T14:16:48Z</time></trkpt><trkpt lat="45.85003233101841" lon="11.001428288409995"><ele>158.0</ele><time>2026-04-06T14:16:49Z</time></trkpt><trkpt lat="45.85000420817996" lon="11.00156595661592"><ele>158.0</ele><time>2026-04-06T14:16:50Z</time></trkpt><trkpt lat="45.849990206500514" lon="11.001701185929315"><ele>158.0</ele><time>2026-04-06T14:16:51Z</time></trkpt><trkpt lat="45.85000254754111" lon="11.001842999830554"><ele>158.0</ele><time>2026-04-06T14:16:52Z</time></trkpt><trkpt lat="45.85003680963289" lon="11.001980415294216"><ele>158.20000000000002</ele><time>2026-04-06T14:16:53Z</time></trkpt><trkpt lat="45.85009353567227" lon="11.00210135379853"><ele>158.4</ele><time>2026-04-06T14:16:54Z</time></trkpt><trkpt lat="45.850160658379174" lon="11.002197150373528"><ele>158.60000000000002</ele><time>2026-04-06T14:16:55Z</time></trkpt><trkpt lat="45.8502366793393" lon="11.00226624244498"><ele>158.8</ele><time>2026-04-06T14:16:56Z</time></trkpt><trkpt lat="45.850321132391876" lon="11.002310620569768"><ele>159.0</ele><time>2026-04-06T14:16:57Z</time></trkpt><trkpt lat="45.850414812742976" lon="11.002323658254209"><ele>159.0</ele><time>2026-04-06T14:16:58Z</time></trkpt><trkpt lat="45.85050951920993" lon="11.002319735088031"><ele>159.0</ele><time>2026-04-06T14:16:59Z</time></trkpt><trkpt lat="45.850600435676036" lon="11.002286232224082"><ele>159.0</ele><time>2026-04-06T14:17:00Z</time></trkpt><trkpt lat="45.85068458321454" lon="11.002227083403955"><ele>159.0</ele><time>2026-04-06T14:17:01Z</time></trkpt><trkpt lat="45.8507619412946" lon="11.0021480375798"><ele>159.0</ele><time>2026-04-06T14:17:02Z</time></trkpt><trkpt lat="45.85083326198363" lon="11.002057466130903"><ele>159.0</ele><time>2026-04-06T14:17:03Z</time></trkpt><trkpt lat="45.850915666781624" lon="11.001974166208225"><ele>159.0</ele><time>2026-04-06T14:17:04Z</time></trkpt><trkpt lat="45.85101214966437" lon="11.001913575117388"><ele>159.0</ele><time>2026-04-06T14:17:05Z</time></trkpt><trkpt lat="45.85113633498818" lon="11.001866917581994"><ele>159.0</ele><time>2026-04-06T14:17:06Z</time></trkpt><trkpt lat="45.85126780693329" lon="11.001830281483052"><ele>159.33333333333334</ele><time>2026-04-06T14:17:07Z</time></trkpt><trkpt lat="45.85141235750967" lon="11.001797858742897"><ele>159.66666666666669</ele><time>2026-04-06T14:17:08Z</time></trkpt><trkpt lat="45.85156176319094" lon="11.001766926286281"><ele>160.0</ele><time>2026-04-06T14:17:09Z</time></trkpt><trkpt lat="45.85172332300246" lon="11.001734496106819"><ele>160.33333333333334</ele><time>2026-04-06T14:17:10Z</time></trkpt><trkpt lat="45.85189076348177" lon="11.001703278595864"><ele>160.66666666666666</ele><time>2026-04-06T14:17:11Z</time></trkpt><trkpt lat="45.85205979858431" lon="11.001679408324975"><ele>161.0</ele><time>2026-04-06T14:17:12Z</time></trkpt><trkpt lat="45.852234833511105" lon="11.001676217585848"><ele>161.0</ele><time>2026-04-06T14:17:13Z</time></trkpt><trkpt lat="45.85241517679076" lon="11.001684054117973"><ele>161.0</ele><time>2026-04-06T14:17:14Z</time></trkpt><trkpt lat="45.85259620600291" lon="11.001693884898788"><ele>161.0</ele><time>2026-04-06T14:17:15Z</time></trkpt><trkpt lat="45.85277624359506" lon="11.001698947691535"><ele>162.33333333333331</ele><time>2026-04-06T14:17:16Z</time></trkpt><trkpt lat="45.85295494422529" lon="11.001703112439865"><ele>163.66666666666666</ele><time>2026-04-06T14:17:17Z</time></trkpt><trkpt lat="45.853131122237" lon="11.001707369226091"><ele>165.0</ele><time>2026-04-06T14:17:18Z</time></trkpt><trkpt lat="45.85330883263755" lon="11.00170856311091"><ele>164.66666666666666</ele><time>2026-04-06T14:17:19Z</time></trkpt><trkpt lat="45.853479159373535" lon="11.001713794558503"><ele>164.33333333333331</ele><time>2026-04-06T14:17:20Z</time></trkpt><trkpt lat="45.85364848257338" lon="11.00172099072071"><ele>164.0</ele><time>2026-04-06T14:17:21Z</time></trkpt><trkpt lat="45.85382176412841" lon="11.001736843905993"><ele>164.0</ele><time>2026-04-06T14:17:22Z</time></trkpt><trkpt lat="45.85400000934429" lon="11.0017661429723"><ele>164.0</ele><time>2026-04-06T14:17:23Z</time></trkpt><trkpt lat="45.8541883005122" lon="11.001809370494076"><ele>164.0</ele><time>2026-04-06T14:17:24Z</time></trkpt><trkpt lat="45.85437933314516" lon="11.00186209570659"><ele>165.0</ele><time>2026-04-06T14:17:25Z</time></trkpt><trkpt lat="45.85457873719305" lon="11.00191644879553"><ele>166.0</ele><time>2026-04-06T14:17:26Z</time></trkpt><trkpt lat="45.85477897285155" lon="11.001963343069814"><ele>167.0</ele><time>2026-04-06T14:17:27Z</time></trkpt><trkpt lat="45.854980213849025" lon="11.001995746599007"><ele>167.66666666666666</ele><time>2026-04-06T14:17:28Z</time></trkpt><trkpt lat="45.85517956723063" lon="11.002008486397662"><ele>168.33333333333334</ele><time>2026-04-06T14:17:29Z</time></trkpt><trkpt lat="45.85537869200745" lon="11.001998251451306"><ele>169.0</ele><time>2026-04-06T14:17:30Z</time></trkpt><trkpt lat="45.855574399039845" lon="11.00197682653364"><ele>169.0</ele><time>2026-04-06T14:17:31Z</time></trkpt><trkpt lat="45.85576597992562" lon="11.001938608798527"><ele>169.0</ele><time>2026-04-06T14:17:32Z</time></trkpt><trkpt lat="45.85595626972865" lon="11.00188881517705"><ele>169.0</ele><time>2026-04-06T14:17:33Z</time></trkpt><trkpt lat="45.856142766444954" lon="11.00182028927388"><ele>170.0</ele><time>2026-04-06T14:17:34Z</time></trkpt><trkpt lat="45.856324334403126" lon="11.001743710291992"><ele>171.0</ele><time>2026-04-06T14:17:35Z</time></trkpt><trkpt lat="45.856502124097" lon="11.001654829578968"><ele>172.0</ele><time>2026-04-06T14:17:36Z</time></trkpt><trkpt lat="45.856680910835415" lon="11.001551277816505"><ele>171.0</ele><time>2026-04-06T14:17:37Z</time></trkpt><trkpt lat="45.856857974054186" lon="11.001437633530832"><ele>170.0</ele><time>2026-04-06T14:17:38Z</time></trkpt><trkpt lat="45.85703735538858" lon="11.001328736281357"><ele>169.0</ele><time>2026-04-06T14:17:39Z</time></trkpt><trkpt lat="45.85721702908245" lon="11.001223138508053"><ele>169.0</ele><time>2026-04-06T14:17:40Z</time></trkpt><trkpt lat="45.85739419488944" lon="11.001116029178139"><ele>169.0</ele><time>2026-04-06T14:17:41Z</time></trkpt><trkpt lat="45.857569908206635" lon="11.00101985041579"><ele>169.0</ele><time>2026-04-06T14:17:42Z</time></trkpt><trkpt lat="45.8577459011928" lon="11.000940390389927"><ele>169.0</ele><time>2026-04-06T14:17:43Z</time></trkpt><trkpt lat="45.85793131129609" lon="11.000886573522605"><ele>169.0</ele><time>2026-04-06T14:17:44Z</time></trkpt><trkpt lat="45.85812591872331" lon="11.000865296640132"><ele>169.0</ele><time>2026-04-06T14:17:45Z</time></trkpt><trkpt lat="45.8583311822787" lon="11.000850973330307"><ele>168.66666666666669</ele><time>2026-04-06T14:17:46Z</time></trkpt><trkpt lat="45.858539631322515" lon="11.000856079827466"><ele>168.33333333333334</ele><time>2026-04-06T14:17:47Z</time></trkpt><trkpt lat="45.858750345171586" lon="11.00086533228672"><ele>168.0</ele><time>2026-04-06T14:17:48Z</time></trkpt><trkpt lat="45.85895938642289" lon="11.00086581115151"><ele>168.0</ele><time>2026-04-06T14:17:49Z</time></trkpt><trkpt lat="45.859162260924556" lon="11.000867802325327"><ele>168.0</ele><time>2026-04-06T14:17:50Z</time></trkpt><trkpt lat="45.859358976389515" lon="11.000881903694259"><ele>168.0</ele><time>2026-04-06T14:17:51Z</time></trkpt><trkpt lat="45.85954124703972" lon="11.000918925585374"><ele>168.33333333333334</ele><time>2026-04-06T14:17:52Z</time></trkpt><trkpt lat="45.85971213217982" lon="11.000973541578402"><ele>168.66666666666669</ele><time>2026-04-06T14:17:53Z</time></trkpt><trkpt lat="45.8598715448704" lon="11.001050546576023"><ele>169.0</ele><time>2026-04-06T14:17:54Z</time></trkpt><trkpt lat="45.86003260868875" lon="11.00113929810796"><ele>168.66666666666669</ele><time>2026-04-06T14:17:55Z</time></trkpt><trkpt lat="45.860188462770004" lon="11.001240709849531"><ele>168.33333333333334</ele><time>2026-04-06T14:17:56Z</time></trkpt><trkpt lat="45.86033740300409" lon="11.00135027390495"><ele>168.0</ele><time>2026-04-06T14:17:57Z</time></trkpt><trkpt lat="45.86048809277435" lon="11.001462882523182"><ele>168.0</ele><time>2026-04-06T14:17:58Z</time></trkpt><trkpt lat="45.86063404742081" lon="11.001567007427749"><ele>168.0</ele><time>2026-04-06T14:17:59Z</time></trkpt><trkpt lat="45.86077145922334" lon="11.001668426492516"><ele>168.0</ele><time>2026-04-06T14:18:00Z</time></trkpt><trkpt lat="45.860900104695595" lon="11.001762044441717"><ele>168.25</ele><time>2026-04-06T14:18:01Z</time></trkpt><trkpt lat="45.86102888935654" lon="11.001843751158624"><ele>168.5</ele><time>2026-04-06T14:18:02Z</time></trkpt><trkpt lat="45.86114668987045" lon="11.001917720733145"><ele>168.75</ele><time>2026-04-06T14:18:03Z</time></trkpt><trkpt lat="45.86124527487292" lon="11.001972687898913"><ele>169.0</ele><time>2026-04-06T14:18:04Z</time></trkpt><trkpt lat="45.86132350768085" lon="11.00201362361836"><ele>169.0</ele><time>2026-04-06T14:18:05Z</time></trkpt><trkpt lat="45.8613979142212" lon="11.002056543240919"><ele>169.0</ele><time>2026-04-06T14:18:06Z</time></trkpt><trkpt lat="45.86146828910801" lon="11.002116885764398"><ele>169.0</ele><time>2026-04-06T14:18:07Z</time></trkpt><trkpt lat="45.86154455448197" lon="11.002197105036503"><ele>169.0</ele><time>2026-04-06T14:18:08Z</time></trkpt><trkpt lat="45.861636394060305" lon="11.002255602806052"><ele>169.0</ele><time>2026-04-06T14:18:09Z</time></trkpt><trkpt lat="45.86174092222247" lon="11.002272647631992"><ele>168.79999999999998</ele><time>2026-04-06T14:18:10Z</time></trkpt><trkpt lat="45.86184229218448" lon="11.002274717009644"><ele>168.6</ele><time>2026-04-06T14:18:11Z</time></trkpt><trkpt lat="45.86194041832948" lon="11.00230443000523"><ele>168.4</ele><time>2026-04-06T14:18:12Z</time></trkpt><trkpt lat="45.86204939701269" lon="11.002366896520535"><ele>168.2</ele><time>2026-04-06T14:18:13Z</time></trkpt><trkpt lat="45.862154891737305" lon="11.00242824283938"><ele>168.0</ele><time>2026-04-06T14:18:14Z</time></trkpt><trkpt lat="45.86224340091194" lon="11.002473744465513"><ele>168.0</ele><time>2026-04-06T14:18:15Z</time></trkpt><trkpt lat="45.8623280415842" lon="11.00252047586109"><ele>168.0</ele><time>2026-04-06T14:18:16Z</time></trkpt><trkpt lat="45.86242685907001" lon="11.002570973549568"><ele>168.0</ele><time>2026-04-06T14:18:17Z</time></trkpt><trkpt lat="45.86253595857816" lon="11.002629391616248"><ele>168.0</ele><time>2026-04-06T14:18:18Z</time></trkpt><trkpt lat="45.86263503065706" lon="11.002687469711015"><ele>168.0</ele><time>2026-04-06T14:18:19Z</time></trkpt><trkpt lat="45.86274145215255" lon="11.002735403594457"><ele>168.0</ele><time>2026-04-06T14:18:20Z</time></trkpt><trkpt lat="45.862837606261735" lon="11.002789180922697"><ele>168.0</ele><time>2026-04-06T14:18:21Z</time></trkpt><trkpt lat="45.862955563394166" lon="11.002850573127263"><ele>168.0</ele><time>2026-04-06T14:18:22Z</time></trkpt><trkpt lat="45.863094739318825" lon="11.002942879820907"><ele>168.0</ele><time>2026-04-06T14:18:23Z</time></trkpt><trkpt lat="45.863227054209766" lon="11.003013475088794"><ele>168.0</ele><time>2026-04-06T14:18:24Z</time></trkpt><trkpt lat="45.86333124113102" lon="11.003045878519679"><ele>168.0</ele><time>2026-04-06T14:18:25Z</time></trkpt><trkpt lat="45.86342237811577" lon="11.003103984730087"><ele>168.0</ele><time>2026-04-06T14:18:26Z</time></trkpt><trkpt lat="45.863529265791456" lon="11.00317033914774"><ele>168.0</ele><time>2026-04-06T14:18:27Z</time></trkpt><trkpt lat="45.863638929212485" lon="11.003251779127229"><ele>168.0</ele><time>2026-04-06T14:18:28Z</time></trkpt><trkpt lat="45.86375079547948" lon="11.003361134069637"><ele>168.5</ele><time>2026-04-06T14:18:29Z</time></trkpt><trkpt lat="45.86386284770541" lon="11.003482181601777"><ele>169.0</ele><time>2026-04-06T14:18:30Z</time></trkpt><trkpt lat="45.863971113405135" lon="11.00360779347477"><ele>169.5</ele><time>2026-04-06T14:18:31Z</time></trkpt><trkpt lat="45.86405685215761" lon="11.003750035593718"><ele>170.0</ele><time>2026-04-06T14:18:32Z</time></trkpt><trkpt lat="45.86414858858868" lon="11.003871665164887"><ele>170.0</ele><time>2026-04-06T14:18:33Z</time></trkpt><trkpt lat="45.864244267015295" lon="11.003971244336668"><ele>170.0</ele><time>2026-04-06T14:18:34Z</time></trkpt><trkpt lat="45.864329293536485" lon="11.004086346579415"><ele>170.0</ele><time>2026-04-06T14:18:35Z</time></trkpt><trkpt lat="45.8644206443942" lon="11.004211846899969"><ele>170.0</ele><time>2026-04-06T14:18:36Z</time></trkpt><trkpt lat="45.864503752019175" lon="11.004340305478296"><ele>170.25</ele><time>2026-04-06T14:18:37Z</time></trkpt><trkpt lat="45.86458554110312" lon="11.004471609885073"><ele>170.5</ele><time>2026-04-06T14:18:38Z</time></trkpt><trkpt lat="45.864671357186054" lon="11.004616574421856"><ele>170.75</ele><time>2026-04-06T14:18:39Z</time></trkpt><trkpt lat="45.864765337710054" lon="11.004780657802531"><ele>171.0</ele><time>2026-04-06T14:18:40Z</time></trkpt><trkpt lat="45.86485412889691" lon="11.004973759907129"><ele>171.33333333333334</ele><time>2026-04-06T14:18:41Z</time></trkpt><trkpt lat="45.86495781160503" lon="11.005164185260016"><ele>171.66666666666669</ele><time>2026-04-06T14:18:42Z</time></trkpt><trkpt lat="45.86507369116716" lon="11.00533996929846"><ele>172.0</ele><time>2026-04-06T14:18:43Z</time></trkpt><trkpt lat="45.865166296749216" lon="11.005525009248297"><ele>171.33333333333334</ele><time>2026-04-06T14:18:44Z</time></trkpt><trkpt lat="45.86525804124365" lon="11.005696331727226"><ele>170.66666666666666</ele><time>2026-04-06T14:18:45Z</time></trkpt><trkpt lat="45.865352635290996" lon="11.00586972422169"><ele>170.0</ele><time>2026-04-06T14:18:46Z</time></trkpt><trkpt lat="45.86544690484915" lon="11.006070095922263"><ele>170.0</ele><time>2026-04-06T14:18:47Z</time></trkpt><trkpt lat="45.865555672343746" lon="11.006267854908465"><ele>170.0</ele><time>2026-04-06T14:18:48Z</time></trkpt><trkpt lat="45.86567046104116" lon="11.006439868259061"><ele>170.0</ele><time>2026-04-06T14:18:49Z</time></trkpt><trkpt lat="45.86576849301623" lon="11.006611364453924"><ele>169.75</ele><time>2026-04-06T14:18:50Z</time></trkpt><trkpt lat="45.865873408099155" lon="11.006766813465747"><ele>169.5</ele><time>2026-04-06T14:18:51Z</time></trkpt><trkpt lat="45.86597180846503" lon="11.006914230105755"><ele>169.25</ele><time>2026-04-06T14:18:52Z</time></trkpt><trkpt lat="45.86604681303778" lon="11.007033380899824"><ele>169.0</ele><time>2026-04-06T14:18:53Z</time></trkpt><trkpt lat="45.86609132007365" lon="11.00714305451"><ele>169.2</ele><time>2026-04-06T14:18:54Z</time></trkpt><trkpt lat="45.86609940661579" lon="11.007268061483423"><ele>169.39999999999998</ele><time>2026-04-06T14:18:55Z</time></trkpt><trkpt lat="45.86606661164344" lon="11.007389729920996"><ele>169.6</ele><time>2026-04-06T14:18:56Z</time></trkpt><trkpt lat="45.86600359110419" lon="11.007484930793948"><ele>169.8</ele><time>2026-04-06T14:18:57Z</time></trkpt><trkpt lat="45.86592161230958" lon="11.007554403678036"><ele>170.0</ele><time>2026-04-06T14:18:58Z</time></trkpt><trkpt lat="45.86585284965577" lon="11.007657977495262"><ele>170.0</ele><time>2026-04-06T14:18:59Z</time></trkpt><trkpt lat="45.86584561943437" lon="11.00778678080648"><ele>170.0</ele><time>2026-04-06T14:19:00Z</time></trkpt><trkpt lat="45.86585553220962" lon="11.007936311473806"><ele>170.0</ele><time>2026-04-06T14:19:01Z</time></trkpt><trkpt lat="45.86590242122153" lon="11.008075615329819"><ele>170.0</ele><time>2026-04-06T14:19:02Z</time></trkpt><trkpt lat="45.86596640316865" lon="11.008191953750835"><ele>170.0</ele><time>2026-04-06T14:19:03Z</time></trkpt><trkpt lat="45.866059011694624" lon="11.008274320660552"><ele>170.0</ele><time>2026-04-06T14:19:04Z</time></trkpt><trkpt lat="45.866159892819546" lon="11.008338500806582"><ele>170.0</ele><time>2026-04-06T14:19:05Z</time></trkpt><trkpt lat="45.86625061259319" lon="11.008408142477323"><ele>170.0</ele><time>2026-04-06T14:19:06Z</time></trkpt><trkpt lat="45.866285318329844" lon="11.008579506922718"><ele>170.0</ele><time>2026-04-06T14:19:07Z</time></trkpt><trkpt lat="45.866337924016015" lon="11.008744622596463"><ele>170.0</ele><time>2026-04-06T14:19:08Z</time></trkpt><trkpt lat="45.86638454898476" lon="11.008917146144194"><ele>170.0</ele><time>2026-04-06T14:19:09Z</time></trkpt><trkpt lat="45.86645628922506" lon="11.009081884546909"><ele>170.0</ele><time>2026-04-06T14:19:10Z</time></trkpt><trkpt lat="45.86653476826276" lon="11.009244653755323"><ele>170.0</ele><time>2026-04-06T14:19:11Z</time></trkpt><trkpt lat="45.86662976446862" lon="11.009388538316886"><ele>169.75</ele><time>2026-04-06T14:19:12Z</time></trkpt><trkpt lat="45.86672705938421" lon="11.009528530918573"><ele>169.5</ele><time>2026-04-06T14:19:13Z</time></trkpt><trkpt lat="45.866816218165184" lon="11.00966246399104"><ele>169.25</ele><time>2026-04-06T14:19:14Z</time></trkpt><trkpt lat="45.86690139011194" lon="11.00979268661195"><ele>169.0</ele><time>2026-04-06T14:19:15Z</time></trkpt><trkpt lat="45.86697727703486" lon="11.009910679675986"><ele>169.0</ele><time>2026-04-06T14:19:16Z</time></trkpt><trkpt lat="45.86704715157996" lon="11.010013659720604"><ele>169.0</ele><time>2026-04-06T14:19:17Z</time></trkpt><trkpt lat="45.86710801292931" lon="11.010110738110615"><ele>169.0</ele><time>2026-04-06T14:19:18Z</time></trkpt><trkpt lat="45.867173307099215" lon="11.010210967386442"><ele>169.0</ele><time>2026-04-06T14:19:19Z</time></trkpt><trkpt lat="45.86723914395416" lon="11.010320786034875"><ele>169.0</ele><time>2026-04-06T14:19:20Z</time></trkpt><trkpt lat="45.867307507959474" lon="11.010435252293153"><ele>169.0</ele><time>2026-04-06T14:19:21Z</time></trkpt><trkpt lat="45.8673666278625" lon="11.010553041814239"><ele>169.0</ele><time>2026-04-06T14:19:22Z</time></trkpt><trkpt lat="45.867424768983284" lon="11.01066940100768"><ele>169.0</ele><time>2026-04-06T14:19:23Z</time></trkpt><trkpt lat="45.867481227024236" lon="11.010786704731517"><ele>169.0</ele><time>2026-04-06T14:19:24Z</time></trkpt><trkpt lat="45.86753135321498" lon="11.010910381858828"><ele>169.0</ele><time>2026-04-06T14:19:25Z</time></trkpt><trkpt lat="45.86758031464639" lon="11.011023491514733"><ele>168.39999999999998</ele><time>2026-04-06T14:19:26Z</time></trkpt><trkpt lat="45.867625838785976" lon="11.011134432729111"><ele>167.8</ele><time>2026-04-06T14:19:27Z</time></trkpt><trkpt lat="45.86767507518256" lon="11.011257010249087"><ele>167.2</ele><time>2026-04-06T14:19:28Z</time></trkpt><trkpt lat="45.86772307283588" lon="11.011389113306521"><ele>166.60000000000002</ele><time>2026-04-06T14:19:29Z</time></trkpt><trkpt lat="45.86777687382542" lon="11.011528476989085"><ele>166.0</ele><time>2026-04-06T14:19:30Z</time></trkpt><trkpt lat="45.86782728650048" lon="11.011668186949835"><ele>166.0</ele><time>2026-04-06T14:19:31Z</time></trkpt><trkpt lat="45.86788476391435" lon="11.011818693496691"><ele>166.0</ele><time>2026-04-06T14:19:32Z</time></trkpt><trkpt lat="45.867939246888966" lon="11.011973117264645"><ele>166.0</ele><time>2026-04-06T14:19:33Z</time></trkpt><trkpt lat="45.86798853033924" lon="11.012113180418236"><ele>166.0</ele><time>2026-04-06T14:19:34Z</time></trkpt><trkpt lat="45.86803135603318" lon="11.012239112286021"><ele>166.0</ele><time>2026-04-06T14:19:35Z</time></trkpt><trkpt lat="45.86806869223444" lon="11.012350458830591"><ele>166.0</ele><time>2026-04-06T14:19:36Z</time></trkpt><trkpt lat="45.86810111189504" lon="11.012455937405193"><ele>166.0</ele><time>2026-04-06T14:19:37Z</time></trkpt><trkpt lat="45.86813036582037" lon="11.01256255901196"><ele>166.0</ele><time>2026-04-06T14:19:38Z</time></trkpt><trkpt lat="45.868154423941085" lon="11.01267156074172"><ele>166.0</ele><time>2026-04-06T14:19:39Z</time></trkpt><trkpt lat="45.86817755258057" lon="11.012769496871558"><ele>166.0</ele><time>2026-04-06T14:19:40Z</time></trkpt><trkpt lat="45.868213571099616" lon="11.012865924795017"><ele>166.0</ele><time>2026-04-06T14:19:41Z</time></trkpt><trkpt lat="45.86826546985159" lon="11.012968389691014"><ele>166.16666666666669</ele><time>2026-04-06T14:19:42Z</time></trkpt><trkpt lat="45.86831952186054" lon="11.013078182590203"><ele>166.33333333333334</ele><time>2026-04-06T14:19:43Z</time></trkpt><trkpt lat="45.868361669384576" lon="11.013183643270168"><ele>166.5</ele><time>2026-04-06T14:19:44Z</time></trkpt><trkpt lat="45.86840073331895" lon="11.013296619609404"><ele>166.66666666666666</ele><time>2026-04-06T14:19:45Z</time></trkpt><trkpt lat="45.868436263190944" lon="11.013412909037262"><ele>166.83333333333331</ele><time>2026-04-06T14:19:46Z</time></trkpt><trkpt lat="45.8684667621113" lon="11.013522122344412"><ele>167.0</ele><time>2026-04-06T14:19:47Z</time></trkpt><trkpt lat="45.86850139798063" lon="11.013628640814298"><ele>167.39999999999998</ele><time>2026-04-06T14:19:48Z</time></trkpt><trkpt lat="45.86854429000482" lon="11.013750352961067"><ele>167.79999999999998</ele><time>2026-04-06T14:19:49Z</time></trkpt><trkpt lat="45.86858977164058" lon="11.01388412251234"><ele>168.2</ele><time>2026-04-06T14:19:50Z</time></trkpt><trkpt lat="45.86863568005935" lon="11.014019825194866"><ele>168.6</ele><time>2026-04-06T14:19:51Z</time></trkpt><trkpt lat="45.86868205913858" lon="11.014149755296266"><ele>169.0</ele><time>2026-04-06T14:19:52Z</time></trkpt><trkpt lat="45.868726853030154" lon="11.014257676589624"><ele>169.16666666666669</ele><time>2026-04-06T14:19:53Z</time></trkpt><trkpt lat="45.8687669191049" lon="11.014349294201965"><ele>169.33333333333334</ele><time>2026-04-06T14:19:54Z</time></trkpt><trkpt lat="45.868808356068136" lon="11.014444275719416"><ele>169.5</ele><time>2026-04-06T14:19:55Z</time></trkpt><trkpt lat="45.868857661248185" lon="11.014548786307591"><ele>169.66666666666666</ele><time>2026-04-06T14:19:56Z</time></trkpt><trkpt lat="45.86891052897439" lon="11.014648166519665"><ele>169.83333333333331</ele><time>2026-04-06T14:19:57Z</time></trkpt><trkpt lat="45.86895929794254" lon="11.01473768906993"><ele>170.0</ele><time>2026-04-06T14:19:58Z</time></trkpt><trkpt lat="45.869000949379796" lon="11.0148170262288"><ele>170.0</ele><time>2026-04-06T14:19:59Z</time></trkpt><trkpt lat="45.869045028340786" lon="11.014904021619733"><ele>170.0</ele><time>2026-04-06T14:20:00Z</time></trkpt><trkpt lat="45.86909713191355" lon="11.014997109402142"><ele>170.0</ele><time>2026-04-06T14:20:01Z</time></trkpt><trkpt lat="45.86915605298316" lon="11.015088609707796"><ele>170.0</ele><time>2026-04-06T14:20:02Z</time></trkpt><trkpt lat="45.869219704106506" lon="11.015183549307242"><ele>170.0</ele><time>2026-04-06T14:20:03Z</time></trkpt><trkpt lat="45.86929116252845" lon="11.01528845310719"><ele>170.0</ele><time>2026-04-06T14:20:04Z</time></trkpt><trkpt lat="45.86935603947105" lon="11.015436593796043"><ele>170.0</ele><time>2026-04-06T14:20:05Z</time></trkpt><trkpt lat="45.869438969079205" lon="11.015566761079683"><ele>170.0</ele><time>2026-04-06T14:20:06Z</time></trkpt><trkpt lat="45.86952691635153" lon="11.015704804088015"><ele>170.0</ele><time>2026-04-06T14:20:07Z</time></trkpt><trkpt lat="45.86961507633526" lon="11.01584318104906"><ele>170.0</ele><time>2026-04-06T14:20:08Z</time></trkpt><trkpt lat="45.8697004157975" lon="11.015977130875372"><ele>170.0</ele><time>2026-04-06T14:20:09Z</time></trkpt><trkpt lat="45.869795850938914" lon="11.016092011272736"><ele>170.0</ele><time>2026-04-06T14:20:10Z</time></trkpt><trkpt lat="45.869877997478795" lon="11.01622177350629"><ele>170.0</ele><time>2026-04-06T14:20:11Z</time></trkpt><trkpt lat="45.869959128677465" lon="11.016348797589762"><ele>170.0</ele><time>2026-04-06T14:20:12Z</time></trkpt><trkpt lat="45.87003556815102" lon="11.016472283393192"><ele>170.2</ele><time>2026-04-06T14:20:13Z</time></trkpt><trkpt lat="45.87010941884791" lon="11.016588577203489"><ele>170.4</ele><time>2026-04-06T14:20:14Z</time></trkpt><trkpt lat="45.87017866715964" lon="11.016697467881784"><ele>170.60000000000002</ele><time>2026-04-06T14:20:15Z</time></trkpt><trkpt lat="45.870247775016935" lon="11.016804583043205"><ele>170.8</ele><time>2026-04-06T14:20:16Z</time></trkpt><trkpt lat="45.8703191287256" lon="11.016916855455916"><ele>171.0</ele><time>2026-04-06T14:20:17Z</time></trkpt><trkpt lat="45.87039655889551" lon="11.017034802747308"><ele>171.0</ele><time>2026-04-06T14:20:18Z</time></trkpt><trkpt lat="45.87048145504041" lon="11.017161489650912"><ele>171.0</ele><time>2026-04-06T14:20:19Z</time></trkpt><trkpt lat="45.870557685236484" lon="11.017319199569116"><ele>171.0</ele><time>2026-04-06T14:20:20Z</time></trkpt><trkpt lat="45.870647396087655" lon="11.017460815662801"><ele>171.0</ele><time>2026-04-06T14:20:21Z</time></trkpt><trkpt lat="45.87073456895148" lon="11.017598426794073"><ele>171.25</ele><time>2026-04-06T14:20:22Z</time></trkpt><trkpt lat="45.87083993523559" lon="11.017722218514843"><ele>171.5</ele><time>2026-04-06T14:20:23Z</time></trkpt><trkpt lat="45.87093222283437" lon="11.017878259771424"><ele>171.75</ele><time>2026-04-06T14:20:24Z</time></trkpt><trkpt lat="45.871030673704276" lon="11.01803403843856"><ele>172.0</ele><time>2026-04-06T14:20:25Z</time></trkpt><trkpt lat="45.87112944651992" lon="11.018191723749991"><ele>172.25</ele><time>2026-04-06T14:20:26Z</time></trkpt><trkpt lat="45.87122660287389" lon="11.018351398738305"><ele>172.5</ele><time>2026-04-06T14:20:27Z</time></trkpt><trkpt lat="45.87132403030314" lon="11.018509210403222"><ele>172.75</ele><time>2026-04-06T14:20:28Z</time></trkpt><trkpt lat="45.87141724169561" lon="11.018658687892614"><ele>173.0</ele><time>2026-04-06T14:20:29Z</time></trkpt><trkpt lat="45.87150837627688" lon="11.01880393020742"><ele>173.0</ele><time>2026-04-06T14:20:30Z</time></trkpt><trkpt lat="45.87159700428494" lon="11.018943476168989"><ele>173.0</ele><time>2026-04-06T14:20:31Z</time></trkpt><trkpt lat="45.87168651915255" lon="11.019081919533157"><ele>173.0</ele><time>2026-04-06T14:20:32Z</time></trkpt><trkpt lat="45.87177500817563" lon="11.019222624403831"><ele>173.0</ele><time>2026-04-06T14:20:33Z</time></trkpt><trkpt lat="45.871853599011374" lon="11.01935595035719"><ele>173.0</ele><time>2026-04-06T14:20:34Z</time></trkpt><trkpt lat="45.87192513886265" lon="11.019483665516109"><ele>173.0</ele><time>2026-04-06T14:20:35Z</time></trkpt><trkpt lat="45.8719867588382" lon="11.019611875926575"><ele>173.0</ele><time>2026-04-06T14:20:36Z</time></trkpt><trkpt lat="45.87204517757195" lon="11.019750177254968"><ele>173.0</ele><time>2026-04-06T14:20:37Z</time></trkpt><trkpt lat="45.87209863926253" lon="11.019897436455931"><ele>173.0</ele><time>2026-04-06T14:20:38Z</time></trkpt><trkpt lat="45.87214957791366" lon="11.020036922464335"><ele>173.0</ele><time>2026-04-06T14:20:39Z</time></trkpt><trkpt lat="45.87219820928699" lon="11.020173706329992"><ele>173.0</ele><time>2026-04-06T14:20:40Z</time></trkpt><trkpt lat="45.87223978295978" lon="11.020290710706345"><ele>173.0</ele><time>2026-04-06T14:20:41Z</time></trkpt><trkpt lat="45.87226308174345" lon="11.020386340123267"><ele>173.0</ele><time>2026-04-06T14:20:42Z</time></trkpt><trkpt lat="45.8722687764719" lon="11.02047899010396"><ele>173.0</ele><time>2026-04-06T14:20:43Z</time></trkpt><trkpt lat="45.87224518274699" lon="11.020596844868228"><ele>173.0</ele><time>2026-04-06T14:20:44Z</time></trkpt><trkpt lat="45.87221306640234" lon="11.020715563454969"><ele>173.0</ele><time>2026-04-06T14:20:45Z</time></trkpt><trkpt lat="45.872219041884726" lon="11.020821311814839"><ele>173.0</ele><time>2026-04-06T14:20:46Z</time></trkpt><trkpt lat="45.872292128360314" lon="11.02096721259576"><ele>173.0</ele><time>2026-04-06T14:20:48Z</time></trkpt><trkpt lat="45.87236000949985" lon="11.021008215391191"><ele>173.0</ele><time>2026-04-06T14:20:49Z</time></trkpt><trkpt lat="45.87243810626731" lon="11.021019719055305"><ele>173.0</ele><time>2026-04-06T14:20:50Z</time></trkpt><trkpt lat="45.87251881211442" lon="11.02098361516334"><ele>173.0</ele><time>2026-04-06T14:20:51Z</time></trkpt><trkpt lat="45.87259215835182" lon="11.020917748573913"><ele>173.0</ele><time>2026-04-06T14:20:52Z</time></trkpt><trkpt lat="45.87266262333912" lon="11.020837165101701"><ele>173.0</ele><time>2026-04-06T14:20:53Z</time></trkpt><trkpt lat="45.87273615004357" lon="11.020772833413716"><ele>173.0</ele><time>2026-04-06T14:20:54Z</time></trkpt><trkpt lat="45.87285706872969" lon="11.02078255444242"><ele>173.0</ele><time>2026-04-06T14:20:55Z</time></trkpt><trkpt lat="45.872958627815834" lon="11.020848849121345"><ele>173.0</ele><time>2026-04-06T14:20:56Z</time></trkpt><trkpt lat="45.87307902288443" lon="11.020925556862142"><ele>173.0</ele><time>2026-04-06T14:20:57Z</time></trkpt><trkpt lat="45.873185496754644" lon="11.021069593644087"><ele>173.0</ele><time>2026-04-06T14:20:58Z</time></trkpt><trkpt lat="45.87329026438344" lon="11.02122883706001"><ele>173.0</ele><time>2026-04-06T14:20:59Z</time></trkpt><trkpt lat="45.873412602841896" lon="11.021385526211171"><ele>172.66666666666666</ele><time>2026-04-06T14:21:00Z</time></trkpt><trkpt lat="45.873520070012304" lon="11.021578236897366"><ele>172.33333333333334</ele><time>2026-04-06T14:21:01Z</time></trkpt><trkpt lat="45.87363959194481" lon="11.021787818144865"><ele>172.0</ele><time>2026-04-06T14:21:02Z</time></trkpt><trkpt lat="45.87376389243843" lon="11.021976871671272"><ele>172.33333333333334</ele><time>2026-04-06T14:21:03Z</time></trkpt><trkpt lat="45.873887602848356" lon="11.022168334929804"><ele>172.66666666666666</ele><time>2026-04-06T14:21:04Z</time></trkpt><trkpt lat="45.8740136447625" lon="11.022362679492872"><ele>173.0</ele><time>2026-04-06T14:21:05Z</time></trkpt><trkpt lat="45.87414093620486" lon="11.022561251305659"><ele>173.0</ele><time>2026-04-06T14:21:06Z</time></trkpt><trkpt lat="45.87426830486814" lon="11.022759210984068"><ele>173.0</ele><time>2026-04-06T14:21:07Z</time></trkpt><trkpt lat="45.87439386787639" lon="11.02295758119885"><ele>173.0</ele><time>2026-04-06T14:21:08Z</time></trkpt><trkpt lat="45.87452027744616" lon="11.02315363027593"><ele>174.0</ele><time>2026-04-06T14:21:09Z</time></trkpt><trkpt lat="45.87464574021101" lon="11.02334829389091"><ele>175.0</ele><time>2026-04-06T14:21:10Z</time></trkpt><trkpt lat="45.87477104470693" lon="11.0235439664609"><ele>176.0</ele><time>2026-04-06T14:21:11Z</time></trkpt><trkpt lat="45.874895891159404" lon="11.023741486927038"><ele>176.0</ele><time>2026-04-06T14:21:12Z</time></trkpt><trkpt lat="45.87501961889174" lon="11.023938797204988"><ele>176.0</ele><time>2026-04-06T14:21:13Z</time></trkpt><trkpt lat="45.87514415226478" lon="11.024134896504561"><ele>176.0</ele><time>2026-04-06T14:21:14Z</time></trkpt><trkpt lat="45.87527043090687" lon="11.024332219970916"><ele>175.66666666666666</ele><time>2026-04-06T14:21:15Z</time></trkpt><trkpt lat="45.87539766929324" lon="11.024528124670613"><ele>175.33333333333334</ele><time>2026-04-06T14:21:16Z</time></trkpt><trkpt lat="45.87552848100863" lon="11.024729961414288"><ele>175.0</ele><time>2026-04-06T14:21:17Z</time></trkpt><trkpt lat="45.875661991875916" lon="11.024933156269379"><ele>175.33333333333334</ele><time>2026-04-06T14:21:18Z</time></trkpt><trkpt lat="45.875783922364654" lon="11.025157094384596"><ele>175.66666666666666</ele><time>2026-04-06T14:21:19Z</time></trkpt><trkpt lat="45.875917969659106" lon="11.025367111253955"><ele>176.0</ele><time>2026-04-06T14:21:20Z</time></trkpt><trkpt lat="45.87605564934513" lon="11.025581605897013"><ele>176.0</ele><time>2026-04-06T14:21:21Z</time></trkpt><trkpt lat="45.87619247263654" lon="11.025790163909502"><ele>176.0</ele><time>2026-04-06T14:21:22Z</time></trkpt><trkpt lat="45.876332089528674" lon="11.025999266074272"><ele>176.0</ele><time>2026-04-06T14:21:23Z</time></trkpt><trkpt lat="45.876481808934926" lon="11.026191319848596"><ele>176.66666666666666</ele><time>2026-04-06T14:21:24Z</time></trkpt><trkpt lat="45.87662176780743" lon="11.026392834580644"><ele>177.33333333333334</ele><time>2026-04-06T14:21:25Z</time></trkpt><trkpt lat="45.876764723254524" lon="11.0265896633077"><ele>178.0</ele><time>2026-04-06T14:21:26Z</time></trkpt><trkpt lat="45.87690937921809" lon="11.026784355342516"><ele>178.0</ele><time>2026-04-06T14:21:27Z</time></trkpt><trkpt lat="45.877052093234376" lon="11.026977381263945"><ele>178.0</ele><time>2026-04-06T14:21:28Z</time></trkpt><trkpt lat="45.87719596545807" lon="11.027167198376151"><ele>178.0</ele><time>2026-04-06T14:21:29Z</time></trkpt><trkpt lat="45.877336188515585" lon="11.027362845749064"><ele>178.66666666666669</ele><time>2026-04-06T14:21:30Z</time></trkpt><trkpt lat="45.87747676761934" lon="11.027558112953239"><ele>179.33333333333334</ele><time>2026-04-06T14:21:31Z</time></trkpt><trkpt lat="45.877618716410254" lon="11.027749746180778"><ele>180.0</ele><time>2026-04-06T14:21:32Z</time></trkpt><trkpt lat="45.87775944318093" lon="11.027942658721836"><ele>180.0</ele><time>2026-04-06T14:21:33Z</time></trkpt><trkpt lat="45.877900589169315" lon="11.028134818592067"><ele>180.0</ele><time>2026-04-06T14:21:34Z</time></trkpt><trkpt lat="45.87804457649669" lon="11.028325770758798"><ele>180.0</ele><time>2026-04-06T14:21:35Z</time></trkpt><trkpt lat="45.87818810224565" lon="11.028518124059936"><ele>180.66666666666666</ele><time>2026-04-06T14:21:36Z</time></trkpt><trkpt lat="45.87832833154599" lon="11.028711302120483"><ele>181.33333333333331</ele><time>2026-04-06T14:21:37Z</time></trkpt><trkpt lat="45.87846948963171" lon="11.02890486939319"><ele>182.0</ele><time>2026-04-06T14:21:38Z</time></trkpt><trkpt lat="45.87860980409019" lon="11.02909698263594"><ele>182.33333333333331</ele><time>2026-04-06T14:21:39Z</time></trkpt><trkpt lat="45.878748799539515" lon="11.029287778089722"><ele>182.66666666666666</ele><time>2026-04-06T14:21:40Z</time></trkpt><trkpt lat="45.87888840620519" lon="11.029478180431848"><ele>183.0</ele><time>2026-04-06T14:21:41Z</time></trkpt><trkpt lat="45.879023103665126" lon="11.029667915583413"><ele>183.0</ele><time>2026-04-06T14:21:42Z</time></trkpt><trkpt lat="45.879165070108634" lon="11.029846129557292"><ele>183.0</ele><time>2026-04-06T14:21:43Z</time></trkpt><trkpt lat="45.879301724177566" lon="11.030023682751395"><ele>183.0</ele><time>2026-04-06T14:21:44Z</time></trkpt><trkpt lat="45.879441516490424" lon="11.030192698511215"><ele>183.0</ele><time>2026-04-06T14:21:45Z</time></trkpt><trkpt lat="45.8795820843446" lon="11.030356046432372"><ele>183.0</ele><time>2026-04-06T14:21:46Z</time></trkpt><trkpt lat="45.879720542923444" lon="11.030505115413924"><ele>183.0</ele><time>2026-04-06T14:21:47Z</time></trkpt><trkpt lat="45.879853425992245" lon="11.03064794064022"><ele>183.0</ele><time>2026-04-06T14:21:48Z</time></trkpt><trkpt lat="45.87997848237297" lon="11.030781609360755"><ele>183.0</ele><time>2026-04-06T14:21:49Z</time></trkpt><trkpt lat="45.880088555251085" lon="11.03093222156567"><ele>183.0</ele><time>2026-04-06T14:21:50Z</time></trkpt><trkpt lat="45.88018965706345" lon="11.031061345389283"><ele>183.0</ele><time>2026-04-06T14:21:51Z</time></trkpt><trkpt lat="45.88026134880018" lon="11.03117424851249"><ele>183.16666666666666</ele><time>2026-04-06T14:21:52Z</time></trkpt><trkpt lat="45.88032866188387" lon="11.031266082290134"><ele>183.33333333333334</ele><time>2026-04-06T14:21:53Z</time></trkpt><trkpt lat="45.88034701526004" lon="11.031382966527904"><ele>183.5</ele><time>2026-04-06T14:21:54Z</time></trkpt><trkpt lat="45.88034475150194" lon="11.031506964335247"><ele>183.66666666666669</ele><time>2026-04-06T14:21:55Z</time></trkpt><trkpt lat="45.88033801336027" lon="11.031622083387555"><ele>183.83333333333334</ele><time>2026-04-06T14:21:56Z</time></trkpt><trkpt lat="45.88035807088666" lon="11.031722294570994"><ele>184.0</ele><time>2026-04-06T14:21:57Z</time></trkpt><trkpt lat="45.8804040853765" lon="11.031802616051069"><ele>184.0</ele><time>2026-04-06T14:21:58Z</time></trkpt><trkpt lat="45.88047083999331" lon="11.031849547139164"><ele>184.0</ele><time>2026-04-06T14:21:59Z</time></trkpt><trkpt lat="45.88054589445386" lon="11.031867806613707"><ele>184.0</ele><time>2026-04-06T14:22:00Z</time></trkpt><trkpt lat="45.880629167013076" lon="11.031836843931169"><ele>184.0</ele><time>2026-04-06T14:22:01Z</time></trkpt><trkpt lat="45.8807126509078" lon="11.031777091112955"><ele>184.0</ele><time>2026-04-06T14:22:02Z</time></trkpt><trkpt lat="45.880797636659864" lon="11.031743888318934"><ele>184.0</ele><time>2026-04-06T14:22:03Z</time></trkpt><trkpt lat="45.88090115120794" lon="11.03174858866427"><ele>184.0</ele><time>2026-04-06T14:22:04Z</time></trkpt><trkpt lat="45.88100305315337" lon="11.031789357655644"><ele>184.0</ele><time>2026-04-06T14:22:05Z</time></trkpt><trkpt lat="45.88111763913066" lon="11.031839177826788"><ele>184.0</ele><time>2026-04-06T14:22:06Z</time></trkpt><trkpt lat="45.88124135099925" lon="11.031878808182531"><ele>184.0</ele><time>2026-04-06T14:22:06.999Z</time></trkpt><trkpt lat="45.881365789207" lon="11.03194519939026"><ele>184.0</ele><time>2026-04-06T14:22:07.999Z</time></trkpt><trkpt lat="45.881495472007245" lon="11.031991602429754"><ele>184.0</ele><time>2026-04-06T14:22:08.999Z</time></trkpt><trkpt lat="45.88163609860028" lon="11.032042318886335"><ele>184.0</ele><time>2026-04-06T14:22:09.999Z</time></trkpt><trkpt lat="45.88178215435292" lon="11.032072400762365"><ele>184.0</ele><time>2026-04-06T14:22:10.999Z</time></trkpt><trkpt lat="45.88192768291259" lon="11.032132082438018"><ele>183.5</ele><time>2026-04-06T14:22:11.999Z</time></trkpt><trkpt lat="45.88207051935048" lon="11.032190412696965"><ele>183.0</ele><time>2026-04-06T14:22:12.999Z</time></trkpt><trkpt lat="45.88221307462177" lon="11.032245485473117"><ele>182.5</ele><time>2026-04-06T14:22:13.999Z</time></trkpt><trkpt lat="45.882359779734266" lon="11.032300212396349"><ele>182.0</ele><time>2026-04-06T14:22:14.999Z</time></trkpt><trkpt lat="45.88250772524818" lon="11.03235150130658"><ele>182.25</ele><time>2026-04-06T14:22:15.999Z</time></trkpt><trkpt lat="45.88265588956424" lon="11.032398943728934"><ele>182.5</ele><time>2026-04-06T14:22:16.999Z</time></trkpt><trkpt lat="45.88280242685215" lon="11.032438817610108"><ele>182.75</ele><time>2026-04-06T14:22:17.999Z</time></trkpt><trkpt lat="45.882949446247686" lon="11.032469570501714"><ele>183.0</ele><time>2026-04-06T14:22:18.999Z</time></trkpt><trkpt lat="45.88309647209874" lon="11.032492697477808"><ele>183.0</ele><time>2026-04-06T14:22:19.999Z</time></trkpt><trkpt lat="45.883238589024195" lon="11.032514631153987"><ele>183.0</ele><time>2026-04-06T14:22:20.999Z</time></trkpt><trkpt lat="45.88338257016048" lon="11.032540949350734"><ele>183.0</ele><time>2026-04-06T14:22:21.999Z</time></trkpt><trkpt lat="45.88352719659475" lon="11.032572145674099"><ele>183.0</ele><time>2026-04-06T14:22:22.999Z</time></trkpt><trkpt lat="45.883675529034306" lon="11.032599677150904"><ele>183.66666666666666</ele><time>2026-04-06T14:22:23.999Z</time></trkpt><trkpt lat="45.883825139229636" lon="11.032625887918291"><ele>184.33333333333331</ele><time>2026-04-06T14:22:24.999Z</time></trkpt><trkpt lat="45.883982586463134" lon="11.03264852497438"><ele>185.0</ele><time>2026-04-06T14:22:25.999Z</time></trkpt><trkpt lat="45.88413539066231" lon="11.032670898800456"><ele>185.33333333333331</ele><time>2026-04-06T14:22:26.999Z</time></trkpt><trkpt lat="45.88428670463525" lon="11.03269603643363"><ele>185.66666666666666</ele><time>2026-04-06T14:22:27.999Z</time></trkpt><trkpt lat="45.88443724105436" lon="11.032720627990553"><ele>186.0</ele><time>2026-04-06T14:22:28.999Z</time></trkpt><trkpt lat="45.88458360796055" lon="11.032746754341272"><ele>186.0</ele><time>2026-04-06T14:22:29.999Z</time></trkpt><trkpt lat="45.88472649444479" lon="11.03277182887772"><ele>186.0</ele><time>2026-04-06T14:22:30.999Z</time></trkpt><trkpt lat="45.88486959318477" lon="11.0327947785513"><ele>186.0</ele><time>2026-04-06T14:22:31.999Z</time></trkpt><trkpt lat="45.88501699442261" lon="11.032812393731561"><ele>186.0</ele><time>2026-04-06T14:22:33Z</time></trkpt><trkpt lat="45.885163135802145" lon="11.032834738505917"><ele>186.0</ele><time>2026-04-06T14:22:34Z</time></trkpt><trkpt lat="45.88530802635929" lon="11.032863224911418"><ele>186.0</ele><time>2026-04-06T14:22:35Z</time></trkpt><trkpt lat="45.88545510219578" lon="11.032886675598787"><ele>186.0</ele><time>2026-04-06T14:22:36Z</time></trkpt><trkpt lat="45.88559493041706" lon="11.032911108951307"><ele>186.0</ele><time>2026-04-06T14:22:37Z</time></trkpt><trkpt lat="45.885729648590974" lon="11.03293688310267"><ele>186.0</ele><time>2026-04-06T14:22:38Z</time></trkpt><trkpt lat="45.885856124598995" lon="11.032959093064765"><ele>186.0</ele><time>2026-04-06T14:22:39Z</time></trkpt><trkpt lat="45.88597579110755" lon="11.032981352282714"><ele>186.0</ele><time>2026-04-06T14:22:40Z</time></trkpt><trkpt lat="45.88608976441385" lon="11.032999686736444"><ele>186.0</ele><time>2026-04-06T14:22:41Z</time></trkpt><trkpt lat="45.886196498803756" lon="11.03301493948521"><ele>186.33333333333334</ele><time>2026-04-06T14:22:42Z</time></trkpt><trkpt lat="45.886294515595985" lon="11.03302893750137"><ele>186.66666666666666</ele><time>2026-04-06T14:22:43Z</time></trkpt><trkpt lat="45.88637587186699" lon="11.033044164541145"><ele>187.0</ele><time>2026-04-06T14:22:44Z</time></trkpt><trkpt lat="45.88643866530286" lon="11.033069457933966"><ele>187.33333333333331</ele><time>2026-04-06T14:22:45Z</time></trkpt><trkpt lat="45.886496445570614" lon="11.033126701008568"><ele>187.66666666666666</ele><time>2026-04-06T14:22:46Z</time></trkpt><trkpt lat="45.8865402138113" lon="11.03321128442859"><ele>188.0</ele><time>2026-04-06T14:22:47Z</time></trkpt><trkpt lat="45.88658276565761" lon="11.033277949096602"><ele>188.0</ele><time>2026-04-06T14:22:48Z</time></trkpt><trkpt lat="45.88669163377037" lon="11.03326439471535"><ele>188.0</ele><time>2026-04-06T14:22:50Z</time></trkpt><trkpt lat="45.886749544527476" lon="11.033210667950113"><ele>188.0</ele><time>2026-04-06T14:22:51Z</time></trkpt><trkpt lat="45.88682750448456" lon="11.033162744753326"><ele>188.0</ele><time>2026-04-06T14:22:52Z</time></trkpt><trkpt lat="45.88691731243074" lon="11.033160027655095"><ele>188.0</ele><time>2026-04-06T14:22:53Z</time></trkpt><trkpt lat="45.887009181345064" lon="11.033160885727051"><ele>188.0</ele><time>2026-04-06T14:22:54Z</time></trkpt><trkpt lat="45.88710022021333" lon="11.03317425222907"><ele>188.60000000000002</ele><time>2026-04-06T14:22:55Z</time></trkpt><trkpt lat="45.8871959577751" lon="11.03319018650126"><ele>189.20000000000002</ele><time>2026-04-06T14:22:56Z</time></trkpt><trkpt lat="45.887304015606425" lon="11.03321108184472"><ele>189.8</ele><time>2026-04-06T14:22:57Z</time></trkpt><trkpt lat="45.88741716370386" lon="11.033234445993958"><ele>190.4</ele><time>2026-04-06T14:22:58Z</time></trkpt><trkpt lat="45.88753902904156" lon="11.033257788924141"><ele>191.0</ele><time>2026-04-06T14:22:59Z</time></trkpt><trkpt lat="45.88766405900487" lon="11.033289349571154"><ele>190.75</ele><time>2026-04-06T14:23:00Z</time></trkpt><trkpt lat="45.887785943690126" lon="11.033334042044672"><ele>190.5</ele><time>2026-04-06T14:23:01Z</time></trkpt><trkpt lat="45.88791081588184" lon="11.03338821970589"><ele>190.25</ele><time>2026-04-06T14:23:02Z</time></trkpt><trkpt lat="45.88803700359373" lon="11.033438090157684"><ele>190.0</ele><time>2026-04-06T14:23:03Z</time></trkpt><trkpt lat="45.88817387761558" lon="11.033503863661267"><ele>190.0</ele><time>2026-04-06T14:23:04Z</time></trkpt><trkpt lat="45.88832895470828" lon="11.033566933927727"><ele>190.0</ele><time>2026-04-06T14:23:05Z</time></trkpt><trkpt lat="45.88849643902457" lon="11.033627186382951"><ele>190.0</ele><time>2026-04-06T14:23:06Z</time></trkpt><trkpt lat="45.88867356294542" lon="11.033681787966128"><ele>190.0</ele><time>2026-04-06T14:23:07Z</time></trkpt><trkpt lat="45.88885505341274" lon="11.033733467120015"><ele>190.0</ele><time>2026-04-06T14:23:08Z</time></trkpt><trkpt lat="45.88903436967681" lon="11.033773935760616"><ele>190.0</ele><time>2026-04-06T14:23:09Z</time></trkpt><trkpt lat="45.88921491191509" lon="11.03381088435078"><ele>190.0</ele><time>2026-04-06T14:23:10Z</time></trkpt><trkpt lat="45.88939467372819" lon="11.033849574712859"><ele>190.0</ele><time>2026-04-06T14:23:11Z</time></trkpt><trkpt lat="45.88956687667196" lon="11.033885438494805"><ele>190.0</ele><time>2026-04-06T14:23:12Z</time></trkpt><trkpt lat="45.88973126835772" lon="11.033922647364925"><ele>190.0</ele><time>2026-04-06T14:23:13Z</time></trkpt><trkpt lat="45.88989021139478" lon="11.033955860259043"><ele>190.0</ele><time>2026-04-06T14:23:14Z</time></trkpt><trkpt lat="45.890043153130115" lon="11.033994470884926"><ele>190.0</ele><time>2026-04-06T14:23:15Z</time></trkpt><trkpt lat="45.89018500256414" lon="11.034034241364317"><ele>190.0</ele><time>2026-04-06T14:23:16Z</time></trkpt><trkpt lat="45.89030905575871" lon="11.034085102597365"><ele>190.0</ele><time>2026-04-06T14:23:17Z</time></trkpt><trkpt lat="45.890424882017335" lon="11.034146900763362"><ele>190.0</ele><time>2026-04-06T14:23:18Z</time></trkpt><trkpt lat="45.89053145074599" lon="11.034221012266027"><ele>190.0</ele><time>2026-04-06T14:23:19Z</time></trkpt><trkpt lat="45.890625829673084" lon="11.034304898390985"><ele>190.0</ele><time>2026-04-06T14:23:20Z</time></trkpt><trkpt lat="45.89069999564324" lon="11.034381984885272"><ele>190.0</ele><time>2026-04-06T14:23:21Z</time></trkpt><trkpt lat="45.89075740759075" lon="11.034461148041546"><ele>190.0</ele><time>2026-04-06T14:23:22Z</time></trkpt><trkpt lat="45.890798877891704" lon="11.03456868554579"><ele>190.0</ele><time>2026-04-06T14:23:24Z</time></trkpt><trkpt lat="45.890822974481" lon="11.034734315056683"><ele>190.0</ele><time>2026-04-06T14:23:26Z</time></trkpt><trkpt lat="45.89084442593439" lon="11.034836722666359"><ele>190.0</ele><time>2026-04-06T14:23:27Z</time></trkpt><trkpt lat="45.89090102711069" lon="11.034901595588115"><ele>190.0</ele><time>2026-04-06T14:23:28Z</time></trkpt><trkpt lat="45.890961716914624" lon="11.034944003783837"><ele>190.0</ele><time>2026-04-06T14:23:29Z</time></trkpt><trkpt lat="45.89111316497321" lon="11.034815971507419"><ele>190.0</ele><time>2026-04-06T14:23:31Z</time></trkpt><trkpt lat="45.89117935933566" lon="11.034711325045702"><ele>190.0</ele><time>2026-04-06T14:23:32Z</time></trkpt><trkpt lat="45.89125325832887" lon="11.034591558398215"><ele>190.0</ele><time>2026-04-06T14:23:33Z</time></trkpt><trkpt lat="45.89134462859305" lon="11.034497211575868"><ele>190.0</ele><time>2026-04-06T14:23:34Z</time></trkpt><trkpt lat="45.89145605541955" lon="11.034425647828426"><ele>190.0</ele><time>2026-04-06T14:23:35Z</time></trkpt><trkpt lat="45.89157694420756" lon="11.034379105542987"><ele>190.0</ele><time>2026-04-06T14:23:36Z</time></trkpt><trkpt lat="45.89170636786112" lon="11.034355325667304"><ele>189.5</ele><time>2026-04-06T14:23:37Z</time></trkpt><trkpt lat="45.89184383383329" lon="11.034344184907397"><ele>189.0</ele><time>2026-04-06T14:23:38Z</time></trkpt><trkpt lat="45.891986726306676" lon="11.034332169594796"><ele>188.5</ele><time>2026-04-06T14:23:39Z</time></trkpt><trkpt lat="45.89213743177118" lon="11.034322530056503"><ele>188.0</ele><time>2026-04-06T14:23:40Z</time></trkpt><trkpt lat="45.89229373680975" lon="11.034311973979577"><ele>188.0</ele><time>2026-04-06T14:23:41Z</time></trkpt><trkpt lat="45.892452906935006" lon="11.03430485037953"><ele>188.0</ele><time>2026-04-06T14:23:42Z</time></trkpt><trkpt lat="45.892615057682725" lon="11.034301208882889"><ele>188.0</ele><time>2026-04-06T14:23:43Z</time></trkpt><trkpt lat="45.892778914140365" lon="11.034301396635149"><ele>188.0</ele><time>2026-04-06T14:23:44Z</time></trkpt><trkpt lat="45.89294783037755" lon="11.034300828414123"><ele>188.0</ele><time>2026-04-06T14:23:45Z</time></trkpt><trkpt lat="45.893118593617245" lon="11.034294879771563"><ele>188.0</ele><time>2026-04-06T14:23:46Z</time></trkpt><trkpt lat="45.89329146554881" lon="11.034286857912143"><ele>187.66666666666666</ele><time>2026-04-06T14:23:47Z</time></trkpt><trkpt lat="45.89346295097152" lon="11.034278724747804"><ele>187.33333333333334</ele><time>2026-04-06T14:23:48Z</time></trkpt><trkpt lat="45.89363468741724" lon="11.034270927106993"><ele>187.0</ele><time>2026-04-06T14:23:49Z</time></trkpt><trkpt lat="45.89380433264237" lon="11.034265391527267"><ele>187.0</ele><time>2026-04-06T14:23:50Z</time></trkpt><trkpt lat="45.89397546581372" lon="11.034268774629528"><ele>187.0</ele><time>2026-04-06T14:23:51Z</time></trkpt><trkpt lat="45.89414977347652" lon="11.034290088775224"><ele>187.0</ele><time>2026-04-06T14:23:52Z</time></trkpt><trkpt lat="45.894326395816506" lon="11.034328889388375"><ele>187.0</ele><time>2026-04-06T14:23:53Z</time></trkpt><trkpt lat="45.8945035772251" lon="11.03437327765424"><ele>187.0</ele><time>2026-04-06T14:23:54Z</time></trkpt><trkpt lat="45.89468351479734" lon="11.034418163562723"><ele>187.0</ele><time>2026-04-06T14:23:55Z</time></trkpt><trkpt lat="45.89486289392273" lon="11.034454773443379"><ele>187.0</ele><time>2026-04-06T14:23:56Z</time></trkpt><trkpt lat="45.89504004437164" lon="11.034489765674808"><ele>187.0</ele><time>2026-04-06T14:23:57Z</time></trkpt><trkpt lat="45.89521731462046" lon="11.034526978709204"><ele>187.0</ele><time>2026-04-06T14:23:58Z</time></trkpt><trkpt lat="45.89539688390122" lon="11.03456591784167"><ele>186.0</ele><time>2026-04-06T14:23:59Z</time></trkpt><trkpt lat="45.895573791728545" lon="11.034601845315844"><ele>185.0</ele><time>2026-04-06T14:24:00Z</time></trkpt><trkpt lat="45.89575127055551" lon="11.034638169089714"><ele>184.0</ele><time>2026-04-06T14:24:01Z</time></trkpt><trkpt lat="45.8959301773744" lon="11.034681395062712"><ele>184.0</ele><time>2026-04-06T14:24:02Z</time></trkpt><trkpt lat="45.89610831092801" lon="11.034722989184182"><ele>184.0</ele><time>2026-04-06T14:24:03Z</time></trkpt><trkpt lat="45.89628781402149" lon="11.034757532865834"><ele>184.0</ele><time>2026-04-06T14:24:04Z</time></trkpt><trkpt lat="45.896465463430324" lon="11.034789481388648"><ele>184.0</ele><time>2026-04-06T14:24:05Z</time></trkpt><trkpt lat="45.89664122727891" lon="11.034830780394222"><ele>184.0</ele><time>2026-04-06T14:24:06Z</time></trkpt><trkpt lat="45.89681432826696" lon="11.034871719615152"><ele>184.0</ele><time>2026-04-06T14:24:07Z</time></trkpt><trkpt lat="45.89697928205983" lon="11.03490349628142"><ele>183.75</ele><time>2026-04-06T14:24:08Z</time></trkpt><trkpt lat="45.8971269663267" lon="11.03493571431811"><ele>183.5</ele><time>2026-04-06T14:24:09Z</time></trkpt><trkpt lat="45.89724942058042" lon="11.034959848452813"><ele>183.25</ele><time>2026-04-06T14:24:10Z</time></trkpt><trkpt lat="45.89736310267913" lon="11.034979835386066"><ele>183.0</ele><time>2026-04-06T14:24:11Z</time></trkpt><trkpt lat="45.897472585836205" lon="11.034993908769593"><ele>183.0</ele><time>2026-04-06T14:24:11.999Z</time></trkpt><trkpt lat="45.89759663848626" lon="11.035021534865997"><ele>183.0</ele><time>2026-04-06T14:24:12.999Z</time></trkpt><trkpt lat="45.897739739698" lon="11.035065423163752"><ele>183.0</ele><time>2026-04-06T14:24:13.999Z</time></trkpt><trkpt lat="45.89788950827872" lon="11.035103096681675"><ele>183.0</ele><time>2026-04-06T14:24:14.999Z</time></trkpt><trkpt lat="45.89804906735442" lon="11.035130510992325"><ele>183.0</ele><time>2026-04-06T14:24:15.999Z</time></trkpt><trkpt lat="45.898210870886594" lon="11.035160180646438"><ele>183.0</ele><time>2026-04-06T14:24:16.999Z</time></trkpt><trkpt lat="45.89837757150459" lon="11.03519046269894"><ele>183.0</ele><time>2026-04-06T14:24:17.999Z</time></trkpt><trkpt lat="45.89854374372354" lon="11.035227841496784"><ele>182.0</ele><time>2026-04-06T14:24:18.999Z</time></trkpt><trkpt lat="45.898710630159066" lon="11.035265045407268"><ele>181.0</ele><time>2026-04-06T14:24:19.999Z</time></trkpt><trkpt lat="45.89887947920986" lon="11.035300500477868"><ele>180.0</ele><time>2026-04-06T14:24:20.999Z</time></trkpt><trkpt lat="45.89905090427294" lon="11.035339372634784"><ele>180.0</ele><time>2026-04-06T14:24:21.999Z</time></trkpt><trkpt lat="45.89922500479941" lon="11.035381657144038"><ele>180.0</ele><time>2026-04-06T14:24:22.999Z</time></trkpt><trkpt lat="45.89940331942708" lon="11.03542382978742"><ele>180.0</ele><time>2026-04-06T14:24:23.999Z</time></trkpt><trkpt lat="45.899584486777584" lon="11.035463696675468"><ele>179.0</ele><time>2026-04-06T14:24:24.999Z</time></trkpt><trkpt lat="45.899766887703635" lon="11.035502997357831"><ele>178.0</ele><time>2026-04-06T14:24:25.999Z</time></trkpt><trkpt lat="45.89995427112341" lon="11.03554212144429"><ele>177.0</ele><time>2026-04-06T14:24:26.999Z</time></trkpt><trkpt lat="45.90014286094858" lon="11.035581751259254"><ele>175.66666666666666</ele><time>2026-04-06T14:24:27.999Z</time></trkpt><trkpt lat="45.900331556652375" lon="11.03562375773964"><ele>174.33333333333331</ele><time>2026-04-06T14:24:28.999Z</time></trkpt><trkpt lat="45.90052335199405" lon="11.0356648348532"><ele>173.0</ele><time>2026-04-06T14:24:29.999Z</time></trkpt><trkpt lat="45.90070932990056" lon="11.035703601561321"><ele>173.0</ele><time>2026-04-06T14:24:30.999Z</time></trkpt><trkpt lat="45.90089294735711" lon="11.035741434943056"><ele>173.0</ele><time>2026-04-06T14:24:31.999Z</time></trkpt><trkpt lat="45.90107013217518" lon="11.03577853779866"><ele>173.0</ele><time>2026-04-06T14:24:32.999Z</time></trkpt><trkpt lat="45.901245897218395" lon="11.035817068596739"><ele>174.33333333333331</ele><time>2026-04-06T14:24:33.999Z</time></trkpt><trkpt lat="45.901422026478414" lon="11.035853769211164"><ele>175.66666666666666</ele><time>2026-04-06T14:24:34.999Z</time></trkpt><trkpt lat="45.90160022331867" lon="11.035886495365894"><ele>177.0</ele><time>2026-04-06T14:24:35.999Z</time></trkpt><trkpt lat="45.901780688789756" lon="11.035921859679735"><ele>177.0</ele><time>2026-04-06T14:24:36.999Z</time></trkpt><trkpt lat="45.901965170022656" lon="11.035961841197278"><ele>177.0</ele><time>2026-04-06T14:24:37.999Z</time></trkpt><trkpt lat="45.902153106645244" lon="11.036002593000783"><ele>177.0</ele><time>2026-04-06T14:24:38.999Z</time></trkpt><trkpt lat="45.902343385638304" lon="11.036044665178785"><ele>177.0</ele><time>2026-04-06T14:24:39.999Z</time></trkpt><trkpt lat="45.90253685355396" lon="11.036086702183525"><ele>177.0</ele><time>2026-04-06T14:24:40.999Z</time></trkpt><trkpt lat="45.90273534207283" lon="11.036130362745006"><ele>177.0</ele><time>2026-04-06T14:24:41.999Z</time></trkpt><trkpt lat="45.90293618424598" lon="11.036173093806813"><ele>177.66666666666666</ele><time>2026-04-06T14:24:42.999Z</time></trkpt><trkpt lat="45.90313471891435" lon="11.03621665282747"><ele>178.33333333333331</ele><time>2026-04-06T14:24:43.999Z</time></trkpt><trkpt lat="45.90332856911384" lon="11.036261117025465"><ele>179.0</ele><time>2026-04-06T14:24:44.999Z</time></trkpt><trkpt lat="45.90351133633103" lon="11.036302443627237"><ele>179.0</ele><time>2026-04-06T14:24:45.999Z</time></trkpt><trkpt lat="45.90367780396218" lon="11.036344854156116"><ele>179.0</ele><time>2026-04-06T14:24:46.999Z</time></trkpt><trkpt lat="45.90383648160766" lon="11.036415891616574"><ele>179.0</ele><time>2026-04-06T14:24:47.999Z</time></trkpt><trkpt lat="45.90399360171521" lon="11.036504990526025"><ele>179.0</ele><time>2026-04-06T14:24:48.999Z</time></trkpt><trkpt lat="45.904144430772774" lon="11.036619532665261"><ele>179.0</ele><time>2026-04-06T14:24:49.999Z</time></trkpt><trkpt lat="45.90429127788403" lon="11.036756512897483"><ele>179.0</ele><time>2026-04-06T14:24:50.999Z</time></trkpt><trkpt lat="45.90442876777667" lon="11.036907055454735"><ele>180.66666666666666</ele><time>2026-04-06T14:24:51.999Z</time></trkpt><trkpt lat="45.9045661764331" lon="11.037063382673475"><ele>182.33333333333334</ele><time>2026-04-06T14:24:52.999Z</time></trkpt><trkpt lat="45.9046986869163" lon="11.037221434141951"><ele>184.0</ele><time>2026-04-06T14:24:53.999Z</time></trkpt><trkpt lat="45.90482842779779" lon="11.037376420894685"><ele>185.0</ele><time>2026-04-06T14:24:54.999Z</time></trkpt><trkpt lat="45.90495798315478" lon="11.037528601841355"><ele>186.0</ele><time>2026-04-06T14:24:55.999Z</time></trkpt><trkpt lat="45.90508374346605" lon="11.037681677225184"><ele>187.0</ele><time>2026-04-06T14:24:56.999Z</time></trkpt><trkpt lat="45.905209054274394" lon="11.037832074534961"><ele>184.33333333333334</ele><time>2026-04-06T14:24:57.999Z</time></trkpt><trkpt lat="45.90533015147451" lon="11.037979691565234"><ele>181.66666666666666</ele><time>2026-04-06T14:24:58.999Z</time></trkpt><trkpt lat="45.90545552096713" lon="11.038124135800029"><ele>179.0</ele><time>2026-04-06T14:24:59.999Z</time></trkpt><trkpt lat="45.905573965613485" lon="11.038266569966401"><ele>179.0</ele><time>2026-04-06T14:25:00.999Z</time></trkpt><trkpt lat="45.90569167533429" lon="11.03840498662809"><ele>179.0</ele><time>2026-04-06T14:25:01.999Z</time></trkpt><trkpt lat="45.90580971844128" lon="11.038543444492362"><ele>179.0</ele><time>2026-04-06T14:25:02.999Z</time></trkpt><trkpt lat="45.90592637834693" lon="11.038679652253098"><ele>179.0</ele><time>2026-04-06T14:25:03.999Z</time></trkpt><trkpt lat="45.90603969383627" lon="11.0388119344616"><ele>179.0</ele><time>2026-04-06T14:25:04.999Z</time></trkpt><trkpt lat="45.90614795615846" lon="11.038934970425235"><ele>179.0</ele><time>2026-04-06T14:25:05.999Z</time></trkpt><trkpt lat="45.90625619714308" lon="11.039052129615863"><ele>179.0</ele><time>2026-04-06T14:25:06.999Z</time></trkpt><trkpt lat="45.90635603368431" lon="11.039188565411687"><ele>179.75</ele><time>2026-04-06T14:25:08Z</time></trkpt><trkpt lat="45.90647656390474" lon="11.039295393721149"><ele>180.5</ele><time>2026-04-06T14:25:09Z</time></trkpt><trkpt lat="45.90658034223747" lon="11.039428052203315"><ele>181.25</ele><time>2026-04-06T14:25:10Z</time></trkpt><trkpt lat="45.90669078845433" lon="11.039564987887545"><ele>182.0</ele><time>2026-04-06T14:25:11Z</time></trkpt><trkpt lat="45.906802683340175" lon="11.039697699707174"><ele>182.0</ele><time>2026-04-06T14:25:12Z</time></trkpt><trkpt lat="45.90691481388297" lon="11.0398212798774"><ele>182.0</ele><time>2026-04-06T14:25:13Z</time></trkpt><trkpt lat="45.90702968377323" lon="11.03993072084646"><ele>182.0</ele><time>2026-04-06T14:25:14Z</time></trkpt><trkpt lat="45.907150590324925" lon="11.040039547173786"><ele>182.0</ele><time>2026-04-06T14:25:15Z</time></trkpt><trkpt lat="45.907279832642686" lon="11.040138455646453"><ele>185.75</ele><time>2026-04-06T14:25:16Z</time></trkpt><trkpt lat="45.90741419422973" lon="11.04022509714192"><ele>189.5</ele><time>2026-04-06T14:25:17Z</time></trkpt><trkpt lat="45.90754295458789" lon="11.040299364684097"><ele>193.25</ele><time>2026-04-06T14:25:18Z</time></trkpt><trkpt lat="45.907668744273494" lon="11.040366840217839"><ele>197.0</ele><time>2026-04-06T14:25:19Z</time></trkpt><trkpt lat="45.90778586784472" lon="11.040429954265477"><ele>197.00000000000003</ele><time>2026-04-06T14:25:20Z</time></trkpt><trkpt lat="45.90789193107863" lon="11.040489108689886"><ele>197.0</ele><time>2026-04-06T14:25:21Z</time></trkpt><trkpt lat="45.90798206851688" lon="11.040540347139688"><ele>197.0</ele><time>2026-04-06T14:25:22Z</time></trkpt><trkpt lat="45.90805846011746" lon="11.040586353307162"><ele>197.0</ele><time>2026-04-06T14:25:23Z</time></trkpt><trkpt lat="45.908117890582744" lon="11.040631641759582"><ele>197.00000000000003</ele><time>2026-04-06T14:25:24Z</time></trkpt><trkpt lat="45.90816679938213" lon="11.040703053492196"><ele>197.0</ele><time>2026-04-06T14:25:25Z</time></trkpt><trkpt lat="45.90820595491444" lon="11.040782515501856"><ele>198.16666666666669</ele><time>2026-04-06T14:25:26Z</time></trkpt><trkpt lat="45.908269678666905" lon="11.040822470688493"><ele>199.33333333333334</ele><time>2026-04-06T14:25:27Z</time></trkpt><trkpt lat="45.90834623163507" lon="11.040831521291256"><ele>200.5</ele><time>2026-04-06T14:25:28Z</time></trkpt><trkpt lat="45.908446486152584" lon="11.040822246130375"><ele>201.66666666666669</ele><time>2026-04-06T14:25:29Z</time></trkpt><trkpt lat="45.9085416898088" lon="11.040821510815151"><ele>202.83333333333334</ele><time>2026-04-06T14:25:30Z</time></trkpt><trkpt lat="45.908639864980856" lon="11.040854374465255"><ele>204.0</ele><time>2026-04-06T14:25:31Z</time></trkpt><trkpt lat="45.90873405295856" lon="11.040920082330215"><ele>204.0</ele><time>2026-04-06T14:25:32Z</time></trkpt><trkpt lat="45.90884124144695" lon="11.040987423100862"><ele>204.0</ele><time>2026-04-06T14:25:33Z</time></trkpt><trkpt lat="45.90896726947048" lon="11.041056660933227"><ele>204.0</ele><time>2026-04-06T14:25:34Z</time></trkpt><trkpt lat="45.90910755500874" lon="11.041116880283436"><ele>204.0</ele><time>2026-04-06T14:25:35Z</time></trkpt><trkpt lat="45.909248235909686" lon="11.041186031523829"><ele>204.0</ele><time>2026-04-06T14:25:36Z</time></trkpt><trkpt lat="45.90938760167394" lon="11.041264427006444"><ele>204.0</ele><time>2026-04-06T14:25:37Z</time></trkpt><trkpt lat="45.90952396950186" lon="11.041349674566247"><ele>204.0</ele><time>2026-04-06T14:25:38Z</time></trkpt><trkpt lat="45.909658060844166" lon="11.041442986343133"><ele>204.0</ele><time>2026-04-06T14:25:39Z</time></trkpt><trkpt lat="45.90979566670467" lon="11.041533751638882"><ele>204.0</ele><time>2026-04-06T14:25:40Z</time></trkpt><trkpt lat="45.90993503324432" lon="11.041615829427885"><ele>204.0</ele><time>2026-04-06T14:25:41Z</time></trkpt><trkpt lat="45.91007865559795" lon="11.041695026106495"><ele>204.0</ele><time>2026-04-06T14:25:42Z</time></trkpt><trkpt lat="45.91022474350397" lon="11.041768840002346"><ele>204.33333333333331</ele><time>2026-04-06T14:25:43Z</time></trkpt><trkpt lat="45.910376232245795" lon="11.0418243637179"><ele>204.66666666666666</ele><time>2026-04-06T14:25:44Z</time></trkpt><trkpt lat="45.91052629970029" lon="11.041875386806833"><ele>205.0</ele><time>2026-04-06T14:25:45Z</time></trkpt><trkpt lat="45.91066520183596" lon="11.041935977610901"><ele>205.0</ele><time>2026-04-06T14:25:46Z</time></trkpt><trkpt lat="45.91079307553973" lon="11.042007641553607"><ele>205.0</ele><time>2026-04-06T14:25:47Z</time></trkpt><trkpt lat="45.910917332023196" lon="11.042081819140739"><ele>205.0</ele><time>2026-04-06T14:25:48Z</time></trkpt><trkpt lat="45.91103154725136" lon="11.042163415351204"><ele>205.0</ele><time>2026-04-06T14:25:49Z</time></trkpt><trkpt lat="45.9111480827907" lon="11.042261119867513"><ele>205.0</ele><time>2026-04-06T14:25:50Z</time></trkpt><trkpt lat="45.91126492044776" lon="11.042365783575598"><ele>205.0</ele><time>2026-04-06T14:25:51Z</time></trkpt><trkpt lat="45.91137911840027" lon="11.042472674116382"><ele>205.0</ele><time>2026-04-06T14:25:52Z</time></trkpt><trkpt lat="45.9114860933201" lon="11.04259144339614"><ele>205.0</ele><time>2026-04-06T14:25:53Z</time></trkpt><trkpt lat="45.91158138266756" lon="11.04270857023248"><ele>205.0</ele><time>2026-04-06T14:25:54Z</time></trkpt><trkpt lat="45.911668644861756" lon="11.042828298610793"><ele>205.0</ele><time>2026-04-06T14:25:55Z</time></trkpt><trkpt lat="45.91175419764975" lon="11.042958416026117"><ele>205.0</ele><time>2026-04-06T14:25:56Z</time></trkpt><trkpt lat="45.91183870252117" lon="11.043096426463219"><ele>205.0</ele><time>2026-04-06T14:25:57Z</time></trkpt><trkpt lat="45.91192540686055" lon="11.043235788788435"><ele>204.0</ele><time>2026-04-06T14:25:58Z</time></trkpt><trkpt lat="45.91201341414235" lon="11.043371844523142"><ele>203.0</ele><time>2026-04-06T14:25:59Z</time></trkpt><trkpt lat="45.91210605259916" lon="11.04350557295291"><ele>202.0</ele><time>2026-04-06T14:26:00Z</time></trkpt><trkpt lat="45.91220673625154" lon="11.043626067503473"><ele>201.0</ele><time>2026-04-06T14:26:01Z</time></trkpt><trkpt lat="45.91231252876053" lon="11.04374152763956"><ele>201.0</ele><time>2026-04-06T14:26:02Z</time></trkpt><trkpt lat="45.912424317537464" lon="11.043848355715424"><ele>201.0</ele><time>2026-04-06T14:26:03Z</time></trkpt><trkpt lat="45.91253522240209" lon="11.043938428559786"><ele>201.0</ele><time>2026-04-06T14:26:04Z</time></trkpt><trkpt lat="45.912640675134334" lon="11.044023056813645"><ele>201.0</ele><time>2026-04-06T14:26:05Z</time></trkpt><trkpt lat="45.91273444598466" lon="11.044112586055968"><ele>201.0</ele><time>2026-04-06T14:26:06Z</time></trkpt><trkpt lat="45.912820692232685" lon="11.044223881973839"><ele>201.0</ele><time>2026-04-06T14:26:07Z</time></trkpt><trkpt lat="45.9129069550956" lon="11.04435477837594"><ele>201.0</ele><time>2026-04-06T14:26:08Z</time></trkpt><trkpt lat="45.912994689113745" lon="11.044495473693827"><ele>201.0</ele><time>2026-04-06T14:26:09Z</time></trkpt><trkpt lat="45.913089048692726" lon="11.044635087657994"><ele>201.0</ele><time>2026-04-06T14:26:10Z</time></trkpt><trkpt lat="45.91319091687618" lon="11.044775116129978"><ele>201.0</ele><time>2026-04-06T14:26:11Z</time></trkpt><trkpt lat="45.91329585325509" lon="11.044902809100407"><ele>201.0</ele><time>2026-04-06T14:26:12Z</time></trkpt><trkpt lat="45.91340725466196" lon="11.045034789786463"><ele>201.0</ele><time>2026-04-06T14:26:13Z</time></trkpt><trkpt lat="45.91352058527124" lon="11.045170605955187"><ele>200.66666666666669</ele><time>2026-04-06T14:26:14Z</time></trkpt><trkpt lat="45.913639970775826" lon="11.045312477456624"><ele>200.33333333333334</ele><time>2026-04-06T14:26:15Z</time></trkpt><trkpt lat="45.91376307470793" lon="11.045452482254051"><ele>200.0</ele><time>2026-04-06T14:26:16Z</time></trkpt><trkpt lat="45.91389812440549" lon="11.045588291693159"><ele>200.0</ele><time>2026-04-06T14:26:17Z</time></trkpt><trkpt lat="45.91403044817659" lon="11.045729535328459"><ele>200.0</ele><time>2026-04-06T14:26:17.999Z</time></trkpt><trkpt lat="45.914160889947674" lon="11.045874609489132"><ele>200.0</ele><time>2026-04-06T14:26:18.999Z</time></trkpt><trkpt lat="45.914285387479815" lon="11.046029641657094"><ele>198.0</ele><time>2026-04-06T14:26:19.999Z</time></trkpt><trkpt lat="45.91439377713782" lon="11.046197560758165"><ele>196.0</ele><time>2026-04-06T14:26:20.999Z</time></trkpt><trkpt lat="45.914486646706116" lon="11.046371331351523"><ele>194.0</ele><time>2026-04-06T14:26:21.999Z</time></trkpt><trkpt lat="45.91456432592249" lon="11.046550900376248"><ele>194.0</ele><time>2026-04-06T14:26:22.999Z</time></trkpt><trkpt lat="45.914636289832934" lon="11.046740548197244"><ele>194.0</ele><time>2026-04-06T14:26:23.999Z</time></trkpt><trkpt lat="45.914703124704374" lon="11.046932137996004"><ele>194.0</ele><time>2026-04-06T14:26:24.999Z</time></trkpt><trkpt lat="45.91477170094787" lon="11.04711139821425"><ele>194.0</ele><time>2026-04-06T14:26:25.999Z</time></trkpt><trkpt lat="45.91484567279804" lon="11.04728270567155"><ele>194.0</ele><time>2026-04-06T14:26:26.999Z</time></trkpt><trkpt lat="45.914930364130434" lon="11.047460437715545"><ele>194.0</ele><time>2026-04-06T14:26:27.999Z</time></trkpt><trkpt lat="45.91502791044043" lon="11.047645657487775"><ele>194.0</ele><time>2026-04-06T14:26:28.999Z</time></trkpt><trkpt lat="45.91513453047189" lon="11.047820882472926"><ele>194.33333333333334</ele><time>2026-04-06T14:26:29.999Z</time></trkpt><trkpt lat="45.91524616800306" lon="11.047988299792241"><ele>194.66666666666669</ele><time>2026-04-06T14:26:30.999Z</time></trkpt><trkpt lat="45.91536704610151" lon="11.048148870291248"><ele>195.0</ele><time>2026-04-06T14:26:31.999Z</time></trkpt><trkpt lat="45.91549372835294" lon="11.048305508338773"><ele>195.0</ele><time>2026-04-06T14:26:32.999Z</time></trkpt><trkpt lat="45.91562949557954" lon="11.048459411616903"><ele>195.0</ele><time>2026-04-06T14:26:33.999Z</time></trkpt><trkpt lat="45.91576527138528" lon="11.048617339002408"><ele>195.0</ele><time>2026-04-06T14:26:34.999Z</time></trkpt><trkpt lat="45.91589354686213" lon="11.04877663707158"><ele>192.33333333333334</ele><time>2026-04-06T14:26:35.999Z</time></trkpt><trkpt lat="45.91601140595989" lon="11.048934681210724"><ele>189.66666666666669</ele><time>2026-04-06T14:26:36.999Z</time></trkpt><trkpt lat="45.91611449642974" lon="11.049099766251352"><ele>187.0</ele><time>2026-04-06T14:26:37.999Z</time></trkpt><trkpt lat="45.916202756444136" lon="11.049272031400449"><ele>187.0</ele><time>2026-04-06T14:26:38.999Z</time></trkpt><trkpt lat="45.91628249519256" lon="11.049458727541003"><ele>187.0</ele><time>2026-04-06T14:26:39.999Z</time></trkpt><trkpt lat="45.916350914072574" lon="11.04966265051175"><ele>187.0</ele><time>2026-04-06T14:26:40.999Z</time></trkpt><trkpt lat="45.916411434989726" lon="11.049882195345809"><ele>187.66666666666669</ele><time>2026-04-06T14:26:41.999Z</time></trkpt><trkpt lat="45.91645522775472" lon="11.050121911015166"><ele>188.33333333333334</ele><time>2026-04-06T14:26:42.999Z</time></trkpt><trkpt lat="45.91648483284756" lon="11.050362125641527"><ele>189.0</ele><time>2026-04-06T14:26:43.999Z</time></trkpt><trkpt lat="45.91650715953336" lon="11.050607918084516"><ele>189.33333333333334</ele><time>2026-04-06T14:26:44.999Z</time></trkpt><trkpt lat="45.91653190542787" lon="11.050838012151104"><ele>189.66666666666669</ele><time>2026-04-06T14:26:45.999Z</time></trkpt><trkpt lat="45.91656964861675" lon="11.051057375990851"><ele>190.0</ele><time>2026-04-06T14:26:46.999Z</time></trkpt><trkpt lat="45.91661427316178" lon="11.051262058836034"><ele>190.0</ele><time>2026-04-06T14:26:47.999Z</time></trkpt><trkpt lat="45.916667589986886" lon="11.051460959597334"><ele>190.0</ele><time>2026-04-06T14:26:48.999Z</time></trkpt><trkpt lat="45.916721415209" lon="11.051663817366682"><ele>190.0</ele><time>2026-04-06T14:26:49.999Z</time></trkpt><trkpt lat="45.916779850852144" lon="11.051868402007159"><ele>188.5</ele><time>2026-04-06T14:26:50.999Z</time></trkpt><trkpt lat="45.91683593687186" lon="11.052062050647102"><ele>187.0</ele><time>2026-04-06T14:26:51.999Z</time></trkpt><trkpt lat="45.91688571982735" lon="11.052260104034158"><ele>185.5</ele><time>2026-04-06T14:26:52.999Z</time></trkpt><trkpt lat="45.91692827155006" lon="11.05246815129499"><ele>184.0</ele><time>2026-04-06T14:26:53.999Z</time></trkpt><trkpt lat="45.9169667687715" lon="11.052675181275047"><ele>184.0</ele><time>2026-04-06T14:26:54.999Z</time></trkpt><trkpt lat="45.91699155467711" lon="11.052873020078723"><ele>184.0</ele><time>2026-04-06T14:26:55.999Z</time></trkpt><trkpt lat="45.91700979694779" lon="11.053067104248154"><ele>184.0</ele><time>2026-04-06T14:26:56.999Z</time></trkpt><trkpt lat="45.9170220023155" lon="11.0532574950773"><ele>184.0</ele><time>2026-04-06T14:26:57.999Z</time></trkpt><trkpt lat="45.917036211897255" lon="11.053452497447882"><ele>184.66666666666669</ele><time>2026-04-06T14:26:58.999Z</time></trkpt><trkpt lat="45.91705246994255" lon="11.05365195195918"><ele>185.33333333333334</ele><time>2026-04-06T14:27:00Z</time></trkpt><trkpt lat="45.91707066506938" lon="11.053865421668874"><ele>186.0</ele><time>2026-04-06T14:27:01Z</time></trkpt><trkpt lat="45.91709046082558" lon="11.054099444075458"><ele>185.66666666666666</ele><time>2026-04-06T14:27:02Z</time></trkpt><trkpt lat="45.917109148696646" lon="11.054339045012918"><ele>185.33333333333331</ele><time>2026-04-06T14:27:03Z</time></trkpt><trkpt lat="45.9171259590025" lon="11.054592041179822"><ele>185.0</ele><time>2026-04-06T14:27:04Z</time></trkpt><trkpt lat="45.91714426831662" lon="11.054845704127061"><ele>184.66666666666666</ele><time>2026-04-06T14:27:05Z</time></trkpt><trkpt lat="45.91715732048641" lon="11.055094915290578"><ele>184.33333333333334</ele><time>2026-04-06T14:27:06Z</time></trkpt><trkpt lat="45.917173565254444" lon="11.05534713683013"><ele>184.0</ele><time>2026-04-06T14:27:07Z</time></trkpt><trkpt lat="45.91719178729444" lon="11.055607880724171"><ele>184.33333333333334</ele><time>2026-04-06T14:27:08Z</time></trkpt><trkpt lat="45.91721103607445" lon="11.055874923221225"><ele>184.66666666666666</ele><time>2026-04-06T14:27:09Z</time></trkpt><trkpt lat="45.917226073392555" lon="11.056134769921048"><ele>185.0</ele><time>2026-04-06T14:27:10Z</time></trkpt><trkpt lat="45.9172364740282" lon="11.056383609766316"><ele>185.0</ele><time>2026-04-06T14:27:11Z</time></trkpt><trkpt lat="45.91724312481593" lon="11.056626429418992"><ele>185.0</ele><time>2026-04-06T14:27:12Z</time></trkpt><trkpt lat="45.91724754886935" lon="11.056865564904475"><ele>185.0</ele><time>2026-04-06T14:27:13Z</time></trkpt><trkpt lat="45.91725295553212" lon="11.05709886636442"><ele>185.0</ele><time>2026-04-06T14:27:14Z</time></trkpt><trkpt lat="45.91725596220227" lon="11.057328521114368"><ele>185.0</ele><time>2026-04-06T14:27:15Z</time></trkpt><trkpt lat="45.91725759139484" lon="11.057556127501504"><ele>185.0</ele><time>2026-04-06T14:27:16Z</time></trkpt><trkpt lat="45.917259645507045" lon="11.057781453251096"><ele>184.66666666666666</ele><time>2026-04-06T14:27:17Z</time></trkpt><trkpt lat="45.917261245704445" lon="11.058008745569705"><ele>184.33333333333334</ele><time>2026-04-06T14:27:18Z</time></trkpt><trkpt lat="45.917261524822" lon="11.058228754820485"><ele>184.0</ele><time>2026-04-06T14:27:19Z</time></trkpt><trkpt lat="45.9172642741772" lon="11.058449783692069"><ele>184.75</ele><time>2026-04-06T14:27:20Z</time></trkpt><trkpt lat="45.91726329753374" lon="11.058657914583154"><ele>185.5</ele><time>2026-04-06T14:27:21Z</time></trkpt><trkpt lat="45.91726424247092" lon="11.058859403683268"><ele>186.25</ele><time>2026-04-06T14:27:22Z</time></trkpt><trkpt lat="45.91726560588509" lon="11.059063413974354"><ele>187.0</ele><time>2026-04-06T14:27:23Z</time></trkpt><trkpt lat="45.91727161577546" lon="11.05927291391148"><ele>187.0</ele><time>2026-04-06T14:27:24Z</time></trkpt><trkpt lat="45.91727930136977" lon="11.059483169685961"><ele>187.0</ele><time>2026-04-06T14:27:25Z</time></trkpt><trkpt lat="45.91728164905321" lon="11.05969048564736"><ele>187.0</ele><time>2026-04-06T14:27:26Z</time></trkpt><trkpt lat="45.91728178363188" lon="11.059890041052368"><ele>187.0</ele><time>2026-04-06T14:27:27Z</time></trkpt><trkpt lat="45.917279628569524" lon="11.060081460612988"><ele>186.75</ele><time>2026-04-06T14:27:28Z</time></trkpt><trkpt lat="45.91728079951867" lon="11.060281354962529"><ele>186.5</ele><time>2026-04-06T14:27:29Z</time></trkpt><trkpt lat="45.917286492060974" lon="11.06048137363556"><ele>186.25</ele><time>2026-04-06T14:27:30Z</time></trkpt><trkpt lat="45.91729527788588" lon="11.060689476893478"><ele>186.0</ele><time>2026-04-06T14:27:31Z</time></trkpt><trkpt lat="45.917307417945004" lon="11.060901924149233"><ele>185.66666666666666</ele><time>2026-04-06T14:27:32Z</time></trkpt><trkpt lat="45.91732639978056" lon="11.061118559930616"><ele>185.33333333333331</ele><time>2026-04-06T14:27:33Z</time></trkpt><trkpt lat="45.917350016040835" lon="11.061339155344447"><ele>185.0</ele><time>2026-04-06T14:27:34Z</time></trkpt><trkpt lat="45.917383557159525" lon="11.061567827329522"><ele>185.33333333333331</ele><time>2026-04-06T14:27:35Z</time></trkpt><trkpt lat="45.91742409375376" lon="11.061793656060859"><ele>185.66666666666666</ele><time>2026-04-06T14:27:36Z</time></trkpt><trkpt lat="45.917464458472324" lon="11.062011595750125"><ele>186.0</ele><time>2026-04-06T14:27:37Z</time></trkpt><trkpt lat="45.91751219537905" lon="11.062226957636112"><ele>186.0</ele><time>2026-04-06T14:27:38Z</time></trkpt><trkpt lat="45.91756249901433" lon="11.06244036950007"><ele>186.0</ele><time>2026-04-06T14:27:39Z</time></trkpt><trkpt lat="45.91761279966349" lon="11.06265350345363"><ele>186.0</ele><time>2026-04-06T14:27:40Z</time></trkpt><trkpt lat="45.91766352140701" lon="11.062860268642572"><ele>185.33333333333334</ele><time>2026-04-06T14:27:41Z</time></trkpt><trkpt lat="45.917711269058884" lon="11.063068082117448"><ele>184.66666666666669</ele><time>2026-04-06T14:27:42Z</time></trkpt><trkpt lat="45.91775467120966" lon="11.0632828185375"><ele>184.0</ele><time>2026-04-06T14:27:43Z</time></trkpt><trkpt lat="45.91779500476045" lon="11.063509065523306"><ele>184.0</ele><time>2026-04-06T14:27:44Z</time></trkpt><trkpt lat="45.91782550053937" lon="11.06373720356248"><ele>184.0</ele><time>2026-04-06T14:27:45Z</time></trkpt><trkpt lat="45.91785074143688" lon="11.06396844669528"><ele>184.0</ele><time>2026-04-06T14:27:46Z</time></trkpt><trkpt lat="45.917868203092496" lon="11.064194268190569"><ele>183.66666666666669</ele><time>2026-04-06T14:27:47Z</time></trkpt><trkpt lat="45.91788306843287" lon="11.064419109477596"><ele>183.33333333333334</ele><time>2026-04-06T14:27:48Z</time></trkpt><trkpt lat="45.91789895695739" lon="11.064643587759974"><ele>183.0</ele><time>2026-04-06T14:27:49Z</time></trkpt><trkpt lat="45.91791743528962" lon="11.064858906160213"><ele>183.33333333333334</ele><time>2026-04-06T14:27:50Z</time></trkpt><trkpt lat="45.91793844381959" lon="11.065069701424662"><ele>183.66666666666669</ele><time>2026-04-06T14:27:51Z</time></trkpt><trkpt lat="45.91795639422214" lon="11.065287266733906"><ele>184.0</ele><time>2026-04-06T14:27:52Z</time></trkpt><trkpt lat="45.91797554923734" lon="11.065502607551572"><ele>184.0</ele><time>2026-04-06T14:27:53Z</time></trkpt><trkpt lat="45.917995061341486" lon="11.06572395228282"><ele>184.0</ele><time>2026-04-06T14:27:54Z</time></trkpt><trkpt lat="45.918010195159724" lon="11.065944669300837"><ele>184.0</ele><time>2026-04-06T14:27:55Z</time></trkpt><trkpt lat="45.91801945697555" lon="11.06616272376436"><ele>183.66666666666669</ele><time>2026-04-06T14:27:56Z</time></trkpt><trkpt lat="45.91802286053482" lon="11.066378370857096"><ele>183.33333333333334</ele><time>2026-04-06T14:27:57Z</time></trkpt><trkpt lat="45.91801414080009" lon="11.066593673844862"><ele>183.0</ele><time>2026-04-06T14:27:58Z</time></trkpt><trkpt lat="45.9179994432055" lon="11.06680795619284"><ele>182.0</ele><time>2026-04-06T14:27:59Z</time></trkpt><trkpt lat="45.91796818092028" lon="11.067021641588925"><ele>181.0</ele><time>2026-04-06T14:28:00Z</time></trkpt><trkpt lat="45.91793261860201" lon="11.067218400557882"><ele>180.0</ele><time>2026-04-06T14:28:01Z</time></trkpt><trkpt lat="45.91789191613932" lon="11.06740735979197"><ele>179.0</ele><time>2026-04-06T14:28:02Z</time></trkpt><trkpt lat="45.91785385716927" lon="11.067602196829176"><ele>178.75</ele><time>2026-04-06T14:28:03Z</time></trkpt><trkpt lat="45.917814247901475" lon="11.067798901843112"><ele>178.5</ele><time>2026-04-06T14:28:04Z</time></trkpt><trkpt lat="45.91777520205454" lon="11.067995262016531"><ele>178.25</ele><time>2026-04-06T14:28:05Z</time></trkpt><trkpt lat="45.91773372585361" lon="11.068200883402096"><ele>178.0</ele><time>2026-04-06T14:28:06Z</time></trkpt><trkpt lat="45.91769179040507" lon="11.068407568722538"><ele>177.5</ele><time>2026-04-06T14:28:07Z</time></trkpt><trkpt lat="45.917654265902826" lon="11.068609963313815"><ele>177.0</ele><time>2026-04-06T14:28:08Z</time></trkpt><trkpt lat="45.91761597743518" lon="11.06881680693811"><ele>176.5</ele><time>2026-04-06T14:28:09Z</time></trkpt><trkpt lat="45.91757828850213" lon="11.069027240643313"><ele>176.0</ele><time>2026-04-06T14:28:10Z</time></trkpt><trkpt lat="45.917538885573606" lon="11.069243796375305"><ele>176.0</ele><time>2026-04-06T14:28:11Z</time></trkpt><trkpt lat="45.91749611560676" lon="11.069464990537066"><ele>176.0</ele><time>2026-04-06T14:28:12Z</time></trkpt><trkpt lat="45.91745165102971" lon="11.06968647862833"><ele>176.0</ele><time>2026-04-06T14:28:13Z</time></trkpt><trkpt lat="45.91740737552292" lon="11.069905806722744"><ele>175.33333333333331</ele><time>2026-04-06T14:28:14Z</time></trkpt><trkpt lat="45.917366298011956" lon="11.070128696555315"><ele>174.66666666666666</ele><time>2026-04-06T14:28:15Z</time></trkpt><trkpt lat="45.91732451433905" lon="11.070349519508484"><ele>174.0</ele><time>2026-04-06T14:28:16Z</time></trkpt><trkpt lat="45.91728229944433" lon="11.07057059624504"><ele>174.0</ele><time>2026-04-06T14:28:17Z</time></trkpt><trkpt lat="45.91724266893045" lon="11.070796581333457"><ele>174.0</ele><time>2026-04-06T14:28:18Z</time></trkpt><trkpt lat="45.9172051146445" lon="11.071020935328356"><ele>174.0</ele><time>2026-04-06T14:28:19Z</time></trkpt><trkpt lat="45.91717407455488" lon="11.071262689414564"><ele>174.0</ele><time>2026-04-06T14:28:20Z</time></trkpt><trkpt lat="45.9171590743268" lon="11.07152719690184"><ele>174.0</ele><time>2026-04-06T14:28:21Z</time></trkpt><trkpt lat="45.917138386583225" lon="11.071796902219091"><ele>174.0</ele><time>2026-04-06T14:28:22Z</time></trkpt><trkpt lat="45.91713445805626" lon="11.072044957809663"><ele>174.0</ele><time>2026-04-06T14:28:23Z</time></trkpt><trkpt lat="45.91714771826047" lon="11.072280777086343"><ele>174.0</ele><time>2026-04-06T14:28:23.999Z</time></trkpt><trkpt lat="45.91714332651874" lon="11.072503759174609"><ele>174.0</ele><time>2026-04-06T14:28:24.999Z</time></trkpt><trkpt lat="45.9171402885242" lon="11.072725971584934"><ele>174.0</ele><time>2026-04-06T14:28:25.999Z</time></trkpt><trkpt lat="45.91714556314389" lon="11.072952842333704"><ele>174.0</ele><time>2026-04-06T14:28:26.999Z</time></trkpt><trkpt lat="45.91716777804312" lon="11.073179145777177"><ele>174.0</ele><time>2026-04-06T14:28:27.999Z</time></trkpt><trkpt lat="45.917215078207256" lon="11.07339602324514"><ele>174.33333333333334</ele><time>2026-04-06T14:28:28.999Z</time></trkpt><trkpt lat="45.9172790422611" lon="11.073604428249965"><ele>174.66666666666669</ele><time>2026-04-06T14:28:29.999Z</time></trkpt><trkpt lat="45.91735368403914" lon="11.07379792368724"><ele>175.0</ele><time>2026-04-06T14:28:30.999Z</time></trkpt><trkpt lat="45.91743588940293" lon="11.073973210278375"><ele>175.0</ele><time>2026-04-06T14:28:31.999Z</time></trkpt><trkpt lat="45.917527608815746" lon="11.074150097413744"><ele>175.0</ele><time>2026-04-06T14:28:32.999Z</time></trkpt><trkpt lat="45.917617021837515" lon="11.074322254937853"><ele>175.0</ele><time>2026-04-06T14:28:33.999Z</time></trkpt><trkpt lat="45.91770800622729" lon="11.074506155499838"><ele>175.0</ele><time>2026-04-06T14:28:34.999Z</time></trkpt><trkpt lat="45.91779193738049" lon="11.074704926834848"><ele>175.0</ele><time>2026-04-06T14:28:35.999Z</time></trkpt><trkpt lat="45.917849380783046" lon="11.07492566235414"><ele>175.0</ele><time>2026-04-06T14:28:36.999Z</time></trkpt><trkpt lat="45.91790295128442" lon="11.075141554240275"><ele>175.0</ele><time>2026-04-06T14:28:37.999Z</time></trkpt><trkpt lat="45.91794130074756" lon="11.075353478186184"><ele>175.0</ele><time>2026-04-06T14:28:38.999Z</time></trkpt><trkpt lat="45.91798833808581" lon="11.075563101526008"><ele>175.0</ele><time>2026-04-06T14:28:39.999Z</time></trkpt><trkpt lat="45.91800784970217" lon="11.075788054797254"><ele>175.0</ele><time>2026-04-06T14:28:40.999Z</time></trkpt><trkpt lat="45.918019423096176" lon="11.076016300650815"><ele>175.0</ele><time>2026-04-06T14:28:41.999Z</time></trkpt><trkpt lat="45.91802355834875" lon="11.076245946901368"><ele>175.0</ele><time>2026-04-06T14:28:42.999Z</time></trkpt><trkpt lat="45.918020966294" lon="11.076479186019961"><ele>175.33333333333334</ele><time>2026-04-06T14:28:43.999Z</time></trkpt><trkpt lat="45.91801719290097" lon="11.076727550241074"><ele>175.66666666666666</ele><time>2026-04-06T14:28:44.999Z</time></trkpt><trkpt lat="45.91801424750962" lon="11.076980020231431"><ele>176.0</ele><time>2026-04-06T14:28:45.999Z</time></trkpt><trkpt lat="45.918012978419405" lon="11.077226700116586"><ele>175.66666666666666</ele><time>2026-04-06T14:28:46.999Z</time></trkpt><trkpt lat="45.918008158687414" lon="11.077472795888827"><ele>175.33333333333334</ele><time>2026-04-06T14:28:48Z</time></trkpt><trkpt lat="45.917999368375995" lon="11.077718903727062"><ele>175.0</ele><time>2026-04-06T14:28:49Z</time></trkpt><trkpt lat="45.91798902811629" lon="11.077965794785877"><ele>175.0</ele><time>2026-04-06T14:28:50Z</time></trkpt><trkpt lat="45.917979838044225" lon="11.078205747603986"><ele>175.0</ele><time>2026-04-06T14:28:51Z</time></trkpt><trkpt lat="45.91797150924619" lon="11.078435453169515"><ele>175.0</ele><time>2026-04-06T14:28:52Z</time></trkpt><trkpt lat="45.91796512967758" lon="11.078665192253426"><ele>175.33333333333334</ele><time>2026-04-06T14:28:53Z</time></trkpt><trkpt lat="45.91796333316831" lon="11.078906121612155"><ele>175.66666666666666</ele><time>2026-04-06T14:28:54Z</time></trkpt><trkpt lat="45.91797104673907" lon="11.079149902028611"><ele>176.0</ele><time>2026-04-06T14:28:55Z</time></trkpt><trkpt lat="45.917996663060705" lon="11.07939318814855"><ele>176.66666666666666</ele><time>2026-04-06T14:28:56Z</time></trkpt><trkpt lat="45.91803422467666" lon="11.07963166140786"><ele>177.33333333333334</ele><time>2026-04-06T14:28:57Z</time></trkpt><trkpt lat="45.918081885305234" lon="11.079870714866603"><ele>178.0</ele><time>2026-04-06T14:28:58Z</time></trkpt><trkpt lat="45.918136762852605" lon="11.080113443962672"><ele>178.0</ele><time>2026-04-06T14:28:59Z</time></trkpt><trkpt lat="45.91821047908269" lon="11.080358631082621"><ele>178.0</ele><time>2026-04-06T14:29:00Z</time></trkpt><trkpt lat="45.91830327235701" lon="11.080617880800041"><ele>178.0</ele><time>2026-04-06T14:29:01Z</time></trkpt><trkpt lat="45.918374573443614" lon="11.080900530240358"><ele>177.66666666666669</ele><time>2026-04-06T14:29:02Z</time></trkpt><trkpt lat="45.91846127959842" lon="11.081181267577403"><ele>177.33333333333334</ele><time>2026-04-06T14:29:03Z</time></trkpt><trkpt lat="45.918551665547675" lon="11.081473919586454"><ele>177.0</ele><time>2026-04-06T14:29:04Z</time></trkpt><trkpt lat="45.91865202173355" lon="11.081752827436944"><ele>176.33333333333334</ele><time>2026-04-06T14:29:05Z</time></trkpt><trkpt lat="45.91873588943262" lon="11.082044213654616"><ele>175.66666666666669</ele><time>2026-04-06T14:29:06Z</time></trkpt><trkpt lat="45.918823432163656" lon="11.082333297338213"><ele>175.0</ele><time>2026-04-06T14:29:07Z</time></trkpt><trkpt lat="45.9189098905566" lon="11.082619803830452"><ele>175.0</ele><time>2026-04-06T14:29:08Z</time></trkpt><trkpt lat="45.91899733146102" lon="11.08290881329643"><ele>175.0</ele><time>2026-04-06T14:29:09Z</time></trkpt><trkpt lat="45.91907989323958" lon="11.083195368128859"><ele>175.0</ele><time>2026-04-06T14:29:10Z</time></trkpt><trkpt lat="45.91914634017846" lon="11.08348938391811"><ele>175.0</ele><time>2026-04-06T14:29:11Z</time></trkpt><trkpt lat="45.91919922032748" lon="11.083786791530759"><ele>175.0</ele><time>2026-04-06T14:29:12Z</time></trkpt><trkpt lat="45.91924159807872" lon="11.084084653788253"><ele>175.0</ele><time>2026-04-06T14:29:13Z</time></trkpt><trkpt lat="45.919277411058424" lon="11.084385548630355"><ele>175.33333333333334</ele><time>2026-04-06T14:29:14Z</time></trkpt><trkpt lat="45.91931606866065" lon="11.084684733599452"><ele>175.66666666666666</ele><time>2026-04-06T14:29:15Z</time></trkpt><trkpt lat="45.91936024029701" lon="11.084980430565608"><ele>176.0</ele><time>2026-04-06T14:29:16Z</time></trkpt><trkpt lat="45.91939846344856" lon="11.085275545066464"><ele>176.0</ele><time>2026-04-06T14:29:17Z</time></trkpt><trkpt lat="45.919437884480075" lon="11.085567420025853"><ele>176.0</ele><time>2026-04-06T14:29:18Z</time></trkpt><trkpt lat="45.91947833395523" lon="11.085861301437918"><ele>176.0</ele><time>2026-04-06T14:29:19Z</time></trkpt><trkpt lat="45.91951931819819" lon="11.086149779716854"><ele>175.66666666666666</ele><time>2026-04-06T14:29:20Z</time></trkpt><trkpt lat="45.919562448952455" lon="11.086437875597491"><ele>175.33333333333334</ele><time>2026-04-06T14:29:21Z</time></trkpt><trkpt lat="45.919612276286664" lon="11.086719143402084"><ele>175.0</ele><time>2026-04-06T14:29:22Z</time></trkpt><trkpt lat="45.91967402010134" lon="11.086996806973675"><ele>175.0</ele><time>2026-04-06T14:29:23Z</time></trkpt><trkpt lat="45.91974599650285" lon="11.087269469878823"><ele>175.0</ele><time>2026-04-06T14:29:24Z</time></trkpt><trkpt lat="45.919828699463025" lon="11.087530262274921"><ele>175.0</ele><time>2026-04-06T14:29:25Z</time></trkpt><trkpt lat="45.9199214235271" lon="11.087783241905496"><ele>175.0</ele><time>2026-04-06T14:29:26Z</time></trkpt><trkpt lat="45.920016050418944" lon="11.088036228084526"><ele>175.0</ele><time>2026-04-06T14:29:27Z</time></trkpt><trkpt lat="45.92010487048682" lon="11.088287868559087"><ele>175.0</ele><time>2026-04-06T14:29:28Z</time></trkpt><trkpt lat="45.920192298423345" lon="11.0885386576744"><ele>175.0</ele><time>2026-04-06T14:29:29Z</time></trkpt><trkpt lat="45.920282725941654" lon="11.088783824276206"><ele>175.0</ele><time>2026-04-06T14:29:30Z</time></trkpt><trkpt lat="45.9203832469477" lon="11.089015045552285"><ele>175.0</ele><time>2026-04-06T14:29:31Z</time></trkpt><trkpt lat="45.9204941196002" lon="11.089239948995175"><ele>175.66666666666669</ele><time>2026-04-06T14:29:32Z</time></trkpt><trkpt lat="45.92061232043602" lon="11.089454771093008"><ele>176.33333333333334</ele><time>2026-04-06T14:29:33Z</time></trkpt><trkpt lat="45.92071880315118" lon="11.089676969397255"><ele>177.0</ele><time>2026-04-06T14:29:34Z</time></trkpt><trkpt lat="45.920827069079024" lon="11.089897206281098"><ele>176.33333333333334</ele><time>2026-04-06T14:29:35Z</time></trkpt><trkpt lat="45.92093595902635" lon="11.090115904057756"><ele>175.66666666666669</ele><time>2026-04-06T14:29:36Z</time></trkpt><trkpt lat="45.921048003221216" lon="11.090331246562295"><ele>175.0</ele><time>2026-04-06T14:29:37Z</time></trkpt><trkpt lat="45.92116565409346" lon="11.090540838178761"><ele>175.0</ele><time>2026-04-06T14:29:38Z</time></trkpt><trkpt lat="45.92129445310114" lon="11.09073841216298"><ele>175.0</ele><time>2026-04-06T14:29:39Z</time></trkpt><trkpt lat="45.92143583870546" lon="11.090924468936983"><ele>175.0</ele><time>2026-04-06T14:29:40Z</time></trkpt><trkpt lat="45.92158145413448" lon="11.09110637417998"><ele>175.33333333333334</ele><time>2026-04-06T14:29:41Z</time></trkpt><trkpt lat="45.92172424461843" lon="11.09129202095793"><ele>175.66666666666666</ele><time>2026-04-06T14:29:42Z</time></trkpt><trkpt lat="45.92187093401572" lon="11.091475560347105"><ele>176.0</ele><time>2026-04-06T14:29:43Z</time></trkpt><trkpt lat="45.92202485081037" lon="11.091650503412353"><ele>179.0</ele><time>2026-04-06T14:29:44Z</time></trkpt><trkpt lat="45.92218255228991" lon="11.091810805568402"><ele>182.0</ele><time>2026-04-06T14:29:45Z</time></trkpt><trkpt lat="45.92234372343536" lon="11.091960088063328"><ele>185.0</ele><time>2026-04-06T14:29:46Z</time></trkpt><trkpt lat="45.922515482930365" lon="11.092094091639206"><ele>186.33333333333331</ele><time>2026-04-06T14:29:47Z</time></trkpt><trkpt lat="45.92268881643198" lon="11.09221645665835"><ele>187.66666666666666</ele><time>2026-04-06T14:29:48Z</time></trkpt><trkpt lat="45.92286797215984" lon="11.092327331287901"><ele>189.0</ele><time>2026-04-06T14:29:49Z</time></trkpt><trkpt lat="45.923047507761034" lon="11.092427784089177"><ele>189.0</ele><time>2026-04-06T14:29:50Z</time></trkpt><trkpt lat="45.9232310993415" lon="11.092513121056083"><ele>189.0</ele><time>2026-04-06T14:29:51Z</time></trkpt><trkpt lat="45.92341906221659" lon="11.092589517404654"><ele>189.0</ele><time>2026-04-06T14:29:52Z</time></trkpt><trkpt lat="45.923611887617824" lon="11.092654555710194"><ele>187.33333333333334</ele><time>2026-04-06T14:29:53Z</time></trkpt><trkpt lat="45.92380745188129" lon="11.092711240172555"><ele>185.66666666666669</ele><time>2026-04-06T14:29:54Z</time></trkpt><trkpt lat="45.9240032333759" lon="11.092763736434515"><ele>184.0</ele><time>2026-04-06T14:29:55Z</time></trkpt><trkpt lat="45.92419952263678" lon="11.092817258922622"><ele>182.66666666666669</ele><time>2026-04-06T14:29:56Z</time></trkpt><trkpt lat="45.92439795555396" lon="11.092872585662889"><ele>181.33333333333334</ele><time>2026-04-06T14:29:57Z</time></trkpt><trkpt lat="45.924597216517896" lon="11.092924417545078"><ele>180.0</ele><time>2026-04-06T14:29:58Z</time></trkpt><trkpt lat="45.924794418791706" lon="11.092977895687154"><ele>180.0</ele><time>2026-04-06T14:29:59Z</time></trkpt><trkpt lat="45.92499223369632" lon="11.09303246459274"><ele>180.0</ele><time>2026-04-06T14:30:00Z</time></trkpt><trkpt lat="45.92518976417524" lon="11.093087437198221"><ele>180.0</ele><time>2026-04-06T14:30:01Z</time></trkpt><trkpt lat="45.925381939591915" lon="11.093132866027505"><ele>180.0</ele><time>2026-04-06T14:30:02Z</time></trkpt><trkpt lat="45.92557638913256" lon="11.093165502426956"><ele>180.0</ele><time>2026-04-06T14:30:03Z</time></trkpt><trkpt lat="45.92576746705356" lon="11.093185924445015"><ele>180.0</ele><time>2026-04-06T14:30:04Z</time></trkpt><trkpt lat="45.92595808803067" lon="11.093196165149363"><ele>180.0</ele><time>2026-04-06T14:30:05Z</time></trkpt><trkpt lat="45.92614769857405" lon="11.093195746906241"><ele>180.0</ele><time>2026-04-06T14:30:06Z</time></trkpt><trkpt lat="45.926336394008906" lon="11.093189705092778"><ele>180.0</ele><time>2026-04-06T14:30:07Z</time></trkpt><trkpt lat="45.92652217815862" lon="11.09318504913482"><ele>180.0</ele><time>2026-04-06T14:30:08Z</time></trkpt><trkpt lat="45.926707654273635" lon="11.093181579163964"><ele>180.0</ele><time>2026-04-06T14:30:09Z</time></trkpt><trkpt lat="45.926891387071706" lon="11.093176175160812"><ele>180.0</ele><time>2026-04-06T14:30:10Z</time></trkpt><trkpt lat="45.92707055922617" lon="11.093171717555016"><ele>180.66666666666666</ele><time>2026-04-06T14:30:11Z</time></trkpt><trkpt lat="45.927248692753594" lon="11.093166225218642"><ele>181.33333333333331</ele><time>2026-04-06T14:30:12Z</time></trkpt><trkpt lat="45.927422551787735" lon="11.093162368282826"><ele>182.0</ele><time>2026-04-06T14:30:13Z</time></trkpt><trkpt lat="45.927598404303275" lon="11.093155919849035"><ele>183.66666666666666</ele><time>2026-04-06T14:30:14Z</time></trkpt><trkpt lat="45.92776332058537" lon="11.093150303200758"><ele>185.33333333333334</ele><time>2026-04-06T14:30:15Z</time></trkpt><trkpt lat="45.92792547218897" lon="11.093144355726425"><ele>187.0</ele><time>2026-04-06T14:30:16Z</time></trkpt><trkpt lat="45.92808725100635" lon="11.093138347526574"><ele>187.0</ele><time>2026-04-06T14:30:17Z</time></trkpt><trkpt lat="45.92824563176136" lon="11.093135272252415"><ele>187.0</ele><time>2026-04-06T14:30:18Z</time></trkpt><trkpt lat="45.92840267120484" lon="11.09313422074168"><ele>187.0</ele><time>2026-04-06T14:30:19Z</time></trkpt><trkpt lat="45.92855927292291" lon="11.093136379126207"><ele>189.0</ele><time>2026-04-06T14:30:20Z</time></trkpt><trkpt lat="45.9287143770305" lon="11.093134249959132"><ele>191.0</ele><time>2026-04-06T14:30:21Z</time></trkpt><trkpt lat="45.92887064167272" lon="11.093129755797804"><ele>193.0</ele><time>2026-04-06T14:30:22Z</time></trkpt><trkpt lat="45.9290250104948" lon="11.093127805721863"><ele>193.0</ele><time>2026-04-06T14:30:23Z</time></trkpt><trkpt lat="45.92918097030203" lon="11.093128347005933"><ele>193.0</ele><time>2026-04-06T14:30:24Z</time></trkpt><trkpt lat="45.92933227122832" lon="11.09313294150725"><ele>193.0</ele><time>2026-04-06T14:30:25Z</time></trkpt><trkpt lat="45.929475204579084" lon="11.093134316611476"><ele>193.75</ele><time>2026-04-06T14:30:26Z</time></trkpt><trkpt lat="45.929615913616495" lon="11.093139825126057"><ele>194.5</ele><time>2026-04-06T14:30:27Z</time></trkpt><trkpt lat="45.9297517142107" lon="11.093152768040364"><ele>195.25</ele><time>2026-04-06T14:30:28Z</time></trkpt><trkpt lat="45.929885099007194" lon="11.093182698013562"><ele>196.0</ele><time>2026-04-06T14:30:29Z</time></trkpt><trkpt lat="45.930020447080445" lon="11.093237484897895"><ele>196.25</ele><time>2026-04-06T14:30:30Z</time></trkpt><trkpt lat="45.93015564966812" lon="11.093318565194226"><ele>196.5</ele><time>2026-04-06T14:30:31Z</time></trkpt><trkpt lat="45.93029320652466" lon="11.093398022084212"><ele>196.75</ele><time>2026-04-06T14:30:32Z</time></trkpt><trkpt lat="45.93043095054781" lon="11.093493118054065"><ele>197.0</ele><time>2026-04-06T14:30:33Z</time></trkpt><trkpt lat="45.93056661150028" lon="11.093599846893559"><ele>197.0</ele><time>2026-04-06T14:30:34Z</time></trkpt><trkpt lat="45.93070772836404" lon="11.093706425053922"><ele>197.0</ele><time>2026-04-06T14:30:35Z</time></trkpt><trkpt lat="45.93084528329006" lon="11.093807140896155"><ele>197.0</ele><time>2026-04-06T14:30:36Z</time></trkpt><trkpt lat="45.93097609784058" lon="11.093905508533215"><ele>196.0</ele><time>2026-04-06T14:30:37Z</time></trkpt><trkpt lat="45.9311069988021" lon="11.09399956228608"><ele>195.0</ele><time>2026-04-06T14:30:38Z</time></trkpt><trkpt lat="45.931241412532316" lon="11.094099989304771"><ele>194.0</ele><time>2026-04-06T14:30:39Z</time></trkpt><trkpt lat="45.93137290370095" lon="11.094203195647799"><ele>193.0</ele><time>2026-04-06T14:30:40Z</time></trkpt><trkpt lat="45.93150449375951" lon="11.094301866504317"><ele>192.5</ele><time>2026-04-06T14:30:41Z</time></trkpt><trkpt lat="45.93162921631506" lon="11.094396299624963"><ele>192.0</ele><time>2026-04-06T14:30:42Z</time></trkpt><trkpt lat="45.93175883814707" lon="11.094493528080479"><ele>191.5</ele><time>2026-04-06T14:30:43Z</time></trkpt><trkpt lat="45.93188890938985" lon="11.094590154823894"><ele>191.0</ele><time>2026-04-06T14:30:44Z</time></trkpt><trkpt lat="45.93202073564818" lon="11.094684410541316"><ele>190.75</ele><time>2026-04-06T14:30:45Z</time></trkpt><trkpt lat="45.932145176548566" lon="11.094782466466816"><ele>190.5</ele><time>2026-04-06T14:30:46Z</time></trkpt><trkpt lat="45.932263451508064" lon="11.094875486117637"><ele>190.25</ele><time>2026-04-06T14:30:47Z</time></trkpt><trkpt lat="45.93237955323138" lon="11.094966669002146"><ele>190.0</ele><time>2026-04-06T14:30:48Z</time></trkpt><trkpt lat="45.93248808705198" lon="11.095054509832977"><ele>190.25</ele><time>2026-04-06T14:30:49Z</time></trkpt><trkpt lat="45.93260209973724" lon="11.095141084970699"><ele>190.5</ele><time>2026-04-06T14:30:50Z</time></trkpt><trkpt lat="45.932710473779295" lon="11.09522803690872"><ele>190.75</ele><time>2026-04-06T14:30:51Z</time></trkpt><trkpt lat="45.93282586621782" lon="11.095313757423556"><ele>191.0</ele><time>2026-04-06T14:30:52Z</time></trkpt><trkpt lat="45.93294070496562" lon="11.095398192591052"><ele>191.0</ele><time>2026-04-06T14:30:53Z</time></trkpt><trkpt lat="45.93305790457395" lon="11.095478546123552"><ele>191.0</ele><time>2026-04-06T14:30:54Z</time></trkpt><trkpt lat="45.93316705187242" lon="11.095558561735519"><ele>191.0</ele><time>2026-04-06T14:30:55Z</time></trkpt><trkpt lat="45.93326540221105" lon="11.095628331850868"><ele>191.0</ele><time>2026-04-06T14:30:56Z</time></trkpt><trkpt lat="45.933348738015134" lon="11.095682369870293"><ele>191.0</ele><time>2026-04-06T14:30:57Z</time></trkpt><trkpt lat="45.93340606070275" lon="11.095744974843237"><ele>191.0</ele><time>2026-04-06T14:30:58Z</time></trkpt><trkpt lat="45.93344202018241" lon="11.095839000925771"><ele>191.0</ele><time>2026-04-06T14:30:59Z</time></trkpt><trkpt lat="45.93344863268341" lon="11.09594695708812"><ele>191.0</ele><time>2026-04-06T14:31:00Z</time></trkpt><trkpt lat="45.9334305854086" lon="11.096065976903992"><ele>191.0</ele><time>2026-04-06T14:31:01Z</time></trkpt><trkpt lat="45.93343507815821" lon="11.096178638787672"><ele>191.0</ele><time>2026-04-06T14:31:02Z</time></trkpt><trkpt lat="45.933313270300374" lon="11.096287350783404"><ele>191.25</ele><time>2026-04-06T14:31:03Z</time></trkpt><trkpt lat="45.93323242641723" lon="11.096389275221238"><ele>191.5</ele><time>2026-04-06T14:31:04Z</time></trkpt><trkpt lat="45.93315004982844" lon="11.096518543228708"><ele>191.75</ele><time>2026-04-06T14:31:05Z</time></trkpt><trkpt lat="45.93306770026792" lon="11.096659073719382"><ele>192.0</ele><time>2026-04-06T14:31:06Z</time></trkpt><trkpt lat="45.932983327823536" lon="11.096796769525554"><ele>192.75</ele><time>2026-04-06T14:31:07Z</time></trkpt><trkpt lat="45.9328960274504" lon="11.096943180236776"><ele>193.5</ele><time>2026-04-06T14:31:08Z</time></trkpt><trkpt lat="45.93280344174813" lon="11.097100189636453"><ele>194.25</ele><time>2026-04-06T14:31:09Z</time></trkpt><trkpt lat="45.93270552956265" lon="11.097263876124591"><ele>195.0</ele><time>2026-04-06T14:31:10Z</time></trkpt><trkpt lat="45.932608255780956" lon="11.097424123566393"><ele>195.25</ele><time>2026-04-06T14:31:11Z</time></trkpt><trkpt lat="45.93251173225257" lon="11.097584401465427"><ele>195.5</ele><time>2026-04-06T14:31:12Z</time></trkpt><trkpt lat="45.93241495028174" lon="11.097748642566513"><ele>195.75</ele><time>2026-04-06T14:31:13Z</time></trkpt><trkpt lat="45.9323203234504" lon="11.097915138683137"><ele>196.0</ele><time>2026-04-06T14:31:14Z</time></trkpt><trkpt lat="45.932223667156904" lon="11.09808958054213"><ele>197.66666666666666</ele><time>2026-04-06T14:31:15Z</time></trkpt><trkpt lat="45.9321271788763" lon="11.098264824388934"><ele>199.33333333333331</ele><time>2026-04-06T14:31:16Z</time></trkpt><trkpt lat="45.93203694167941" lon="11.09844767096018"><ele>201.0</ele><time>2026-04-06T14:31:17Z</time></trkpt><trkpt lat="45.93195106304066" lon="11.098638522960258"><ele>201.0</ele><time>2026-04-06T14:31:18Z</time></trkpt><trkpt lat="45.93186421642638" lon="11.098840716562593"><ele>201.0</ele><time>2026-04-06T14:31:19Z</time></trkpt><trkpt lat="45.93177834014173" lon="11.09904489842539"><ele>201.0</ele><time>2026-04-06T14:31:20Z</time></trkpt><trkpt lat="45.931694836279526" lon="11.099255278372267"><ele>202.33333333333331</ele><time>2026-04-06T14:31:21Z</time></trkpt><trkpt lat="45.93161044895038" lon="11.099454575482973"><ele>203.66666666666666</ele><time>2026-04-06T14:31:22Z</time></trkpt><trkpt lat="45.93152527565331" lon="11.099658429413351"><ele>205.0</ele><time>2026-04-06T14:31:23Z</time></trkpt><trkpt lat="45.93144027250801" lon="11.099859535922825"><ele>206.66666666666666</ele><time>2026-04-06T14:31:24Z</time></trkpt><trkpt lat="45.93135551352797" lon="11.100061025292415"><ele>208.33333333333331</ele><time>2026-04-06T14:31:25Z</time></trkpt><trkpt lat="45.93127130744626" lon="11.100262539545795"><ele>210.0</ele><time>2026-04-06T14:31:26Z</time></trkpt><trkpt lat="45.9311889131249" lon="11.100462028322347"><ele>210.0</ele><time>2026-04-06T14:31:27Z</time></trkpt><trkpt lat="45.9311082409495" lon="11.100657882604718"><ele>210.0</ele><time>2026-04-06T14:31:28Z</time></trkpt><trkpt lat="45.93102706108501" lon="11.100849561751078"><ele>210.0</ele><time>2026-04-06T14:31:29Z</time></trkpt><trkpt lat="45.93093894492212" lon="11.101038135427583"><ele>211.66666666666669</ele><time>2026-04-06T14:31:30Z</time></trkpt><trkpt lat="45.93083491669979" lon="11.101211879485527"><ele>213.33333333333334</ele><time>2026-04-06T14:31:31Z</time></trkpt><trkpt lat="45.93070260819921" lon="11.101344027653266"><ele>215.0</ele><time>2026-04-06T14:31:32Z</time></trkpt><trkpt lat="45.93056703025976" lon="11.101465005081138"><ele>215.0</ele><time>2026-04-06T14:31:33Z</time></trkpt><trkpt lat="45.93043354910621" lon="11.101572111029263"><ele>215.0</ele><time>2026-04-06T14:31:34Z</time></trkpt><trkpt lat="45.93030641359094" lon="11.101693868458232"><ele>215.0</ele><time>2026-04-06T14:31:35Z</time></trkpt><trkpt lat="45.930174088343264" lon="11.1017894630619"><ele>217.25</ele><time>2026-04-06T14:31:36Z</time></trkpt><trkpt lat="45.93004678612666" lon="11.101888810524661"><ele>219.5</ele><time>2026-04-06T14:31:37Z</time></trkpt><trkpt lat="45.92993601245837" lon="11.101981511279337"><ele>221.75</ele><time>2026-04-06T14:31:38Z</time></trkpt><trkpt lat="45.92983954752371" lon="11.102076035909421"><ele>224.0</ele><time>2026-04-06T14:31:39Z</time></trkpt><trkpt lat="45.929758617488474" lon="11.102184876549948"><ele>224.0</ele><time>2026-04-06T14:31:40Z</time></trkpt><trkpt lat="45.929692180085766" lon="11.10232632565473"><ele>224.0</ele><time>2026-04-06T14:31:41Z</time></trkpt><trkpt lat="45.92964666517696" lon="11.102494237126407"><ele>224.0</ele><time>2026-04-06T14:31:42Z</time></trkpt><trkpt lat="45.92961686088201" lon="11.102678731016658"><ele>224.0</ele><time>2026-04-06T14:31:43Z</time></trkpt><trkpt lat="45.929599544647964" lon="11.102870947163835"><ele>224.75</ele><time>2026-04-06T14:31:44Z</time></trkpt><trkpt lat="45.92960590806358" lon="11.103062860417046"><ele>225.5</ele><time>2026-04-06T14:31:45Z</time></trkpt><trkpt lat="45.92962775695779" lon="11.103243966961008"><ele>226.25</ele><time>2026-04-06T14:31:46Z</time></trkpt><trkpt lat="45.92967026282959" lon="11.10339982504957"><ele>227.0</ele><time>2026-04-06T14:31:47Z</time></trkpt><trkpt lat="45.92972806543312" lon="11.103519089733666"><ele>227.66666666666669</ele><time>2026-04-06T14:31:48Z</time></trkpt><trkpt lat="45.92981540037523" lon="11.10359220026999"><ele>228.33333333333334</ele><time>2026-04-06T14:31:49Z</time></trkpt><trkpt lat="45.92991655178744" lon="11.103654863320072"><ele>229.0</ele><time>2026-04-06T14:31:50Z</time></trkpt><trkpt lat="45.929997362345915" lon="11.103717194500234"><ele>229.66666666666669</ele><time>2026-04-06T14:31:51Z</time></trkpt><trkpt lat="45.930034890913014" lon="11.103802606046743"><ele>230.33333333333334</ele><time>2026-04-06T14:31:52Z</time></trkpt><trkpt lat="45.930026208787034" lon="11.103896255626278"><ele>231.0</ele><time>2026-04-06T14:31:53Z</time></trkpt><trkpt lat="45.92997877774478" lon="11.103972186676284"><ele>231.0</ele><time>2026-04-06T14:31:54Z</time></trkpt><trkpt lat="45.9298978907618" lon="11.104004535053342"><ele>231.00000000000003</ele><time>2026-04-06T14:31:55Z</time></trkpt><trkpt lat="45.929807119420545" lon="11.103970645196412"><ele>231.00000000000003</ele><time>2026-04-06T14:31:56Z</time></trkpt><trkpt lat="45.92970405149143" lon="11.103938490236503"><ele>231.0</ele><time>2026-04-06T14:31:57Z</time></trkpt><trkpt lat="45.929598682142206" lon="11.10388552246886"><ele>231.0</ele><time>2026-04-06T14:31:58Z</time></trkpt><trkpt lat="45.92949465319917" lon="11.103839161940162"><ele>231.0</ele><time>2026-04-06T14:31:59Z</time></trkpt><trkpt lat="45.929396754906016" lon="11.103827681993318"><ele>231.00000000000003</ele><time>2026-04-06T14:32:00Z</time></trkpt><trkpt lat="45.92930677179124" lon="11.103885953261036"><ele>231.00000000000003</ele><time>2026-04-06T14:32:01Z</time></trkpt><trkpt lat="45.929241851243575" lon="11.103982598266022"><ele>231.0</ele><time>2026-04-06T14:32:02Z</time></trkpt><trkpt lat="45.929218478004195" lon="11.104125886032376"><ele>231.0</ele><time>2026-04-06T14:32:03Z</time></trkpt><trkpt lat="45.92922200445207" lon="11.104285778557971"><ele>236.0</ele><time>2026-04-06T14:32:04Z</time></trkpt><trkpt lat="45.9292464694309" lon="11.104444737568969"><ele>241.0</ele><time>2026-04-06T14:32:05Z</time></trkpt><trkpt lat="45.9292573971644" lon="11.10461234411628"><ele>246.0</ele><time>2026-04-06T14:32:06Z</time></trkpt><trkpt lat="45.92932351528513" lon="11.104797718377501"><ele>251.0</ele><time>2026-04-06T14:32:07Z</time></trkpt><trkpt lat="45.92936998005484" lon="11.104969095331507"><ele>257.75</ele><time>2026-04-06T14:32:08Z</time></trkpt><trkpt lat="45.92942601247743" lon="11.105142664396153"><ele>264.5</ele><time>2026-04-06T14:32:09Z</time></trkpt><trkpt lat="45.92941284621512" lon="11.105376120022006"><ele>271.25</ele><time>2026-04-06T14:32:10Z</time></trkpt><trkpt lat="45.92940001432522" lon="11.105564824758387"><ele>278.0</ele><time>2026-04-06T14:32:11Z</time></trkpt><trkpt lat="45.929387784259475" lon="11.105710710914813"><ele>273.75</ele><time>2026-04-06T14:32:12Z</time></trkpt><trkpt lat="45.9293642200437" lon="11.105862690657789"><ele>269.5</ele><time>2026-04-06T14:32:13Z</time></trkpt><trkpt lat="45.92929567359043" lon="11.10602985269178"><ele>265.25</ele><time>2026-04-06T14:32:14Z</time></trkpt><trkpt lat="45.92918784820346" lon="11.106159369186853"><ele>261.0</ele><time>2026-04-06T14:32:15Z</time></trkpt><trkpt lat="45.92910788010327" lon="11.106324378329871"><ele>261.0</ele><time>2026-04-06T14:32:16Z</time></trkpt><trkpt lat="45.92905373807294" lon="11.106485911323356"><ele>261.0</ele><time>2026-04-06T14:32:17Z</time></trkpt><trkpt lat="45.928964284923126" lon="11.106653625301394"><ele>261.0</ele><time>2026-04-06T14:32:18Z</time></trkpt><trkpt lat="45.92887063429519" lon="11.10684199447193"><ele>261.0</ele><time>2026-04-06T14:32:19Z</time></trkpt><trkpt lat="45.928822766595985" lon="11.107041922914602"><ele>266.5</ele><time>2026-04-06T14:32:20Z</time></trkpt><trkpt lat="45.928743038068944" lon="11.107213189621875"><ele>272.0</ele><time>2026-04-06T14:32:21Z</time></trkpt><trkpt lat="45.92864269284954" lon="11.107365307886798"><ele>277.5</ele><time>2026-04-06T14:32:22Z</time></trkpt><trkpt lat="45.92856436844451" lon="11.107526740514412"><ele>283.0</ele><time>2026-04-06T14:32:23Z</time></trkpt><trkpt lat="45.92849155983145" lon="11.107680471997568"><ele>290.6</ele><time>2026-04-06T14:32:24Z</time></trkpt><trkpt lat="45.928455279362375" lon="11.107858568132977"><ele>298.20000000000005</ele><time>2026-04-06T14:32:25Z</time></trkpt><trkpt lat="45.928446716442394" lon="11.10801029612666"><ele>305.8</ele><time>2026-04-06T14:32:26Z</time></trkpt><trkpt lat="45.92847919221857" lon="11.108142883170359"><ele>313.40000000000003</ele><time>2026-04-06T14:32:27Z</time></trkpt><trkpt lat="45.92855465345012" lon="11.10825713122213"><ele>321.0</ele><time>2026-04-06T14:32:28Z</time></trkpt><trkpt lat="45.9286564535211" lon="11.108383847704891"><ele>326.25</ele><time>2026-04-06T14:32:29Z</time></trkpt><trkpt lat="45.928759428362504" lon="11.108528714317572"><ele>331.5</ele><time>2026-04-06T14:32:30Z</time></trkpt><trkpt lat="45.928862158426845" lon="11.108667654812272"><ele>336.75</ele><time>2026-04-06T14:32:31Z</time></trkpt><trkpt lat="45.9289659158267" lon="11.108814688315661"><ele>342.0</ele><time>2026-04-06T14:32:32Z</time></trkpt><trkpt lat="45.929058851253544" lon="11.108977774977205"><ele>332.3333333333333</ele><time>2026-04-06T14:32:33Z</time></trkpt><trkpt lat="45.92914902391104" lon="11.109149690418995"><ele>322.66666666666663</ele><time>2026-04-06T14:32:34Z</time></trkpt><trkpt lat="45.92924190458625" lon="11.10932722487743"><ele>313.0</ele><time>2026-04-06T14:32:35Z</time></trkpt><trkpt lat="45.92934064390362" lon="11.10949093789731"><ele>330.66666666666663</ele><time>2026-04-06T14:32:36Z</time></trkpt><trkpt lat="45.92941285541766" lon="11.10968860671876"><ele>348.3333333333333</ele><time>2026-04-06T14:32:37Z</time></trkpt><trkpt lat="45.92949235238631" lon="11.109878568148309"><ele>366.0</ele><time>2026-04-06T14:32:38Z</time></trkpt><trkpt lat="45.929566777639714" lon="11.110060319750225"><ele>366.0</ele><time>2026-04-06T14:32:39Z</time></trkpt><trkpt lat="45.92964178185508" lon="11.110237935172346"><ele>366.0</ele><time>2026-04-06T14:32:40Z</time></trkpt><trkpt lat="45.9297178108116" lon="11.110411054370852"><ele>366.0</ele><time>2026-04-06T14:32:41Z</time></trkpt><trkpt lat="45.92975561721453" lon="11.11052955335545"><ele>366.0</ele><time>2026-04-06T14:32:42Z</time></trkpt><trkpt lat="45.929732525061254" lon="11.110742303950627"><ele>360.0</ele><time>2026-04-06T14:32:44Z</time></trkpt><trkpt lat="45.929680794374896" lon="11.110874110080813"><ele>354.0</ele><time>2026-04-06T14:32:45Z</time></trkpt><trkpt lat="45.92964117133834" lon="11.1110165929395"><ele>348.0</ele><time>2026-04-06T14:32:46Z</time></trkpt><trkpt lat="45.92965278208644" lon="11.111140312332273"><ele>342.0</ele><time>2026-04-06T14:32:47Z</time></trkpt><trkpt lat="45.92968154516192" lon="11.111266131835565"><ele>336.0</ele><time>2026-04-06T14:32:48Z</time></trkpt><trkpt lat="45.929721232521345" lon="11.11141675861038"><ele>336.0</ele><time>2026-04-06T14:32:49Z</time></trkpt><trkpt lat="45.929772456969744" lon="11.111533339496225"><ele>336.0</ele><time>2026-04-06T14:32:50Z</time></trkpt><trkpt lat="45.92979889442629" lon="11.11164139333536"><ele>336.0</ele><time>2026-04-06T14:32:51Z</time></trkpt><trkpt lat="45.92988292398418" lon="11.111666570810348"><ele>336.0</ele><time>2026-04-06T14:32:52Z</time></trkpt><trkpt lat="45.92997303334102" lon="11.111688872364489"><ele>336.0</ele><time>2026-04-06T14:32:53Z</time></trkpt><trkpt lat="45.93006720520469" lon="11.1117680400386"><ele>339.6</ele><time>2026-04-06T14:32:54Z</time></trkpt><trkpt lat="45.93013804757033" lon="11.111872208925297"><ele>343.20000000000005</ele><time>2026-04-06T14:32:55Z</time></trkpt><trkpt lat="45.93016753504784" lon="11.112008835490666"><ele>346.79999999999995</ele><time>2026-04-06T14:32:56Z</time></trkpt><trkpt lat="45.93016011315014" lon="11.112176857385363"><ele>350.4</ele><time>2026-04-06T14:32:57Z</time></trkpt><trkpt lat="45.93016728823995" lon="11.112364090529418"><ele>354.0</ele><time>2026-04-06T14:32:58Z</time></trkpt><trkpt lat="45.930140937005135" lon="11.112521151239278"><ele>354.0</ele><time>2026-04-06T14:32:59Z</time></trkpt><trkpt lat="45.93007290230548" lon="11.112668572944886"><ele>354.0</ele><time>2026-04-06T14:33:00Z</time></trkpt><trkpt lat="45.93001954470031" lon="11.112827515615072"><ele>354.0</ele><time>2026-04-06T14:33:01Z</time></trkpt><trkpt lat="45.9299661131709" lon="11.112959412456263"><ele>354.0</ele><time>2026-04-06T14:33:02Z</time></trkpt><trkpt lat="45.92995307812645" lon="11.113098415605476"><ele>355.25</ele><time>2026-04-06T14:33:03Z</time></trkpt><trkpt lat="45.92998230713668" lon="11.113246756035698"><ele>356.5</ele><time>2026-04-06T14:33:04Z</time></trkpt><trkpt lat="45.93004663713993" lon="11.113394820829223"><ele>357.75</ele><time>2026-04-06T14:33:05Z</time></trkpt><trkpt lat="45.930093211107234" lon="11.11354320526608"><ele>359.0</ele><time>2026-04-06T14:33:06Z</time></trkpt><trkpt lat="45.9301229894487" lon="11.113693434193717"><ele>359.0</ele><time>2026-04-06T14:33:07Z</time></trkpt><trkpt lat="45.93010420074877" lon="11.113839666373405"><ele>359.0</ele><time>2026-04-06T14:33:08Z</time></trkpt><trkpt lat="45.9300414699916" lon="11.113971907371225"><ele>359.0</ele><time>2026-04-06T14:33:09Z</time></trkpt><trkpt lat="45.92994558656554" lon="11.114067478253391"><ele>359.0</ele><time>2026-04-06T14:33:10Z</time></trkpt><trkpt lat="45.92984386936075" lon="11.11418222830645"><ele>352.0</ele><time>2026-04-06T14:33:11Z</time></trkpt><trkpt lat="45.92974459090295" lon="11.114309115359731"><ele>345.0</ele><time>2026-04-06T14:33:12Z</time></trkpt><trkpt lat="45.92966350192305" lon="11.114474968261312"><ele>338.0</ele><time>2026-04-06T14:33:13Z</time></trkpt><trkpt lat="45.929583676839485" lon="11.114634041333009"><ele>331.0</ele><time>2026-04-06T14:33:14Z</time></trkpt><trkpt lat="45.929493139604666" lon="11.114777191313566"><ele>331.0</ele><time>2026-04-06T14:33:15Z</time></trkpt><trkpt lat="45.929375029636134" lon="11.114850008765245"><ele>331.0</ele><time>2026-04-06T14:33:16Z</time></trkpt><trkpt lat="45.92925589774852" lon="11.114878096323025"><ele>331.0</ele><time>2026-04-06T14:33:17Z</time></trkpt><trkpt lat="45.92913192850467" lon="11.114909633495666"><ele>331.0</ele><time>2026-04-06T14:33:18Z</time></trkpt><trkpt lat="45.92901302952059" lon="11.114967654904158"><ele>331.75</ele><time>2026-04-06T14:33:19Z</time></trkpt><trkpt lat="45.92890893070519" lon="11.115099600612433"><ele>332.5</ele><time>2026-04-06T14:33:20Z</time></trkpt><trkpt lat="45.92880187932523" lon="11.1152151351503"><ele>333.25</ele><time>2026-04-06T14:33:21Z</time></trkpt><trkpt lat="45.92869730671492" lon="11.115332440656772"><ele>334.0</ele><time>2026-04-06T14:33:22Z</time></trkpt><trkpt lat="45.9286009094272" lon="11.115463972925008"><ele>334.0</ele><time>2026-04-06T14:33:23Z</time></trkpt><trkpt lat="45.928520879651224" lon="11.115618950980256"><ele>334.0</ele><time>2026-04-06T14:33:24Z</time></trkpt><trkpt lat="45.92845372937266" lon="11.115790287991251"><ele>334.0</ele><time>2026-04-06T14:33:25Z</time></trkpt><trkpt lat="45.92839174995949" lon="11.115972035735018"><ele>334.0</ele><time>2026-04-06T14:33:26Z</time></trkpt><trkpt lat="45.92834052470643" lon="11.11615267855809"><ele>334.0</ele><time>2026-04-06T14:33:27Z</time></trkpt><trkpt lat="45.92826618995292" lon="11.116315879556689"><ele>334.0</ele><time>2026-04-06T14:33:28Z</time></trkpt><trkpt lat="45.92819359797904" lon="11.1164882751451"><ele>334.0</ele><time>2026-04-06T14:33:29Z</time></trkpt><trkpt lat="45.92808777829425" lon="11.11661641524025"><ele>334.0</ele><time>2026-04-06T14:33:30Z</time></trkpt><trkpt lat="45.9279922609532" lon="11.116733702351464"><ele>339.75</ele><time>2026-04-06T14:33:31Z</time></trkpt><trkpt lat="45.92793274822761" lon="11.116880510514036"><ele>345.5</ele><time>2026-04-06T14:33:32Z</time></trkpt><trkpt lat="45.9278929275355" lon="11.117053431368358"><ele>351.25</ele><time>2026-04-06T14:33:33Z</time></trkpt><trkpt lat="45.92786741572892" lon="11.117250531470013"><ele>357.0</ele><time>2026-04-06T14:33:34Z</time></trkpt><trkpt lat="45.92784892896548" lon="11.117451413869254"><ele>359.8</ele><time>2026-04-06T14:33:35Z</time></trkpt><trkpt lat="45.927846756270206" lon="11.117647007411811"><ele>362.6</ele><time>2026-04-06T14:33:36Z</time></trkpt><trkpt lat="45.92785772157992" lon="11.11782184195476"><ele>365.40000000000003</ele><time>2026-04-06T14:33:37Z</time></trkpt><trkpt lat="45.927842876881954" lon="11.11795560662785"><ele>368.20000000000005</ele><time>2026-04-06T14:33:38Z</time></trkpt><trkpt lat="45.9278232001205" lon="11.118055402969043"><ele>371.0</ele><time>2026-04-06T14:33:39Z</time></trkpt><trkpt lat="45.9277465724334" lon="11.118133008791375"><ele>371.0</ele><time>2026-04-06T14:33:40Z</time></trkpt><trkpt lat="45.92765149855669" lon="11.118135306656702"><ele>371.0</ele><time>2026-04-06T14:33:41Z</time></trkpt><trkpt lat="45.927554893601226" lon="11.118107005447163"><ele>371.0</ele><time>2026-04-06T14:33:42Z</time></trkpt><trkpt lat="45.92745626720136" lon="11.118106336000956"><ele>371.0</ele><time>2026-04-06T14:33:43Z</time></trkpt><trkpt lat="45.927357682429566" lon="11.118160715865404"><ele>371.0</ele><time>2026-04-06T14:33:44Z</time></trkpt><trkpt lat="45.927268890922925" lon="11.118265853335444"><ele>367.75</ele><time>2026-04-06T14:33:45Z</time></trkpt><trkpt lat="45.92717663588951" lon="11.118394432013334"><ele>364.5</ele><time>2026-04-06T14:33:46Z</time></trkpt><trkpt lat="45.92707806076858" lon="11.118534007637992"><ele>361.25</ele><time>2026-04-06T14:33:47Z</time></trkpt><trkpt lat="45.92697250790551" lon="11.118676091768892"><ele>358.0</ele><time>2026-04-06T14:33:48Z</time></trkpt><trkpt lat="45.92686419871709" lon="11.118817126474713"><ele>358.0</ele><time>2026-04-06T14:33:49Z</time></trkpt><trkpt lat="45.92675601864205" lon="11.118957184043865"><ele>358.0</ele><time>2026-04-06T14:33:50Z</time></trkpt><trkpt lat="45.92664803985778" lon="11.119099697811597"><ele>358.0</ele><time>2026-04-06T14:33:51Z</time></trkpt><trkpt lat="45.92653999190214" lon="11.11923898599509"><ele>358.0</ele><time>2026-04-06T14:33:52Z</time></trkpt><trkpt lat="45.926430432531184" lon="11.119370691246342"><ele>358.75</ele><time>2026-04-06T14:33:53Z</time></trkpt><trkpt lat="45.92629425339286" lon="11.11943226570153"><ele>359.5</ele><time>2026-04-06T14:33:54Z</time></trkpt><trkpt lat="45.92616296750454" lon="11.119522359913107"><ele>360.25</ele><time>2026-04-06T14:33:55Z</time></trkpt><trkpt lat="45.926026636885865" lon="11.119595146231143"><ele>361.0</ele><time>2026-04-06T14:33:56Z</time></trkpt><trkpt lat="45.9258981388424" lon="11.119697574658137"><ele>363.0</ele><time>2026-04-06T14:33:57Z</time></trkpt><trkpt lat="45.92577109198529" lon="11.119817673661238"><ele>365.0</ele><time>2026-04-06T14:33:58Z</time></trkpt><trkpt lat="45.925635270324605" lon="11.11992784683008"><ele>367.0</ele><time>2026-04-06T14:33:59Z</time></trkpt><trkpt lat="45.92550205407998" lon="11.12002853509754"><ele>367.0</ele><time>2026-04-06T14:34:00Z</time></trkpt><trkpt lat="45.92537712838708" lon="11.120145523732747"><ele>367.0</ele><time>2026-04-06T14:34:01Z</time></trkpt><trkpt lat="45.925270455969624" lon="11.120282326098117"><ele>367.0</ele><time>2026-04-06T14:34:02Z</time></trkpt><trkpt lat="45.92517463688434" lon="11.120428841462687"><ele>367.0</ele><time>2026-04-06T14:34:03Z</time></trkpt><trkpt lat="45.925065685770114" lon="11.120550696518047"><ele>366.25</ele><time>2026-04-06T14:34:04Z</time></trkpt><trkpt lat="45.92494445645109" lon="11.120653085168097"><ele>365.5</ele><time>2026-04-06T14:34:05Z</time></trkpt><trkpt lat="45.924817196264584" lon="11.120755672647414"><ele>364.75</ele><time>2026-04-06T14:34:06Z</time></trkpt><trkpt lat="45.924682369945316" lon="11.120828967716376"><ele>364.0</ele><time>2026-04-06T14:34:07Z</time></trkpt><trkpt lat="45.92454543811794" lon="11.120900807701327"><ele>364.0</ele><time>2026-04-06T14:34:08Z</time></trkpt><trkpt lat="45.924424123101325" lon="11.120995328127831"><ele>364.0</ele><time>2026-04-06T14:34:09Z</time></trkpt><trkpt lat="45.924330668034536" lon="11.121143411441624"><ele>364.0</ele><time>2026-04-06T14:34:10Z</time></trkpt><trkpt lat="45.92424339957622" lon="11.121325679788946"><ele>364.0</ele><time>2026-04-06T14:34:11Z</time></trkpt><trkpt lat="45.92415190124551" lon="11.121483817200376"><ele>362.25</ele><time>2026-04-06T14:34:12Z</time></trkpt><trkpt lat="45.92406452436239" lon="11.121634174665004"><ele>360.5</ele><time>2026-04-06T14:34:13Z</time></trkpt><trkpt lat="45.92398978271855" lon="11.121763587505647"><ele>358.75</ele><time>2026-04-06T14:34:14Z</time></trkpt><trkpt lat="45.92393839839903" lon="11.121887468262592"><ele>357.0</ele><time>2026-04-06T14:34:15Z</time></trkpt><trkpt lat="45.92392075103927" lon="11.122028076685886"><ele>357.0</ele><time>2026-04-06T14:34:16Z</time></trkpt><trkpt lat="45.92394610352722" lon="11.122183543636373"><ele>357.0</ele><time>2026-04-06T14:34:17Z</time></trkpt><trkpt lat="45.92397926294777" lon="11.12234523796917"><ele>357.0</ele><time>2026-04-06T14:34:18Z</time></trkpt><trkpt lat="45.92401801788486" lon="11.12248761049631"><ele>357.0</ele><time>2026-04-06T14:34:19Z</time></trkpt><trkpt lat="45.924050554172325" lon="11.122625771997935"><ele>357.0</ele><time>2026-04-06T14:34:20Z</time></trkpt><trkpt lat="45.92402481299313" lon="11.122766067211206"><ele>363.5</ele><time>2026-04-06T14:34:21Z</time></trkpt><trkpt lat="45.9239558754943" lon="11.122905432034138"><ele>370.0</ele><time>2026-04-06T14:34:22Z</time></trkpt><trkpt lat="45.923879963096255" lon="11.123039952104294"><ele>376.5</ele><time>2026-04-06T14:34:23Z</time></trkpt><trkpt lat="45.923817022285725" lon="11.123195354169988"><ele>383.0</ele><time>2026-04-06T14:34:24Z</time></trkpt><trkpt lat="45.92376611188117" lon="11.123374369724372"><ele>388.75</ele><time>2026-04-06T14:34:25Z</time></trkpt><trkpt lat="45.923719330685486" lon="11.12355143424393"><ele>394.5</ele><time>2026-04-06T14:34:26Z</time></trkpt><trkpt lat="45.92367393049342" lon="11.12373068457401"><ele>400.25</ele><time>2026-04-06T14:34:27Z</time></trkpt><trkpt lat="45.92362730814571" lon="11.123904602596138"><ele>406.0</ele><time>2026-04-06T14:34:28Z</time></trkpt><trkpt lat="45.9235586816639" lon="11.12405590447499"><ele>400.75</ele><time>2026-04-06T14:34:29Z</time></trkpt><trkpt lat="45.92345984034971" lon="11.124162898460847"><ele>395.5</ele><time>2026-04-06T14:34:30Z</time></trkpt><trkpt lat="45.92335075670499" lon="11.124238118565595"><ele>390.25</ele><time>2026-04-06T14:34:31Z</time></trkpt><trkpt lat="45.92324676337176" lon="11.124319854464503"><ele>385.0</ele><time>2026-04-06T14:34:32Z</time></trkpt><trkpt lat="45.9231512664304" lon="11.124397923580812"><ele>385.0</ele><time>2026-04-06T14:34:33Z</time></trkpt><trkpt lat="45.923074378249524" lon="11.124545315065463"><ele>385.0</ele><time>2026-04-06T14:34:34Z</time></trkpt><trkpt lat="45.923025932021304" lon="11.124714801052903"><ele>385.0</ele><time>2026-04-06T14:34:35Z</time></trkpt><trkpt lat="45.922979396840965" lon="11.12490057576179"><ele>385.0</ele><time>2026-04-06T14:34:36Z</time></trkpt><trkpt lat="45.922951491306286" lon="11.125076318675422"><ele>393.25</ele><time>2026-04-06T14:34:37Z</time></trkpt><trkpt lat="45.92292357924115" lon="11.125232124410461"><ele>401.5</ele><time>2026-04-06T14:34:38Z</time></trkpt><trkpt lat="45.922925817708325" lon="11.125391424435934"><ele>409.75</ele><time>2026-04-06T14:34:39Z</time></trkpt><trkpt lat="45.9229648520994" lon="11.12555916573656"><ele>418.0</ele><time>2026-04-06T14:34:40Z</time></trkpt><trkpt lat="45.92299792144917" lon="11.125741628913005"><ele>420.75</ele><time>2026-04-06T14:34:41Z</time></trkpt><trkpt lat="45.923050391874284" lon="11.125921372329149"><ele>423.5</ele><time>2026-04-06T14:34:42Z</time></trkpt><trkpt lat="45.923121509019744" lon="11.126089439226195"><ele>426.25</ele><time>2026-04-06T14:34:43Z</time></trkpt><trkpt lat="45.923166840957684" lon="11.126254714012884"><ele>429.0</ele><time>2026-04-06T14:34:44Z</time></trkpt><trkpt lat="45.92319267651441" lon="11.126418647160765"><ele>428.5</ele><time>2026-04-06T14:34:45Z</time></trkpt><trkpt lat="45.9231464010251" lon="11.12657780326523"><ele>428.0</ele><time>2026-04-06T14:34:46Z</time></trkpt><trkpt lat="45.92311438549123" lon="11.126756447347452"><ele>427.5</ele><time>2026-04-06T14:34:47Z</time></trkpt><trkpt lat="45.923085444215296" lon="11.126942613180839"><ele>427.0</ele><time>2026-04-06T14:34:48Z</time></trkpt><trkpt lat="45.9230760846478" lon="11.127141196178298"><ele>427.0</ele><time>2026-04-06T14:34:49Z</time></trkpt><trkpt lat="45.92307595686015" lon="11.12734508607204"><ele>427.0</ele><time>2026-04-06T14:34:50Z</time></trkpt><trkpt lat="45.923098773026155" lon="11.127540435626276"><ele>427.0</ele><time>2026-04-06T14:34:51Z</time></trkpt><trkpt lat="45.923099041115435" lon="11.127706145496969"><ele>427.0</ele><time>2026-04-06T14:34:52Z</time></trkpt><trkpt lat="45.923113743351045" lon="11.127844479041133"><ele>426.0</ele><time>2026-04-06T14:34:53Z</time></trkpt><trkpt lat="45.9231452225117" lon="11.127985509329303"><ele>425.0</ele><time>2026-04-06T14:34:54Z</time></trkpt><trkpt lat="45.923240856658424" lon="11.128101555998546"><ele>424.0</ele><time>2026-04-06T14:34:55Z</time></trkpt><trkpt lat="45.92333309107576" lon="11.128217685393388"><ele>423.0</ele><time>2026-04-06T14:34:56Z</time></trkpt><trkpt lat="45.92341352050203" lon="11.128332702436389"><ele>433.0</ele><time>2026-04-06T14:34:57Z</time></trkpt><trkpt lat="45.92347189541265" lon="11.128451685065249"><ele>443.0</ele><time>2026-04-06T14:34:58Z</time></trkpt><trkpt lat="45.92348090129512" lon="11.12858028062566"><ele>452.99999999999994</ele><time>2026-04-06T14:34:59Z</time></trkpt><trkpt lat="45.92348371978644" lon="11.128709747210598"><ele>463.0</ele><time>2026-04-06T14:35:00Z</time></trkpt><trkpt lat="45.92349129883021" lon="11.128830599041313"><ele>473.0</ele><time>2026-04-06T14:35:01Z</time></trkpt><trkpt lat="45.923543406824564" lon="11.128942171107322"><ele>473.0</ele><time>2026-04-06T14:35:02Z</time></trkpt><trkpt lat="45.923606142609536" lon="11.12904372681243"><ele>473.0</ele><time>2026-04-06T14:35:03Z</time></trkpt><trkpt lat="45.923718641353986" lon="11.129070804876768"><ele>473.0</ele><time>2026-04-06T14:35:04Z</time></trkpt><trkpt lat="45.92383404274196" lon="11.129049261886179"><ele>473.0</ele><time>2026-04-06T14:35:05Z</time></trkpt><trkpt lat="45.9239620755252" lon="11.129051602848124"><ele>473.0</ele><time>2026-04-06T14:35:06Z</time></trkpt><trkpt lat="45.92408983873664" lon="11.12903765603527"><ele>473.0</ele><time>2026-04-06T14:35:07Z</time></trkpt><trkpt lat="45.92422497285885" lon="11.129011771633563"><ele>473.0</ele><time>2026-04-06T14:35:08Z</time></trkpt><trkpt lat="45.92435902127438" lon="11.129062798117024"><ele>473.0</ele><time>2026-04-06T14:35:09Z</time></trkpt><trkpt lat="45.92449874646716" lon="11.129096587608052"><ele>472.25</ele><time>2026-04-06T14:35:10Z</time></trkpt><trkpt lat="45.92462981372591" lon="11.129177989995602"><ele>471.5</ele><time>2026-04-06T14:35:11Z</time></trkpt><trkpt lat="45.92474483932396" lon="11.129254449209878"><ele>470.75</ele><time>2026-04-06T14:35:12Z</time></trkpt><trkpt lat="45.924833449891395" lon="11.129352323841948"><ele>470.0</ele><time>2026-04-06T14:35:13Z</time></trkpt><trkpt lat="45.924902895766465" lon="11.129490254993268"><ele>470.0</ele><time>2026-04-06T14:35:14Z</time></trkpt><trkpt lat="45.92495570744584" lon="11.129648072847553"><ele>470.0</ele><time>2026-04-06T14:35:15Z</time></trkpt><trkpt lat="45.92500319689629" lon="11.12979796312292"><ele>470.0</ele><time>2026-04-06T14:35:16Z</time></trkpt><trkpt lat="45.92501299120675" lon="11.129945516446812"><ele>470.0</ele><time>2026-04-06T14:35:17Z</time></trkpt><trkpt lat="45.92497691287998" lon="11.130065689617298"><ele>470.0</ele><time>2026-04-06T14:35:18Z</time></trkpt><trkpt lat="45.92491412592976" lon="11.130166124551431"><ele>463.2</ele><time>2026-04-06T14:35:19Z</time></trkpt><trkpt lat="45.92482466535663" lon="11.13025826315933"><ele>456.4</ele><time>2026-04-06T14:35:20Z</time></trkpt><trkpt lat="45.92472514338642" lon="11.130293077163538"><ele>449.6</ele><time>2026-04-06T14:35:21Z</time></trkpt><trkpt lat="45.92462844676144" lon="11.130234734698297"><ele>442.8</ele><time>2026-04-06T14:35:22Z</time></trkpt><trkpt lat="45.92455720539664" lon="11.130149895493568"><ele>436.0</ele><time>2026-04-06T14:35:23Z</time></trkpt><trkpt lat="45.924482243982034" lon="11.13005831894"><ele>436.0</ele><time>2026-04-06T14:35:24Z</time></trkpt><trkpt lat="45.92437902612587" lon="11.12998595575576"><ele>436.0</ele><time>2026-04-06T14:35:25Z</time></trkpt><trkpt lat="45.924264942611934" lon="11.129956990290697"><ele>436.0</ele><time>2026-04-06T14:35:26Z</time></trkpt><trkpt lat="45.92413757339762" lon="11.1300070697646"><ele>436.0</ele><time>2026-04-06T14:35:27Z</time></trkpt><trkpt lat="45.92403155684671" lon="11.130076281153917"><ele>435.0</ele><time>2026-04-06T14:35:28Z</time></trkpt><trkpt lat="45.92390523874096" lon="11.130140676253768"><ele>434.0</ele><time>2026-04-06T14:35:29Z</time></trkpt><trkpt lat="45.92377091320953" lon="11.130146205460061"><ele>433.0</ele><time>2026-04-06T14:35:30Z</time></trkpt><trkpt lat="45.92363531413752" lon="11.130108725710876"><ele>432.0</ele><time>2026-04-06T14:35:31Z</time></trkpt><trkpt lat="45.92350740157908" lon="11.130046874674065"><ele>434.0</ele><time>2026-04-06T14:35:32Z</time></trkpt><trkpt lat="45.92337939221064" lon="11.129990065164101"><ele>436.0</ele><time>2026-04-06T14:35:33Z</time></trkpt><trkpt lat="45.92324219053364" lon="11.12991958169304"><ele>438.0</ele><time>2026-04-06T14:35:34Z</time></trkpt><trkpt lat="45.92310858036594" lon="11.129852953019158"><ele>440.0</ele><time>2026-04-06T14:35:35Z</time></trkpt><trkpt lat="45.922972603918694" lon="11.12979488197893"><ele>439.5</ele><time>2026-04-06T14:35:36Z</time></trkpt><trkpt lat="45.92283989957912" lon="11.129722440366162"><ele>439.0</ele><time>2026-04-06T14:35:37Z</time></trkpt><trkpt lat="45.922702769866724" lon="11.129670020718006"><ele>438.5</ele><time>2026-04-06T14:35:38Z</time></trkpt><trkpt lat="45.92255881985841" lon="11.129639019742825"><ele>438.0</ele><time>2026-04-06T14:35:39Z</time></trkpt><trkpt lat="45.92242027864022" lon="11.129589598487609"><ele>438.0</ele><time>2026-04-06T14:35:40Z</time></trkpt><trkpt lat="45.92227849044535" lon="11.129546153759968"><ele>438.0</ele><time>2026-04-06T14:35:41Z</time></trkpt><trkpt lat="45.92213825457679" lon="11.129505476675897"><ele>438.0</ele><time>2026-04-06T14:35:42Z</time></trkpt><trkpt lat="45.92201601673585" lon="11.129478946466435"><ele>438.0</ele><time>2026-04-06T14:35:43Z</time></trkpt><trkpt lat="45.92192126261203" lon="11.12942122543879"><ele>438.0</ele><time>2026-04-06T14:35:44Z</time></trkpt><trkpt lat="45.921847476581625" lon="11.129379936811953"><ele>438.0</ele><time>2026-04-06T14:35:45Z</time></trkpt><trkpt lat="45.92180416920189" lon="11.129246023750657"><ele>438.0</ele><time>2026-04-06T14:35:47Z</time></trkpt><trkpt lat="45.921818087512236" lon="11.129147736047393"><ele>438.0</ele><time>2026-04-06T14:35:48Z</time></trkpt><trkpt lat="45.92188470624192" lon="11.129047736145903"><ele>438.0</ele><time>2026-04-06T14:35:49Z</time></trkpt><trkpt lat="45.921949231329066" lon="11.128937587052924"><ele>438.0</ele><time>2026-04-06T14:35:50Z</time></trkpt><trkpt lat="45.922014481616635" lon="11.128833272469388"><ele>433.0</ele><time>2026-04-06T14:35:51Z</time></trkpt><trkpt lat="45.922061790188096" lon="11.128717298618248"><ele>427.99999999999994</ele><time>2026-04-06T14:35:52Z</time></trkpt><trkpt lat="45.92208886712873" lon="11.128601651823878"><ele>423.0</ele><time>2026-04-06T14:35:53Z</time></trkpt><trkpt lat="45.92206832352292" lon="11.12847655480955"><ele>418.0</ele><time>2026-04-06T14:35:54Z</time></trkpt><trkpt lat="45.92202963195746" lon="11.128343711146217"><ele>413.0</ele><time>2026-04-06T14:35:55Z</time></trkpt><trkpt lat="45.92194875613483" lon="11.128254756151717"><ele>409.79999999999995</ele><time>2026-04-06T14:35:56Z</time></trkpt><trkpt lat="45.921872267266146" lon="11.128159846820612"><ele>406.6</ele><time>2026-04-06T14:35:57Z</time></trkpt><trkpt lat="45.92176122617589" lon="11.128146032826907"><ele>403.4</ele><time>2026-04-06T14:35:58Z</time></trkpt><trkpt lat="45.921665483201075" lon="11.128172847871955"><ele>400.20000000000005</ele><time>2026-04-06T14:35:59Z</time></trkpt><trkpt lat="45.9215914720763" lon="11.128292131849838"><ele>397.0</ele><time>2026-04-06T14:36:00Z</time></trkpt><trkpt lat="45.92153192346386" lon="11.12842690351984"><ele>410.75</ele><time>2026-04-06T14:36:01Z</time></trkpt><trkpt lat="45.9214626589601" lon="11.128562715818717"><ele>424.5</ele><time>2026-04-06T14:36:02Z</time></trkpt><trkpt lat="45.9213993663258" lon="11.128703925311353"><ele>438.25</ele><time>2026-04-06T14:36:03Z</time></trkpt><trkpt lat="45.92130922502449" lon="11.128813560636283"><ele>452.0</ele><time>2026-04-06T14:36:04Z</time></trkpt><trkpt lat="45.92119756856953" lon="11.128906931705385"><ele>452.0</ele><time>2026-04-06T14:36:05Z</time></trkpt><trkpt lat="45.921087533870974" lon="11.12901275270447"><ele>452.0</ele><time>2026-04-06T14:36:06Z</time></trkpt><trkpt lat="45.92097383828925" lon="11.129131628574788"><ele>452.0</ele><time>2026-04-06T14:36:07Z</time></trkpt><trkpt lat="45.92087403767646" lon="11.129269447359064"><ele>452.0</ele><time>2026-04-06T14:36:08Z</time></trkpt><trkpt lat="45.92078067684936" lon="11.129416425524663"><ele>455.0</ele><time>2026-04-06T14:36:09Z</time></trkpt><trkpt lat="45.920700864369216" lon="11.129572937510531"><ele>458.0</ele><time>2026-04-06T14:36:10Z</time></trkpt><trkpt lat="45.920619999200696" lon="11.129735964318792"><ele>461.0</ele><time>2026-04-06T14:36:11Z</time></trkpt><trkpt lat="45.92055964173835" lon="11.129904501614435"><ele>464.0</ele><time>2026-04-06T14:36:12Z</time></trkpt><trkpt lat="45.92049918548155" lon="11.130034285637027"><ele>464.79999999999995</ele><time>2026-04-06T14:36:13Z</time></trkpt><trkpt lat="45.920429023077006" lon="11.130125127481044"><ele>465.59999999999997</ele><time>2026-04-06T14:36:14Z</time></trkpt><trkpt lat="45.92034083240454" lon="11.130148411749756"><ele>466.4</ele><time>2026-04-06T14:36:15Z</time></trkpt><trkpt lat="45.92023223247037" lon="11.130148089324397"><ele>467.2</ele><time>2026-04-06T14:36:16Z</time></trkpt><trkpt lat="45.9201229401225" lon="11.130168855094311"><ele>468.0</ele><time>2026-04-06T14:36:17Z</time></trkpt><trkpt lat="45.92001280483752" lon="11.130184821582711"><ele>468.0</ele><time>2026-04-06T14:36:18Z</time></trkpt><trkpt lat="45.91991927309586" lon="11.130304687874501"><ele>468.0</ele><time>2026-04-06T14:36:19Z</time></trkpt><trkpt lat="45.9198323873041" lon="11.130436219809242"><ele>468.0</ele><time>2026-04-06T14:36:20Z</time></trkpt><trkpt lat="45.91974191242537" lon="11.130575219096885"><ele>468.0</ele><time>2026-04-06T14:36:21Z</time></trkpt><trkpt lat="45.91964757645317" lon="11.130715341834788"><ele>478.25</ele><time>2026-04-06T14:36:22Z</time></trkpt><trkpt lat="45.919548580072906" lon="11.130856315042811"><ele>488.5</ele><time>2026-04-06T14:36:23Z</time></trkpt><trkpt lat="45.919452316068146" lon="11.130998323981293"><ele>498.75</ele><time>2026-04-06T14:36:24Z</time></trkpt><trkpt lat="45.91935692202239" lon="11.131141866986138"><ele>509.0</ele><time>2026-04-06T14:36:25Z</time></trkpt><trkpt lat="45.919261307609595" lon="11.131282232714153"><ele>508.75</ele><time>2026-04-06T14:36:26Z</time></trkpt><trkpt lat="45.919166805096225" lon="11.131420662966224"><ele>508.5</ele><time>2026-04-06T14:36:27Z</time></trkpt><trkpt lat="45.91907908191388" lon="11.131564353969374"><ele>508.25</ele><time>2026-04-06T14:36:28Z</time></trkpt><trkpt lat="45.918996422051364" lon="11.131708305181602"><ele>508.0</ele><time>2026-04-06T14:36:29Z</time></trkpt><trkpt lat="45.91891564634624" lon="11.131844931429784"><ele>508.0</ele><time>2026-04-06T14:36:30Z</time></trkpt><trkpt lat="45.91884085999326" lon="11.131977294996597"><ele>508.0</ele><time>2026-04-06T14:36:31Z</time></trkpt><trkpt lat="45.918793066113665" lon="11.132125578903619"><ele>508.0</ele><time>2026-04-06T14:36:32Z</time></trkpt><trkpt lat="45.91878093947908" lon="11.13229688829082"><ele>508.0</ele><time>2026-04-06T14:36:33Z</time></trkpt><trkpt lat="45.91875620939139" lon="11.132464489032134"><ele>513.0</ele><time>2026-04-06T14:36:34Z</time></trkpt><trkpt lat="45.918740785689174" lon="11.1326343349953"><ele>518.0</ele><time>2026-04-06T14:36:35Z</time></trkpt><trkpt lat="45.918715802745375" lon="11.132791831384958"><ele>523.0</ele><time>2026-04-06T14:36:36Z</time></trkpt><trkpt lat="45.91866213659231" lon="11.132937995095038"><ele>528.0</ele><time>2026-04-06T14:36:37Z</time></trkpt><trkpt lat="45.91856026215218" lon="11.133037342938168"><ele>528.0</ele><time>2026-04-06T14:36:38Z</time></trkpt><trkpt lat="45.91845388880369" lon="11.133138776973004"><ele>528.0</ele><time>2026-04-06T14:36:39Z</time></trkpt><trkpt lat="45.918347201924924" lon="11.133247779023023"><ele>528.0</ele><time>2026-04-06T14:36:40Z</time></trkpt><trkpt lat="45.918237601947006" lon="11.13335975743316"><ele>528.0</ele><time>2026-04-06T14:36:41Z</time></trkpt><trkpt lat="45.91812457333948" lon="11.133467244353048"><ele>525.75</ele><time>2026-04-06T14:36:42Z</time></trkpt><trkpt lat="45.91801487833343" lon="11.133581872925527"><ele>523.5</ele><time>2026-04-06T14:36:43Z</time></trkpt><trkpt lat="45.91789568762519" lon="11.13365080799488"><ele>521.25</ele><time>2026-04-06T14:36:44Z</time></trkpt><trkpt lat="45.91779348955582" lon="11.133709966658618"><ele>519.0</ele><time>2026-04-06T14:36:45Z</time></trkpt><trkpt lat="45.917719756988255" lon="11.133783743572101"><ele>519.0</ele><time>2026-04-06T14:36:46Z</time></trkpt><trkpt lat="45.917674587461235" lon="11.133897910413172"><ele>519.0</ele><time>2026-04-06T14:36:47Z</time></trkpt><trkpt lat="45.91763551511706" lon="11.134043530931391"><ele>519.0</ele><time>2026-04-06T14:36:48Z</time></trkpt><trkpt lat="45.91759941356134" lon="11.134189732179287"><ele>519.0</ele><time>2026-04-06T14:36:49Z</time></trkpt><trkpt lat="45.9175631166844" lon="11.134341160251637"><ele>519.0</ele><time>2026-04-06T14:36:50Z</time></trkpt><trkpt lat="45.91747943434212" lon="11.134463955753866"><ele>519.5</ele><time>2026-04-06T14:36:51Z</time></trkpt><trkpt lat="45.91737995346405" lon="11.13456404827063"><ele>520.0</ele><time>2026-04-06T14:36:52Z</time></trkpt><trkpt lat="45.917271298090334" lon="11.134652342690726"><ele>520.5</ele><time>2026-04-06T14:36:53Z</time></trkpt><trkpt lat="45.917163045640116" lon="11.134740109792387"><ele>521.0</ele><time>2026-04-06T14:36:54Z</time></trkpt><trkpt lat="45.917058716520394" lon="11.134830053945201"><ele>525.5</ele><time>2026-04-06T14:36:55Z</time></trkpt><trkpt lat="45.916971814219735" lon="11.134906776315402"><ele>530.0</ele><time>2026-04-06T14:36:56Z</time></trkpt><trkpt lat="45.91689525550963" lon="11.134977143708598"><ele>534.5</ele><time>2026-04-06T14:36:57Z</time></trkpt><trkpt lat="45.91684005171233" lon="11.13505113742402"><ele>539.0</ele><time>2026-04-06T14:36:58Z</time></trkpt><trkpt lat="45.9168135830048" lon="11.135146267568324"><ele>543.5</ele><time>2026-04-06T14:36:59Z</time></trkpt><trkpt lat="45.91679220402096" lon="11.135244711055869"><ele>548.0</ele><time>2026-04-06T14:37:00Z</time></trkpt><trkpt lat="45.91684694114198" lon="11.135347327575671"><ele>548.0</ele><time>2026-04-06T14:37:01Z</time></trkpt><trkpt lat="45.91690597570292" lon="11.13541356267378"><ele>548.0</ele><time>2026-04-06T14:37:02Z</time></trkpt><trkpt lat="45.91699166722534" lon="11.135429317383592"><ele>548.0</ele><time>2026-04-06T14:37:03Z</time></trkpt><trkpt lat="45.91707524248994" lon="11.135391772517401"><ele>548.0</ele><time>2026-04-06T14:37:03.999Z</time></trkpt><trkpt lat="45.917151435328186" lon="11.135306202970371"><ele>548.0</ele><time>2026-04-06T14:37:04.999Z</time></trkpt><trkpt lat="45.91723659923153" lon="11.135204548354459"><ele>548.0</ele><time>2026-04-06T14:37:05.999Z</time></trkpt><trkpt lat="45.91732573356277" lon="11.135100738659892"><ele>548.0</ele><time>2026-04-06T14:37:06.999Z</time></trkpt><trkpt lat="45.91742071417525" lon="11.135000575775564"><ele>548.0</ele><time>2026-04-06T14:37:07.999Z</time></trkpt><trkpt lat="45.91752375160672" lon="11.134908655631715"><ele>548.0</ele><time>2026-04-06T14:37:08.999Z</time></trkpt><trkpt lat="45.917640542352665" lon="11.13483278838171"><ele>547.25</ele><time>2026-04-06T14:37:09.999Z</time></trkpt><trkpt lat="45.91776702416458" lon="11.134769871500437"><ele>546.5</ele><time>2026-04-06T14:37:10.999Z</time></trkpt><trkpt lat="45.91789749288369" lon="11.134713718802924"><ele>545.75</ele><time>2026-04-06T14:37:11.999Z</time></trkpt><trkpt lat="45.91802971341121" lon="11.134653680234502"><ele>545.0</ele><time>2026-04-06T14:37:12.999Z</time></trkpt><trkpt lat="45.91816531824511" lon="11.134594464785373"><ele>545.0</ele><time>2026-04-06T14:37:13.999Z</time></trkpt><trkpt lat="45.91830163802764" lon="11.13453797955405"><ele>545.0</ele><time>2026-04-06T14:37:14.999Z</time></trkpt><trkpt lat="45.91843867951119" lon="11.134480038628158"><ele>545.0</ele><time>2026-04-06T14:37:15.999Z</time></trkpt><trkpt lat="45.91857652876907" lon="11.134419662896262"><ele>545.0</ele><time>2026-04-06T14:37:16.999Z</time></trkpt><trkpt lat="45.91871375480496" lon="11.13435847237853"><ele>549.75</ele><time>2026-04-06T14:37:17.999Z</time></trkpt><trkpt lat="45.91885059211494" lon="11.13429666688457"><ele>554.5</ele><time>2026-04-06T14:37:18.999Z</time></trkpt><trkpt lat="45.918988658293934" lon="11.1342350173009"><ele>559.25</ele><time>2026-04-06T14:37:19.999Z</time></trkpt><trkpt lat="45.919122253711485" lon="11.134179054331831"><ele>564.0</ele><time>2026-04-06T14:37:20.999Z</time></trkpt><trkpt lat="45.91924924406644" lon="11.13412286025606"><ele>568.25</ele><time>2026-04-06T14:37:21.999Z</time></trkpt><trkpt lat="45.919373503020644" lon="11.134063109427137"><ele>572.5</ele><time>2026-04-06T14:37:22.999Z</time></trkpt><trkpt lat="45.91948156275266" lon="11.133981796475334"><ele>576.75</ele><time>2026-04-06T14:37:23.999Z</time></trkpt><trkpt lat="45.91956997534841" lon="11.133863048803732"><ele>581.0</ele><time>2026-04-06T14:37:24.999Z</time></trkpt><trkpt lat="45.91963985330109" lon="11.133710417244622"><ele>581.0</ele><time>2026-04-06T14:37:25.999Z</time></trkpt><trkpt lat="45.9196962217645" lon="11.133538988893077"><ele>581.0</ele><time>2026-04-06T14:37:26.999Z</time></trkpt><trkpt lat="45.91974486182674" lon="11.133371233757314"><ele>581.0</ele><time>2026-04-06T14:37:27.999Z</time></trkpt><trkpt lat="45.91979458190898" lon="11.133244237469517"><ele>581.0</ele><time>2026-04-06T14:37:28.999Z</time></trkpt><trkpt lat="45.919835815655006" lon="11.133129402756778"><ele>581.0</ele><time>2026-04-06T14:37:29.999Z</time></trkpt><trkpt lat="45.919911318882434" lon="11.133032384518211"><ele>581.0</ele><time>2026-04-06T14:37:31.998Z</time></trkpt><trkpt lat="45.91997093743212" lon="11.133099490102042"><ele>581.0</ele><time>2026-04-06T14:37:33.998Z</time></trkpt><trkpt lat="45.919944831573105" lon="11.133247377250173"><ele>581.0</ele><time>2026-04-06T14:37:34.998Z</time></trkpt><trkpt lat="45.91989837093279" lon="11.133353850010362"><ele>581.0</ele><time>2026-04-06T14:37:35.998Z</time></trkpt><trkpt lat="45.91985867100318" lon="11.133482453977724"><ele>581.0</ele><time>2026-04-06T14:37:36.998Z</time></trkpt><trkpt lat="45.919807566552514" lon="11.133598964100544"><ele>581.0</ele><time>2026-04-06T14:37:37.998Z</time></trkpt><trkpt lat="45.919763543759004" lon="11.133769156435344"><ele>581.0</ele><time>2026-04-06T14:37:38.998Z</time></trkpt><trkpt lat="45.919721286222696" lon="11.133966973837074"><ele>581.0</ele><time>2026-04-06T14:37:39.998Z</time></trkpt><trkpt lat="45.9196859636695" lon="11.134112987241105"><ele>583.75</ele><time>2026-04-06T14:37:40.998Z</time></trkpt><trkpt lat="45.91965395692367" lon="11.134268839004465"><ele>586.5</ele><time>2026-04-06T14:37:41.998Z</time></trkpt><trkpt lat="45.91958395877031" lon="11.134445218809006"><ele>589.25</ele><time>2026-04-06T14:37:42.998Z</time></trkpt><trkpt lat="45.919505476829585" lon="11.134604829525335"><ele>592.0</ele><time>2026-04-06T14:37:43.998Z</time></trkpt><trkpt lat="45.91941640294807" lon="11.134753288997333"><ele>590.25</ele><time>2026-04-06T14:37:44.998Z</time></trkpt><trkpt lat="45.91932355412151" lon="11.134907332177058"><ele>588.5</ele><time>2026-04-06T14:37:45.998Z</time></trkpt><trkpt lat="45.91923731040684" lon="11.135068420735013"><ele>586.75</ele><time>2026-04-06T14:37:46.998Z</time></trkpt><trkpt lat="45.91915166389282" lon="11.135227285571014"><ele>585.0</ele><time>2026-04-06T14:37:47.998Z</time></trkpt><trkpt lat="45.91906372711601" lon="11.13538689494847"><ele>585.0</ele><time>2026-04-06T14:37:48.998Z</time></trkpt><trkpt lat="45.9189748584728" lon="11.135541195005322"><ele>585.0</ele><time>2026-04-06T14:37:49.998Z</time></trkpt><trkpt lat="45.91888425503555" lon="11.135695642325642"><ele>585.0</ele><time>2026-04-06T14:37:50.998Z</time></trkpt><trkpt lat="45.9187899418012" lon="11.13584924395723"><ele>585.0</ele><time>2026-04-06T14:37:51.998Z</time></trkpt><trkpt lat="45.918690735673934" lon="11.136005709880083"><ele>584.5</ele><time>2026-04-06T14:37:52.998Z</time></trkpt><trkpt lat="45.91858108717451" lon="11.136147726567144"><ele>584.0</ele><time>2026-04-06T14:37:53.998Z</time></trkpt><trkpt lat="45.918461394490805" lon="11.136276293940165"><ele>583.5</ele><time>2026-04-06T14:37:54.998Z</time></trkpt><trkpt lat="45.918345195862344" lon="11.136404966373425"><ele>583.0</ele><time>2026-04-06T14:37:55.998Z</time></trkpt><trkpt lat="45.91823639278271" lon="11.136546100883912"><ele>589.0</ele><time>2026-04-06T14:37:56.998Z</time></trkpt><trkpt lat="45.9181383901998" lon="11.136701826687071"><ele>595.0</ele><time>2026-04-06T14:37:57.998Z</time></trkpt><trkpt lat="45.918058771761736" lon="11.136875569657605"><ele>601.0</ele><time>2026-04-06T14:37:58.998Z</time></trkpt><trkpt lat="45.91797899938357" lon="11.137052746766313"><ele>607.0</ele><time>2026-04-06T14:37:59.998Z</time></trkpt><trkpt lat="45.91789564597149" lon="11.137226953084014"><ele>606.25</ele><time>2026-04-06T14:38:00.998Z</time></trkpt><trkpt lat="45.91781146045186" lon="11.137397127628804"><ele>605.5</ele><time>2026-04-06T14:38:01.998Z</time></trkpt><trkpt lat="45.91773013559163" lon="11.137569302262024"><ele>604.75</ele><time>2026-04-06T14:38:02.998Z</time></trkpt><trkpt lat="45.91764820786581" lon="11.137741731493506"><ele>604.0</ele><time>2026-04-06T14:38:03.998Z</time></trkpt><trkpt lat="45.91756455934115" lon="11.137904971410238"><ele>604.0</ele><time>2026-04-06T14:38:04.998Z</time></trkpt><trkpt lat="45.91747030849813" lon="11.138051405737162"><ele>604.0</ele><time>2026-04-06T14:38:05.998Z</time></trkpt><trkpt lat="45.91737085316186" lon="11.138178873214358"><ele>604.0</ele><time>2026-04-06T14:38:06.998Z</time></trkpt><trkpt lat="45.91726791519002" lon="11.138298770588737"><ele>604.0</ele><time>2026-04-06T14:38:07.998Z</time></trkpt><trkpt lat="45.9171648748392" lon="11.138412275484626"><ele>608.5</ele><time>2026-04-06T14:38:08.998Z</time></trkpt><trkpt lat="45.91706503236097" lon="11.1385203644804"><ele>613.0</ele><time>2026-04-06T14:38:09.998Z</time></trkpt><trkpt lat="45.91696083377924" lon="11.138627292453107"><ele>617.5</ele><time>2026-04-06T14:38:10.998Z</time></trkpt><trkpt lat="45.91685571610124" lon="11.138698718549199"><ele>622.0</ele><time>2026-04-06T14:38:11.998Z</time></trkpt><trkpt lat="45.91675270908182" lon="11.138765010760732"><ele>620.3333333333334</ele><time>2026-04-06T14:38:12.998Z</time></trkpt><trkpt lat="45.916655832750834" lon="11.138824587070172"><ele>618.6666666666667</ele><time>2026-04-06T14:38:13.998Z</time></trkpt><trkpt lat="45.91657381743978" lon="11.138886706487703"><ele>617.0</ele><time>2026-04-06T14:38:14.998Z</time></trkpt><trkpt lat="45.91651006786947" lon="11.138948254878445"><ele>615.3333333333334</ele><time>2026-04-06T14:38:15.998Z</time></trkpt><trkpt lat="45.91647129293322" lon="11.139032558560837"><ele>613.6666666666666</ele><time>2026-04-06T14:38:16.998Z</time></trkpt><trkpt lat="45.916465045061656" lon="11.139129751699809"><ele>612.0</ele><time>2026-04-06T14:38:17.998Z</time></trkpt><trkpt lat="45.91649969958935" lon="11.139241061437733"><ele>616.4</ele><time>2026-04-06T14:38:18.998Z</time></trkpt><trkpt lat="45.91655133066443" lon="11.139335440586779"><ele>620.8000000000001</ele><time>2026-04-06T14:38:19.998Z</time></trkpt><trkpt lat="45.9166236268636" lon="11.139386154190632"><ele>625.2</ele><time>2026-04-06T14:38:20.998Z</time></trkpt><trkpt lat="45.916721769494075" lon="11.139391588933846"><ele>629.6</ele><time>2026-04-06T14:38:21.998Z</time></trkpt><trkpt lat="45.916834930190774" lon="11.139377951264139"><ele>634.0</ele><time>2026-04-06T14:38:22.998Z</time></trkpt><trkpt lat="45.916945164538184" lon="11.139359460300097"><ele>636.75</ele><time>2026-04-06T14:38:23.998Z</time></trkpt><trkpt lat="45.91705292662382" lon="11.139340963859748"><ele>639.5</ele><time>2026-04-06T14:38:24.998Z</time></trkpt><trkpt lat="45.91715428203987" lon="11.139262226729961"><ele>642.25</ele><time>2026-04-06T14:38:25.998Z</time></trkpt><trkpt lat="45.917235105155804" lon="11.139190460485782"><ele>645.0</ele><time>2026-04-06T14:38:26.998Z</time></trkpt><trkpt lat="45.91734206918613" lon="11.139073615172297"><ele>644.25</ele><time>2026-04-06T14:38:27.998Z</time></trkpt><trkpt lat="45.91745106640032" lon="11.13898438781989"><ele>643.5</ele><time>2026-04-06T14:38:28.998Z</time></trkpt><trkpt lat="45.917571440097014" lon="11.138976446669218"><ele>642.75</ele><time>2026-04-06T14:38:29.998Z</time></trkpt><trkpt lat="45.917698401113064" lon="11.138965474626637"><ele>642.0</ele><time>2026-04-06T14:38:30.999Z</time></trkpt><trkpt lat="45.9178277755053" lon="11.138911086620302"><ele>642.0</ele><time>2026-04-06T14:38:31.999Z</time></trkpt><trkpt lat="45.917957913306" lon="11.138823852371077"><ele>642.0</ele><time>2026-04-06T14:38:32.999Z</time></trkpt><trkpt lat="45.918080468136374" lon="11.138727243801258"><ele>642.0</ele><time>2026-04-06T14:38:33.999Z</time></trkpt><trkpt lat="45.91820150079576" lon="11.13863508053522"><ele>642.0</ele><time>2026-04-06T14:38:34.999Z</time></trkpt><trkpt lat="45.91832479990166" lon="11.138556646416705"><ele>647.5</ele><time>2026-04-06T14:38:35.999Z</time></trkpt><trkpt lat="45.91844268611046" lon="11.138482636773071"><ele>653.0</ele><time>2026-04-06T14:38:36.999Z</time></trkpt><trkpt lat="45.91856222402848" lon="11.138409368768057"><ele>658.5</ele><time>2026-04-06T14:38:37.999Z</time></trkpt><trkpt lat="45.918677115387226" lon="11.138342967124863"><ele>664.0</ele><time>2026-04-06T14:38:38.999Z</time></trkpt><trkpt lat="45.91878205516637" lon="11.13827691238549"><ele>664.0</ele><time>2026-04-06T14:38:39.999Z</time></trkpt><trkpt lat="45.91888492343608" lon="11.138236074899696"><ele>664.0</ele><time>2026-04-06T14:38:40.999Z</time></trkpt><trkpt lat="45.9190014150282" lon="11.138238394425766"><ele>664.0</ele><time>2026-04-06T14:38:41.999Z</time></trkpt><trkpt lat="45.91911154933318" lon="11.138263185544385"><ele>664.0</ele><time>2026-04-06T14:38:42.999Z</time></trkpt><trkpt lat="45.91921965280262" lon="11.138293626952299"><ele>664.0</ele><time>2026-04-06T14:38:43.999Z</time></trkpt><trkpt lat="45.919331176627296" lon="11.138302036029954"><ele>665.0</ele><time>2026-04-06T14:38:44.999Z</time></trkpt><trkpt lat="45.91943291430887" lon="11.138334953229895"><ele>666.0</ele><time>2026-04-06T14:38:45.999Z</time></trkpt><trkpt lat="45.91952944663175" lon="11.138325941477131"><ele>667.0</ele><time>2026-04-06T14:38:46.999Z</time></trkpt><trkpt lat="45.919614762549706" lon="11.138269862244545"><ele>668.0</ele><time>2026-04-06T14:38:47.999Z</time></trkpt><trkpt lat="45.91968522132347" lon="11.138173558681563"><ele>669.0</ele><time>2026-04-06T14:38:48.999Z</time></trkpt><trkpt lat="45.919746251162735" lon="11.138042718306194"><ele>669.0</ele><time>2026-04-06T14:38:49.999Z</time></trkpt><trkpt lat="45.91981010269578" lon="11.137903808253768"><ele>669.0</ele><time>2026-04-06T14:38:50.999Z</time></trkpt><trkpt lat="45.9198798900659" lon="11.137769747276582"><ele>669.0</ele><time>2026-04-06T14:38:51.998Z</time></trkpt><trkpt lat="45.91995252242944" lon="11.137644807193341"><ele>669.0</ele><time>2026-04-06T14:38:52.998Z</time></trkpt><trkpt lat="45.92002375502954" lon="11.13752692877611"><ele>671.75</ele><time>2026-04-06T14:38:53.998Z</time></trkpt><trkpt lat="45.92008915306226" lon="11.13741028412665"><ele>674.5</ele><time>2026-04-06T14:38:54.998Z</time></trkpt><trkpt lat="45.92017954946937" lon="11.137321288305587"><ele>677.25</ele><time>2026-04-06T14:38:55.999Z</time></trkpt><trkpt lat="45.92028258425661" lon="11.137237259414691"><ele>680.0</ele><time>2026-04-06T14:38:56.999Z</time></trkpt><trkpt lat="45.92039279916511" lon="11.13712613562706"><ele>680.0</ele><time>2026-04-06T14:38:57.999Z</time></trkpt><trkpt lat="45.920510389100286" lon="11.137035332171015"><ele>680.0</ele><time>2026-04-06T14:38:58.999Z</time></trkpt><trkpt lat="45.92062519501426" lon="11.136942042673986"><ele>680.0</ele><time>2026-04-06T14:38:59.999Z</time></trkpt><trkpt lat="45.92072753165056" lon="11.13683796884101"><ele>680.0</ele><time>2026-04-06T14:39:00.999Z</time></trkpt><trkpt lat="45.920817793501755" lon="11.136703934932388"><ele>680.5</ele><time>2026-04-06T14:39:01.999Z</time></trkpt><trkpt lat="45.92090991816532" lon="11.136573544678154"><ele>681.0</ele><time>2026-04-06T14:39:02.999Z</time></trkpt><trkpt lat="45.9210004924746" lon="11.136455030439237"><ele>681.5</ele><time>2026-04-06T14:39:03.999Z</time></trkpt><trkpt lat="45.921093089647826" lon="11.13633332390776"><ele>682.0</ele><time>2026-04-06T14:39:04.999Z</time></trkpt><trkpt lat="45.9211776154885" lon="11.136211119296231"><ele>682.0</ele><time>2026-04-06T14:39:05.999Z</time></trkpt><trkpt lat="45.92126623361034" lon="11.136105574523041"><ele>682.0</ele><time>2026-04-06T14:39:06.999Z</time></trkpt><trkpt lat="45.921375089404286" lon="11.136066046532518"><ele>682.0</ele><time>2026-04-06T14:39:07.999Z</time></trkpt><trkpt lat="45.92148970761504" lon="11.136055809028658"><ele>682.0</ele><time>2026-04-06T14:39:08.999Z</time></trkpt><trkpt lat="45.921614662449414" lon="11.136042554326682"><ele>686.5</ele><time>2026-04-06T14:39:09.999Z</time></trkpt><trkpt lat="45.92173603654042" lon="11.13605841154199"><ele>691.0</ele><time>2026-04-06T14:39:10.999Z</time></trkpt><trkpt lat="45.92185868634479" lon="11.136071579669725"><ele>695.5</ele><time>2026-04-06T14:39:11.999Z</time></trkpt><trkpt lat="45.92197936658961" lon="11.136083505512225"><ele>700.0</ele><time>2026-04-06T14:39:12.999Z</time></trkpt><trkpt lat="45.92209559712216" lon="11.136099178373646"><ele>700.0</ele><time>2026-04-06T14:39:14Z</time></trkpt><trkpt lat="45.922208679934364" lon="11.136122782829466"><ele>700.0</ele><time>2026-04-06T14:39:15Z</time></trkpt><trkpt lat="45.922319413034046" lon="11.136144980253151"><ele>700.0</ele><time>2026-04-06T14:39:16Z</time></trkpt><trkpt lat="45.92242443235596" lon="11.136158920533637"><ele>700.0</ele><time>2026-04-06T14:39:17Z</time></trkpt><trkpt lat="45.922525098901424" lon="11.13615290592604"><ele>700.0</ele><time>2026-04-06T14:39:18Z</time></trkpt><trkpt lat="45.9226088629168" lon="11.13609315940586"><ele>701.6</ele><time>2026-04-06T14:39:19Z</time></trkpt><trkpt lat="45.92265324142282" lon="11.135980426753454"><ele>703.2</ele><time>2026-04-06T14:39:20Z</time></trkpt><trkpt lat="45.92267869663584" lon="11.135846162442485"><ele>704.8</ele><time>2026-04-06T14:39:21Z</time></trkpt><trkpt lat="45.9226912190966" lon="11.13571273164634"><ele>706.4</ele><time>2026-04-06T14:39:22Z</time></trkpt><trkpt lat="45.92270721134266" lon="11.135605397016908"><ele>708.0</ele><time>2026-04-06T14:39:23Z</time></trkpt><trkpt lat="45.92277010835538" lon="11.135466994383314"><ele>708.0</ele><time>2026-04-06T14:39:25Z</time></trkpt><trkpt lat="45.922835333428104" lon="11.135444912949051"><ele>708.0</ele><time>2026-04-06T14:39:26Z</time></trkpt><trkpt lat="45.922903193363084" lon="11.135472647608431"><ele>708.0</ele><time>2026-04-06T14:39:27Z</time></trkpt><trkpt lat="45.922955442106726" lon="11.135554650266803"><ele>708.0</ele><time>2026-04-06T14:39:28Z</time></trkpt><trkpt lat="45.92298703022698" lon="11.135670941991295"><ele>708.0</ele><time>2026-04-06T14:39:29Z</time></trkpt><trkpt lat="45.923008957284935" lon="11.135807527171766"><ele>708.0</ele><time>2026-04-06T14:39:30Z</time></trkpt><trkpt lat="45.92304625150954" lon="11.135940492056712"><ele>710.5999999999999</ele><time>2026-04-06T14:39:31Z</time></trkpt><trkpt lat="45.92308517996761" lon="11.136074459234433"><ele>713.1999999999999</ele><time>2026-04-06T14:39:32Z</time></trkpt><trkpt lat="45.923122573634984" lon="11.136214170396643"><ele>715.8</ele><time>2026-04-06T14:39:33Z</time></trkpt><trkpt lat="45.923158739167434" lon="11.136356865229176"><ele>718.4</ele><time>2026-04-06T14:39:34Z</time></trkpt><trkpt lat="45.92319984222793" lon="11.136496492657015"><ele>721.0</ele><time>2026-04-06T14:39:35Z</time></trkpt><trkpt lat="45.923232285467265" lon="11.136628574398662"><ele>721.8</ele><time>2026-04-06T14:39:36Z</time></trkpt><trkpt lat="45.923235402847176" lon="11.13675570388443"><ele>722.5999999999999</ele><time>2026-04-06T14:39:37Z</time></trkpt><trkpt lat="45.9231949967223" lon="11.136873562226697"><ele>723.4</ele><time>2026-04-06T14:39:38Z</time></trkpt><trkpt lat="45.923123949151496" lon="11.136956842357847"><ele>724.2</ele><time>2026-04-06T14:39:39Z</time></trkpt><trkpt lat="45.92302011985357" lon="11.136960636166338"><ele>725.0</ele><time>2026-04-06T14:39:40Z</time></trkpt><trkpt lat="45.92292080446041" lon="11.137009578897883"><ele>725.0</ele><time>2026-04-06T14:39:41Z</time></trkpt><trkpt lat="45.92281493765322" lon="11.137035475749746"><ele>725.0</ele><time>2026-04-06T14:39:42Z</time></trkpt><trkpt lat="45.92272859500046" lon="11.137073592171893"><ele>725.0</ele><time>2026-04-06T14:39:43Z</time></trkpt><trkpt lat="45.92265192492911" lon="11.137110092511316"><ele>725.0</ele><time>2026-04-06T14:39:44Z</time></trkpt><trkpt lat="45.922572426048504" lon="11.137142456137566"><ele>725.0</ele><time>2026-04-06T14:39:45Z</time></trkpt><trkpt lat="45.92247404850845" lon="11.137173750579429"><ele>722.75</ele><time>2026-04-06T14:39:46Z</time></trkpt><trkpt lat="45.922363207860464" lon="11.137197996384629"><ele>720.5</ele><time>2026-04-06T14:39:47Z</time></trkpt><trkpt lat="45.9222540572287" lon="11.137253775177888"><ele>718.25</ele><time>2026-04-06T14:39:48Z</time></trkpt><trkpt lat="45.92213596721194" lon="11.137312285563427"><ele>716.0</ele><time>2026-04-06T14:39:49Z</time></trkpt><trkpt lat="45.922023593624715" lon="11.137397898859968"><ele>718.5</ele><time>2026-04-06T14:39:50Z</time></trkpt><trkpt lat="45.9219203533837" lon="11.13752702494374"><ele>721.0</ele><time>2026-04-06T14:39:51Z</time></trkpt><trkpt lat="45.921829260551355" lon="11.137692055161978"><ele>723.5</ele><time>2026-04-06T14:39:52Z</time></trkpt><trkpt lat="45.92172973989169" lon="11.137857844018383"><ele>726.0</ele><time>2026-04-06T14:39:53Z</time></trkpt><trkpt lat="45.9216283843568" lon="11.138035923638105"><ele>731.3333333333334</ele><time>2026-04-06T14:39:54Z</time></trkpt><trkpt lat="45.921523985046484" lon="11.13821935089383"><ele>736.6666666666667</ele><time>2026-04-06T14:39:55Z</time></trkpt><trkpt lat="45.92141454311684" lon="11.138408862505653"><ele>742.0</ele><time>2026-04-06T14:39:56Z</time></trkpt><trkpt lat="45.921304771430215" lon="11.138598352058182"><ele>742.0</ele><time>2026-04-06T14:39:57Z</time></trkpt><trkpt lat="45.921190492877216" lon="11.138801417843736"><ele>742.0</ele><time>2026-04-06T14:39:58Z</time></trkpt><trkpt lat="45.92109767195876" lon="11.139030376392371"><ele>742.0</ele><time>2026-04-06T14:39:59Z</time></trkpt><trkpt lat="45.92099194283932" lon="11.13924429409517"><ele>741.0</ele><time>2026-04-06T14:40:00Z</time></trkpt><trkpt lat="45.92089318079312" lon="11.139466466484055"><ele>740.0</ele><time>2026-04-06T14:40:01Z</time></trkpt><trkpt lat="45.920790829613495" lon="11.139681843221299"><ele>739.0</ele><time>2026-04-06T14:40:02Z</time></trkpt><trkpt lat="45.92067510094466" lon="11.139876810150977"><ele>744.6666666666667</ele><time>2026-04-06T14:40:03Z</time></trkpt><trkpt lat="45.920553899065666" lon="11.140059013647164"><ele>750.3333333333334</ele><time>2026-04-06T14:40:04Z</time></trkpt><trkpt lat="45.92043075365577" lon="11.14022519286277"><ele>756.0</ele><time>2026-04-06T14:40:05Z</time></trkpt><trkpt lat="45.92031496528945" lon="11.14039010360275"><ele>756.0</ele><time>2026-04-06T14:40:06Z</time></trkpt><trkpt lat="45.92020409927011" lon="11.140561291669709"><ele>756.0</ele><time>2026-04-06T14:40:07Z</time></trkpt><trkpt lat="45.92010943344166" lon="11.14072581400734"><ele>756.0</ele><time>2026-04-06T14:40:08Z</time></trkpt><trkpt lat="45.920034638547" lon="11.140900747660224"><ele>756.25</ele><time>2026-04-06T14:40:09Z</time></trkpt><trkpt lat="45.91998707369884" lon="11.141087302827122"><ele>756.5</ele><time>2026-04-06T14:40:10Z</time></trkpt><trkpt lat="45.91995672928504" lon="11.141276891173781"><ele>756.75</ele><time>2026-04-06T14:40:11Z</time></trkpt><trkpt lat="45.919927109548034" lon="11.141440234993238"><ele>757.0</ele><time>2026-04-06T14:40:12Z</time></trkpt><trkpt lat="45.919875184990175" lon="11.141589329007909"><ele>761.75</ele><time>2026-04-06T14:40:13Z</time></trkpt><trkpt lat="45.91977430923744" lon="11.141700592462012"><ele>766.5</ele><time>2026-04-06T14:40:14Z</time></trkpt><trkpt lat="45.91966633893464" lon="11.141791108980087"><ele>771.25</ele><time>2026-04-06T14:40:15Z</time></trkpt><trkpt lat="45.91955645064514" lon="11.141897100282117"><ele>776.0</ele><time>2026-04-06T14:40:16Z</time></trkpt><trkpt lat="45.91943509711883" lon="11.141975760818662"><ele>776.0</ele><time>2026-04-06T14:40:17Z</time></trkpt><trkpt lat="45.91932691754853" lon="11.142075999836859"><ele>776.0</ele><time>2026-04-06T14:40:18Z</time></trkpt><trkpt lat="45.91922848414655" lon="11.142207217426288"><ele>776.0</ele><time>2026-04-06T14:40:19Z</time></trkpt><trkpt lat="45.91914443892024" lon="11.142349845224254"><ele>776.0</ele><time>2026-04-06T14:40:20Z</time></trkpt><trkpt lat="45.919073018085335" lon="11.142508706272588"><ele>776.0</ele><time>2026-04-06T14:40:21Z</time></trkpt><trkpt lat="45.91900211201865" lon="11.142664776419261"><ele>776.0</ele><time>2026-04-06T14:40:22Z</time></trkpt><trkpt lat="45.91892398460713" lon="11.142807691494681"><ele>776.0</ele><time>2026-04-06T14:40:23Z</time></trkpt><trkpt lat="45.91884069507316" lon="11.142935560197792"><ele>776.0</ele><time>2026-04-06T14:40:24Z</time></trkpt><trkpt lat="45.918736109107904" lon="11.14301795840968"><ele>776.0</ele><time>2026-04-06T14:40:25Z</time></trkpt><trkpt lat="45.918641657980885" lon="11.143123857400187"><ele>776.0</ele><time>2026-04-06T14:40:26Z</time></trkpt><trkpt lat="45.91854423411773" lon="11.14320361657985"><ele>776.0</ele><time>2026-04-06T14:40:27Z</time></trkpt><trkpt lat="45.918465082175125" lon="11.143278191136266"><ele>776.0</ele><time>2026-04-06T14:40:28Z</time></trkpt><trkpt lat="45.918397088308595" lon="11.143352377854699"><ele>776.0</ele><time>2026-04-06T14:40:29Z</time></trkpt><trkpt lat="45.91833981492112" lon="11.143424121041798"><ele>776.6666666666667</ele><time>2026-04-06T14:40:30Z</time></trkpt><trkpt lat="45.91831280891956" lon="11.14351084226684"><ele>777.3333333333334</ele><time>2026-04-06T14:40:31Z</time></trkpt><trkpt lat="45.918320241137316" lon="11.143618700546112"><ele>778.0</ele><time>2026-04-06T14:40:32Z</time></trkpt><trkpt lat="45.91836139039587" lon="11.143727147383027"><ele>778.6666666666667</ele><time>2026-04-06T14:40:33Z</time></trkpt><trkpt lat="45.9184211309238" lon="11.143799702210455"><ele>779.3333333333334</ele><time>2026-04-06T14:40:34Z</time></trkpt><trkpt lat="45.91849494824484" lon="11.14382550400652"><ele>780.0</ele><time>2026-04-06T14:40:35Z</time></trkpt><trkpt lat="45.9185715454566" lon="11.143773548140944"><ele>784.5</ele><time>2026-04-06T14:40:36Z</time></trkpt><trkpt lat="45.918644280474005" lon="11.143680070905438"><ele>789.0</ele><time>2026-04-06T14:40:37Z</time></trkpt><trkpt lat="45.91871496043236" lon="11.143551082275705"><ele>793.5</ele><time>2026-04-06T14:40:38Z</time></trkpt><trkpt lat="45.9188117884806" lon="11.14342558297308"><ele>798.0</ele><time>2026-04-06T14:40:39Z</time></trkpt><trkpt lat="45.91893067376032" lon="11.14336320963214"><ele>798.0</ele><time>2026-04-06T14:40:40Z</time></trkpt><trkpt lat="45.91904870087734" lon="11.14328816700362"><ele>798.0</ele><time>2026-04-06T14:40:41Z</time></trkpt><trkpt lat="45.919169815891664" lon="11.143203172606498"><ele>798.0</ele><time>2026-04-06T14:40:42Z</time></trkpt><trkpt lat="45.91929220154519" lon="11.14309881402148"><ele>798.0</ele><time>2026-04-06T14:40:43Z</time></trkpt><trkpt lat="45.91943170652045" lon="11.143011296812297"><ele>796.0</ele><time>2026-04-06T14:40:44Z</time></trkpt><trkpt lat="45.91957041780351" lon="11.14298091994681"><ele>794.0</ele><time>2026-04-06T14:40:45Z</time></trkpt><trkpt lat="45.91971615702836" lon="11.142936817702903"><ele>792.0</ele><time>2026-04-06T14:40:46Z</time></trkpt><trkpt lat="45.91986528697863" lon="11.14287093834473"><ele>790.0</ele><time>2026-04-06T14:40:47Z</time></trkpt><trkpt lat="45.92002414512303" lon="11.142850441419368"><ele>795.3333333333333</ele><time>2026-04-06T14:40:48Z</time></trkpt><trkpt lat="45.92018568041033" lon="11.142807347921309"><ele>800.6666666666667</ele><time>2026-04-06T14:40:49Z</time></trkpt><trkpt lat="45.920344326702406" lon="11.142755146357189"><ele>806.0</ele><time>2026-04-06T14:40:50Z</time></trkpt><trkpt lat="45.920492941182" lon="11.142666605769657"><ele>806.0</ele><time>2026-04-06T14:40:51Z</time></trkpt><trkpt lat="45.920639407704094" lon="11.14258310803141"><ele>806.0</ele><time>2026-04-06T14:40:52Z</time></trkpt><trkpt lat="45.92077034739152" lon="11.142515970148374"><ele>806.0</ele><time>2026-04-06T14:40:53Z</time></trkpt><trkpt lat="45.920872888915234" lon="11.142451865561773"><ele>806.0</ele><time>2026-04-06T14:40:54Z</time></trkpt><trkpt lat="45.920947220682436" lon="11.142383272506743"><ele>806.1666666666667</ele><time>2026-04-06T14:40:55Z</time></trkpt><trkpt lat="45.921017523968835" lon="11.142352402699997"><ele>806.3333333333334</ele><time>2026-04-06T14:40:56Z</time></trkpt><trkpt lat="45.92108275547741" lon="11.142331033580566"><ele>806.5</ele><time>2026-04-06T14:40:57Z</time></trkpt><trkpt lat="45.92117895871099" lon="11.142442917890051"><ele>806.6666666666667</ele><time>2026-04-06T14:40:59Z</time></trkpt><trkpt lat="45.9211851407742" lon="11.1425537157064"><ele>806.8333333333334</ele><time>2026-04-06T14:41:00Z</time></trkpt><trkpt lat="45.92116333261628" lon="11.142646094520885"><ele>807.0</ele><time>2026-04-06T14:41:01Z</time></trkpt><trkpt lat="45.92110096765236" lon="11.142713199467886"><ele>806.8</ele><time>2026-04-06T14:41:02Z</time></trkpt><trkpt lat="45.92100451131026" lon="11.142718102591278"><ele>806.6</ele><time>2026-04-06T14:41:03Z</time></trkpt><trkpt lat="45.92090532342113" lon="11.142763969907294"><ele>806.4</ele><time>2026-04-06T14:41:04Z</time></trkpt><trkpt lat="45.92079677462345" lon="11.142798305727478"><ele>806.1999999999999</ele><time>2026-04-06T14:41:05Z</time></trkpt><trkpt lat="45.92068564351064" lon="11.142839646940754"><ele>806.0</ele><time>2026-04-06T14:41:06Z</time></trkpt><trkpt lat="45.920583752271675" lon="11.142905594842443"><ele>806.0</ele><time>2026-04-06T14:41:07Z</time></trkpt><trkpt lat="45.9204831216668" lon="11.143010967220208"><ele>806.0</ele><time>2026-04-06T14:41:08Z</time></trkpt><trkpt lat="45.92038181549282" lon="11.143133529986486"><ele>806.0</ele><time>2026-04-06T14:41:09Z</time></trkpt><trkpt lat="45.92027375269238" lon="11.143265379303179"><ele>806.0</ele><time>2026-04-06T14:41:10Z</time></trkpt><trkpt lat="45.92015835051086" lon="11.143387937719602"><ele>807.5</ele><time>2026-04-06T14:41:11Z</time></trkpt><trkpt lat="45.92004075503884" lon="11.143512612756295"><ele>809.0</ele><time>2026-04-06T14:41:12Z</time></trkpt><trkpt lat="45.919928760177235" lon="11.143640842255206"><ele>810.5</ele><time>2026-04-06T14:41:13Z</time></trkpt><trkpt lat="45.919821041927314" lon="11.143770317587112"><ele>812.0</ele><time>2026-04-06T14:41:14Z</time></trkpt><trkpt lat="45.919732964902586" lon="11.14392582049274"><ele>819.3333333333334</ele><time>2026-04-06T14:41:15Z</time></trkpt><trkpt lat="45.919675032227445" lon="11.144128940065933"><ele>826.6666666666667</ele><time>2026-04-06T14:41:16Z</time></trkpt><trkpt lat="45.91961351113774" lon="11.144327497308922"><ele>834.0</ele><time>2026-04-06T14:41:17Z</time></trkpt><trkpt lat="45.919547597920385" lon="11.144517382977062"><ele>834.0</ele><time>2026-04-06T14:41:18Z</time></trkpt><trkpt lat="45.919481443650966" lon="11.144687291102342"><ele>834.0</ele><time>2026-04-06T14:41:19Z</time></trkpt><trkpt lat="45.91940294562776" lon="11.144824817283872"><ele>834.0</ele><time>2026-04-06T14:41:20Z</time></trkpt><trkpt lat="45.91931826660023" lon="11.144924202903832"><ele>834.0</ele><time>2026-04-06T14:41:21Z</time></trkpt><trkpt lat="45.919237162993895" lon="11.145003572700722"><ele>832.8000000000001</ele><time>2026-04-06T14:41:22Z</time></trkpt><trkpt lat="45.91917513265567" lon="11.14507667069303"><ele>831.6</ele><time>2026-04-06T14:41:23Z</time></trkpt><trkpt lat="45.91912659055073" lon="11.145145705753434"><ele>830.4</ele><time>2026-04-06T14:41:24Z</time></trkpt><trkpt lat="45.91903417676909" lon="11.145300591882345"><ele>829.2</ele><time>2026-04-06T14:41:26Z</time></trkpt><trkpt lat="45.918985771604525" lon="11.145425673725207"><ele>828.0</ele><time>2026-04-06T14:41:27Z</time></trkpt><trkpt lat="45.918953171301204" lon="11.145582137009544"><ele>831.75</ele><time>2026-04-06T14:41:28Z</time></trkpt><trkpt lat="45.91892484692547" lon="11.145754680261431"><ele>835.5</ele><time>2026-04-06T14:41:29Z</time></trkpt><trkpt lat="45.918884241279365" lon="11.14591740066407"><ele>839.25</ele><time>2026-04-06T14:41:30Z</time></trkpt><trkpt lat="45.91881853135442" lon="11.146053399389272"><ele>843.0</ele><time>2026-04-06T14:41:31Z</time></trkpt><trkpt lat="45.91871834976813" lon="11.146144111220824"><ele>843.0</ele><time>2026-04-06T14:41:32Z</time></trkpt><trkpt lat="45.91859183093027" lon="11.146155146286619"><ele>843.0</ele><time>2026-04-06T14:41:33Z</time></trkpt><trkpt lat="45.91846280643384" lon="11.146187030639059"><ele>843.0</ele><time>2026-04-06T14:41:34Z</time></trkpt><trkpt lat="45.91833920379314" lon="11.146200566666012"><ele>843.0</ele><time>2026-04-06T14:41:35Z</time></trkpt><trkpt lat="45.91825018361089" lon="11.146305154315908"><ele>846.25</ele><time>2026-04-06T14:41:36Z</time></trkpt><trkpt lat="45.91815869284964" lon="11.14644653423774"><ele>849.5</ele><time>2026-04-06T14:41:37Z</time></trkpt><trkpt lat="45.9180587733263" lon="11.146616642613603"><ele>852.75</ele><time>2026-04-06T14:41:38Z</time></trkpt><trkpt lat="45.91795447586883" lon="11.146785689104764"><ele>856.0</ele><time>2026-04-06T14:41:39Z</time></trkpt><trkpt lat="45.91786862112611" lon="11.146922402173935"><ele>856.0</ele><time>2026-04-06T14:41:40Z</time></trkpt><trkpt lat="45.917765914301086" lon="11.147066838936539"><ele>856.0</ele><time>2026-04-06T14:41:41Z</time></trkpt><trkpt lat="45.917636980158115" lon="11.147199897968012"><ele>856.0</ele><time>2026-04-06T14:41:42Z</time></trkpt><trkpt lat="45.91749204086436" lon="11.147294953624218"><ele>852.6666666666666</ele><time>2026-04-06T14:41:43Z</time></trkpt><trkpt lat="45.91733972862976" lon="11.147371232146538"><ele>849.3333333333333</ele><time>2026-04-06T14:41:44Z</time></trkpt><trkpt lat="45.91718778836285" lon="11.147449211769635"><ele>846.0</ele><time>2026-04-06T14:41:45Z</time></trkpt><trkpt lat="45.91703352610552" lon="11.147539492938167"><ele>854.0</ele><time>2026-04-06T14:41:46Z</time></trkpt><trkpt lat="45.916880279189336" lon="11.147634587099223"><ele>862.0</ele><time>2026-04-06T14:41:47Z</time></trkpt><trkpt lat="45.91672229957064" lon="11.147727165757592"><ele>870.0</ele><time>2026-04-06T14:41:48Z</time></trkpt><trkpt lat="45.91656677361702" lon="11.14782365146793"><ele>870.0</ele><time>2026-04-06T14:41:49Z</time></trkpt><trkpt lat="45.91640738979403" lon="11.147912867297153"><ele>870.0</ele><time>2026-04-06T14:41:50Z</time></trkpt><trkpt lat="45.91624676535467" lon="11.148004025865287"><ele>870.0</ele><time>2026-04-06T14:41:51Z</time></trkpt><trkpt lat="45.916086472845436" lon="11.148099653780331"><ele>870.0</ele><time>2026-04-06T14:41:52Z</time></trkpt><trkpt lat="45.91592189569217" lon="11.148185534034859"><ele>870.0</ele><time>2026-04-06T14:41:53Z</time></trkpt><trkpt lat="45.91575600477861" lon="11.1482549039933"><ele>870.0</ele><time>2026-04-06T14:41:54Z</time></trkpt><trkpt lat="45.91558631606065" lon="11.14826007413588"><ele>877.3333333333333</ele><time>2026-04-06T14:41:55Z</time></trkpt><trkpt lat="45.915425574047404" lon="11.14828307561426"><ele>884.6666666666666</ele><time>2026-04-06T14:41:56Z</time></trkpt><trkpt lat="45.91527488304327" lon="11.148319130661122"><ele>892.0</ele><time>2026-04-06T14:41:57Z</time></trkpt><trkpt lat="45.915140430455175" lon="11.148264637638464"><ele>886.75</ele><time>2026-04-06T14:41:58Z</time></trkpt><trkpt lat="45.9150071290069" lon="11.148185043386288"><ele>881.5</ele><time>2026-04-06T14:41:59Z</time></trkpt><trkpt lat="45.914883099715325" lon="11.148096689255562"><ele>876.25</ele><time>2026-04-06T14:42:00Z</time></trkpt><trkpt lat="45.91477583757508" lon="11.148043525266493"><ele>871.0</ele><time>2026-04-06T14:42:01Z</time></trkpt><trkpt lat="45.91468148583613" lon="11.14800619884259"><ele>871.0</ele><time>2026-04-06T14:42:02Z</time></trkpt><trkpt lat="45.91459176962086" lon="11.147984755817243"><ele>870.9999999999999</ele><time>2026-04-06T14:42:03Z</time></trkpt><trkpt lat="45.91450594733539" lon="11.14806245333221"><ele>870.9999999999999</ele><time>2026-04-06T14:42:04Z</time></trkpt><trkpt lat="45.91443744993902" lon="11.1481517826871"><ele>871.0</ele><time>2026-04-06T14:42:05Z</time></trkpt><trkpt lat="45.914400810637" lon="11.148278430677014"><ele>871.0</ele><time>2026-04-06T14:42:06Z</time></trkpt><trkpt lat="45.9144097507845" lon="11.148412988837354"><ele>875.75</ele><time>2026-04-06T14:42:07Z</time></trkpt><trkpt lat="45.91445115536407" lon="11.14853459225155"><ele>880.5</ele><time>2026-04-06T14:42:08Z</time></trkpt><trkpt lat="45.9145387656766" lon="11.148624879666007"><ele>885.25</ele><time>2026-04-06T14:42:09Z</time></trkpt><trkpt lat="45.914649361895805" lon="11.148701207007415"><ele>890.0</ele><time>2026-04-06T14:42:10Z</time></trkpt><trkpt lat="45.91479350986025" lon="11.148678432601724"><ele>890.0</ele><time>2026-04-06T14:42:11Z</time></trkpt><trkpt lat="45.91492772060687" lon="11.148699474668142"><ele>890.0</ele><time>2026-04-06T14:42:12Z</time></trkpt><trkpt lat="45.91507026731424" lon="11.148700242251653"><ele>890.0</ele><time>2026-04-06T14:42:13Z</time></trkpt><trkpt lat="45.91521674061999" lon="11.148701030980481"><ele>890.0</ele><time>2026-04-06T14:42:14Z</time></trkpt><trkpt lat="45.915369538113026" lon="11.148701853763304"><ele>890.6666666666667</ele><time>2026-04-06T14:42:15Z</time></trkpt><trkpt lat="45.91552327558404" lon="11.148702681608782"><ele>891.3333333333333</ele><time>2026-04-06T14:42:16Z</time></trkpt><trkpt lat="45.91567913843811" lon="11.148704360400403"><ele>892.0</ele><time>2026-04-06T14:42:17Z</time></trkpt><trkpt lat="45.915838870562474" lon="11.148707134250788"><ele>895.0</ele><time>2026-04-06T14:42:18Z</time></trkpt><trkpt lat="45.915997198110205" lon="11.148709744148283"><ele>898.0</ele><time>2026-04-06T14:42:19Z</time></trkpt><trkpt lat="45.916147318663086" lon="11.14871209863226"><ele>901.0</ele><time>2026-04-06T14:42:20Z</time></trkpt><trkpt lat="45.9162932277349" lon="11.14871318225826"><ele>901.0</ele><time>2026-04-06T14:42:21Z</time></trkpt><trkpt lat="45.916429884009524" lon="11.14870596776484"><ele>901.0</ele><time>2026-04-06T14:42:22Z</time></trkpt><trkpt lat="45.9165535087059" lon="11.148649599872394"><ele>901.0</ele><time>2026-04-06T14:42:23Z</time></trkpt><trkpt lat="45.91667304241904" lon="11.148603981924015"><ele>901.0</ele><time>2026-04-06T14:42:24Z</time></trkpt><trkpt lat="45.91678821141292" lon="11.148545480387938"><ele>903.0</ele><time>2026-04-06T14:42:25Z</time></trkpt><trkpt lat="45.916905328733016" lon="11.148531680803615"><ele>905.0</ele><time>2026-04-06T14:42:26Z</time></trkpt><trkpt lat="45.91701534242808" lon="11.14853740922102"><ele>907.0</ele><time>2026-04-06T14:42:27Z</time></trkpt><trkpt lat="45.917135529409336" lon="11.148570169769169"><ele>909.0</ele><time>2026-04-06T14:42:28Z</time></trkpt><trkpt lat="45.91726004705567" lon="11.148602478408352"><ele>909.0</ele><time>2026-04-06T14:42:29Z</time></trkpt><trkpt lat="45.91738320085009" lon="11.14861974796902"><ele>909.0</ele><time>2026-04-06T14:42:30Z</time></trkpt><trkpt lat="45.917499879488794" lon="11.148654443957014"><ele>909.0</ele><time>2026-04-06T14:42:31Z</time></trkpt><trkpt lat="45.91761446748765" lon="11.148681100053341"><ele>909.0</ele><time>2026-04-06T14:42:32Z</time></trkpt><trkpt lat="45.91772802795503" lon="11.148712444058683"><ele>912.25</ele><time>2026-04-06T14:42:33Z</time></trkpt><trkpt lat="45.917843231736065" lon="11.1486530630311"><ele>915.5</ele><time>2026-04-06T14:42:34Z</time></trkpt><trkpt lat="45.91795847561565" lon="11.14858534739582"><ele>918.75</ele><time>2026-04-06T14:42:35Z</time></trkpt><trkpt lat="45.91807819485502" lon="11.14852862551927"><ele>922.0</ele><time>2026-04-06T14:42:36Z</time></trkpt><trkpt lat="45.918187697993474" lon="11.148458887879771"><ele>922.0</ele><time>2026-04-06T14:42:37Z</time></trkpt><trkpt lat="45.91828562233683" lon="11.148400112398718"><ele>922.0</ele><time>2026-04-06T14:42:38Z</time></trkpt><trkpt lat="45.918368264884364" lon="11.148350003792945"><ele>922.0</ele><time>2026-04-06T14:42:39Z</time></trkpt><trkpt lat="45.91844189228536" lon="11.148302054561535"><ele>922.0</ele><time>2026-04-06T14:42:40Z</time></trkpt><trkpt lat="45.91856449628881" lon="11.148279517211881"><ele>922.0</ele><time>2026-04-06T14:42:42Z</time></trkpt><trkpt lat="45.91861415406863" lon="11.148341927630934"><ele>921.9999999999999</ele><time>2026-04-06T14:42:43Z</time></trkpt><trkpt lat="45.918633137266276" lon="11.148433324535608"><ele>922.0</ele><time>2026-04-06T14:42:44Z</time></trkpt><trkpt lat="45.918612973344715" lon="11.148526440846922"><ele>922.0</ele><time>2026-04-06T14:42:45Z</time></trkpt><trkpt lat="45.91856150115267" lon="11.148600012205662"><ele>922.0</ele><time>2026-04-06T14:42:46Z</time></trkpt><trkpt lat="45.91848620641221" lon="11.148645411962594"><ele>921.9999999999999</ele><time>2026-04-06T14:42:47Z</time></trkpt><trkpt lat="45.91839902741158" lon="11.148681459277336"><ele>922.0</ele><time>2026-04-06T14:42:48Z</time></trkpt><trkpt lat="45.91830331126005" lon="11.148722225241224"><ele>922.0</ele><time>2026-04-06T14:42:49Z</time></trkpt><trkpt lat="45.91821266728396" lon="11.148784102785534"><ele>922.0</ele><time>2026-04-06T14:42:50Z</time></trkpt><trkpt lat="45.91813238699051" lon="11.14886881159359"><ele>922.0</ele><time>2026-04-06T14:42:51Z</time></trkpt><trkpt lat="45.91805317166649" lon="11.148955974503066"><ele>922.0</ele><time>2026-04-06T14:42:52Z</time></trkpt><trkpt lat="45.917975566603076" lon="11.149067198218422"><ele>922.0</ele><time>2026-04-06T14:42:53Z</time></trkpt><trkpt lat="45.91790268023549" lon="11.149186070074022"><ele>925.0</ele><time>2026-04-06T14:42:54Z</time></trkpt><trkpt lat="45.91781944836653" lon="11.149302496304681"><ele>928.0</ele><time>2026-04-06T14:42:55Z</time></trkpt><trkpt lat="45.91773292398385" lon="11.14939478353705"><ele>931.0</ele><time>2026-04-06T14:42:56Z</time></trkpt><trkpt lat="45.917636294489625" lon="11.149476593925788"><ele>934.0</ele><time>2026-04-06T14:42:57Z</time></trkpt><trkpt lat="45.91753394429444" lon="11.149554755992224"><ele>934.0</ele><time>2026-04-06T14:42:58Z</time></trkpt><trkpt lat="45.91743194139389" lon="11.149638370873385"><ele>934.0</ele><time>2026-04-06T14:42:59Z</time></trkpt><trkpt lat="45.917328160322135" lon="11.149715438398442"><ele>934.0</ele><time>2026-04-06T14:43:00Z</time></trkpt><trkpt lat="45.917221591900585" lon="11.149783528586624"><ele>934.0</ele><time>2026-04-06T14:43:01Z</time></trkpt><trkpt lat="45.91710638622261" lon="11.149838854676785"><ele>937.75</ele><time>2026-04-06T14:43:02Z</time></trkpt><trkpt lat="45.91698878125976" lon="11.149886843664296"><ele>941.5</ele><time>2026-04-06T14:43:03Z</time></trkpt><trkpt lat="45.9168747462899" lon="11.14993037228244"><ele>945.25</ele><time>2026-04-06T14:43:04Z</time></trkpt><trkpt lat="45.91676316120359" lon="11.14997835385395"><ele>949.0</ele><time>2026-04-06T14:43:05Z</time></trkpt><trkpt lat="45.91665112392166" lon="11.150029467231725"><ele>949.0</ele><time>2026-04-06T14:43:06Z</time></trkpt><trkpt lat="45.916535184747886" lon="11.150078445766454"><ele>949.0</ele><time>2026-04-06T14:43:07Z</time></trkpt><trkpt lat="45.91641411034203" lon="11.150131920115681"><ele>949.0</ele><time>2026-04-06T14:43:08Z</time></trkpt><trkpt lat="45.91628002476613" lon="11.150179191059713"><ele>949.0</ele><time>2026-04-06T14:43:09Z</time></trkpt><trkpt lat="45.91614311059309" lon="11.15025737956225"><ele>949.0</ele><time>2026-04-06T14:43:10Z</time></trkpt><trkpt lat="45.91600674177718" lon="11.150352675819425"><ele>949.0</ele><time>2026-04-06T14:43:11Z</time></trkpt><trkpt lat="45.91586834783491" lon="11.150456250361119"><ele>949.0</ele><time>2026-04-06T14:43:12Z</time></trkpt><trkpt lat="45.91573382173351" lon="11.150582495606635"><ele>946.0</ele><time>2026-04-06T14:43:13Z</time></trkpt><trkpt lat="45.915592170753996" lon="11.150681200307295"><ele>943.0</ele><time>2026-04-06T14:43:14Z</time></trkpt><trkpt lat="45.9154494845306" lon="11.150785124661619"><ele>940.0</ele><time>2026-04-06T14:43:15Z</time></trkpt><trkpt lat="45.9153037041785" lon="11.150890012808341"><ele>945.6666666666666</ele><time>2026-04-06T14:43:16Z</time></trkpt><trkpt lat="45.91515815768348" lon="11.15099845357935"><ele>951.3333333333333</ele><time>2026-04-06T14:43:17Z</time></trkpt><trkpt lat="45.915015529878566" lon="11.15110483120686"><ele>957.0</ele><time>2026-04-06T14:43:18Z</time></trkpt><trkpt lat="45.91487444150303" lon="11.151212793229181"><ele>957.0</ele><time>2026-04-06T14:43:19Z</time></trkpt><trkpt lat="45.91473582407404" lon="11.1513286766222"><ele>957.0</ele><time>2026-04-06T14:43:20Z</time></trkpt><trkpt lat="45.91460374453096" lon="11.15144974982188"><ele>957.0</ele><time>2026-04-06T14:43:21Z</time></trkpt><trkpt lat="45.91447612559967" lon="11.151587345113706"><ele>961.0</ele><time>2026-04-06T14:43:22Z</time></trkpt><trkpt lat="45.91435058677696" lon="11.151737304146213"><ele>965.0</ele><time>2026-04-06T14:43:23Z</time></trkpt><trkpt lat="45.91423141613417" lon="11.151897148799684"><ele>969.0</ele><time>2026-04-06T14:43:24Z</time></trkpt><trkpt lat="45.91411549766564" lon="11.152061766197372"><ele>969.0</ele><time>2026-04-06T14:43:25Z</time></trkpt><trkpt lat="45.913998737248214" lon="11.152223342859248"><ele>969.0</ele><time>2026-04-06T14:43:26Z</time></trkpt><trkpt lat="45.913878422755964" lon="11.152380585764298"><ele>969.0</ele><time>2026-04-06T14:43:27Z</time></trkpt><trkpt lat="45.913778589647904" lon="11.152557778623846"><ele>972.6666666666667</ele><time>2026-04-06T14:43:28Z</time></trkpt><trkpt lat="45.9136913246065" lon="11.152752395027418"><ele>976.3333333333334</ele><time>2026-04-06T14:43:29Z</time></trkpt><trkpt lat="45.913611910750305" lon="11.15295304993882"><ele>980.0</ele><time>2026-04-06T14:43:30Z</time></trkpt><trkpt lat="45.91352799260011" lon="11.15314884928525"><ele>981.3333333333334</ele><time>2026-04-06T14:43:31Z</time></trkpt><trkpt lat="45.913434543660074" lon="11.153335582430392"><ele>982.6666666666667</ele><time>2026-04-06T14:43:32Z</time></trkpt><trkpt lat="45.91331402756985" lon="11.153481201240588"><ele>984.0</ele><time>2026-04-06T14:43:33Z</time></trkpt><trkpt lat="45.91318057577252" lon="11.153592332826262"><ele>984.0</ele><time>2026-04-06T14:43:34Z</time></trkpt><trkpt lat="45.91304970643805" lon="11.153704659071261"><ele>984.0</ele><time>2026-04-06T14:43:35Z</time></trkpt><trkpt lat="45.9129366979073" lon="11.15385426597072"><ele>984.0</ele><time>2026-04-06T14:43:36Z</time></trkpt><trkpt lat="45.91284434653868" lon="11.154032963521157"><ele>987.6666666666667</ele><time>2026-04-06T14:43:37Z</time></trkpt><trkpt lat="45.91277327557784" lon="11.154230325043178"><ele>991.3333333333334</ele><time>2026-04-06T14:43:38Z</time></trkpt><trkpt lat="45.91272085476702" lon="11.154441704466988"><ele>995.0</ele><time>2026-04-06T14:43:39Z</time></trkpt><trkpt lat="45.91268497746906" lon="11.154660759733645"><ele>997.3333333333334</ele><time>2026-04-06T14:43:40Z</time></trkpt><trkpt lat="45.912664112143396" lon="11.154885018509823"><ele>999.6666666666667</ele><time>2026-04-06T14:43:41Z</time></trkpt><trkpt lat="45.912655981691294" lon="11.155110792970099"><ele>1002.0</ele><time>2026-04-06T14:43:42Z</time></trkpt><trkpt lat="45.9126642364093" lon="11.155336525325998"><ele>1002.0</ele><time>2026-04-06T14:43:43Z</time></trkpt><trkpt lat="45.91269466425298" lon="11.155554876175438"><ele>1002.0</ele><time>2026-04-06T14:43:44Z</time></trkpt><trkpt lat="45.91273558513512" lon="11.155765028962678"><ele>1002.0</ele><time>2026-04-06T14:43:45Z</time></trkpt><trkpt lat="45.91278540929443" lon="11.155963475750882"><ele>1004.5</ele><time>2026-04-06T14:43:46Z</time></trkpt><trkpt lat="45.91283179197312" lon="11.156159076044927"><ele>1007.0</ele><time>2026-04-06T14:43:47Z</time></trkpt><trkpt lat="45.912857838461804" lon="11.156360633826191"><ele>1009.5</ele><time>2026-04-06T14:43:48Z</time></trkpt><trkpt lat="45.91284905840504" lon="11.156570423255035"><ele>1012.0</ele><time>2026-04-06T14:43:49Z</time></trkpt><trkpt lat="45.91285961526755" lon="11.156786721324494"><ele>1013.75</ele><time>2026-04-06T14:43:50Z</time></trkpt><trkpt lat="45.91285296824051" lon="11.157002130121539"><ele>1015.5</ele><time>2026-04-06T14:43:51Z</time></trkpt><trkpt lat="45.91284985685253" lon="11.157218406026425"><ele>1017.25</ele><time>2026-04-06T14:43:52Z</time></trkpt><trkpt lat="45.912838843835964" lon="11.157429640214362"><ele>1019.0</ele><time>2026-04-06T14:43:53Z</time></trkpt><trkpt lat="45.9128146485616" lon="11.15763855225675"><ele>1019.75</ele><time>2026-04-06T14:43:54Z</time></trkpt><trkpt lat="45.91277560896633" lon="11.157843170668887"><ele>1020.5</ele><time>2026-04-06T14:43:55Z</time></trkpt><trkpt lat="45.91273067420755" lon="11.158046061755485"><ele>1021.25</ele><time>2026-04-06T14:43:56Z</time></trkpt><trkpt lat="45.91268094565937" lon="11.158251256432901"><ele>1022.0</ele><time>2026-04-06T14:43:57Z</time></trkpt><trkpt lat="45.912626670838165" lon="11.158450148324846"><ele>1022.3333333333334</ele><time>2026-04-06T14:43:58Z</time></trkpt><trkpt lat="45.912581460209694" lon="11.158655653549376"><ele>1022.6666666666667</ele><time>2026-04-06T14:43:59Z</time></trkpt><trkpt lat="45.91255231966855" lon="11.158875884524843"><ele>1023.0</ele><time>2026-04-06T14:44:00Z</time></trkpt><trkpt lat="45.91253814635114" lon="11.159094448219927"><ele>1023.0</ele><time>2026-04-06T14:44:01Z</time></trkpt><trkpt lat="45.91253173724242" lon="11.159309886504618"><ele>1023.0</ele><time>2026-04-06T14:44:02Z</time></trkpt><trkpt lat="45.912537269470086" lon="11.15951478128486"><ele>1023.0</ele><time>2026-04-06T14:44:03Z</time></trkpt><trkpt lat="45.91255693615647" lon="11.159695616708722"><ele>1023.0</ele><time>2026-04-06T14:44:04Z</time></trkpt><trkpt lat="45.91260418463091" lon="11.159848009678116"><ele>1028.0</ele><time>2026-04-06T14:44:05Z</time></trkpt><trkpt lat="45.91266350478719" lon="11.159987456484465"><ele>1033.0</ele><time>2026-04-06T14:44:06Z</time></trkpt><trkpt lat="45.9127415087494" lon="11.160100418265804"><ele>1038.0</ele><time>2026-04-06T14:44:07Z</time></trkpt><trkpt lat="45.91283657667399" lon="11.160169310596496"><ele>1043.0</ele><time>2026-04-06T14:44:08Z</time></trkpt><trkpt lat="45.91295724293121" lon="11.160173330183243"><ele>1043.0</ele><time>2026-04-06T14:44:09Z</time></trkpt><trkpt lat="45.913082052259846" lon="11.160140786129727"><ele>1043.0</ele><time>2026-04-06T14:44:10Z</time></trkpt><trkpt lat="45.91319984029149" lon="11.16005365586165"><ele>1043.0</ele><time>2026-04-06T14:44:11Z</time></trkpt><trkpt lat="45.913304652080605" lon="11.159937717493163"><ele>1043.0</ele><time>2026-04-06T14:44:12Z</time></trkpt><trkpt lat="45.91339538331645" lon="11.15980162601064"><ele>1045.25</ele><time>2026-04-06T14:44:13Z</time></trkpt><trkpt lat="45.91347612062678" lon="11.159636389836816"><ele>1047.5</ele><time>2026-04-06T14:44:14Z</time></trkpt><trkpt lat="45.91357549480725" lon="11.159491810510517"><ele>1049.75</ele><time>2026-04-06T14:44:15Z</time></trkpt><trkpt lat="45.913673256492416" lon="11.159349814561828"><ele>1052.0</ele><time>2026-04-06T14:44:16Z</time></trkpt><trkpt lat="45.91379129297451" lon="11.159237037313979"><ele>1052.0</ele><time>2026-04-06T14:44:17Z</time></trkpt><trkpt lat="45.91391697961409" lon="11.159130797504535"><ele>1052.0</ele><time>2026-04-06T14:44:18Z</time></trkpt><trkpt lat="45.91403855656366" lon="11.159010842849419"><ele>1052.0</ele><time>2026-04-06T14:44:19Z</time></trkpt><trkpt lat="45.91416646792396" lon="11.158926935597883"><ele>1052.0</ele><time>2026-04-06T14:44:20Z</time></trkpt><trkpt lat="45.91430598651658" lon="11.158897930164738"><ele>1053.0</ele><time>2026-04-06T14:44:21Z</time></trkpt><trkpt lat="45.91444583211869" lon="11.158869489366719"><ele>1054.0</ele><time>2026-04-06T14:44:22Z</time></trkpt><trkpt lat="45.9145919353727" lon="11.158830852903675"><ele>1055.0</ele><time>2026-04-06T14:44:23Z</time></trkpt><trkpt lat="45.91474259890651" lon="11.158801849342183"><ele>1056.0</ele><time>2026-04-06T14:44:24Z</time></trkpt><trkpt lat="45.91488334574391" lon="11.15873883879768"><ele>1056.0</ele><time>2026-04-06T14:44:25Z</time></trkpt><trkpt lat="45.91502014175097" lon="11.15863461332341"><ele>1056.0</ele><time>2026-04-06T14:44:26Z</time></trkpt><trkpt lat="45.91514999208552" lon="11.158509941607292"><ele>1056.0</ele><time>2026-04-06T14:44:27Z</time></trkpt><trkpt lat="45.91527941199243" lon="11.158382423640138"><ele>1057.75</ele><time>2026-04-06T14:44:28Z</time></trkpt><trkpt lat="45.91542177031817" lon="11.158301425443186"><ele>1059.5</ele><time>2026-04-06T14:44:29Z</time></trkpt><trkpt lat="45.915550097892506" lon="11.158225260050475"><ele>1061.25</ele><time>2026-04-06T14:44:30Z</time></trkpt><trkpt lat="45.915659085512544" lon="11.158178376686635"><ele>1063.0</ele><time>2026-04-06T14:44:31Z</time></trkpt><trkpt lat="45.91574372285663" lon="11.158138507251863"><ele>1063.0</ele><time>2026-04-06T14:44:32Z</time></trkpt><trkpt lat="45.915835113765674" lon="11.158179628870512"><ele>1063.0</ele><time>2026-04-06T14:44:33Z</time></trkpt><trkpt lat="45.91591886658562" lon="11.158261594202695"><ele>1063.0</ele><time>2026-04-06T14:44:34Z</time></trkpt><trkpt lat="45.9159783263743" lon="11.158388996603493"><ele>1063.0</ele><time>2026-04-06T14:44:35Z</time></trkpt><trkpt lat="45.91601415589525" lon="11.158533281042404"><ele>1063.0</ele><time>2026-04-06T14:44:36Z</time></trkpt><trkpt lat="45.91601587952008" lon="11.158696094324048"><ele>1066.0</ele><time>2026-04-06T14:44:37Z</time></trkpt><trkpt lat="45.915974778715224" lon="11.158866321097246"><ele>1069.0</ele><time>2026-04-06T14:44:38Z</time></trkpt><trkpt lat="45.91590525945738" lon="11.15902783191099"><ele>1072.0</ele><time>2026-04-06T14:44:39Z</time></trkpt><trkpt lat="45.91582110086057" lon="11.15918171817229"><ele>1075.0</ele><time>2026-04-06T14:44:40Z</time></trkpt><trkpt lat="45.91572804594517" lon="11.159339365985211"><ele>1075.0</ele><time>2026-04-06T14:44:41Z</time></trkpt><trkpt lat="45.915633606088356" lon="11.159503106623266"><ele>1075.0</ele><time>2026-04-06T14:44:42Z</time></trkpt><trkpt lat="45.91553836906788" lon="11.159669651373566"><ele>1075.0</ele><time>2026-04-06T14:44:43Z</time></trkpt><trkpt lat="45.915450418714855" lon="11.159841833296412"><ele>1075.0</ele><time>2026-04-06T14:44:44Z</time></trkpt><trkpt lat="45.915360884982725" lon="11.160021684856996"><ele>1079.3333333333333</ele><time>2026-04-06T14:44:45Z</time></trkpt><trkpt lat="45.915276145105395" lon="11.160206061684448"><ele>1083.6666666666667</ele><time>2026-04-06T14:44:46Z</time></trkpt><trkpt lat="45.91519876455257" lon="11.16039733014927"><ele>1088.0</ele><time>2026-04-06T14:44:47Z</time></trkpt><trkpt lat="45.91513152812217" lon="11.160603366867257"><ele>1087.0</ele><time>2026-04-06T14:44:48Z</time></trkpt><trkpt lat="45.915063066341745" lon="11.160813054333765"><ele>1086.0</ele><time>2026-04-06T14:44:49Z</time></trkpt><trkpt lat="45.91500041195895" lon="11.161020613641977"><ele>1085.0</ele><time>2026-04-06T14:44:50Z</time></trkpt><trkpt lat="45.91494511271905" lon="11.161230754610486"><ele>1085.0</ele><time>2026-04-06T14:44:51Z</time></trkpt><trkpt lat="45.91489798419921" lon="11.161451704856427"><ele>1085.0</ele><time>2026-04-06T14:44:52Z</time></trkpt><trkpt lat="45.91485187654372" lon="11.161671157873236"><ele>1085.0</ele><time>2026-04-06T14:44:53Z</time></trkpt><trkpt lat="45.91480641648888" lon="11.161891433515207"><ele>1088.0</ele><time>2026-04-06T14:44:54Z</time></trkpt><trkpt lat="45.91475933915626" lon="11.162118468981756"><ele>1091.0</ele><time>2026-04-06T14:44:55Z</time></trkpt><trkpt lat="45.91471990462297" lon="11.162344060019269"><ele>1094.0</ele><time>2026-04-06T14:44:56Z</time></trkpt><trkpt lat="45.914695319782794" lon="11.16257779033015"><ele>1097.0</ele><time>2026-04-06T14:44:57Z</time></trkpt><trkpt lat="45.91468527801716" lon="11.162820002523455"><ele>1100.0</ele><time>2026-04-06T14:44:58Z</time></trkpt><trkpt lat="45.914682947368924" lon="11.163069533637989"><ele>1103.0</ele><time>2026-04-06T14:44:59Z</time></trkpt><trkpt lat="45.91467788855661" lon="11.163319890133064"><ele>1104.3333333333335</ele><time>2026-04-06T14:45:00Z</time></trkpt><trkpt lat="45.91467335812852" lon="11.163574172974377"><ele>1105.6666666666667</ele><time>2026-04-06T14:45:01Z</time></trkpt><trkpt lat="45.91466961518529" lon="11.163824759751753"><ele>1107.0</ele><time>2026-04-06T14:45:02Z</time></trkpt><trkpt lat="45.914667651253126" lon="11.164076695898448"><ele>1108.0</ele><time>2026-04-06T14:45:03Z</time></trkpt><trkpt lat="45.91466427746992" lon="11.164331007157443"><ele>1109.0</ele><time>2026-04-06T14:45:04Z</time></trkpt><trkpt lat="45.914660736753866" lon="11.164581915436312"><ele>1110.0</ele><time>2026-04-06T14:45:05Z</time></trkpt><trkpt lat="45.91465356392762" lon="11.164831070454419"><ele>1112.0</ele><time>2026-04-06T14:45:06Z</time></trkpt><trkpt lat="45.914637519887606" lon="11.165077188816598"><ele>1114.0</ele><time>2026-04-06T14:45:07Z</time></trkpt><trkpt lat="45.914611652849906" lon="11.165314878586354"><ele>1116.0</ele><time>2026-04-06T14:45:08Z</time></trkpt><trkpt lat="45.91457544172624" lon="11.165543867649543"><ele>1118.3333333333333</ele><time>2026-04-06T14:45:09Z</time></trkpt><trkpt lat="45.91453469610391" lon="11.165763677974292"><ele>1120.6666666666665</ele><time>2026-04-06T14:45:10Z</time></trkpt><trkpt lat="45.91449444937257" lon="11.165983837206799"><ele>1123.0</ele><time>2026-04-06T14:45:11Z</time></trkpt><trkpt lat="45.91445712770707" lon="11.166198897777015"><ele>1123.0</ele><time>2026-04-06T14:45:12Z</time></trkpt><trkpt lat="45.91442470012788" lon="11.166426783355382"><ele>1123.0</ele><time>2026-04-06T14:45:13Z</time></trkpt><trkpt lat="45.914387277007535" lon="11.166644190737758"><ele>1123.0</ele><time>2026-04-06T14:45:14Z</time></trkpt><trkpt lat="45.91435140911818" lon="11.166865416501564"><ele>1125.3333333333333</ele><time>2026-04-06T14:45:15Z</time></trkpt><trkpt lat="45.91431594765781" lon="11.167091039563674"><ele>1127.6666666666667</ele><time>2026-04-06T14:45:16Z</time></trkpt><trkpt lat="45.91428043389067" lon="11.16732192423887"><ele>1130.0</ele><time>2026-04-06T14:45:17Z</time></trkpt><trkpt lat="45.914244481012815" lon="11.167553108242224"><ele>1127.6666666666667</ele><time>2026-04-06T14:45:18Z</time></trkpt><trkpt lat="45.91420713172637" lon="11.167786673322235"><ele>1125.3333333333333</ele><time>2026-04-06T14:45:19Z</time></trkpt><trkpt lat="45.9141676868399" lon="11.168019249728166"><ele>1123.0</ele><time>2026-04-06T14:45:20Z</time></trkpt><trkpt lat="45.91412757997458" lon="11.168253233990855"><ele>1123.0</ele><time>2026-04-06T14:45:21Z</time></trkpt><trkpt lat="45.91408833181142" lon="11.168485742303758"><ele>1123.0</ele><time>2026-04-06T14:45:22Z</time></trkpt><trkpt lat="45.91405116901233" lon="11.168722892921938"><ele>1123.0</ele><time>2026-04-06T14:45:23Z</time></trkpt><trkpt lat="45.914014573224996" lon="11.168957859279162"><ele>1124.0</ele><time>2026-04-06T14:45:24Z</time></trkpt><trkpt lat="45.913979205366026" lon="11.169194285836582"><ele>1125.0</ele><time>2026-04-06T14:45:25Z</time></trkpt><trkpt lat="45.91393977789178" lon="11.169431716068623"><ele>1126.0</ele><time>2026-04-06T14:45:26Z</time></trkpt><trkpt lat="45.91389805350994" lon="11.169668479200087"><ele>1128.3333333333333</ele><time>2026-04-06T14:45:27Z</time></trkpt><trkpt lat="45.91385711798435" lon="11.169908401242184"><ele>1130.6666666666667</ele><time>2026-04-06T14:45:28Z</time></trkpt><trkpt lat="45.91381958733408" lon="11.170146722038167"><ele>1133.0</ele><time>2026-04-06T14:45:29Z</time></trkpt><trkpt lat="45.91378378394126" lon="11.170383909438137"><ele>1133.0</ele><time>2026-04-06T14:45:30Z</time></trkpt><trkpt lat="45.913746139966484" lon="11.17062173387971"><ele>1133.0</ele><time>2026-04-06T14:45:31Z</time></trkpt><trkpt lat="45.91370671006776" lon="11.170857896675797"><ele>1133.0</ele><time>2026-04-06T14:45:32Z</time></trkpt><trkpt lat="45.91366719612731" lon="11.171095386105284"><ele>1133.6666666666667</ele><time>2026-04-06T14:45:33Z</time></trkpt><trkpt lat="45.91362797697414" lon="11.171331971889671"><ele>1134.3333333333333</ele><time>2026-04-06T14:45:34Z</time></trkpt><trkpt lat="45.9135910156201" lon="11.171565761257606"><ele>1135.0</ele><time>2026-04-06T14:45:35Z</time></trkpt><trkpt lat="45.91355676424091" lon="11.17179906074882"><ele>1136.6666666666665</ele><time>2026-04-06T14:45:36Z</time></trkpt><trkpt lat="45.91352503855713" lon="11.17202808927031"><ele>1138.3333333333333</ele><time>2026-04-06T14:45:37Z</time></trkpt><trkpt lat="45.913500775464335" lon="11.172254654854088"><ele>1140.0</ele><time>2026-04-06T14:45:38Z</time></trkpt><trkpt lat="45.913485348668296" lon="11.17247959815441"><ele>1141.6666666666667</ele><time>2026-04-06T14:45:39Z</time></trkpt><trkpt lat="45.91347563684871" lon="11.172702206270332"><ele>1143.3333333333335</ele><time>2026-04-06T14:45:40Z</time></trkpt><trkpt lat="45.913466736308244" lon="11.172924592049661"><ele>1145.0</ele><time>2026-04-06T14:45:41Z</time></trkpt><trkpt lat="45.91345680443033" lon="11.1731470337801"><ele>1146.6666666666667</ele><time>2026-04-06T14:45:42Z</time></trkpt><trkpt lat="45.913445001823476" lon="11.17336705137681"><ele>1148.3333333333333</ele><time>2026-04-06T14:45:43Z</time></trkpt><trkpt lat="45.913434796245646" lon="11.173585702730538"><ele>1150.0</ele><time>2026-04-06T14:45:44Z</time></trkpt><trkpt lat="45.91342701053037" lon="11.173809330716322"><ele>1150.6666666666665</ele><time>2026-04-06T14:45:45Z</time></trkpt><trkpt lat="45.91341941567343" lon="11.174033468093516"><ele>1151.3333333333333</ele><time>2026-04-06T14:45:46Z</time></trkpt><trkpt lat="45.91341102280386" lon="11.174253273284828"><ele>1152.0</ele><time>2026-04-06T14:45:47Z</time></trkpt><trkpt lat="45.91340010671666" lon="11.174465329151731"><ele>1150.0</ele><time>2026-04-06T14:45:48Z</time></trkpt><trkpt lat="45.91339263022925" lon="11.174677412151533"><ele>1148.0</ele><time>2026-04-06T14:45:49Z</time></trkpt><trkpt lat="45.91338709683401" lon="11.17488593153707"><ele>1146.0</ele><time>2026-04-06T14:45:50Z</time></trkpt><trkpt lat="45.91337863984007" lon="11.175086092447547"><ele>1144.0</ele><time>2026-04-06T14:45:51Z</time></trkpt><trkpt lat="45.91336975799778" lon="11.175281623911031"><ele>1144.0</ele><time>2026-04-06T14:45:52Z</time></trkpt><trkpt lat="45.91335924625668" lon="11.175472215394015"><ele>1144.0</ele><time>2026-04-06T14:45:53Z</time></trkpt><trkpt lat="45.91331423059768" lon="11.175669930736921"><ele>1144.0</ele><time>2026-04-06T14:45:54Z</time></trkpt><trkpt lat="45.91327709550788" lon="11.175880770694867"><ele>1144.0</ele><time>2026-04-06T14:45:55Z</time></trkpt><trkpt lat="45.91323759585395" lon="11.176097195194108"><ele>1147.0</ele><time>2026-04-06T14:45:56Z</time></trkpt><trkpt lat="45.913208350138255" lon="11.17632209601264"><ele>1150.0</ele><time>2026-04-06T14:45:57Z</time></trkpt><trkpt lat="45.91316389236327" lon="11.176544555087391"><ele>1153.0</ele><time>2026-04-06T14:45:58Z</time></trkpt><trkpt lat="45.91312253211209" lon="11.176767795104254"><ele>1155.0</ele><time>2026-04-06T14:45:59Z</time></trkpt><trkpt lat="45.913081807369046" lon="11.17699458787085"><ele>1157.0</ele><time>2026-04-06T14:46:00Z</time></trkpt><trkpt lat="45.9130394637373" lon="11.177216919829839"><ele>1159.0</ele><time>2026-04-06T14:46:01Z</time></trkpt><trkpt lat="45.912999462362066" lon="11.177430605674097"><ele>1160.4</ele><time>2026-04-06T14:46:02Z</time></trkpt><trkpt lat="45.91296394093607" lon="11.177622230814807"><ele>1161.8000000000002</ele><time>2026-04-06T14:46:03Z</time></trkpt><trkpt lat="45.91293087932717" lon="11.177781800937547"><ele>1163.1999999999998</ele><time>2026-04-06T14:46:04Z</time></trkpt><trkpt lat="45.91288771198645" lon="11.177911471154962"><ele>1164.6</ele><time>2026-04-06T14:46:05Z</time></trkpt><trkpt lat="45.912827690544354" lon="11.178014837198672"><ele>1166.0</ele><time>2026-04-06T14:46:06Z</time></trkpt><trkpt lat="45.91276503572685" lon="11.178098879588068"><ele>1166.0</ele><time>2026-04-06T14:46:07Z</time></trkpt><trkpt lat="45.912700508497984" lon="11.178168455488656"><ele>1166.0</ele><time>2026-04-06T14:46:08Z</time></trkpt><trkpt lat="45.91263219848947" lon="11.178244825142185"><ele>1166.0</ele><time>2026-04-06T14:46:09Z</time></trkpt><trkpt lat="45.91258527680156" lon="11.17832395044774"><ele>1166.0</ele><time>2026-04-06T14:46:10Z</time></trkpt><trkpt lat="45.91256881239322" lon="11.178424994356071"><ele>1166.0</ele><time>2026-04-06T14:46:11Z</time></trkpt><trkpt lat="45.91259376163707" lon="11.178527252661874"><ele>1166.0</ele><time>2026-04-06T14:46:12Z</time></trkpt><trkpt lat="45.91264596931932" lon="11.178607776416719"><ele>1166.5</ele><time>2026-04-06T14:46:13Z</time></trkpt><trkpt lat="45.91271575835768" lon="11.178668564878071"><ele>1167.0</ele><time>2026-04-06T14:46:14Z</time></trkpt><trkpt lat="45.912770038945325" lon="11.178744762724278"><ele>1167.5</ele><time>2026-04-06T14:46:15Z</time></trkpt><trkpt lat="45.912774713534425" lon="11.178863001514294"><ele>1168.0</ele><time>2026-04-06T14:46:16Z</time></trkpt><trkpt lat="45.91274464254344" lon="11.178989522003732"><ele>1168.5</ele><time>2026-04-06T14:46:17Z</time></trkpt><trkpt lat="45.91269524014115" lon="11.179118943685136"><ele>1169.0</ele><time>2026-04-06T14:46:18Z</time></trkpt><trkpt lat="45.91266224988685" lon="11.179264461653089"><ele>1169.75</ele><time>2026-04-06T14:46:19Z</time></trkpt><trkpt lat="45.912638412413045" lon="11.179433140852572"><ele>1170.5</ele><time>2026-04-06T14:46:20Z</time></trkpt><trkpt lat="45.912624723609454" lon="11.179606048968528"><ele>1171.25</ele><time>2026-04-06T14:46:21Z</time></trkpt><trkpt lat="45.91261989810601" lon="11.179788744920446"><ele>1172.0</ele><time>2026-04-06T14:46:22Z</time></trkpt><trkpt lat="45.91262190594427" lon="11.179973407636007"><ele>1173.25</ele><time>2026-04-06T14:46:23Z</time></trkpt><trkpt lat="45.912636679632975" lon="11.180162696816764"><ele>1174.5</ele><time>2026-04-06T14:46:24Z</time></trkpt><trkpt lat="45.91267427131827" lon="11.180353567614802"><ele>1175.75</ele><time>2026-04-06T14:46:25Z</time></trkpt><trkpt lat="45.912713491630555" lon="11.180542364021694"><ele>1177.0</ele><time>2026-04-06T14:46:26Z</time></trkpt><trkpt lat="45.91276674746012" lon="11.180725276810154"><ele>1178.5</ele><time>2026-04-06T14:46:27Z</time></trkpt><trkpt lat="45.91283382778251" lon="11.180902344186157"><ele>1180.0</ele><time>2026-04-06T14:46:28Z</time></trkpt><trkpt lat="45.91290847651117" lon="11.18107488898486"><ele>1181.5</ele><time>2026-04-06T14:46:29Z</time></trkpt><trkpt lat="45.91298880632879" lon="11.181242577030591"><ele>1183.0</ele><time>2026-04-06T14:46:30Z</time></trkpt><trkpt lat="45.913071700739685" lon="11.181410427079305"><ele>1184.5</ele><time>2026-04-06T14:46:31Z</time></trkpt><trkpt lat="45.91315738299033" lon="11.181578607351295"><ele>1186.0</ele><time>2026-04-06T14:46:32Z</time></trkpt><trkpt lat="45.91324400389289" lon="11.181744352648263"><ele>1187.5</ele><time>2026-04-06T14:46:33Z</time></trkpt><trkpt lat="45.913327357987406" lon="11.181907417369473"><ele>1189.0</ele><time>2026-04-06T14:46:34Z</time></trkpt><trkpt lat="45.91341053635819" lon="11.18207142293341"><ele>1190.25</ele><time>2026-04-06T14:46:35Z</time></trkpt><trkpt lat="45.9134907924471" lon="11.182233455930813"><ele>1191.5</ele><time>2026-04-06T14:46:36Z</time></trkpt><trkpt lat="45.913569423559444" lon="11.182394865737797"><ele>1192.75</ele><time>2026-04-06T14:46:37Z</time></trkpt><trkpt lat="45.913640818387286" lon="11.18254871009655"><ele>1194.0</ele><time>2026-04-06T14:46:38Z</time></trkpt><trkpt lat="45.91370852276813" lon="11.182698767659824"><ele>1194.8</ele><time>2026-04-06T14:46:39Z</time></trkpt><trkpt lat="45.9137701030787" lon="11.182846973567354"><ele>1195.6000000000001</ele><time>2026-04-06T14:46:40Z</time></trkpt><trkpt lat="45.91382700847501" lon="11.182994456159522"><ele>1196.4</ele><time>2026-04-06T14:46:41Z</time></trkpt><trkpt lat="45.91387977577214" lon="11.18313315553676"><ele>1197.2</ele><time>2026-04-06T14:46:42Z</time></trkpt><trkpt lat="45.91392668548306" lon="11.183256605764852"><ele>1198.0</ele><time>2026-04-06T14:46:43Z</time></trkpt><trkpt lat="45.91396943593171" lon="11.183364958951325"><ele>1198.6666666666665</ele><time>2026-04-06T14:46:44Z</time></trkpt><trkpt lat="45.91400660028784" lon="11.183466143007905"><ele>1199.3333333333333</ele><time>2026-04-06T14:46:45Z</time></trkpt><trkpt lat="45.91404177797635" lon="11.18356296048249"><ele>1200.0</ele><time>2026-04-06T14:46:46Z</time></trkpt><trkpt lat="45.9140715787086" lon="11.183645768978714"><ele>1200.6666666666667</ele><time>2026-04-06T14:46:47Z</time></trkpt><trkpt lat="45.91412396767034" lon="11.183810985408245"><ele>1201.3333333333335</ele><time>2026-04-06T14:46:49Z</time></trkpt><trkpt lat="45.91414254402058" lon="11.183900555235564"><ele>1202.0</ele><time>2026-04-06T14:46:50Z</time></trkpt><trkpt lat="45.91415842474867" lon="11.183990304858565"><ele>1202.0</ele><time>2026-04-06T14:46:51Z</time></trkpt><trkpt lat="45.914221085888066" lon="11.184141506370683"><ele>1202.0</ele><time>2026-04-06T14:46:53Z</time></trkpt><trkpt lat="45.91427091380613" lon="11.184199952378345"><ele>1202.0</ele><time>2026-04-06T14:46:54Z</time></trkpt><trkpt lat="45.91432850816261" lon="11.184262277595085"><ele>1202.0</ele><time>2026-04-06T14:46:55Z</time></trkpt><trkpt lat="45.91438609394489" lon="11.184340288422765"><ele>1202.0</ele><time>2026-04-06T14:46:56Z</time></trkpt><trkpt lat="45.91443863590417" lon="11.184440882936629"><ele>1202.0</ele><time>2026-04-06T14:46:57Z</time></trkpt><trkpt lat="45.914488550870786" lon="11.184555253047616"><ele>1205.5</ele><time>2026-04-06T14:46:58Z</time></trkpt><trkpt lat="45.9145493120024" lon="11.184679747429671"><ele>1209.0</ele><time>2026-04-06T14:46:59Z</time></trkpt><trkpt lat="45.914620130030606" lon="11.184799127249743"><ele>1212.5</ele><time>2026-04-06T14:47:00Z</time></trkpt><trkpt lat="45.914702821027355" lon="11.184920255704743"><ele>1216.0</ele><time>2026-04-06T14:47:01Z</time></trkpt><trkpt lat="45.91479655758691" lon="11.185041409058387"><ele>1216.0</ele><time>2026-04-06T14:47:02Z</time></trkpt><trkpt lat="45.9148969983424" lon="11.18515393518992"><ele>1216.0</ele><time>2026-04-06T14:47:03Z</time></trkpt><trkpt lat="45.91500035544328" lon="11.185259047091405"><ele>1216.0</ele><time>2026-04-06T14:47:04Z</time></trkpt><trkpt lat="45.915107286616816" lon="11.185361656578431"><ele>1216.0</ele><time>2026-04-06T14:47:05Z</time></trkpt><trkpt lat="45.915219178993915" lon="11.185469514843914"><ele>1218.5</ele><time>2026-04-06T14:47:06Z</time></trkpt><trkpt lat="45.91533589834439" lon="11.18557891781783"><ele>1221.0</ele><time>2026-04-06T14:47:07Z</time></trkpt><trkpt lat="45.91544965155787" lon="11.185691679252775"><ele>1223.5</ele><time>2026-04-06T14:47:08Z</time></trkpt><trkpt lat="45.915563290139275" lon="11.185806151428551"><ele>1226.0</ele><time>2026-04-06T14:47:09Z</time></trkpt><trkpt lat="45.915669943407394" lon="11.185917516297032"><ele>1226.25</ele><time>2026-04-06T14:47:10Z</time></trkpt><trkpt lat="45.91577420317639" lon="11.186023203166638"><ele>1226.5</ele><time>2026-04-06T14:47:11Z</time></trkpt><trkpt lat="45.91588300966585" lon="11.186111985529726"><ele>1226.75</ele><time>2026-04-06T14:47:12Z</time></trkpt><trkpt lat="45.91599331353029" lon="11.18618312031202"><ele>1227.0</ele><time>2026-04-06T14:47:13Z</time></trkpt><trkpt lat="45.91610299487647" lon="11.186237728727594"><ele>1228.75</ele><time>2026-04-06T14:47:14Z</time></trkpt><trkpt lat="45.916212913212746" lon="11.186278821749648"><ele>1230.5</ele><time>2026-04-06T14:47:15Z</time></trkpt><trkpt lat="45.9163239760763" lon="11.186301528709583"><ele>1232.25</ele><time>2026-04-06T14:47:16Z</time></trkpt><trkpt lat="45.91644724869461" lon="11.186335993628639"><ele>1234.0</ele><time>2026-04-06T14:47:17Z</time></trkpt><trkpt lat="45.916581943995986" lon="11.186334540440306"><ele>1234.0</ele><time>2026-04-06T14:47:18Z</time></trkpt><trkpt lat="45.91671765477306" lon="11.186304602224025"><ele>1234.0</ele><time>2026-04-06T14:47:19Z</time></trkpt><trkpt lat="45.916842216505" lon="11.186324811544285"><ele>1234.0</ele><time>2026-04-06T14:47:20Z</time></trkpt><trkpt lat="45.91696048368432" lon="11.1862993349354"><ele>1234.0</ele><time>2026-04-06T14:47:21Z</time></trkpt><trkpt lat="45.91707436193121" lon="11.186299476871707"><ele>1235.6000000000001</ele><time>2026-04-06T14:47:22Z</time></trkpt><trkpt lat="45.91718257821697" lon="11.186299617817305"><ele>1237.2</ele><time>2026-04-06T14:47:23Z</time></trkpt><trkpt lat="45.917282376655585" lon="11.186298869093246"><ele>1238.8000000000002</ele><time>2026-04-06T14:47:24Z</time></trkpt><trkpt lat="45.91737630380351" lon="11.186297497972655"><ele>1240.4</ele><time>2026-04-06T14:47:25Z</time></trkpt><trkpt lat="45.91747512130734" lon="11.186293281365613"><ele>1242.0</ele><time>2026-04-06T14:47:26Z</time></trkpt><trkpt lat="45.91758554930307" lon="11.186314146123145"><ele>1242.25</ele><time>2026-04-06T14:47:27Z</time></trkpt><trkpt lat="45.917713405494084" lon="11.186311702643332"><ele>1242.5</ele><time>2026-04-06T14:47:28Z</time></trkpt><trkpt lat="45.91784569020545" lon="11.186307521674022"><ele>1242.75</ele><time>2026-04-06T14:47:29Z</time></trkpt><trkpt lat="45.91798104412828" lon="11.186303243700628"><ele>1243.0</ele><time>2026-04-06T14:47:30Z</time></trkpt><trkpt lat="45.918122899153246" lon="11.186298760255452"><ele>1243.0</ele><time>2026-04-06T14:47:31Z</time></trkpt><trkpt lat="45.918265789884586" lon="11.186294591470272"><ele>1243.0</ele><time>2026-04-06T14:47:32Z</time></trkpt><trkpt lat="45.91840717627797" lon="11.186290594469805"><ele>1243.0</ele><time>2026-04-06T14:47:33Z</time></trkpt><trkpt lat="45.91855022754071" lon="11.186263007540116"><ele>1243.0</ele><time>2026-04-06T14:47:34Z</time></trkpt><trkpt lat="45.91869502607865" lon="11.186268585771304"><ele>1244.25</ele><time>2026-04-06T14:47:35Z</time></trkpt><trkpt lat="45.918837038088405" lon="11.18627346647842"><ele>1245.5</ele><time>2026-04-06T14:47:36Z</time></trkpt><trkpt lat="45.91897586586864" lon="11.186288798036149"><ele>1246.75</ele><time>2026-04-06T14:47:37Z</time></trkpt><trkpt lat="45.9191161448038" lon="11.186329715272242"><ele>1248.0</ele><time>2026-04-06T14:47:38Z</time></trkpt><trkpt lat="45.919254621880256" lon="11.186394326365889"><ele>1248.75</ele><time>2026-04-06T14:47:39Z</time></trkpt><trkpt lat="45.91938748647167" lon="11.186487406213079"><ele>1249.5</ele><time>2026-04-06T14:47:40Z</time></trkpt><trkpt lat="45.91950303443349" lon="11.186625192230682"><ele>1250.25</ele><time>2026-04-06T14:47:41Z</time></trkpt><trkpt lat="45.91963041886256" lon="11.18673301148737"><ele>1251.0</ele><time>2026-04-06T14:47:42Z</time></trkpt><trkpt lat="45.91974146967188" lon="11.186860150481934"><ele>1251.0</ele><time>2026-04-06T14:47:43Z</time></trkpt><trkpt lat="45.91984971347207" lon="11.186983178923484"><ele>1251.0</ele><time>2026-04-06T14:47:44Z</time></trkpt><trkpt lat="45.919944167408566" lon="11.187121464617077"><ele>1251.0</ele><time>2026-04-06T14:47:45Z</time></trkpt><trkpt lat="45.92002159488726" lon="11.18728096826086"><ele>1251.0</ele><time>2026-04-06T14:47:46Z</time></trkpt><trkpt lat="45.92008287801823" lon="11.187457414773219"><ele>1252.25</ele><time>2026-04-06T14:47:47Z</time></trkpt><trkpt lat="45.920127991986604" lon="11.187648625566448"><ele>1253.5</ele><time>2026-04-06T14:47:48Z</time></trkpt><trkpt lat="45.92015992887113" lon="11.187847095387333"><ele>1254.75</ele><time>2026-04-06T14:47:49Z</time></trkpt><trkpt lat="45.92018788771728" lon="11.188050152442353"><ele>1256.0</ele><time>2026-04-06T14:47:50Z</time></trkpt><trkpt lat="45.920212991189366" lon="11.188254228705832"><ele>1256.0</ele><time>2026-04-06T14:47:51Z</time></trkpt><trkpt lat="45.9202366710197" lon="11.188456351090867"><ele>1256.0</ele><time>2026-04-06T14:47:52Z</time></trkpt><trkpt lat="45.92026921197349" lon="11.188653669184449"><ele>1256.0</ele><time>2026-04-06T14:47:53Z</time></trkpt><trkpt lat="45.92031824648211" lon="11.188840859899862"><ele>1256.0</ele><time>2026-04-06T14:47:54Z</time></trkpt><trkpt lat="45.920368650364615" lon="11.189037239705057"><ele>1256.0</ele><time>2026-04-06T14:47:55Z</time></trkpt><trkpt lat="45.9204386777035" lon="11.18922193474933"><ele>1256.0</ele><time>2026-04-06T14:47:56Z</time></trkpt><trkpt lat="45.92049671846228" lon="11.18941542868425"><ele>1256.0</ele><time>2026-04-06T14:47:57Z</time></trkpt><trkpt lat="45.92057562020968" lon="11.189602295516732"><ele>1256.0</ele><time>2026-04-06T14:47:58Z</time></trkpt><trkpt lat="45.920654934671546" lon="11.189788585916936"><ele>1256.3333333333335</ele><time>2026-04-06T14:47:59Z</time></trkpt><trkpt lat="45.92073057065197" lon="11.18998040533857"><ele>1256.6666666666667</ele><time>2026-04-06T14:48:00Z</time></trkpt><trkpt lat="45.92080431156233" lon="11.190177737899843"><ele>1257.0</ele><time>2026-04-06T14:48:01Z</time></trkpt><trkpt lat="45.9208801011111" lon="11.190371509459444"><ele>1260.3333333333333</ele><time>2026-04-06T14:48:02Z</time></trkpt><trkpt lat="45.92094189768876" lon="11.190568054333703"><ele>1263.6666666666665</ele><time>2026-04-06T14:48:03Z</time></trkpt><trkpt lat="45.92100671557402" lon="11.190762972132541"><ele>1267.0</ele><time>2026-04-06T14:48:04Z</time></trkpt><trkpt lat="45.921074867234644" lon="11.190956446701954"><ele>1267.75</ele><time>2026-04-06T14:48:05Z</time></trkpt><trkpt lat="45.921133939056254" lon="11.191156022084614"><ele>1268.5</ele><time>2026-04-06T14:48:06Z</time></trkpt><trkpt lat="45.921165552716865" lon="11.191365810517933"><ele>1269.25</ele><time>2026-04-06T14:48:07Z</time></trkpt><trkpt lat="45.92113107387086" lon="11.191574105452096"><ele>1270.0</ele><time>2026-04-06T14:48:08Z</time></trkpt><trkpt lat="45.92108463488134" lon="11.191771415644707"><ele>1272.3333333333333</ele><time>2026-04-06T14:48:09Z</time></trkpt><trkpt lat="45.921026401149284" lon="11.191976731808042"><ele>1274.6666666666667</ele><time>2026-04-06T14:48:10Z</time></trkpt><trkpt lat="45.92096642062451" lon="11.192178252458953"><ele>1277.0</ele><time>2026-04-06T14:48:11Z</time></trkpt><trkpt lat="45.92091394205613" lon="11.19239306736738"><ele>1273.3333333333335</ele><time>2026-04-06T14:48:12Z</time></trkpt><trkpt lat="45.920846076401766" lon="11.192596933229753"><ele>1269.6666666666667</ele><time>2026-04-06T14:48:13Z</time></trkpt><trkpt lat="45.92077663687869" lon="11.192796660127033"><ele>1266.0</ele><time>2026-04-06T14:48:14Z</time></trkpt><trkpt lat="45.920707338046554" lon="11.192999204846604"><ele>1270.3333333333333</ele><time>2026-04-06T14:48:15Z</time></trkpt><trkpt lat="45.920637808767836" lon="11.193198374673367"><ele>1274.6666666666665</ele><time>2026-04-06T14:48:16Z</time></trkpt><trkpt lat="45.92056267406483" lon="11.19339024614144"><ele>1279.0</ele><time>2026-04-06T14:48:17Z</time></trkpt><trkpt lat="45.920466269123494" lon="11.193566051731803"><ele>1279.0</ele><time>2026-04-06T14:48:18Z</time></trkpt><trkpt lat="45.92037437824739" lon="11.193748668360648"><ele>1279.0</ele><time>2026-04-06T14:48:19Z</time></trkpt><trkpt lat="45.92027989563379" lon="11.193932369555501"><ele>1279.0</ele><time>2026-04-06T14:48:20Z</time></trkpt><trkpt lat="45.92018295646296" lon="11.194117973011291"><ele>1277.0</ele><time>2026-04-06T14:48:21Z</time></trkpt><trkpt lat="45.920080605070254" lon="11.19430997093108"><ele>1275.0</ele><time>2026-04-06T14:48:22Z</time></trkpt><trkpt lat="45.919978156277175" lon="11.194500749308759"><ele>1273.0</ele><time>2026-04-06T14:48:23Z</time></trkpt><trkpt lat="45.91988442294913" lon="11.194693051904876"><ele>1276.25</ele><time>2026-04-06T14:48:24Z</time></trkpt><trkpt lat="45.91978579212325" lon="11.194868603427597"><ele>1279.5</ele><time>2026-04-06T14:48:25Z</time></trkpt><trkpt lat="45.919699595560104" lon="11.195041103575626"><ele>1282.75</ele><time>2026-04-06T14:48:26Z</time></trkpt><trkpt lat="45.919633557959735" lon="11.195224784447472"><ele>1286.0</ele><time>2026-04-06T14:48:27Z</time></trkpt><trkpt lat="45.919582757338176" lon="11.195409225258265"><ele>1286.0</ele><time>2026-04-06T14:48:28Z</time></trkpt><trkpt lat="45.91953370419839" lon="11.195589389089104"><ele>1286.0</ele><time>2026-04-06T14:48:29Z</time></trkpt><trkpt lat="45.91948809175738" lon="11.195770098226534"><ele>1286.0</ele><time>2026-04-06T14:48:30Z</time></trkpt><trkpt lat="45.9194403550172" lon="11.19594099114521"><ele>1286.0</ele><time>2026-04-06T14:48:31Z</time></trkpt><trkpt lat="45.919394941076575" lon="11.1961040670923"><ele>1286.0</ele><time>2026-04-06T14:48:32Z</time></trkpt><trkpt lat="45.91935113288281" lon="11.196273675703821"><ele>1286.0</ele><time>2026-04-06T14:48:33Z</time></trkpt><trkpt lat="45.91930882727713" lon="11.19644289975923"><ele>1286.0</ele><time>2026-04-06T14:48:34Z</time></trkpt><trkpt lat="45.919273238057706" lon="11.196613468963747"><ele>1286.0</ele><time>2026-04-06T14:48:35Z</time></trkpt><trkpt lat="45.91922729142332" lon="11.196794510593458"><ele>1286.0</ele><time>2026-04-06T14:48:36Z</time></trkpt><trkpt lat="45.919218169511346" lon="11.196966793340442"><ele>1286.0</ele><time>2026-04-06T14:48:37Z</time></trkpt><trkpt lat="45.91918836323527" lon="11.197144034036963"><ele>1286.0</ele><time>2026-04-06T14:48:38Z</time></trkpt><trkpt lat="45.91915922443722" lon="11.197330976277275"><ele>1286.0</ele><time>2026-04-06T14:48:39Z</time></trkpt><trkpt lat="45.91912915972316" lon="11.197532460737529"><ele>1290.3333333333335</ele><time>2026-04-06T14:48:40Z</time></trkpt><trkpt lat="45.91908041437887" lon="11.19774407415633"><ele>1294.6666666666667</ele><time>2026-04-06T14:48:41Z</time></trkpt><trkpt lat="45.91904327291962" lon="11.19796613043077"><ele>1299.0</ele><time>2026-04-06T14:48:42Z</time></trkpt><trkpt lat="45.9190029334624" lon="11.198194551417743"><ele>1303.6666666666667</ele><time>2026-04-06T14:48:43Z</time></trkpt><trkpt lat="45.91895919624567" lon="11.198426248804873"><ele>1308.3333333333335</ele><time>2026-04-06T14:48:44Z</time></trkpt><trkpt lat="45.91891348956165" lon="11.19866513998689"><ele>1313.0</ele><time>2026-04-06T14:48:45Z</time></trkpt><trkpt lat="45.918860735423074" lon="11.198905335084616"><ele>1316.3333333333335</ele><time>2026-04-06T14:48:46Z</time></trkpt><trkpt lat="45.91880241725984" lon="11.199144517085797"><ele>1319.6666666666667</ele><time>2026-04-06T14:48:47Z</time></trkpt><trkpt lat="45.91873815083738" lon="11.199384530425373"><ele>1323.0</ele><time>2026-04-06T14:48:48Z</time></trkpt><trkpt lat="45.91868566628743" lon="11.199629280522782"><ele>1326.6666666666667</ele><time>2026-04-06T14:48:49Z</time></trkpt><trkpt lat="45.918619243870076" lon="11.199861283963449"><ele>1330.3333333333335</ele><time>2026-04-06T14:48:50Z</time></trkpt><trkpt lat="45.91855229336755" lon="11.200086045164635"><ele>1334.0</ele><time>2026-04-06T14:48:51Z</time></trkpt><trkpt lat="45.91847624916366" lon="11.20029319679805"><ele>1332.0</ele><time>2026-04-06T14:48:52Z</time></trkpt><trkpt lat="45.918387429476255" lon="11.20048202296062"><ele>1330.0</ele><time>2026-04-06T14:48:53Z</time></trkpt><trkpt lat="45.91829510153537" lon="11.200661313485222"><ele>1328.0</ele><time>2026-04-06T14:48:54Z</time></trkpt><trkpt lat="45.91821050633599" lon="11.200842928325558"><ele>1328.0</ele><time>2026-04-06T14:48:55Z</time></trkpt><trkpt lat="45.91813347180873" lon="11.201027960053285"><ele>1328.0</ele><time>2026-04-06T14:48:56Z</time></trkpt><trkpt lat="45.91808353327891" lon="11.201216690497633"><ele>1328.0</ele><time>2026-04-06T14:48:57Z</time></trkpt><trkpt lat="45.91806608486724" lon="11.201407530156004"><ele>1328.0</ele><time>2026-04-06T14:48:58Z</time></trkpt><trkpt lat="45.918078282752035" lon="11.20160470961928"><ele>1330.75</ele><time>2026-04-06T14:48:59Z</time></trkpt><trkpt lat="45.91811759719817" lon="11.20180682731735"><ele>1333.5</ele><time>2026-04-06T14:49:00Z</time></trkpt><trkpt lat="45.91817448533138" lon="11.202002473116876"><ele>1336.25</ele><time>2026-04-06T14:49:01Z</time></trkpt><trkpt lat="45.918241173855854" lon="11.202205050330997"><ele>1339.0</ele><time>2026-04-06T14:49:02Z</time></trkpt><trkpt lat="45.91829836463488" lon="11.202410014715529"><ele>1340.0</ele><time>2026-04-06T14:49:03Z</time></trkpt><trkpt lat="45.91835714758354" lon="11.202621138515358"><ele>1341.0</ele><time>2026-04-06T14:49:04Z</time></trkpt><trkpt lat="45.918416951597976" lon="11.202834696375986"><ele>1342.0</ele><time>2026-04-06T14:49:05Z</time></trkpt><trkpt lat="45.91847849132655" lon="11.203047241143487"><ele>1351.0</ele><time>2026-04-06T14:49:06Z</time></trkpt><trkpt lat="45.91854799460196" lon="11.203261993430171"><ele>1360.0</ele><time>2026-04-06T14:49:07Z</time></trkpt><trkpt lat="45.918614284885436" lon="11.20347287863506"><ele>1369.0</ele><time>2026-04-06T14:49:08Z</time></trkpt><trkpt lat="45.918686024476294" lon="11.203686819586029"><ele>1369.0</ele><time>2026-04-06T14:49:09Z</time></trkpt><trkpt lat="45.918759620356425" lon="11.203900913480483"><ele>1369.0</ele><time>2026-04-06T14:49:10Z</time></trkpt><trkpt lat="45.91883230770084" lon="11.204120739852867"><ele>1369.0</ele><time>2026-04-06T14:49:11Z</time></trkpt><trkpt lat="45.918908541319155" lon="11.204341768393974"><ele>1366.3333333333333</ele><time>2026-04-06T14:49:12Z</time></trkpt><trkpt lat="45.91898673023055" lon="11.204561747825926"><ele>1363.6666666666667</ele><time>2026-04-06T14:49:13Z</time></trkpt><trkpt lat="45.919062923402" lon="11.204782095836991"><ele>1361.0</ele><time>2026-04-06T14:49:14Z</time></trkpt><trkpt lat="45.919126350233135" lon="11.205015484536439"><ele>1360.0</ele><time>2026-04-06T14:49:15Z</time></trkpt><trkpt lat="45.919202961234774" lon="11.205238644910239"><ele>1359.0</ele><time>2026-04-06T14:49:16Z</time></trkpt><trkpt lat="45.91929109741475" lon="11.205445812814588"><ele>1358.0</ele><time>2026-04-06T14:49:17Z</time></trkpt><trkpt lat="45.91936051249128" lon="11.205665332221095"><ele>1358.0</ele><time>2026-04-06T14:49:18Z</time></trkpt><trkpt lat="45.91943122193274" lon="11.205870759480906"><ele>1358.0</ele><time>2026-04-06T14:49:19Z</time></trkpt><trkpt lat="45.919499658032855" lon="11.206060352708269"><ele>1358.0</ele><time>2026-04-06T14:49:20Z</time></trkpt><trkpt lat="45.919570234842325" lon="11.20623452487315"><ele>1358.0</ele><time>2026-04-06T14:49:21Z</time></trkpt><trkpt lat="45.9196534247853" lon="11.20639937769703"><ele>1356.75</ele><time>2026-04-06T14:49:22Z</time></trkpt><trkpt lat="45.919746606030046" lon="11.206554206545702"><ele>1355.5</ele><time>2026-04-06T14:49:23Z</time></trkpt><trkpt lat="45.91985203701179" lon="11.206699822318066"><ele>1354.25</ele><time>2026-04-06T14:49:24Z</time></trkpt><trkpt lat="45.919970591119025" lon="11.206840474329672"><ele>1353.0</ele><time>2026-04-06T14:49:25Z</time></trkpt><trkpt lat="45.920099151909426" lon="11.206974257786685"><ele>1349.0</ele><time>2026-04-06T14:49:26Z</time></trkpt><trkpt lat="45.92023573661616" lon="11.207112286910533"><ele>1345.0</ele><time>2026-04-06T14:49:27Z</time></trkpt><trkpt lat="45.92037511285685" lon="11.207249667601605"><ele>1341.0</ele><time>2026-04-06T14:49:28Z</time></trkpt><trkpt lat="45.92050845989752" lon="11.207389455983066"><ele>1341.0</ele><time>2026-04-06T14:49:29Z</time></trkpt><trkpt lat="45.92063055040365" lon="11.20751945698199"><ele>1341.0</ele><time>2026-04-06T14:49:30Z</time></trkpt><trkpt lat="45.92073198189342" lon="11.20760914940293"><ele>1341.0</ele><time>2026-04-06T14:49:31Z</time></trkpt><trkpt lat="45.92083717863818" lon="11.20764672500691"><ele>1341.0</ele><time>2026-04-06T14:49:32Z</time></trkpt><trkpt lat="45.92097006022268" lon="11.207634834384292"><ele>1340.0</ele><time>2026-04-06T14:49:33Z</time></trkpt><trkpt lat="45.9211178904182" lon="11.207580796968779"><ele>1339.0</ele><time>2026-04-06T14:49:34Z</time></trkpt><trkpt lat="45.921258415282686" lon="11.20749019739388"><ele>1338.0</ele><time>2026-04-06T14:49:35Z</time></trkpt><trkpt lat="45.92140337072372" lon="11.207424101105335"><ele>1338.0</ele><time>2026-04-06T14:49:36Z</time></trkpt><trkpt lat="45.92154210623806" lon="11.207369285386845"><ele>1338.0</ele><time>2026-04-06T14:49:37Z</time></trkpt><trkpt lat="45.921688170156365" lon="11.207336486700058"><ele>1338.0</ele><time>2026-04-06T14:49:38Z</time></trkpt><trkpt lat="45.92183034336118" lon="11.207385391119047"><ele>1338.0</ele><time>2026-04-06T14:49:39Z</time></trkpt><trkpt lat="45.92196325393317" lon="11.20745864357199"><ele>1340.0</ele><time>2026-04-06T14:49:40Z</time></trkpt><trkpt lat="45.92207950964761" lon="11.207563581306703"><ele>1342.0</ele><time>2026-04-06T14:49:41Z</time></trkpt><trkpt lat="45.922188893194686" lon="11.207707320301306"><ele>1344.0</ele><time>2026-04-06T14:49:42Z</time></trkpt><trkpt lat="45.92229884976461" lon="11.207865441903294"><ele>1346.0</ele><time>2026-04-06T14:49:43Z</time></trkpt><trkpt lat="45.922397116012746" lon="11.20803684609842"><ele>1338.6666666666667</ele><time>2026-04-06T14:49:44Z</time></trkpt><trkpt lat="45.92248808912491" lon="11.208218764860277"><ele>1331.3333333333333</ele><time>2026-04-06T14:49:45Z</time></trkpt><trkpt lat="45.92258740462253" lon="11.208387604318238"><ele>1324.0</ele><time>2026-04-06T14:49:46Z</time></trkpt><trkpt lat="45.922681943868554" lon="11.20854090500776"><ele>1323.8000000000002</ele><time>2026-04-06T14:49:47Z</time></trkpt><trkpt lat="45.92276397533409" lon="11.208664782927471"><ele>1323.6000000000001</ele><time>2026-04-06T14:49:48Z</time></trkpt><trkpt lat="45.92284065845513" lon="11.208753060349286"><ele>1323.4</ele><time>2026-04-06T14:49:49Z</time></trkpt><trkpt lat="45.922925970407356" lon="11.208796280616134"><ele>1323.2</ele><time>2026-04-06T14:49:50Z</time></trkpt><trkpt lat="45.923027300721614" lon="11.208786659505654"><ele>1323.0</ele><time>2026-04-06T14:49:51Z</time></trkpt><trkpt lat="45.92312753065047" lon="11.208714876843077"><ele>1323.0</ele><time>2026-04-06T14:49:52Z</time></trkpt><trkpt lat="45.9232105806729" lon="11.208609637573494"><ele>1323.0</ele><time>2026-04-06T14:49:53Z</time></trkpt><trkpt lat="45.923264128394806" lon="11.208451299519295"><ele>1323.0</ele><time>2026-04-06T14:49:54Z</time></trkpt><trkpt lat="45.923303206268294" lon="11.20829630660827"><ele>1323.0</ele><time>2026-04-06T14:49:55Z</time></trkpt><trkpt lat="45.92334480353906" lon="11.208163859880871"><ele>1323.0</ele><time>2026-04-06T14:49:56Z</time></trkpt><trkpt lat="45.9233825806831" lon="11.208072928346075"><ele>1322.5</ele><time>2026-04-06T14:49:57Z</time></trkpt><trkpt lat="45.92345144106116" lon="11.208020819651107"><ele>1322.0</ele><time>2026-04-06T14:49:58Z</time></trkpt><trkpt lat="45.923533746872465" lon="11.20801672112805"><ele>1321.5</ele><time>2026-04-06T14:49:59Z</time></trkpt><trkpt lat="45.92360378350831" lon="11.208079493697403"><ele>1321.0</ele><time>2026-04-06T14:50:00Z</time></trkpt><trkpt lat="45.9236567162943" lon="11.20819263066015"><ele>1320.5</ele><time>2026-04-06T14:50:01Z</time></trkpt><trkpt lat="45.92369116083581" lon="11.208324045856184"><ele>1320.0</ele><time>2026-04-06T14:50:02Z</time></trkpt><trkpt lat="45.923732190148264" lon="11.20845169765736"><ele>1320.0</ele><time>2026-04-06T14:50:03Z</time></trkpt><trkpt lat="45.923805050668456" lon="11.208556418980699"><ele>1320.0</ele><time>2026-04-06T14:50:04Z</time></trkpt><trkpt lat="45.92389753498526" lon="11.208631270958314"><ele>1320.0</ele><time>2026-04-06T14:50:05Z</time></trkpt><trkpt lat="45.9240011847528" lon="11.208675290120766"><ele>1320.0</ele><time>2026-04-06T14:50:06Z</time></trkpt><trkpt lat="45.92412327780738" lon="11.20868385498693"><ele>1320.0</ele><time>2026-04-06T14:50:07Z</time></trkpt><trkpt lat="45.92424620880727" lon="11.208668388153301"><ele>1321.75</ele><time>2026-04-06T14:50:08Z</time></trkpt><trkpt lat="45.924382015184186" lon="11.208666662178693"><ele>1323.5</ele><time>2026-04-06T14:50:09Z</time></trkpt><trkpt lat="45.92451347767187" lon="11.208675466424692"><ele>1325.25</ele><time>2026-04-06T14:50:10Z</time></trkpt><trkpt lat="45.92462630359548" lon="11.208677890979503"><ele>1327.0</ele><time>2026-04-06T14:50:11Z</time></trkpt><trkpt lat="45.92471520476125" lon="11.20868780593996"><ele>1327.0</ele><time>2026-04-06T14:50:12Z</time></trkpt><trkpt lat="45.9247922930049" lon="11.208738584648119"><ele>1327.0</ele><time>2026-04-06T14:50:13Z</time></trkpt><trkpt lat="45.92484091220981" lon="11.208844188359262"><ele>1327.0</ele><time>2026-04-06T14:50:14Z</time></trkpt><trkpt lat="45.924842437542296" lon="11.208982039593945"><ele>1327.0</ele><time>2026-04-06T14:50:15Z</time></trkpt><trkpt lat="45.92479065545304" lon="11.209111039137186"><ele>1327.0</ele><time>2026-04-06T14:50:16Z</time></trkpt><trkpt lat="45.92472504452197" lon="11.209231234833991"><ele>1322.5</ele><time>2026-04-06T14:50:17Z</time></trkpt><trkpt lat="45.924562503847454" lon="11.209291177702282"><ele>1318.0</ele><time>2026-04-06T14:50:19Z</time></trkpt><trkpt lat="45.92444605813569" lon="11.209404228624484"><ele>1313.5</ele><time>2026-04-06T14:50:20Z</time></trkpt><trkpt lat="45.92435357835132" lon="11.209540413682529"><ele>1309.0</ele><time>2026-04-06T14:50:21Z</time></trkpt><trkpt lat="45.924270981533994" lon="11.209690233453918"><ele>1307.25</ele><time>2026-04-06T14:50:22Z</time></trkpt><trkpt lat="45.924224975237806" lon="11.2098803745004"><ele>1305.5</ele><time>2026-04-06T14:50:23Z</time></trkpt><trkpt lat="45.924210562782186" lon="11.210091337910004"><ele>1303.75</ele><time>2026-04-06T14:50:24Z</time></trkpt><trkpt lat="45.924215349240285" lon="11.210310771465446"><ele>1302.0</ele><time>2026-04-06T14:50:25Z</time></trkpt><trkpt lat="45.92423528280753" lon="11.210539774034961"><ele>1300.3333333333333</ele><time>2026-04-06T14:50:26Z</time></trkpt><trkpt lat="45.92425431854713" lon="11.210781044618482"><ele>1298.6666666666665</ele><time>2026-04-06T14:50:27Z</time></trkpt><trkpt lat="45.92426900524809" lon="11.211034896489892"><ele>1297.0</ele><time>2026-04-06T14:50:28Z</time></trkpt><trkpt lat="45.924281034143135" lon="11.2112904374865"><ele>1296.3333333333333</ele><time>2026-04-06T14:50:29Z</time></trkpt><trkpt lat="45.92428975655227" lon="11.211550550856511"><ele>1295.6666666666667</ele><time>2026-04-06T14:50:30Z</time></trkpt><trkpt lat="45.924299011387724" lon="11.211813901508432"><ele>1295.0</ele><time>2026-04-06T14:50:31Z</time></trkpt><trkpt lat="45.924309348532034" lon="11.212082376909182"><ele>1292.6666666666667</ele><time>2026-04-06T14:50:32Z</time></trkpt><trkpt lat="45.92431785200674" lon="11.21235537808149"><ele>1290.3333333333333</ele><time>2026-04-06T14:50:33Z</time></trkpt><trkpt lat="45.924324260442496" lon="11.212634183275602"><ele>1288.0</ele><time>2026-04-06T14:50:34Z</time></trkpt><trkpt lat="45.924334668929085" lon="11.212911743257111"><ele>1287.3333333333333</ele><time>2026-04-06T14:50:35Z</time></trkpt><trkpt lat="45.92435031540012" lon="11.213185264533566"><ele>1286.6666666666667</ele><time>2026-04-06T14:50:36Z</time></trkpt><trkpt lat="45.924360554201854" lon="11.21345857299978"><ele>1286.0</ele><time>2026-04-06T14:50:37Z</time></trkpt><trkpt lat="45.92437059278836" lon="11.213728641301026"><ele>1282.6666666666667</ele><time>2026-04-06T14:50:38Z</time></trkpt><trkpt lat="45.924377434219934" lon="11.213996485121195"><ele>1279.3333333333333</ele><time>2026-04-06T14:50:39Z</time></trkpt><trkpt lat="45.92438608790882" lon="11.214267241332823"><ele>1276.0</ele><time>2026-04-06T14:50:40Z</time></trkpt><trkpt lat="45.92439849529858" lon="11.214536914839517"><ele>1276.0</ele><time>2026-04-06T14:50:41Z</time></trkpt><trkpt lat="45.924412762748645" lon="11.214795391581392"><ele>1276.0</ele><time>2026-04-06T14:50:42Z</time></trkpt><trkpt lat="45.924425678429245" lon="11.21505567291293"><ele>1276.0</ele><time>2026-04-06T14:50:43Z</time></trkpt><trkpt lat="45.924436922973584" lon="11.215314332939712"><ele>1273.0</ele><time>2026-04-06T14:50:44Z</time></trkpt><trkpt lat="45.924445393672734" lon="11.215565796858217"><ele>1270.0</ele><time>2026-04-06T14:50:45Z</time></trkpt><trkpt lat="45.92444336873557" lon="11.215783041013436"><ele>1267.0</ele><time>2026-04-06T14:50:46Z</time></trkpt><trkpt lat="45.92445672248258" lon="11.215972934278433"><ele>1265.5</ele><time>2026-04-06T14:50:47Z</time></trkpt><trkpt lat="45.924490088129645" lon="11.216156475441148"><ele>1264.0</ele><time>2026-04-06T14:50:48Z</time></trkpt><trkpt lat="45.924558752685996" lon="11.216319773744113"><ele>1262.5</ele><time>2026-04-06T14:50:49Z</time></trkpt><trkpt lat="45.92466349863166" lon="11.216452952333343"><ele>1261.0</ele><time>2026-04-06T14:50:50Z</time></trkpt><trkpt lat="45.92478242074486" lon="11.216573579982818"><ele>1261.5</ele><time>2026-04-06T14:50:51Z</time></trkpt><trkpt lat="45.924915878874764" lon="11.216674768275345"><ele>1262.0</ele><time>2026-04-06T14:50:52Z</time></trkpt><trkpt lat="45.925044160633774" lon="11.216767560509583"><ele>1262.5</ele><time>2026-04-06T14:50:53Z</time></trkpt><trkpt lat="45.92514886882944" lon="11.216850392936903"><ele>1263.0</ele><time>2026-04-06T14:50:54Z</time></trkpt><trkpt lat="45.92522458106864" lon="11.216920141623802"><ele>1263.0</ele><time>2026-04-06T14:50:55Z</time></trkpt><trkpt lat="45.92527711038111" lon="11.21699020331151"><ele>1263.0</ele><time>2026-04-06T14:50:56Z</time></trkpt><trkpt lat="45.9252966629918" lon="11.217078483868667"><ele>1263.0</ele><time>2026-04-06T14:50:57Z</time></trkpt><trkpt lat="45.92528086180058" lon="11.217175731485813"><ele>1263.0</ele><time>2026-04-06T14:50:58Z</time></trkpt><trkpt lat="45.92522110955053" lon="11.217239979327895"><ele>1263.0</ele><time>2026-04-06T14:50:59Z</time></trkpt><trkpt lat="45.9251303470515" lon="11.217231028834822"><ele>1263.0</ele><time>2026-04-06T14:51:00Z</time></trkpt><trkpt lat="45.92504008063316" lon="11.217171130532883"><ele>1259.25</ele><time>2026-04-06T14:51:01Z</time></trkpt><trkpt lat="45.92495059327528" lon="11.217081102015259"><ele>1255.5</ele><time>2026-04-06T14:51:02Z</time></trkpt><trkpt lat="45.92484639612602" lon="11.216978689352883"><ele>1251.75</ele><time>2026-04-06T14:51:03Z</time></trkpt><trkpt lat="45.92472701385341" lon="11.216879194706932"><ele>1248.0</ele><time>2026-04-06T14:51:04Z</time></trkpt><trkpt lat="45.92460933654087" lon="11.216748173720765"><ele>1248.0</ele><time>2026-04-06T14:51:05Z</time></trkpt><trkpt lat="45.92447567661756" lon="11.216641357108605"><ele>1248.0</ele><time>2026-04-06T14:51:06Z</time></trkpt><trkpt lat="45.92432933470833" lon="11.216571290734041"><ele>1248.0</ele><time>2026-04-06T14:51:07Z</time></trkpt><trkpt lat="45.92418185505935" lon="11.21655363643907"><ele>1247.25</ele><time>2026-04-06T14:51:08Z</time></trkpt><trkpt lat="45.92403755538318" lon="11.21651823193844"><ele>1246.5</ele><time>2026-04-06T14:51:09Z</time></trkpt><trkpt lat="45.923912230159395" lon="11.21645456979293"><ele>1245.75</ele><time>2026-04-06T14:51:10Z</time></trkpt><trkpt lat="45.92383746971304" lon="11.216329772454673"><ele>1245.0</ele><time>2026-04-06T14:51:11Z</time></trkpt><trkpt lat="45.92376512569864" lon="11.216281510628951"><ele>1245.0</ele><time>2026-04-06T14:51:12Z</time></trkpt><trkpt lat="45.92371078530544" lon="11.216232442192968"><ele>1245.0</ele><time>2026-04-06T14:51:13Z</time></trkpt><trkpt lat="45.92361236878063" lon="11.216352690368103"><ele>1245.0</ele><time>2026-04-06T14:51:15Z</time></trkpt><trkpt lat="45.923619113654226" lon="11.21647722349212"><ele>1245.0</ele><time>2026-04-06T14:51:16Z</time></trkpt><trkpt lat="45.92366353771147" lon="11.216591371226103"><ele>1245.0</ele><time>2026-04-06T14:51:17Z</time></trkpt><trkpt lat="45.92375472887009" lon="11.216668521432254"><ele>1245.75</ele><time>2026-04-06T14:51:18Z</time></trkpt><trkpt lat="45.92386074887957" lon="11.216731473891517"><ele>1246.5</ele><time>2026-04-06T14:51:19Z</time></trkpt><trkpt lat="45.92398187360276" lon="11.216798600967604"><ele>1247.25</ele><time>2026-04-06T14:51:20Z</time></trkpt><trkpt lat="45.924112010383176" lon="11.216857442967836"><ele>1248.0</ele><time>2026-04-06T14:51:21Z</time></trkpt><trkpt lat="45.92423343280836" lon="11.216936239015046"><ele>1248.0</ele><time>2026-04-06T14:51:22Z</time></trkpt><trkpt lat="45.92433876007636" lon="11.217056664297582"><ele>1248.0</ele><time>2026-04-06T14:51:23Z</time></trkpt><trkpt lat="45.924403907148736" lon="11.217249212868683"><ele>1248.0</ele><time>2026-04-06T14:51:24Z</time></trkpt><trkpt lat="45.92450167626286" lon="11.217417431967617"><ele>1248.0</ele><time>2026-04-06T14:51:25Z</time></trkpt><trkpt lat="45.924575354475124" lon="11.217593683537242"><ele>1244.0</ele><time>2026-04-06T14:51:26Z</time></trkpt><trkpt lat="45.924626694700606" lon="11.217768671111847"><ele>1240.0</ele><time>2026-04-06T14:51:27Z</time></trkpt><trkpt lat="45.92461956267117" lon="11.217962130429811"><ele>1236.0</ele><time>2026-04-06T14:51:28Z</time></trkpt><trkpt lat="45.92463482789798" lon="11.218132490745505"><ele>1232.0</ele><time>2026-04-06T14:51:29Z</time></trkpt><trkpt lat="45.92467067964406" lon="11.218270314494168"><ele>1230.25</ele><time>2026-04-06T14:51:30Z</time></trkpt><trkpt lat="45.92475264359005" lon="11.21839772382048"><ele>1228.5</ele><time>2026-04-06T14:51:31Z</time></trkpt><trkpt lat="45.92487814347389" lon="11.218503026605935"><ele>1226.75</ele><time>2026-04-06T14:51:32Z</time></trkpt><trkpt lat="45.92500826280575" lon="11.218592174313748"><ele>1225.0</ele><time>2026-04-06T14:51:33Z</time></trkpt><trkpt lat="45.92514753140408" lon="11.218687491291147"><ele>1225.0</ele><time>2026-04-06T14:51:34Z</time></trkpt><trkpt lat="45.9252909925327" lon="11.218793981358875"><ele>1225.0</ele><time>2026-04-06T14:51:35Z</time></trkpt><trkpt lat="45.92543885263247" lon="11.218897976402417"><ele>1225.0</ele><time>2026-04-06T14:51:36Z</time></trkpt><trkpt lat="45.92559054120673" lon="11.218985408488962"><ele>1220.5</ele><time>2026-04-06T14:51:37Z</time></trkpt><trkpt lat="45.92573712340024" lon="11.219062758991763"><ele>1216.0</ele><time>2026-04-06T14:51:38Z</time></trkpt><trkpt lat="45.925866803261634" lon="11.219132741021925"><ele>1211.5</ele><time>2026-04-06T14:51:39Z</time></trkpt><trkpt lat="45.925983027554075" lon="11.219170140710727"><ele>1207.0</ele><time>2026-04-06T14:51:40Z</time></trkpt><trkpt lat="45.926108853321935" lon="11.21917804570653"><ele>1207.0</ele><time>2026-04-06T14:51:41Z</time></trkpt><trkpt lat="45.92623060145626" lon="11.21911211549335"><ele>1207.0</ele><time>2026-04-06T14:51:42Z</time></trkpt><trkpt lat="45.92637113385708" lon="11.219125992295593"><ele>1207.0</ele><time>2026-04-06T14:51:43Z</time></trkpt><trkpt lat="45.92649262431874" lon="11.219231755440024"><ele>1207.0</ele><time>2026-04-06T14:51:44Z</time></trkpt><trkpt lat="45.92662002580465" lon="11.219341061256099"><ele>1210.25</ele><time>2026-04-06T14:51:45Z</time></trkpt><trkpt lat="45.926740340832524" lon="11.21947452038268"><ele>1213.5</ele><time>2026-04-06T14:51:46Z</time></trkpt><trkpt lat="45.9268557969717" lon="11.219578458891249"><ele>1216.75</ele><time>2026-04-06T14:51:47Z</time></trkpt><trkpt lat="45.92698932472776" lon="11.219687146778277"><ele>1220.0</ele><time>2026-04-06T14:51:48Z</time></trkpt><trkpt lat="45.92713982572928" lon="11.2197362182154"><ele>1220.0</ele><time>2026-04-06T14:51:49Z</time></trkpt><trkpt lat="45.927291447304405" lon="11.219752190993932"><ele>1220.0</ele><time>2026-04-06T14:51:50Z</time></trkpt><trkpt lat="45.92745284833384" lon="11.219766662801929"><ele>1220.0</ele><time>2026-04-06T14:51:51Z</time></trkpt><trkpt lat="45.92761885585274" lon="11.219787096492926"><ele>1219.0</ele><time>2026-04-06T14:51:52Z</time></trkpt><trkpt lat="45.92778157144515" lon="11.219811605143619"><ele>1218.0</ele><time>2026-04-06T14:51:53Z</time></trkpt><trkpt lat="45.927940946174644" lon="11.219836568197907"><ele>1217.0</ele><time>2026-04-06T14:51:54Z</time></trkpt><trkpt lat="45.92808601201757" lon="11.219858315487219"><ele>1212.75</ele><time>2026-04-06T14:51:55Z</time></trkpt><trkpt lat="45.928203521944866" lon="11.219877506951963"><ele>1208.5</ele><time>2026-04-06T14:51:56Z</time></trkpt><trkpt lat="45.92830754143871" lon="11.21992230066724"><ele>1204.25</ele><time>2026-04-06T14:51:57Z</time></trkpt><trkpt lat="45.928398995241764" lon="11.220022300456318"><ele>1200.0</ele><time>2026-04-06T14:51:58Z</time></trkpt><trkpt lat="45.92845136579651" lon="11.220181992530428"><ele>1200.0</ele><time>2026-04-06T14:51:59Z</time></trkpt><trkpt lat="45.928517238067506" lon="11.220328942524317"><ele>1200.0</ele><time>2026-04-06T14:52:00Z</time></trkpt><trkpt lat="45.9285691322178" lon="11.2204830625315"><ele>1200.0</ele><time>2026-04-06T14:52:01Z</time></trkpt><trkpt lat="45.92864465815532" lon="11.220615391862625"><ele>1200.0</ele><time>2026-04-06T14:52:02Z</time></trkpt><trkpt lat="45.928747380709325" lon="11.220725258003078"><ele>1193.25</ele><time>2026-04-06T14:52:03Z</time></trkpt><trkpt lat="45.928863797000226" lon="11.220817014569628"><ele>1186.5</ele><time>2026-04-06T14:52:04Z</time></trkpt><trkpt lat="45.92898821590126" lon="11.220898935331338"><ele>1179.75</ele><time>2026-04-06T14:52:05Z</time></trkpt><trkpt lat="45.929112015731015" lon="11.220986970914824"><ele>1173.0</ele><time>2026-04-06T14:52:06Z</time></trkpt><trkpt lat="45.92922419288797" lon="11.221089867780673"><ele>1170.25</ele><time>2026-04-06T14:52:07.001Z</time></trkpt><trkpt lat="45.92932313171851" lon="11.22121066941508"><ele>1167.5</ele><time>2026-04-06T14:52:08.001Z</time></trkpt><trkpt lat="45.92941081649765" lon="11.221332714566397"><ele>1164.75</ele><time>2026-04-06T14:52:09.001Z</time></trkpt><trkpt lat="45.929483933847834" lon="11.221440983772078"><ele>1162.0</ele><time>2026-04-06T14:52:10.001Z</time></trkpt><trkpt lat="45.929550147172556" lon="11.221558360441312"><ele>1162.0</ele><time>2026-04-06T14:52:11.001Z</time></trkpt><trkpt lat="45.92961132129756" lon="11.22169808235763"><ele>1162.0</ele><time>2026-04-06T14:52:12.001Z</time></trkpt><trkpt lat="45.92966823756554" lon="11.221857483336068"><ele>1162.0</ele><time>2026-04-06T14:52:13.001Z</time></trkpt><trkpt lat="45.929728687193204" lon="11.22202200272438"><ele>1162.0</ele><time>2026-04-06T14:52:14.001Z</time></trkpt><trkpt lat="45.92978982603628" lon="11.222190664449124"><ele>1159.75</ele><time>2026-04-06T14:52:15.001Z</time></trkpt><trkpt lat="45.929850384782526" lon="11.222354521224661"><ele>1157.5</ele><time>2026-04-06T14:52:16.001Z</time></trkpt><trkpt lat="45.9299084530149" lon="11.222519654882312"><ele>1155.25</ele><time>2026-04-06T14:52:17.001Z</time></trkpt><trkpt lat="45.92996465939408" lon="11.222683402280794"><ele>1153.0</ele><time>2026-04-06T14:52:18.001Z</time></trkpt><trkpt lat="45.9300229732568" lon="11.222844262866623"><ele>1151.8</ele><time>2026-04-06T14:52:19.001Z</time></trkpt><trkpt lat="45.93007933476726" lon="11.223004442343377"><ele>1150.6</ele><time>2026-04-06T14:52:20.001Z</time></trkpt><trkpt lat="45.93013234864823" lon="11.22314766536486"><ele>1149.4</ele><time>2026-04-06T14:52:21.001Z</time></trkpt><trkpt lat="45.93017683971308" lon="11.223267345858188"><ele>1148.2</ele><time>2026-04-06T14:52:22.001Z</time></trkpt><trkpt lat="45.93021882555933" lon="11.223373802475209"><ele>1147.0</ele><time>2026-04-06T14:52:23.001Z</time></trkpt><trkpt lat="45.93027090608495" lon="11.223457648521913"><ele>1147.0</ele><time>2026-04-06T14:52:24.001Z</time></trkpt><trkpt lat="45.93033611718764" lon="11.223516461790945"><ele>1147.0</ele><time>2026-04-06T14:52:25.001Z</time></trkpt><trkpt lat="45.93041138931619" lon="11.223550690392385"><ele>1147.0</ele><time>2026-04-06T14:52:26.001Z</time></trkpt><trkpt lat="45.93049952991072" lon="11.223565013383027"><ele>1147.0</ele><time>2026-04-06T14:52:27.001Z</time></trkpt><trkpt lat="45.9305946681294" lon="11.223546919372943"><ele>1147.0</ele><time>2026-04-06T14:52:28.001Z</time></trkpt><trkpt lat="45.930689783514346" lon="11.223516441123616"><ele>1147.0</ele><time>2026-04-06T14:52:29.001Z</time></trkpt><trkpt lat="45.93078738074647" lon="11.223484772229245"><ele>1147.0</ele><time>2026-04-06T14:52:30.001Z</time></trkpt><trkpt lat="45.9308842708312" lon="11.223459583036124"><ele>1147.0</ele><time>2026-04-06T14:52:31.001Z</time></trkpt><trkpt lat="45.930982191118964" lon="11.22343261733323"><ele>1147.0</ele><time>2026-04-06T14:52:32.001Z</time></trkpt><trkpt lat="45.93106752819427" lon="11.223407720790062"><ele>1147.0</ele><time>2026-04-06T14:52:33.001Z</time></trkpt><trkpt lat="45.93114060391568" lon="11.22342844032267"><ele>1147.0</ele><time>2026-04-06T14:52:34.001Z</time></trkpt><trkpt lat="45.931204666231245" lon="11.2234267212553"><ele>1147.0</ele><time>2026-04-06T14:52:35.001Z</time></trkpt><trkpt lat="45.931278178890395" lon="11.223553842862929"><ele>1144.6</ele><time>2026-04-06T14:52:37.001Z</time></trkpt><trkpt lat="45.931227422467494" lon="11.223742198228964"><ele>1142.2</ele><time>2026-04-06T14:52:39.001Z</time></trkpt><trkpt lat="45.93116083730908" lon="11.223809378112225"><ele>1139.8</ele><time>2026-04-06T14:52:40.001Z</time></trkpt><trkpt lat="45.93107214786012" lon="11.22384156078438"><ele>1137.4</ele><time>2026-04-06T14:52:41.001Z</time></trkpt><trkpt lat="45.930984787520885" lon="11.223878041060974"><ele>1135.0</ele><time>2026-04-06T14:52:42.001Z</time></trkpt><trkpt lat="45.930896973025796" lon="11.223934604571886"><ele>1134.2</ele><time>2026-04-06T14:52:43.001Z</time></trkpt><trkpt lat="45.930807556572475" lon="11.223995811758002"><ele>1133.4</ele><time>2026-04-06T14:52:44.001Z</time></trkpt><trkpt lat="45.93072079737867" lon="11.22405915385459"><ele>1132.6</ele><time>2026-04-06T14:52:45.001Z</time></trkpt><trkpt lat="45.9306314838895" lon="11.22411906210019"><ele>1131.8</ele><time>2026-04-06T14:52:46.001Z</time></trkpt><trkpt lat="45.930544082100965" lon="11.224172883681167"><ele>1131.0</ele><time>2026-04-06T14:52:47.001Z</time></trkpt><trkpt lat="45.93046453342362" lon="11.224219447881808"><ele>1131.0</ele><time>2026-04-06T14:52:48.001Z</time></trkpt><trkpt lat="45.93040982342334" lon="11.224293983611755"><ele>1131.0</ele><time>2026-04-06T14:52:49.001Z</time></trkpt><trkpt lat="45.93039025296533" lon="11.224401740982174"><ele>1131.0</ele><time>2026-04-06T14:52:50.001Z</time></trkpt><trkpt lat="45.930406974777334" lon="11.22451781111796"><ele>1131.0</ele><time>2026-04-06T14:52:51.001Z</time></trkpt><trkpt lat="45.930440789501674" lon="11.224622458034965"><ele>1131.0</ele><time>2026-04-06T14:52:52.001Z</time></trkpt><trkpt lat="45.93054436652186" lon="11.22467594077158"><ele>1131.0</ele><time>2026-04-06T14:52:53.001Z</time></trkpt><trkpt lat="45.930645506161966" lon="11.224705896518076"><ele>1131.0</ele><time>2026-04-06T14:52:54.001Z</time></trkpt><trkpt lat="45.93075526649219" lon="11.22469802858587"><ele>1131.0</ele><time>2026-04-06T14:52:55.001Z</time></trkpt><trkpt lat="45.93086291528861" lon="11.224699005346425"><ele>1131.0</ele><time>2026-04-06T14:52:56.001Z</time></trkpt><trkpt lat="45.93096667463897" lon="11.22472806394821"><ele>1131.0</ele><time>2026-04-06T14:52:57.001Z</time></trkpt><trkpt lat="45.931060609266986" lon="11.2247796853609"><ele>1131.0</ele><time>2026-04-06T14:52:58.001Z</time></trkpt><trkpt lat="45.93114151425438" lon="11.224872904917113"><ele>1126.8</ele><time>2026-04-06T14:52:59.001Z</time></trkpt><trkpt lat="45.9312224485475" lon="11.22496933853737"><ele>1122.6</ele><time>2026-04-06T14:53:00.001Z</time></trkpt><trkpt lat="45.93130258932166" lon="11.225070207620483"><ele>1118.4</ele><time>2026-04-06T14:53:01.001Z</time></trkpt><trkpt lat="45.93139014789038" lon="11.22516210166704"><ele>1114.2</ele><time>2026-04-06T14:53:02.001Z</time></trkpt><trkpt lat="45.93146979102126" lon="11.225259309688074"><ele>1110.0</ele><time>2026-04-06T14:53:03.001Z</time></trkpt><trkpt lat="45.93153688996524" lon="11.225370293665032"><ele>1110.0</ele><time>2026-04-06T14:53:04.001Z</time></trkpt><trkpt lat="45.931581171520534" lon="11.225508358494558"><ele>1110.0</ele><time>2026-04-06T14:53:05.001Z</time></trkpt><trkpt lat="45.93159422410212" lon="11.22565834704636"><ele>1110.0</ele><time>2026-04-06T14:53:06.001Z</time></trkpt><trkpt lat="45.93158310768727" lon="11.22580122126909"><ele>1110.0</ele><time>2026-04-06T14:53:07.001Z</time></trkpt><trkpt lat="45.931593905776" lon="11.225917892134902"><ele>1110.0</ele><time>2026-04-06T14:53:08.001Z</time></trkpt><trkpt lat="45.93163662496582" lon="11.225999567698231"><ele>1110.0</ele><time>2026-04-06T14:53:09.001Z</time></trkpt><trkpt lat="45.93170572837723" lon="11.226047545167667"><ele>1110.0</ele><time>2026-04-06T14:53:10.001Z</time></trkpt><trkpt lat="45.93178655968635" lon="11.226069743964514"><ele>1110.0</ele><time>2026-04-06T14:53:11.001Z</time></trkpt><trkpt lat="45.931868406365474" lon="11.22598393367597"><ele>1110.0</ele><time>2026-04-06T14:53:12.001Z</time></trkpt><trkpt lat="45.931930707890814" lon="11.225874519424218"><ele>1110.0</ele><time>2026-04-06T14:53:13.001Z</time></trkpt><trkpt lat="45.931965981787606" lon="11.225728317876898"><ele>1106.25</ele><time>2026-04-06T14:53:14.001Z</time></trkpt><trkpt lat="45.93198850888242" lon="11.225561700702508"><ele>1102.5</ele><time>2026-04-06T14:53:15.001Z</time></trkpt><trkpt lat="45.93201788601376" lon="11.225394338904575"><ele>1098.75</ele><time>2026-04-06T14:53:16.001Z</time></trkpt><trkpt lat="45.93203692699335" lon="11.225229412282337"><ele>1095.0</ele><time>2026-04-06T14:53:17.001Z</time></trkpt><trkpt lat="45.932036358014805" lon="11.225081020934866"><ele>1095.0</ele><time>2026-04-06T14:53:18.001Z</time></trkpt><trkpt lat="45.932058884076554" lon="11.224958371846775"><ele>1095.0</ele><time>2026-04-06T14:53:19.001Z</time></trkpt><trkpt lat="45.93207614986516" lon="11.224857391316583"><ele>1095.0</ele><time>2026-04-06T14:53:20.001Z</time></trkpt><trkpt lat="45.93215315358332" lon="11.224786610481075"><ele>1095.0</ele><time>2026-04-06T14:53:21.001Z</time></trkpt><trkpt lat="45.93224115131105" lon="11.22477599888524"><ele>1095.0</ele><time>2026-04-06T14:53:22.001Z</time></trkpt><trkpt lat="45.9323299468286" lon="11.224851491510657"><ele>1095.0</ele><time>2026-04-06T14:53:23.001Z</time></trkpt><trkpt lat="45.93242981629886" lon="11.224869474385955"><ele>1095.0</ele><time>2026-04-06T14:53:24.001Z</time></trkpt><trkpt lat="45.93251667850455" lon="11.22491334725288"><ele>1095.0</ele><time>2026-04-06T14:53:25.001Z</time></trkpt><trkpt lat="45.93260952594657" lon="11.224958501300733"><ele>1095.0</ele><time>2026-04-06T14:53:26.001Z</time></trkpt><trkpt lat="45.93270446270063" lon="11.224993331783143"><ele>1095.0</ele><time>2026-04-06T14:53:27.001Z</time></trkpt><trkpt lat="45.93279989789681" lon="11.225029254270847"><ele>1095.0</ele><time>2026-04-06T14:53:28.001Z</time></trkpt><trkpt lat="45.93287998755218" lon="11.225074454211626"><ele>1093.0</ele><time>2026-04-06T14:53:29.001Z</time></trkpt><trkpt lat="45.932943321243656" lon="11.225137746308587"><ele>1091.0</ele><time>2026-04-06T14:53:30.001Z</time></trkpt><trkpt lat="45.93298167072413" lon="11.225247331226438"><ele>1089.0</ele><time>2026-04-06T14:53:31.001Z</time></trkpt><trkpt lat="45.933015484264956" lon="11.225382843212458"><ele>1087.0</ele><time>2026-04-06T14:53:32.001Z</time></trkpt><trkpt lat="45.9330511415595" lon="11.225518496766478"><ele>1085.0</ele><time>2026-04-06T14:53:33.001Z</time></trkpt><trkpt lat="45.933083941281794" lon="11.225648467151293"><ele>1085.0</ele><time>2026-04-06T14:53:34.001Z</time></trkpt><trkpt lat="45.93312221740077" lon="11.225772357299904"><ele>1085.0</ele><time>2026-04-06T14:53:35.001Z</time></trkpt><trkpt lat="45.93316228430113" lon="11.22589693349786"><ele>1085.0</ele><time>2026-04-06T14:53:36.001Z</time></trkpt><trkpt lat="45.93321331085864" lon="11.22601066691328"><ele>1085.0</ele><time>2026-04-06T14:53:37.001Z</time></trkpt><trkpt lat="45.93328883344774" lon="11.226098181605357"><ele>1085.0</ele><time>2026-04-06T14:53:38.001Z</time></trkpt><trkpt lat="45.933385800740375" lon="11.226150446503121"><ele>1083.4</ele><time>2026-04-06T14:53:39.001Z</time></trkpt><trkpt lat="45.93348878868791" lon="11.22616926025623"><ele>1081.8</ele><time>2026-04-06T14:53:40.001Z</time></trkpt><trkpt lat="45.93359124094867" lon="11.226208244297093"><ele>1080.2</ele><time>2026-04-06T14:53:41.001Z</time></trkpt><trkpt lat="45.93370516528157" lon="11.226239992440401"><ele>1078.6</ele><time>2026-04-06T14:53:42.001Z</time></trkpt><trkpt lat="45.93381213540016" lon="11.226275201499998"><ele>1077.0</ele><time>2026-04-06T14:53:43.001Z</time></trkpt><trkpt lat="45.93390707707799" lon="11.226326257551328"><ele>1077.0</ele><time>2026-04-06T14:53:44.001Z</time></trkpt><trkpt lat="45.93400356096491" lon="11.22636992926281"><ele>1077.0</ele><time>2026-04-06T14:53:45.001Z</time></trkpt><trkpt lat="45.93409358527586" lon="11.2264270618568"><ele>1077.0</ele><time>2026-04-06T14:53:46.001Z</time></trkpt><trkpt lat="45.934185923828004" lon="11.226484345604723"><ele>1077.0</ele><time>2026-04-06T14:53:47.001Z</time></trkpt><trkpt lat="45.934277611083246" lon="11.226536863705853"><ele>1077.0</ele><time>2026-04-06T14:53:48.001Z</time></trkpt><trkpt lat="45.9343637008173" lon="11.226575707404104"><ele>1076.3333333333333</ele><time>2026-04-06T14:53:49.001Z</time></trkpt><trkpt lat="45.93445140387479" lon="11.226602539607317"><ele>1075.6666666666667</ele><time>2026-04-06T14:53:50.001Z</time></trkpt><trkpt lat="45.934537617104176" lon="11.22662842021456"><ele>1075.0</ele><time>2026-04-06T14:53:51.001Z</time></trkpt><trkpt lat="45.934624863512866" lon="11.22664797317916"><ele>1074.3333333333335</ele><time>2026-04-06T14:53:52.001Z</time></trkpt><trkpt lat="45.934711221946046" lon="11.226669206469502"><ele>1073.6666666666667</ele><time>2026-04-06T14:53:53.001Z</time></trkpt><trkpt lat="45.93479111193242" lon="11.226691300940518"><ele>1073.0</ele><time>2026-04-06T14:53:54.001Z</time></trkpt><trkpt lat="45.93485867951059" lon="11.22671349300756"><ele>1073.0</ele><time>2026-04-06T14:53:55.001Z</time></trkpt><trkpt lat="45.93492342357593" lon="11.226765785920195"><ele>1073.0</ele><time>2026-04-06T14:53:56.001Z</time></trkpt><trkpt lat="45.93496680333091" lon="11.226849415171882"><ele>1073.0</ele><time>2026-04-06T14:53:57.001Z</time></trkpt><trkpt lat="45.93497448831445" lon="11.22696651936092"><ele>1073.0</ele><time>2026-04-06T14:53:58.001Z</time></trkpt><trkpt lat="45.93496242207406" lon="11.227091339190657"><ele>1073.0</ele><time>2026-04-06T14:53:59.001Z</time></trkpt><trkpt lat="45.93494120705237" lon="11.227215626875129"><ele>1073.0</ele><time>2026-04-06T14:54:00.001Z</time></trkpt><trkpt lat="45.93491931410051" lon="11.227340150031033"><ele>1072.8</ele><time>2026-04-06T14:54:01.001Z</time></trkpt><trkpt lat="45.93489550406591" lon="11.227456519309749"><ele>1072.6</ele><time>2026-04-06T14:54:02.001Z</time></trkpt><trkpt lat="45.9348596491899" lon="11.227561286154046"><ele>1072.4</ele><time>2026-04-06T14:54:03.001Z</time></trkpt><trkpt lat="45.93480386542658" lon="11.227660827093452"><ele>1072.2</ele><time>2026-04-06T14:54:04.001Z</time></trkpt><trkpt lat="45.934726167012535" lon="11.22775386651629"><ele>1072.0</ele><time>2026-04-06T14:54:05.001Z</time></trkpt><trkpt lat="45.93463716270149" lon="11.22783973216104"><ele>1072.0</ele><time>2026-04-06T14:54:06.001Z</time></trkpt><trkpt lat="45.9345475903298" lon="11.227917082089062"><ele>1072.0</ele><time>2026-04-06T14:54:07.001Z</time></trkpt><trkpt lat="45.93445830135539" lon="11.22798833803252"><ele>1072.0</ele><time>2026-04-06T14:54:08.001Z</time></trkpt><trkpt lat="45.934366366562834" lon="11.228066169150033"><ele>1072.0</ele><time>2026-04-06T14:54:09.001Z</time></trkpt><trkpt lat="45.93428443646524" lon="11.228181067419358"><ele>1072.0</ele><time>2026-04-06T14:54:10.001Z</time></trkpt><trkpt lat="45.93422140966099" lon="11.228321486521816"><ele>1071.0</ele><time>2026-04-06T14:54:11.001Z</time></trkpt><trkpt lat="45.93418097619056" lon="11.228496537706569"><ele>1070.0</ele><time>2026-04-06T14:54:12.001Z</time></trkpt><trkpt lat="45.934148737584444" lon="11.228683298860053"><ele>1069.0</ele><time>2026-04-06T14:54:13.001Z</time></trkpt><trkpt lat="45.934114642386966" lon="11.228865217546293"><ele>1068.0</ele><time>2026-04-06T14:54:14.001Z</time></trkpt><trkpt lat="45.934076314807406" lon="11.229044901607326"><ele>1067.75</ele><time>2026-04-06T14:54:15.001Z</time></trkpt><trkpt lat="45.93403947002531" lon="11.229223379693448"><ele>1067.5</ele><time>2026-04-06T14:54:16.001Z</time></trkpt><trkpt lat="45.93400060642915" lon="11.229401388971372"><ele>1067.25</ele><time>2026-04-06T14:54:17.001Z</time></trkpt><trkpt lat="45.93395980860145" lon="11.229581134285446"><ele>1067.0</ele><time>2026-04-06T14:54:18.001Z</time></trkpt><trkpt lat="45.93392012152018" lon="11.229757756190462"><ele>1067.0</ele><time>2026-04-06T14:54:19.001Z</time></trkpt><trkpt lat="45.93388325566386" lon="11.229929099481554"><ele>1067.0</ele><time>2026-04-06T14:54:20.001Z</time></trkpt><trkpt lat="45.9338596265754" lon="11.230097147073137"><ele>1067.0</ele><time>2026-04-06T14:54:21.001Z</time></trkpt><trkpt lat="45.93386610661313" lon="11.23027248472504"><ele>1067.0</ele><time>2026-04-06T14:54:22.001Z</time></trkpt><trkpt lat="45.933899261239226" lon="11.23043683964373"><ele>1067.0</ele><time>2026-04-06T14:54:23.001Z</time></trkpt><trkpt lat="45.93396552744085" lon="11.230579757243262"><ele>1067.0</ele><time>2026-04-06T14:54:24.001Z</time></trkpt><trkpt lat="45.934045614850604" lon="11.230701395706044"><ele>1067.0</ele><time>2026-04-06T14:54:25.001Z</time></trkpt><trkpt lat="45.934145093073845" lon="11.230810511005737"><ele>1067.0</ele><time>2026-04-06T14:54:26.001Z</time></trkpt><trkpt lat="45.934287951827486" lon="11.230838754142399"><ele>1070.25</ele><time>2026-04-06T14:54:27.001Z</time></trkpt><trkpt lat="45.93443225882848" lon="11.230867709065317"><ele>1073.5</ele><time>2026-04-06T14:54:28.001Z</time></trkpt><trkpt lat="45.934580445661105" lon="11.23090919314811"><ele>1076.75</ele><time>2026-04-06T14:54:29.001Z</time></trkpt><trkpt lat="45.93471230951461" lon="11.23099517786019"><ele>1080.0</ele><time>2026-04-06T14:54:30.001Z</time></trkpt><trkpt lat="45.93482327287603" lon="11.231104466454354"><ele>1080.0</ele><time>2026-04-06T14:54:31.001Z</time></trkpt><trkpt lat="45.93492581673094" lon="11.23123374383336"><ele>1080.0</ele><time>2026-04-06T14:54:32.001Z</time></trkpt><trkpt lat="45.93502864440755" lon="11.23137522557151"><ele>1080.0</ele><time>2026-04-06T14:54:33.001Z</time></trkpt><trkpt lat="45.93513495465282" lon="11.23151735190587"><ele>1080.0</ele><time>2026-04-06T14:54:34.001Z</time></trkpt><trkpt lat="45.93524197018307" lon="11.231652183939609"><ele>1084.25</ele><time>2026-04-06T14:54:35.001Z</time></trkpt><trkpt lat="45.93534644713015" lon="11.231779632157485"><ele>1088.5</ele><time>2026-04-06T14:54:36.001Z</time></trkpt><trkpt lat="45.935451336426965" lon="11.231912963666518"><ele>1092.75</ele><time>2026-04-06T14:54:37.001Z</time></trkpt><trkpt lat="45.9355568491273" lon="11.232049575726775"><ele>1097.0</ele><time>2026-04-06T14:54:38.001Z</time></trkpt><trkpt lat="45.93566248594653" lon="11.232190533164948"><ele>1099.5</ele><time>2026-04-06T14:54:39.001Z</time></trkpt><trkpt lat="45.93577243107738" lon="11.232332667632114"><ele>1102.0</ele><time>2026-04-06T14:54:40.001Z</time></trkpt><trkpt lat="45.935882512429046" lon="11.232474532263407"><ele>1104.5</ele><time>2026-04-06T14:54:41.001Z</time></trkpt><trkpt lat="45.93598231869677" lon="11.232634243524506"><ele>1107.0</ele><time>2026-04-06T14:54:42.001Z</time></trkpt><trkpt lat="45.936067107940055" lon="11.23280937942909"><ele>1107.0</ele><time>2026-04-06T14:54:43.001Z</time></trkpt><trkpt lat="45.93614104570318" lon="11.232990841443572"><ele>1107.0</ele><time>2026-04-06T14:54:44.001Z</time></trkpt><trkpt lat="45.936208392228565" lon="11.233170312596252"><ele>1107.0</ele><time>2026-04-06T14:54:45.001Z</time></trkpt><trkpt lat="45.9362746243008" lon="11.233349901648015"><ele>1107.0</ele><time>2026-04-06T14:54:46.001Z</time></trkpt><trkpt lat="45.936343771796174" lon="11.2335284342561"><ele>1099.25</ele><time>2026-04-06T14:54:47.001Z</time></trkpt><trkpt lat="45.93641525488223" lon="11.233707347660543"><ele>1091.5</ele><time>2026-04-06T14:54:48.001Z</time></trkpt><trkpt lat="45.936478567965956" lon="11.233892045737088"><ele>1083.75</ele><time>2026-04-06T14:54:49.001Z</time></trkpt><trkpt lat="45.936518235386245" lon="11.234090361391965"><ele>1076.0</ele><time>2026-04-06T14:54:50.001Z</time></trkpt><trkpt lat="45.93653522965238" lon="11.23429173895316"><ele>1070.0</ele><time>2026-04-06T14:54:51.001Z</time></trkpt><trkpt lat="45.936542398941214" lon="11.23449509673527"><ele>1064.0</ele><time>2026-04-06T14:54:52.001Z</time></trkpt><trkpt lat="45.936533476116026" lon="11.23475933609883"><ele>1058.0</ele><time>2026-04-06T14:54:53.001Z</time></trkpt><trkpt lat="45.93654690225114" lon="11.234969536587109"><ele>1056.3333333333335</ele><time>2026-04-06T14:54:54.001Z</time></trkpt><trkpt lat="45.936539704509855" lon="11.235182415149376"><ele>1054.6666666666667</ele><time>2026-04-06T14:54:55.001Z</time></trkpt><trkpt lat="45.93653936887887" lon="11.235397039082413"><ele>1053.0</ele><time>2026-04-06T14:54:56.001Z</time></trkpt><trkpt lat="45.93654674969669" lon="11.235616105938336"><ele>1050.6666666666667</ele><time>2026-04-06T14:54:57.001Z</time></trkpt><trkpt lat="45.93655771685754" lon="11.235830079108363"><ele>1048.3333333333335</ele><time>2026-04-06T14:54:58.001Z</time></trkpt><trkpt lat="45.93658043199998" lon="11.236042701413119"><ele>1046.0</ele><time>2026-04-06T14:54:59.001Z</time></trkpt><trkpt lat="45.93660677464018" lon="11.236257464271894"><ele>1045.25</ele><time>2026-04-06T14:55:00.001Z</time></trkpt><trkpt lat="45.936640027971364" lon="11.236470771724864"><ele>1044.5</ele><time>2026-04-06T14:55:01.001Z</time></trkpt><trkpt lat="45.93664499872317" lon="11.23668028534995"><ele>1043.75</ele><time>2026-04-06T14:55:02.001Z</time></trkpt><trkpt lat="45.936650558527425" lon="11.236876610152354"><ele>1043.0</ele><time>2026-04-06T14:55:03.001Z</time></trkpt><trkpt lat="45.936602506282526" lon="11.237063234673682"><ele>1043.0</ele><time>2026-04-06T14:55:04.001Z</time></trkpt><trkpt lat="45.936542763726294" lon="11.23726994072246"><ele>1043.0</ele><time>2026-04-06T14:55:05.001Z</time></trkpt><trkpt lat="45.93647696385928" lon="11.237474069034327"><ele>1043.0</ele><time>2026-04-06T14:55:06.001Z</time></trkpt><trkpt lat="45.93640947082249" lon="11.23768010385334"><ele>1044.6666666666667</ele><time>2026-04-06T14:55:07.001Z</time></trkpt><trkpt lat="45.9363440026709" lon="11.237871343050816"><ele>1046.3333333333333</ele><time>2026-04-06T14:55:08.001Z</time></trkpt><trkpt lat="45.93625696563885" lon="11.238038347980225"><ele>1048.0</ele><time>2026-04-06T14:55:09.001Z</time></trkpt><trkpt lat="45.93614759001717" lon="11.238201151212218"><ele>1055.6666666666665</ele><time>2026-04-06T14:55:10.001Z</time></trkpt><trkpt lat="45.936021650318466" lon="11.238374553509438"><ele>1063.3333333333333</ele><time>2026-04-06T14:55:11.001Z</time></trkpt><trkpt lat="45.93588405113477" lon="11.238562652227692"><ele>1071.0</ele><time>2026-04-06T14:55:12.001Z</time></trkpt><trkpt lat="45.935739327714955" lon="11.238761642709202"><ele>1063.0</ele><time>2026-04-06T14:55:13.001Z</time></trkpt><trkpt lat="45.93561556369645" lon="11.238960919219021"><ele>1055.0</ele><time>2026-04-06T14:55:14.001Z</time></trkpt><trkpt lat="45.93547979998875" lon="11.239128942837558"><ele>1047.0</ele><time>2026-04-06T14:55:15.001Z</time></trkpt><trkpt lat="45.935357283020345" lon="11.239298889045257"><ele>1047.0</ele><time>2026-04-06T14:55:16.001Z</time></trkpt><trkpt lat="45.93523431892154" lon="11.239466276682132"><ele>1047.0</ele><time>2026-04-06T14:55:17.001Z</time></trkpt><trkpt lat="45.93511695468698" lon="11.239625864693924"><ele>1047.0</ele><time>2026-04-06T14:55:18.001Z</time></trkpt><trkpt lat="45.93500308102055" lon="11.23979266531415"><ele>1043.0</ele><time>2026-04-06T14:55:19Z</time></trkpt><trkpt lat="45.93488952001491" lon="11.239951214908888"><ele>1039.0</ele><time>2026-04-06T14:55:20Z</time></trkpt><trkpt lat="45.934784104169246" lon="11.240119589906218"><ele>1035.0</ele><time>2026-04-06T14:55:21Z</time></trkpt><trkpt lat="45.93468633878109" lon="11.24029618605534"><ele>1035.0</ele><time>2026-04-06T14:55:22Z</time></trkpt><trkpt lat="45.93460115792428" lon="11.240462936148404"><ele>1035.0</ele><time>2026-04-06T14:55:23Z</time></trkpt><trkpt lat="45.934531207150386" lon="11.240609630620881"><ele>1035.0</ele><time>2026-04-06T14:55:24Z</time></trkpt><trkpt lat="45.93447460322533" lon="11.240762733701025"><ele>1035.0</ele><time>2026-04-06T14:55:25Z</time></trkpt><trkpt lat="45.93442793149921" lon="11.240937592418128"><ele>1033.75</ele><time>2026-04-06T14:55:26Z</time></trkpt><trkpt lat="45.93438787434068" lon="11.241123989148367"><ele>1032.5</ele><time>2026-04-06T14:55:27Z</time></trkpt><trkpt lat="45.93433100599391" lon="11.241287441906206"><ele>1031.25</ele><time>2026-04-06T14:55:28Z</time></trkpt><trkpt lat="45.93423791855104" lon="11.24140722096413"><ele>1030.0</ele><time>2026-04-06T14:55:29Z</time></trkpt><trkpt lat="45.934132448998035" lon="11.241499823283982"><ele>1030.0</ele><time>2026-04-06T14:55:30Z</time></trkpt><trkpt lat="45.934019397636725" lon="11.241586325924963"><ele>1030.0</ele><time>2026-04-06T14:55:31Z</time></trkpt><trkpt lat="45.93391356456994" lon="11.241680550197684"><ele>1030.0</ele><time>2026-04-06T14:55:32Z</time></trkpt><trkpt lat="45.93380305039768" lon="11.24177017986907"><ele>1030.0</ele><time>2026-04-06T14:55:33Z</time></trkpt><trkpt lat="45.93369090675501" lon="11.24187427338826"><ele>1030.0</ele><time>2026-04-06T14:55:34Z</time></trkpt><trkpt lat="45.93358900796832" lon="11.242000026304229"><ele>1030.0</ele><time>2026-04-06T14:55:35Z</time></trkpt><trkpt lat="45.93350205739973" lon="11.242160199596793"><ele>1030.0</ele><time>2026-04-06T14:55:36Z</time></trkpt><trkpt lat="45.93340660482207" lon="11.242316735975884"><ele>1030.0</ele><time>2026-04-06T14:55:37Z</time></trkpt><trkpt lat="45.933312057741226" lon="11.24247253632768"><ele>1029.5</ele><time>2026-04-06T14:55:38Z</time></trkpt><trkpt lat="45.93320875424644" lon="11.242626429936404"><ele>1029.0</ele><time>2026-04-06T14:55:39.001Z</time></trkpt><trkpt lat="45.933104224622824" lon="11.242777230350608"><ele>1028.5</ele><time>2026-04-06T14:55:40.001Z</time></trkpt><trkpt lat="45.932973504716784" lon="11.24288666062171"><ele>1028.0</ele><time>2026-04-06T14:55:41.001Z</time></trkpt><trkpt lat="45.9328498180249" lon="11.243006845112879"><ele>1024.75</ele><time>2026-04-06T14:55:42.001Z</time></trkpt><trkpt lat="45.932737238186974" lon="11.24313632532053"><ele>1021.5</ele><time>2026-04-06T14:55:43.001Z</time></trkpt><trkpt lat="45.9326218375103" lon="11.243247754117798"><ele>1018.25</ele><time>2026-04-06T14:55:44.001Z</time></trkpt><trkpt lat="45.93251346295375" lon="11.243363165935229"><ele>1015.0</ele><time>2026-04-06T14:55:45.001Z</time></trkpt><trkpt lat="45.93240206717973" lon="11.243489584808255"><ele>1015.0</ele><time>2026-04-06T14:55:46.001Z</time></trkpt><trkpt lat="45.93228094395314" lon="11.243607936463725"><ele>1015.0</ele><time>2026-04-06T14:55:47.001Z</time></trkpt><trkpt lat="45.932167890335506" lon="11.243746490003884"><ele>1015.0</ele><time>2026-04-06T14:55:48.001Z</time></trkpt><trkpt lat="45.93206613217043" lon="11.243896622149032"><ele>1015.0</ele><time>2026-04-06T14:55:49.001Z</time></trkpt><trkpt lat="45.93195767596822" lon="11.244027904878417"><ele>1010.25</ele><time>2026-04-06T14:55:50.001Z</time></trkpt><trkpt lat="45.931851600317145" lon="11.244159228467863"><ele>1005.5</ele><time>2026-04-06T14:55:51.001Z</time></trkpt><trkpt lat="45.9317497990011" lon="11.244286075309992"><ele>1000.75</ele><time>2026-04-06T14:55:52.001Z</time></trkpt><trkpt lat="45.93164895313187" lon="11.24438355869749"><ele>996.0</ele><time>2026-04-06T14:55:53.001Z</time></trkpt><trkpt lat="45.93158580474567" lon="11.24452270029371"><ele>996.0</ele><time>2026-04-06T14:55:54.001Z</time></trkpt><trkpt lat="45.93151639329135" lon="11.244645195578062"><ele>996.0</ele><time>2026-04-06T14:55:55.001Z</time></trkpt><trkpt lat="45.93146782867457" lon="11.244770049888453"><ele>996.0</ele><time>2026-04-06T14:55:56.001Z</time></trkpt><trkpt lat="45.93142496584481" lon="11.244869401874999"><ele>996.0</ele><time>2026-04-06T14:55:57.001Z</time></trkpt><trkpt lat="45.9314010332879" lon="11.244954704259793"><ele>996.0</ele><time>2026-04-06T14:55:58.001Z</time></trkpt><trkpt lat="45.93134632060467" lon="11.245013587226127"><ele>996.0</ele><time>2026-04-06T14:55:59.001Z</time></trkpt><trkpt lat="45.93127661048579" lon="11.245075510032267"><ele>1000.4</ele><time>2026-04-06T14:56:00.001Z</time></trkpt><trkpt lat="45.93123607298492" lon="11.245201715633414"><ele>1004.8</ele><time>2026-04-06T14:56:01.001Z</time></trkpt><trkpt lat="45.93119477954575" lon="11.245337112256069"><ele>1009.1999999999999</ele><time>2026-04-06T14:56:02.001Z</time></trkpt><trkpt lat="45.931160014449446" lon="11.245473105925763"><ele>1013.5999999999999</ele><time>2026-04-06T14:56:03.001Z</time></trkpt><trkpt lat="45.93112188680592" lon="11.245605285783359"><ele>1018.0</ele><time>2026-04-06T14:56:04.001Z</time></trkpt><trkpt lat="45.93106748099913" lon="11.245730403892473"><ele>1014.25</ele><time>2026-04-06T14:56:05.001Z</time></trkpt><trkpt lat="45.930980250537594" lon="11.245853986544034"><ele>1010.5</ele><time>2026-04-06T14:56:06.001Z</time></trkpt><trkpt lat="45.93088626253515" lon="11.245977467373846"><ele>1006.75</ele><time>2026-04-06T14:56:07.001Z</time></trkpt><trkpt lat="45.93080529625095" lon="11.24612199777494"><ele>1003.0</ele><time>2026-04-06T14:56:08.001Z</time></trkpt><trkpt lat="45.930747387211106" lon="11.246296853850527"><ele>1003.0</ele><time>2026-04-06T14:56:09.001Z</time></trkpt><trkpt lat="45.930679167519266" lon="11.246461294391244"><ele>1003.0</ele><time>2026-04-06T14:56:10.001Z</time></trkpt><trkpt lat="45.93060797172565" lon="11.246637039004916"><ele>1003.0</ele><time>2026-04-06T14:56:11.001Z</time></trkpt><trkpt lat="45.930533135290005" lon="11.246801463879159"><ele>1003.0</ele><time>2026-04-06T14:56:12.001Z</time></trkpt><trkpt lat="45.93046084991843" lon="11.246963363399393"><ele>1006.0</ele><time>2026-04-06T14:56:13.001Z</time></trkpt><trkpt lat="45.930392557991986" lon="11.247123298593786"><ele>1009.0</ele><time>2026-04-06T14:56:14.001Z</time></trkpt><trkpt lat="45.93032473465067" lon="11.247288479067485"><ele>1012.0</ele><time>2026-04-06T14:56:15.001Z</time></trkpt><trkpt lat="45.93026002951353" lon="11.247449920025725"><ele>1015.0</ele><time>2026-04-06T14:56:16.001Z</time></trkpt><trkpt lat="45.93020299964936" lon="11.247617889292673"><ele>1014.0</ele><time>2026-04-06T14:56:17.001Z</time></trkpt><trkpt lat="45.930149457464175" lon="11.247787727353991"><ele>1013.0</ele><time>2026-04-06T14:56:18.001Z</time></trkpt><trkpt lat="45.93009342709888" lon="11.247956656683094"><ele>1012.0</ele><time>2026-04-06T14:56:19.001Z</time></trkpt><trkpt lat="45.93004412381463" lon="11.248121335664854"><ele>1011.0</ele><time>2026-04-06T14:56:20.001Z</time></trkpt><trkpt lat="45.929997822957745" lon="11.248281756283651"><ele>1011.0</ele><time>2026-04-06T14:56:21.001Z</time></trkpt><trkpt lat="45.929951705773775" lon="11.248432663746279"><ele>1011.0</ele><time>2026-04-06T14:56:22.001Z</time></trkpt><trkpt lat="45.9298832974039" lon="11.24856582141758"><ele>1011.0</ele><time>2026-04-06T14:56:23.001Z</time></trkpt><trkpt lat="45.929836538775874" lon="11.248715434432961"><ele>1011.0</ele><time>2026-04-06T14:56:24.001Z</time></trkpt><trkpt lat="45.9297683645276" lon="11.24885968556613"><ele>1014.75</ele><time>2026-04-06T14:56:25.001Z</time></trkpt><trkpt lat="45.92970427894774" lon="11.249020405684666"><ele>1018.5</ele><time>2026-04-06T14:56:26.001Z</time></trkpt><trkpt lat="45.92964306654143" lon="11.249181689058124"><ele>1022.25</ele><time>2026-04-06T14:56:27.001Z</time></trkpt><trkpt lat="45.929606719546044" lon="11.249360766158366"><ele>1026.0</ele><time>2026-04-06T14:56:28.001Z</time></trkpt><trkpt lat="45.92958921311085" lon="11.249551373589767"><ele>1026.0</ele><time>2026-04-06T14:56:29.001Z</time></trkpt><trkpt lat="45.929590131314995" lon="11.24974660854504"><ele>1026.0</ele><time>2026-04-06T14:56:30.001Z</time></trkpt><trkpt lat="45.92958707863196" lon="11.249943634886344"><ele>1026.0</ele><time>2026-04-06T14:56:31.001Z</time></trkpt><trkpt lat="45.929558898482256" lon="11.250131181773208"><ele>1026.0</ele><time>2026-04-06T14:56:32.001Z</time></trkpt><trkpt lat="45.92952401952174" lon="11.250326961215585"><ele>1028.75</ele><time>2026-04-06T14:56:33.001Z</time></trkpt><trkpt lat="45.92947970277125" lon="11.25050541223691"><ele>1031.5</ele><time>2026-04-06T14:56:34.001Z</time></trkpt><trkpt lat="45.929408216566884" lon="11.250659838801576"><ele>1034.25</ele><time>2026-04-06T14:56:35.001Z</time></trkpt><trkpt lat="45.929310879504975" lon="11.250791240707882"><ele>1037.0</ele><time>2026-04-06T14:56:36.001Z</time></trkpt><trkpt lat="45.92918592458857" lon="11.250878603321906"><ele>1031.25</ele><time>2026-04-06T14:56:37.001Z</time></trkpt><trkpt lat="45.92907515104881" lon="11.25099218275868"><ele>1025.5</ele><time>2026-04-06T14:56:38.001Z</time></trkpt><trkpt lat="45.92896725270047" lon="11.251089583948819"><ele>1019.75</ele><time>2026-04-06T14:56:39.001Z</time></trkpt><trkpt lat="45.928870472464766" lon="11.251196548732004"><ele>1014.0</ele><time>2026-04-06T14:56:40.001Z</time></trkpt><trkpt lat="45.92879393591794" lon="11.251346155434033"><ele>1017.5</ele><time>2026-04-06T14:56:41.001Z</time></trkpt><trkpt lat="45.9287388179065" lon="11.251530766530129"><ele>1021.0</ele><time>2026-04-06T14:56:42.001Z</time></trkpt><trkpt lat="45.92868915879772" lon="11.251723749985647"><ele>1024.5</ele><time>2026-04-06T14:56:43.001Z</time></trkpt><trkpt lat="45.9286422593283" lon="11.251925519086747"><ele>1028.0</ele><time>2026-04-06T14:56:44.001Z</time></trkpt><trkpt lat="45.92859247250642" lon="11.252126138690347"><ele>1030.5</ele><time>2026-04-06T14:56:45.001Z</time></trkpt><trkpt lat="45.92854088640233" lon="11.252323064166879"><ele>1033.0</ele><time>2026-04-06T14:56:46.001Z</time></trkpt><trkpt lat="45.92848931191549" lon="11.252525390114382"><ele>1035.5</ele><time>2026-04-06T14:56:47.001Z</time></trkpt><trkpt lat="45.928438271763596" lon="11.252724587091317"><ele>1038.0</ele><time>2026-04-06T14:56:48.001Z</time></trkpt><trkpt lat="45.92838582603465" lon="11.252926341662533"><ele>1034.25</ele><time>2026-04-06T14:56:49.001Z</time></trkpt><trkpt lat="45.92833543368356" lon="11.25312873132611"><ele>1030.5</ele><time>2026-04-06T14:56:50.001Z</time></trkpt><trkpt lat="45.92828359737199" lon="11.253328044245242"><ele>1026.75</ele><time>2026-04-06T14:56:51.001Z</time></trkpt><trkpt lat="45.92823040354717" lon="11.253527525993155"><ele>1023.0</ele><time>2026-04-06T14:56:52.001Z</time></trkpt><trkpt lat="45.928179019623485" lon="11.253724536133122"><ele>1023.0</ele><time>2026-04-06T14:56:53Z</time></trkpt><trkpt lat="45.92813567532851" lon="11.253927593987235"><ele>1023.0</ele><time>2026-04-06T14:56:54Z</time></trkpt><trkpt lat="45.92810970197935" lon="11.254138309657431"><ele>1023.0</ele><time>2026-04-06T14:56:55Z</time></trkpt><trkpt lat="45.92810135676859" lon="11.254360802376732"><ele>1026.0</ele><time>2026-04-06T14:56:56Z</time></trkpt><trkpt lat="45.92810080189087" lon="11.25458613987854"><ele>1029.0</ele><time>2026-04-06T14:56:57Z</time></trkpt><trkpt lat="45.928102808698625" lon="11.254811103073779"><ele>1032.0</ele><time>2026-04-06T14:56:58Z</time></trkpt><trkpt lat="45.928106879375925" lon="11.25504073231204"><ele>1033.6666666666667</ele><time>2026-04-06T14:56:59Z</time></trkpt><trkpt lat="45.92810436048678" lon="11.25527140588524"><ele>1035.3333333333335</ele><time>2026-04-06T14:57:00Z</time></trkpt><trkpt lat="45.92809852274281" lon="11.255497849368101"><ele>1037.0</ele><time>2026-04-06T14:57:01Z</time></trkpt><trkpt lat="45.92809335954008" lon="11.255720727142975"><ele>1037.25</ele><time>2026-04-06T14:57:02Z</time></trkpt><trkpt lat="45.92809441750246" lon="11.255943639407135"><ele>1037.5</ele><time>2026-04-06T14:57:03Z</time></trkpt><trkpt lat="45.928094906803985" lon="11.25616114718874"><ele>1037.75</ele><time>2026-04-06T14:57:04Z</time></trkpt><trkpt lat="45.92809363973247" lon="11.256362845242752"><ele>1038.0</ele><time>2026-04-06T14:57:05Z</time></trkpt><trkpt lat="45.92808885003472" lon="11.256527585182306"><ele>1039.6666666666667</ele><time>2026-04-06T14:57:06Z</time></trkpt><trkpt lat="45.928093516773025" lon="11.256663296974432"><ele>1041.3333333333333</ele><time>2026-04-06T14:57:07Z</time></trkpt><trkpt lat="45.92812891180677" lon="11.25675717777746"><ele>1043.0</ele><time>2026-04-06T14:57:08Z</time></trkpt><trkpt lat="45.928199860629" lon="11.256801820654546"><ele>1044.6666666666665</ele><time>2026-04-06T14:57:09Z</time></trkpt><trkpt lat="45.928281757096535" lon="11.256799344403868"><ele>1046.3333333333333</ele><time>2026-04-06T14:57:10Z</time></trkpt><trkpt lat="45.928358914636334" lon="11.256726675346188"><ele>1048.0</ele><time>2026-04-06T14:57:11Z</time></trkpt><trkpt lat="45.92841820377627" lon="11.256612927362958"><ele>1051.75</ele><time>2026-04-06T14:57:12Z</time></trkpt><trkpt lat="45.92845459790791" lon="11.256468737408866"><ele>1055.5</ele><time>2026-04-06T14:57:13Z</time></trkpt><trkpt lat="45.928484188432066" lon="11.256302975670401"><ele>1059.25</ele><time>2026-04-06T14:57:14Z</time></trkpt><trkpt lat="45.928544116642904" lon="11.256148256176463"><ele>1063.0</ele><time>2026-04-06T14:57:15Z</time></trkpt><trkpt lat="45.92857169137654" lon="11.255970202480462"><ele>1063.0</ele><time>2026-04-06T14:57:16Z</time></trkpt><trkpt lat="45.928617332222956" lon="11.255802312132527"><ele>1063.0</ele><time>2026-04-06T14:57:17Z</time></trkpt><trkpt lat="45.928688224876645" lon="11.255642045825498"><ele>1063.0</ele><time>2026-04-06T14:57:18Z</time></trkpt><trkpt lat="45.92876300692198" lon="11.25548948767448"><ele>1063.0</ele><time>2026-04-06T14:57:19Z</time></trkpt><trkpt lat="45.92885626698287" lon="11.255353975585797"><ele>1061.75</ele><time>2026-04-06T14:57:20Z</time></trkpt><trkpt lat="45.928959837859956" lon="11.255225573755741"><ele>1060.5</ele><time>2026-04-06T14:57:21Z</time></trkpt><trkpt lat="45.92906421653603" lon="11.25509577629944"><ele>1059.25</ele><time>2026-04-06T14:57:22Z</time></trkpt><trkpt lat="45.929148960766746" lon="11.254939863845197"><ele>1058.0</ele><time>2026-04-06T14:57:23Z</time></trkpt><trkpt lat="45.929229980633664" lon="11.254783881317602"><ele>1064.0</ele><time>2026-04-06T14:57:24Z</time></trkpt><trkpt lat="45.92928515721098" lon="11.25460822450017"><ele>1070.0</ele><time>2026-04-06T14:57:25Z</time></trkpt><trkpt lat="45.929318471912936" lon="11.254422536744622"><ele>1076.0</ele><time>2026-04-06T14:57:26Z</time></trkpt><trkpt lat="45.929355171833635" lon="11.254240943301378"><ele>1082.0</ele><time>2026-04-06T14:57:27Z</time></trkpt><trkpt lat="45.9293694573448" lon="11.254056065141098"><ele>1081.75</ele><time>2026-04-06T14:57:28Z</time></trkpt><trkpt lat="45.9294099594694" lon="11.253885802050954"><ele>1081.5</ele><time>2026-04-06T14:57:29Z</time></trkpt><trkpt lat="45.92949018945899" lon="11.253751692378362"><ele>1081.25</ele><time>2026-04-06T14:57:30Z</time></trkpt><trkpt lat="45.92957884135263" lon="11.253616654412324"><ele>1081.0</ele><time>2026-04-06T14:57:31Z</time></trkpt><trkpt lat="45.9296726749952" lon="11.25346515136612"><ele>1081.0</ele><time>2026-04-06T14:57:32Z</time></trkpt><trkpt lat="45.92976972625707" lon="11.253307389682156"><ele>1081.0</ele><time>2026-04-06T14:57:33Z</time></trkpt><trkpt lat="45.92986190480657" lon="11.253154875277042"><ele>1081.0</ele><time>2026-04-06T14:57:34Z</time></trkpt><trkpt lat="45.92995017865866" lon="11.253008821445357"><ele>1081.0</ele><time>2026-04-06T14:57:35Z</time></trkpt><trkpt lat="45.93003712635429" lon="11.252869424241643"><ele>1082.25</ele><time>2026-04-06T14:57:36Z</time></trkpt><trkpt lat="45.93011386578663" lon="11.25271538510998"><ele>1083.5</ele><time>2026-04-06T14:57:37Z</time></trkpt><trkpt lat="45.93020424877207" lon="11.252572462196033"><ele>1084.75</ele><time>2026-04-06T14:57:38Z</time></trkpt><trkpt lat="45.93030748316354" lon="11.25243125176179"><ele>1086.0</ele><time>2026-04-06T14:57:39Z</time></trkpt><trkpt lat="45.930394135323645" lon="11.25224977013664"><ele>1086.0</ele><time>2026-04-06T14:57:40Z</time></trkpt><trkpt lat="45.93046794174726" lon="11.25204733452573"><ele>1086.0</ele><time>2026-04-06T14:57:41Z</time></trkpt><trkpt lat="45.930541199603674" lon="11.251843088259667"><ele>1086.0</ele><time>2026-04-06T14:57:42Z</time></trkpt><trkpt lat="45.93061765398077" lon="11.251635523785719"><ele>1083.6666666666667</ele><time>2026-04-06T14:57:43Z</time></trkpt><trkpt lat="45.93069335679757" lon="11.251429999732611"><ele>1081.3333333333335</ele><time>2026-04-06T14:57:44.001Z</time></trkpt><trkpt lat="45.930768754070115" lon="11.251222971915924"><ele>1079.0</ele><time>2026-04-06T14:57:45.001Z</time></trkpt><trkpt lat="45.93083933834638" lon="11.251023338616122"><ele>1081.0</ele><time>2026-04-06T14:57:46.001Z</time></trkpt><trkpt lat="45.93090804243663" lon="11.25083014923721"><ele>1083.0</ele><time>2026-04-06T14:57:47.001Z</time></trkpt><trkpt lat="45.930972527302636" lon="11.250652866180847"><ele>1085.0</ele><time>2026-04-06T14:57:48.001Z</time></trkpt><trkpt lat="45.93102752629819" lon="11.250493647355965"><ele>1087.0</ele><time>2026-04-06T14:57:49.001Z</time></trkpt><trkpt lat="45.93108070360215" lon="11.25036857774463"><ele>1087.0</ele><time>2026-04-06T14:57:50.001Z</time></trkpt><trkpt lat="45.931127810055216" lon="11.25026771526574"><ele>1087.0</ele><time>2026-04-06T14:57:51.001Z</time></trkpt><trkpt lat="45.93121185664264" lon="11.250241838904056"><ele>1087.0</ele><time>2026-04-06T14:57:52.001Z</time></trkpt><trkpt lat="45.931294627901785" lon="11.250312526435875"><ele>1087.0</ele><time>2026-04-06T14:57:53.001Z</time></trkpt><trkpt lat="45.93134752654005" lon="11.250399205043953"><ele>1087.0</ele><time>2026-04-06T14:57:54.001Z</time></trkpt><trkpt lat="45.931361572776034" lon="11.250525296139378"><ele>1087.0</ele><time>2026-04-06T14:57:55.001Z</time></trkpt><trkpt lat="45.93133739062464" lon="11.250656188550934"><ele>1089.75</ele><time>2026-04-06T14:57:56.001Z</time></trkpt><trkpt lat="45.93128731586584" lon="11.25078891785412"><ele>1092.5</ele><time>2026-04-06T14:57:57.001Z</time></trkpt><trkpt lat="45.931229634974976" lon="11.250927978266816"><ele>1095.25</ele><time>2026-04-06T14:57:58.001Z</time></trkpt><trkpt lat="45.931170912208245" lon="11.251080087313767"><ele>1098.0</ele><time>2026-04-06T14:57:59.001Z</time></trkpt><trkpt lat="45.93110931621445" lon="11.251237274477065"><ele>1098.0</ele><time>2026-04-06T14:58:00.001Z</time></trkpt><trkpt lat="45.9310593352135" lon="11.251408682466844"><ele>1098.0</ele><time>2026-04-06T14:58:01.001Z</time></trkpt><trkpt lat="45.93101866224241" lon="11.251595021922558"><ele>1098.0</ele><time>2026-04-06T14:58:02.001Z</time></trkpt><trkpt lat="45.930982130877695" lon="11.251788712794285"><ele>1098.0</ele><time>2026-04-06T14:58:03.001Z</time></trkpt><trkpt lat="45.93096839745744" lon="11.251995928202232"><ele>1100.6666666666667</ele><time>2026-04-06T14:58:04.001Z</time></trkpt><trkpt lat="45.93096586838662" lon="11.252208726329737"><ele>1103.3333333333335</ele><time>2026-04-06T14:58:05.001Z</time></trkpt><trkpt lat="45.93097681117722" lon="11.252426749408395"><ele>1106.0</ele><time>2026-04-06T14:58:06.001Z</time></trkpt><trkpt lat="45.93098971504974" lon="11.252642218735224"><ele>1107.0</ele><time>2026-04-06T14:58:07.001Z</time></trkpt><trkpt lat="45.93100012746473" lon="11.252862505787402"><ele>1108.0</ele><time>2026-04-06T14:58:08.001Z</time></trkpt><trkpt lat="45.93100892808996" lon="11.253087834401319"><ele>1109.0</ele><time>2026-04-06T14:58:09.001Z</time></trkpt><trkpt lat="45.931022723799686" lon="11.253317718390566"><ele>1110.3333333333335</ele><time>2026-04-06T14:58:10.001Z</time></trkpt><trkpt lat="45.931040914039656" lon="11.253550358640238"><ele>1111.6666666666667</ele><time>2026-04-06T14:58:11.001Z</time></trkpt><trkpt lat="45.931057112341804" lon="11.253782591811698"><ele>1113.0</ele><time>2026-04-06T14:58:12.001Z</time></trkpt><trkpt lat="45.93107363992104" lon="11.254014928113923"><ele>1114.3333333333333</ele><time>2026-04-06T14:58:13.001Z</time></trkpt><trkpt lat="45.93109026746319" lon="11.254247985374732"><ele>1115.6666666666665</ele><time>2026-04-06T14:58:14.001Z</time></trkpt><trkpt lat="45.93110618294877" lon="11.254481132960702"><ele>1117.0</ele><time>2026-04-06T14:58:15.001Z</time></trkpt><trkpt lat="45.93112152100752" lon="11.254714751353436"><ele>1118.0</ele><time>2026-04-06T14:58:16.001Z</time></trkpt><trkpt lat="45.93113769994341" lon="11.254947305437232"><ele>1119.0</ele><time>2026-04-06T14:58:17.001Z</time></trkpt><trkpt lat="45.931151892005815" lon="11.255181193821171"><ele>1120.0</ele><time>2026-04-06T14:58:18Z</time></trkpt><trkpt lat="45.931167547369824" lon="11.25541220605407"><ele>1122.3333333333333</ele><time>2026-04-06T14:58:19Z</time></trkpt><trkpt lat="45.93118559142951" lon="11.255642305206939"><ele>1124.6666666666667</ele><time>2026-04-06T14:58:20Z</time></trkpt><trkpt lat="45.93120051266312" lon="11.255865928084496"><ele>1127.0</ele><time>2026-04-06T14:58:21Z</time></trkpt><trkpt lat="45.931215728688926" lon="11.256067980907128"><ele>1127.0</ele><time>2026-04-06T14:58:22Z</time></trkpt><trkpt lat="45.93125145323766" lon="11.256255322258635"><ele>1127.0</ele><time>2026-04-06T14:58:23Z</time></trkpt><trkpt lat="45.931316394237825" lon="11.25643106563655"><ele>1127.0</ele><time>2026-04-06T14:58:24Z</time></trkpt><trkpt lat="45.931410143262205" lon="11.256578432918008"><ele>1127.0</ele><time>2026-04-06T14:58:25Z</time></trkpt><trkpt lat="45.93152532413594" lon="11.256688050678521"><ele>1128.0</ele><time>2026-04-06T14:58:26Z</time></trkpt><trkpt lat="45.93165743711619" lon="11.256749439671543"><ele>1129.0</ele><time>2026-04-06T14:58:27Z</time></trkpt><trkpt lat="45.93180651833762" lon="11.256765561432234"><ele>1130.0</ele><time>2026-04-06T14:58:28Z</time></trkpt><trkpt lat="45.93196271377026" lon="11.256754701727798"><ele>1131.0</ele><time>2026-04-06T14:58:29Z</time></trkpt><trkpt lat="45.93212295291405" lon="11.256723565692722"><ele>1131.3333333333333</ele><time>2026-04-06T14:58:30Z</time></trkpt><trkpt lat="45.93228342165905" lon="11.256703592363392"><ele>1131.6666666666665</ele><time>2026-04-06T14:58:31Z</time></trkpt><trkpt lat="45.93245025215733" lon="11.25668476953904"><ele>1132.0</ele><time>2026-04-06T14:58:32Z</time></trkpt><trkpt lat="45.93262007677847" lon="11.256666952876182"><ele>1132.6666666666665</ele><time>2026-04-06T14:58:33Z</time></trkpt><trkpt lat="45.93278795325361" lon="11.25664581846702"><ele>1133.3333333333333</ele><time>2026-04-06T14:58:34Z</time></trkpt><trkpt lat="45.93295339171078" lon="11.256630876466405"><ele>1134.0</ele><time>2026-04-06T14:58:35Z</time></trkpt><trkpt lat="45.9331140398309" lon="11.256610314158845"><ele>1134.0</ele><time>2026-04-06T14:58:36Z</time></trkpt><trkpt lat="45.933271248797965" lon="11.256572729641267"><ele>1134.0</ele><time>2026-04-06T14:58:37Z</time></trkpt><trkpt lat="45.93343139068357" lon="11.256526953649008"><ele>1134.0</ele><time>2026-04-06T14:58:38Z</time></trkpt><trkpt lat="45.93357925455223" lon="11.2564204472767"><ele>1134.6666666666667</ele><time>2026-04-06T14:58:39Z</time></trkpt><trkpt lat="45.933718038067" lon="11.256286592107125"><ele>1135.3333333333335</ele><time>2026-04-06T14:58:40Z</time></trkpt><trkpt lat="45.93383463494367" lon="11.256110348228736"><ele>1136.0</ele><time>2026-04-06T14:58:41Z</time></trkpt><trkpt lat="45.93396660547835" lon="11.255967918317719"><ele>1136.0</ele><time>2026-04-06T14:58:42Z</time></trkpt><trkpt lat="45.934091783000724" lon="11.255813099682694"><ele>1136.0</ele><time>2026-04-06T14:58:43Z</time></trkpt><trkpt lat="45.93421393024093" lon="11.25566530431834"><ele>1136.0</ele><time>2026-04-06T14:58:44Z</time></trkpt><trkpt lat="45.93433108957362" lon="11.255526648428715"><ele>1133.25</ele><time>2026-04-06T14:58:45Z</time></trkpt><trkpt lat="45.93444581416296" lon="11.255424283033097"><ele>1130.5</ele><time>2026-04-06T14:58:46Z</time></trkpt><trkpt lat="45.93456777016364" lon="11.25539263267179"><ele>1127.75</ele><time>2026-04-06T14:58:47Z</time></trkpt><trkpt lat="45.93469367412853" lon="11.255419235319739"><ele>1125.0</ele><time>2026-04-06T14:58:48Z</time></trkpt><trkpt lat="45.934806553063666" lon="11.255496197667322"><ele>1125.0</ele><time>2026-04-06T14:58:49Z</time></trkpt><trkpt lat="45.93491246766567" lon="11.255599109237703"><ele>1125.0</ele><time>2026-04-06T14:58:50Z</time></trkpt><trkpt lat="45.93498800413859" lon="11.255758480420035"><ele>1125.0</ele><time>2026-04-06T14:58:51Z</time></trkpt><trkpt lat="45.93507241682145" lon="11.255895425189024"><ele>1125.0</ele><time>2026-04-06T14:58:52Z</time></trkpt><trkpt lat="45.935194637776206" lon="11.255962740637793"><ele>1130.25</ele><time>2026-04-06T14:58:53Z</time></trkpt><trkpt lat="45.935323120226656" lon="11.25596333174833"><ele>1135.5</ele><time>2026-04-06T14:58:54Z</time></trkpt><trkpt lat="45.93545876693964" lon="11.255944775783519"><ele>1140.75</ele><time>2026-04-06T14:58:55Z</time></trkpt><trkpt lat="45.935594937148075" lon="11.255889060618749"><ele>1146.0</ele><time>2026-04-06T14:58:56Z</time></trkpt><trkpt lat="45.93573486596123" lon="11.255832187772976"><ele>1146.0</ele><time>2026-04-06T14:58:57Z</time></trkpt><trkpt lat="45.93587888845835" lon="11.255774134950677"><ele>1146.0</ele><time>2026-04-06T14:58:58Z</time></trkpt><trkpt lat="45.93602379813543" lon="11.255715745074673"><ele>1146.0</ele><time>2026-04-06T14:58:59Z</time></trkpt><trkpt lat="45.93617750375534" lon="11.255653810968864"><ele>1143.0</ele><time>2026-04-06T14:59:00Z</time></trkpt><trkpt lat="45.93632504975279" lon="11.255570754761793"><ele>1140.0</ele><time>2026-04-06T14:59:01Z</time></trkpt><trkpt lat="45.93647775087851" lon="11.25550831446742"><ele>1137.0</ele><time>2026-04-06T14:59:02Z</time></trkpt><trkpt lat="45.93662884844252" lon="11.255448810792595"><ele>1138.3333333333333</ele><time>2026-04-06T14:59:03Z</time></trkpt><trkpt lat="45.93677965115407" lon="11.255383220074632"><ele>1139.6666666666665</ele><time>2026-04-06T14:59:04Z</time></trkpt><trkpt lat="45.93692714417749" lon="11.255330072731297"><ele>1141.0</ele><time>2026-04-06T14:59:05Z</time></trkpt><trkpt lat="45.937076752753256" lon="11.255287679672538"><ele>1141.0</ele><time>2026-04-06T14:59:06Z</time></trkpt><trkpt lat="45.93722062159274" lon="11.255261325171139"><ele>1141.0</ele><time>2026-04-06T14:59:07Z</time></trkpt><trkpt lat="45.937360799977206" lon="11.255248282614854"><ele>1141.0</ele><time>2026-04-06T14:59:08Z</time></trkpt><trkpt lat="45.937500187117195" lon="11.255241107818314"><ele>1141.0</ele><time>2026-04-06T14:59:09Z</time></trkpt><trkpt lat="45.93763049719573" lon="11.25525133826034"><ele>1142.3999999999999</ele><time>2026-04-06T14:59:10Z</time></trkpt><trkpt lat="45.937747067346535" lon="11.25526928312942"><ele>1143.8</ele><time>2026-04-06T14:59:11Z</time></trkpt><trkpt lat="45.93784090206454" lon="11.255285301440344"><ele>1145.1999999999998</ele><time>2026-04-06T14:59:12Z</time></trkpt><trkpt lat="45.93791991484309" lon="11.255312456079205"><ele>1146.6</ele><time>2026-04-06T14:59:13Z</time></trkpt><trkpt lat="45.93798715720054" lon="11.255321843562058"><ele>1148.0</ele><time>2026-04-06T14:59:14Z</time></trkpt><trkpt lat="45.93805009388104" lon="11.255202364630586"><ele>1148.0</ele><time>2026-04-06T14:59:15Z</time></trkpt><trkpt lat="45.93811031157155" lon="11.25514573092777"><ele>1148.0</ele><time>2026-04-06T14:59:16Z</time></trkpt><trkpt lat="45.93816713187733" lon="11.255080079114995"><ele>1148.0</ele><time>2026-04-06T14:59:17Z</time></trkpt><trkpt lat="45.938233233166514" lon="11.255030430291326"><ele>1148.0</ele><time>2026-04-06T14:59:18Z</time></trkpt><trkpt lat="45.93829109745524" lon="11.254943889051876"><ele>1148.0</ele><time>2026-04-06T14:59:19Z</time></trkpt><trkpt lat="45.938339198836374" lon="11.25485682322903"><ele>1148.0</ele><time>2026-04-06T14:59:20Z</time></trkpt><trkpt lat="45.93838759330288" lon="11.254769541116731"><ele>1148.3333333333335</ele><time>2026-04-06T14:59:21Z</time></trkpt><trkpt lat="45.938436976503716" lon="11.254682966834293"><ele>1148.6666666666667</ele><time>2026-04-06T14:59:22Z</time></trkpt><trkpt lat="45.938486844639286" lon="11.254595542398327"><ele>1149.0</ele><time>2026-04-06T14:59:23Z</time></trkpt><trkpt lat="45.93853647567975" lon="11.2545076594149"><ele>1149.3333333333333</ele><time>2026-04-06T14:59:24Z</time></trkpt><trkpt lat="45.93857642072613" lon="11.254436196549689"><ele>1149.6666666666665</ele><time>2026-04-06T14:59:25Z</time></trkpt><trkpt lat="45.93865599989569" lon="11.254294055756331"><ele>1150.0</ele><time>2026-04-06T14:59:27Z</time></trkpt><trkpt lat="45.938702593365214" lon="11.254203115029256"><ele>1150.0</ele><time>2026-04-06T14:59:28Z</time></trkpt><trkpt lat="45.93874186372727" lon="11.254128224903832"><ele>1150.0</ele><time>2026-04-06T14:59:29Z</time></trkpt><trkpt lat="45.93878634121095" lon="11.254023843389598"><ele>1150.0</ele><time>2026-04-06T14:59:31Z</time></trkpt><trkpt lat="45.938680993950555" lon="11.253937080259968"><ele>1150.0</ele><time>2026-04-06T14:59:33Z</time></trkpt><trkpt lat="45.93862729410787" lon="11.254059951757274"><ele>1150.0</ele><time>2026-04-06T14:59:34Z</time></trkpt><trkpt lat="45.938565593956326" lon="11.254171619406845"><ele>1150.0</ele><time>2026-04-06T14:59:36Z</time></trkpt><trkpt lat="45.938480190021544" lon="11.254269700007056"><ele>1150.0</ele><time>2026-04-06T14:59:38Z</time></trkpt><trkpt lat="45.9383790072417" lon="11.254345322956896"><ele>1150.0</ele><time>2026-04-06T14:59:39Z</time></trkpt><trkpt lat="45.93829106954595" lon="11.254369246970075"><ele>1150.0</ele><time>2026-04-06T14:59:40Z</time></trkpt><trkpt lat="45.938204748168125" lon="11.254392784845603"><ele>1150.0</ele><time>2026-04-06T14:59:41Z</time></trkpt><trkpt lat="45.938122203741486" lon="11.254414675633793"><ele>1146.6</ele><time>2026-04-06T14:59:42Z</time></trkpt><trkpt lat="45.93805437879329" lon="11.25442812424304"><ele>1143.2</ele><time>2026-04-06T14:59:43Z</time></trkpt><trkpt lat="45.93796169856599" lon="11.254411756107313"><ele>1139.8</ele><time>2026-04-06T14:59:45Z</time></trkpt><trkpt lat="45.9380571366729" lon="11.254303352366897"><ele>1136.4</ele><time>2026-04-06T14:59:48Z</time></trkpt><trkpt lat="45.938148163806346" lon="11.25422772348981"><ele>1133.0</ele><time>2026-04-06T14:59:50.001Z</time></trkpt><trkpt lat="45.93822889270234" lon="11.254160650791741"><ele>1133.0</ele><time>2026-04-06T14:59:52.001Z</time></trkpt><trkpt lat="45.93831119922196" lon="11.254088228731826"><ele>1133.0</ele><time>2026-04-06T14:59:54.001Z</time></trkpt><trkpt lat="45.93840004333403" lon="11.253981827300457"><ele>1133.0</ele><time>2026-04-06T14:59:56.001Z</time></trkpt><trkpt lat="45.938481133775646" lon="11.25383420605973"><ele>1133.0</ele><time>2026-04-06T14:59:58.001Z</time></trkpt><trkpt lat="45.93851823929192" lon="11.253751276170117"><ele>1133.0</ele><time>2026-04-06T14:59:59.001Z</time></trkpt><trkpt lat="45.9385558648789" lon="11.253667215342922"><ele>1132.3333333333335</ele><time>2026-04-06T15:00:00.001Z</time></trkpt><trkpt lat="45.93858544337362" lon="11.253565772046082"><ele>1131.6666666666667</ele><time>2026-04-06T15:00:01.001Z</time></trkpt><trkpt lat="45.93862494495946" lon="11.253468615578278"><ele>1131.0</ele><time>2026-04-06T15:00:02.001Z</time></trkpt><trkpt lat="45.93866052396192" lon="11.253371098678254"><ele>1130.3333333333333</ele><time>2026-04-06T15:00:03.001Z</time></trkpt><trkpt lat="45.938655606054645" lon="11.253248008070567"><ele>1129.6666666666665</ele><time>2026-04-06T15:00:04.001Z</time></trkpt><trkpt lat="45.93859290661393" lon="11.253142414375533"><ele>1129.0</ele><time>2026-04-06T15:00:05.001Z</time></trkpt><trkpt lat="45.93853300527009" lon="11.253046134862934"><ele>1129.0</ele><time>2026-04-06T15:00:06.001Z</time></trkpt><trkpt lat="45.93849720380945" lon="11.252940929765193"><ele>1129.0</ele><time>2026-04-06T15:00:07.001Z</time></trkpt><trkpt lat="45.93845400470309" lon="11.252847690308258"><ele>1129.0</ele><time>2026-04-06T15:00:08.001Z</time></trkpt><trkpt lat="45.93841327100436" lon="11.252765748507043"><ele>1129.0</ele><time>2026-04-06T15:00:09.001Z</time></trkpt><trkpt lat="45.93836012298809" lon="11.252644580363347"><ele>1129.0</ele><time>2026-04-06T15:00:11.001Z</time></trkpt><trkpt lat="45.93832826323062" lon="11.252555638435663"><ele>1129.0</ele><time>2026-04-06T15:00:13.001Z</time></trkpt><trkpt lat="45.93820718200355" lon="11.252587879481384"><ele>1117.0</ele><time>2026-04-06T15:00:21Z</time></trkpt><trkpt lat="45.938170080954485" lon="11.252664392069397"><ele>1117.0</ele><time>2026-04-06T15:00:23Z</time></trkpt><trkpt lat="45.93816610475215" lon="11.25277677094959"><ele>1117.0</ele><time>2026-04-06T15:00:26Z</time></trkpt></trkseg><trkseg><trkpt lat="45.93815450882994" lon="11.252699527274306"><ele>1117.0</ele><time>2026-04-06T15:20:52Z</time></trkpt><trkpt lat="45.93819380441981" lon="11.25259911524972"><ele>1117.0</ele><time>2026-04-06T15:20:55Z</time></trkpt><trkpt lat="45.93825725772666" lon="11.252537751530287"><ele>1117.0</ele><time>2026-04-06T15:20:57Z</time></trkpt><trkpt lat="45.938331537306006" lon="11.252623635421788"><ele>1117.0</ele><time>2026-04-06T15:21:00Z</time></trkpt><trkpt lat="45.93839117315362" lon="11.252762841597114"><ele>1117.0</ele><time>2026-04-06T15:21:02Z</time></trkpt><trkpt lat="45.93842111357356" lon="11.252846048266065"><ele>1117.0</ele><time>2026-04-06T15:21:03Z</time></trkpt><trkpt lat="45.93846227978508" lon="11.252927218511896"><ele>1120.0</ele><time>2026-04-06T15:21:04Z</time></trkpt><trkpt lat="45.93851964623422" lon="11.253052998900761"><ele>1123.0</ele><time>2026-04-06T15:21:06Z</time></trkpt><trkpt lat="45.938574439539934" lon="11.253191396387644"><ele>1126.0</ele><time>2026-04-06T15:21:08Z</time></trkpt><trkpt lat="45.93863453070555" lon="11.253340511956768"><ele>1129.0</ele><time>2026-04-06T15:21:10Z</time></trkpt><trkpt lat="45.93861709100432" lon="11.25351005149701"><ele>1129.6666666666665</ele><time>2026-04-06T15:21:12Z</time></trkpt><trkpt lat="45.93855834501706" lon="11.253572934785506"><ele>1130.3333333333333</ele><time>2026-04-06T15:21:13Z</time></trkpt><trkpt lat="45.93852587227289" lon="11.253676708878448"><ele>1131.0</ele><time>2026-04-06T15:21:14Z</time></trkpt><trkpt lat="45.938477305283854" lon="11.253766050815361"><ele>1131.6666666666667</ele><time>2026-04-06T15:21:15Z</time></trkpt><trkpt lat="45.938424539691" lon="11.253877282241804"><ele>1132.3333333333335</ele><time>2026-04-06T15:21:16Z</time></trkpt><trkpt lat="45.93836717944643" lon="11.253975840594464"><ele>1133.0</ele><time>2026-04-06T15:21:17Z</time></trkpt><trkpt lat="45.93829562867887" lon="11.254062549500155"><ele>1133.0</ele><time>2026-04-06T15:21:18Z</time></trkpt><trkpt lat="45.93822061826394" lon="11.254135903755557"><ele>1133.0</ele><time>2026-04-06T15:21:19Z</time></trkpt><trkpt lat="45.938149525541725" lon="11.254189271387279"><ele>1133.0</ele><time>2026-04-06T15:21:20Z</time></trkpt><trkpt lat="45.938090805410674" lon="11.254228634949813"><ele>1133.0</ele><time>2026-04-06T15:21:21Z</time></trkpt><trkpt lat="45.938022022960105" lon="11.254290508411737"><ele>1133.0</ele><time>2026-04-06T15:21:23Z</time></trkpt><trkpt lat="45.937963271280815" lon="11.254328161427594"><ele>1133.0</ele><time>2026-04-06T15:21:27Z</time></trkpt><trkpt lat="45.93802053762092" lon="11.254490192583454"><ele>1133.0</ele><time>2026-04-06T15:21:29Z</time></trkpt><trkpt lat="45.93811926651825" lon="11.254475550054888"><ele>1133.0</ele><time>2026-04-06T15:21:30Z</time></trkpt><trkpt lat="45.93822823484915" lon="11.254434936327902"><ele>1133.0</ele><time>2026-04-06T15:21:31Z</time></trkpt><trkpt lat="45.938317675548404" lon="11.25439120189795"><ele>1133.0</ele><time>2026-04-06T15:21:32Z</time></trkpt><trkpt lat="45.938415513954375" lon="11.254373529917084"><ele>1133.0</ele><time>2026-04-06T15:21:33Z</time></trkpt><trkpt lat="45.9385060112296" lon="11.25430125481737"><ele>1136.4</ele><time>2026-04-06T15:21:34Z</time></trkpt><trkpt lat="45.93858382507575" lon="11.254207343468638"><ele>1139.8</ele><time>2026-04-06T15:21:35Z</time></trkpt><trkpt lat="45.93864600973204" lon="11.254105034709642"><ele>1143.2</ele><time>2026-04-06T15:21:36Z</time></trkpt><trkpt lat="45.93869407031737" lon="11.25403072861188"><ele>1146.6</ele><time>2026-04-06T15:21:37Z</time></trkpt><trkpt lat="45.938760720251906" lon="11.254040878239907"><ele>1150.0</ele><time>2026-04-06T15:21:40Z</time></trkpt><trkpt lat="45.93869053645709" lon="11.254190870914233"><ele>1150.0</ele><time>2026-04-06T15:21:42Z</time></trkpt><trkpt lat="45.93862674120545" lon="11.254269282915532"><ele>1150.0</ele><time>2026-04-06T15:21:43Z</time></trkpt><trkpt lat="45.938560957876696" lon="11.254373740893001"><ele>1150.0</ele><time>2026-04-06T15:21:44Z</time></trkpt><trkpt lat="45.938495463227426" lon="11.254495680153784"><ele>1150.0</ele><time>2026-04-06T15:21:45Z</time></trkpt><trkpt lat="45.938424246455845" lon="11.254618663867536"><ele>1150.0</ele><time>2026-04-06T15:21:46Z</time></trkpt><trkpt lat="45.93835786882976" lon="11.254748833605042"><ele>1149.6</ele><time>2026-04-06T15:21:47Z</time></trkpt><trkpt lat="45.9382938766926" lon="11.254880876436507"><ele>1149.2</ele><time>2026-04-06T15:21:48Z</time></trkpt><trkpt lat="45.93822863007202" lon="11.254995820920614"><ele>1148.8</ele><time>2026-04-06T15:21:49Z</time></trkpt><trkpt lat="45.938147752068424" lon="11.255068221364652"><ele>1148.4</ele><time>2026-04-06T15:21:50Z</time></trkpt><trkpt lat="45.93807807390366" lon="11.255145388027502"><ele>1148.0</ele><time>2026-04-06T15:21:51Z</time></trkpt><trkpt lat="45.938007184190965" lon="11.255187904318358"><ele>1148.0</ele><time>2026-04-06T15:21:52Z</time></trkpt><trkpt lat="45.93795307682777" lon="11.255252453758462"><ele>1148.0</ele><time>2026-04-06T15:21:54Z</time></trkpt><trkpt lat="45.93784135071559" lon="11.255270469741067"><ele>1148.0</ele><time>2026-04-06T15:21:56Z</time></trkpt><trkpt lat="45.93774765209026" lon="11.255250416445959"><ele>1148.0</ele><time>2026-04-06T15:21:57Z</time></trkpt><trkpt lat="45.93764311199686" lon="11.255236080451503"><ele>1148.0</ele><time>2026-04-06T15:21:58Z</time></trkpt><trkpt lat="45.937535515766285" lon="11.25522618898469"><ele>1146.6</ele><time>2026-04-06T15:21:59Z</time></trkpt><trkpt lat="45.93742982839921" lon="11.255221914500707"><ele>1145.1999999999998</ele><time>2026-04-06T15:22:00Z</time></trkpt><trkpt lat="45.93733216435534" lon="11.255230837112693"><ele>1143.8</ele><time>2026-04-06T15:22:01Z</time></trkpt><trkpt lat="45.93723351060876" lon="11.255245275005342"><ele>1142.3999999999999</ele><time>2026-04-06T15:22:02Z</time></trkpt><trkpt lat="45.93711827862411" lon="11.255252166968097"><ele>1141.0</ele><time>2026-04-06T15:22:03Z</time></trkpt><trkpt lat="45.93698164323961" lon="11.255285976031193"><ele>1141.0</ele><time>2026-04-06T15:22:04Z</time></trkpt><trkpt lat="45.936839114963824" lon="11.255334892607818"><ele>1141.0</ele><time>2026-04-06T15:22:05Z</time></trkpt><trkpt lat="45.936704553339425" lon="11.255408733304971"><ele>1141.0</ele><time>2026-04-06T15:22:06Z</time></trkpt><trkpt lat="45.93656242944102" lon="11.255457622261547"><ele>1141.0</ele><time>2026-04-06T15:22:07Z</time></trkpt><trkpt lat="45.93641572898924" lon="11.255511062763574"><ele>1139.6666666666665</ele><time>2026-04-06T15:22:08Z</time></trkpt><trkpt lat="45.936266699889615" lon="11.255572874885383"><ele>1138.3333333333333</ele><time>2026-04-06T15:22:09Z</time></trkpt><trkpt lat="45.93611470897702" lon="11.255633900659932"><ele>1137.0</ele><time>2026-04-06T15:22:10Z</time></trkpt><trkpt lat="45.93596401797529" lon="11.255695140749681"><ele>1140.0</ele><time>2026-04-06T15:22:11Z</time></trkpt><trkpt lat="45.93581213003409" lon="11.255757043474812"><ele>1143.0</ele><time>2026-04-06T15:22:12Z</time></trkpt><trkpt lat="45.935667605414984" lon="11.255812304773036"><ele>1146.0</ele><time>2026-04-06T15:22:13Z</time></trkpt><trkpt lat="45.93553009323229" lon="11.25586791756592"><ele>1146.0</ele><time>2026-04-06T15:22:14Z</time></trkpt><trkpt lat="45.93540689968355" lon="11.255915663765805"><ele>1146.0</ele><time>2026-04-06T15:22:15Z</time></trkpt><trkpt lat="45.93528951871575" lon="11.255942837169895"><ele>1146.0</ele><time>2026-04-06T15:22:16Z</time></trkpt><trkpt lat="45.935172115491525" lon="11.255919535044312"><ele>1146.0</ele><time>2026-04-06T15:22:17Z</time></trkpt><trkpt lat="45.93506615681911" lon="11.25584400858251"><ele>1145.5</ele><time>2026-04-06T15:22:18Z</time></trkpt><trkpt lat="45.93498938263506" lon="11.25570541876849"><ele>1145.0</ele><time>2026-04-06T15:22:19Z</time></trkpt><trkpt lat="45.93490413521362" lon="11.255586509304646"><ele>1144.5</ele><time>2026-04-06T15:22:20Z</time></trkpt><trkpt lat="45.93482819896525" lon="11.255459009716905"><ele>1144.0</ele><time>2026-04-06T15:22:21Z</time></trkpt><trkpt lat="45.93473826952847" lon="11.25537403248539"><ele>1139.25</ele><time>2026-04-06T15:22:21.999Z</time></trkpt><trkpt lat="45.934618228218426" lon="11.255342322590703"><ele>1134.5</ele><time>2026-04-06T15:22:22.999Z</time></trkpt><trkpt lat="45.93450071878547" lon="11.255359186954923"><ele>1129.75</ele><time>2026-04-06T15:22:23.999Z</time></trkpt><trkpt lat="45.934386560537625" lon="11.255410798138644"><ele>1125.0</ele><time>2026-04-06T15:22:24.999Z</time></trkpt><trkpt lat="45.93427490193377" lon="11.255507036482111"><ele>1127.75</ele><time>2026-04-06T15:22:25.999Z</time></trkpt><trkpt lat="45.93416897834237" lon="11.255634296940954"><ele>1130.5</ele><time>2026-04-06T15:22:26.999Z</time></trkpt><trkpt lat="45.93406709022053" lon="11.255785956873122"><ele>1133.25</ele><time>2026-04-06T15:22:27.999Z</time></trkpt><trkpt lat="45.93394930571522" lon="11.25593136476044"><ele>1136.0</ele><time>2026-04-06T15:22:28.999Z</time></trkpt><trkpt lat="45.93382805599876" lon="11.256070550904752"><ele>1136.0</ele><time>2026-04-06T15:22:29.999Z</time></trkpt><trkpt lat="45.9337083935314" lon="11.256210832277915"><ele>1136.0</ele><time>2026-04-06T15:22:30.999Z</time></trkpt><trkpt lat="45.93358565793407" lon="11.256346877656055"><ele>1136.0</ele><time>2026-04-06T15:22:31.999Z</time></trkpt><trkpt lat="45.93345441392613" lon="11.256463061718515"><ele>1135.3333333333335</ele><time>2026-04-06T15:22:32.999Z</time></trkpt><trkpt lat="45.933309755413795" lon="11.256536766559696"><ele>1134.6666666666667</ele><time>2026-04-06T15:22:34Z</time></trkpt><trkpt lat="45.93315750395409" lon="11.25658435037101"><ele>1134.0</ele><time>2026-04-06T15:22:35Z</time></trkpt><trkpt lat="45.93299963599817" lon="11.256599738628713"><ele>1134.0</ele><time>2026-04-06T15:22:36Z</time></trkpt><trkpt lat="45.93284510425437" lon="11.256610353415264"><ele>1134.0</ele><time>2026-04-06T15:22:37Z</time></trkpt><trkpt lat="45.93269402586404" lon="11.256623732384329"><ele>1134.0</ele><time>2026-04-06T15:22:38Z</time></trkpt><trkpt lat="45.932535319034145" lon="11.256643054426377"><ele>1133.3333333333333</ele><time>2026-04-06T15:22:39Z</time></trkpt><trkpt lat="45.93238290297561" lon="11.256660668049218"><ele>1132.6666666666665</ele><time>2026-04-06T15:22:40Z</time></trkpt><trkpt lat="45.932227304562836" lon="11.256677982725066"><ele>1132.0</ele><time>2026-04-06T15:22:41Z</time></trkpt><trkpt lat="45.93207415644618" lon="11.256694615022228"><ele>1132.0</ele><time>2026-04-06T15:22:42Z</time></trkpt><trkpt lat="45.93192786099285" lon="11.256710903507543"><ele>1132.0</ele><time>2026-04-06T15:22:43Z</time></trkpt><trkpt lat="45.931798321282976" lon="11.256721485936591"><ele>1132.0</ele><time>2026-04-06T15:22:44Z</time></trkpt><trkpt lat="45.93167637400571" lon="11.256712353962609"><ele>1132.0</ele><time>2026-04-06T15:22:45Z</time></trkpt><trkpt lat="45.93156002155338" lon="11.256660594451635"><ele>1131.75</ele><time>2026-04-06T15:22:46Z</time></trkpt><trkpt lat="45.93144473576837" lon="11.256562287029357"><ele>1131.5</ele><time>2026-04-06T15:22:47Z</time></trkpt><trkpt lat="45.931346029389196" lon="11.256424176736122"><ele>1131.25</ele><time>2026-04-06T15:22:48Z</time></trkpt><trkpt lat="45.93129760760191" lon="11.256241508688948"><ele>1131.0</ele><time>2026-04-06T15:22:49Z</time></trkpt><trkpt lat="45.93125383865859" lon="11.25604966933233"><ele>1129.6666666666667</ele><time>2026-04-06T15:22:50Z</time></trkpt><trkpt lat="45.93123657686017" lon="11.25584035192792"><ele>1128.3333333333335</ele><time>2026-04-06T15:22:51Z</time></trkpt><trkpt lat="45.93120593335389" lon="11.255613820746673"><ele>1127.0</ele><time>2026-04-06T15:22:52Z</time></trkpt><trkpt lat="45.93119526641963" lon="11.255372448884028"><ele>1124.6666666666667</ele><time>2026-04-06T15:22:53Z</time></trkpt><trkpt lat="45.93117866504339" lon="11.255119280568211"><ele>1122.3333333333333</ele><time>2026-04-06T15:22:54Z</time></trkpt><trkpt lat="45.93116130501377" lon="11.254859931022423"><ele>1120.0</ele><time>2026-04-06T15:22:55Z</time></trkpt><trkpt lat="45.93114214225986" lon="11.254596989067794"><ele>1119.0</ele><time>2026-04-06T15:22:56Z</time></trkpt><trkpt lat="45.93112420571477" lon="11.254331062298299"><ele>1118.0</ele><time>2026-04-06T15:22:57Z</time></trkpt><trkpt lat="45.93110840226596" lon="11.254066247557619"><ele>1117.0</ele><time>2026-04-06T15:22:58Z</time></trkpt><trkpt lat="45.93109184807257" lon="11.253806232107806"><ele>1115.6666666666665</ele><time>2026-04-06T15:22:59Z</time></trkpt><trkpt lat="45.931074096324544" lon="11.253551750198298"><ele>1114.3333333333333</ele><time>2026-04-06T15:23:00Z</time></trkpt><trkpt lat="45.931057943424236" lon="11.253301814680352"><ele>1113.0</ele><time>2026-04-06T15:23:01Z</time></trkpt><trkpt lat="45.931042282191825" lon="11.253056492025424"><ele>1111.6666666666667</ele><time>2026-04-06T15:23:02Z</time></trkpt><trkpt lat="45.93102867792533" lon="11.252813799887255"><ele>1110.3333333333335</ele><time>2026-04-06T15:23:03Z</time></trkpt><trkpt lat="45.93101313884093" lon="11.252574126821402"><ele>1109.0</ele><time>2026-04-06T15:23:04Z</time></trkpt><trkpt lat="45.9309982767864" lon="11.25233983717102"><ele>1108.0</ele><time>2026-04-06T15:23:05Z</time></trkpt><trkpt lat="45.93098857452054" lon="11.252108719858551"><ele>1107.0</ele><time>2026-04-06T15:23:06Z</time></trkpt><trkpt lat="45.93101037242898" lon="11.251887745048485"><ele>1106.0</ele><time>2026-04-06T15:23:07Z</time></trkpt><trkpt lat="45.93103800548329" lon="11.251672017002601"><ele>1106.0</ele><time>2026-04-06T15:23:08Z</time></trkpt><trkpt lat="45.9310805942973" lon="11.251459882528177"><ele>1106.0</ele><time>2026-04-06T15:23:09Z</time></trkpt><trkpt lat="45.93114331594018" lon="11.251265715957775"><ele>1106.0</ele><time>2026-04-06T15:23:10Z</time></trkpt><trkpt lat="45.931202173568025" lon="11.251063957054189"><ele>1104.0</ele><time>2026-04-06T15:23:11Z</time></trkpt><trkpt lat="45.93127978137315" lon="11.250890141001937"><ele>1102.0</ele><time>2026-04-06T15:23:12Z</time></trkpt><trkpt lat="45.931346400045385" lon="11.250736624587539"><ele>1100.0</ele><time>2026-04-06T15:23:13Z</time></trkpt><trkpt lat="45.93138898579531" lon="11.25060250389635"><ele>1098.0</ele><time>2026-04-06T15:23:14Z</time></trkpt><trkpt lat="45.93141271172791" lon="11.250482303134643"><ele>1096.1666666666667</ele><time>2026-04-06T15:23:15Z</time></trkpt><trkpt lat="45.9314035258156" lon="11.25036679840545"><ele>1094.3333333333333</ele><time>2026-04-06T15:23:16Z</time></trkpt><trkpt lat="45.9313571273122" lon="11.250271037123339"><ele>1092.5</ele><time>2026-04-06T15:23:17Z</time></trkpt><trkpt lat="45.93127798670332" lon="11.250213985953668"><ele>1090.6666666666665</ele><time>2026-04-06T15:23:18Z</time></trkpt><trkpt lat="45.93118356175389" lon="11.25021065066988"><ele>1088.8333333333333</ele><time>2026-04-06T15:23:19Z</time></trkpt><trkpt lat="45.931095839238765" lon="11.25026851772006"><ele>1087.0</ele><time>2026-04-06T15:23:20Z</time></trkpt><trkpt lat="45.931023699646786" lon="11.250385200714877"><ele>1087.0</ele><time>2026-04-06T15:23:21Z</time></trkpt><trkpt lat="45.930962605349535" lon="11.250542880969938"><ele>1087.0</ele><time>2026-04-06T15:23:22Z</time></trkpt><trkpt lat="45.93090810179129" lon="11.250725063626614"><ele>1087.0</ele><time>2026-04-06T15:23:23Z</time></trkpt><trkpt lat="45.9308483753459" lon="11.250912616446563"><ele>1087.0</ele><time>2026-04-06T15:23:24Z</time></trkpt><trkpt lat="45.93078305506342" lon="11.251106498469635"><ele>1086.6666666666665</ele><time>2026-04-06T15:23:25Z</time></trkpt><trkpt lat="45.93070820579507" lon="11.251305863559555"><ele>1086.3333333333333</ele><time>2026-04-06T15:23:26Z</time></trkpt><trkpt lat="45.930636643970054" lon="11.251513131705858"><ele>1086.0</ele><time>2026-04-06T15:23:27Z</time></trkpt><trkpt lat="45.93056127288486" lon="11.251719442249764"><ele>1086.0</ele><time>2026-04-06T15:23:28Z</time></trkpt><trkpt lat="45.93048366435153" lon="11.251924441737405"><ele>1086.0</ele><time>2026-04-06T15:23:29Z</time></trkpt><trkpt lat="45.930406356430574" lon="11.252127523314527"><ele>1086.0</ele><time>2026-04-06T15:23:30Z</time></trkpt><trkpt lat="45.93032150339108" lon="11.252325057274664"><ele>1089.0</ele><time>2026-04-06T15:23:31Z</time></trkpt><trkpt lat="45.93021883953821" lon="11.252516400588167"><ele>1092.0</ele><time>2026-04-06T15:23:32Z</time></trkpt><trkpt lat="45.930104666592996" lon="11.252697797401122"><ele>1095.0</ele><time>2026-04-06T15:23:33Z</time></trkpt><trkpt lat="45.9299850078944" lon="11.252879392980745"><ele>1090.3333333333333</ele><time>2026-04-06T15:23:34Z</time></trkpt><trkpt lat="45.92986726733316" lon="11.253066256739034"><ele>1085.6666666666665</ele><time>2026-04-06T15:23:35Z</time></trkpt><trkpt lat="45.929749984095245" lon="11.25325654384819"><ele>1081.0</ele><time>2026-04-06T15:23:36Z</time></trkpt><trkpt lat="45.929636078240385" lon="11.253445826053417"><ele>1081.0</ele><time>2026-04-06T15:23:37Z</time></trkpt><trkpt lat="45.92952783235299" lon="11.253623337759779"><ele>1081.0</ele><time>2026-04-06T15:23:38Z</time></trkpt><trkpt lat="45.929433900789604" lon="11.25378823459083"><ele>1081.0</ele><time>2026-04-06T15:23:39Z</time></trkpt><trkpt lat="45.92937007652689" lon="11.253966247856775"><ele>1081.3333333333333</ele><time>2026-04-06T15:23:40Z</time></trkpt><trkpt lat="45.92933209152385" lon="11.254168871555704"><ele>1081.6666666666667</ele><time>2026-04-06T15:23:41Z</time></trkpt><trkpt lat="45.92929915342064" lon="11.254390760421073"><ele>1082.0</ele><time>2026-04-06T15:23:42Z</time></trkpt><trkpt lat="45.929268174170254" lon="11.254606571002567"><ele>1076.0</ele><time>2026-04-06T15:23:43Z</time></trkpt><trkpt lat="45.929203752091716" lon="11.254790309800203"><ele>1070.0</ele><time>2026-04-06T15:23:44Z</time></trkpt><trkpt lat="45.92911940568033" lon="11.254951669391094"><ele>1064.0</ele><time>2026-04-06T15:23:45Z</time></trkpt><trkpt lat="45.9290107433624" lon="11.255101098175"><ele>1058.0</ele><time>2026-04-06T15:23:46Z</time></trkpt><trkpt lat="45.928893246626195" lon="11.255253585249836"><ele>1058.0</ele><time>2026-04-06T15:23:47Z</time></trkpt><trkpt lat="45.92876958491327" lon="11.255393298760584"><ele>1058.0</ele><time>2026-04-06T15:23:48Z</time></trkpt><trkpt lat="45.92867073684228" lon="11.255566398401138"><ele>1058.0</ele><time>2026-04-06T15:23:49Z</time></trkpt><trkpt lat="45.92859819952237" lon="11.255762627197182"><ele>1059.6666666666667</ele><time>2026-04-06T15:23:50Z</time></trkpt><trkpt lat="45.92854645896784" lon="11.255970549884907"><ele>1061.3333333333333</ele><time>2026-04-06T15:23:51Z</time></trkpt><trkpt lat="45.92850590376888" lon="11.256177710890203"><ele>1063.0</ele><time>2026-04-06T15:23:52Z</time></trkpt><trkpt lat="45.92846111176985" lon="11.256379453488725"><ele>1065.4</ele><time>2026-04-06T15:23:53Z</time></trkpt><trkpt lat="45.928417921759824" lon="11.256546960502844"><ele>1067.8</ele><time>2026-04-06T15:23:54Z</time></trkpt><trkpt lat="45.92837574074786" lon="11.256672106797007"><ele>1070.2</ele><time>2026-04-06T15:23:55Z</time></trkpt><trkpt lat="45.928328772496215" lon="11.256757954302216"><ele>1072.6</ele><time>2026-04-06T15:23:56Z</time></trkpt><trkpt lat="45.928255427256715" lon="11.256786244894935"><ele>1075.0</ele><time>2026-04-06T15:23:56.999Z</time></trkpt><trkpt lat="45.9281330294209" lon="11.25666449084666"><ele>1068.25</ele><time>2026-04-06T15:23:58.999Z</time></trkpt><trkpt lat="45.928113189640534" lon="11.256528950278653"><ele>1061.5</ele><time>2026-04-06T15:23:59.999Z</time></trkpt><trkpt lat="45.928114797080376" lon="11.256369704764065"><ele>1054.75</ele><time>2026-04-06T15:24:00.999Z</time></trkpt><trkpt lat="45.92812475001113" lon="11.256196036100317"><ele>1048.0</ele><time>2026-04-06T15:24:01.999Z</time></trkpt><trkpt lat="45.92812999748314" lon="11.2560001972664"><ele>1045.5</ele><time>2026-04-06T15:24:02.999Z</time></trkpt><trkpt lat="45.928131335554994" lon="11.25579793832898"><ele>1043.0</ele><time>2026-04-06T15:24:03.999Z</time></trkpt><trkpt lat="45.92813062462259" lon="11.255585217637202"><ele>1040.5</ele><time>2026-04-06T15:24:04.999Z</time></trkpt><trkpt lat="45.92813217933515" lon="11.255367213131386"><ele>1038.0</ele><time>2026-04-06T15:24:05.999Z</time></trkpt><trkpt lat="45.92813044060911" lon="11.255137054132767"><ele>1037.6666666666667</ele><time>2026-04-06T15:24:06.999Z</time></trkpt><trkpt lat="45.928130480415255" lon="11.254903411642957"><ele>1037.3333333333335</ele><time>2026-04-06T15:24:07.999Z</time></trkpt><trkpt lat="45.92813245630648" lon="11.254669801169818"><ele>1037.0</ele><time>2026-04-06T15:24:08.999Z</time></trkpt><trkpt lat="45.928134278755806" lon="11.254438652996523"><ele>1035.3333333333335</ele><time>2026-04-06T15:24:09.999Z</time></trkpt><trkpt lat="45.92813808160489" lon="11.254216615775197"><ele>1033.6666666666667</ele><time>2026-04-06T15:24:10.999Z</time></trkpt><trkpt lat="45.9281490174364" lon="11.253996552505193"><ele>1032.0</ele><time>2026-04-06T15:24:11.999Z</time></trkpt><trkpt lat="45.92820131815992" lon="11.253792755486408"><ele>1029.0</ele><time>2026-04-06T15:24:12.999Z</time></trkpt><trkpt lat="45.92825520027098" lon="11.25358483387061"><ele>1026.0</ele><time>2026-04-06T15:24:13.999Z</time></trkpt><trkpt lat="45.92829778287325" lon="11.253366015442777"><ele>1023.0</ele><time>2026-04-06T15:24:14.999Z</time></trkpt><trkpt lat="45.92835533646735" lon="11.253161321338268"><ele>1028.0</ele><time>2026-04-06T15:24:15.999Z</time></trkpt><trkpt lat="45.92840919837693" lon="11.252956641521328"><ele>1033.0</ele><time>2026-04-06T15:24:16.999Z</time></trkpt><trkpt lat="45.92846304127866" lon="11.252754451620945"><ele>1038.0</ele><time>2026-04-06T15:24:17.999Z</time></trkpt><trkpt lat="45.92851150618188" lon="11.252551222934123"><ele>1038.0</ele><time>2026-04-06T15:24:18.999Z</time></trkpt><trkpt lat="45.92856074254614" lon="11.25235358748353"><ele>1038.0</ele><time>2026-04-06T15:24:19.999Z</time></trkpt><trkpt lat="45.92860950792447" lon="11.252160557087167"><ele>1038.0</ele><time>2026-04-06T15:24:20.999Z</time></trkpt><trkpt lat="45.92865563607386" lon="11.251969676209352"><ele>1038.0</ele><time>2026-04-06T15:24:21.999Z</time></trkpt><trkpt lat="45.92870269487581" lon="11.251784112941685"><ele>1035.5</ele><time>2026-04-06T15:24:22.999Z</time></trkpt><trkpt lat="45.92874913598617" lon="11.25160620387516"><ele>1033.0</ele><time>2026-04-06T15:24:23.999Z</time></trkpt><trkpt lat="45.92879495705987" lon="11.251443469040161"><ele>1030.5</ele><time>2026-04-06T15:24:24.999Z</time></trkpt><trkpt lat="45.9288612897962" lon="11.251310308801667"><ele>1028.0</ele><time>2026-04-06T15:24:25.999Z</time></trkpt><trkpt lat="45.928928698112806" lon="11.251196232449397"><ele>1025.2</ele><time>2026-04-06T15:24:26.999Z</time></trkpt><trkpt lat="45.929013900446655" lon="11.251105067644577"><ele>1022.4</ele><time>2026-04-06T15:24:27.999Z</time></trkpt><trkpt lat="45.92911101906926" lon="11.251008715400939"><ele>1019.6000000000001</ele><time>2026-04-06T15:24:28.999Z</time></trkpt><trkpt lat="45.929198391633726" lon="11.250904256340192"><ele>1016.8000000000001</ele><time>2026-04-06T15:24:29.999Z</time></trkpt><trkpt lat="45.929278747786434" lon="11.250829636068085"><ele>1014.0</ele><time>2026-04-06T15:24:30.999Z</time></trkpt><trkpt lat="45.92933283159058" lon="11.250768716826885"><ele>1017.8333333333334</ele><time>2026-04-06T15:24:31.999Z</time></trkpt><trkpt lat="45.929398093886135" lon="11.250711650043645"><ele>1021.6666666666667</ele><time>2026-04-06T15:24:33.999Z</time></trkpt><trkpt lat="45.92944085120613" lon="11.250641214101808"><ele>1025.5</ele><time>2026-04-06T15:24:36.999Z</time></trkpt><trkpt lat="45.92949005529233" lon="11.250538344316166"><ele>1029.3333333333335</ele><time>2026-04-06T15:24:41.999Z</time></trkpt><trkpt lat="45.92951891752514" lon="11.250389166930566"><ele>1033.1666666666667</ele><time>2026-04-06T15:24:43.999Z</time></trkpt><trkpt lat="45.92955508237282" lon="11.250286952614385"><ele>1037.0</ele><time>2026-04-06T15:24:44.999Z</time></trkpt><trkpt lat="45.929576447542466" lon="11.25014569117421"><ele>1037.0</ele><time>2026-04-06T15:24:45.999Z</time></trkpt><trkpt lat="45.92959924828849" lon="11.249992446672284"><ele>1037.0</ele><time>2026-04-06T15:24:46.999Z</time></trkpt><trkpt lat="45.92961875095228" lon="11.249836167588885"><ele>1037.0</ele><time>2026-04-06T15:24:47.999Z</time></trkpt><trkpt lat="45.92960698220059" lon="11.249671351153879"><ele>1037.0</ele><time>2026-04-06T15:24:48.999Z</time></trkpt><trkpt lat="45.92961605182859" lon="11.249511696039441"><ele>1037.0</ele><time>2026-04-06T15:24:49.999Z</time></trkpt><trkpt lat="45.92962402398372" lon="11.249356772773336"><ele>1034.25</ele><time>2026-04-06T15:24:50.999Z</time></trkpt><trkpt lat="45.92966024947557" lon="11.249216418880279"><ele>1031.5</ele><time>2026-04-06T15:24:51.999Z</time></trkpt><trkpt lat="45.92970343191606" lon="11.249076532137"><ele>1028.75</ele><time>2026-04-06T15:24:52.999Z</time></trkpt><trkpt lat="45.92976964875991" lon="11.248930184782326"><ele>1026.0</ele><time>2026-04-06T15:24:53.999Z</time></trkpt><trkpt lat="45.92984321792385" lon="11.248758207897234"><ele>1030.0</ele><time>2026-04-06T15:24:55Z</time></trkpt><trkpt lat="45.92991971770975" lon="11.2485708099915"><ele>1034.0</ele><time>2026-04-06T15:24:56Z</time></trkpt><trkpt lat="45.92999333563583" lon="11.248368921283236"><ele>1038.0</ele><time>2026-04-06T15:24:57Z</time></trkpt><trkpt lat="45.93005924637089" lon="11.248162137111308"><ele>1033.6666666666667</ele><time>2026-04-06T15:24:58Z</time></trkpt><trkpt lat="45.93012175518082" lon="11.247956117746305"><ele>1029.3333333333335</ele><time>2026-04-06T15:24:59Z</time></trkpt><trkpt lat="45.930168852299836" lon="11.247743841391118"><ele>1025.0</ele><time>2026-04-06T15:25:00Z</time></trkpt><trkpt lat="45.93025172648476" lon="11.247552790708006"><ele>1025.0</ele><time>2026-04-06T15:25:01Z</time></trkpt><trkpt lat="45.93030855045999" lon="11.247345804349582"><ele>1025.0</ele><time>2026-04-06T15:25:02Z</time></trkpt><trkpt lat="45.930397460710715" lon="11.247175801962342"><ele>1025.0</ele><time>2026-04-06T15:25:03Z</time></trkpt><trkpt lat="45.93047723832414" lon="11.247003743677483"><ele>1025.0</ele><time>2026-04-06T15:25:04Z</time></trkpt><trkpt lat="45.93055485335539" lon="11.2468293392512"><ele>1022.5</ele><time>2026-04-06T15:25:05Z</time></trkpt><trkpt lat="45.93063251827607" lon="11.246655026557272"><ele>1020.0</ele><time>2026-04-06T15:25:06Z</time></trkpt><trkpt lat="45.93071009531591" lon="11.246480161325813"><ele>1017.5</ele><time>2026-04-06T15:25:07Z</time></trkpt><trkpt lat="45.93077662390301" lon="11.24631261763756"><ele>1015.0</ele><time>2026-04-06T15:25:08Z</time></trkpt><trkpt lat="45.9308363766755" lon="11.246153763666188"><ele>1015.75</ele><time>2026-04-06T15:25:09Z</time></trkpt><trkpt lat="45.930896068451595" lon="11.246008908626902"><ele>1016.5</ele><time>2026-04-06T15:25:10Z</time></trkpt><trkpt lat="45.930978015732656" lon="11.245900716531695"><ele>1017.25</ele><time>2026-04-06T15:25:11Z</time></trkpt><trkpt lat="45.93106834632266" lon="11.245777477499203"><ele>1018.0</ele><time>2026-04-06T15:25:12Z</time></trkpt><trkpt lat="45.93113116761955" lon="11.245626197270298"><ele>1018.0</ele><time>2026-04-06T15:25:13Z</time></trkpt><trkpt lat="45.93119109686477" lon="11.24548589797862"><ele>1018.0</ele><time>2026-04-06T15:25:14Z</time></trkpt><trkpt lat="45.93123220140115" lon="11.245343035117083"><ele>1018.0</ele><time>2026-04-06T15:25:15Z</time></trkpt><trkpt lat="45.93128592358112" lon="11.245221413980284"><ele>1018.0</ele><time>2026-04-06T15:25:16Z</time></trkpt><trkpt lat="45.931261810056526" lon="11.245043974614068"><ele>1018.0</ele><time>2026-04-06T15:25:17Z</time></trkpt><trkpt lat="45.93125254213526" lon="11.244881761381603"><ele>1012.5</ele><time>2026-04-06T15:25:18Z</time></trkpt><trkpt lat="45.93125909648702" lon="11.244733534434737"><ele>1007.0</ele><time>2026-04-06T15:25:19Z</time></trkpt><trkpt lat="45.93132030827508" lon="11.244609863859113"><ele>1001.5</ele><time>2026-04-06T15:25:20Z</time></trkpt><trkpt lat="45.931408675115776" lon="11.244496285481242"><ele>996.0</ele><time>2026-04-06T15:25:21Z</time></trkpt><trkpt lat="45.93151558320696" lon="11.244381450458087"><ele>996.0</ele><time>2026-04-06T15:25:22Z</time></trkpt><trkpt lat="45.931615397565835" lon="11.244249739493192"><ele>996.0</ele><time>2026-04-06T15:25:23Z</time></trkpt><trkpt lat="45.931703621415366" lon="11.24412428494021"><ele>996.0</ele><time>2026-04-06T15:25:24Z</time></trkpt><trkpt lat="45.931771334535014" lon="11.243987244009187"><ele>996.0</ele><time>2026-04-06T15:25:25Z</time></trkpt><trkpt lat="45.93180942653969" lon="11.243815496572727"><ele>998.25</ele><time>2026-04-06T15:25:26Z</time></trkpt><trkpt lat="45.93181443696101" lon="11.243621032735241"><ele>1000.5</ele><time>2026-04-06T15:25:27Z</time></trkpt><trkpt lat="45.93178819151651" lon="11.24342328799697"><ele>1002.75</ele><time>2026-04-06T15:25:28Z</time></trkpt><trkpt lat="45.93175111873236" lon="11.243230688152781"><ele>1005.0</ele><time>2026-04-06T15:25:29Z</time></trkpt><trkpt lat="45.93175764159246" lon="11.243029815675847"><ele>1005.0</ele><time>2026-04-06T15:25:30Z</time></trkpt><trkpt lat="45.93177963263261" lon="11.242827108505804"><ele>1005.0</ele><time>2026-04-06T15:25:31Z</time></trkpt><trkpt lat="45.931821972481856" lon="11.242622962933389"><ele>1005.0</ele><time>2026-04-06T15:25:32Z</time></trkpt><trkpt lat="45.93188610068937" lon="11.242434124188867"><ele>1005.0</ele><time>2026-04-06T15:25:33Z</time></trkpt><trkpt lat="45.93197520839677" lon="11.242272007115023"><ele>998.0</ele><time>2026-04-06T15:25:34Z</time></trkpt><trkpt lat="45.932082954347635" lon="11.242124858829676"><ele>991.0</ele><time>2026-04-06T15:25:35Z</time></trkpt><trkpt lat="45.93220884510593" lon="11.242000646770439"><ele>984.0</ele><time>2026-04-06T15:25:36Z</time></trkpt><trkpt lat="45.93234476888209" lon="11.241908419695928"><ele>984.0</ele><time>2026-04-06T15:25:37Z</time></trkpt><trkpt lat="45.932489366508406" lon="11.241853257473435"><ele>984.0</ele><time>2026-04-06T15:25:38Z</time></trkpt><trkpt lat="45.93263670849672" lon="11.241794272895365"><ele>984.0</ele><time>2026-04-06T15:25:39Z</time></trkpt><trkpt lat="45.932770539740226" lon="11.241704416903906"><ele>983.0</ele><time>2026-04-06T15:25:40Z</time></trkpt><trkpt lat="45.932898223531744" lon="11.241602043267367"><ele>982.0</ele><time>2026-04-06T15:25:41Z</time></trkpt><trkpt lat="45.933012168673" lon="11.241452780724195"><ele>981.0</ele><time>2026-04-06T15:25:41.999Z</time></trkpt><trkpt lat="45.933116673056546" lon="11.241266799696279"><ele>981.0</ele><time>2026-04-06T15:25:42.999Z</time></trkpt><trkpt lat="45.93321191633283" lon="11.24104914040688"><ele>981.0</ele><time>2026-04-06T15:25:43.999Z</time></trkpt><trkpt lat="45.933290447794676" lon="11.240816643289026"><ele>981.0</ele><time>2026-04-06T15:25:44.999Z</time></trkpt><trkpt lat="45.93339150743123" lon="11.240576652294955"><ele>984.3333333333333</ele><time>2026-04-06T15:25:45.999Z</time></trkpt><trkpt lat="45.93348670347387" lon="11.240317428454565"><ele>987.6666666666666</ele><time>2026-04-06T15:25:46.999Z</time></trkpt><trkpt lat="45.93358502622862" lon="11.240040420966396"><ele>991.0</ele><time>2026-04-06T15:25:47.999Z</time></trkpt><trkpt lat="45.933684530780006" lon="11.239774481307414"><ele>984.0</ele><time>2026-04-06T15:25:48.999Z</time></trkpt><trkpt lat="45.93378162567247" lon="11.239516305207193"><ele>977.0</ele><time>2026-04-06T15:25:49.999Z</time></trkpt><trkpt lat="45.933861032037186" lon="11.239252376996854"><ele>970.0</ele><time>2026-04-06T15:25:50.999Z</time></trkpt><trkpt lat="45.93395082373802" lon="11.239007151282127"><ele>965.3333333333333</ele><time>2026-04-06T15:25:51.999Z</time></trkpt><trkpt lat="45.934052428449036" lon="11.23879488037229"><ele>960.6666666666667</ele><time>2026-04-06T15:25:52.999Z</time></trkpt><trkpt lat="45.93415804723757" lon="11.238602936790743"><ele>956.0</ele><time>2026-04-06T15:25:53.999Z</time></trkpt><trkpt lat="45.934285148367884" lon="11.238441752321433"><ele>960.0</ele><time>2026-04-06T15:25:54.999Z</time></trkpt><trkpt lat="45.93442219365068" lon="11.238293244232398"><ele>964.0</ele><time>2026-04-06T15:25:55.999Z</time></trkpt><trkpt lat="45.93454510247271" lon="11.238119418969333"><ele>968.0</ele><time>2026-04-06T15:25:56.999Z</time></trkpt><trkpt lat="45.93465315331039" lon="11.237917907103927"><ele>968.0</ele><time>2026-04-06T15:25:57.999Z</time></trkpt><trkpt lat="45.93473570517329" lon="11.23768198594077"><ele>968.0</ele><time>2026-04-06T15:25:58.999Z</time></trkpt><trkpt lat="45.934810834289685" lon="11.237434841669932"><ele>968.0</ele><time>2026-04-06T15:25:59.999Z</time></trkpt><trkpt lat="45.934887728512344" lon="11.237201549808523"><ele>963.6666666666667</ele><time>2026-04-06T15:26:00.999Z</time></trkpt><trkpt lat="45.93495096116237" lon="11.23696601882459"><ele>959.3333333333333</ele><time>2026-04-06T15:26:01.999Z</time></trkpt><trkpt lat="45.93498301126408" lon="11.236712078554781"><ele>955.0</ele><time>2026-04-06T15:26:02.999Z</time></trkpt><trkpt lat="45.93498819213531" lon="11.236443689381137"><ele>954.3333333333333</ele><time>2026-04-06T15:26:03.999Z</time></trkpt><trkpt lat="45.93497243748604" lon="11.236165343477552"><ele>953.6666666666667</ele><time>2026-04-06T15:26:04.999Z</time></trkpt><trkpt lat="45.9349471975953" lon="11.235891016605946"><ele>953.0</ele><time>2026-04-06T15:26:05.999Z</time></trkpt><trkpt lat="45.934920067071225" lon="11.235610123215459"><ele>953.0</ele><time>2026-04-06T15:26:06.999Z</time></trkpt><trkpt lat="45.93489578099338" lon="11.23533081299982"><ele>953.0</ele><time>2026-04-06T15:26:07.999Z</time></trkpt><trkpt lat="45.934875441540335" lon="11.235065309556338"><ele>953.0</ele><time>2026-04-06T15:26:08.999Z</time></trkpt><trkpt lat="45.93483938908756" lon="11.234808398641798"><ele>956.3333333333334</ele><time>2026-04-06T15:26:09.999Z</time></trkpt><trkpt lat="45.9347783629164" lon="11.234573806252213"><ele>959.6666666666667</ele><time>2026-04-06T15:26:10.999Z</time></trkpt><trkpt lat="45.93469540732024" lon="11.234352390543057"><ele>963.0</ele><time>2026-04-06T15:26:11.999Z</time></trkpt><trkpt lat="45.93459372050576" lon="11.234150143659448"><ele>960.0</ele><time>2026-04-06T15:26:12.999Z</time></trkpt><trkpt lat="45.93447648937095" lon="11.23396747158867"><ele>957.0</ele><time>2026-04-06T15:26:13.999Z</time></trkpt><trkpt lat="45.93433848362925" lon="11.233812362690566"><ele>954.0</ele><time>2026-04-06T15:26:14.999Z</time></trkpt><trkpt lat="45.934190273140175" lon="11.233680935896306"><ele>954.0</ele><time>2026-04-06T15:26:15.999Z</time></trkpt><trkpt lat="45.934035941614106" lon="11.23357204992929"><ele>954.0</ele><time>2026-04-06T15:26:16.999Z</time></trkpt><trkpt lat="45.93387847421134" lon="11.23347964954565"><ele>954.0</ele><time>2026-04-06T15:26:17.999Z</time></trkpt><trkpt lat="45.933722032190204" lon="11.233392692920273"><ele>954.0</ele><time>2026-04-06T15:26:18.999Z</time></trkpt><trkpt lat="45.93358455858911" lon="11.233301272062738"><ele>954.0</ele><time>2026-04-06T15:26:19.999Z</time></trkpt><trkpt lat="45.93348587454665" lon="11.233236566341061"><ele>954.0</ele><time>2026-04-06T15:26:20.999Z</time></trkpt><trkpt lat="45.93340637084304" lon="11.233194331473943"><ele>954.0</ele><time>2026-04-06T15:26:21.999Z</time></trkpt><trkpt lat="45.933299772633355" lon="11.233259184416507"><ele>954.0</ele><time>2026-04-06T15:26:23.999Z</time></trkpt><trkpt lat="45.933276676286525" lon="11.233356753338745"><ele>954.0000000000001</ele><time>2026-04-06T15:26:24.999Z</time></trkpt><trkpt lat="45.93329879821896" lon="11.233462630809772"><ele>954.0000000000001</ele><time>2026-04-06T15:26:25.999Z</time></trkpt><trkpt lat="45.93334766045752" lon="11.233549754739068"><ele>954.0</ele><time>2026-04-06T15:26:26.999Z</time></trkpt><trkpt lat="45.93345477281737" lon="11.233574953089372"><ele>954.0</ele><time>2026-04-06T15:26:27.999Z</time></trkpt><trkpt lat="45.933569886112544" lon="11.23351536241621"><ele>954.0</ele><time>2026-04-06T15:26:28.999Z</time></trkpt><trkpt lat="45.93368713467317" lon="11.233551330006133"><ele>954.0</ele><time>2026-04-06T15:26:29.999Z</time></trkpt><trkpt lat="45.93380906279539" lon="11.233618579511647"><ele>954.0</ele><time>2026-04-06T15:26:30.999Z</time></trkpt><trkpt lat="45.933930992609234" lon="11.233720326539789"><ele>954.0</ele><time>2026-04-06T15:26:31.999Z</time></trkpt><trkpt lat="45.93404332273591" lon="11.233821153748533"><ele>954.0</ele><time>2026-04-06T15:26:32.999Z</time></trkpt><trkpt lat="45.93413603964008" lon="11.233937051392736"><ele>954.0</ele><time>2026-04-06T15:26:33.999Z</time></trkpt><trkpt lat="45.93420062293487" lon="11.234092816572876"><ele>954.0</ele><time>2026-04-06T15:26:34.999Z</time></trkpt><trkpt lat="45.934236394675544" lon="11.234279829388013"><ele>954.0</ele><time>2026-04-06T15:26:35.999Z</time></trkpt><trkpt lat="45.93427973043736" lon="11.234484284003045"><ele>953.75</ele><time>2026-04-06T15:26:36.999Z</time></trkpt><trkpt lat="45.93433608042683" lon="11.23468537174042"><ele>953.5</ele><time>2026-04-06T15:26:37.999Z</time></trkpt><trkpt lat="45.93436287298238" lon="11.234875946292542"><ele>953.25</ele><time>2026-04-06T15:26:38.999Z</time></trkpt><trkpt lat="45.93439780664912" lon="11.235041513731815"><ele>953.0</ele><time>2026-04-06T15:26:39.999Z</time></trkpt><trkpt lat="45.934403458191184" lon="11.235201956718026"><ele>953.0</ele><time>2026-04-06T15:26:40.999Z</time></trkpt><trkpt lat="45.93437008847041" lon="11.23536735139475"><ele>953.0</ele><time>2026-04-06T15:26:41.999Z</time></trkpt><trkpt lat="45.93432313475058" lon="11.235540847367226"><ele>953.0</ele><time>2026-04-06T15:26:42.999Z</time></trkpt><trkpt lat="45.93427701550219" lon="11.235712583759828"><ele>953.0</ele><time>2026-04-06T15:26:43.999Z</time></trkpt><trkpt lat="45.93424059041721" lon="11.235880120620148"><ele>940.5</ele><time>2026-04-06T15:26:44.999Z</time></trkpt><trkpt lat="45.934182818826095" lon="11.236033187061281"><ele>928.0</ele><time>2026-04-06T15:26:45.999Z</time></trkpt><trkpt lat="45.934106038610935" lon="11.236167542818166"><ele>915.5</ele><time>2026-04-06T15:26:46.999Z</time></trkpt><trkpt lat="45.93400589567371" lon="11.236291300598584"><ele>903.0</ele><time>2026-04-06T15:26:47.999Z</time></trkpt><trkpt lat="45.93389901099857" lon="11.23640091779613"><ele>905.75</ele><time>2026-04-06T15:26:48.999Z</time></trkpt><trkpt lat="45.9337993751711" lon="11.236506602130591"><ele>908.5</ele><time>2026-04-06T15:26:49.999Z</time></trkpt><trkpt lat="45.93371515495712" lon="11.236627732478487"><ele>911.25</ele><time>2026-04-06T15:26:50.999Z</time></trkpt><trkpt lat="45.93365149502481" lon="11.236772948357213"><ele>914.0</ele><time>2026-04-06T15:26:51.999Z</time></trkpt><trkpt lat="45.93360792857547" lon="11.236927170200511"><ele>914.0000000000001</ele><time>2026-04-06T15:26:53Z</time></trkpt><trkpt lat="45.933573371322495" lon="11.237069444552699"><ele>914.0</ele><time>2026-04-06T15:26:54Z</time></trkpt><trkpt lat="45.93354801259058" lon="11.237198347015067"><ele>914.0</ele><time>2026-04-06T15:26:55Z</time></trkpt><trkpt lat="45.93353235649108" lon="11.237311658552825"><ele>914.0</ele><time>2026-04-06T15:26:56Z</time></trkpt><trkpt lat="45.93352055294504" lon="11.237403445337584"><ele>914.0000000000001</ele><time>2026-04-06T15:26:57Z</time></trkpt><trkpt lat="45.93350128614339" lon="11.237492403753555"><ele>914.0</ele><time>2026-04-06T15:26:58Z</time></trkpt><trkpt lat="45.9334760540939" lon="11.237577050278945"><ele>914.0</ele><time>2026-04-06T15:26:59Z</time></trkpt><trkpt lat="45.93340579496841" lon="11.237681534837606"><ele>914.0000000000001</ele><time>2026-04-06T15:27:01Z</time></trkpt><trkpt lat="45.93331317538755" lon="11.23760051985923"><ele>914.0000000000001</ele><time>2026-04-06T15:27:03Z</time></trkpt><trkpt lat="45.93331919974931" lon="11.237424902902763"><ele>914.0</ele><time>2026-04-06T15:27:05Z</time></trkpt><trkpt lat="45.93339633390045" lon="11.237304782905081"><ele>914.0</ele><time>2026-04-06T15:27:06Z</time></trkpt><trkpt lat="45.93346096400694" lon="11.237130882805623"><ele>914.0</ele><time>2026-04-06T15:27:07Z</time></trkpt><trkpt lat="45.93351427167587" lon="11.23692154663425"><ele>914.0</ele><time>2026-04-06T15:27:08Z</time></trkpt><trkpt lat="45.933556156524254" lon="11.236697559419618"><ele>914.0</ele><time>2026-04-06T15:27:09Z</time></trkpt><trkpt lat="45.93358101778691" lon="11.23646858589761"><ele>911.25</ele><time>2026-04-06T15:27:10Z</time></trkpt><trkpt lat="45.93363665300718" lon="11.236254726051312"><ele>908.5</ele><time>2026-04-06T15:27:11Z</time></trkpt><trkpt lat="45.93365804459998" lon="11.236044916694906"><ele>905.75</ele><time>2026-04-06T15:27:12Z</time></trkpt><trkpt lat="45.93369258104182" lon="11.23587258606207"><ele>903.0</ele><time>2026-04-06T15:27:13Z</time></trkpt><trkpt lat="45.93372245774207" lon="11.235716747706203"><ele>903.2</ele><time>2026-04-06T15:27:14Z</time></trkpt><trkpt lat="45.933744697412045" lon="11.235564703016005"><ele>903.4</ele><time>2026-04-06T15:27:15Z</time></trkpt><trkpt lat="45.93374729387533" lon="11.23540557567294"><ele>903.6000000000001</ele><time>2026-04-06T15:27:16Z</time></trkpt><trkpt lat="45.93372303508539" lon="11.235244872169702"><ele>903.8000000000001</ele><time>2026-04-06T15:27:17Z</time></trkpt><trkpt lat="45.933680442944265" lon="11.235100128702289"><ele>904.0</ele><time>2026-04-06T15:27:18Z</time></trkpt><trkpt lat="45.93364769127929" lon="11.234993428798512"><ele>903.9999999999999</ele><time>2026-04-06T15:27:19Z</time></trkpt><trkpt lat="45.93361919336808" lon="11.234897902896208"><ele>904.0</ele><time>2026-04-06T15:27:20Z</time></trkpt><trkpt lat="45.93359672621684" lon="11.23479936292955"><ele>904.0</ele><time>2026-04-06T15:27:21Z</time></trkpt><trkpt lat="45.93357176268792" lon="11.234692333715294"><ele>904.0</ele><time>2026-04-06T15:27:22Z</time></trkpt><trkpt lat="45.93354289605763" lon="11.234599617140567"><ele>903.9999999999999</ele><time>2026-04-06T15:27:23Z</time></trkpt><trkpt lat="45.93345222523918" lon="11.234501857586821"><ele>904.0</ele><time>2026-04-06T15:27:25Z</time></trkpt><trkpt lat="45.93332953219109" lon="11.234555465855097"><ele>902.9999999999999</ele><time>2026-04-06T15:27:27Z</time></trkpt><trkpt lat="45.93328548929706" lon="11.234634091435515"><ele>902.0</ele><time>2026-04-06T15:27:28Z</time></trkpt><trkpt lat="45.93327950097786" lon="11.234759242563479"><ele>901.0</ele><time>2026-04-06T15:27:29Z</time></trkpt><trkpt lat="45.93330254062649" lon="11.234892241240972"><ele>900.0</ele><time>2026-04-06T15:27:30Z</time></trkpt><trkpt lat="45.93331527705782" lon="11.235020598577844"><ele>898.9999999999999</ele><time>2026-04-06T15:27:31Z</time></trkpt><trkpt lat="45.93331748677088" lon="11.235142640041104"><ele>898.0</ele><time>2026-04-06T15:27:32Z</time></trkpt><trkpt lat="45.933310223872276" lon="11.235271146712295"><ele>892.4</ele><time>2026-04-06T15:27:33Z</time></trkpt><trkpt lat="45.93328720111149" lon="11.235403542451905"><ele>886.8</ele><time>2026-04-06T15:27:34Z</time></trkpt><trkpt lat="45.93323319470448" lon="11.235534758146747"><ele>881.2</ele><time>2026-04-06T15:27:35Z</time></trkpt><trkpt lat="45.93316295051194" lon="11.235643291287857"><ele>875.6</ele><time>2026-04-06T15:27:36Z</time></trkpt><trkpt lat="45.93309793474371" lon="11.235745090633808"><ele>870.0</ele><time>2026-04-06T15:27:37Z</time></trkpt><trkpt lat="45.933048005068464" lon="11.235855509517771"><ele>870.0</ele><time>2026-04-06T15:27:38Z</time></trkpt><trkpt lat="45.93301065413895" lon="11.235993473999205"><ele>870.0</ele><time>2026-04-06T15:27:39Z</time></trkpt><trkpt lat="45.93297652885716" lon="11.236191576952766"><ele>870.0</ele><time>2026-04-06T15:27:40Z</time></trkpt><trkpt lat="45.93295126476798" lon="11.23641469200136"><ele>870.0</ele><time>2026-04-06T15:27:41Z</time></trkpt><trkpt lat="45.93292394295954" lon="11.236636763177414"><ele>872.75</ele><time>2026-04-06T15:27:42Z</time></trkpt><trkpt lat="45.932895335477234" lon="11.236839661067132"><ele>875.5</ele><time>2026-04-06T15:27:43Z</time></trkpt><trkpt lat="45.932852757233285" lon="11.237023613871665"><ele>878.25</ele><time>2026-04-06T15:27:44Z</time></trkpt><trkpt lat="45.932803070812334" lon="11.237200804047347"><ele>881.0</ele><time>2026-04-06T15:27:45Z</time></trkpt><trkpt lat="45.93272306548712" lon="11.237349647149118"><ele>884.5999999999999</ele><time>2026-04-06T15:27:46Z</time></trkpt><trkpt lat="45.93263793777784" lon="11.237490166188941"><ele>888.1999999999999</ele><time>2026-04-06T15:27:47Z</time></trkpt><trkpt lat="45.932555754905195" lon="11.237621080689234"><ele>891.8000000000001</ele><time>2026-04-06T15:27:48Z</time></trkpt><trkpt lat="45.93248404752912" lon="11.237745200701047"><ele>895.4000000000001</ele><time>2026-04-06T15:27:49Z</time></trkpt><trkpt lat="45.93242958083343" lon="11.23783078351221"><ele>899.0</ele><time>2026-04-06T15:27:50Z</time></trkpt><trkpt lat="45.9323638442495" lon="11.23785908705357"><ele>890.6</ele><time>2026-04-06T15:27:51Z</time></trkpt><trkpt lat="45.93230280597338" lon="11.237833626170906"><ele>882.2</ele><time>2026-04-06T15:27:52Z</time></trkpt><trkpt lat="45.93227002831072" lon="11.237735111548382"><ele>873.8000000000001</ele><time>2026-04-06T15:27:53Z</time></trkpt><trkpt lat="45.93228058188692" lon="11.237605242544204"><ele>865.4000000000001</ele><time>2026-04-06T15:27:54Z</time></trkpt><trkpt lat="45.93236371740145" lon="11.237480225609772"><ele>857.0</ele><time>2026-04-06T15:27:55Z</time></trkpt><trkpt lat="45.932413874596044" lon="11.237333277872978"><ele>855.5</ele><time>2026-04-06T15:27:56Z</time></trkpt><trkpt lat="45.932467801909716" lon="11.237148605861407"><ele>854.0</ele><time>2026-04-06T15:27:57Z</time></trkpt><trkpt lat="45.93250079628836" lon="11.2369504234607"><ele>852.5</ele><time>2026-04-06T15:27:58Z</time></trkpt><trkpt lat="45.93254270439784" lon="11.236758581171694"><ele>851.0</ele><time>2026-04-06T15:27:59Z</time></trkpt><trkpt lat="45.93257275861195" lon="11.23657670571587"><ele>851.5000000000001</ele><time>2026-04-06T15:28:00Z</time></trkpt><trkpt lat="45.93259160286938" lon="11.236416853991576"><ele>852.0</ele><time>2026-04-06T15:28:01Z</time></trkpt><trkpt lat="45.93260560229661" lon="11.236290175752663"><ele>852.5</ele><time>2026-04-06T15:28:02Z</time></trkpt><trkpt lat="45.932596060758314" lon="11.236198885600448"><ele>853.0</ele><time>2026-04-06T15:28:03Z</time></trkpt><trkpt lat="45.93255368649926" lon="11.236130794767872"><ele>853.5000000000001</ele><time>2026-04-06T15:28:04Z</time></trkpt><trkpt lat="45.93248580939913" lon="11.23608557718069"><ele>854.0</ele><time>2026-04-06T15:28:05Z</time></trkpt><trkpt lat="45.93240852841155" lon="11.236084864242363"><ele>854.0</ele><time>2026-04-06T15:28:06Z</time></trkpt><trkpt lat="45.932337704303066" lon="11.236150690786541"><ele>854.0000000000001</ele><time>2026-04-06T15:28:07Z</time></trkpt><trkpt lat="45.93228425525638" lon="11.236254947593082"><ele>854.0000000000001</ele><time>2026-04-06T15:28:08Z</time></trkpt><trkpt lat="45.93224870912628" lon="11.236404698178365"><ele>854.0</ele><time>2026-04-06T15:28:09Z</time></trkpt><trkpt lat="45.932222946983934" lon="11.236589843675814"><ele>854.0</ele><time>2026-04-06T15:28:10Z</time></trkpt><trkpt lat="45.932190825370306" lon="11.236801870819209"><ele>853.0</ele><time>2026-04-06T15:28:11Z</time></trkpt><trkpt lat="45.93214984924278" lon="11.237016194738434"><ele>852.0</ele><time>2026-04-06T15:28:12Z</time></trkpt><trkpt lat="45.9321078872812" lon="11.237229418449822"><ele>851.0</ele><time>2026-04-06T15:28:13Z</time></trkpt><trkpt lat="45.93206054282891" lon="11.237426014614739"><ele>852.5</ele><time>2026-04-06T15:28:14Z</time></trkpt><trkpt lat="45.93198991697415" lon="11.237607383210946"><ele>854.0</ele><time>2026-04-06T15:28:14.999Z</time></trkpt><trkpt lat="45.93188989998746" lon="11.237758931799357"><ele>855.5</ele><time>2026-04-06T15:28:15.999Z</time></trkpt><trkpt lat="45.93174987454187" lon="11.237868086561255"><ele>857.0</ele><time>2026-04-06T15:28:16.999Z</time></trkpt><trkpt lat="45.93161785951988" lon="11.23800164726222"><ele>854.3333333333334</ele><time>2026-04-06T15:28:17.999Z</time></trkpt><trkpt lat="45.93147127730782" lon="11.238120801907874"><ele>851.6666666666667</ele><time>2026-04-06T15:28:18.999Z</time></trkpt><trkpt lat="45.9313241041507" lon="11.238253399032509"><ele>849.0</ele><time>2026-04-06T15:28:19.999Z</time></trkpt><trkpt lat="45.931173683040385" lon="11.238386798804825"><ele>849.0</ele><time>2026-04-06T15:28:20.999Z</time></trkpt><trkpt lat="45.93102122555572" lon="11.238525531447204"><ele>849.0</ele><time>2026-04-06T15:28:21.999Z</time></trkpt><trkpt lat="45.930866377775324" lon="11.238667656920166"><ele>849.0</ele><time>2026-04-06T15:28:22.999Z</time></trkpt><trkpt lat="45.93071186672526" lon="11.23880987427753"><ele>851.0</ele><time>2026-04-06T15:28:23.999Z</time></trkpt><trkpt lat="45.93056039921446" lon="11.238949391329564"><ele>853.0</ele><time>2026-04-06T15:28:24.999Z</time></trkpt><trkpt lat="45.93042352869256" lon="11.23906059642029"><ele>855.0</ele><time>2026-04-06T15:28:25.999Z</time></trkpt><trkpt lat="45.93028501685355" lon="11.239133524078705"><ele>855.0</ele><time>2026-04-06T15:28:26.999Z</time></trkpt><trkpt lat="45.93013226389137" lon="11.239158963323238"><ele>855.0</ele><time>2026-04-06T15:28:27.999Z</time></trkpt><trkpt lat="45.92996926785268" lon="11.23915088753956"><ele>855.0</ele><time>2026-04-06T15:28:28.999Z</time></trkpt><trkpt lat="45.92980565537684" lon="11.239137987308354"><ele>845.6666666666667</ele><time>2026-04-06T15:28:29.999Z</time></trkpt><trkpt lat="45.92963707572306" lon="11.23914314198765"><ele>836.3333333333334</ele><time>2026-04-06T15:28:30.999Z</time></trkpt><trkpt lat="45.92948279940693" lon="11.239161292463839"><ele>827.0</ele><time>2026-04-06T15:28:31.999Z</time></trkpt><trkpt lat="45.92934732685543" lon="11.239210178475204"><ele>825.5</ele><time>2026-04-06T15:28:32.999Z</time></trkpt><trkpt lat="45.92922136446475" lon="11.239291831359008"><ele>824.0</ele><time>2026-04-06T15:28:33.999Z</time></trkpt><trkpt lat="45.92910965757322" lon="11.239429703410975"><ele>822.5</ele><time>2026-04-06T15:28:34.999Z</time></trkpt><trkpt lat="45.92901598888923" lon="11.239618607824047"><ele>821.0</ele><time>2026-04-06T15:28:35.999Z</time></trkpt><trkpt lat="45.92893289006562" lon="11.2398352888867"><ele>821.0</ele><time>2026-04-06T15:28:36.999Z</time></trkpt><trkpt lat="45.928846008148746" lon="11.240054573623718"><ele>821.0</ele><time>2026-04-06T15:28:37.999Z</time></trkpt><trkpt lat="45.92874297038557" lon="11.240253059966474"><ele>821.0</ele><time>2026-04-06T15:28:38.999Z</time></trkpt><trkpt lat="45.928618145452326" lon="11.24042350117974"><ele>821.0</ele><time>2026-04-06T15:28:39.999Z</time></trkpt><trkpt lat="45.92847980584161" lon="11.240565988642123"><ele>821.0</ele><time>2026-04-06T15:28:40.999Z</time></trkpt><trkpt lat="45.92833406761247" lon="11.240694422327175"><ele>821.0</ele><time>2026-04-06T15:28:41.999Z</time></trkpt><trkpt lat="45.92820018414379" lon="11.24082467051852"><ele>820.0</ele><time>2026-04-06T15:28:42.999Z</time></trkpt><trkpt lat="45.928076391328425" lon="11.240946148320733"><ele>819.0</ele><time>2026-04-06T15:28:43.999Z</time></trkpt><trkpt lat="45.927961748313265" lon="11.241058724012762"><ele>818.0</ele><time>2026-04-06T15:28:44.999Z</time></trkpt><trkpt lat="45.927866399931666" lon="11.24115904431401"><ele>817.0</ele><time>2026-04-06T15:28:45.999Z</time></trkpt><trkpt lat="45.92778986344761" lon="11.241253366224756"><ele>817.0</ele><time>2026-04-06T15:28:46.999Z</time></trkpt><trkpt lat="45.92772696037549" lon="11.241360650917272"><ele>817.0</ele><time>2026-04-06T15:28:47.999Z</time></trkpt><trkpt lat="45.92767297584283" lon="11.24147494372884"><ele>817.0</ele><time>2026-04-06T15:28:48.999Z</time></trkpt><trkpt lat="45.92762431779241" lon="11.241566941310309"><ele>817.0</ele><time>2026-04-06T15:28:49.999Z</time></trkpt><trkpt lat="45.92752574757114" lon="11.24164061618827"><ele>817.0</ele><time>2026-04-06T15:28:52Z</time></trkpt><trkpt lat="45.92742572325727" lon="11.2415642141871"><ele>817.0</ele><time>2026-04-06T15:28:54Z</time></trkpt><trkpt lat="45.92742132945907" lon="11.241457511670804"><ele>817.0</ele><time>2026-04-06T15:28:55Z</time></trkpt><trkpt lat="45.92748940467477" lon="11.241373182801686"><ele>817.0</ele><time>2026-04-06T15:28:56Z</time></trkpt><trkpt lat="45.92754998930051" lon="11.241269936588594"><ele>817.0</ele><time>2026-04-06T15:28:57Z</time></trkpt><trkpt lat="45.927626314907315" lon="11.241151625675396"><ele>817.0</ele><time>2026-04-06T15:28:58Z</time></trkpt><trkpt lat="45.927700866412174" lon="11.241029312109758"><ele>817.0</ele><time>2026-04-06T15:28:59Z</time></trkpt><trkpt lat="45.927770030169484" lon="11.240894897607546"><ele>817.0</ele><time>2026-04-06T15:29:00Z</time></trkpt><trkpt lat="45.92782215949299" lon="11.240760215723986"><ele>817.0</ele><time>2026-04-06T15:29:01Z</time></trkpt><trkpt lat="45.92786191296293" lon="11.24061839908708"><ele>817.0</ele><time>2026-04-06T15:29:02Z</time></trkpt><trkpt lat="45.92787363950019" lon="11.240472228729422"><ele>817.0</ele><time>2026-04-06T15:29:03Z</time></trkpt><trkpt lat="45.92789846519911" lon="11.240338285902064"><ele>813.2</ele><time>2026-04-06T15:29:04Z</time></trkpt><trkpt lat="45.927906422169016" lon="11.240200690381988"><ele>809.4000000000001</ele><time>2026-04-06T15:29:05Z</time></trkpt><trkpt lat="45.927881070348285" lon="11.240071100399957"><ele>805.5999999999999</ele><time>2026-04-06T15:29:06Z</time></trkpt><trkpt lat="45.92782393677581" lon="11.23996680150137"><ele>801.8</ele><time>2026-04-06T15:29:07Z</time></trkpt><trkpt lat="45.927740915725515" lon="11.23990566993605"><ele>798.0</ele><time>2026-04-06T15:29:08Z</time></trkpt><trkpt lat="45.92763767371713" lon="11.239863463161582"><ele>796.25</ele><time>2026-04-06T15:29:09Z</time></trkpt><trkpt lat="45.92751778791051" lon="11.239913306174312"><ele>794.5</ele><time>2026-04-06T15:29:10Z</time></trkpt><trkpt lat="45.92739138345919" lon="11.239964082173252"><ele>792.75</ele><time>2026-04-06T15:29:11Z</time></trkpt><trkpt lat="45.927255856490625" lon="11.239999268240487"><ele>791.0</ele><time>2026-04-06T15:29:12Z</time></trkpt><trkpt lat="45.927122257202306" lon="11.240018857036704"><ele>791.0</ele><time>2026-04-06T15:29:13Z</time></trkpt><trkpt lat="45.926991623285375" lon="11.240010639327101"><ele>791.0</ele><time>2026-04-06T15:29:14Z</time></trkpt><trkpt lat="45.92685704563813" lon="11.239993160044845"><ele>791.0</ele><time>2026-04-06T15:29:15Z</time></trkpt><trkpt lat="45.92672585221445" lon="11.23998100598207"><ele>791.0</ele><time>2026-04-06T15:29:16Z</time></trkpt><trkpt lat="45.926599357051046" lon="11.239978408999024"><ele>790.5</ele><time>2026-04-06T15:29:17Z</time></trkpt><trkpt lat="45.92648090921228" lon="11.239992345784827"><ele>790.0</ele><time>2026-04-06T15:29:18Z</time></trkpt><trkpt lat="45.92636393067844" lon="11.24003627881661"><ele>789.5</ele><time>2026-04-06T15:29:19Z</time></trkpt><trkpt lat="45.92624666165469" lon="11.240119670205658"><ele>789.0</ele><time>2026-04-06T15:29:20Z</time></trkpt><trkpt lat="45.926132756922726" lon="11.24024994566023"><ele>789.0</ele><time>2026-04-06T15:29:21Z</time></trkpt><trkpt lat="45.92601714957842" lon="11.240422422187875"><ele>789.0</ele><time>2026-04-06T15:29:22Z</time></trkpt><trkpt lat="45.925879612196034" lon="11.240597860809038"><ele>789.0</ele><time>2026-04-06T15:29:23Z</time></trkpt><trkpt lat="45.92576290753905" lon="11.240813520723265"><ele>786.0</ele><time>2026-04-06T15:29:24Z</time></trkpt><trkpt lat="45.92563261007537" lon="11.241005728685483"><ele>783.0</ele><time>2026-04-06T15:29:25Z</time></trkpt><trkpt lat="45.925507380811055" lon="11.241186445360919"><ele>780.0</ele><time>2026-04-06T15:29:26Z</time></trkpt><trkpt lat="45.92538507854503" lon="11.241363476548374"><ele>776.6666666666667</ele><time>2026-04-06T15:29:27Z</time></trkpt><trkpt lat="45.92527231204645" lon="11.241542228644231"><ele>773.3333333333334</ele><time>2026-04-06T15:29:28Z</time></trkpt><trkpt lat="45.925177756987125" lon="11.241733542497304"><ele>770.0</ele><time>2026-04-06T15:29:29Z</time></trkpt><trkpt lat="45.9251065284958" lon="11.241936313433932"><ele>768.3333333333334</ele><time>2026-04-06T15:29:30Z</time></trkpt><trkpt lat="45.92504574799817" lon="11.242136525779015"><ele>766.6666666666667</ele><time>2026-04-06T15:29:31Z</time></trkpt><trkpt lat="45.92495894646818" lon="11.24230795298145"><ele>765.0</ele><time>2026-04-06T15:29:32Z</time></trkpt><trkpt lat="45.924845934378055" lon="11.242453452991603"><ele>765.0</ele><time>2026-04-06T15:29:33Z</time></trkpt><trkpt lat="45.924710728252236" lon="11.24256668807282"><ele>765.0</ele><time>2026-04-06T15:29:34Z</time></trkpt><trkpt lat="45.924563418043235" lon="11.242658749917048"><ele>765.0</ele><time>2026-04-06T15:29:35Z</time></trkpt><trkpt lat="45.92441813742246" lon="11.24276157161996"><ele>765.0</ele><time>2026-04-06T15:29:36Z</time></trkpt><trkpt lat="45.924279599249985" lon="11.242886635404062"><ele>765.0</ele><time>2026-04-06T15:29:37Z</time></trkpt><trkpt lat="45.92415332575467" lon="11.243029232878689"><ele>765.0</ele><time>2026-04-06T15:29:38Z</time></trkpt><trkpt lat="45.92404212911048" lon="11.243196376516222"><ele>767.3333333333333</ele><time>2026-04-06T15:29:39Z</time></trkpt><trkpt lat="45.92394870806634" lon="11.24339386450746"><ele>769.6666666666666</ele><time>2026-04-06T15:29:40Z</time></trkpt><trkpt lat="45.92387407231817" lon="11.24361369413605"><ele>772.0</ele><time>2026-04-06T15:29:41Z</time></trkpt><trkpt lat="45.923814323049925" lon="11.243853511853464"><ele>766.6666666666666</ele><time>2026-04-06T15:29:42Z</time></trkpt><trkpt lat="45.92374066116594" lon="11.244096781399497"><ele>761.3333333333333</ele><time>2026-04-06T15:29:43Z</time></trkpt><trkpt lat="45.92365416681182" lon="11.244334093967707"><ele>756.0</ele><time>2026-04-06T15:29:44Z</time></trkpt><trkpt lat="45.92355748627544" lon="11.244569550976646"><ele>760.6666666666667</ele><time>2026-04-06T15:29:45Z</time></trkpt><trkpt lat="45.92346271237556" lon="11.244807122846934"><ele>765.3333333333334</ele><time>2026-04-06T15:29:46Z</time></trkpt><trkpt lat="45.923376800301966" lon="11.24504568375155"><ele>770.0</ele><time>2026-04-06T15:29:47Z</time></trkpt><trkpt lat="45.92330625708319" lon="11.245282448703522"><ele>768.3333333333334</ele><time>2026-04-06T15:29:48Z</time></trkpt><trkpt lat="45.92326702660799" lon="11.245535457566612"><ele>766.6666666666667</ele><time>2026-04-06T15:29:49Z</time></trkpt><trkpt lat="45.92324339467386" lon="11.245795700058956"><ele>765.0</ele><time>2026-04-06T15:29:50Z</time></trkpt><trkpt lat="45.92319763369602" lon="11.246050831394008"><ele>765.0</ele><time>2026-04-06T15:29:51Z</time></trkpt><trkpt lat="45.923113835837974" lon="11.246284172044286"><ele>765.0</ele><time>2026-04-06T15:29:52Z</time></trkpt><trkpt lat="45.923018343520596" lon="11.246507262311068"><ele>765.0</ele><time>2026-04-06T15:29:53Z</time></trkpt><trkpt lat="45.92294485133255" lon="11.24674664804909"><ele>762.3333333333334</ele><time>2026-04-06T15:29:54Z</time></trkpt><trkpt lat="45.92289986381607" lon="11.24700176101982"><ele>759.6666666666667</ele><time>2026-04-06T15:29:55Z</time></trkpt><trkpt lat="45.92285699693152" lon="11.247259849739905"><ele>757.0</ele><time>2026-04-06T15:29:56Z</time></trkpt><trkpt lat="45.92280549006174" lon="11.247516536033746"><ele>756.6666666666667</ele><time>2026-04-06T15:29:57Z</time></trkpt><trkpt lat="45.92275615654854" lon="11.247775497019864"><ele>756.3333333333334</ele><time>2026-04-06T15:29:58Z</time></trkpt><trkpt lat="45.92270427104088" lon="11.248032644801953"><ele>756.0</ele><time>2026-04-06T15:29:59Z</time></trkpt><trkpt lat="45.92263913184577" lon="11.248282318913573"><ele>754.3333333333334</ele><time>2026-04-06T15:30:00Z</time></trkpt><trkpt lat="45.92256763734081" lon="11.24852679339018"><ele>752.6666666666667</ele><time>2026-04-06T15:30:01Z</time></trkpt><trkpt lat="45.92249398938429" lon="11.248768238653076"><ele>751.0</ele><time>2026-04-06T15:30:02Z</time></trkpt><trkpt lat="45.92242290865388" lon="11.249011501410859"><ele>751.0</ele><time>2026-04-06T15:30:03Z</time></trkpt><trkpt lat="45.92235286827197" lon="11.24925365668857"><ele>751.0</ele><time>2026-04-06T15:30:04Z</time></trkpt><trkpt lat="45.92228917906742" lon="11.249501994578704"><ele>751.0</ele><time>2026-04-06T15:30:05Z</time></trkpt><trkpt lat="45.92222338235058" lon="11.249751654757006"><ele>744.0</ele><time>2026-04-06T15:30:06Z</time></trkpt><trkpt lat="45.92218929120359" lon="11.250015856381266"><ele>737.0</ele><time>2026-04-06T15:30:07Z</time></trkpt><trkpt lat="45.92217273162322" lon="11.250286172589718"><ele>730.0</ele><time>2026-04-06T15:30:08Z</time></trkpt><trkpt lat="45.92216295482332" lon="11.250556220423855"><ele>726.0</ele><time>2026-04-06T15:30:09Z</time></trkpt><trkpt lat="45.92215638278996" lon="11.250828250784245"><ele>722.0</ele><time>2026-04-06T15:30:10Z</time></trkpt><trkpt lat="45.92216754965373" lon="11.251099483611492"><ele>718.0</ele><time>2026-04-06T15:30:11Z</time></trkpt><trkpt lat="45.92215856440902" lon="11.251368660105243"><ele>715.6666666666667</ele><time>2026-04-06T15:30:12Z</time></trkpt><trkpt lat="45.92214844904623" lon="11.251630977939557"><ele>713.3333333333334</ele><time>2026-04-06T15:30:13Z</time></trkpt><trkpt lat="45.922141617157685" lon="11.251875856302199"><ele>711.0</ele><time>2026-04-06T15:30:14Z</time></trkpt><trkpt lat="45.922130709375324" lon="11.252102611619614"><ele>708.3333333333334</ele><time>2026-04-06T15:30:15Z</time></trkpt><trkpt lat="45.922091627020826" lon="11.252324297456015"><ele>705.6666666666667</ele><time>2026-04-06T15:30:16Z</time></trkpt><trkpt lat="45.92202909512692" lon="11.252541767381313"><ele>703.0</ele><time>2026-04-06T15:30:17Z</time></trkpt><trkpt lat="45.921944431800576" lon="11.25274499328482"><ele>703.0</ele><time>2026-04-06T15:30:18Z</time></trkpt><trkpt lat="45.9218354104217" lon="11.252932683784588"><ele>703.0</ele><time>2026-04-06T15:30:19Z</time></trkpt><trkpt lat="45.921709892199154" lon="11.253109528212272"><ele>703.0</ele><time>2026-04-06T15:30:20Z</time></trkpt><trkpt lat="45.92158729604295" lon="11.25329550847742"><ele>706.0</ele><time>2026-04-06T15:30:21Z</time></trkpt><trkpt lat="45.9214692107206" lon="11.253488992767865"><ele>709.0</ele><time>2026-04-06T15:30:22Z</time></trkpt><trkpt lat="45.92134024858594" lon="11.253676050822724"><ele>712.0</ele><time>2026-04-06T15:30:23Z</time></trkpt><trkpt lat="45.92123641431928" lon="11.253889822816276"><ele>702.3333333333334</ele><time>2026-04-06T15:30:24Z</time></trkpt><trkpt lat="45.92116233660434" lon="11.254117937591328"><ele>692.6666666666666</ele><time>2026-04-06T15:30:25Z</time></trkpt><trkpt lat="45.921081879686376" lon="11.25430997650271"><ele>683.0</ele><time>2026-04-06T15:30:26Z</time></trkpt><trkpt lat="45.92099957896267" lon="11.254473686907835"><ele>683.0</ele><time>2026-04-06T15:30:27Z</time></trkpt><trkpt lat="45.92090632682895" lon="11.254598284783864"><ele>683.0</ele><time>2026-04-06T15:30:28Z</time></trkpt><trkpt lat="45.92079872059445" lon="11.254688849641544"><ele>683.0</ele><time>2026-04-06T15:30:29Z</time></trkpt><trkpt lat="45.92070984314248" lon="11.254758749867586"><ele>683.0</ele><time>2026-04-06T15:30:30Z</time></trkpt><trkpt lat="45.92065397175837" lon="11.254824093496627"><ele>683.0</ele><time>2026-04-06T15:30:31Z</time></trkpt><trkpt lat="45.920625560515916" lon="11.254969260125309"><ele>686.25</ele><time>2026-04-06T15:30:33Z</time></trkpt><trkpt lat="45.92071774298344" lon="11.255071260658072"><ele>689.5</ele><time>2026-04-06T15:30:34Z</time></trkpt><trkpt lat="45.920821834901325" lon="11.255084642395461"><ele>692.75</ele><time>2026-04-06T15:30:35Z</time></trkpt><trkpt lat="45.920915496651304" lon="11.254978734571921"><ele>696.0</ele><time>2026-04-06T15:30:36Z</time></trkpt><trkpt lat="45.920978453379675" lon="11.254830024297599"><ele>692.75</ele><time>2026-04-06T15:30:37Z</time></trkpt><trkpt lat="45.92105300377211" lon="11.25466973849853"><ele>689.5</ele><time>2026-04-06T15:30:38Z</time></trkpt><trkpt lat="45.921139929416796" lon="11.254503566627289"><ele>686.25</ele><time>2026-04-06T15:30:39Z</time></trkpt><trkpt lat="45.921236790319206" lon="11.254340690503017"><ele>683.0</ele><time>2026-04-06T15:30:40Z</time></trkpt><trkpt lat="45.92133747578289" lon="11.254175739924973"><ele>683.0</ele><time>2026-04-06T15:30:41Z</time></trkpt><trkpt lat="45.921445269755566" lon="11.254013229964238"><ele>683.0</ele><time>2026-04-06T15:30:42Z</time></trkpt><trkpt lat="45.92157644113272" lon="11.253893366301115"><ele>683.0</ele><time>2026-04-06T15:30:43Z</time></trkpt><trkpt lat="45.92170368484482" lon="11.253769581206663"><ele>684.25</ele><time>2026-04-06T15:30:44Z</time></trkpt><trkpt lat="45.921822044997086" lon="11.253650656363039"><ele>685.5</ele><time>2026-04-06T15:30:45Z</time></trkpt><trkpt lat="45.921928130219634" lon="11.253543384086552"><ele>686.75</ele><time>2026-04-06T15:30:46Z</time></trkpt><trkpt lat="45.92201320824836" lon="11.253457707829618"><ele>688.0</ele><time>2026-04-06T15:30:47Z</time></trkpt><trkpt lat="45.9220753091301" lon="11.25339517987968"><ele>688.0</ele><time>2026-04-06T15:30:48Z</time></trkpt><trkpt lat="45.922128698882716" lon="11.253343440764729"><ele>688.0</ele><time>2026-04-06T15:30:49Z</time></trkpt><trkpt lat="45.92221058536105" lon="11.25327420541694"><ele>688.0</ele><time>2026-04-06T15:30:51Z</time></trkpt><trkpt lat="45.922289626475504" lon="11.253260382054183"><ele>688.0</ele><time>2026-04-06T15:30:53Z</time></trkpt><trkpt lat="45.922352464448764" lon="11.253360114724918"><ele>688.0</ele><time>2026-04-06T15:30:55Z</time></trkpt><trkpt lat="45.92231899277259" lon="11.25349799548603"><ele>688.0</ele><time>2026-04-06T15:30:57Z</time></trkpt><trkpt lat="45.92224575994026" lon="11.25355019151962"><ele>688.0</ele><time>2026-04-06T15:30:58Z</time></trkpt><trkpt lat="45.922156394581165" lon="11.253627526565303"><ele>688.0</ele><time>2026-04-06T15:30:59Z</time></trkpt><trkpt lat="45.922047919027506" lon="11.25372528319287"><ele>688.0</ele><time>2026-04-06T15:31:00Z</time></trkpt><trkpt lat="45.92193656765991" lon="11.253831957590046"><ele>688.0</ele><time>2026-04-06T15:31:01Z</time></trkpt><trkpt lat="45.921834394557074" lon="11.253981224473879"><ele>686.3333333333334</ele><time>2026-04-06T15:31:02Z</time></trkpt><trkpt lat="45.92173054626883" lon="11.254138711553601"><ele>684.6666666666666</ele><time>2026-04-06T15:31:03Z</time></trkpt><trkpt lat="45.92162844596791" lon="11.25431310913583"><ele>683.0</ele><time>2026-04-06T15:31:04Z</time></trkpt><trkpt lat="45.92152439022575" lon="11.254492062976297"><ele>683.0</ele><time>2026-04-06T15:31:05Z</time></trkpt><trkpt lat="45.92141360009294" lon="11.254671179090654"><ele>683.0</ele><time>2026-04-06T15:31:06Z</time></trkpt><trkpt lat="45.921300395056036" lon="11.254845454620046"><ele>683.0</ele><time>2026-04-06T15:31:07Z</time></trkpt><trkpt lat="45.92119051537812" lon="11.255024164268983"><ele>676.6666666666666</ele><time>2026-04-06T15:31:08Z</time></trkpt><trkpt lat="45.9210860223624" lon="11.255210997307877"><ele>670.3333333333334</ele><time>2026-04-06T15:31:09Z</time></trkpt><trkpt lat="45.920977111127755" lon="11.255394341761127"><ele>664.0</ele><time>2026-04-06T15:31:10Z</time></trkpt><trkpt lat="45.92090870660093" lon="11.255610608652683"><ele>666.6666666666667</ele><time>2026-04-06T15:31:11Z</time></trkpt><trkpt lat="45.92082732944199" lon="11.25581545658544"><ele>669.3333333333334</ele><time>2026-04-06T15:31:12Z</time></trkpt><trkpt lat="45.92073360328012" lon="11.25600928657636"><ele>672.0</ele><time>2026-04-06T15:31:13Z</time></trkpt><trkpt lat="45.920630287680815" lon="11.256191800297584"><ele>672.0</ele><time>2026-04-06T15:31:14Z</time></trkpt><trkpt lat="45.92051780429843" lon="11.256357896515693"><ele>672.0</ele><time>2026-04-06T15:31:15Z</time></trkpt><trkpt lat="45.92045622888889" lon="11.256575306211626"><ele>672.0</ele><time>2026-04-06T15:31:16Z</time></trkpt><trkpt lat="45.920395027838595" lon="11.256783845619285"><ele>665.0</ele><time>2026-04-06T15:31:17Z</time></trkpt><trkpt lat="45.92034800065859" lon="11.256975915847756"><ele>658.0</ele><time>2026-04-06T15:31:18Z</time></trkpt><trkpt lat="45.92029908446159" lon="11.257139055973314"><ele>651.0</ele><time>2026-04-06T15:31:19Z</time></trkpt><trkpt lat="45.9202290241832" lon="11.25728253847491"><ele>644.0</ele><time>2026-04-06T15:31:20Z</time></trkpt><trkpt lat="45.92013450514429" lon="11.257380526854403"><ele>642.1666666666666</ele><time>2026-04-06T15:31:21Z</time></trkpt><trkpt lat="45.92006329573045" lon="11.257477665733543"><ele>640.3333333333333</ele><time>2026-04-06T15:31:22Z</time></trkpt><trkpt lat="45.92000144924707" lon="11.257546715057765"><ele>638.5</ele><time>2026-04-06T15:31:23Z</time></trkpt><trkpt lat="45.91998319483123" lon="11.25763674027248"><ele>636.6666666666666</ele><time>2026-04-06T15:31:24Z</time></trkpt><trkpt lat="45.92001291118015" lon="11.257734806463619"><ele>634.8333333333334</ele><time>2026-04-06T15:31:25Z</time></trkpt><trkpt lat="45.920089798153725" lon="11.25778984541345"><ele>633.0</ele><time>2026-04-06T15:31:26Z</time></trkpt><trkpt lat="45.92015545900024" lon="11.257778701435855"><ele>633.0</ele><time>2026-04-06T15:31:27Z</time></trkpt><trkpt lat="45.92022682008778" lon="11.257690367282411"><ele>633.0</ele><time>2026-04-06T15:31:28Z</time></trkpt><trkpt lat="45.92027612017076" lon="11.257561188083159"><ele>633.0</ele><time>2026-04-06T15:31:29Z</time></trkpt><trkpt lat="45.92032235372973" lon="11.257407726840327"><ele>633.0</ele><time>2026-04-06T15:31:30Z</time></trkpt><trkpt lat="45.92038107418869" lon="11.257234996721154"><ele>633.0</ele><time>2026-04-06T15:31:31Z</time></trkpt><trkpt lat="45.92045865447894" lon="11.257062451292574"><ele>636.6666666666666</ele><time>2026-04-06T15:31:32Z</time></trkpt><trkpt lat="45.920549563257325" lon="11.256894708051355"><ele>640.3333333333333</ele><time>2026-04-06T15:31:33Z</time></trkpt><trkpt lat="45.920648051358555" lon="11.256724013790773"><ele>644.0</ele><time>2026-04-06T15:31:34Z</time></trkpt><trkpt lat="45.920751897049044" lon="11.256566190864811"><ele>644.75</ele><time>2026-04-06T15:31:35Z</time></trkpt><trkpt lat="45.920851127201615" lon="11.256412142714046"><ele>645.5</ele><time>2026-04-06T15:31:36Z</time></trkpt><trkpt lat="45.92094814739347" lon="11.256260187314743"><ele>646.25</ele><time>2026-04-06T15:31:37Z</time></trkpt><trkpt lat="45.921030784380335" lon="11.25612521885883"><ele>647.0</ele><time>2026-04-06T15:31:38Z</time></trkpt><trkpt lat="45.92109191769569" lon="11.256035138531624"><ele>647.0</ele><time>2026-04-06T15:31:39Z</time></trkpt><trkpt lat="45.9211550530799" lon="11.255984744260713"><ele>647.0</ele><time>2026-04-06T15:31:40Z</time></trkpt><trkpt lat="45.921222875469105" lon="11.255993076737102"><ele>647.0</ele><time>2026-04-06T15:31:41Z</time></trkpt><trkpt lat="45.92127799934497" lon="11.25606014262017"><ele>647.0</ele><time>2026-04-06T15:31:42Z</time></trkpt><trkpt lat="45.921288357778565" lon="11.256152643829944"><ele>647.0</ele><time>2026-04-06T15:31:43Z</time></trkpt><trkpt lat="45.92123948889308" lon="11.256259838318313"><ele>647.0</ele><time>2026-04-06T15:31:44Z</time></trkpt><trkpt lat="45.9211642384529" lon="11.256354988937987"><ele>646.25</ele><time>2026-04-06T15:31:45Z</time></trkpt><trkpt lat="45.92107206139934" lon="11.256454628516856"><ele>645.5</ele><time>2026-04-06T15:31:46Z</time></trkpt><trkpt lat="45.92097180758646" lon="11.256563158464498"><ele>644.75</ele><time>2026-04-06T15:31:47Z</time></trkpt><trkpt lat="45.920868037001746" lon="11.256675354212312"><ele>644.0</ele><time>2026-04-06T15:31:48Z</time></trkpt><trkpt lat="45.920774489776015" lon="11.256796626765345"><ele>644.0</ele><time>2026-04-06T15:31:49Z</time></trkpt><trkpt lat="45.92069972214231" lon="11.256945039325242"><ele>644.0</ele><time>2026-04-06T15:31:50Z</time></trkpt><trkpt lat="45.92064945615799" lon="11.257129375038161"><ele>644.0</ele><time>2026-04-06T15:31:51Z</time></trkpt><trkpt lat="45.92062119044073" lon="11.257333336817538"><ele>644.0</ele><time>2026-04-06T15:31:52Z</time></trkpt><trkpt lat="45.920593464416285" lon="11.257540994032537"><ele>641.25</ele><time>2026-04-06T15:31:53Z</time></trkpt><trkpt lat="45.92056416332345" lon="11.257755785644934"><ele>638.5</ele><time>2026-04-06T15:31:54Z</time></trkpt><trkpt lat="45.92053670527963" lon="11.25796517082349"><ele>635.75</ele><time>2026-04-06T15:31:55Z</time></trkpt><trkpt lat="45.920513491248336" lon="11.258164244144435"><ele>633.0</ele><time>2026-04-06T15:31:56Z</time></trkpt><trkpt lat="45.920483351312505" lon="11.258340304923555"><ele>631.5</ele><time>2026-04-06T15:31:57Z</time></trkpt><trkpt lat="45.920423625481966" lon="11.258508268913214"><ele>630.0</ele><time>2026-04-06T15:31:58Z</time></trkpt><trkpt lat="45.920335062831214" lon="11.258655363426316"><ele>628.5</ele><time>2026-04-06T15:31:59Z</time></trkpt><trkpt lat="45.920227997169896" lon="11.258793388613805"><ele>627.0</ele><time>2026-04-06T15:32:00Z</time></trkpt><trkpt lat="45.92011571412943" lon="11.25893514331193"><ele>624.5</ele><time>2026-04-06T15:32:01Z</time></trkpt><trkpt lat="45.920003874793544" lon="11.2590711301309"><ele>622.0</ele><time>2026-04-06T15:32:02Z</time></trkpt><trkpt lat="45.91989676918547" lon="11.259204792139549"><ele>619.5</ele><time>2026-04-06T15:32:03Z</time></trkpt><trkpt lat="45.91979112560266" lon="11.259335848801472"><ele>617.0</ele><time>2026-04-06T15:32:04Z</time></trkpt><trkpt lat="45.91968913627711" lon="11.25946779012176"><ele>617.0</ele><time>2026-04-06T15:32:05Z</time></trkpt><trkpt lat="45.91958932522389" lon="11.25959948828187"><ele>617.0</ele><time>2026-04-06T15:32:06Z</time></trkpt><trkpt lat="45.919485870933656" lon="11.259729428139043"><ele>617.0</ele><time>2026-04-06T15:32:07Z</time></trkpt><trkpt lat="45.91937676133483" lon="11.259862801468346"><ele>617.0</ele><time>2026-04-06T15:32:08Z</time></trkpt><trkpt lat="45.919273214372716" lon="11.26000400568718"><ele>617.5</ele><time>2026-04-06T15:32:09Z</time></trkpt><trkpt lat="45.919167118456436" lon="11.260148000998509"><ele>618.0</ele><time>2026-04-06T15:32:10Z</time></trkpt><trkpt lat="45.91905964130247" lon="11.260299018783488"><ele>618.5</ele><time>2026-04-06T15:32:11Z</time></trkpt><trkpt lat="45.9189533935096" lon="11.260452447228252"><ele>619.0</ele><time>2026-04-06T15:32:12Z</time></trkpt><trkpt lat="45.91884484424979" lon="11.260607781081742"><ele>614.0</ele><time>2026-04-06T15:32:13Z</time></trkpt><trkpt lat="45.91875137302687" lon="11.260789311157762"><ele>609.0</ele><time>2026-04-06T15:32:14Z</time></trkpt><trkpt lat="45.91867743617335" lon="11.26100064891712"><ele>604.0</ele><time>2026-04-06T15:32:15Z</time></trkpt><trkpt lat="45.9186142073457" lon="11.261223552854183"><ele>604.3333333333334</ele><time>2026-04-06T15:32:16Z</time></trkpt><trkpt lat="45.9185529161728" lon="11.261450184112533"><ele>604.6666666666666</ele><time>2026-04-06T15:32:17Z</time></trkpt><trkpt lat="45.91849205704352" lon="11.261671978452531"><ele>605.0</ele><time>2026-04-06T15:32:18Z</time></trkpt><trkpt lat="45.91842967833931" lon="11.261885366660948"><ele>604.3333333333333</ele><time>2026-04-06T15:32:19Z</time></trkpt><trkpt lat="45.918356267712674" lon="11.262077257420257"><ele>603.6666666666666</ele><time>2026-04-06T15:32:20Z</time></trkpt><trkpt lat="45.91825901874838" lon="11.262247289351876"><ele>603.0</ele><time>2026-04-06T15:32:21Z</time></trkpt><trkpt lat="45.91814262571056" lon="11.262396645375533"><ele>603.0</ele><time>2026-04-06T15:32:22Z</time></trkpt><trkpt lat="45.91801007241229" lon="11.262505144015446"><ele>603.0</ele><time>2026-04-06T15:32:23Z</time></trkpt><trkpt lat="45.91788655283995" lon="11.262629840845966"><ele>603.0</ele><time>2026-04-06T15:32:24Z</time></trkpt><trkpt lat="45.91778932572042" lon="11.262786003570563"><ele>603.0</ele><time>2026-04-06T15:32:25Z</time></trkpt><trkpt lat="45.91772315672655" lon="11.262991440513135"><ele>600.0</ele><time>2026-04-06T15:32:26Z</time></trkpt><trkpt lat="45.91768066853737" lon="11.263222105660384"><ele>597.0</ele><time>2026-04-06T15:32:27Z</time></trkpt><trkpt lat="45.91763221736504" lon="11.263454957962825"><ele>594.0</ele><time>2026-04-06T15:32:28Z</time></trkpt><trkpt lat="45.9175601973087" lon="11.263679014252377"><ele>596.6666666666666</ele><time>2026-04-06T15:32:29Z</time></trkpt><trkpt lat="45.91744849501437" lon="11.263874057162583"><ele>599.3333333333333</ele><time>2026-04-06T15:32:30Z</time></trkpt><trkpt lat="45.917356726386814" lon="11.264092607134502"><ele>602.0</ele><time>2026-04-06T15:32:31Z</time></trkpt><trkpt lat="45.9172515787014" lon="11.264298845652934"><ele>602.0</ele><time>2026-04-06T15:32:32Z</time></trkpt><trkpt lat="45.91715046105136" lon="11.264508932730664"><ele>602.0</ele><time>2026-04-06T15:32:33Z</time></trkpt><trkpt lat="45.91704664475374" lon="11.264720992953752"><ele>602.0</ele><time>2026-04-06T15:32:34Z</time></trkpt><trkpt lat="45.91694269696049" lon="11.264930796597723"><ele>596.6666666666666</ele><time>2026-04-06T15:32:35Z</time></trkpt><trkpt lat="45.91683945958125" lon="11.265141436647287"><ele>591.3333333333334</ele><time>2026-04-06T15:32:36Z</time></trkpt><trkpt lat="45.916738179529" lon="11.265349510383002"><ele>586.0</ele><time>2026-04-06T15:32:37Z</time></trkpt><trkpt lat="45.91664729335681" lon="11.265556005703836"><ele>592.6666666666667</ele><time>2026-04-06T15:32:38Z</time></trkpt><trkpt lat="45.91656210323805" lon="11.265767807752741"><ele>599.3333333333334</ele><time>2026-04-06T15:32:39Z</time></trkpt><trkpt lat="45.91649157247059" lon="11.265982017318658"><ele>606.0</ele><time>2026-04-06T15:32:40Z</time></trkpt><trkpt lat="45.91645573601291" lon="11.266227075685668"><ele>601.6666666666666</ele><time>2026-04-06T15:32:41Z</time></trkpt><trkpt lat="45.91643900641472" lon="11.266486986815735"><ele>597.3333333333333</ele><time>2026-04-06T15:32:42Z</time></trkpt><trkpt lat="45.9164249133938" lon="11.266752343231525"><ele>593.0</ele><time>2026-04-06T15:32:43Z</time></trkpt><trkpt lat="45.91640814756549" lon="11.267017168567167"><ele>590.6666666666666</ele><time>2026-04-06T15:32:44Z</time></trkpt><trkpt lat="45.91639077538483" lon="11.26728376511403"><ele>588.3333333333334</ele><time>2026-04-06T15:32:45Z</time></trkpt><trkpt lat="45.91638030685901" lon="11.267549594807083"><ele>586.0</ele><time>2026-04-06T15:32:46Z</time></trkpt><trkpt lat="45.91638970980447" lon="11.267814686799786"><ele>586.0</ele><time>2026-04-06T15:32:47Z</time></trkpt><trkpt lat="45.9163704143294" lon="11.268069788602253"><ele>586.0</ele><time>2026-04-06T15:32:48Z</time></trkpt><trkpt lat="45.91631851711746" lon="11.268302857782809"><ele>586.0</ele><time>2026-04-06T15:32:49Z</time></trkpt><trkpt lat="45.916229069118764" lon="11.268509640282463"><ele>585.25</ele><time>2026-04-06T15:32:50Z</time></trkpt><trkpt lat="45.91615833545692" lon="11.268712018591543"><ele>584.5</ele><time>2026-04-06T15:32:51Z</time></trkpt><trkpt lat="45.91611094375402" lon="11.26889576123141"><ele>583.75</ele><time>2026-04-06T15:32:52Z</time></trkpt><trkpt lat="45.9161023180252" lon="11.269098133486667"><ele>583.0</ele><time>2026-04-06T15:32:53Z</time></trkpt><trkpt lat="45.916122392044926" lon="11.26929675374782"><ele>583.0</ele><time>2026-04-06T15:32:54Z</time></trkpt><trkpt lat="45.91613647569983" lon="11.269479765315655"><ele>583.0</ele><time>2026-04-06T15:32:55Z</time></trkpt><trkpt lat="45.916143571518106" lon="11.26965474181992"><ele>583.0</ele><time>2026-04-06T15:32:56Z</time></trkpt><trkpt lat="45.916146414859604" lon="11.26982210040676"><ele>583.0</ele><time>2026-04-06T15:32:57Z</time></trkpt><trkpt lat="45.916156996610006" lon="11.269982891280314"><ele>583.0</ele><time>2026-04-06T15:32:58Z</time></trkpt><trkpt lat="45.91615812678684" lon="11.27013479904188"><ele>583.0</ele><time>2026-04-06T15:32:59Z</time></trkpt><trkpt lat="45.91615788476252" lon="11.270278366793821"><ele>583.0</ele><time>2026-04-06T15:33:00Z</time></trkpt><trkpt lat="45.91614445995385" lon="11.27041771531977"><ele>583.0</ele><time>2026-04-06T15:33:01Z</time></trkpt><trkpt lat="45.91611891023533" lon="11.270549143533684"><ele>583.0</ele><time>2026-04-06T15:33:02Z</time></trkpt><trkpt lat="45.91607671657873" lon="11.270673219930565"><ele>581.6666666666667</ele><time>2026-04-06T15:33:03Z</time></trkpt><trkpt lat="45.916028402757554" lon="11.270787052760118"><ele>580.3333333333334</ele><time>2026-04-06T15:33:04Z</time></trkpt><trkpt lat="45.91597998675259" lon="11.270887726143858"><ele>579.0</ele><time>2026-04-06T15:33:05Z</time></trkpt><trkpt lat="45.915943930691306" lon="11.27100109369272"><ele>577.6666666666666</ele><time>2026-04-06T15:33:06Z</time></trkpt><trkpt lat="45.91592973231431" lon="11.27111405024392"><ele>576.3333333333333</ele><time>2026-04-06T15:33:07Z</time></trkpt><trkpt lat="45.91592286138976" lon="11.271235737782247"><ele>575.0</ele><time>2026-04-06T15:33:08Z</time></trkpt><trkpt lat="45.91595570681695" lon="11.271354925379258"><ele>574.6666666666666</ele><time>2026-04-06T15:33:09Z</time></trkpt><trkpt lat="45.91593116932977" lon="11.271468773066282"><ele>574.3333333333333</ele><time>2026-04-06T15:33:10Z</time></trkpt><trkpt lat="45.915920798743095" lon="11.271595957702225"><ele>574.0</ele><time>2026-04-06T15:33:11Z</time></trkpt><trkpt lat="45.91587385938976" lon="11.271707844455824"><ele>573.6666666666666</ele><time>2026-04-06T15:33:12Z</time></trkpt><trkpt lat="45.915818848443834" lon="11.271811093157083"><ele>573.3333333333334</ele><time>2026-04-06T15:33:13Z</time></trkpt><trkpt lat="45.91575208316891" lon="11.27189856088412"><ele>573.0</ele><time>2026-04-06T15:33:14Z</time></trkpt><trkpt lat="45.91567088450893" lon="11.2719639761746"><ele>575.1666666666666</ele><time>2026-04-06T15:33:15Z</time></trkpt><trkpt lat="45.915584926566694" lon="11.272011419875827"><ele>577.3333333333334</ele><time>2026-04-06T15:33:16Z</time></trkpt><trkpt lat="45.91550459939693" lon="11.27203627244722"><ele>579.5</ele><time>2026-04-06T15:33:17Z</time></trkpt><trkpt lat="45.915428445144855" lon="11.272047274147244"><ele>581.6666666666667</ele><time>2026-04-06T15:33:18Z</time></trkpt><trkpt lat="45.91535147242551" lon="11.272076760662937"><ele>583.8333333333334</ele><time>2026-04-06T15:33:19Z</time></trkpt><trkpt lat="45.91527340324733" lon="11.272135899988855"><ele>586.0</ele><time>2026-04-06T15:33:20Z</time></trkpt><trkpt lat="45.91519900480766" lon="11.272208863757983"><ele>584.4</ele><time>2026-04-06T15:33:21Z</time></trkpt><trkpt lat="45.915149897632716" lon="11.272289075812564"><ele>582.8</ele><time>2026-04-06T15:33:22Z</time></trkpt><trkpt lat="45.91512758352528" lon="11.272410509603834"><ele>581.1999999999999</ele><time>2026-04-06T15:33:23Z</time></trkpt><trkpt lat="45.91513133141687" lon="11.272558548820642"><ele>579.6</ele><time>2026-04-06T15:33:24Z</time></trkpt><trkpt lat="45.9151569082861" lon="11.272715725356283"><ele>578.0</ele><time>2026-04-06T15:33:25Z</time></trkpt><trkpt lat="45.915198323731026" lon="11.27287519886402"><ele>578.0</ele><time>2026-04-06T15:33:26Z</time></trkpt><trkpt lat="45.915240343987165" lon="11.273041506098963"><ele>578.0</ele><time>2026-04-06T15:33:27Z</time></trkpt><trkpt lat="45.91524919211502" lon="11.273208923331149"><ele>578.0</ele><time>2026-04-06T15:33:28Z</time></trkpt><trkpt lat="45.91520307138447" lon="11.273367207841773"><ele>578.0</ele><time>2026-04-06T15:33:29Z</time></trkpt><trkpt lat="45.915162827942275" lon="11.273519405598435"><ele>578.75</ele><time>2026-04-06T15:33:30Z</time></trkpt><trkpt lat="45.9150801151823" lon="11.273638831349196"><ele>579.5</ele><time>2026-04-06T15:33:31Z</time></trkpt><trkpt lat="45.91497892373702" lon="11.273748684310728"><ele>580.25</ele><time>2026-04-06T15:33:32Z</time></trkpt><trkpt lat="45.91488274886488" lon="11.273845591874224"><ele>581.0</ele><time>2026-04-06T15:33:33Z</time></trkpt><trkpt lat="45.914801087979455" lon="11.273918688771992"><ele>578.8333333333333</ele><time>2026-04-06T15:33:34Z</time></trkpt><trkpt lat="45.9147559165763" lon="11.274005190196776"><ele>576.6666666666666</ele><time>2026-04-06T15:33:35Z</time></trkpt><trkpt lat="45.914752881413165" lon="11.274121612749063"><ele>574.5</ele><time>2026-04-06T15:33:36Z</time></trkpt><trkpt lat="45.914789878676004" lon="11.274232781166303"><ele>572.3333333333334</ele><time>2026-04-06T15:33:37Z</time></trkpt><trkpt lat="45.914838099018745" lon="11.274333941641622"><ele>570.1666666666667</ele><time>2026-04-06T15:33:38Z</time></trkpt><trkpt lat="45.914936969883215" lon="11.274380162711616"><ele>568.0</ele><time>2026-04-06T15:33:39Z</time></trkpt><trkpt lat="45.91505146974632" lon="11.274359843692395"><ele>563.5</ele><time>2026-04-06T15:33:40Z</time></trkpt><trkpt lat="45.91515646000418" lon="11.2742624280532"><ele>559.0</ele><time>2026-04-06T15:33:41Z</time></trkpt><trkpt lat="45.915258502637506" lon="11.274183471213947"><ele>554.5</ele><time>2026-04-06T15:33:42Z</time></trkpt><trkpt lat="45.91537391197413" lon="11.27414510462986"><ele>550.0</ele><time>2026-04-06T15:33:43Z</time></trkpt><trkpt lat="45.91546223264082" lon="11.274046753869115"><ele>553.4</ele><time>2026-04-06T15:33:44Z</time></trkpt><trkpt lat="45.9155411782583" lon="11.273926309060743"><ele>556.8</ele><time>2026-04-06T15:33:45Z</time></trkpt><trkpt lat="45.915586319132565" lon="11.273773930707643"><ele>560.2</ele><time>2026-04-06T15:33:46Z</time></trkpt><trkpt lat="45.91564205705308" lon="11.273661622942733"><ele>563.6</ele><time>2026-04-06T15:33:47Z</time></trkpt><trkpt lat="45.915690792542726" lon="11.273571057539439"><ele>567.0</ele><time>2026-04-06T15:33:48Z</time></trkpt><trkpt lat="45.915750111835166" lon="11.273517250936262"><ele>567.0</ele><time>2026-04-06T15:33:49Z</time></trkpt><trkpt lat="45.91583349357472" lon="11.273539034767932"><ele>567.0</ele><time>2026-04-06T15:33:50Z</time></trkpt><trkpt lat="45.91590369769537" lon="11.273621888919335"><ele>567.0</ele><time>2026-04-06T15:33:51Z</time></trkpt><trkpt lat="45.915942018824246" lon="11.273736511414672"><ele>567.0</ele><time>2026-04-06T15:33:52Z</time></trkpt><trkpt lat="45.915934925581006" lon="11.273866666944626"><ele>567.0</ele><time>2026-04-06T15:33:53Z</time></trkpt><trkpt lat="45.91588943710417" lon="11.273993187281972"><ele>562.75</ele><time>2026-04-06T15:33:54Z</time></trkpt><trkpt lat="45.91581361072189" lon="11.274122848516312"><ele>558.5</ele><time>2026-04-06T15:33:55Z</time></trkpt><trkpt lat="45.91571827146752" lon="11.274243190766708"><ele>554.25</ele><time>2026-04-06T15:33:56Z</time></trkpt><trkpt lat="45.91561188826648" lon="11.274354404604276"><ele>550.0</ele><time>2026-04-06T15:33:57Z</time></trkpt><trkpt lat="45.91549448613633" lon="11.274458907106947"><ele>550.0</ele><time>2026-04-06T15:33:58Z</time></trkpt><trkpt lat="45.91537499601301" lon="11.274570170505879"><ele>550.0</ele><time>2026-04-06T15:33:59Z</time></trkpt><trkpt lat="45.91525744149424" lon="11.274686113448064"><ele>550.0</ele><time>2026-04-06T15:34:00Z</time></trkpt><trkpt lat="45.91514358801169" lon="11.274799818987525"><ele>550.0</ele><time>2026-04-06T15:34:01Z</time></trkpt><trkpt lat="45.91503858375588" lon="11.274914251273001"><ele>549.6</ele><time>2026-04-06T15:34:02Z</time></trkpt><trkpt lat="45.91494195541926" lon="11.275040907808801"><ele>549.2</ele><time>2026-04-06T15:34:03Z</time></trkpt><trkpt lat="45.91486561217021" lon="11.27515414976853"><ele>548.8</ele><time>2026-04-06T15:34:04Z</time></trkpt><trkpt lat="45.914812740431245" lon="11.275263340591161"><ele>548.4</ele><time>2026-04-06T15:34:05Z</time></trkpt><trkpt lat="45.91479097138782" lon="11.275388436448997"><ele>548.0</ele><time>2026-04-06T15:34:06Z</time></trkpt><trkpt lat="45.91481920697289" lon="11.275529442698687"><ele>545.25</ele><time>2026-04-06T15:34:07Z</time></trkpt><trkpt lat="45.91487544875371" lon="11.275673981198246"><ele>542.5</ele><time>2026-04-06T15:34:08Z</time></trkpt><trkpt lat="45.914950194525815" lon="11.275813160830957"><ele>539.75</ele><time>2026-04-06T15:34:09Z</time></trkpt><trkpt lat="45.91499636002335" lon="11.275976668099792"><ele>537.0</ele><time>2026-04-06T15:34:10Z</time></trkpt><trkpt lat="45.91503780234977" lon="11.276139629691912"><ele>537.0</ele><time>2026-04-06T15:34:11Z</time></trkpt><trkpt lat="45.91503662388599" lon="11.276316837405039"><ele>537.0</ele><time>2026-04-06T15:34:12Z</time></trkpt><trkpt lat="45.91504726033829" lon="11.27648482686038"><ele>537.0</ele><time>2026-04-06T15:34:13Z</time></trkpt><trkpt lat="45.91505468978918" lon="11.276648112371541"><ele>537.0</ele><time>2026-04-06T15:34:14Z</time></trkpt><trkpt lat="45.915003498029314" lon="11.276802604535671"><ele>535.5</ele><time>2026-04-06T15:34:15Z</time></trkpt><trkpt lat="45.91491225576836" lon="11.276946426273494"><ele>534.0</ele><time>2026-04-06T15:34:16Z</time></trkpt><trkpt lat="45.91479579013595" lon="11.277070068663917"><ele>532.5</ele><time>2026-04-06T15:34:17Z</time></trkpt><trkpt lat="45.91466291575942" lon="11.277164787942564"><ele>531.0</ele><time>2026-04-06T15:34:18Z</time></trkpt><trkpt lat="45.91452683148201" lon="11.277269171268939"><ele>528.0</ele><time>2026-04-06T15:34:19Z</time></trkpt><trkpt lat="45.91438730216572" lon="11.27737095626899"><ele>525.0</ele><time>2026-04-06T15:34:20Z</time></trkpt><trkpt lat="45.91424773064267" lon="11.277478456033622"><ele>522.0</ele><time>2026-04-06T15:34:21Z</time></trkpt><trkpt lat="45.914122536025225" lon="11.277591523682762"><ele>521.25</ele><time>2026-04-06T15:34:22Z</time></trkpt><trkpt lat="45.91401188940159" lon="11.27770372016868"><ele>520.5</ele><time>2026-04-06T15:34:23Z</time></trkpt><trkpt lat="45.91392080640957" lon="11.277822369785305"><ele>519.75</ele><time>2026-04-06T15:34:24Z</time></trkpt><trkpt lat="45.91385455464122" lon="11.277971006498028"><ele>519.0</ele><time>2026-04-06T15:34:25Z</time></trkpt><trkpt lat="45.91381942714022" lon="11.278153605696849"><ele>516.6666666666666</ele><time>2026-04-06T15:34:26Z</time></trkpt><trkpt lat="45.913822673507745" lon="11.278360831491526"><ele>514.3333333333333</ele><time>2026-04-06T15:34:27Z</time></trkpt><trkpt lat="45.91384044312087" lon="11.278577889061348"><ele>512.0</ele><time>2026-04-06T15:34:28Z</time></trkpt><trkpt lat="45.913853996172165" lon="11.278803131656245"><ele>511.66666666666663</ele><time>2026-04-06T15:34:29Z</time></trkpt><trkpt lat="45.913863177301174" lon="11.279031362272395"><ele>511.33333333333337</ele><time>2026-04-06T15:34:30Z</time></trkpt><trkpt lat="45.91388956530405" lon="11.279261275204153"><ele>511.0</ele><time>2026-04-06T15:34:31Z</time></trkpt><trkpt lat="45.9139527443992" lon="11.279487331758544"><ele>511.0</ele><time>2026-04-06T15:34:32Z</time></trkpt><trkpt lat="45.91402979133504" lon="11.279705042351878"><ele>511.0</ele><time>2026-04-06T15:34:33Z</time></trkpt><trkpt lat="45.91410687703838" lon="11.279923962022133"><ele>511.0</ele><time>2026-04-06T15:34:34Z</time></trkpt><trkpt lat="45.914156776205175" lon="11.280153136146273"><ele>511.25</ele><time>2026-04-06T15:34:35Z</time></trkpt><trkpt lat="45.91420770669982" lon="11.280366254437187"><ele>511.5</ele><time>2026-04-06T15:34:36Z</time></trkpt><trkpt lat="45.91425400515777" lon="11.280551106242827"><ele>511.75</ele><time>2026-04-06T15:34:37Z</time></trkpt><trkpt lat="45.91428659485004" lon="11.280709354837121"><ele>512.0</ele><time>2026-04-06T15:34:38Z</time></trkpt><trkpt lat="45.91430549114775" lon="11.280865095339657"><ele>512.25</ele><time>2026-04-06T15:34:39Z</time></trkpt><trkpt lat="45.914257854404994" lon="11.281030089324231"><ele>512.5</ele><time>2026-04-06T15:34:40Z</time></trkpt><trkpt lat="45.914178628213136" lon="11.281179767303156"><ele>512.75</ele><time>2026-04-06T15:34:41Z</time></trkpt><trkpt lat="45.91409462315328" lon="11.281337002137331"><ele>513.0</ele><time>2026-04-06T15:34:42Z</time></trkpt><trkpt lat="45.913993859824195" lon="11.28149095607098"><ele>512.0</ele><time>2026-04-06T15:34:43Z</time></trkpt><trkpt lat="45.91389239576063" lon="11.281651243873064"><ele>511.0</ele><time>2026-04-06T15:34:44Z</time></trkpt><trkpt lat="45.913792188284944" lon="11.281821352458392"><ele>510.0</ele><time>2026-04-06T15:34:45Z</time></trkpt><trkpt lat="45.913705271897285" lon="11.282002213075602"><ele>510.0</ele><time>2026-04-06T15:34:46Z</time></trkpt><trkpt lat="45.913632611273805" lon="11.282198765733137"><ele>510.0</ele><time>2026-04-06T15:34:47Z</time></trkpt><trkpt lat="45.913581781712786" lon="11.282407180897273"><ele>510.0</ele><time>2026-04-06T15:34:48Z</time></trkpt><trkpt lat="45.913555698749725" lon="11.282622047592216"><ele>509.5</ele><time>2026-04-06T15:34:49Z</time></trkpt><trkpt lat="45.913549622885604" lon="11.282837008865409"><ele>509.0</ele><time>2026-04-06T15:34:50Z</time></trkpt><trkpt lat="45.9135485016233" lon="11.283051431577535"><ele>508.5</ele><time>2026-04-06T15:34:51Z</time></trkpt><trkpt lat="45.91352476229097" lon="11.283260243945906"><ele>508.0</ele><time>2026-04-06T15:34:52Z</time></trkpt><trkpt lat="45.91348464435181" lon="11.283466720931443"><ele>507.5</ele><time>2026-04-06T15:34:53Z</time></trkpt><trkpt lat="45.91343499280772" lon="11.283661321019315"><ele>507.0</ele><time>2026-04-06T15:34:54Z</time></trkpt><trkpt lat="45.91338311880188" lon="11.283852227006054"><ele>506.5</ele><time>2026-04-06T15:34:55Z</time></trkpt><trkpt lat="45.91333404874138" lon="11.284042218730058"><ele>506.0</ele><time>2026-04-06T15:34:56Z</time></trkpt><trkpt lat="45.913288160535124" lon="11.284233153147772"><ele>505.5</ele><time>2026-04-06T15:34:57Z</time></trkpt><trkpt lat="45.91327094118426" lon="11.284433237354078"><ele>505.0</ele><time>2026-04-06T15:34:58Z</time></trkpt><trkpt lat="45.91327422956347" lon="11.284634976520879"><ele>504.5</ele><time>2026-04-06T15:34:59Z</time></trkpt><trkpt lat="45.913301575387166" lon="11.284834691972806"><ele>504.0</ele><time>2026-04-06T15:35:00Z</time></trkpt><trkpt lat="45.913330733196545" lon="11.2850389783989"><ele>504.0</ele><time>2026-04-06T15:35:01Z</time></trkpt><trkpt lat="45.91335163812079" lon="11.285246808392465"><ele>504.0</ele><time>2026-04-06T15:35:02Z</time></trkpt><trkpt lat="45.91336600369468" lon="11.285454078539061"><ele>504.0</ele><time>2026-04-06T15:35:03Z</time></trkpt><trkpt lat="45.9133782422465" lon="11.285656615079652"><ele>504.0</ele><time>2026-04-06T15:35:04Z</time></trkpt><trkpt lat="45.9133739281327" lon="11.28585868874812"><ele>503.0</ele><time>2026-04-06T15:35:05Z</time></trkpt><trkpt lat="45.91337639044611" lon="11.286056507607693"><ele>502.0</ele><time>2026-04-06T15:35:06Z</time></trkpt><trkpt lat="45.91335823156132" lon="11.286246138359544"><ele>501.0</ele><time>2026-04-06T15:35:07Z</time></trkpt><trkpt lat="45.913323926702304" lon="11.286426937646842"><ele>500.0</ele><time>2026-04-06T15:35:08Z</time></trkpt><trkpt lat="45.913271895434605" lon="11.286602227831159"><ele>498.75</ele><time>2026-04-06T15:35:09Z</time></trkpt><trkpt lat="45.91323686294037" lon="11.286779184948843"><ele>497.5</ele><time>2026-04-06T15:35:10Z</time></trkpt><trkpt lat="45.913189343596855" lon="11.286931144340254"><ele>496.25</ele><time>2026-04-06T15:35:11Z</time></trkpt><trkpt lat="45.913144547303204" lon="11.287080312910394"><ele>495.0</ele><time>2026-04-06T15:35:12Z</time></trkpt><trkpt lat="45.91310007898125" lon="11.287237297721274"><ele>493.75</ele><time>2026-04-06T15:35:13Z</time></trkpt><trkpt lat="45.913052106132845" lon="11.2873947604964"><ele>492.5</ele><time>2026-04-06T15:35:14Z</time></trkpt><trkpt lat="45.91300084582837" lon="11.287562452369146"><ele>491.25</ele><time>2026-04-06T15:35:15Z</time></trkpt><trkpt lat="45.91294805204374" lon="11.28773571552752"><ele>490.0</ele><time>2026-04-06T15:35:16Z</time></trkpt><trkpt lat="45.91290333775462" lon="11.287913242906736"><ele>489.25</ele><time>2026-04-06T15:35:17Z</time></trkpt><trkpt lat="45.91288290560943" lon="11.288116291842597"><ele>488.5</ele><time>2026-04-06T15:35:18Z</time></trkpt><trkpt lat="45.91288103022737" lon="11.288332663141016"><ele>487.75</ele><time>2026-04-06T15:35:19Z</time></trkpt><trkpt lat="45.91288895702159" lon="11.28854327177359"><ele>487.0</ele><time>2026-04-06T15:35:20Z</time></trkpt><trkpt lat="45.9128851114596" lon="11.288753354579573"><ele>485.33333333333337</ele><time>2026-04-06T15:35:21Z</time></trkpt><trkpt lat="45.91289571293361" lon="11.288964430327926"><ele>483.66666666666663</ele><time>2026-04-06T15:35:22Z</time></trkpt><trkpt lat="45.91292331480336" lon="11.289180268441177"><ele>482.0</ele><time>2026-04-06T15:35:23Z</time></trkpt><trkpt lat="45.91292579573058" lon="11.289418198696795"><ele>482.0</ele><time>2026-04-06T15:35:24Z</time></trkpt><trkpt lat="45.912951953288186" lon="11.289680835632177"><ele>482.0</ele><time>2026-04-06T15:35:25Z</time></trkpt><trkpt lat="45.913004843688505" lon="11.289960595561995"><ele>482.0</ele><time>2026-04-06T15:35:26Z</time></trkpt><trkpt lat="45.91307146695252" lon="11.290234745946988"><ele>482.0</ele><time>2026-04-06T15:35:27Z</time></trkpt><trkpt lat="45.91313901187918" lon="11.290490443629041"><ele>482.0</ele><time>2026-04-06T15:35:28Z</time></trkpt><trkpt lat="45.91320042042664" lon="11.290735224402566"><ele>482.0</ele><time>2026-04-06T15:35:29Z</time></trkpt><trkpt lat="45.9132446413792" lon="11.29097659500149"><ele>482.3333333333333</ele><time>2026-04-06T15:35:30Z</time></trkpt><trkpt lat="45.91327886923952" lon="11.29121718063463"><ele>482.66666666666663</ele><time>2026-04-06T15:35:31Z</time></trkpt><trkpt lat="45.91330923871667" lon="11.291453184630324"><ele>483.0</ele><time>2026-04-06T15:35:32Z</time></trkpt><trkpt lat="45.913339647607465" lon="11.291680790619647"><ele>483.0</ele><time>2026-04-06T15:35:33Z</time></trkpt><trkpt lat="45.913360551885724" lon="11.291898559057774"><ele>483.0</ele><time>2026-04-06T15:35:34Z</time></trkpt><trkpt lat="45.91336753266698" lon="11.292107324355262"><ele>483.0</ele><time>2026-04-06T15:35:35Z</time></trkpt><trkpt lat="45.91335579830353" lon="11.29230937028713"><ele>483.0</ele><time>2026-04-06T15:35:36Z</time></trkpt><trkpt lat="45.91333299924015" lon="11.292507663622814"><ele>482.5</ele><time>2026-04-06T15:35:37Z</time></trkpt><trkpt lat="45.913299383886866" lon="11.292712334024117"><ele>482.0</ele><time>2026-04-06T15:35:38Z</time></trkpt><trkpt lat="45.91327037302583" lon="11.292911898081385"><ele>481.5</ele><time>2026-04-06T15:35:39Z</time></trkpt><trkpt lat="45.91326409822275" lon="11.29311087781524"><ele>481.0</ele><time>2026-04-06T15:35:40Z</time></trkpt><trkpt lat="45.91323232351423" lon="11.293293767663789"><ele>479.75</ele><time>2026-04-06T15:35:41Z</time></trkpt><trkpt lat="45.913190130767575" lon="11.29346846353936"><ele>478.5</ele><time>2026-04-06T15:35:42Z</time></trkpt><trkpt lat="45.913128780798694" lon="11.293651637177812"><ele>477.25</ele><time>2026-04-06T15:35:43Z</time></trkpt><trkpt lat="45.91303409247141" lon="11.293820460795567"><ele>476.0</ele><time>2026-04-06T15:35:44Z</time></trkpt><trkpt lat="45.91296160768435" lon="11.293993562794922"><ele>476.0</ele><time>2026-04-06T15:35:45Z</time></trkpt><trkpt lat="45.91289089538088" lon="11.294160435973758"><ele>476.0</ele><time>2026-04-06T15:35:46Z</time></trkpt><trkpt lat="45.91281792589939" lon="11.294325176660598"><ele>476.0</ele><time>2026-04-06T15:35:47Z</time></trkpt><trkpt lat="45.912744688846445" lon="11.29449943539721"><ele>476.0</ele><time>2026-04-06T15:35:48Z</time></trkpt><trkpt lat="45.912648594662016" lon="11.2946644450793"><ele>476.3333333333333</ele><time>2026-04-06T15:35:49Z</time></trkpt><trkpt lat="45.912525968755745" lon="11.294815766418358"><ele>476.66666666666663</ele><time>2026-04-06T15:35:50Z</time></trkpt><trkpt lat="45.91240489342473" lon="11.294998939276951"><ele>477.0</ele><time>2026-04-06T15:35:51Z</time></trkpt><trkpt lat="45.91227640589518" lon="11.295196184006599"><ele>477.0</ele><time>2026-04-06T15:35:52Z</time></trkpt><trkpt lat="45.91214580728259" lon="11.295398776094514"><ele>477.0</ele><time>2026-04-06T15:35:53Z</time></trkpt><trkpt lat="45.91202520701023" lon="11.295612396807597"><ele>477.0</ele><time>2026-04-06T15:35:54Z</time></trkpt><trkpt lat="45.911907805312055" lon="11.295834207484846"><ele>477.33333333333337</ele><time>2026-04-06T15:35:55Z</time></trkpt><trkpt lat="45.911801007784376" lon="11.29608073619709"><ele>477.6666666666667</ele><time>2026-04-06T15:35:56Z</time></trkpt><trkpt lat="45.911704576039845" lon="11.296349745558748"><ele>478.0</ele><time>2026-04-06T15:35:57Z</time></trkpt><trkpt lat="45.91159772450351" lon="11.296618465561687"><ele>478.0</ele><time>2026-04-06T15:35:58Z</time></trkpt><trkpt lat="45.91150092071308" lon="11.296912695395381"><ele>478.0</ele><time>2026-04-06T15:35:59Z</time></trkpt><trkpt lat="45.9114040516478" lon="11.29720672150965"><ele>472.0</ele><time>2026-04-06T15:36:00Z</time></trkpt><trkpt lat="45.911303577549084" lon="11.297514500292205"><ele>466.0</ele><time>2026-04-06T15:36:01Z</time></trkpt><trkpt lat="45.91119964967006" lon="11.29782489238304"><ele>463.5</ele><time>2026-04-06T15:36:02Z</time></trkpt><trkpt lat="45.911096861166016" lon="11.298137012817444"><ele>461.0</ele><time>2026-04-06T15:36:03Z</time></trkpt><trkpt lat="45.9109957413602" lon="11.29844593612432"><ele>464.0</ele><time>2026-04-06T15:36:04Z</time></trkpt><trkpt lat="45.91090675559322" lon="11.298759142043057"><ele>467.0</ele><time>2026-04-06T15:36:05Z</time></trkpt><trkpt lat="45.91080143815773" lon="11.29905681555148"><ele>467.0</ele><time>2026-04-06T15:36:06Z</time></trkpt><trkpt lat="45.910702567249416" lon="11.29935607409203"><ele>467.0</ele><time>2026-04-06T15:36:07Z</time></trkpt><trkpt lat="45.910586424053214" lon="11.299639398572971"><ele>461.5</ele><time>2026-04-06T15:36:08Z</time></trkpt><trkpt lat="45.910473000780385" lon="11.299921755881714"><ele>456.0</ele><time>2026-04-06T15:36:09Z</time></trkpt><trkpt lat="45.9103623946099" lon="11.300204367876317"><ele>456.0</ele><time>2026-04-06T15:36:10Z</time></trkpt><trkpt lat="45.910234572194476" lon="11.30046969228247"><ele>456.0</ele><time>2026-04-06T15:36:11Z</time></trkpt><trkpt lat="45.91010581630681" lon="11.300730719492002"><ele>456.0</ele><time>2026-04-06T15:36:12Z</time></trkpt><trkpt lat="45.90997051729897" lon="11.300983268508269"><ele>455.66666666666663</ele><time>2026-04-06T15:36:13Z</time></trkpt><trkpt lat="45.90980988022661" lon="11.301199190632516"><ele>455.3333333333333</ele><time>2026-04-06T15:36:14Z</time></trkpt><trkpt lat="45.90967298559076" lon="11.301443349584474"><ele>455.0</ele><time>2026-04-06T15:36:15Z</time></trkpt><trkpt lat="45.90953144472709" lon="11.301682055869989"><ele>455.0</ele><time>2026-04-06T15:36:16Z</time></trkpt><trkpt lat="45.90940905918173" lon="11.30194391018095"><ele>455.0</ele><time>2026-04-06T15:36:17Z</time></trkpt><trkpt lat="45.909284121687776" lon="11.30220689258587"><ele>455.0</ele><time>2026-04-06T15:36:18Z</time></trkpt><trkpt lat="45.909156598762756" lon="11.302469737426488"><ele>454.3333333333333</ele><time>2026-04-06T15:36:19Z</time></trkpt><trkpt lat="45.90902938214135" lon="11.302731370565652"><ele>453.66666666666663</ele><time>2026-04-06T15:36:20Z</time></trkpt><trkpt lat="45.90890194404799" lon="11.302995509388273"><ele>453.0</ele><time>2026-04-06T15:36:21Z</time></trkpt><trkpt lat="45.90877367652117" lon="11.303256216148174"><ele>453.0</ele><time>2026-04-06T15:36:22Z</time></trkpt><trkpt lat="45.90864781883199" lon="11.30352170610196"><ele>453.0</ele><time>2026-04-06T15:36:23Z</time></trkpt><trkpt lat="45.90851895338489" lon="11.303783528461496"><ele>453.0</ele><time>2026-04-06T15:36:24Z</time></trkpt><trkpt lat="45.90838853997211" lon="11.304038253130043"><ele>453.66666666666663</ele><time>2026-04-06T15:36:25Z</time></trkpt><trkpt lat="45.908241279610515" lon="11.3042783575939"><ele>454.3333333333333</ele><time>2026-04-06T15:36:26Z</time></trkpt><trkpt lat="45.90809479171108" lon="11.304507851605228"><ele>455.0</ele><time>2026-04-06T15:36:27Z</time></trkpt><trkpt lat="45.9079456392692" lon="11.3047376343066"><ele>454.3333333333333</ele><time>2026-04-06T15:36:28Z</time></trkpt><trkpt lat="45.90779777687024" lon="11.304972795068752"><ele>453.66666666666663</ele><time>2026-04-06T15:36:29Z</time></trkpt><trkpt lat="45.90765487664775" lon="11.305209272967748"><ele>453.0</ele><time>2026-04-06T15:36:30Z</time></trkpt><trkpt lat="45.90752277423198" lon="11.305456739075964"><ele>452.66666666666663</ele><time>2026-04-06T15:36:31Z</time></trkpt><trkpt lat="45.90741056556946" lon="11.305722257661873"><ele>452.3333333333333</ele><time>2026-04-06T15:36:32Z</time></trkpt><trkpt lat="45.90731514571575" lon="11.306002025120716"><ele>452.0</ele><time>2026-04-06T15:36:33Z</time></trkpt><trkpt lat="45.90723201235521" lon="11.30628947972684"><ele>450.3333333333333</ele><time>2026-04-06T15:36:34Z</time></trkpt><trkpt lat="45.907169493736035" lon="11.306587988988692"><ele>448.66666666666663</ele><time>2026-04-06T15:36:35Z</time></trkpt><trkpt lat="45.9071169130971" lon="11.306887876050594"><ele>447.0</ele><time>2026-04-06T15:36:36Z</time></trkpt><trkpt lat="45.907084407433715" lon="11.30719560831544"><ele>446.66666666666663</ele><time>2026-04-06T15:36:37Z</time></trkpt><trkpt lat="45.90707296724367" lon="11.307507039675201"><ele>446.3333333333333</ele><time>2026-04-06T15:36:38Z</time></trkpt><trkpt lat="45.90708161347828" lon="11.307817955086755"><ele>446.0</ele><time>2026-04-06T15:36:39Z</time></trkpt><trkpt lat="45.907095658355765" lon="11.308127203440105"><ele>445.3333333333333</ele><time>2026-04-06T15:36:40Z</time></trkpt><trkpt lat="45.90710631560681" lon="11.308440174695841"><ele>444.66666666666663</ele><time>2026-04-06T15:36:41Z</time></trkpt><trkpt lat="45.90711584176999" lon="11.308753738282473"><ele>444.0</ele><time>2026-04-06T15:36:42Z</time></trkpt><trkpt lat="45.907127306609695" lon="11.309066819456598"><ele>444.0</ele><time>2026-04-06T15:36:43Z</time></trkpt><trkpt lat="45.907136094494156" lon="11.309379621816781"><ele>444.0</ele><time>2026-04-06T15:36:44Z</time></trkpt><trkpt lat="45.90714217754876" lon="11.309695694724693"><ele>444.0</ele><time>2026-04-06T15:36:45Z</time></trkpt><trkpt lat="45.907149501123186" lon="11.310010366673458"><ele>444.0</ele><time>2026-04-06T15:36:46Z</time></trkpt><trkpt lat="45.90715934256615" lon="11.310323634417289"><ele>444.0</ele><time>2026-04-06T15:36:47Z</time></trkpt><trkpt lat="45.907171933378834" lon="11.310635187385413"><ele>444.0</ele><time>2026-04-06T15:36:48Z</time></trkpt><trkpt lat="45.907185761737125" lon="11.310945132815851"><ele>443.33333333333337</ele><time>2026-04-06T15:36:49Z</time></trkpt><trkpt lat="45.907203066053235" lon="11.311254001218867"><ele>442.6666666666667</ele><time>2026-04-06T15:36:50Z</time></trkpt><trkpt lat="45.90722104372501" lon="11.311565772741961"><ele>442.0</ele><time>2026-04-06T15:36:51Z</time></trkpt><trkpt lat="45.90724085529298" lon="11.311874399732604"><ele>442.0</ele><time>2026-04-06T15:36:52Z</time></trkpt><trkpt lat="45.90725977729881" lon="11.312178869274018"><ele>442.0</ele><time>2026-04-06T15:36:53Z</time></trkpt><trkpt lat="45.907283919857775" lon="11.31246631038919"><ele>442.0</ele><time>2026-04-06T15:36:54Z</time></trkpt><trkpt lat="45.90730735042488" lon="11.312742174676371"><ele>442.6666666666667</ele><time>2026-04-06T15:36:55Z</time></trkpt><trkpt lat="45.90733198996933" lon="11.31299671090648"><ele>443.33333333333337</ele><time>2026-04-06T15:36:56Z</time></trkpt><trkpt lat="45.907358106036654" lon="11.313222873659278"><ele>444.0</ele><time>2026-04-06T15:36:57Z</time></trkpt><trkpt lat="45.907363308731526" lon="11.313397086351822"><ele>444.0</ele><time>2026-04-06T15:36:58Z</time></trkpt><trkpt lat="45.90737799473099" lon="11.313536644021044"><ele>444.0</ele><time>2026-04-06T15:36:59Z</time></trkpt><trkpt lat="45.907397232882346" lon="11.313649878611736"><ele>444.0</ele><time>2026-04-06T15:37:00Z</time></trkpt><trkpt lat="45.90734716124057" lon="11.313742736909894"><ele>444.0</ele><time>2026-04-06T15:37:01Z</time></trkpt><trkpt lat="45.9072667103677" lon="11.31379457030309"><ele>444.0</ele><time>2026-04-06T15:37:02Z</time></trkpt><trkpt lat="45.90716734990273" lon="11.313772124862743"><ele>444.0</ele><time>2026-04-06T15:37:03Z</time></trkpt><trkpt lat="45.90707409646451" lon="11.313731093965485"><ele>444.0</ele><time>2026-04-06T15:37:04Z</time></trkpt><trkpt lat="45.906966312338966" lon="11.313665488375344"><ele>444.0</ele><time>2026-04-06T15:37:05Z</time></trkpt><trkpt lat="45.906851609200544" lon="11.313596533857698"><ele>444.0</ele><time>2026-04-06T15:37:06Z</time></trkpt><trkpt lat="45.90672648749384" lon="11.313521655752043"><ele>445.66666666666663</ele><time>2026-04-06T15:37:07Z</time></trkpt><trkpt lat="45.9065913521113" lon="11.313451219179255"><ele>447.3333333333333</ele><time>2026-04-06T15:37:08Z</time></trkpt><trkpt lat="45.90644502140395" lon="11.313386073433142"><ele>449.0</ele><time>2026-04-06T15:37:09Z</time></trkpt><trkpt lat="45.906295375419695" lon="11.313317469126163"><ele>449.0</ele><time>2026-04-06T15:37:10Z</time></trkpt><trkpt lat="45.906143570247075" lon="11.313254794343989"><ele>449.0</ele><time>2026-04-06T15:37:11Z</time></trkpt><trkpt lat="45.90598986585563" lon="11.31320967442142"><ele>449.0</ele><time>2026-04-06T15:37:12Z</time></trkpt><trkpt lat="45.90583809023629" lon="11.313201697950513"><ele>446.0</ele><time>2026-04-06T15:37:13Z</time></trkpt><trkpt lat="45.905684744350154" lon="11.313237291324091"><ele>443.0</ele><time>2026-04-06T15:37:14Z</time></trkpt><trkpt lat="45.90553004733543" lon="11.313295809833683"><ele>440.0</ele><time>2026-04-06T15:37:15Z</time></trkpt><trkpt lat="45.90537558977712" lon="11.31339106771641"><ele>440.0</ele><time>2026-04-06T15:37:16Z</time></trkpt><trkpt lat="45.90523008026499" lon="11.313511797958796"><ele>440.0</ele><time>2026-04-06T15:37:17Z</time></trkpt><trkpt lat="45.90508742341373" lon="11.313656191175966"><ele>440.0</ele><time>2026-04-06T15:37:18Z</time></trkpt><trkpt lat="45.90494085427594" lon="11.313807506261927"><ele>438.66666666666663</ele><time>2026-04-06T15:37:19Z</time></trkpt><trkpt lat="45.9047897939884" lon="11.313956425302342"><ele>437.33333333333337</ele><time>2026-04-06T15:37:20Z</time></trkpt><trkpt lat="45.90463505153778" lon="11.314105496894156"><ele>436.0</ele><time>2026-04-06T15:37:21Z</time></trkpt><trkpt lat="45.904477458681065" lon="11.314256556337174"><ele>436.0</ele><time>2026-04-06T15:37:22Z</time></trkpt><trkpt lat="45.90432315432535" lon="11.314414905986176"><ele>436.0</ele><time>2026-04-06T15:37:23Z</time></trkpt><trkpt lat="45.90416725046519" lon="11.314575326018005"><ele>436.0</ele><time>2026-04-06T15:37:24Z</time></trkpt><trkpt lat="45.904012216084155" lon="11.314732713950427"><ele>437.33333333333337</ele><time>2026-04-06T15:37:25Z</time></trkpt><trkpt lat="45.9038559682585" lon="11.31489057628507"><ele>438.66666666666663</ele><time>2026-04-06T15:37:26Z</time></trkpt><trkpt lat="45.90370788050303" lon="11.315057376488017"><ele>440.0</ele><time>2026-04-06T15:37:27Z</time></trkpt><trkpt lat="45.90357190925423" lon="11.31524000671139"><ele>440.0</ele><time>2026-04-06T15:37:28Z</time></trkpt><trkpt lat="45.903449144333244" lon="11.315437151116926"><ele>440.0</ele><time>2026-04-06T15:37:29Z</time></trkpt><trkpt lat="45.90334502599458" lon="11.315652117317272"><ele>440.0</ele><time>2026-04-06T15:37:30Z</time></trkpt><trkpt lat="45.90326417019435" lon="11.315881881754713"><ele>439.3333333333333</ele><time>2026-04-06T15:37:31Z</time></trkpt><trkpt lat="45.90319916939284" lon="11.316123719656876"><ele>438.66666666666663</ele><time>2026-04-06T15:37:32Z</time></trkpt><trkpt lat="45.903158869642674" lon="11.316382917308307"><ele>438.0</ele><time>2026-04-06T15:37:33Z</time></trkpt><trkpt lat="45.903148044759334" lon="11.316652354142308"><ele>438.0</ele><time>2026-04-06T15:37:34Z</time></trkpt><trkpt lat="45.90315233234574" lon="11.31692552606367"><ele>438.0</ele><time>2026-04-06T15:37:35Z</time></trkpt><trkpt lat="45.90315369436921" lon="11.317198690032411"><ele>438.0</ele><time>2026-04-06T15:37:36Z</time></trkpt><trkpt lat="45.90316477464971" lon="11.317474267096438"><ele>438.0</ele><time>2026-04-06T15:37:37Z</time></trkpt><trkpt lat="45.90319810668641" lon="11.317744209301853"><ele>438.0</ele><time>2026-04-06T15:37:38Z</time></trkpt><trkpt lat="45.90325125817063" lon="11.318009525533702"><ele>438.0</ele><time>2026-04-06T15:37:39Z</time></trkpt><trkpt lat="45.90331297655988" lon="11.318261652241004"><ele>437.33333333333337</ele><time>2026-04-06T15:37:40Z</time></trkpt><trkpt lat="45.90337854347339" lon="11.318488161824384"><ele>436.6666666666667</ele><time>2026-04-06T15:37:41Z</time></trkpt><trkpt lat="45.90343016415862" lon="11.318697724697271"><ele>436.0</ele><time>2026-04-06T15:37:42Z</time></trkpt><trkpt lat="45.903442500006136" lon="11.318908428240489"><ele>435.6666666666667</ele><time>2026-04-06T15:37:43Z</time></trkpt><trkpt lat="45.90341296181106" lon="11.319125272693293"><ele>435.33333333333337</ele><time>2026-04-06T15:37:44Z</time></trkpt><trkpt lat="45.903339490079695" lon="11.319344131766979"><ele>435.0</ele><time>2026-04-06T15:37:45Z</time></trkpt><trkpt lat="45.90325212650885" lon="11.319569343135013"><ele>432.66666666666663</ele><time>2026-04-06T15:37:46Z</time></trkpt><trkpt lat="45.9031766957443" lon="11.319813823014986"><ele>430.3333333333333</ele><time>2026-04-06T15:37:47Z</time></trkpt><trkpt lat="45.903100899167804" lon="11.320073310474665"><ele>428.0</ele><time>2026-04-06T15:37:48Z</time></trkpt><trkpt lat="45.90302375011622" lon="11.320329009654913"><ele>426.66666666666663</ele><time>2026-04-06T15:37:49Z</time></trkpt><trkpt lat="45.902945476013095" lon="11.3205945939221"><ele>425.33333333333337</ele><time>2026-04-06T15:37:50Z</time></trkpt><trkpt lat="45.90286556446287" lon="11.320860063692573"><ele>424.0</ele><time>2026-04-06T15:37:51Z</time></trkpt><trkpt lat="45.902780324644525" lon="11.32112746431007"><ele>424.0</ele><time>2026-04-06T15:37:52Z</time></trkpt><trkpt lat="45.902693860723595" lon="11.321396041843812"><ele>424.0</ele><time>2026-04-06T15:37:53Z</time></trkpt><trkpt lat="45.90260658291819" lon="11.321670170853071"><ele>424.0</ele><time>2026-04-06T15:37:54Z</time></trkpt><trkpt lat="45.902520566039215" lon="11.321943586696928"><ele>427.0</ele><time>2026-04-06T15:37:55Z</time></trkpt><trkpt lat="45.902432410772306" lon="11.322216852558336"><ele>430.0</ele><time>2026-04-06T15:37:56Z</time></trkpt><trkpt lat="45.90233360050931" lon="11.322483867557173"><ele>433.0</ele><time>2026-04-06T15:37:57Z</time></trkpt><trkpt lat="45.90223269743045" lon="11.322748543606853"><ele>433.0</ele><time>2026-04-06T15:37:58Z</time></trkpt><trkpt lat="45.90213220131788" lon="11.323013793437283"><ele>433.0</ele><time>2026-04-06T15:37:59Z</time></trkpt><trkpt lat="45.902030084570185" lon="11.323280222783197"><ele>433.0</ele><time>2026-04-06T15:38:00Z</time></trkpt><trkpt lat="45.901907424130265" lon="11.323542853739378"><ele>434.33333333333337</ele><time>2026-04-06T15:38:01Z</time></trkpt><trkpt lat="45.90179528119216" lon="11.323823378966065"><ele>435.66666666666663</ele><time>2026-04-06T15:38:02Z</time></trkpt><trkpt lat="45.90169566239212" lon="11.324111827195448"><ele>437.0</ele><time>2026-04-06T15:38:03Z</time></trkpt><trkpt lat="45.90157731471486" lon="11.324380094501466"><ele>437.0</ele><time>2026-04-06T15:38:04Z</time></trkpt><trkpt lat="45.90146514567996" lon="11.324651533929964"><ele>437.0</ele><time>2026-04-06T15:38:05Z</time></trkpt><trkpt lat="45.901354946391024" lon="11.32492627070799"><ele>437.0</ele><time>2026-04-06T15:38:06Z</time></trkpt><trkpt lat="45.90124670865635" lon="11.325198574164109"><ele>432.66666666666663</ele><time>2026-04-06T15:38:07Z</time></trkpt><trkpt lat="45.90114258444391" lon="11.325471834007029"><ele>428.33333333333337</ele><time>2026-04-06T15:38:08Z</time></trkpt><trkpt lat="45.90103762086072" lon="11.325743860947311"><ele>424.0</ele><time>2026-04-06T15:38:09Z</time></trkpt><trkpt lat="45.900933360906336" lon="11.326010624587507"><ele>425.0</ele><time>2026-04-06T15:38:10Z</time></trkpt><trkpt lat="45.90082564545998" lon="11.326272809086497"><ele>426.0</ele><time>2026-04-06T15:38:11Z</time></trkpt><trkpt lat="45.90071894352729" lon="11.326530715418409"><ele>427.0</ele><time>2026-04-06T15:38:12Z</time></trkpt><trkpt lat="45.90061173878672" lon="11.326786962457916"><ele>427.0</ele><time>2026-04-06T15:38:13Z</time></trkpt><trkpt lat="45.900496693909716" lon="11.327032467677272"><ele>427.0</ele><time>2026-04-06T15:38:14Z</time></trkpt><trkpt lat="45.90037432487915" lon="11.327269923201166"><ele>427.0</ele><time>2026-04-06T15:38:15Z</time></trkpt><trkpt lat="45.90023581133295" lon="11.327491220938928"><ele>424.33333333333337</ele><time>2026-04-06T15:38:16Z</time></trkpt><trkpt lat="45.90009800825779" lon="11.327703041615177"><ele>421.66666666666663</ele><time>2026-04-06T15:38:17Z</time></trkpt><trkpt lat="45.89996384718497" lon="11.327922727081141"><ele>419.0</ele><time>2026-04-06T15:38:18Z</time></trkpt><trkpt lat="45.89982883249032" lon="11.32814483710655"><ele>419.0</ele><time>2026-04-06T15:38:19Z</time></trkpt><trkpt lat="45.89969519938291" lon="11.328368845214332"><ele>419.0</ele><time>2026-04-06T15:38:20Z</time></trkpt><trkpt lat="45.899558688432414" lon="11.328594435110439"><ele>419.0</ele><time>2026-04-06T15:38:21Z</time></trkpt><trkpt lat="45.899425477599586" lon="11.328820082435383"><ele>420.0</ele><time>2026-04-06T15:38:22Z</time></trkpt><trkpt lat="45.89928988159675" lon="11.329046659193779"><ele>421.0</ele><time>2026-04-06T15:38:23Z</time></trkpt><trkpt lat="45.89915588951304" lon="11.329270766081518"><ele>422.0</ele><time>2026-04-06T15:38:24Z</time></trkpt><trkpt lat="45.899021909994055" lon="11.329496945855515"><ele>422.0</ele><time>2026-04-06T15:38:25Z</time></trkpt><trkpt lat="45.898889418450985" lon="11.329722959691301"><ele>422.0</ele><time>2026-04-06T15:38:26Z</time></trkpt><trkpt lat="45.89875927444602" lon="11.329946503952378"><ele>422.0</ele><time>2026-04-06T15:38:27Z</time></trkpt><trkpt lat="45.89862869701028" lon="11.330165183458355"><ele>420.66666666666663</ele><time>2026-04-06T15:38:28Z</time></trkpt><trkpt lat="45.8985003050305" lon="11.330382267175164"><ele>419.33333333333337</ele><time>2026-04-06T15:38:29Z</time></trkpt><trkpt lat="45.89837602410375" lon="11.330598961034601"><ele>418.0</ele><time>2026-04-06T15:38:30Z</time></trkpt><trkpt lat="45.89825682441749" lon="11.330821463953752"><ele>418.0</ele><time>2026-04-06T15:38:31Z</time></trkpt><trkpt lat="45.89814217032917" lon="11.331045002034235"><ele>418.0</ele><time>2026-04-06T15:38:32Z</time></trkpt><trkpt lat="45.89803699174244" lon="11.331271024153384"><ele>418.0</ele><time>2026-04-06T15:38:33Z</time></trkpt><trkpt lat="45.89794049562742" lon="11.331500975239738"><ele>415.6666666666667</ele><time>2026-04-06T15:38:34Z</time></trkpt><trkpt lat="45.897847915885805" lon="11.331731430713214"><ele>413.33333333333337</ele><time>2026-04-06T15:38:35Z</time></trkpt><trkpt lat="45.897758576329835" lon="11.331968090649326"><ele>411.0</ele><time>2026-04-06T15:38:36Z</time></trkpt><trkpt lat="45.897667965083464" lon="11.332205169830013"><ele>412.0</ele><time>2026-04-06T15:38:37Z</time></trkpt><trkpt lat="45.897576231386445" lon="11.332437373689924"><ele>413.0</ele><time>2026-04-06T15:38:38Z</time></trkpt><trkpt lat="45.89748649440942" lon="11.33266327460738"><ele>414.0</ele><time>2026-04-06T15:38:39Z</time></trkpt><trkpt lat="45.897397633825086" lon="11.332882324332612"><ele>412.0</ele><time>2026-04-06T15:38:40Z</time></trkpt><trkpt lat="45.897303759978456" lon="11.333085533127841"><ele>410.0</ele><time>2026-04-06T15:38:41Z</time></trkpt><trkpt lat="45.897188567363635" lon="11.333265530267937"><ele>408.0</ele><time>2026-04-06T15:38:42Z</time></trkpt><trkpt lat="45.89705764013539" lon="11.333417741905956"><ele>408.0</ele><time>2026-04-06T15:38:43Z</time></trkpt><trkpt lat="45.89690869543653" lon="11.333535392926073"><ele>408.0</ele><time>2026-04-06T15:38:44Z</time></trkpt><trkpt lat="45.896746278420686" lon="11.333621246652038"><ele>408.0</ele><time>2026-04-06T15:38:45Z</time></trkpt><trkpt lat="45.896581373487095" lon="11.333697804937255"><ele>407.66666666666663</ele><time>2026-04-06T15:38:46Z</time></trkpt><trkpt lat="45.896412272846504" lon="11.33378344178359"><ele>407.3333333333333</ele><time>2026-04-06T15:38:47Z</time></trkpt><trkpt lat="45.89624469583671" lon="11.333874664768887"><ele>407.0</ele><time>2026-04-06T15:38:48Z</time></trkpt><trkpt lat="45.896076412622755" lon="11.33396547437459"><ele>409.66666666666663</ele><time>2026-04-06T15:38:49Z</time></trkpt><trkpt lat="45.895909677826445" lon="11.334055093283881"><ele>412.33333333333337</ele><time>2026-04-06T15:38:50Z</time></trkpt><trkpt lat="45.89574923745762" lon="11.334146729985381"><ele>415.0</ele><time>2026-04-06T15:38:51Z</time></trkpt><trkpt lat="45.89559747825684" lon="11.334256722576368"><ele>415.0</ele><time>2026-04-06T15:38:52Z</time></trkpt><trkpt lat="45.89545910135421" lon="11.33441093032913"><ele>415.0</ele><time>2026-04-06T15:38:53Z</time></trkpt><trkpt lat="45.895338157771384" lon="11.33459501592622"><ele>415.0</ele><time>2026-04-06T15:38:54Z</time></trkpt><trkpt lat="45.89523083545076" lon="11.33480270938178"><ele>412.0</ele><time>2026-04-06T15:38:55Z</time></trkpt><trkpt lat="45.89514356892288" lon="11.335030040143396"><ele>409.0</ele><time>2026-04-06T15:38:56Z</time></trkpt><trkpt lat="45.8950707610786" lon="11.33527423837392"><ele>406.0</ele><time>2026-04-06T15:38:57Z</time></trkpt><trkpt lat="45.89501972234656" lon="11.335532262890881"><ele>409.0</ele><time>2026-04-06T15:38:58Z</time></trkpt><trkpt lat="45.895000057765444" lon="11.335798461273068"><ele>412.0</ele><time>2026-04-06T15:38:59Z</time></trkpt><trkpt lat="45.895004755240265" lon="11.33607052606672"><ele>415.0</ele><time>2026-04-06T15:39:00Z</time></trkpt><trkpt lat="45.895012191933745" lon="11.336340675646806"><ele>414.0</ele><time>2026-04-06T15:39:01Z</time></trkpt><trkpt lat="45.894992104534836" lon="11.336611182720304"><ele>413.0</ele><time>2026-04-06T15:39:02Z</time></trkpt><trkpt lat="45.89494517656485" lon="11.336873948116809"><ele>412.0</ele><time>2026-04-06T15:39:03Z</time></trkpt><trkpt lat="45.89489844764935" lon="11.337134864556024"><ele>412.6666666666667</ele><time>2026-04-06T15:39:04Z</time></trkpt><trkpt lat="45.894862531651725" lon="11.3373993514058"><ele>413.33333333333337</ele><time>2026-04-06T15:39:05Z</time></trkpt><trkpt lat="45.89485993598621" lon="11.337670944983417"><ele>414.0</ele><time>2026-04-06T15:39:06Z</time></trkpt><trkpt lat="45.89487747710671" lon="11.337940167620419"><ele>413.0</ele><time>2026-04-06T15:39:07Z</time></trkpt><trkpt lat="45.89487895105266" lon="11.338209432772032"><ele>412.0</ele><time>2026-04-06T15:39:08Z</time></trkpt><trkpt lat="45.89487776265704" lon="11.338479853369272"><ele>411.0</ele><time>2026-04-06T15:39:09Z</time></trkpt><trkpt lat="45.89488151553513" lon="11.338749862920968"><ele>410.0</ele><time>2026-04-06T15:39:10Z</time></trkpt><trkpt lat="45.89488369462123" lon="11.339021927151231"><ele>409.0</ele><time>2026-04-06T15:39:11Z</time></trkpt><trkpt lat="45.894884965671665" lon="11.33929424548438"><ele>408.0</ele><time>2026-04-06T15:39:12Z</time></trkpt><trkpt lat="45.8948780800477" lon="11.339567601843294"><ele>406.33333333333337</ele><time>2026-04-06T15:39:13Z</time></trkpt><trkpt lat="45.894856254820546" lon="11.339839644083556"><ele>404.6666666666667</ele><time>2026-04-06T15:39:14Z</time></trkpt><trkpt lat="45.89483204735555" lon="11.340110817080628"><ele>403.0</ele><time>2026-04-06T15:39:15Z</time></trkpt><trkpt lat="45.894810749977495" lon="11.340384127803953"><ele>402.0</ele><time>2026-04-06T15:39:16Z</time></trkpt><trkpt lat="45.89479090946246" lon="11.340654905613205"><ele>401.0</ele><time>2026-04-06T15:39:17Z</time></trkpt><trkpt lat="45.894770566761444" lon="11.340922552763182"><ele>400.0</ele><time>2026-04-06T15:39:18Z</time></trkpt><trkpt lat="45.89475048825904" lon="11.341188792871206"><ele>399.6666666666667</ele><time>2026-04-06T15:39:19Z</time></trkpt><trkpt lat="45.89473245724463" lon="11.341451391426148"><ele>399.33333333333337</ele><time>2026-04-06T15:39:20Z</time></trkpt><trkpt lat="45.894709121166095" lon="11.341714841643933"><ele>399.0</ele><time>2026-04-06T15:39:21Z</time></trkpt><trkpt lat="45.894674213870125" lon="11.341974643542816"><ele>399.0</ele><time>2026-04-06T15:39:22Z</time></trkpt><trkpt lat="45.89462798723312" lon="11.342231417526063"><ele>399.0</ele><time>2026-04-06T15:39:23Z</time></trkpt><trkpt lat="45.8945667803796" lon="11.342484490563296"><ele>399.0</ele><time>2026-04-06T15:39:24Z</time></trkpt><trkpt lat="45.89449076351381" lon="11.342731333858568"><ele>399.0</ele><time>2026-04-06T15:39:25Z</time></trkpt><trkpt lat="45.8944129276003" lon="11.34297064956596"><ele>399.0</ele><time>2026-04-06T15:39:26Z</time></trkpt><trkpt lat="45.89433393501264" lon="11.343209652609973"><ele>399.0</ele><time>2026-04-06T15:39:27Z</time></trkpt><trkpt lat="45.89425922618332" lon="11.343449420650755"><ele>398.0</ele><time>2026-04-06T15:39:28Z</time></trkpt><trkpt lat="45.894186046640755" lon="11.343689237907059"><ele>397.0</ele><time>2026-04-06T15:39:29Z</time></trkpt><trkpt lat="45.89411028448606" lon="11.343927841064247"><ele>396.0</ele><time>2026-04-06T15:39:30Z</time></trkpt><trkpt lat="45.89403039187079" lon="11.344164572088685"><ele>394.66666666666663</ele><time>2026-04-06T15:39:31Z</time></trkpt><trkpt lat="45.89394505510121" lon="11.34439688110702"><ele>393.3333333333333</ele><time>2026-04-06T15:39:32Z</time></trkpt><trkpt lat="45.89384828107405" lon="11.34462148310805"><ele>392.0</ele><time>2026-04-06T15:39:33Z</time></trkpt><trkpt lat="45.89373715285951" lon="11.344833696125376"><ele>392.3333333333333</ele><time>2026-04-06T15:39:34Z</time></trkpt><trkpt lat="45.893620755869144" lon="11.345040651917577"><ele>392.66666666666663</ele><time>2026-04-06T15:39:35Z</time></trkpt><trkpt lat="45.89350103303077" lon="11.345247810854161"><ele>393.0</ele><time>2026-04-06T15:39:36Z</time></trkpt><trkpt lat="45.89338016757034" lon="11.345447464765115"><ele>390.0</ele><time>2026-04-06T15:39:37Z</time></trkpt><trkpt lat="45.893253355552616" lon="11.345625973677132"><ele>387.0</ele><time>2026-04-06T15:39:38Z</time></trkpt><trkpt lat="45.89311120246108" lon="11.345769130484996"><ele>384.0</ele><time>2026-04-06T15:39:39Z</time></trkpt><trkpt lat="45.89296297203622" lon="11.34587421447309"><ele>384.0</ele><time>2026-04-06T15:39:40Z</time></trkpt><trkpt lat="45.89281158376852" lon="11.34594832973083"><ele>384.0</ele><time>2026-04-06T15:39:41Z</time></trkpt><trkpt lat="45.89266456699075" lon="11.345997627009744"><ele>384.0</ele><time>2026-04-06T15:39:42Z</time></trkpt><trkpt lat="45.89253006426061" lon="11.346067266385672"><ele>386.0</ele><time>2026-04-06T15:39:43Z</time></trkpt><trkpt lat="45.89241490594715" lon="11.34618861169589"><ele>388.0</ele><time>2026-04-06T15:39:44Z</time></trkpt><trkpt lat="45.892319209923656" lon="11.346362491660535"><ele>390.0</ele><time>2026-04-06T15:39:45Z</time></trkpt><trkpt lat="45.892234556336795" lon="11.34656626429511"><ele>386.0</ele><time>2026-04-06T15:39:46Z</time></trkpt><trkpt lat="45.89215503406414" lon="11.346779987216307"><ele>382.0</ele><time>2026-04-06T15:39:47Z</time></trkpt><trkpt lat="45.89209408915546" lon="11.347008092673944"><ele>378.0</ele><time>2026-04-06T15:39:48Z</time></trkpt><trkpt lat="45.89204879462647" lon="11.347253121207435"><ele>375.0</ele><time>2026-04-06T15:39:49Z</time></trkpt><trkpt lat="45.892016089873536" lon="11.34751115968611"><ele>372.0</ele><time>2026-04-06T15:39:50Z</time></trkpt><trkpt lat="45.89198743746014" lon="11.347774926756125"><ele>369.0</ele><time>2026-04-06T15:39:51Z</time></trkpt><trkpt lat="45.89195678436874" lon="11.348043839137803"><ele>367.6666666666667</ele><time>2026-04-06T15:39:52Z</time></trkpt><trkpt lat="45.89192456595365" lon="11.348311093651255"><ele>366.33333333333337</ele><time>2026-04-06T15:39:53Z</time></trkpt><trkpt lat="45.89189110930523" lon="11.348582017714374"><ele>365.0</ele><time>2026-04-06T15:39:54Z</time></trkpt><trkpt lat="45.89185970595892" lon="11.348847134036532"><ele>365.0</ele><time>2026-04-06T15:39:55Z</time></trkpt><trkpt lat="45.891824911466536" lon="11.349106783527148"><ele>365.0</ele><time>2026-04-06T15:39:56Z</time></trkpt><trkpt lat="45.8917853335752" lon="11.349357767619178"><ele>365.0</ele><time>2026-04-06T15:39:57Z</time></trkpt><trkpt lat="45.89173374366792" lon="11.349595057454291"><ele>366.6666666666667</ele><time>2026-04-06T15:39:58Z</time></trkpt><trkpt lat="45.89168086417574" lon="11.34982221459703"><ele>368.3333333333333</ele><time>2026-04-06T15:39:59Z</time></trkpt><trkpt lat="45.89162317454107" lon="11.35003725649361"><ele>370.0</ele><time>2026-04-06T15:40:00Z</time></trkpt><trkpt lat="45.89155530279614" lon="11.350245937654872"><ele>370.0</ele><time>2026-04-06T15:40:01Z</time></trkpt><trkpt lat="45.89147421117452" lon="11.350445072606664"><ele>370.0</ele><time>2026-04-06T15:40:02Z</time></trkpt><trkpt lat="45.891379996112406" lon="11.35063154600785"><ele>370.0</ele><time>2026-04-06T15:40:03Z</time></trkpt><trkpt lat="45.891275911828345" lon="11.35080335636109"><ele>368.0</ele><time>2026-04-06T15:40:04Z</time></trkpt><trkpt lat="45.89117119837645" lon="11.350965861363385"><ele>366.0</ele><time>2026-04-06T15:40:05Z</time></trkpt><trkpt lat="45.89105077419335" lon="11.35109037260194"><ele>364.0</ele><time>2026-04-06T15:40:06Z</time></trkpt><trkpt lat="45.89091370418407" lon="11.351144908891108"><ele>362.0</ele><time>2026-04-06T15:40:07Z</time></trkpt><trkpt lat="45.890773490414084" lon="11.351228587937621"><ele>362.0</ele><time>2026-04-06T15:40:08Z</time></trkpt><trkpt lat="45.89062107116016" lon="11.351282567381084"><ele>362.0</ele><time>2026-04-06T15:40:09Z</time></trkpt><trkpt lat="45.89046762505042" lon="11.35135064972509"><ele>362.0</ele><time>2026-04-06T15:40:10Z</time></trkpt><trkpt lat="45.89031508986661" lon="11.351427800409327"><ele>362.0</ele><time>2026-04-06T15:40:11Z</time></trkpt><trkpt lat="45.89016494953759" lon="11.351515324419763"><ele>362.0</ele><time>2026-04-06T15:40:12Z</time></trkpt><trkpt lat="45.890017438600225" lon="11.3516098000758"><ele>362.0</ele><time>2026-04-06T15:40:13Z</time></trkpt><trkpt lat="45.88987509908433" lon="11.35171745131244"><ele>364.6666666666667</ele><time>2026-04-06T15:40:14Z</time></trkpt><trkpt lat="45.88973443222898" lon="11.351838093309448"><ele>367.3333333333333</ele><time>2026-04-06T15:40:15Z</time></trkpt><trkpt lat="45.88959634337878" lon="11.351964851772994"><ele>370.0</ele><time>2026-04-06T15:40:16Z</time></trkpt><trkpt lat="45.88946046126784" lon="11.352093129366722"><ele>367.0</ele><time>2026-04-06T15:40:17Z</time></trkpt><trkpt lat="45.88932221294806" lon="11.352223921817577"><ele>364.0</ele><time>2026-04-06T15:40:18Z</time></trkpt><trkpt lat="45.88918396197612" lon="11.352348126575967"><ele>361.0</ele><time>2026-04-06T15:40:19Z</time></trkpt><trkpt lat="45.889052948416996" lon="11.352478969267205"><ele>361.0</ele><time>2026-04-06T15:40:20Z</time></trkpt><trkpt lat="45.88892527275389" lon="11.352602713703526"><ele>361.0</ele><time>2026-04-06T15:40:21Z</time></trkpt><trkpt lat="45.88880454358652" lon="11.352720570526104"><ele>361.0</ele><time>2026-04-06T15:40:22Z</time></trkpt><trkpt lat="45.8886851431579" lon="11.352834461529827"><ele>361.0</ele><time>2026-04-06T15:40:23Z</time></trkpt><trkpt lat="45.8885716973898" lon="11.352929942397294"><ele>361.0</ele><time>2026-04-06T15:40:24Z</time></trkpt><trkpt lat="45.88844954237818" lon="11.352993966492841"><ele>361.0</ele><time>2026-04-06T15:40:25Z</time></trkpt><trkpt lat="45.88831754539703" lon="11.35303458989403"><ele>361.0</ele><time>2026-04-06T15:40:26Z</time></trkpt><trkpt lat="45.88818411708593" lon="11.35305179316381"><ele>361.0</ele><time>2026-04-06T15:40:27Z</time></trkpt><trkpt lat="45.88805084975086" lon="11.353075318644095"><ele>360.5</ele><time>2026-04-06T15:40:28Z</time></trkpt><trkpt lat="45.88791358508276" lon="11.353113226909194"><ele>360.0</ele><time>2026-04-06T15:40:29Z</time></trkpt><trkpt lat="45.88777616221962" lon="11.353151468213598"><ele>359.5</ele><time>2026-04-06T15:40:30Z</time></trkpt><trkpt lat="45.887637105795186" lon="11.353196563057027"><ele>359.0</ele><time>2026-04-06T15:40:31Z</time></trkpt><trkpt lat="45.887494086469275" lon="11.353252797246682"><ele>359.0</ele><time>2026-04-06T15:40:32Z</time></trkpt><trkpt lat="45.887347713882136" lon="11.35331401582023"><ele>359.0</ele><time>2026-04-06T15:40:33Z</time></trkpt><trkpt lat="45.887199016597926" lon="11.353390210012137"><ele>359.0</ele><time>2026-04-06T15:40:34Z</time></trkpt><trkpt lat="45.887058052066955" lon="11.353489968606882"><ele>359.0</ele><time>2026-04-06T15:40:35Z</time></trkpt><trkpt lat="45.88692039972475" lon="11.353607737843815"><ele>359.0</ele><time>2026-04-06T15:40:36Z</time></trkpt><trkpt lat="45.88678635674221" lon="11.353736402256533"><ele>359.0</ele><time>2026-04-06T15:40:37Z</time></trkpt><trkpt lat="45.88664828107237" lon="11.353878303952953"><ele>358.0</ele><time>2026-04-06T15:40:38Z</time></trkpt><trkpt lat="45.886505671007384" lon="11.354029532862414"><ele>357.0</ele><time>2026-04-06T15:40:39Z</time></trkpt><trkpt lat="45.886358989869514" lon="11.354183732855766"><ele>356.0</ele><time>2026-04-06T15:40:40Z</time></trkpt><trkpt lat="45.8862169042944" lon="11.354343203287147"><ele>356.0</ele><time>2026-04-06T15:40:41Z</time></trkpt><trkpt lat="45.88607862973219" lon="11.354504320036366"><ele>356.0</ele><time>2026-04-06T15:40:42Z</time></trkpt><trkpt lat="45.88594216300509" lon="11.354670132320589"><ele>356.0</ele><time>2026-04-06T15:40:43Z</time></trkpt><trkpt lat="45.885808848548585" lon="11.354838203391632"><ele>357.33333333333337</ele><time>2026-04-06T15:40:44Z</time></trkpt><trkpt lat="45.88567473031235" lon="11.355004940170199"><ele>358.6666666666667</ele><time>2026-04-06T15:40:45Z</time></trkpt><trkpt lat="45.885537134194486" lon="11.35516891764276"><ele>360.0</ele><time>2026-04-06T15:40:46Z</time></trkpt><trkpt lat="45.88539170704237" lon="11.355317837759719"><ele>360.0</ele><time>2026-04-06T15:40:47Z</time></trkpt><trkpt lat="45.885238073157275" lon="11.355454242598242"><ele>360.0</ele><time>2026-04-06T15:40:48Z</time></trkpt><trkpt lat="45.88507406746571" lon="11.355568579330766"><ele>360.0</ele><time>2026-04-06T15:40:49Z</time></trkpt><trkpt lat="45.8849005577536" lon="11.355652346926039"><ele>358.3333333333333</ele><time>2026-04-06T15:40:50Z</time></trkpt><trkpt lat="45.88472094091008" lon="11.355699425261333"><ele>356.66666666666663</ele><time>2026-04-06T15:40:51Z</time></trkpt><trkpt lat="45.88454185515303" lon="11.355713915829764"><ele>355.0</ele><time>2026-04-06T15:40:52Z</time></trkpt><trkpt lat="45.88436053979518" lon="11.355709833517654"><ele>354.66666666666663</ele><time>2026-04-06T15:40:53Z</time></trkpt><trkpt lat="45.88417566144624" lon="11.355716344556127"><ele>354.3333333333333</ele><time>2026-04-06T15:40:54Z</time></trkpt><trkpt lat="45.883994499324004" lon="11.355731047155535"><ele>354.0</ele><time>2026-04-06T15:40:55Z</time></trkpt><trkpt lat="45.88381239321284" lon="11.355747695758739"><ele>354.0</ele><time>2026-04-06T15:40:56Z</time></trkpt><trkpt lat="45.88363050039089" lon="11.355766584136418"><ele>354.0</ele><time>2026-04-06T15:40:57Z</time></trkpt><trkpt lat="45.88344980959987" lon="11.355788976179491"><ele>354.0</ele><time>2026-04-06T15:40:58Z</time></trkpt><trkpt lat="45.883269103872706" lon="11.355812601033834"><ele>355.0</ele><time>2026-04-06T15:40:59Z</time></trkpt><trkpt lat="45.88309005863761" lon="11.35584083833222"><ele>356.0</ele><time>2026-04-06T15:41:00Z</time></trkpt><trkpt lat="45.88291029272847" lon="11.355875714061638"><ele>357.0</ele><time>2026-04-06T15:41:01Z</time></trkpt><trkpt lat="45.88272875991317" lon="11.35592527349795"><ele>357.3333333333333</ele><time>2026-04-06T15:41:02Z</time></trkpt><trkpt lat="45.88255239228589" lon="11.355986878397681"><ele>357.66666666666663</ele><time>2026-04-06T15:41:03Z</time></trkpt><trkpt lat="45.88237597903781" lon="11.356062973893044"><ele>358.0</ele><time>2026-04-06T15:41:04Z</time></trkpt><trkpt lat="45.88220209323086" lon="11.356139265247991"><ele>358.0</ele><time>2026-04-06T15:41:05Z</time></trkpt><trkpt lat="45.882029393004096" lon="11.356222938760718"><ele>358.0</ele><time>2026-04-06T15:41:06Z</time></trkpt><trkpt lat="45.88185888930985" lon="11.356315055506899"><ele>358.0</ele><time>2026-04-06T15:41:07Z</time></trkpt><trkpt lat="45.88169172127458" lon="11.356420224350277"><ele>354.3333333333333</ele><time>2026-04-06T15:41:08Z</time></trkpt><trkpt lat="45.88152869113679" lon="11.3565374601685"><ele>350.6666666666667</ele><time>2026-04-06T15:41:09Z</time></trkpt><trkpt lat="45.881368528877594" lon="11.356669629168346"><ele>347.0</ele><time>2026-04-06T15:41:10Z</time></trkpt><trkpt lat="45.88121351234282" lon="11.356813063693496"><ele>347.0</ele><time>2026-04-06T15:41:11Z</time></trkpt><trkpt lat="45.88106623437587" lon="11.356971953622006"><ele>347.0</ele><time>2026-04-06T15:41:12Z</time></trkpt><trkpt lat="45.8809298848268" lon="11.357150276752392"><ele>347.0</ele><time>2026-04-06T15:41:13Z</time></trkpt><trkpt lat="45.88079786193601" lon="11.357343061334863"><ele>347.0</ele><time>2026-04-06T15:41:14Z</time></trkpt><trkpt lat="45.880662155416196" lon="11.357535138441326"><ele>347.0</ele><time>2026-04-06T15:41:15Z</time></trkpt><trkpt lat="45.88051703408355" lon="11.357715025467169"><ele>347.0</ele><time>2026-04-06T15:41:16Z</time></trkpt><trkpt lat="45.880373858138356" lon="11.357887404554893"><ele>346.6666666666667</ele><time>2026-04-06T15:41:17Z</time></trkpt><trkpt lat="45.88022887517963" lon="11.3580529791949"><ele>346.3333333333333</ele><time>2026-04-06T15:41:18Z</time></trkpt><trkpt lat="45.880077326270126" lon="11.35819833350842"><ele>346.0</ele><time>2026-04-06T15:41:19Z</time></trkpt><trkpt lat="45.879915343182695" lon="11.358320496528233"><ele>346.0</ele><time>2026-04-06T15:41:20Z</time></trkpt><trkpt lat="45.87974792237072" lon="11.35842073105262"><ele>346.0</ele><time>2026-04-06T15:41:21Z</time></trkpt><trkpt lat="45.879577673439414" lon="11.358512366177372"><ele>346.0</ele><time>2026-04-06T15:41:22Z</time></trkpt><trkpt lat="45.879406815288036" lon="11.358607604365359"><ele>350.66666666666663</ele><time>2026-04-06T15:41:23Z</time></trkpt><trkpt lat="45.87923469796471" lon="11.358698931025915"><ele>355.3333333333333</ele><time>2026-04-06T15:41:24Z</time></trkpt><trkpt lat="45.87905920446734" lon="11.358782732997234"><ele>360.0</ele><time>2026-04-06T15:41:25Z</time></trkpt><trkpt lat="45.878882111828176" lon="11.358857273827944"><ele>356.3333333333333</ele><time>2026-04-06T15:41:26Z</time></trkpt><trkpt lat="45.87870856249623" lon="11.358922662640504"><ele>352.66666666666663</ele><time>2026-04-06T15:41:27Z</time></trkpt><trkpt lat="45.878538729541035" lon="11.358993832998609"><ele>349.0</ele><time>2026-04-06T15:41:28Z</time></trkpt><trkpt lat="45.87836877220519" lon="11.359067180670676"><ele>349.0</ele><time>2026-04-06T15:41:29Z</time></trkpt><trkpt lat="45.87820295848689" lon="11.359137695703824"><ele>349.0</ele><time>2026-04-06T15:41:30Z</time></trkpt><trkpt lat="45.87803810375078" lon="11.359203811854334"><ele>349.0</ele><time>2026-04-06T15:41:31Z</time></trkpt><trkpt lat="45.87787560042146" lon="11.359271824203768"><ele>349.0</ele><time>2026-04-06T15:41:32Z</time></trkpt><trkpt lat="45.877716568158746" lon="11.359336883220434"><ele>349.0</ele><time>2026-04-06T15:41:33Z</time></trkpt><trkpt lat="45.8775565661625" lon="11.359391742560657"><ele>349.0</ele><time>2026-04-06T15:41:34Z</time></trkpt><trkpt lat="45.877394456010066" lon="11.359429651698749"><ele>349.66666666666663</ele><time>2026-04-06T15:41:35Z</time></trkpt><trkpt lat="45.877224322570726" lon="11.359449444001607"><ele>350.3333333333333</ele><time>2026-04-06T15:41:36Z</time></trkpt><trkpt lat="45.8770486606944" lon="11.359464544196536"><ele>351.0</ele><time>2026-04-06T15:41:37Z</time></trkpt><trkpt lat="45.876869055673374" lon="11.359478558119033"><ele>352.6666666666667</ele><time>2026-04-06T15:41:38Z</time></trkpt><trkpt lat="45.87668782141188" lon="11.35949223105932"><ele>354.33333333333337</ele><time>2026-04-06T15:41:39Z</time></trkpt><trkpt lat="45.87650523346698" lon="11.359507359465944"><ele>356.0</ele><time>2026-04-06T15:41:40Z</time></trkpt><trkpt lat="45.87632159198406" lon="11.359522098582746"><ele>356.0</ele><time>2026-04-06T15:41:41Z</time></trkpt><trkpt lat="45.87613603939398" lon="11.3595385240854"><ele>356.0</ele><time>2026-04-06T15:41:42Z</time></trkpt><trkpt lat="45.875948196373606" lon="11.35955640652982"><ele>356.0</ele><time>2026-04-06T15:41:43Z</time></trkpt><trkpt lat="45.87575938805802" lon="11.359575783584392"><ele>357.33333333333337</ele><time>2026-04-06T15:41:44Z</time></trkpt><trkpt lat="45.87557154589363" lon="11.359596347807253"><ele>358.6666666666667</ele><time>2026-04-06T15:41:45Z</time></trkpt><trkpt lat="45.87538241303537" lon="11.35962129242351"><ele>360.0</ele><time>2026-04-06T15:41:46Z</time></trkpt><trkpt lat="45.87519504962473" lon="11.359647568164995"><ele>362.0</ele><time>2026-04-06T15:41:47Z</time></trkpt><trkpt lat="45.875010181714536" lon="11.359670909675886"><ele>364.0</ele><time>2026-04-06T15:41:48Z</time></trkpt><trkpt lat="45.874830354576204" lon="11.359701192476768"><ele>366.0</ele><time>2026-04-06T15:41:49Z</time></trkpt><trkpt lat="45.87465980658306" lon="11.359773157765371"><ele>364.6666666666667</ele><time>2026-04-06T15:41:50Z</time></trkpt><trkpt lat="45.87449706670357" lon="11.359880709796439"><ele>363.33333333333337</ele><time>2026-04-06T15:41:51Z</time></trkpt><trkpt lat="45.87434080228726" lon="11.360025599204999"><ele>362.0</ele><time>2026-04-06T15:41:52Z</time></trkpt><trkpt lat="45.8742003030279" lon="11.360196087311339"><ele>362.0</ele><time>2026-04-06T15:41:53Z</time></trkpt><trkpt lat="45.87406255250235" lon="11.360377984545359"><ele>362.0</ele><time>2026-04-06T15:41:54Z</time></trkpt><trkpt lat="45.87392047209246" lon="11.360559401776246"><ele>362.0</ele><time>2026-04-06T15:41:55Z</time></trkpt><trkpt lat="45.87378095873868" lon="11.360740578668338"><ele>365.6666666666667</ele><time>2026-04-06T15:41:56Z</time></trkpt><trkpt lat="45.87363951679644" lon="11.360921518577847"><ele>369.3333333333333</ele><time>2026-04-06T15:41:57Z</time></trkpt><trkpt lat="45.87349732718202" lon="11.361092763712081"><ele>373.0</ele><time>2026-04-06T15:41:58Z</time></trkpt><trkpt lat="45.87335918012057" lon="11.361265373332976"><ele>360.66666666666663</ele><time>2026-04-06T15:41:59Z</time></trkpt><trkpt lat="45.8732225657319" lon="11.361434193517917"><ele>348.3333333333333</ele><time>2026-04-06T15:42:00Z</time></trkpt><trkpt lat="45.87308923994473" lon="11.361602562058666"><ele>336.0</ele><time>2026-04-06T15:42:01Z</time></trkpt><trkpt lat="45.87295270815372" lon="11.361753551115173"><ele>336.0</ele><time>2026-04-06T15:42:02Z</time></trkpt><trkpt lat="45.872807080362776" lon="11.361881256039025"><ele>336.0</ele><time>2026-04-06T15:42:03Z</time></trkpt><trkpt lat="45.872648364848054" lon="11.3619790046268"><ele>336.0</ele><time>2026-04-06T15:42:04Z</time></trkpt><trkpt lat="45.872488145049466" lon="11.362053936528396"><ele>338.3333333333333</ele><time>2026-04-06T15:42:05Z</time></trkpt><trkpt lat="45.87232358011466" lon="11.362092232309305"><ele>340.66666666666663</ele><time>2026-04-06T15:42:06Z</time></trkpt><trkpt lat="45.87215625314914" lon="11.362096808214854"><ele>343.0</ele><time>2026-04-06T15:42:07Z</time></trkpt><trkpt lat="45.87199118074031" lon="11.362089456581627"><ele>343.0</ele><time>2026-04-06T15:42:08Z</time></trkpt><trkpt lat="45.871826201873965" lon="11.362085122610559"><ele>343.0</ele><time>2026-04-06T15:42:09Z</time></trkpt><trkpt lat="45.87165855386607" lon="11.362085132113762"><ele>343.0</ele><time>2026-04-06T15:42:10Z</time></trkpt><trkpt lat="45.87148964159795" lon="11.362078274097804"><ele>342.3333333333333</ele><time>2026-04-06T15:42:11Z</time></trkpt><trkpt lat="45.871321848702024" lon="11.362070361968295"><ele>341.6666666666667</ele><time>2026-04-06T15:42:12Z</time></trkpt><trkpt lat="45.87115102703776" lon="11.362053186359088"><ele>341.0</ele><time>2026-04-06T15:42:13Z</time></trkpt><trkpt lat="45.87098025607495" lon="11.362032716667754"><ele>340.0</ele><time>2026-04-06T15:42:14Z</time></trkpt><trkpt lat="45.8708087054015" lon="11.362005835440883"><ele>339.0</ele><time>2026-04-06T15:42:15Z</time></trkpt><trkpt lat="45.87063696598348" lon="11.361973472592416"><ele>338.0</ele><time>2026-04-06T15:42:16Z</time></trkpt><trkpt lat="45.87046221187184" lon="11.361937861963721"><ele>338.0</ele><time>2026-04-06T15:42:17Z</time></trkpt><trkpt lat="45.870286953644715" lon="11.36189263074372"><ele>338.0</ele><time>2026-04-06T15:42:18Z</time></trkpt><trkpt lat="45.87011326771585" lon="11.361840800281755"><ele>338.0</ele><time>2026-04-06T15:42:19Z</time></trkpt><trkpt lat="45.86993796587369" lon="11.361779827937486"><ele>338.0</ele><time>2026-04-06T15:42:20Z</time></trkpt><trkpt lat="45.869764111954254" lon="11.361716011349543"><ele>338.0</ele><time>2026-04-06T15:42:21Z</time></trkpt><trkpt lat="45.86958852226768" lon="11.361656095666277"><ele>338.0</ele><time>2026-04-06T15:42:22Z</time></trkpt><trkpt lat="45.869412373684504" lon="11.361604905235216"><ele>336.6666666666667</ele><time>2026-04-06T15:42:23Z</time></trkpt><trkpt lat="45.86923140801216" lon="11.361569405159731"><ele>335.3333333333333</ele><time>2026-04-06T15:42:24Z</time></trkpt><trkpt lat="45.86904763238297" lon="11.361549548324234"><ele>334.0</ele><time>2026-04-06T15:42:25Z</time></trkpt><trkpt lat="45.86886062735071" lon="11.361535168867357"><ele>334.0</ele><time>2026-04-06T15:42:26Z</time></trkpt><trkpt lat="45.868673715558046" lon="11.361520122441542"><ele>334.0</ele><time>2026-04-06T15:42:27Z</time></trkpt><trkpt lat="45.86848556419045" lon="11.361502089038144"><ele>334.0</ele><time>2026-04-06T15:42:28Z</time></trkpt><trkpt lat="45.86829672417858" lon="11.361479308960533"><ele>333.0</ele><time>2026-04-06T15:42:29Z</time></trkpt><trkpt lat="45.868106815923156" lon="11.361455415281961"><ele>332.0</ele><time>2026-04-06T15:42:30Z</time></trkpt><trkpt lat="45.86791727695419" lon="11.3614315836307"><ele>331.0</ele><time>2026-04-06T15:42:31Z</time></trkpt><trkpt lat="45.86772752322659" lon="11.361411098344547"><ele>332.0</ele><time>2026-04-06T15:42:32Z</time></trkpt><trkpt lat="45.867535219996206" lon="11.361392669106564"><ele>333.0</ele><time>2026-04-06T15:42:33Z</time></trkpt><trkpt lat="45.867345965372664" lon="11.36137192527014"><ele>334.0</ele><time>2026-04-06T15:42:34Z</time></trkpt><trkpt lat="45.867155969055176" lon="11.361352519796196"><ele>334.0</ele><time>2026-04-06T15:42:35Z</time></trkpt><trkpt lat="45.86696696073326" lon="11.361335391202303"><ele>334.0</ele><time>2026-04-06T15:42:36Z</time></trkpt><trkpt lat="45.86677758551348" lon="11.361320501857287"><ele>334.0</ele><time>2026-04-06T15:42:37Z</time></trkpt><trkpt lat="45.866588034773585" lon="11.361307212679302"><ele>333.66666666666663</ele><time>2026-04-06T15:42:38Z</time></trkpt><trkpt lat="45.86639842472675" lon="11.361294275313966"><ele>333.3333333333333</ele><time>2026-04-06T15:42:39Z</time></trkpt><trkpt lat="45.866210108779036" lon="11.361282239515173"><ele>333.0</ele><time>2026-04-06T15:42:40Z</time></trkpt><trkpt lat="45.86602139610647" lon="11.36127202659089"><ele>333.3333333333333</ele><time>2026-04-06T15:42:41Z</time></trkpt><trkpt lat="45.86583368721986" lon="11.361264609860795"><ele>333.66666666666663</ele><time>2026-04-06T15:42:42Z</time></trkpt><trkpt lat="45.86564572728208" lon="11.3612577581954"><ele>334.0</ele><time>2026-04-06T15:42:43Z</time></trkpt><trkpt lat="45.86545920273557" lon="11.361250138083655"><ele>334.0</ele><time>2026-04-06T15:42:44Z</time></trkpt><trkpt lat="45.86527238127845" lon="11.36123971891274"><ele>334.0</ele><time>2026-04-06T15:42:45Z</time></trkpt><trkpt lat="45.865085669221926" lon="11.361226537559121"><ele>334.0</ele><time>2026-04-06T15:42:46Z</time></trkpt><trkpt lat="45.864899659978214" lon="11.361212968773906"><ele>333.3333333333333</ele><time>2026-04-06T15:42:47Z</time></trkpt><trkpt lat="45.86471275342231" lon="11.361199407746136"><ele>332.6666666666667</ele><time>2026-04-06T15:42:48Z</time></trkpt><trkpt lat="45.864523339634204" lon="11.361187858018324"><ele>332.0</ele><time>2026-04-06T15:42:49Z</time></trkpt><trkpt lat="45.86433338195081" lon="11.361178084449978"><ele>333.33333333333337</ele><time>2026-04-06T15:42:50Z</time></trkpt><trkpt lat="45.864141360198204" lon="11.361171289931077"><ele>334.6666666666667</ele><time>2026-04-06T15:42:51Z</time></trkpt><trkpt lat="45.86395191964551" lon="11.361162690558514"><ele>336.0</ele><time>2026-04-06T15:42:52Z</time></trkpt><trkpt lat="45.86376036394064" lon="11.361153874798152"><ele>336.0</ele><time>2026-04-06T15:42:53Z</time></trkpt><trkpt lat="45.863568418190304" lon="11.361147992230734"><ele>336.0</ele><time>2026-04-06T15:42:54Z</time></trkpt><trkpt lat="45.863377519419544" lon="11.36115551318459"><ele>336.0</ele><time>2026-04-06T15:42:55Z</time></trkpt><trkpt lat="45.863185191331375" lon="11.36117710312282"><ele>336.0</ele><time>2026-04-06T15:42:56Z</time></trkpt><trkpt lat="45.862993717637444" lon="11.361212375773588"><ele>336.0</ele><time>2026-04-06T15:42:57Z</time></trkpt><trkpt lat="45.86280148042882" lon="11.361247638691015"><ele>336.0</ele><time>2026-04-06T15:42:58Z</time></trkpt><trkpt lat="45.86260920399856" lon="11.361281853128341"><ele>337.3333333333333</ele><time>2026-04-06T15:42:59Z</time></trkpt><trkpt lat="45.8624207351806" lon="11.361311155870336"><ele>338.66666666666663</ele><time>2026-04-06T15:43:00Z</time></trkpt><trkpt lat="45.86223427029026" lon="11.361336573452132"><ele>340.0</ele><time>2026-04-06T15:43:01Z</time></trkpt><trkpt lat="45.86205457521028" lon="11.36136123027206"><ele>334.0</ele><time>2026-04-06T15:43:02Z</time></trkpt><trkpt lat="45.8618782808088" lon="11.36138725067825"><ele>328.0</ele><time>2026-04-06T15:43:03Z</time></trkpt><trkpt lat="45.86169280572164" lon="11.361410851184571"><ele>322.0</ele><time>2026-04-06T15:43:04Z</time></trkpt><trkpt lat="45.86149732962768" lon="11.361432274784105"><ele>322.0</ele><time>2026-04-06T15:43:05Z</time></trkpt><trkpt lat="45.86129723048406" lon="11.361453375405985"><ele>322.0</ele><time>2026-04-06T15:43:06Z</time></trkpt><trkpt lat="45.861094795857326" lon="11.361465081842676"><ele>322.0</ele><time>2026-04-06T15:43:07Z</time></trkpt><trkpt lat="45.86089413014573" lon="11.361476236684625"><ele>321.3333333333333</ele><time>2026-04-06T15:43:08Z</time></trkpt><trkpt lat="45.86069258589667" lon="11.361491114512278"><ele>320.6666666666667</ele><time>2026-04-06T15:43:09Z</time></trkpt><trkpt lat="45.8604897171731" lon="11.361509440201976"><ele>320.0</ele><time>2026-04-06T15:43:10Z</time></trkpt><trkpt lat="45.86027898894221" lon="11.361523471880675"><ele>319.33333333333337</ele><time>2026-04-06T15:43:11Z</time></trkpt><trkpt lat="45.86006401688171" lon="11.361532407621146"><ele>318.6666666666667</ele><time>2026-04-06T15:43:12Z</time></trkpt><trkpt lat="45.859854156624394" lon="11.361539260929213"><ele>318.0</ele><time>2026-04-06T15:43:13Z</time></trkpt><trkpt lat="45.85965063637076" lon="11.361549929418535"><ele>318.0</ele><time>2026-04-06T15:43:14Z</time></trkpt><trkpt lat="45.859453542945" lon="11.36156088714962"><ele>318.0</ele><time>2026-04-06T15:43:15Z</time></trkpt><trkpt lat="45.859267082679615" lon="11.361576627069201"><ele>318.0</ele><time>2026-04-06T15:43:16Z</time></trkpt><trkpt lat="45.85909165186692" lon="11.361591840923522"><ele>317.6666666666667</ele><time>2026-04-06T15:43:17Z</time></trkpt><trkpt lat="45.85892379423663" lon="11.361604270563006"><ele>317.33333333333337</ele><time>2026-04-06T15:43:18Z</time></trkpt><trkpt lat="45.85876296620691" lon="11.361614211427147"><ele>317.0</ele><time>2026-04-06T15:43:19Z</time></trkpt><trkpt lat="45.858612093809356" lon="11.361622830125084"><ele>317.0</ele><time>2026-04-06T15:43:20Z</time></trkpt><trkpt lat="45.85846202136124" lon="11.361631642933341"><ele>317.0</ele><time>2026-04-06T15:43:21Z</time></trkpt><trkpt lat="45.858309223331034" lon="11.36164199944712"><ele>317.0</ele><time>2026-04-06T15:43:21.999Z</time></trkpt><trkpt lat="45.85815854691457" lon="11.361649639792569"><ele>317.0</ele><time>2026-04-06T15:43:22.999Z</time></trkpt><trkpt lat="45.85800797729949" lon="11.361657034519753"><ele>317.0</ele><time>2026-04-06T15:43:23.999Z</time></trkpt><trkpt lat="45.857859961635405" lon="11.361665005271416"><ele>317.0</ele><time>2026-04-06T15:43:24.999Z</time></trkpt><trkpt lat="45.85771708959161" lon="11.361673979246083"><ele>317.0</ele><time>2026-04-06T15:43:25.999Z</time></trkpt><trkpt lat="45.85757645497476" lon="11.361681379633197"><ele>317.0</ele><time>2026-04-06T15:43:26.999Z</time></trkpt><trkpt lat="45.85744135209865" lon="11.361690757802194"><ele>317.0</ele><time>2026-04-06T15:43:27.999Z</time></trkpt><trkpt lat="45.85730556540028" lon="11.361702313653426"><ele>317.0</ele><time>2026-04-06T15:43:28.999Z</time></trkpt><trkpt lat="45.857175126182554" lon="11.361710531030104"><ele>317.0</ele><time>2026-04-06T15:43:29.999Z</time></trkpt><trkpt lat="45.85705285391503" lon="11.361715686668228"><ele>317.0</ele><time>2026-04-06T15:43:30.999Z</time></trkpt><trkpt lat="45.8569389573381" lon="11.361721339565618"><ele>317.0</ele><time>2026-04-06T15:43:31.999Z</time></trkpt><trkpt lat="45.85682896463164" lon="11.36173795433977"><ele>317.0</ele><time>2026-04-06T15:43:33Z</time></trkpt><trkpt lat="45.85671938294386" lon="11.361793169969486"><ele>317.0</ele><time>2026-04-06T15:43:34Z</time></trkpt><trkpt lat="45.85661345713167" lon="11.361872061507446"><ele>317.0</ele><time>2026-04-06T15:43:35Z</time></trkpt><trkpt lat="45.85650148670535" lon="11.361948954945227"><ele>317.0</ele><time>2026-04-06T15:43:36Z</time></trkpt><trkpt lat="45.85638102702134" lon="11.362019756492547"><ele>317.0</ele><time>2026-04-06T15:43:37Z</time></trkpt><trkpt lat="45.85625454226474" lon="11.362082889856499"><ele>317.0</ele><time>2026-04-06T15:43:38Z</time></trkpt><trkpt lat="45.856124339365365" lon="11.362149362230753"><ele>316.5</ele><time>2026-04-06T15:43:39Z</time></trkpt><trkpt lat="45.85599609102952" lon="11.36221615995753"><ele>316.0</ele><time>2026-04-06T15:43:40Z</time></trkpt><trkpt lat="45.855862656092256" lon="11.362278165220818"><ele>315.5</ele><time>2026-04-06T15:43:41Z</time></trkpt><trkpt lat="45.85572183843965" lon="11.36233673709824"><ele>315.0</ele><time>2026-04-06T15:43:42Z</time></trkpt><trkpt lat="45.855579404177185" lon="11.36239647869741"><ele>315.0</ele><time>2026-04-06T15:43:43Z</time></trkpt><trkpt lat="45.855433347143816" lon="11.362457487064718"><ele>315.0</ele><time>2026-04-06T15:43:44Z</time></trkpt><trkpt lat="45.85527950621645" lon="11.36251969523356"><ele>315.0</ele><time>2026-04-06T15:43:45Z</time></trkpt><trkpt lat="45.8551120365314" lon="11.362587555032528"><ele>315.0</ele><time>2026-04-06T15:43:46Z</time></trkpt><trkpt lat="45.85493512791952" lon="11.362657319899437"><ele>315.0</ele><time>2026-04-06T15:43:47Z</time></trkpt><trkpt lat="45.85475134632751" lon="11.36272876718896"><ele>315.0</ele><time>2026-04-06T15:43:48Z</time></trkpt><trkpt lat="45.85456824123026" lon="11.362801254775302"><ele>315.0</ele><time>2026-04-06T15:43:49Z</time></trkpt><trkpt lat="45.85438953224094" lon="11.362871705082677"><ele>315.0</ele><time>2026-04-06T15:43:50Z</time></trkpt><trkpt lat="45.854214508923214" lon="11.362940086643329"><ele>315.0</ele><time>2026-04-06T15:43:51Z</time></trkpt><trkpt lat="45.854047277140005" lon="11.363007076662925"><ele>314.6666666666667</ele><time>2026-04-06T15:43:52Z</time></trkpt><trkpt lat="45.853885967791484" lon="11.363070400956124"><ele>314.33333333333337</ele><time>2026-04-06T15:43:53Z</time></trkpt><trkpt lat="45.85373193733984" lon="11.36313104336244"><ele>314.0</ele><time>2026-04-06T15:43:54Z</time></trkpt><trkpt lat="45.85357643644659" lon="11.363193434908565"><ele>315.33333333333337</ele><time>2026-04-06T15:43:55Z</time></trkpt><trkpt lat="45.85341956151858" lon="11.363261629235604"><ele>316.6666666666667</ele><time>2026-04-06T15:43:56Z</time></trkpt><trkpt lat="45.85325569322352" lon="11.363342490162069"><ele>318.0</ele><time>2026-04-06T15:43:57Z</time></trkpt><trkpt lat="45.853080800395624" lon="11.363432974144644"><ele>318.0</ele><time>2026-04-06T15:43:58Z</time></trkpt><trkpt lat="45.85289649767618" lon="11.3635235329176"><ele>318.0</ele><time>2026-04-06T15:43:59Z</time></trkpt><trkpt lat="45.852705300746365" lon="11.363613053053163"><ele>318.0</ele><time>2026-04-06T15:44:00Z</time></trkpt><trkpt lat="45.85251088931091" lon="11.363700392168425"><ele>318.3333333333333</ele><time>2026-04-06T15:44:01Z</time></trkpt><trkpt lat="45.8523166573935" lon="11.363783934678022"><ele>318.66666666666663</ele><time>2026-04-06T15:44:02Z</time></trkpt><trkpt lat="45.85212347783141" lon="11.363872428513561"><ele>319.0</ele><time>2026-04-06T15:44:03Z</time></trkpt><trkpt lat="45.85193179572464" lon="11.363962599031604"><ele>318.0</ele><time>2026-04-06T15:44:04Z</time></trkpt><trkpt lat="45.85174337874092" lon="11.364057710059058"><ele>317.0</ele><time>2026-04-06T15:44:05Z</time></trkpt><trkpt lat="45.85155824103266" lon="11.364161123810442"><ele>316.0</ele><time>2026-04-06T15:44:06Z</time></trkpt><trkpt lat="45.851375264520186" lon="11.364268104356897"><ele>316.0</ele><time>2026-04-06T15:44:07Z</time></trkpt><trkpt lat="45.85119266617552" lon="11.364376186641262"><ele>316.0</ele><time>2026-04-06T15:44:08Z</time></trkpt><trkpt lat="45.851010213089516" lon="11.36448879793596"><ele>316.0</ele><time>2026-04-06T15:44:09Z</time></trkpt><trkpt lat="45.850829330605315" lon="11.364606734977738"><ele>313.3333333333333</ele><time>2026-04-06T15:44:10Z</time></trkpt><trkpt lat="45.85064981564426" lon="11.364725247956555"><ele>310.6666666666667</ele><time>2026-04-06T15:44:11Z</time></trkpt><trkpt lat="45.850469491417364" lon="11.364846881555602"><ele>308.0</ele><time>2026-04-06T15:44:12Z</time></trkpt><trkpt lat="45.85028860299872" lon="11.36496746632518"><ele>310.0</ele><time>2026-04-06T15:44:13Z</time></trkpt><trkpt lat="45.850106763992564" lon="11.365088056316734"><ele>312.0</ele><time>2026-04-06T15:44:14Z</time></trkpt><trkpt lat="45.84992191358429" lon="11.365207398659873"><ele>314.0</ele><time>2026-04-06T15:44:15Z</time></trkpt><trkpt lat="45.849736948944724" lon="11.365319242573031"><ele>314.0</ele><time>2026-04-06T15:44:16Z</time></trkpt><trkpt lat="45.849548014799424" lon="11.365430534988784"><ele>314.0</ele><time>2026-04-06T15:44:17Z</time></trkpt><trkpt lat="45.8493553613842" lon="11.365539884471389"><ele>314.0</ele><time>2026-04-06T15:44:18Z</time></trkpt><trkpt lat="45.84916080602525" lon="11.36564353914215"><ele>313.33333333333337</ele><time>2026-04-06T15:44:19Z</time></trkpt><trkpt lat="45.84896170036891" lon="11.365737875238105"><ele>312.6666666666667</ele><time>2026-04-06T15:44:20Z</time></trkpt><trkpt lat="45.84876032011192" lon="11.36582145307955"><ele>312.0</ele><time>2026-04-06T15:44:21Z</time></trkpt><trkpt lat="45.84855779581538" lon="11.365899830469361"><ele>315.3333333333333</ele><time>2026-04-06T15:44:22Z</time></trkpt><trkpt lat="45.848352814520034" lon="11.365969114741219"><ele>318.66666666666663</ele><time>2026-04-06T15:44:23Z</time></trkpt><trkpt lat="45.84814753802875" lon="11.36602371512134"><ele>322.0</ele><time>2026-04-06T15:44:24Z</time></trkpt><trkpt lat="45.84793893641477" lon="11.366060781342243"><ele>322.0</ele><time>2026-04-06T15:44:25Z</time></trkpt><trkpt lat="45.847731433563894" lon="11.366090890807296"><ele>322.0</ele><time>2026-04-06T15:44:26Z</time></trkpt><trkpt lat="45.847522048066665" lon="11.366125417680664"><ele>322.0</ele><time>2026-04-06T15:44:27Z</time></trkpt><trkpt lat="45.84731557807162" lon="11.366163315305787"><ele>323.66666666666663</ele><time>2026-04-06T15:44:28Z</time></trkpt><trkpt lat="45.84711166098776" lon="11.366199697496375"><ele>325.3333333333333</ele><time>2026-04-06T15:44:29Z</time></trkpt><trkpt lat="45.84691131217087" lon="11.366233832944602"><ele>327.0</ele><time>2026-04-06T15:44:30Z</time></trkpt><trkpt lat="45.84671173548017" lon="11.366260998138191"><ele>330.3333333333333</ele><time>2026-04-06T15:44:31Z</time></trkpt><trkpt lat="45.846517759714466" lon="11.366289550373706"><ele>333.66666666666663</ele><time>2026-04-06T15:44:32Z</time></trkpt><trkpt lat="45.84632357641474" lon="11.366331534176636"><ele>337.0</ele><time>2026-04-06T15:44:33Z</time></trkpt><trkpt lat="45.84613530820678" lon="11.366391883250994"><ele>330.66666666666663</ele><time>2026-04-06T15:44:34Z</time></trkpt><trkpt lat="45.84595124074555" lon="11.366473390455324"><ele>324.3333333333333</ele><time>2026-04-06T15:44:35Z</time></trkpt><trkpt lat="45.845768737737664" lon="11.366559852104514"><ele>318.0</ele><time>2026-04-06T15:44:36Z</time></trkpt><trkpt lat="45.84558636164328" lon="11.366642357826494"><ele>318.0</ele><time>2026-04-06T15:44:37Z</time></trkpt><trkpt lat="45.84540070096439" lon="11.36670558802576"><ele>318.0</ele><time>2026-04-06T15:44:38Z</time></trkpt><trkpt lat="45.845211622010815" lon="11.36674647098029"><ele>318.0</ele><time>2026-04-06T15:44:39Z</time></trkpt><trkpt lat="45.84502154135056" lon="11.366776578303355"><ele>319.3333333333333</ele><time>2026-04-06T15:44:40Z</time></trkpt><trkpt lat="45.84483304338559" lon="11.366806572612827"><ele>320.66666666666663</ele><time>2026-04-06T15:44:41Z</time></trkpt><trkpt lat="45.844643999301645" lon="11.36684152863456"><ele>322.0</ele><time>2026-04-06T15:44:42Z</time></trkpt><trkpt lat="45.84445584555345" lon="11.366876402930714"><ele>325.0</ele><time>2026-04-06T15:44:43Z</time></trkpt><trkpt lat="45.844268213924664" lon="11.366909593869748"><ele>328.0</ele><time>2026-04-06T15:44:44Z</time></trkpt><trkpt lat="45.84407860136703" lon="11.366938892321773"><ele>331.0</ele><time>2026-04-06T15:44:45Z</time></trkpt><trkpt lat="45.843887726816234" lon="11.366965978338968"><ele>331.0</ele><time>2026-04-06T15:44:46Z</time></trkpt><trkpt lat="45.84369521041892" lon="11.366996284535473"><ele>331.0</ele><time>2026-04-06T15:44:47Z</time></trkpt><trkpt lat="45.84350030045108" lon="11.367029712795894"><ele>331.0</ele><time>2026-04-06T15:44:48Z</time></trkpt><trkpt lat="45.843306225516585" lon="11.367075863321585"><ele>332.3333333333333</ele><time>2026-04-06T15:44:49Z</time></trkpt><trkpt lat="45.84311614088309" lon="11.36714253068104"><ele>333.6666666666667</ele><time>2026-04-06T15:44:50Z</time></trkpt><trkpt lat="45.84293297700783" lon="11.367239749066417"><ele>335.0</ele><time>2026-04-06T15:44:51Z</time></trkpt><trkpt lat="45.84275821427174" lon="11.367359661870154"><ele>330.0</ele><time>2026-04-06T15:44:52Z</time></trkpt><trkpt lat="45.842585453131484" lon="11.367484170989627"><ele>325.0</ele><time>2026-04-06T15:44:53Z</time></trkpt><trkpt lat="45.84241143904555" lon="11.36760916684076"><ele>320.0</ele><time>2026-04-06T15:44:54Z</time></trkpt><trkpt lat="45.842244426770954" lon="11.367747070529784"><ele>320.0</ele><time>2026-04-06T15:44:55Z</time></trkpt><trkpt lat="45.8420754923639" lon="11.36788938286603"><ele>320.0</ele><time>2026-04-06T15:44:56Z</time></trkpt><trkpt lat="45.84191318086651" lon="11.368032635055531"><ele>320.0</ele><time>2026-04-06T15:44:57Z</time></trkpt><trkpt lat="45.841750367693066" lon="11.368181452505334"><ele>315.6666666666667</ele><time>2026-04-06T15:44:58Z</time></trkpt><trkpt lat="45.8415973723417" lon="11.368323016222517"><ele>311.3333333333333</ele><time>2026-04-06T15:44:59Z</time></trkpt><trkpt lat="45.84145308354473" lon="11.368454986398131"><ele>307.0</ele><time>2026-04-06T15:45:00Z</time></trkpt><trkpt lat="45.841314480792455" lon="11.36858059926124"><ele>307.0</ele><time>2026-04-06T15:45:01Z</time></trkpt><trkpt lat="45.84118331664105" lon="11.368707708819528"><ele>307.0</ele><time>2026-04-06T15:45:02Z</time></trkpt><trkpt lat="45.84105864543944" lon="11.368826729056783"><ele>307.0</ele><time>2026-04-06T15:45:03Z</time></trkpt><trkpt lat="45.84095187595244" lon="11.368931217168566"><ele>307.0</ele><time>2026-04-06T15:45:04Z</time></trkpt><trkpt lat="45.84085414696185" lon="11.369035630701827"><ele>306.0</ele><time>2026-04-06T15:45:05Z</time></trkpt><trkpt lat="45.840761404527456" lon="11.369144566874988"><ele>305.0</ele><time>2026-04-06T15:45:06Z</time></trkpt><trkpt lat="45.84066896081564" lon="11.369259585018824"><ele>304.0</ele><time>2026-04-06T15:45:07Z</time></trkpt><trkpt lat="45.840574207284156" lon="11.369374680122998"><ele>303.0</ele><time>2026-04-06T15:45:08Z</time></trkpt><trkpt lat="45.840485240167276" lon="11.369484689637911"><ele>303.0</ele><time>2026-04-06T15:45:09Z</time></trkpt><trkpt lat="45.84039706545761" lon="11.369589108584618"><ele>303.0</ele><time>2026-04-06T15:45:10Z</time></trkpt><trkpt lat="45.84030854889247" lon="11.369686580082723"><ele>303.0</ele><time>2026-04-06T15:45:11Z</time></trkpt><trkpt lat="45.84021287535367" lon="11.369785258515499"><ele>303.0</ele><time>2026-04-06T15:45:12Z</time></trkpt><trkpt lat="45.8401061355733" lon="11.369879526488026"><ele>302.75</ele><time>2026-04-06T15:45:12.999Z</time></trkpt><trkpt lat="45.839989383703546" lon="11.369970789720686"><ele>302.5</ele><time>2026-04-06T15:45:13.999Z</time></trkpt><trkpt lat="45.83986617677149" lon="11.370059012058737"><ele>302.25</ele><time>2026-04-06T15:45:14.999Z</time></trkpt><trkpt lat="45.83973746945874" lon="11.370148705671339"><ele>302.0</ele><time>2026-04-06T15:45:15.999Z</time></trkpt><trkpt lat="45.83961080534903" lon="11.370238137535937"><ele>302.0</ele><time>2026-04-06T15:45:16.999Z</time></trkpt><trkpt lat="45.83948870431229" lon="11.370313418339094"><ele>302.0</ele><time>2026-04-06T15:45:17.999Z</time></trkpt><trkpt lat="45.83936501091822" lon="11.37037006219473"><ele>302.0</ele><time>2026-04-06T15:45:18.999Z</time></trkpt><trkpt lat="45.83923444500862" lon="11.370407732039077"><ele>302.0</ele><time>2026-04-06T15:45:19.999Z</time></trkpt><trkpt lat="45.839105990327994" lon="11.370423551932205"><ele>307.75</ele><time>2026-04-06T15:45:20.999Z</time></trkpt><trkpt lat="45.838974257052" lon="11.370426138771478"><ele>313.5</ele><time>2026-04-06T15:45:21.999Z</time></trkpt><trkpt lat="45.83884135881245" lon="11.370434617332041"><ele>319.25</ele><time>2026-04-06T15:45:22.999Z</time></trkpt><trkpt lat="45.8387086756898" lon="11.370448408307345"><ele>325.0</ele><time>2026-04-06T15:45:23.999Z</time></trkpt><trkpt lat="45.83857545011051" lon="11.370465199970075"><ele>328.25</ele><time>2026-04-06T15:45:24.999Z</time></trkpt><trkpt lat="45.83844198025283" lon="11.37047686021778"><ele>331.5</ele><time>2026-04-06T15:45:25.999Z</time></trkpt><trkpt lat="45.83830253798348" lon="11.37048657395906"><ele>334.75</ele><time>2026-04-06T15:45:26.999Z</time></trkpt><trkpt lat="45.838156789557026" lon="11.370478971076915"><ele>338.0</ele><time>2026-04-06T15:45:27.999Z</time></trkpt><trkpt lat="45.83799952335682" lon="11.370448487745954"><ele>338.0</ele><time>2026-04-06T15:45:28.999Z</time></trkpt><trkpt lat="45.837838658432055" lon="11.370396841666045"><ele>338.0</ele><time>2026-04-06T15:45:29.999Z</time></trkpt><trkpt lat="45.837679925889354" lon="11.370337057225823"><ele>338.0</ele><time>2026-04-06T15:45:30.999Z</time></trkpt><trkpt lat="45.83751966423602" lon="11.370272670696906"><ele>334.33333333333337</ele><time>2026-04-06T15:45:31.999Z</time></trkpt><trkpt lat="45.83736369362007" lon="11.370211118364946"><ele>330.6666666666667</ele><time>2026-04-06T15:45:32.999Z</time></trkpt><trkpt lat="45.837217153922175" lon="11.37015077196887"><ele>327.0</ele><time>2026-04-06T15:45:33.999Z</time></trkpt><trkpt lat="45.837076355864205" lon="11.37010476112164"><ele>327.0</ele><time>2026-04-06T15:45:34.999Z</time></trkpt><trkpt lat="45.836931503744246" lon="11.370074005359282"><ele>327.0</ele><time>2026-04-06T15:45:35.999Z</time></trkpt><trkpt lat="45.8367746088305" lon="11.370041265479514"><ele>327.0</ele><time>2026-04-06T15:45:36.999Z</time></trkpt><trkpt lat="45.83660749204115" lon="11.369993260242472"><ele>324.6666666666667</ele><time>2026-04-06T15:45:37.999Z</time></trkpt><trkpt lat="45.83642790410606" lon="11.36994261959374"><ele>322.33333333333337</ele><time>2026-04-06T15:45:39Z</time></trkpt><trkpt lat="45.8362415019719" lon="11.369878224579866"><ele>320.0</ele><time>2026-04-06T15:45:40Z</time></trkpt><trkpt lat="45.836050311910455" lon="11.369808283451615"><ele>315.0</ele><time>2026-04-06T15:45:41Z</time></trkpt><trkpt lat="45.835858991015876" lon="11.369744285223819"><ele>310.0</ele><time>2026-04-06T15:45:42Z</time></trkpt><trkpt lat="45.83566852161525" lon="11.369691212171217"><ele>305.0</ele><time>2026-04-06T15:45:43Z</time></trkpt><trkpt lat="45.835479116847914" lon="11.369646609994687"><ele>315.33333333333337</ele><time>2026-04-06T15:45:44Z</time></trkpt><trkpt lat="45.83529839602277" lon="11.369609736949945"><ele>325.6666666666667</ele><time>2026-04-06T15:45:45Z</time></trkpt><trkpt lat="45.835122885819274" lon="11.36956950302123"><ele>336.0</ele><time>2026-04-06T15:45:46Z</time></trkpt><trkpt lat="45.83494762517065" lon="11.369526142349184"><ele>336.0</ele><time>2026-04-06T15:45:47Z</time></trkpt><trkpt lat="45.83477426012742" lon="11.369484403455928"><ele>336.0</ele><time>2026-04-06T15:45:48Z</time></trkpt><trkpt lat="45.83460384493426" lon="11.369443581590108"><ele>336.0</ele><time>2026-04-06T15:45:49Z</time></trkpt><trkpt lat="45.83444433333965" lon="11.369403495575419"><ele>331.0</ele><time>2026-04-06T15:45:50Z</time></trkpt><trkpt lat="45.834293819465174" lon="11.369375867811403"><ele>326.0</ele><time>2026-04-06T15:45:51Z</time></trkpt><trkpt lat="45.83414734320221" lon="11.369391596930946"><ele>321.0</ele><time>2026-04-06T15:45:52Z</time></trkpt><trkpt lat="45.833999160476424" lon="11.369440529187068"><ele>321.0</ele><time>2026-04-06T15:45:53Z</time></trkpt><trkpt lat="45.83385367627406" lon="11.369522988381643"><ele>321.0</ele><time>2026-04-06T15:45:54Z</time></trkpt><trkpt lat="45.83371455161423" lon="11.369624795118423"><ele>321.0</ele><time>2026-04-06T15:45:55Z</time></trkpt><trkpt lat="45.83357766060672" lon="11.369713618114988"><ele>315.75</ele><time>2026-04-06T15:45:56Z</time></trkpt><trkpt lat="45.83344687605913" lon="11.369784057385619"><ele>310.5</ele><time>2026-04-06T15:45:57Z</time></trkpt><trkpt lat="45.8333153540091" lon="11.369820719958497"><ele>305.25</ele><time>2026-04-06T15:45:58Z</time></trkpt><trkpt lat="45.83317916129532" lon="11.369836639919837"><ele>300.0</ele><time>2026-04-06T15:45:59Z</time></trkpt><trkpt lat="45.83304193055321" lon="11.369835929257004"><ele>300.0</ele><time>2026-04-06T15:46:00Z</time></trkpt><trkpt lat="45.832899888420805" lon="11.369818498456578"><ele>300.0</ele><time>2026-04-06T15:46:01Z</time></trkpt><trkpt lat="45.83275381459953" lon="11.369797148749498"><ele>300.0</ele><time>2026-04-06T15:46:02Z</time></trkpt><trkpt lat="45.832610485146354" lon="11.369763542283415"><ele>300.0</ele><time>2026-04-06T15:46:03Z</time></trkpt><trkpt lat="45.83246760633392" lon="11.369725819302586"><ele>309.0</ele><time>2026-04-06T15:46:04Z</time></trkpt><trkpt lat="45.83231667585227" lon="11.369676043332335"><ele>318.0</ele><time>2026-04-06T15:46:05Z</time></trkpt><trkpt lat="45.83216933897875" lon="11.369591541066024"><ele>327.0</ele><time>2026-04-06T15:46:06Z</time></trkpt><trkpt lat="45.83202761090146" lon="11.369503990979561"><ele>327.0</ele><time>2026-04-06T15:46:07Z</time></trkpt><trkpt lat="45.831876616322745" lon="11.369410240644998"><ele>327.0</ele><time>2026-04-06T15:46:08Z</time></trkpt><trkpt lat="45.831724471412855" lon="11.369317367921726"><ele>327.0</ele><time>2026-04-06T15:46:09Z</time></trkpt><trkpt lat="45.831571340205066" lon="11.369230109061373"><ele>325.6666666666667</ele><time>2026-04-06T15:46:10Z</time></trkpt><trkpt lat="45.83142048639544" lon="11.369155875376277"><ele>324.33333333333337</ele><time>2026-04-06T15:46:11Z</time></trkpt><trkpt lat="45.831263298523055" lon="11.36909885364213"><ele>323.0</ele><time>2026-04-06T15:46:12Z</time></trkpt><trkpt lat="45.83110081887641" lon="11.369055158265045"><ele>319.0</ele><time>2026-04-06T15:46:13Z</time></trkpt><trkpt lat="45.830939227856064" lon="11.36901407893563"><ele>315.0</ele><time>2026-04-06T15:46:14Z</time></trkpt><trkpt lat="45.83077542682816" lon="11.368973549572894"><ele>311.0</ele><time>2026-04-06T15:46:15Z</time></trkpt><trkpt lat="45.830615030047916" lon="11.368924271101283"><ele>311.0</ele><time>2026-04-06T15:46:16Z</time></trkpt><trkpt lat="45.8304571489484" lon="11.36887007524894"><ele>311.0</ele><time>2026-04-06T15:46:17Z</time></trkpt><trkpt lat="45.83030517440307" lon="11.368801671253658"><ele>311.0</ele><time>2026-04-06T15:46:18Z</time></trkpt><trkpt lat="45.83015413081139" lon="11.36873671077454"><ele>329.33333333333337</ele><time>2026-04-06T15:46:19Z</time></trkpt><trkpt lat="45.83000076523222" lon="11.368689839634264"><ele>347.6666666666667</ele><time>2026-04-06T15:46:20Z</time></trkpt><trkpt lat="45.82984054367285" lon="11.368675184572865"><ele>366.0</ele><time>2026-04-06T15:46:21Z</time></trkpt><trkpt lat="45.82968127826822" lon="11.368704437931553"><ele>366.0</ele><time>2026-04-06T15:46:22Z</time></trkpt><trkpt lat="45.82952557236302" lon="11.368765769267979"><ele>366.0</ele><time>2026-04-06T15:46:23Z</time></trkpt><trkpt lat="45.82936983701628" lon="11.36880761858708"><ele>366.0</ele><time>2026-04-06T15:46:24Z</time></trkpt><trkpt lat="45.829212371167976" lon="11.368839145656253"><ele>343.6666666666667</ele><time>2026-04-06T15:46:25Z</time></trkpt><trkpt lat="45.82905486869416" lon="11.368863425969487"><ele>321.33333333333337</ele><time>2026-04-06T15:46:26Z</time></trkpt><trkpt lat="45.82889339025744" lon="11.36887308103108"><ele>299.0</ele><time>2026-04-06T15:46:27Z</time></trkpt><trkpt lat="45.82872412062767" lon="11.3688723489199"><ele>299.0</ele><time>2026-04-06T15:46:28Z</time></trkpt><trkpt lat="45.828556846503304" lon="11.368861272015142"><ele>299.0</ele><time>2026-04-06T15:46:29Z</time></trkpt><trkpt lat="45.82839318675414" lon="11.36884842253023"><ele>299.0</ele><time>2026-04-06T15:46:30Z</time></trkpt><trkpt lat="45.82823172784649" lon="11.368838985646898"><ele>318.0</ele><time>2026-04-06T15:46:31Z</time></trkpt><trkpt lat="45.82806613017747" lon="11.368832372134632"><ele>337.0</ele><time>2026-04-06T15:46:32Z</time></trkpt><trkpt lat="45.82789867165555" lon="11.368827159816894"><ele>356.0</ele><time>2026-04-06T15:46:33Z</time></trkpt><trkpt lat="45.827730747126836" lon="11.368828073942275"><ele>353.33333333333337</ele><time>2026-04-06T15:46:34Z</time></trkpt><trkpt lat="45.82756272992316" lon="11.368829135937599"><ele>350.6666666666667</ele><time>2026-04-06T15:46:35Z</time></trkpt><trkpt lat="45.827396044936286" lon="11.368828487421442"><ele>348.0</ele><time>2026-04-06T15:46:36Z</time></trkpt><trkpt lat="45.82723142826622" lon="11.368818152328025"><ele>348.0</ele><time>2026-04-06T15:46:37Z</time></trkpt><trkpt lat="45.82707156092626" lon="11.368795004092815"><ele>348.0</ele><time>2026-04-06T15:46:38Z</time></trkpt><trkpt lat="45.826911383823806" lon="11.368759462109654"><ele>348.0</ele><time>2026-04-06T15:46:39Z</time></trkpt><trkpt lat="45.826756401040086" lon="11.368708003457675"><ele>344.0</ele><time>2026-04-06T15:46:40Z</time></trkpt><trkpt lat="45.8266050664418" lon="11.368648878034328"><ele>340.0</ele><time>2026-04-06T15:46:41Z</time></trkpt><trkpt lat="45.82646837489256" lon="11.368580377013439"><ele>336.0</ele><time>2026-04-06T15:46:42Z</time></trkpt><trkpt lat="45.82633821812878" lon="11.368507003879845"><ele>332.0</ele><time>2026-04-06T15:46:43Z</time></trkpt><trkpt lat="45.82620637201608" lon="11.36843307856098"><ele>332.0</ele><time>2026-04-06T15:46:44Z</time></trkpt><trkpt lat="45.82606146227149" lon="11.368361122621584"><ele>332.0</ele><time>2026-04-06T15:46:45Z</time></trkpt><trkpt lat="45.82591206006346" lon="11.368285928858969"><ele>332.0</ele><time>2026-04-06T15:46:46Z</time></trkpt><trkpt lat="45.82575882561433" lon="11.368204581994378"><ele>336.33333333333337</ele><time>2026-04-06T15:46:47Z</time></trkpt><trkpt lat="45.825608652262126" lon="11.368110776156865"><ele>340.6666666666667</ele><time>2026-04-06T15:46:48Z</time></trkpt><trkpt lat="45.82545482728257" lon="11.368019034435031"><ele>345.0</ele><time>2026-04-06T15:46:49Z</time></trkpt><trkpt lat="45.82529619711456" lon="11.367933330293859"><ele>338.0</ele><time>2026-04-06T15:46:50Z</time></trkpt><trkpt lat="45.82513788029872" lon="11.367844545528847"><ele>331.0</ele><time>2026-04-06T15:46:51Z</time></trkpt><trkpt lat="45.824981408579504" lon="11.367741310499206"><ele>324.0</ele><time>2026-04-06T15:46:52Z</time></trkpt><trkpt lat="45.8248211957255" lon="11.367633768438898"><ele>324.0</ele><time>2026-04-06T15:46:53Z</time></trkpt><trkpt lat="45.82466065939412" lon="11.367534164349475"><ele>324.0</ele><time>2026-04-06T15:46:54Z</time></trkpt><trkpt lat="45.824498646490134" lon="11.367432197422259"><ele>324.0</ele><time>2026-04-06T15:46:55Z</time></trkpt><trkpt lat="45.82433935813774" lon="11.36732073488534"><ele>323.0</ele><time>2026-04-06T15:46:56Z</time></trkpt><trkpt lat="45.82418462915961" lon="11.367199011621524"><ele>322.0</ele><time>2026-04-06T15:46:57Z</time></trkpt><trkpt lat="45.824031675518206" lon="11.36707186968578"><ele>321.0</ele><time>2026-04-06T15:46:58Z</time></trkpt><trkpt lat="45.82387791353765" lon="11.36694579155852"><ele>323.3333333333333</ele><time>2026-04-06T15:46:59Z</time></trkpt><trkpt lat="45.82372556591364" lon="11.366819617270695"><ele>325.66666666666663</ele><time>2026-04-06T15:47:00Z</time></trkpt><trkpt lat="45.82357599211324" lon="11.366691251434258"><ele>328.0</ele><time>2026-04-06T15:47:01Z</time></trkpt><trkpt lat="45.82342484676664" lon="11.366570087307153"><ele>328.0</ele><time>2026-04-06T15:47:02Z</time></trkpt><trkpt lat="45.823272928160556" lon="11.36644962373756"><ele>328.0</ele><time>2026-04-06T15:47:03Z</time></trkpt><trkpt lat="45.823119437565744" lon="11.366332012142522"><ele>328.0</ele><time>2026-04-06T15:47:04Z</time></trkpt><trkpt lat="45.82296461563336" lon="11.366219390901229"><ele>328.66666666666663</ele><time>2026-04-06T15:47:05Z</time></trkpt><trkpt lat="45.822807128964136" lon="11.366109770118623"><ele>329.3333333333333</ele><time>2026-04-06T15:47:06Z</time></trkpt><trkpt lat="45.82264671029839" lon="11.366001919148506"><ele>330.0</ele><time>2026-04-06T15:47:07Z</time></trkpt><trkpt lat="45.822482533872396" lon="11.36589767753588"><ele>330.0</ele><time>2026-04-06T15:47:07.999Z</time></trkpt><trkpt lat="45.82231481080432" lon="11.365796509020283"><ele>330.0</ele><time>2026-04-06T15:47:08.999Z</time></trkpt><trkpt lat="45.822144171300344" lon="11.36569979516402"><ele>330.0</ele><time>2026-04-06T15:47:09.999Z</time></trkpt><trkpt lat="45.82197239413547" lon="11.365596381213706"><ele>332.6666666666667</ele><time>2026-04-06T15:47:10.999Z</time></trkpt><trkpt lat="45.82180254906889" lon="11.365491189658716"><ele>335.33333333333337</ele><time>2026-04-06T15:47:11.999Z</time></trkpt><trkpt lat="45.82163200673044" lon="11.365386556024454"><ele>338.0</ele><time>2026-04-06T15:47:12.999Z</time></trkpt><trkpt lat="45.82146388181909" lon="11.365283011107797"><ele>338.0</ele><time>2026-04-06T15:47:13.999Z</time></trkpt><trkpt lat="45.82129380390841" lon="11.365184445506689"><ele>338.0</ele><time>2026-04-06T15:47:14.999Z</time></trkpt><trkpt lat="45.821125602386644" lon="11.365078633973276"><ele>338.0</ele><time>2026-04-06T15:47:15.999Z</time></trkpt><trkpt lat="45.82095666714045" lon="11.364977755944576"><ele>339.6666666666667</ele><time>2026-04-06T15:47:16.999Z</time></trkpt><trkpt lat="45.820784771843044" lon="11.364877681937168"><ele>341.3333333333333</ele><time>2026-04-06T15:47:17.999Z</time></trkpt><trkpt lat="45.820612113028" lon="11.364776970019156"><ele>343.0</ele><time>2026-04-06T15:47:18.999Z</time></trkpt><trkpt lat="45.820440195056726" lon="11.364674246639561"><ele>343.0</ele><time>2026-04-06T15:47:19.999Z</time></trkpt><trkpt lat="45.820265644861514" lon="11.364573783159102"><ele>343.0</ele><time>2026-04-06T15:47:20.999Z</time></trkpt><trkpt lat="45.82009196664942" lon="11.364468585198974"><ele>343.0</ele><time>2026-04-06T15:47:21.999Z</time></trkpt><trkpt lat="45.819917451104175" lon="11.364361579240619"><ele>339.3333333333333</ele><time>2026-04-06T15:47:22.999Z</time></trkpt><trkpt lat="45.819742514667105" lon="11.364256907917502"><ele>335.6666666666667</ele><time>2026-04-06T15:47:23.999Z</time></trkpt><trkpt lat="45.81956620217629" lon="11.364161156661366"><ele>332.0</ele><time>2026-04-06T15:47:24.999Z</time></trkpt><trkpt lat="45.81938759715454" lon="11.364077229181248"><ele>330.33333333333337</ele><time>2026-04-06T15:47:25.999Z</time></trkpt><trkpt lat="45.8192084839519" lon="11.36399816574546"><ele>328.6666666666667</ele><time>2026-04-06T15:47:26.999Z</time></trkpt><trkpt lat="45.819035066023574" lon="11.363901847290421"><ele>327.0</ele><time>2026-04-06T15:47:27.999Z</time></trkpt><trkpt lat="45.81886935039798" lon="11.363790939175733"><ele>333.3333333333333</ele><time>2026-04-06T15:47:28.999Z</time></trkpt><trkpt lat="45.81871598865612" lon="11.363661670858141"><ele>339.66666666666663</ele><time>2026-04-06T15:47:29.999Z</time></trkpt><trkpt lat="45.81856905210366" lon="11.363529574713416"><ele>346.0</ele><time>2026-04-06T15:47:30.999Z</time></trkpt><trkpt lat="45.81841105260755" lon="11.363430657278787"><ele>346.0</ele><time>2026-04-06T15:47:31.999Z</time></trkpt><trkpt lat="45.818238448667586" lon="11.363367139336649"><ele>346.0</ele><time>2026-04-06T15:47:32.999Z</time></trkpt><trkpt lat="45.818057219263885" lon="11.363335778597902"><ele>346.0</ele><time>2026-04-06T15:47:33.999Z</time></trkpt><trkpt lat="45.81787065202504" lon="11.363337372266939"><ele>346.0</ele><time>2026-04-06T15:47:34.999Z</time></trkpt><trkpt lat="45.81767885985099" lon="11.363339496093396"><ele>346.0</ele><time>2026-04-06T15:47:35.999Z</time></trkpt><trkpt lat="45.817484608395624" lon="11.363317258981784"><ele>346.0</ele><time>2026-04-06T15:47:36.999Z</time></trkpt><trkpt lat="45.81729648210452" lon="11.363248040686342"><ele>342.3333333333333</ele><time>2026-04-06T15:47:37.999Z</time></trkpt><trkpt lat="45.81710749443512" lon="11.36317512501031"><ele>338.6666666666667</ele><time>2026-04-06T15:47:38.999Z</time></trkpt><trkpt lat="45.81691822730372" lon="11.36311303568492"><ele>335.0</ele><time>2026-04-06T15:47:39.999Z</time></trkpt><trkpt lat="45.81672963165838" lon="11.363055259946012"><ele>341.0</ele><time>2026-04-06T15:47:40.999Z</time></trkpt><trkpt lat="45.81654208425851" lon="11.36301070567262"><ele>347.0</ele><time>2026-04-06T15:47:41.999Z</time></trkpt><trkpt lat="45.81635227415207" lon="11.362988444051023"><ele>353.0</ele><time>2026-04-06T15:47:42.999Z</time></trkpt><trkpt lat="45.81615927687859" lon="11.362992433017812"><ele>346.6666666666667</ele><time>2026-04-06T15:47:44Z</time></trkpt><trkpt lat="45.81596531760572" lon="11.363019523062661"><ele>340.3333333333333</ele><time>2026-04-06T15:47:45Z</time></trkpt><trkpt lat="45.81577091769412" lon="11.363061347474927"><ele>334.0</ele><time>2026-04-06T15:47:46Z</time></trkpt><trkpt lat="45.81557674510258" lon="11.363118689001272"><ele>331.0</ele><time>2026-04-06T15:47:47Z</time></trkpt><trkpt lat="45.815381090859645" lon="11.363185123071553"><ele>328.0</ele><time>2026-04-06T15:47:48Z</time></trkpt><trkpt lat="45.815187449651916" lon="11.36325264264418"><ele>325.0</ele><time>2026-04-06T15:47:49Z</time></trkpt><trkpt lat="45.81499714322456" lon="11.363319149901"><ele>325.0</ele><time>2026-04-06T15:47:50Z</time></trkpt><trkpt lat="45.81481126360653" lon="11.363382896643325"><ele>325.0</ele><time>2026-04-06T15:47:51Z</time></trkpt><trkpt lat="45.81462781549735" lon="11.363426774066218"><ele>325.0</ele><time>2026-04-06T15:47:52Z</time></trkpt><trkpt lat="45.81444130652329" lon="11.363442360761296"><ele>324.0</ele><time>2026-04-06T15:47:53Z</time></trkpt><trkpt lat="45.81425684650141" lon="11.363437757427084"><ele>323.0</ele><time>2026-04-06T15:47:54Z</time></trkpt><trkpt lat="45.81407227631502" lon="11.363406705586504"><ele>322.0</ele><time>2026-04-06T15:47:55Z</time></trkpt><trkpt lat="45.81389086500369" lon="11.36335473891703"><ele>322.0</ele><time>2026-04-06T15:47:56Z</time></trkpt><trkpt lat="45.81371101863592" lon="11.363283369150459"><ele>322.0</ele><time>2026-04-06T15:47:57Z</time></trkpt><trkpt lat="45.813534119311456" lon="11.36319428540354"><ele>322.0</ele><time>2026-04-06T15:47:58Z</time></trkpt><trkpt lat="45.81336115710417" lon="11.363093439639998"><ele>322.66666666666663</ele><time>2026-04-06T15:47:59Z</time></trkpt><trkpt lat="45.81318997175309" lon="11.362994825441698"><ele>323.3333333333333</ele><time>2026-04-06T15:48:00Z</time></trkpt><trkpt lat="45.81301746374479" lon="11.362895572207442"><ele>324.0</ele><time>2026-04-06T15:48:01Z</time></trkpt><trkpt lat="45.81284403327635" lon="11.362798950362373"><ele>324.0</ele><time>2026-04-06T15:48:02Z</time></trkpt><trkpt lat="45.81267130956872" lon="11.362700552262359"><ele>324.0</ele><time>2026-04-06T15:48:03Z</time></trkpt><trkpt lat="45.81249847847634" lon="11.362603628903532"><ele>324.0</ele><time>2026-04-06T15:48:04Z</time></trkpt><trkpt lat="45.81232611456162" lon="11.362508997169384"><ele>320.6666666666667</ele><time>2026-04-06T15:48:05Z</time></trkpt><trkpt lat="45.81215503897955" lon="11.362412122929774"><ele>317.33333333333337</ele><time>2026-04-06T15:48:06Z</time></trkpt><trkpt lat="45.81198352117221" lon="11.362313442542474"><ele>314.0</ele><time>2026-04-06T15:48:07Z</time></trkpt><trkpt lat="45.8118102757568" lon="11.362216037969505"><ele>314.6666666666667</ele><time>2026-04-06T15:48:08Z</time></trkpt><trkpt lat="45.81163991983291" lon="11.362120872603446"><ele>315.3333333333333</ele><time>2026-04-06T15:48:09Z</time></trkpt><trkpt lat="45.81146913155887" lon="11.362025707260647"><ele>316.0</ele><time>2026-04-06T15:48:10Z</time></trkpt><trkpt lat="45.811298521476125" lon="11.361931829583177"><ele>316.0</ele><time>2026-04-06T15:48:11Z</time></trkpt><trkpt lat="45.81112839095656" lon="11.361836857195676"><ele>316.0</ele><time>2026-04-06T15:48:12Z</time></trkpt><trkpt lat="45.81095973747347" lon="11.361741133620253"><ele>316.0</ele><time>2026-04-06T15:48:13Z</time></trkpt><trkpt lat="45.81078882174341" lon="11.361646778319912"><ele>315.3333333333333</ele><time>2026-04-06T15:48:14Z</time></trkpt><trkpt lat="45.81062085708584" lon="11.361555121579768"><ele>314.6666666666667</ele><time>2026-04-06T15:48:15Z</time></trkpt><trkpt lat="45.81045259338974" lon="11.361462781398176"><ele>314.0</ele><time>2026-04-06T15:48:16Z</time></trkpt><trkpt lat="45.810285362626246" lon="11.36136977279106"><ele>314.0</ele><time>2026-04-06T15:48:17Z</time></trkpt><trkpt lat="45.81011817170212" lon="11.361274373466543"><ele>314.0</ele><time>2026-04-06T15:48:18Z</time></trkpt><trkpt lat="45.80994998139528" lon="11.361178135371663"><ele>314.0</ele><time>2026-04-06T15:48:19Z</time></trkpt><trkpt lat="45.80978029091676" lon="11.361082186843133"><ele>314.0</ele><time>2026-04-06T15:48:20Z</time></trkpt><trkpt lat="45.809609283128516" lon="11.360988550191307"><ele>314.0</ele><time>2026-04-06T15:48:21Z</time></trkpt><trkpt lat="45.80943983715825" lon="11.36089496342884"><ele>314.0</ele><time>2026-04-06T15:48:22Z</time></trkpt><trkpt lat="45.809271249339176" lon="11.360800197188809"><ele>313.6666666666667</ele><time>2026-04-06T15:48:23Z</time></trkpt><trkpt lat="45.80910377333372" lon="11.360705208289433"><ele>313.3333333333333</ele><time>2026-04-06T15:48:24Z</time></trkpt><trkpt lat="45.80893714021477" lon="11.360609495705654"><ele>313.0</ele><time>2026-04-06T15:48:25Z</time></trkpt><trkpt lat="45.80877190430735" lon="11.36051452875671"><ele>313.0</ele><time>2026-04-06T15:48:26Z</time></trkpt><trkpt lat="45.80860859188154" lon="11.360420454273584"><ele>313.0</ele><time>2026-04-06T15:48:27Z</time></trkpt><trkpt lat="45.80844345003608" lon="11.360327445878944"><ele>313.0</ele><time>2026-04-06T15:48:28Z</time></trkpt><trkpt lat="45.8082807151218" lon="11.360234902763615"><ele>312.0</ele><time>2026-04-06T15:48:29Z</time></trkpt><trkpt lat="45.80812699638795" lon="11.360147588719027"><ele>311.0</ele><time>2026-04-06T15:48:30Z</time></trkpt><trkpt lat="45.80798119961347" lon="11.360064716021654"><ele>310.0</ele><time>2026-04-06T15:48:31Z</time></trkpt><trkpt lat="45.807844264780016" lon="11.359983348260357"><ele>310.0</ele><time>2026-04-06T15:48:32Z</time></trkpt><trkpt lat="45.8077129057713" lon="11.359900536595642"><ele>310.0</ele><time>2026-04-06T15:48:33Z</time></trkpt><trkpt lat="45.80757812569461" lon="11.359825484765391"><ele>310.0</ele><time>2026-04-06T15:48:34Z</time></trkpt><trkpt lat="45.8074401995076" lon="11.359759206048295"><ele>310.0</ele><time>2026-04-06T15:48:35Z</time></trkpt><trkpt lat="45.80730085962917" lon="11.359693604408507"><ele>310.3333333333333</ele><time>2026-04-06T15:48:36Z</time></trkpt><trkpt lat="45.80716073150197" lon="11.359616607446304"><ele>310.6666666666667</ele><time>2026-04-06T15:48:37Z</time></trkpt><trkpt lat="45.80701889204604" lon="11.359533391464234"><ele>311.0</ele><time>2026-04-06T15:48:38Z</time></trkpt><trkpt lat="45.80687430171634" lon="11.359455499466273"><ele>311.0</ele><time>2026-04-06T15:48:39Z</time></trkpt><trkpt lat="45.806728403298976" lon="11.35938490486995"><ele>311.0</ele><time>2026-04-06T15:48:40Z</time></trkpt><trkpt lat="45.80657857687773" lon="11.35932127919618"><ele>311.0</ele><time>2026-04-06T15:48:41Z</time></trkpt><trkpt lat="45.806431949496805" lon="11.359270978473823"><ele>311.0</ele><time>2026-04-06T15:48:42Z</time></trkpt><trkpt lat="45.80628860623192" lon="11.359238037318532"><ele>311.0</ele><time>2026-04-06T15:48:43Z</time></trkpt><trkpt lat="45.80614862073619" lon="11.359224855983172"><ele>311.0</ele><time>2026-04-06T15:48:44Z</time></trkpt><trkpt lat="45.80600629797332" lon="11.359230220793506"><ele>311.0</ele><time>2026-04-06T15:48:45Z</time></trkpt><trkpt lat="45.805858156683826" lon="11.359256485563446"><ele>310.75</ele><time>2026-04-06T15:48:46Z</time></trkpt><trkpt lat="45.80571692682855" lon="11.359292860866663"><ele>310.5</ele><time>2026-04-06T15:48:47Z</time></trkpt><trkpt lat="45.805584530349414" lon="11.359349876566432"><ele>310.25</ele><time>2026-04-06T15:48:48Z</time></trkpt><trkpt lat="45.80546913444398" lon="11.359424434913967"><ele>310.0</ele><time>2026-04-06T15:48:49Z</time></trkpt><trkpt lat="45.80536592289472" lon="11.35951093442232"><ele>310.0</ele><time>2026-04-06T15:48:50Z</time></trkpt><trkpt lat="45.80527281516963" lon="11.359603320780787"><ele>310.0</ele><time>2026-04-06T15:48:51Z</time></trkpt><trkpt lat="45.8051805813142" lon="11.359692731189847"><ele>310.0</ele><time>2026-04-06T15:48:52Z</time></trkpt><trkpt lat="45.805090195896256" lon="11.359794103067657"><ele>310.0</ele><time>2026-04-06T15:48:53Z</time></trkpt><trkpt lat="45.80500127304684" lon="11.359909529284542"><ele>310.0</ele><time>2026-04-06T15:48:54Z</time></trkpt><trkpt lat="45.80492074397542" lon="11.36002139076205"><ele>310.0</ele><time>2026-04-06T15:48:55Z</time></trkpt><trkpt lat="45.80484814608558" lon="11.360135675302478"><ele>310.0</ele><time>2026-04-06T15:48:55.999Z</time></trkpt><trkpt lat="45.80477570418007" lon="11.360272502348307"><ele>310.0</ele><time>2026-04-06T15:48:56.999Z</time></trkpt><trkpt lat="45.80470267309564" lon="11.360422701215098"><ele>309.75</ele><time>2026-04-06T15:48:57.999Z</time></trkpt><trkpt lat="45.80463528877707" lon="11.360568110580171"><ele>309.5</ele><time>2026-04-06T15:48:58.999Z</time></trkpt><trkpt lat="45.804573238535525" lon="11.360715659720071"><ele>309.25</ele><time>2026-04-06T15:48:59.999Z</time></trkpt><trkpt lat="45.80450954255527" lon="11.360872674291857"><ele>309.0</ele><time>2026-04-06T15:49:00.999Z</time></trkpt><trkpt lat="45.80444532651497" lon="11.361032258118529"><ele>309.0</ele><time>2026-04-06T15:49:01.999Z</time></trkpt><trkpt lat="45.80438266574304" lon="11.361192396184682"><ele>309.0</ele><time>2026-04-06T15:49:02.999Z</time></trkpt><trkpt lat="45.80431159583375" lon="11.361374822140757"><ele>309.0</ele><time>2026-04-06T15:49:03.999Z</time></trkpt><trkpt lat="45.8042188455422" lon="11.361565723941752"><ele>309.0</ele><time>2026-04-06T15:49:04.999Z</time></trkpt><trkpt lat="45.80413212934087" lon="11.361780086233038"><ele>308.6666666666667</ele><time>2026-04-06T15:49:05.999Z</time></trkpt><trkpt lat="45.80404488310708" lon="11.361995708438158"><ele>308.33333333333337</ele><time>2026-04-06T15:49:06.999Z</time></trkpt><trkpt lat="45.80397203097109" lon="11.362216808692175"><ele>308.0</ele><time>2026-04-06T15:49:07.999Z</time></trkpt><trkpt lat="45.80388250966049" lon="11.362423121518447"><ele>305.6666666666667</ele><time>2026-04-06T15:49:08.999Z</time></trkpt><trkpt lat="45.803797263738474" lon="11.36263025396331"><ele>303.3333333333333</ele><time>2026-04-06T15:49:09.999Z</time></trkpt><trkpt lat="45.80371435841262" lon="11.36283822508638"><ele>301.0</ele><time>2026-04-06T15:49:10.999Z</time></trkpt><trkpt lat="45.803630189475236" lon="11.363036837585442"><ele>301.0</ele><time>2026-04-06T15:49:11.999Z</time></trkpt><trkpt lat="45.80354924293985" lon="11.363236127978771"><ele>301.0</ele><time>2026-04-06T15:49:12.999Z</time></trkpt><trkpt lat="45.80347211251782" lon="11.363438133288978"><ele>301.0</ele><time>2026-04-06T15:49:13.999Z</time></trkpt><trkpt lat="45.8033990800769" lon="11.363640462894198"><ele>297.66666666666663</ele><time>2026-04-06T15:49:14.999Z</time></trkpt><trkpt lat="45.80333708165094" lon="11.363844726578396"><ele>294.3333333333333</ele><time>2026-04-06T15:49:15.999Z</time></trkpt><trkpt lat="45.80328788169841" lon="11.36405530513609"><ele>291.0</ele><time>2026-04-06T15:49:16.999Z</time></trkpt><trkpt lat="45.80324886696245" lon="11.36427755421808"><ele>291.0</ele><time>2026-04-06T15:49:17.999Z</time></trkpt><trkpt lat="45.80322014874017" lon="11.364505112361805"><ele>291.0</ele><time>2026-04-06T15:49:18.999Z</time></trkpt><trkpt lat="45.80320423643913" lon="11.364750109511924"><ele>291.0</ele><time>2026-04-06T15:49:19.999Z</time></trkpt><trkpt lat="45.803182656197215" lon="11.36501010969184"><ele>289.3333333333333</ele><time>2026-04-06T15:49:20.999Z</time></trkpt><trkpt lat="45.80318781452538" lon="11.365276972819931"><ele>287.66666666666663</ele><time>2026-04-06T15:49:21.999Z</time></trkpt><trkpt lat="45.80319573282938" lon="11.3655531413577"><ele>286.0</ele><time>2026-04-06T15:49:22.999Z</time></trkpt><trkpt lat="45.80320808255563" lon="11.36584011551074"><ele>284.3333333333333</ele><time>2026-04-06T15:49:23.999Z</time></trkpt><trkpt lat="45.80321984212497" lon="11.366131270438677"><ele>282.6666666666667</ele><time>2026-04-06T15:49:24.999Z</time></trkpt><trkpt lat="45.80324787742894" lon="11.366427485692512"><ele>281.0</ele><time>2026-04-06T15:49:25.999Z</time></trkpt><trkpt lat="45.80325921840538" lon="11.366723961826656"><ele>280.6666666666667</ele><time>2026-04-06T15:49:26.999Z</time></trkpt><trkpt lat="45.80327017006035" lon="11.367018144406694"><ele>280.3333333333333</ele><time>2026-04-06T15:49:27.999Z</time></trkpt><trkpt lat="45.803283181950725" lon="11.36730709187769"><ele>280.0</ele><time>2026-04-06T15:49:28.999Z</time></trkpt><trkpt lat="45.80329097121561" lon="11.367594645556924"><ele>279.0</ele><time>2026-04-06T15:49:29.999Z</time></trkpt><trkpt lat="45.803299285651406" lon="11.367884320817867"><ele>278.0</ele><time>2026-04-06T15:49:30.999Z</time></trkpt><trkpt lat="45.80330961992413" lon="11.368169524947374"><ele>277.0</ele><time>2026-04-06T15:49:31.999Z</time></trkpt><trkpt lat="45.80332529022548" lon="11.368456584330957"><ele>274.3333333333333</ele><time>2026-04-06T15:49:32.999Z</time></trkpt><trkpt lat="45.80333761867488" lon="11.368746336157281"><ele>271.6666666666667</ele><time>2026-04-06T15:49:33.999Z</time></trkpt><trkpt lat="45.80334727980225" lon="11.369034073453674"><ele>269.0</ele><time>2026-04-06T15:49:34.999Z</time></trkpt><trkpt lat="45.80334375295722" lon="11.369314019358633"><ele>267.33333333333337</ele><time>2026-04-06T15:49:35.999Z</time></trkpt><trkpt lat="45.803354546692645" lon="11.369588629768288"><ele>265.6666666666667</ele><time>2026-04-06T15:49:36.999Z</time></trkpt><trkpt lat="45.80336536482844" lon="11.36986386073315"><ele>264.0</ele><time>2026-04-06T15:49:37.999Z</time></trkpt><trkpt lat="45.80337622517939" lon="11.370140165876515"><ele>263.3333333333333</ele><time>2026-04-06T15:49:38.999Z</time></trkpt><trkpt lat="45.80338750705104" lon="11.370427195214502"><ele>262.66666666666663</ele><time>2026-04-06T15:49:39.999Z</time></trkpt><trkpt lat="45.803398740392446" lon="11.370722002629586"><ele>262.0</ele><time>2026-04-06T15:49:40.999Z</time></trkpt><trkpt lat="45.80340925099872" lon="11.37101766314053"><ele>261.3333333333333</ele><time>2026-04-06T15:49:41.999Z</time></trkpt><trkpt lat="45.803416713454084" lon="11.371307526477828"><ele>260.6666666666667</ele><time>2026-04-06T15:49:42.999Z</time></trkpt><trkpt lat="45.803418752886195" lon="11.37159819973887"><ele>260.0</ele><time>2026-04-06T15:49:43.999Z</time></trkpt><trkpt lat="45.80342777813301" lon="11.371885239545538"><ele>260.0</ele><time>2026-04-06T15:49:44.999Z</time></trkpt><trkpt lat="45.80341267621009" lon="11.372172816625785"><ele>260.0</ele><time>2026-04-06T15:49:45.999Z</time></trkpt><trkpt lat="45.80338882274032" lon="11.372453695965483"><ele>260.0</ele><time>2026-04-06T15:49:46.999Z</time></trkpt><trkpt lat="45.803354751227445" lon="11.372730035896081"><ele>260.0</ele><time>2026-04-06T15:49:47.999Z</time></trkpt><trkpt lat="45.80331291244988" lon="11.373000967221191"><ele>260.0</ele><time>2026-04-06T15:49:48.999Z</time></trkpt><trkpt lat="45.80326483626007" lon="11.37326941647704"><ele>260.0</ele><time>2026-04-06T15:49:49.999Z</time></trkpt><trkpt lat="45.80320985469953" lon="11.373531512091079"><ele>259.6666666666667</ele><time>2026-04-06T15:49:50.999Z</time></trkpt><trkpt lat="45.80314441078464" lon="11.373789277916861"><ele>259.3333333333333</ele><time>2026-04-06T15:49:51.999Z</time></trkpt><trkpt lat="45.80307347396469" lon="11.37404198854785"><ele>259.0</ele><time>2026-04-06T15:49:52.999Z</time></trkpt><trkpt lat="45.80299469269795" lon="11.374291047245771"><ele>259.66666666666663</ele><time>2026-04-06T15:49:53.999Z</time></trkpt><trkpt lat="45.80290714666824" lon="11.374531606068782"><ele>260.3333333333333</ele><time>2026-04-06T15:49:54.999Z</time></trkpt><trkpt lat="45.802814655215414" lon="11.374767565966323"><ele>261.0</ele><time>2026-04-06T15:49:55.999Z</time></trkpt><trkpt lat="45.80271726770609" lon="11.375001088004968"><ele>259.6666666666667</ele><time>2026-04-06T15:49:57Z</time></trkpt><trkpt lat="45.80261344803969" lon="11.375223405016461"><ele>258.33333333333337</ele><time>2026-04-06T15:49:58Z</time></trkpt><trkpt lat="45.80250661352341" lon="11.375438365057507"><ele>257.0</ele><time>2026-04-06T15:49:59Z</time></trkpt><trkpt lat="45.80240309839451" lon="11.375643432558327"><ele>256.6666666666667</ele><time>2026-04-06T15:50:00Z</time></trkpt><trkpt lat="45.80230171721755" lon="11.375846265985025"><ele>256.3333333333333</ele><time>2026-04-06T15:50:01Z</time></trkpt><trkpt lat="45.80220180887894" lon="11.376045569243535"><ele>256.0</ele><time>2026-04-06T15:50:02Z</time></trkpt><trkpt lat="45.80210443299381" lon="11.376241826001051"><ele>256.0</ele><time>2026-04-06T15:50:03Z</time></trkpt><trkpt lat="45.80200772060905" lon="11.376436540419038"><ele>256.0</ele><time>2026-04-06T15:50:04Z</time></trkpt><trkpt lat="45.80191108688955" lon="11.37662922814682"><ele>256.0</ele><time>2026-04-06T15:50:05Z</time></trkpt><trkpt lat="45.801814363287434" lon="11.376820641716158"><ele>256.3333333333333</ele><time>2026-04-06T15:50:06Z</time></trkpt><trkpt lat="45.8017167035065" lon="11.377009065435201"><ele>256.6666666666667</ele><time>2026-04-06T15:50:07Z</time></trkpt><trkpt lat="45.801623754188256" lon="11.377195084125798"><ele>257.0</ele><time>2026-04-06T15:50:08Z</time></trkpt><trkpt lat="45.801532765597955" lon="11.3773806420506"><ele>257.33333333333337</ele><time>2026-04-06T15:50:09Z</time></trkpt><trkpt lat="45.80144180857978" lon="11.377567765457147"><ele>257.6666666666667</ele><time>2026-04-06T15:50:10Z</time></trkpt><trkpt lat="45.8013533697545" lon="11.377743248071235"><ele>258.0</ele><time>2026-04-06T15:50:11Z</time></trkpt><trkpt lat="45.801270309653795" lon="11.377912904082027"><ele>258.0</ele><time>2026-04-06T15:50:12Z</time></trkpt><trkpt lat="45.80118802217215" lon="11.378080085331296"><ele>258.0</ele><time>2026-04-06T15:50:13Z</time></trkpt><trkpt lat="45.80110342618983" lon="11.378247277471374"><ele>258.0</ele><time>2026-04-06T15:50:14Z</time></trkpt><trkpt lat="45.80101917914757" lon="11.378419480988072"><ele>258.0</ele><time>2026-04-06T15:50:15Z</time></trkpt><trkpt lat="45.8009332325087" lon="11.378594892849033"><ele>258.0</ele><time>2026-04-06T15:50:16Z</time></trkpt><trkpt lat="45.800849406215626" lon="11.378764953757326"><ele>258.0</ele><time>2026-04-06T15:50:17Z</time></trkpt><trkpt lat="45.80076219137461" lon="11.378938430070429"><ele>258.0</ele><time>2026-04-06T15:50:18Z</time></trkpt><trkpt lat="45.80067275070388" lon="11.379114925124023"><ele>258.0</ele><time>2026-04-06T15:50:19Z</time></trkpt><trkpt lat="45.80057815226955" lon="11.379292919149329"><ele>258.3333333333333</ele><time>2026-04-06T15:50:20Z</time></trkpt><trkpt lat="45.80047550050464" lon="11.379480127094473"><ele>258.66666666666663</ele><time>2026-04-06T15:50:21Z</time></trkpt><trkpt lat="45.80036690925699" lon="11.379683370763287"><ele>259.0</ele><time>2026-04-06T15:50:22Z</time></trkpt><trkpt lat="45.800254284632075" lon="11.379893383111211"><ele>258.66666666666663</ele><time>2026-04-06T15:50:23Z</time></trkpt><trkpt lat="45.80014177536044" lon="11.380117927543568"><ele>258.3333333333333</ele><time>2026-04-06T15:50:24Z</time></trkpt><trkpt lat="45.80002519559801" lon="11.380356962452248"><ele>258.0</ele><time>2026-04-06T15:50:25Z</time></trkpt><trkpt lat="45.79990897497523" lon="11.38060345884826"><ele>258.0</ele><time>2026-04-06T15:50:26Z</time></trkpt><trkpt lat="45.79979314724642" lon="11.380849393582144"><ele>258.0</ele><time>2026-04-06T15:50:27Z</time></trkpt><trkpt lat="45.79967888817831" lon="11.381092401070394"><ele>258.0</ele><time>2026-04-06T15:50:28Z</time></trkpt><trkpt lat="45.799566302613734" lon="11.381336471385795"><ele>259.0</ele><time>2026-04-06T15:50:29Z</time></trkpt><trkpt lat="45.79945378788662" lon="11.381577931973904"><ele>260.0</ele><time>2026-04-06T15:50:30Z</time></trkpt><trkpt lat="45.79933877772428" lon="11.381819021028118"><ele>261.0</ele><time>2026-04-06T15:50:31Z</time></trkpt><trkpt lat="45.799221687373596" lon="11.38205693467182"><ele>259.6666666666667</ele><time>2026-04-06T15:50:32Z</time></trkpt><trkpt lat="45.799102915665856" lon="11.382299136403288"><ele>258.33333333333337</ele><time>2026-04-06T15:50:33Z</time></trkpt><trkpt lat="45.79898448717205" lon="11.382539625006125"><ele>257.0</ele><time>2026-04-06T15:50:34Z</time></trkpt><trkpt lat="45.798868929044794" lon="11.382776236251857"><ele>257.0</ele><time>2026-04-06T15:50:35Z</time></trkpt><trkpt lat="45.79875767207743" lon="11.383004447362712"><ele>257.0</ele><time>2026-04-06T15:50:36Z</time></trkpt><trkpt lat="45.798651252505934" lon="11.38321887402964"><ele>257.0</ele><time>2026-04-06T15:50:37Z</time></trkpt><trkpt lat="45.798544296137564" lon="11.383428513757556"><ele>256.6666666666667</ele><time>2026-04-06T15:50:38Z</time></trkpt><trkpt lat="45.79844158924555" lon="11.383634878738016"><ele>256.3333333333333</ele><time>2026-04-06T15:50:39Z</time></trkpt><trkpt lat="45.798340865008925" lon="11.383846785447732"><ele>256.0</ele><time>2026-04-06T15:50:40Z</time></trkpt><trkpt lat="45.79824243142021" lon="11.384076626734174"><ele>256.0</ele><time>2026-04-06T15:50:41Z</time></trkpt><trkpt lat="45.79815213643359" lon="11.38432648700024"><ele>256.0</ele><time>2026-04-06T15:50:42Z</time></trkpt><trkpt lat="45.7980761840003" lon="11.384590944735992"><ele>256.0</ele><time>2026-04-06T15:50:42.999Z</time></trkpt><trkpt lat="45.79801139263386" lon="11.384873267941675"><ele>256.3333333333333</ele><time>2026-04-06T15:50:43.999Z</time></trkpt><trkpt lat="45.797943566098894" lon="11.385165055397245"><ele>256.6666666666667</ele><time>2026-04-06T15:50:44.999Z</time></trkpt><trkpt lat="45.79787101427898" lon="11.385458054901735"><ele>257.0</ele><time>2026-04-06T15:50:45.999Z</time></trkpt><trkpt lat="45.797795902906465" lon="11.385757942350619"><ele>256.0</ele><time>2026-04-06T15:50:46.999Z</time></trkpt><trkpt lat="45.79772341989982" lon="11.38606740781939"><ele>255.0</ele><time>2026-04-06T15:50:47.999Z</time></trkpt><trkpt lat="45.797651561077984" lon="11.386380471222472"><ele>255.0</ele><time>2026-04-06T15:50:48.999Z</time></trkpt><trkpt lat="45.797571994569246" lon="11.386694069528692"><ele>255.0</ele><time>2026-04-06T15:50:49.999Z</time></trkpt><trkpt lat="45.79749046774725" lon="11.38700642819577"><ele>255.5</ele><time>2026-04-06T15:50:50.999Z</time></trkpt><trkpt lat="45.79741279185695" lon="11.387315591517114"><ele>256.0</ele><time>2026-04-06T15:50:51.999Z</time></trkpt><trkpt lat="45.79733716010146" lon="11.387622934490597"><ele>256.0</ele><time>2026-04-06T15:50:52.999Z</time></trkpt><trkpt lat="45.797262240461144" lon="11.387929947299734"><ele>256.0</ele><time>2026-04-06T15:50:53.999Z</time></trkpt><trkpt lat="45.79718683976717" lon="11.388235527163026"><ele>257.3333333333333</ele><time>2026-04-06T15:50:54.999Z</time></trkpt><trkpt lat="45.7971136616752" lon="11.388538684158144"><ele>258.6666666666667</ele><time>2026-04-06T15:50:55.999Z</time></trkpt><trkpt lat="45.79704131563071" lon="11.388842887451787"><ele>260.0</ele><time>2026-04-06T15:50:56.999Z</time></trkpt><trkpt lat="45.79696848404623" lon="11.389140642603252"><ele>260.0</ele><time>2026-04-06T15:50:57.999Z</time></trkpt><trkpt lat="45.79689910003065" lon="11.389433056796959"><ele>260.0</ele><time>2026-04-06T15:50:58.999Z</time></trkpt><trkpt lat="45.79683215836828" lon="11.3897232908106"><ele>260.0</ele><time>2026-04-06T15:50:59.999Z</time></trkpt><trkpt lat="45.79676283692649" lon="11.39000556670856"><ele>260.0</ele><time>2026-04-06T15:51:00.999Z</time></trkpt><trkpt lat="45.796692623907965" lon="11.390271892198397"><ele>260.0</ele><time>2026-04-06T15:51:01.999Z</time></trkpt><trkpt lat="45.79660523819524" lon="11.390520763390498"><ele>260.0</ele><time>2026-04-06T15:51:02.999Z</time></trkpt><trkpt lat="45.79649316085531" lon="11.390741860705266"><ele>262.6666666666667</ele><time>2026-04-06T15:51:03.999Z</time></trkpt><trkpt lat="45.796356105840275" lon="11.390932666785366"><ele>265.3333333333333</ele><time>2026-04-06T15:51:04.999Z</time></trkpt><trkpt lat="45.79620060104948" lon="11.391090947025717"><ele>268.0</ele><time>2026-04-06T15:51:05.999Z</time></trkpt><trkpt lat="45.79603428347023" lon="11.39121692648618"><ele>265.66666666666663</ele><time>2026-04-06T15:51:06.999Z</time></trkpt><trkpt lat="45.79586212375491" lon="11.391309743872622"><ele>263.3333333333333</ele><time>2026-04-06T15:51:07.999Z</time></trkpt><trkpt lat="45.795684023913765" lon="11.391379801703122"><ele>261.0</ele><time>2026-04-06T15:51:08.999Z</time></trkpt><trkpt lat="45.7955101896259" lon="11.391436919649713"><ele>263.3333333333333</ele><time>2026-04-06T15:51:09.999Z</time></trkpt><trkpt lat="45.7953428543124" lon="11.391495033347015"><ele>265.66666666666663</ele><time>2026-04-06T15:51:10.999Z</time></trkpt><trkpt lat="45.79518690831919" lon="11.391556471772489"><ele>268.0</ele><time>2026-04-06T15:51:11.999Z</time></trkpt><trkpt lat="45.795036904886246" lon="11.391616865215951"><ele>268.0</ele><time>2026-04-06T15:51:12.999Z</time></trkpt><trkpt lat="45.79489331451027" lon="11.391673617623594"><ele>268.0</ele><time>2026-04-06T15:51:13.999Z</time></trkpt><trkpt lat="45.79475771352911" lon="11.391726844575041"><ele>268.0</ele><time>2026-04-06T15:51:14.999Z</time></trkpt><trkpt lat="45.79463092586451" lon="11.391783467247508"><ele>268.0</ele><time>2026-04-06T15:51:15.999Z</time></trkpt><trkpt lat="45.79450856588194" lon="11.391852086101542"><ele>268.0</ele><time>2026-04-06T15:51:16.999Z</time></trkpt><trkpt lat="45.79438654407448" lon="11.39192764221837"><ele>268.0</ele><time>2026-04-06T15:51:17.999Z</time></trkpt><trkpt lat="45.79426295295432" lon="11.392011694174961"><ele>268.0</ele><time>2026-04-06T15:51:18.999Z</time></trkpt><trkpt lat="45.79413681455594" lon="11.392117305333626"><ele>268.0</ele><time>2026-04-06T15:51:19.999Z</time></trkpt><trkpt lat="45.79401205896917" lon="11.392238722960569"><ele>271.3333333333333</ele><time>2026-04-06T15:51:20.999Z</time></trkpt><trkpt lat="45.79388131069541" lon="11.392372200240532"><ele>274.6666666666667</ele><time>2026-04-06T15:51:21.999Z</time></trkpt><trkpt lat="45.79375395090835" lon="11.392514711957752"><ele>278.0</ele><time>2026-04-06T15:51:22.999Z</time></trkpt><trkpt lat="45.793634763593644" lon="11.392662941310054"><ele>278.0</ele><time>2026-04-06T15:51:23.999Z</time></trkpt><trkpt lat="45.79352248204107" lon="11.392821297151992"><ele>278.0</ele><time>2026-04-06T15:51:24.999Z</time></trkpt><trkpt lat="45.793418036119846" lon="11.392994127131624"><ele>278.0</ele><time>2026-04-06T15:51:25.999Z</time></trkpt><trkpt lat="45.793320200924434" lon="11.393176322017705"><ele>279.33333333333337</ele><time>2026-04-06T15:51:26.999Z</time></trkpt><trkpt lat="45.793223303701645" lon="11.393369223955979"><ele>280.6666666666667</ele><time>2026-04-06T15:51:27.999Z</time></trkpt><trkpt lat="45.793130681353865" lon="11.393565842811494"><ele>282.0</ele><time>2026-04-06T15:51:28.999Z</time></trkpt><trkpt lat="45.79304659334536" lon="11.393768801416957"><ele>284.6666666666667</ele><time>2026-04-06T15:51:29.999Z</time></trkpt><trkpt lat="45.79297598261935" lon="11.393972612018523"><ele>287.33333333333337</ele><time>2026-04-06T15:51:30.999Z</time></trkpt><trkpt lat="45.79291574003821" lon="11.394175728051952"><ele>290.0</ele><time>2026-04-06T15:51:31.999Z</time></trkpt><trkpt lat="45.79286300818664" lon="11.394383397106143"><ele>290.0</ele><time>2026-04-06T15:51:32.999Z</time></trkpt><trkpt lat="45.79282025124178" lon="11.39459594510685"><ele>290.0</ele><time>2026-04-06T15:51:33.999Z</time></trkpt><trkpt lat="45.792782569357115" lon="11.394810180059755"><ele>290.0</ele><time>2026-04-06T15:51:34.999Z</time></trkpt><trkpt lat="45.79275610572212" lon="11.395022452304985"><ele>291.5</ele><time>2026-04-06T15:51:35.999Z</time></trkpt><trkpt lat="45.792742309617346" lon="11.395235599769158"><ele>293.0</ele><time>2026-04-06T15:51:36.999Z</time></trkpt><trkpt lat="45.79273254362679" lon="11.395446499360602"><ele>294.5</ele><time>2026-04-06T15:51:37.999Z</time></trkpt><trkpt lat="45.792725336305836" lon="11.395660216114896"><ele>296.0</ele><time>2026-04-06T15:51:38.999Z</time></trkpt><trkpt lat="45.79271783181342" lon="11.39587821821091"><ele>296.5</ele><time>2026-04-06T15:51:39.999Z</time></trkpt><trkpt lat="45.79271074931115" lon="11.396087177477991"><ele>297.0</ele><time>2026-04-06T15:51:40.999Z</time></trkpt><trkpt lat="45.79270474265697" lon="11.396291178329193"><ele>297.5</ele><time>2026-04-06T15:51:41.999Z</time></trkpt><trkpt lat="45.792700011642445" lon="11.396498687518546"><ele>298.0</ele><time>2026-04-06T15:51:42.999Z</time></trkpt><trkpt lat="45.79269571963421" lon="11.3967056620268"><ele>298.0</ele><time>2026-04-06T15:51:43.999Z</time></trkpt><trkpt lat="45.79269111231356" lon="11.396915951044086"><ele>298.0</ele><time>2026-04-06T15:51:44.999Z</time></trkpt><trkpt lat="45.79268650726025" lon="11.397124298234585"><ele>298.0</ele><time>2026-04-06T15:51:45.999Z</time></trkpt><trkpt lat="45.792680605171775" lon="11.39732970601612"><ele>298.0</ele><time>2026-04-06T15:51:46.999Z</time></trkpt><trkpt lat="45.792672273306664" lon="11.397536922107562"><ele>296.0</ele><time>2026-04-06T15:51:47.999Z</time></trkpt><trkpt lat="45.79266297927954" lon="11.397747644501134"><ele>294.0</ele><time>2026-04-06T15:51:48.999Z</time></trkpt><trkpt lat="45.792650970605585" lon="11.397967238106355"><ele>292.0</ele><time>2026-04-06T15:51:49.999Z</time></trkpt><trkpt lat="45.79263394528996" lon="11.398199776738261"><ele>292.0</ele><time>2026-04-06T15:51:50.999Z</time></trkpt><trkpt lat="45.79259007440142" lon="11.398445437513535"><ele>292.0</ele><time>2026-04-06T15:51:51.999Z</time></trkpt><trkpt lat="45.792552622724685" lon="11.39870535503717"><ele>292.0</ele><time>2026-04-06T15:51:52.999Z</time></trkpt><trkpt lat="45.79250416149227" lon="11.39897457811473"><ele>292.3333333333333</ele><time>2026-04-06T15:51:53.999Z</time></trkpt><trkpt lat="45.79245030317116" lon="11.399249689343527"><ele>292.6666666666667</ele><time>2026-04-06T15:51:54.999Z</time></trkpt><trkpt lat="45.79240580383569" lon="11.399532861438301"><ele>293.0</ele><time>2026-04-06T15:51:55.999Z</time></trkpt><trkpt lat="45.79234697323739" lon="11.39980588706874"><ele>293.0</ele><time>2026-04-06T15:51:56.999Z</time></trkpt><trkpt lat="45.79228935971223" lon="11.40008809642279"><ele>293.0</ele><time>2026-04-06T15:51:57.999Z</time></trkpt><trkpt lat="45.792233103361454" lon="11.40037252979792"><ele>293.0</ele><time>2026-04-06T15:51:58.999Z</time></trkpt><trkpt lat="45.79217488560469" lon="11.400666375519581"><ele>294.33333333333337</ele><time>2026-04-06T15:51:59.999Z</time></trkpt><trkpt lat="45.79211711544081" lon="11.40096615294275"><ele>295.6666666666667</ele><time>2026-04-06T15:52:00.999Z</time></trkpt><trkpt lat="45.792059859532095" lon="11.40127202341539"><ele>297.0</ele><time>2026-04-06T15:52:01.999Z</time></trkpt><trkpt lat="45.79198667962934" lon="11.401570560797005"><ele>297.6666666666667</ele><time>2026-04-06T15:52:02.999Z</time></trkpt><trkpt lat="45.791924938781214" lon="11.401881779616904"><ele>298.33333333333337</ele><time>2026-04-06T15:52:03.999Z</time></trkpt><trkpt lat="45.79187424650423" lon="11.402188083891058"><ele>299.0</ele><time>2026-04-06T15:52:04.999Z</time></trkpt><trkpt lat="45.79180672318268" lon="11.402485613114994"><ele>299.0</ele><time>2026-04-06T15:52:05.999Z</time></trkpt><trkpt lat="45.791744420248534" lon="11.402779135124918"><ele>299.0</ele><time>2026-04-06T15:52:06.999Z</time></trkpt><trkpt lat="45.79168819596261" lon="11.403072445862588"><ele>299.0</ele><time>2026-04-06T15:52:07.999Z</time></trkpt><trkpt lat="45.79163166674467" lon="11.403361690061216"><ele>300.0</ele><time>2026-04-06T15:52:08.999Z</time></trkpt><trkpt lat="45.791577627454465" lon="11.403646188594807"><ele>301.0</ele><time>2026-04-06T15:52:09.999Z</time></trkpt><trkpt lat="45.79152455972849" lon="11.403922818810347"><ele>302.0</ele><time>2026-04-06T15:52:10.999Z</time></trkpt><trkpt lat="45.791471357044564" lon="11.404191444554233"><ele>303.6666666666667</ele><time>2026-04-06T15:52:11.999Z</time></trkpt><trkpt lat="45.79141812108708" lon="11.404450366509257"><ele>305.3333333333333</ele><time>2026-04-06T15:52:12.999Z</time></trkpt><trkpt lat="45.791363194865745" lon="11.404703107219227"><ele>307.0</ele><time>2026-04-06T15:52:13.999Z</time></trkpt><trkpt lat="45.791307086552656" lon="11.404948841029384"><ele>308.3333333333333</ele><time>2026-04-06T15:52:14.999Z</time></trkpt><trkpt lat="45.79125010789017" lon="11.405182476283496"><ele>309.6666666666667</ele><time>2026-04-06T15:52:15.999Z</time></trkpt><trkpt lat="45.79119307624554" lon="11.405400198885866"><ele>311.0</ele><time>2026-04-06T15:52:16.999Z</time></trkpt><trkpt lat="45.79113673870733" lon="11.40559642345812"><ele>311.0</ele><time>2026-04-06T15:52:17.999Z</time></trkpt><trkpt lat="45.79108420608085" lon="11.405784877694513"><ele>311.0</ele><time>2026-04-06T15:52:18.999Z</time></trkpt><trkpt lat="45.791029960920845" lon="11.405974350068622"><ele>311.0</ele><time>2026-04-06T15:52:19.999Z</time></trkpt><trkpt lat="45.790977768123334" lon="11.406157881907072"><ele>311.0</ele><time>2026-04-06T15:52:20.999Z</time></trkpt><trkpt lat="45.79092846119578" lon="11.406329682059551"><ele>311.25</ele><time>2026-04-06T15:52:21.999Z</time></trkpt><trkpt lat="45.79088341353037" lon="11.40649330466431"><ele>311.5</ele><time>2026-04-06T15:52:22.999Z</time></trkpt><trkpt lat="45.790839967355154" lon="11.406650174213748"><ele>311.75</ele><time>2026-04-06T15:52:23.999Z</time></trkpt><trkpt lat="45.79079798245077" lon="11.406796760795489"><ele>312.0</ele><time>2026-04-06T15:52:24.999Z</time></trkpt><trkpt lat="45.79075729999672" lon="11.40693644829279"><ele>312.0</ele><time>2026-04-06T15:52:25.999Z</time></trkpt><trkpt lat="45.790717599663665" lon="11.40708015200878"><ele>312.0</ele><time>2026-04-06T15:52:26.999Z</time></trkpt><trkpt lat="45.790673525380036" lon="11.407246398574861"><ele>312.0</ele><time>2026-04-06T15:52:27.999Z</time></trkpt><trkpt lat="45.790630416793256" lon="11.407408059200312"><ele>312.0</ele><time>2026-04-06T15:52:28.999Z</time></trkpt><trkpt lat="45.79058471621823" lon="11.407573385684111"><ele>311.0</ele><time>2026-04-06T15:52:29.999Z</time></trkpt><trkpt lat="45.7905375713616" lon="11.407744469486262"><ele>310.0</ele><time>2026-04-06T15:52:30.999Z</time></trkpt><trkpt lat="45.79048750928062" lon="11.407924189912627"><ele>309.0</ele><time>2026-04-06T15:52:31.999Z</time></trkpt><trkpt lat="45.79043913763074" lon="11.408096099948246"><ele>308.0</ele><time>2026-04-06T15:52:32.999Z</time></trkpt><trkpt lat="45.79039188370205" lon="11.408261803791339"><ele>307.5</ele><time>2026-04-06T15:52:33.999Z</time></trkpt><trkpt lat="45.79034468048695" lon="11.408426352771093"><ele>307.0</ele><time>2026-04-06T15:52:34.999Z</time></trkpt><trkpt lat="45.790296492355324" lon="11.408598931456055"><ele>306.5</ele><time>2026-04-06T15:52:35.999Z</time></trkpt><trkpt lat="45.79024687420475" lon="11.40877591847224"><ele>306.0</ele><time>2026-04-06T15:52:36.999Z</time></trkpt><trkpt lat="45.79019311053414" lon="11.408958324103757"><ele>305.0</ele><time>2026-04-06T15:52:37.999Z</time></trkpt><trkpt lat="45.79013472880302" lon="11.409136053045835"><ele>304.0</ele><time>2026-04-06T15:52:38.999Z</time></trkpt><trkpt lat="45.79007604571691" lon="11.40930713771861"><ele>303.0</ele><time>2026-04-06T15:52:39.999Z</time></trkpt><trkpt lat="45.79001153531309" lon="11.409469232275216"><ele>302.0</ele><time>2026-04-06T15:52:40.999Z</time></trkpt><trkpt lat="45.78994410093743" lon="11.409616560161046"><ele>301.8</ele><time>2026-04-06T15:52:41.999Z</time></trkpt><trkpt lat="45.789880178336375" lon="11.409750830092555"><ele>301.6</ele><time>2026-04-06T15:52:42.999Z</time></trkpt><trkpt lat="45.78982168097369" lon="11.40986721117826"><ele>301.40000000000003</ele><time>2026-04-06T15:52:43.999Z</time></trkpt><trkpt lat="45.78976910397823" lon="11.409961074406086"><ele>301.2</ele><time>2026-04-06T15:52:44.999Z</time></trkpt><trkpt lat="45.78971902048868" lon="11.410051927982341"><ele>301.0</ele><time>2026-04-06T15:52:45.999Z</time></trkpt><trkpt lat="45.78966393209554" lon="11.410145620211367"><ele>301.0</ele><time>2026-04-06T15:52:46.999Z</time></trkpt><trkpt lat="45.7896044000728" lon="11.410222503601476"><ele>301.0</ele><time>2026-04-06T15:52:47.999Z</time></trkpt><trkpt lat="45.7895095992715" lon="11.410377727338751"><ele>301.0</ele><time>2026-04-06T15:52:49.999Z</time></trkpt><trkpt lat="45.78945767223389" lon="11.410513089750978"><ele>301.0</ele><time>2026-04-06T15:52:50.999Z</time></trkpt><trkpt lat="45.78938176332351" lon="11.410666933902926"><ele>302.0</ele><time>2026-04-06T15:52:51.999Z</time></trkpt><trkpt lat="45.789291006878216" lon="11.410824106403304"><ele>303.0</ele><time>2026-04-06T15:52:52.999Z</time></trkpt><trkpt lat="45.789193299543705" lon="11.410999271096273"><ele>304.0</ele><time>2026-04-06T15:52:53.999Z</time></trkpt><trkpt lat="45.789093402099645" lon="11.411181067553713"><ele>303.3333333333333</ele><time>2026-04-06T15:52:54.999Z</time></trkpt><trkpt lat="45.78898720456642" lon="11.41136875650741"><ele>302.6666666666667</ele><time>2026-04-06T15:52:55.999Z</time></trkpt><trkpt lat="45.788877759291715" lon="11.41155929783445"><ele>302.0</ele><time>2026-04-06T15:52:56.999Z</time></trkpt><trkpt lat="45.78876460941124" lon="11.411753685417189"><ele>302.0</ele><time>2026-04-06T15:52:57.999Z</time></trkpt><trkpt lat="45.788653766977255" lon="11.411952599719271"><ele>302.0</ele><time>2026-04-06T15:52:58.999Z</time></trkpt><trkpt lat="45.78854111984364" lon="11.412155932379095"><ele>302.0</ele><time>2026-04-06T15:52:59.999Z</time></trkpt><trkpt lat="45.78842554166341" lon="11.41235722041689"><ele>301.0</ele><time>2026-04-06T15:53:00.999Z</time></trkpt><trkpt lat="45.788307629738746" lon="11.412558435669963"><ele>300.0</ele><time>2026-04-06T15:53:01.999Z</time></trkpt><trkpt lat="45.7881921808776" lon="11.412761692811593"><ele>299.0</ele><time>2026-04-06T15:53:02.999Z</time></trkpt><trkpt lat="45.788076553768754" lon="11.41296389553373"><ele>300.0</ele><time>2026-04-06T15:53:03.999Z</time></trkpt><trkpt lat="45.787969591796696" lon="11.413159745410697"><ele>301.0</ele><time>2026-04-06T15:53:04.999Z</time></trkpt><trkpt lat="45.787871891813865" lon="11.413350887168892"><ele>302.0</ele><time>2026-04-06T15:53:05.999Z</time></trkpt><trkpt lat="45.78778953472024" lon="11.413535748693477"><ele>302.0</ele><time>2026-04-06T15:53:06.999Z</time></trkpt><trkpt lat="45.78772132909667" lon="11.413706816964602"><ele>302.0</ele><time>2026-04-06T15:53:07.999Z</time></trkpt><trkpt lat="45.787664453920016" lon="11.413856668817427"><ele>302.0</ele><time>2026-04-06T15:53:08.999Z</time></trkpt><trkpt lat="45.787609861603876" lon="11.414007456992994"><ele>302.0</ele><time>2026-04-06T15:53:09.999Z</time></trkpt><trkpt lat="45.787560968393706" lon="11.414145486706124"><ele>302.6</ele><time>2026-04-06T15:53:10.999Z</time></trkpt><trkpt lat="45.78751166440945" lon="11.41428300527174"><ele>303.2</ele><time>2026-04-06T15:53:11.999Z</time></trkpt><trkpt lat="45.787458816531824" lon="11.41444393112218"><ele>303.8</ele><time>2026-04-06T15:53:12.999Z</time></trkpt><trkpt lat="45.78739923134987" lon="11.414590135792297"><ele>304.4</ele><time>2026-04-06T15:53:13.998Z</time></trkpt><trkpt lat="45.78735222636295" lon="11.41470793392918"><ele>305.0</ele><time>2026-04-06T15:53:14.998Z</time></trkpt><trkpt lat="45.787311411267744" lon="11.414819662356832"><ele>305.2</ele><time>2026-04-06T15:53:15.998Z</time></trkpt><trkpt lat="45.787277706481845" lon="11.414914108465354"><ele>305.4</ele><time>2026-04-06T15:53:16.998Z</time></trkpt><trkpt lat="45.78724651772289" lon="11.415013774257321"><ele>305.6</ele><time>2026-04-06T15:53:17.998Z</time></trkpt><trkpt lat="45.787186600139854" lon="11.415130960168732"><ele>305.8</ele><time>2026-04-06T15:53:18.998Z</time></trkpt><trkpt lat="45.78713367675976" lon="11.415278727928285"><ele>306.0</ele><time>2026-04-06T15:53:19.998Z</time></trkpt><trkpt lat="45.78707678008487" lon="11.415437948926051"><ele>306.5</ele><time>2026-04-06T15:53:20.998Z</time></trkpt><trkpt lat="45.78702918121504" lon="11.41562015966444"><ele>307.0</ele><time>2026-04-06T15:53:21.998Z</time></trkpt><trkpt lat="45.78695056091247" lon="11.415784251210546"><ele>307.5</ele><time>2026-04-06T15:53:22.998Z</time></trkpt><trkpt lat="45.78688514250275" lon="11.415963402792"><ele>308.0</ele><time>2026-04-06T15:53:23.998Z</time></trkpt><trkpt lat="45.78681923806027" lon="11.416145305674856"><ele>308.25</ele><time>2026-04-06T15:53:24.998Z</time></trkpt><trkpt lat="45.786752981462335" lon="11.416329522165398"><ele>308.5</ele><time>2026-04-06T15:53:25.998Z</time></trkpt><trkpt lat="45.786686331126766" lon="11.416515678455312"><ele>308.75</ele><time>2026-04-06T15:53:26.998Z</time></trkpt><trkpt lat="45.786633859099666" lon="11.416714603326307"><ele>309.0</ele><time>2026-04-06T15:53:27.998Z</time></trkpt><trkpt lat="45.78656889088329" lon="11.416893305264335"><ele>309.0</ele><time>2026-04-06T15:53:28.998Z</time></trkpt><trkpt lat="45.78649097955227" lon="11.417056528049013"><ele>309.0</ele><time>2026-04-06T15:53:29.998Z</time></trkpt><trkpt lat="45.78642863247816" lon="11.417227100178605"><ele>309.0</ele><time>2026-04-06T15:53:30.998Z</time></trkpt><trkpt lat="45.78636701266161" lon="11.417396712020457"><ele>309.0</ele><time>2026-04-06T15:53:31.998Z</time></trkpt><trkpt lat="45.78630819603144" lon="11.417560085308034"><ele>308.5</ele><time>2026-04-06T15:53:32.998Z</time></trkpt><trkpt lat="45.78624933782486" lon="11.417723116661193"><ele>308.0</ele><time>2026-04-06T15:53:33.998Z</time></trkpt><trkpt lat="45.78619309684886" lon="11.417878649093886"><ele>307.5</ele><time>2026-04-06T15:53:34.998Z</time></trkpt><trkpt lat="45.786138579145074" lon="11.418029415828878"><ele>307.0</ele><time>2026-04-06T15:53:35.998Z</time></trkpt><trkpt lat="45.78608620391944" lon="11.418173268066017"><ele>307.0</ele><time>2026-04-06T15:53:36.998Z</time></trkpt><trkpt lat="45.786035260238044" lon="11.418312467583778"><ele>307.0</ele><time>2026-04-06T15:53:37.998Z</time></trkpt><trkpt lat="45.78598594895517" lon="11.418446116417254"><ele>307.0</ele><time>2026-04-06T15:53:38.998Z</time></trkpt><trkpt lat="45.785938931752256" lon="11.418574400420836"><ele>307.0</ele><time>2026-04-06T15:53:39.998Z</time></trkpt><trkpt lat="45.78589301080737" lon="11.41870029285809"><ele>307.0</ele><time>2026-04-06T15:53:40.998Z</time></trkpt><trkpt lat="45.78585680145059" lon="11.418802379811765"><ele>305.5</ele><time>2026-04-06T15:53:41.998Z</time></trkpt><trkpt lat="45.78581651962011" lon="11.418915948557466"><ele>304.0</ele><time>2026-04-06T15:53:42.998Z</time></trkpt><trkpt lat="45.785768124048744" lon="11.419052391236104"><ele>302.5</ele><time>2026-04-06T15:53:43.998Z</time></trkpt><trkpt lat="45.785727264200034" lon="11.419215809110959"><ele>301.0</ele><time>2026-04-06T15:53:44.998Z</time></trkpt><trkpt lat="45.785651412048786" lon="11.419377279699857"><ele>301.0</ele><time>2026-04-06T15:53:45.998Z</time></trkpt><trkpt lat="45.78558420693264" lon="11.419563519653424"><ele>301.0</ele><time>2026-04-06T15:53:46.998Z</time></trkpt><trkpt lat="45.78551614491878" lon="11.419750687956713"><ele>301.0</ele><time>2026-04-06T15:53:47.998Z</time></trkpt><trkpt lat="45.78544735886699" lon="11.419939537028574"><ele>301.0</ele><time>2026-04-06T15:53:48.998Z</time></trkpt><trkpt lat="45.78539239656328" lon="11.42014515433463"><ele>301.0</ele><time>2026-04-06T15:53:49.998Z</time></trkpt><trkpt lat="45.785321220304226" lon="11.420336934152266"><ele>301.0</ele><time>2026-04-06T15:53:50.998Z</time></trkpt><trkpt lat="45.78525015466955" lon="11.420529456698434"><ele>301.0</ele><time>2026-04-06T15:53:51.998Z</time></trkpt><trkpt lat="45.78518031919917" lon="11.420722015590375"><ele>300.3333333333333</ele><time>2026-04-06T15:53:52.998Z</time></trkpt><trkpt lat="45.78510970056651" lon="11.420913648872007"><ele>299.6666666666667</ele><time>2026-04-06T15:53:53.998Z</time></trkpt><trkpt lat="45.78503971013338" lon="11.421103622567406"><ele>299.0</ele><time>2026-04-06T15:53:54.998Z</time></trkpt><trkpt lat="45.78496880142091" lon="11.421293218594489"><ele>298.75</ele><time>2026-04-06T15:53:55.998Z</time></trkpt><trkpt lat="45.78490201876765" lon="11.421479942299515"><ele>298.5</ele><time>2026-04-06T15:53:56.998Z</time></trkpt><trkpt lat="45.78483716991172" lon="11.421660696458808"><ele>298.25</ele><time>2026-04-06T15:53:57.998Z</time></trkpt><trkpt lat="45.78477021428089" lon="11.421840505087687"><ele>298.0</ele><time>2026-04-06T15:53:58.998Z</time></trkpt><trkpt lat="45.78470414381861" lon="11.42201485392801"><ele>298.0</ele><time>2026-04-06T15:53:59.998Z</time></trkpt><trkpt lat="45.78464109776402" lon="11.422184830618377"><ele>298.0</ele><time>2026-04-06T15:54:00.998Z</time></trkpt><trkpt lat="45.784579146321576" lon="11.422355560727754"><ele>298.0</ele><time>2026-04-06T15:54:01.998Z</time></trkpt><trkpt lat="45.78451493275843" lon="11.422528380993262"><ele>298.0</ele><time>2026-04-06T15:54:02.998Z</time></trkpt><trkpt lat="45.784453080087" lon="11.422686717253992"><ele>298.0</ele><time>2026-04-06T15:54:03.998Z</time></trkpt><trkpt lat="45.7843961416106" lon="11.422834580338892"><ele>298.0</ele><time>2026-04-06T15:54:04.999Z</time></trkpt><trkpt lat="45.784343010554394" lon="11.422972089877073"><ele>298.0</ele><time>2026-04-06T15:54:05.999Z</time></trkpt><trkpt lat="45.78429173900264" lon="11.423107559969779"><ele>298.0</ele><time>2026-04-06T15:54:06.999Z</time></trkpt><trkpt lat="45.78424550758943" lon="11.423236639414162"><ele>298.0</ele><time>2026-04-06T15:54:07.999Z</time></trkpt><trkpt lat="45.78420148404793" lon="11.423359183224571"><ele>298.0</ele><time>2026-04-06T15:54:08.999Z</time></trkpt><trkpt lat="45.784159632439504" lon="11.423472540015336"><ele>298.0</ele><time>2026-04-06T15:54:09.999Z</time></trkpt><trkpt lat="45.78411370004272" lon="11.423573948188492"><ele>298.0</ele><time>2026-04-06T15:54:10.999Z</time></trkpt><trkpt lat="45.78406408766021" lon="11.423654546564642"><ele>298.0</ele><time>2026-04-06T15:54:11.999Z</time></trkpt><trkpt lat="45.78400065764046" lon="11.423780647351906"><ele>298.0</ele><time>2026-04-06T15:54:13.999Z</time></trkpt><trkpt lat="45.78402651927824" lon="11.42391702815009"><ele>298.16666666666663</ele><time>2026-04-06T15:54:15.999Z</time></trkpt><trkpt lat="45.78408378492607" lon="11.423954789014124"><ele>298.3333333333333</ele><time>2026-04-06T15:54:16.999Z</time></trkpt><trkpt lat="45.78416803138272" lon="11.423953278526616"><ele>298.5</ele><time>2026-04-06T15:54:17.999Z</time></trkpt><trkpt lat="45.78424768167909" lon="11.423938999744061"><ele>298.6666666666667</ele><time>2026-04-06T15:54:18.999Z</time></trkpt><trkpt lat="45.784342837830394" lon="11.424014171003485"><ele>298.83333333333337</ele><time>2026-04-06T15:54:19.999Z</time></trkpt><trkpt lat="45.78443850098355" lon="11.424096879321123"><ele>299.0</ele><time>2026-04-06T15:54:20.999Z</time></trkpt><trkpt lat="45.78455055351719" lon="11.424167906557482"><ele>300.0</ele><time>2026-04-06T15:54:21.999Z</time></trkpt><trkpt lat="45.784663071340844" lon="11.424239228841538"><ele>301.0</ele><time>2026-04-06T15:54:22.999Z</time></trkpt><trkpt lat="45.78477284459676" lon="11.424308811285375"><ele>302.0</ele><time>2026-04-06T15:54:23.999Z</time></trkpt><trkpt lat="45.78487753130994" lon="11.42437366183084"><ele>303.0</ele><time>2026-04-06T15:54:24.999Z</time></trkpt><trkpt lat="45.78496616334138" lon="11.424428539725001"><ele>303.0</ele><time>2026-04-06T15:54:25.999Z</time></trkpt><trkpt lat="45.78503267978405" lon="11.424474503329753"><ele>303.0</ele><time>2026-04-06T15:54:26.999Z</time></trkpt><trkpt lat="45.785091894566115" lon="11.4245092172323"><ele>303.0</ele><time>2026-04-06T15:54:27.999Z</time></trkpt><trkpt lat="45.78514737575577" lon="11.42460202008198"><ele>303.0</ele><time>2026-04-06T15:54:29.999Z</time></trkpt><trkpt lat="45.785104879153295" lon="11.424764902332475"><ele>303.0</ele><time>2026-04-06T15:54:31.999Z</time></trkpt><trkpt lat="45.785062168369585" lon="11.424878144292196"><ele>303.0</ele><time>2026-04-06T15:54:32.999Z</time></trkpt><trkpt lat="45.785016003188524" lon="11.425009869426251"><ele>303.0</ele><time>2026-04-06T15:54:33.999Z</time></trkpt><trkpt lat="45.78496619391286" lon="11.425151735787368"><ele>303.0</ele><time>2026-04-06T15:54:34.999Z</time></trkpt><trkpt lat="45.78491540354426" lon="11.425311989347932"><ele>303.0</ele><time>2026-04-06T15:54:35.999Z</time></trkpt><trkpt lat="45.78486095254575" lon="11.42547520146904"><ele>303.0</ele><time>2026-04-06T15:54:36.999Z</time></trkpt><trkpt lat="45.78480104313174" lon="11.425646158478184"><ele>303.25</ele><time>2026-04-06T15:54:37.999Z</time></trkpt><trkpt lat="45.78474428349756" lon="11.42581666432187"><ele>303.5</ele><time>2026-04-06T15:54:38.999Z</time></trkpt><trkpt lat="45.784690788889186" lon="11.425981526441461"><ele>303.75</ele><time>2026-04-06T15:54:39.999Z</time></trkpt><trkpt lat="45.78462801055177" lon="11.426146132062735"><ele>304.0</ele><time>2026-04-06T15:54:40.999Z</time></trkpt><trkpt lat="45.78455455196097" lon="11.426300845191552"><ele>304.0</ele><time>2026-04-06T15:54:41.999Z</time></trkpt><trkpt lat="45.78447034435603" lon="11.426454692233838"><ele>304.0</ele><time>2026-04-06T15:54:42.999Z</time></trkpt><trkpt lat="45.784389040869655" lon="11.426602393614415"><ele>304.0</ele><time>2026-04-06T15:54:43.999Z</time></trkpt><trkpt lat="45.784315142855306" lon="11.426745888732105"><ele>304.0</ele><time>2026-04-06T15:54:44.999Z</time></trkpt><trkpt lat="45.784255217119174" lon="11.426885388980196"><ele>303.0</ele><time>2026-04-06T15:54:45.999Z</time></trkpt><trkpt lat="45.78420387138615" lon="11.427041246474307"><ele>302.0</ele><time>2026-04-06T15:54:46.999Z</time></trkpt><trkpt lat="45.78417281146267" lon="11.42721968042181"><ele>301.0</ele><time>2026-04-06T15:54:47.999Z</time></trkpt><trkpt lat="45.7841699424644" lon="11.427405804250911"><ele>300.0</ele><time>2026-04-06T15:54:48.999Z</time></trkpt><trkpt lat="45.7841472761424" lon="11.427608079342374"><ele>299.0</ele><time>2026-04-06T15:54:49.999Z</time></trkpt><trkpt lat="45.784119739632175" lon="11.42781953902365"><ele>298.0</ele><time>2026-04-06T15:54:50.999Z</time></trkpt><trkpt lat="45.78407336806264" lon="11.428040038167277"><ele>297.0</ele><time>2026-04-06T15:54:51.999Z</time></trkpt><trkpt lat="45.78401613481856" lon="11.428271794818617"><ele>297.0</ele><time>2026-04-06T15:54:52.999Z</time></trkpt><trkpt lat="45.78395481090825" lon="11.428508437569215"><ele>297.0</ele><time>2026-04-06T15:54:53.999Z</time></trkpt><trkpt lat="45.78390374599485" lon="11.428756327888113"><ele>297.0</ele><time>2026-04-06T15:54:54.999Z</time></trkpt><trkpt lat="45.78383945362416" lon="11.428999406122855"><ele>297.0</ele><time>2026-04-06T15:54:55.999Z</time></trkpt><trkpt lat="45.783777570768954" lon="11.429243572305383"><ele>297.0</ele><time>2026-04-06T15:54:56.999Z</time></trkpt><trkpt lat="45.78371081299915" lon="11.429489104794527"><ele>297.0</ele><time>2026-04-06T15:54:57.999Z</time></trkpt><trkpt lat="45.783648245946495" lon="11.429734713970642"><ele>297.0</ele><time>2026-04-06T15:54:58.999Z</time></trkpt><trkpt lat="45.78358062400379" lon="11.429972970004062"><ele>297.0</ele><time>2026-04-06T15:54:59.999Z</time></trkpt><trkpt lat="45.783521396287384" lon="11.430216777122942"><ele>297.0</ele><time>2026-04-06T15:55:00.999Z</time></trkpt><trkpt lat="45.783457210914804" lon="11.430452927552064"><ele>296.6666666666667</ele><time>2026-04-06T15:55:01.999Z</time></trkpt><trkpt lat="45.783393679275235" lon="11.430686998859018"><ele>296.33333333333337</ele><time>2026-04-06T15:55:02.999Z</time></trkpt><trkpt lat="45.78333004002447" lon="11.430918562470453"><ele>296.0</ele><time>2026-04-06T15:55:03.999Z</time></trkpt><trkpt lat="45.78327359018789" lon="11.43115143489994"><ele>296.6666666666667</ele><time>2026-04-06T15:55:04.999Z</time></trkpt><trkpt lat="45.783215772739425" lon="11.431372848425555"><ele>297.3333333333333</ele><time>2026-04-06T15:55:05.999Z</time></trkpt><trkpt lat="45.78316130762489" lon="11.431575634537301"><ele>298.0</ele><time>2026-04-06T15:55:06.999Z</time></trkpt><trkpt lat="45.783110256486935" lon="11.431757482873289"><ele>298.0</ele><time>2026-04-06T15:55:07.999Z</time></trkpt><trkpt lat="45.78306805924554" lon="11.431915443601941"><ele>298.0</ele><time>2026-04-06T15:55:08.999Z</time></trkpt><trkpt lat="45.78303556736185" lon="11.4320384786813"><ele>298.0</ele><time>2026-04-06T15:55:09.999Z</time></trkpt><trkpt lat="45.783000431306746" lon="11.432164564371197"><ele>298.0</ele><time>2026-04-06T15:55:10.999Z</time></trkpt><trkpt lat="45.78295840449337" lon="11.432317438505887"><ele>298.0</ele><time>2026-04-06T15:55:11.999Z</time></trkpt><trkpt lat="45.782910126186174" lon="11.432506671253542"><ele>299.3333333333333</ele><time>2026-04-06T15:55:12.999Z</time></trkpt><trkpt lat="45.78285877259036" lon="11.432703188293106"><ele>300.6666666666667</ele><time>2026-04-06T15:55:13.999Z</time></trkpt><trkpt lat="45.78280594296504" lon="11.432904273985528"><ele>302.0</ele><time>2026-04-06T15:55:14.999Z</time></trkpt><trkpt lat="45.78275096480405" lon="11.433113173862395"><ele>301.0</ele><time>2026-04-06T15:55:15.999Z</time></trkpt><trkpt lat="45.78269403982176" lon="11.433323703633516"><ele>300.0</ele><time>2026-04-06T15:55:16.999Z</time></trkpt><trkpt lat="45.78263644034957" lon="11.433534532295766"><ele>299.0</ele><time>2026-04-06T15:55:17.999Z</time></trkpt><trkpt lat="45.782579102164746" lon="11.433747058614406"><ele>301.33333333333337</ele><time>2026-04-06T15:55:18.999Z</time></trkpt><trkpt lat="45.782523680151485" lon="11.433955902008895"><ele>303.6666666666667</ele><time>2026-04-06T15:55:19.999Z</time></trkpt><trkpt lat="45.782468685083856" lon="11.434165703167668"><ele>306.0</ele><time>2026-04-06T15:55:20.999Z</time></trkpt><trkpt lat="45.78241578004484" lon="11.434369658875935"><ele>306.0</ele><time>2026-04-06T15:55:21.999Z</time></trkpt><trkpt lat="45.782363499168206" lon="11.434573996839122"><ele>306.0</ele><time>2026-04-06T15:55:22.999Z</time></trkpt><trkpt lat="45.78231207382324" lon="11.434773327205816"><ele>306.0</ele><time>2026-04-06T15:55:23.999Z</time></trkpt><trkpt lat="45.782264985649235" lon="11.434957040920048"><ele>306.0</ele><time>2026-04-06T15:55:24.999Z</time></trkpt><trkpt lat="45.782220694506215" lon="11.435132127767979"><ele>307.25</ele><time>2026-04-06T15:55:25.999Z</time></trkpt><trkpt lat="45.782177011754" lon="11.43530056025902"><ele>308.5</ele><time>2026-04-06T15:55:26.999Z</time></trkpt><trkpt lat="45.782139585283055" lon="11.435465177023646"><ele>309.75</ele><time>2026-04-06T15:55:27.999Z</time></trkpt><trkpt lat="45.78210531030981" lon="11.435627041326708"><ele>311.0</ele><time>2026-04-06T15:55:28.999Z</time></trkpt><trkpt lat="45.782085547321955" lon="11.435778995066576"><ele>311.2</ele><time>2026-04-06T15:55:29.999Z</time></trkpt><trkpt lat="45.78206823623902" lon="11.435925698562919"><ele>311.40000000000003</ele><time>2026-04-06T15:55:30.999Z</time></trkpt><trkpt lat="45.78205445192847" lon="11.436066647982994"><ele>311.6</ele><time>2026-04-06T15:55:31.999Z</time></trkpt><trkpt lat="45.782041546927346" lon="11.436204594471038"><ele>311.8</ele><time>2026-04-06T15:55:32.999Z</time></trkpt><trkpt lat="45.78202051017542" lon="11.436338682275231"><ele>312.0</ele><time>2026-04-06T15:55:33.999Z</time></trkpt><trkpt lat="45.78200910022333" lon="11.43647253392695"><ele>312.3333333333333</ele><time>2026-04-06T15:55:34.999Z</time></trkpt><trkpt lat="45.781993465468766" lon="11.436597807031044"><ele>312.6666666666667</ele><time>2026-04-06T15:55:35.999Z</time></trkpt><trkpt lat="45.78198077707819" lon="11.436712580453996"><ele>313.0</ele><time>2026-04-06T15:55:36.999Z</time></trkpt><trkpt lat="45.781966477834594" lon="11.436826561599435"><ele>313.33333333333337</ele><time>2026-04-06T15:55:37.999Z</time></trkpt><trkpt lat="45.781946692961796" lon="11.436931477712527"><ele>313.6666666666667</ele><time>2026-04-06T15:55:38.999Z</time></trkpt><trkpt lat="45.781919746610285" lon="11.437026297725732"><ele>314.0</ele><time>2026-04-06T15:55:39.999Z</time></trkpt><trkpt lat="45.78188995369317" lon="11.437118703726085"><ele>313.83333333333337</ele><time>2026-04-06T15:55:40.999Z</time></trkpt><trkpt lat="45.78186396376833" lon="11.43721531977468"><ele>313.6666666666667</ele><time>2026-04-06T15:55:41.999Z</time></trkpt><trkpt lat="45.781834975858764" lon="11.437304555807348"><ele>313.5</ele><time>2026-04-06T15:55:42.999Z</time></trkpt><trkpt lat="45.78176108097599" lon="11.43739614336067"><ele>313.3333333333333</ele><time>2026-04-06T15:55:44.999Z</time></trkpt><trkpt lat="45.78163896297846" lon="11.437399223430013"><ele>313.16666666666663</ele><time>2026-04-06T15:55:46.999Z</time></trkpt><trkpt lat="45.781562481025986" lon="11.437390354885379"><ele>313.0</ele><time>2026-04-06T15:55:47.999Z</time></trkpt><trkpt lat="45.78149626611814" lon="11.437394814445101"><ele>310.6</ele><time>2026-04-06T15:55:48.999Z</time></trkpt><trkpt lat="45.78141732730932" lon="11.437489314129005"><ele>308.20000000000005</ele><time>2026-04-06T15:55:50.999Z</time></trkpt><trkpt lat="45.781376760122406" lon="11.437657108709452"><ele>305.8</ele><time>2026-04-06T15:55:52.999Z</time></trkpt><trkpt lat="45.78137110026083" lon="11.437779501023277"><ele>303.40000000000003</ele><time>2026-04-06T15:55:53.999Z</time></trkpt><trkpt lat="45.78138301721048" lon="11.437949756097373"><ele>301.0</ele><time>2026-04-06T15:55:54.999Z</time></trkpt><trkpt lat="45.7814009360024" lon="11.438133443609557"><ele>301.0</ele><time>2026-04-06T15:55:55.999Z</time></trkpt><trkpt lat="45.781425040919004" lon="11.438305522602596"><ele>301.0</ele><time>2026-04-06T15:55:56.999Z</time></trkpt><trkpt lat="45.78145150266374" lon="11.438474212528877"><ele>301.0</ele><time>2026-04-06T15:55:57.999Z</time></trkpt><trkpt lat="45.78148648932578" lon="11.438619217552107"><ele>301.0</ele><time>2026-04-06T15:55:58.999Z</time></trkpt><trkpt lat="45.78150564163462" lon="11.438771773399672"><ele>300.8</ele><time>2026-04-06T15:55:59.999Z</time></trkpt><trkpt lat="45.781517398469646" lon="11.438915914700608"><ele>300.6</ele><time>2026-04-06T15:56:00.999Z</time></trkpt><trkpt lat="45.781498161682904" lon="11.439050542808259"><ele>300.4</ele><time>2026-04-06T15:56:01.999Z</time></trkpt><trkpt lat="45.781503616065294" lon="11.439188978032806"><ele>300.2</ele><time>2026-04-06T15:56:02.999Z</time></trkpt><trkpt lat="45.78146627157413" lon="11.439319266875525"><ele>300.0</ele><time>2026-04-06T15:56:03.999Z</time></trkpt><trkpt lat="45.78141543467143" lon="11.439445009673175"><ele>300.0</ele><time>2026-04-06T15:56:04.999Z</time></trkpt><trkpt lat="45.78135520521532" lon="11.439549908359552"><ele>300.0</ele><time>2026-04-06T15:56:05.999Z</time></trkpt><trkpt lat="45.78130005066213" lon="11.439670617753773"><ele>300.0</ele><time>2026-04-06T15:56:06.999Z</time></trkpt><trkpt lat="45.781253932155714" lon="11.43978300713031"><ele>300.0</ele><time>2026-04-06T15:56:07.999Z</time></trkpt><trkpt lat="45.78120108669719" lon="11.439889562804597"><ele>300.0</ele><time>2026-04-06T15:56:08.999Z</time></trkpt><trkpt lat="45.78115339459324" lon="11.439995880547855"><ele>299.6</ele><time>2026-04-06T15:56:09.999Z</time></trkpt><trkpt lat="45.781101253187934" lon="11.440112470494093"><ele>299.2</ele><time>2026-04-06T15:56:10.999Z</time></trkpt><trkpt lat="45.78104618647721" lon="11.440229179198578"><ele>298.8</ele><time>2026-04-06T15:56:11.999Z</time></trkpt><trkpt lat="45.780985591671865" lon="11.44034579029492"><ele>298.4</ele><time>2026-04-06T15:56:12.999Z</time></trkpt><trkpt lat="45.78092462043705" lon="11.44046096012663"><ele>298.0</ele><time>2026-04-06T15:56:13.999Z</time></trkpt><trkpt lat="45.78085239297465" lon="11.440569948854733"><ele>298.0</ele><time>2026-04-06T15:56:14.999Z</time></trkpt><trkpt lat="45.780777254346305" lon="11.440670930624595"><ele>298.0</ele><time>2026-04-06T15:56:15.999Z</time></trkpt><trkpt lat="45.7806903085205" lon="11.440779354565993"><ele>298.0</ele><time>2026-04-06T15:56:16.999Z</time></trkpt><trkpt lat="45.78059695087547" lon="11.440886606445845"><ele>298.0</ele><time>2026-04-06T15:56:17.999Z</time></trkpt><trkpt lat="45.78051090572618" lon="11.440983441890308"><ele>298.0</ele><time>2026-04-06T15:56:18.999Z</time></trkpt><trkpt lat="45.780425594663036" lon="11.441074038781341"><ele>298.0</ele><time>2026-04-06T15:56:19.999Z</time></trkpt><trkpt lat="45.780337143253846" lon="11.441170199643263"><ele>298.0</ele><time>2026-04-06T15:56:20.999Z</time></trkpt><trkpt lat="45.78025025742972" lon="11.441278628883795"><ele>298.0</ele><time>2026-04-06T15:56:21.999Z</time></trkpt><trkpt lat="45.78016149626803" lon="11.441389596817848"><ele>298.0</ele><time>2026-04-06T15:56:22.999Z</time></trkpt><trkpt lat="45.780068548239576" lon="11.441507815041508"><ele>296.25</ele><time>2026-04-06T15:56:23.999Z</time></trkpt><trkpt lat="45.77997958926305" lon="11.441625082371083"><ele>294.5</ele><time>2026-04-06T15:56:24.999Z</time></trkpt><trkpt lat="45.77989582853871" lon="11.441742398542035"><ele>292.75</ele><time>2026-04-06T15:56:25.999Z</time></trkpt><trkpt lat="45.779812815080405" lon="11.441860368078979"><ele>291.0</ele><time>2026-04-06T15:56:26.999Z</time></trkpt><trkpt lat="45.779728192646964" lon="11.441982674395456"><ele>291.0</ele><time>2026-04-06T15:56:27.999Z</time></trkpt><trkpt lat="45.779641975549545" lon="11.442114549894294"><ele>291.0</ele><time>2026-04-06T15:56:28.999Z</time></trkpt><trkpt lat="45.779552128298754" lon="11.44225898893369"><ele>291.0</ele><time>2026-04-06T15:56:29.999Z</time></trkpt><trkpt lat="45.779457653046464" lon="11.442411434052778"><ele>291.0</ele><time>2026-04-06T15:56:30.999Z</time></trkpt><trkpt lat="45.77936683749315" lon="11.442561015757573"><ele>288.5</ele><time>2026-04-06T15:56:31.999Z</time></trkpt><trkpt lat="45.779279976209466" lon="11.442706791977988"><ele>286.0</ele><time>2026-04-06T15:56:32.999Z</time></trkpt><trkpt lat="45.779195042200726" lon="11.442851859229044"><ele>283.5</ele><time>2026-04-06T15:56:33.999Z</time></trkpt><trkpt lat="45.77911318648021" lon="11.442995143015484"><ele>281.0</ele><time>2026-04-06T15:56:34.999Z</time></trkpt><trkpt lat="45.77905109611664" lon="11.443112454310883"><ele>281.0</ele><time>2026-04-06T15:56:35.999Z</time></trkpt><trkpt lat="45.77900678525921" lon="11.443186445881782"><ele>281.0</ele><time>2026-04-06T15:56:36.999Z</time></trkpt><trkpt lat="45.778930015144" lon="11.44331321636411"><ele>281.0</ele><time>2026-04-06T15:56:38.999Z</time></trkpt><trkpt lat="45.778868450344596" lon="11.4434182136494"><ele>281.0</ele><time>2026-04-06T15:56:39.999Z</time></trkpt><trkpt lat="45.77882936009929" lon="11.443496939669368"><ele>281.0</ele><time>2026-04-06T15:56:40.999Z</time></trkpt><trkpt lat="45.778787837526906" lon="11.443577174276623"><ele>281.0</ele><time>2026-04-06T15:56:41.999Z</time></trkpt><trkpt lat="45.778717911379715" lon="11.443696894964816"><ele>281.75</ele><time>2026-04-06T15:56:42.999Z</time></trkpt><trkpt lat="45.77863869237747" lon="11.443836823130733"><ele>282.5</ele><time>2026-04-06T15:56:43.999Z</time></trkpt><trkpt lat="45.778559142578594" lon="11.443983564868017"><ele>283.25</ele><time>2026-04-06T15:56:44.999Z</time></trkpt><trkpt lat="45.77847759074618" lon="11.444126767990008"><ele>284.0</ele><time>2026-04-06T15:56:45.999Z</time></trkpt><trkpt lat="45.77839681824466" lon="11.444273084660022"><ele>282.0</ele><time>2026-04-06T15:56:46.999Z</time></trkpt><trkpt lat="45.77831674845287" lon="11.444415107598214"><ele>280.0</ele><time>2026-04-06T15:56:47.999Z</time></trkpt><trkpt lat="45.778237575122" lon="11.444556954924696"><ele>278.0</ele><time>2026-04-06T15:56:48.999Z</time></trkpt><trkpt lat="45.77816120980697" lon="11.444697026883528"><ele>276.0</ele><time>2026-04-06T15:56:49.999Z</time></trkpt><trkpt lat="45.77809434725047" lon="11.44481721904711"><ele>276.0</ele><time>2026-04-06T15:56:50.999Z</time></trkpt><trkpt lat="45.77805131953811" lon="11.44489704365281"><ele>276.0</ele><time>2026-04-06T15:56:51.999Z</time></trkpt><trkpt lat="45.77796647221955" lon="11.445042232018421"><ele>276.0</ele><time>2026-04-06T15:56:53.999Z</time></trkpt><trkpt lat="45.7779079362033" lon="11.445148713422878"><ele>276.0</ele><time>2026-04-06T15:56:54.999Z</time></trkpt><trkpt lat="45.777854643955564" lon="11.445248684262415"><ele>276.0</ele><time>2026-04-06T15:56:55.999Z</time></trkpt><trkpt lat="45.7777934723946" lon="11.445353208087354"><ele>275.25</ele><time>2026-04-06T15:56:56.999Z</time></trkpt><trkpt lat="45.77772075510141" lon="11.445476187389668"><ele>274.5</ele><time>2026-04-06T15:56:57.999Z</time></trkpt><trkpt lat="45.777642923813985" lon="11.445618651917135"><ele>273.75</ele><time>2026-04-06T15:56:58.999Z</time></trkpt><trkpt lat="45.77756160640335" lon="11.445767123412088"><ele>273.0</ele><time>2026-04-06T15:56:59.999Z</time></trkpt><trkpt lat="45.77747721122457" lon="11.44591424892118"><ele>272.5</ele><time>2026-04-06T15:57:00.999Z</time></trkpt><trkpt lat="45.77739876318166" lon="11.446054142609418"><ele>272.0</ele><time>2026-04-06T15:57:01.999Z</time></trkpt><trkpt lat="45.77731931037391" lon="11.44619016480868"><ele>271.5</ele><time>2026-04-06T15:57:02.999Z</time></trkpt><trkpt lat="45.77724725272329" lon="11.44632140122505"><ele>271.0</ele><time>2026-04-06T15:57:03.999Z</time></trkpt><trkpt lat="45.77717034475038" lon="11.446459944044232"><ele>270.5</ele><time>2026-04-06T15:57:04.999Z</time></trkpt><trkpt lat="45.77709084810297" lon="11.446605089012701"><ele>270.0</ele><time>2026-04-06T15:57:05.999Z</time></trkpt><trkpt lat="45.777013359040446" lon="11.446763923919038"><ele>269.5</ele><time>2026-04-06T15:57:06.999Z</time></trkpt><trkpt lat="45.77693000162775" lon="11.446924690289281"><ele>269.0</ele><time>2026-04-06T15:57:07.999Z</time></trkpt><trkpt lat="45.77683708268515" lon="11.447079772291978"><ele>268.0</ele><time>2026-04-06T15:57:08.999Z</time></trkpt><trkpt lat="45.77674170866925" lon="11.447230646981483"><ele>267.0</ele><time>2026-04-06T15:57:09.999Z</time></trkpt><trkpt lat="45.77665644605114" lon="11.44737427696074"><ele>266.0</ele><time>2026-04-06T15:57:10.999Z</time></trkpt><trkpt lat="45.77657768481608" lon="11.447515243344183"><ele>265.0</ele><time>2026-04-06T15:57:11.999Z</time></trkpt><trkpt lat="45.776505145363814" lon="11.447641884497832"><ele>265.0</ele><time>2026-04-06T15:57:12.999Z</time></trkpt><trkpt lat="45.776432809831284" lon="11.44777269655665"><ele>265.0</ele><time>2026-04-06T15:57:13.999Z</time></trkpt><trkpt lat="45.776358461275144" lon="11.44792247418479"><ele>265.0</ele><time>2026-04-06T15:57:14.999Z</time></trkpt><trkpt lat="45.77627644648402" lon="11.448085495480793"><ele>265.0</ele><time>2026-04-06T15:57:15.999Z</time></trkpt><trkpt lat="45.77618819613548" lon="11.448243480251637"><ele>265.5</ele><time>2026-04-06T15:57:16.999Z</time></trkpt><trkpt lat="45.77610493042205" lon="11.448394118556969"><ele>266.0</ele><time>2026-04-06T15:57:17.999Z</time></trkpt><trkpt lat="45.77602635552868" lon="11.448535847241908"><ele>266.5</ele><time>2026-04-06T15:57:18.999Z</time></trkpt><trkpt lat="45.775952169105345" lon="11.448667958521199"><ele>267.0</ele><time>2026-04-06T15:57:19.999Z</time></trkpt><trkpt lat="45.77588157077419" lon="11.448788659148299"><ele>267.6</ele><time>2026-04-06T15:57:20.999Z</time></trkpt><trkpt lat="45.77581343091673" lon="11.448908880110585"><ele>268.2</ele><time>2026-04-06T15:57:21.999Z</time></trkpt><trkpt lat="45.77574892246787" lon="11.449020829811959"><ele>268.8</ele><time>2026-04-06T15:57:22.999Z</time></trkpt><trkpt lat="45.775688918821686" lon="11.449124141377535"><ele>269.4</ele><time>2026-04-06T15:57:23.999Z</time></trkpt><trkpt lat="45.775633779445776" lon="11.449214216507148"><ele>270.0</ele><time>2026-04-06T15:57:24.999Z</time></trkpt><trkpt lat="45.77554604995654" lon="11.44929825708422"><ele>270.0</ele><time>2026-04-06T15:57:26.999Z</time></trkpt><trkpt lat="45.775468371214274" lon="11.449288464372794"><ele>270.0</ele><time>2026-04-06T15:57:28.999Z</time></trkpt><trkpt lat="45.77538465153096" lon="11.449227141516054"><ele>270.0</ele><time>2026-04-06T15:57:30.999Z</time></trkpt><trkpt lat="45.775268133426685" lon="11.449233855116859"><ele>270.0</ele><time>2026-04-06T15:57:32.999Z</time></trkpt><trkpt lat="45.775188727415866" lon="11.449317151299732"><ele>270.0</ele><time>2026-04-06T15:57:34.999Z</time></trkpt><trkpt lat="45.77515589051164" lon="11.449487711928136"><ele>270.6</ele><time>2026-04-06T15:57:36.999Z</time></trkpt><trkpt lat="45.77517244339858" lon="11.449622560383371"><ele>271.2</ele><time>2026-04-06T15:57:37.999Z</time></trkpt><trkpt lat="45.775195394972116" lon="11.449756542665204"><ele>271.8</ele><time>2026-04-06T15:57:38.999Z</time></trkpt><trkpt lat="45.77523667179921" lon="11.44987031559313"><ele>272.4</ele><time>2026-04-06T15:57:39.999Z</time></trkpt><trkpt lat="45.77515267585422" lon="11.450033511811775"><ele>273.0</ele><time>2026-04-06T15:57:40.999Z</time></trkpt><trkpt lat="45.77508656810519" lon="11.450154769169654"><ele>272.0</ele><time>2026-04-06T15:57:41.999Z</time></trkpt><trkpt lat="45.775012279491484" lon="11.450278292123116"><ele>271.0</ele><time>2026-04-06T15:57:42.999Z</time></trkpt><trkpt lat="45.77493331367919" lon="11.450409106715808"><ele>270.0</ele><time>2026-04-06T15:57:43.999Z</time></trkpt><trkpt lat="45.774857801643705" lon="11.45055509179733"><ele>269.0</ele><time>2026-04-06T15:57:44.999Z</time></trkpt><trkpt lat="45.7747815371062" lon="11.450711655980028"><ele>269.0</ele><time>2026-04-06T15:57:45.999Z</time></trkpt><trkpt lat="45.77470200219868" lon="11.450872270247842"><ele>269.0</ele><time>2026-04-06T15:57:46.999Z</time></trkpt><trkpt lat="45.774623342362986" lon="11.451036097784101"><ele>269.0</ele><time>2026-04-06T15:57:47.999Z</time></trkpt><trkpt lat="45.774555506062754" lon="11.45119667702867"><ele>269.0</ele><time>2026-04-06T15:57:48.999Z</time></trkpt><trkpt lat="45.77449276424104" lon="11.451342558903566"><ele>269.0</ele><time>2026-04-06T15:57:49.999Z</time></trkpt><trkpt lat="45.77443809210911" lon="11.451464756161318"><ele>269.0</ele><time>2026-04-06T15:57:50.999Z</time></trkpt><trkpt lat="45.77437990142117" lon="11.451593033620608"><ele>269.0</ele><time>2026-04-06T15:57:51.999Z</time></trkpt><trkpt lat="45.77432310518396" lon="11.451726470104159"><ele>269.0</ele><time>2026-04-06T15:57:52.999Z</time></trkpt><trkpt lat="45.77427588878878" lon="11.451841499787585"><ele>269.0</ele><time>2026-04-06T15:57:53.999Z</time></trkpt><trkpt lat="45.77421701811861" lon="11.45196971677724"><ele>267.25</ele><time>2026-04-06T15:57:54.999Z</time></trkpt><trkpt lat="45.77415406418965" lon="11.452114493427423"><ele>265.5</ele><time>2026-04-06T15:57:55.999Z</time></trkpt><trkpt lat="45.774084254125235" lon="11.452270853582341"><ele>263.75</ele><time>2026-04-06T15:57:56.999Z</time></trkpt><trkpt lat="45.77401537168417" lon="11.452436505479923"><ele>262.0</ele><time>2026-04-06T15:57:57.999Z</time></trkpt><trkpt lat="45.7739525609486" lon="11.452610061286967"><ele>261.8</ele><time>2026-04-06T15:57:58.999Z</time></trkpt><trkpt lat="45.773902743901786" lon="11.452779632486406"><ele>261.6</ele><time>2026-04-06T15:57:59.999Z</time></trkpt><trkpt lat="45.77386999134271" lon="11.452951076327526"><ele>261.40000000000003</ele><time>2026-04-06T15:58:00.999Z</time></trkpt><trkpt lat="45.77385298315224" lon="11.453095713423252"><ele>261.2</ele><time>2026-04-06T15:58:01.999Z</time></trkpt><trkpt lat="45.77384053972148" lon="11.453207545383403"><ele>261.0</ele><time>2026-04-06T15:58:02.999Z</time></trkpt><trkpt lat="45.77382817143469" lon="11.453328456220634"><ele>260.40000000000003</ele><time>2026-04-06T15:58:03.999Z</time></trkpt><trkpt lat="45.7738143524115" lon="11.453468980637249"><ele>259.8</ele><time>2026-04-06T15:58:04.999Z</time></trkpt><trkpt lat="45.77380078012241" lon="11.453587485161496"><ele>259.20000000000005</ele><time>2026-04-06T15:58:05.999Z</time></trkpt><trkpt lat="45.773788687699756" lon="11.453701440314266"><ele>258.6</ele><time>2026-04-06T15:58:06.999Z</time></trkpt><trkpt lat="45.77377491920531" lon="11.453845319001656"><ele>258.0</ele><time>2026-04-06T15:58:07.999Z</time></trkpt><trkpt lat="45.77375544277638" lon="11.454017255710149"><ele>257.75</ele><time>2026-04-06T15:58:08.999Z</time></trkpt><trkpt lat="45.77373437060205" lon="11.454195741849038"><ele>257.5</ele><time>2026-04-06T15:58:09.999Z</time></trkpt><trkpt lat="45.773714995085186" lon="11.454381372862244"><ele>257.25</ele><time>2026-04-06T15:58:10.999Z</time></trkpt><trkpt lat="45.77369489480827" lon="11.454572094299847"><ele>257.0</ele><time>2026-04-06T15:58:11.999Z</time></trkpt><trkpt lat="45.77367362882388" lon="11.454762795591185"><ele>256.25</ele><time>2026-04-06T15:58:12.999Z</time></trkpt><trkpt lat="45.77365221439604" lon="11.45495752867405"><ele>255.5</ele><time>2026-04-06T15:58:13.999Z</time></trkpt><trkpt lat="45.773630064789955" lon="11.455150211854935"><ele>254.75</ele><time>2026-04-06T15:58:14.999Z</time></trkpt><trkpt lat="45.77360774228258" lon="11.455340399340006"><ele>254.0</ele><time>2026-04-06T15:58:15.999Z</time></trkpt><trkpt lat="45.77358839577486" lon="11.455531306278223"><ele>253.75</ele><time>2026-04-06T15:58:16.999Z</time></trkpt><trkpt lat="45.77357058282198" lon="11.455711337721718"><ele>253.5</ele><time>2026-04-06T15:58:17.999Z</time></trkpt><trkpt lat="45.77355289454396" lon="11.455881580526057"><ele>253.25</ele><time>2026-04-06T15:58:18.999Z</time></trkpt><trkpt lat="45.77353056712185" lon="11.456039738170713"><ele>253.0</ele><time>2026-04-06T15:58:19.999Z</time></trkpt><trkpt lat="45.77348865055438" lon="11.45618989117538"><ele>252.75</ele><time>2026-04-06T15:58:20.999Z</time></trkpt><trkpt lat="45.77342131838307" lon="11.456327812423353"><ele>252.5</ele><time>2026-04-06T15:58:21.999Z</time></trkpt><trkpt lat="45.77333658923066" lon="11.456449530705333"><ele>252.25</ele><time>2026-04-06T15:58:22.999Z</time></trkpt><trkpt lat="45.77324590261123" lon="11.456565159205724"><ele>252.0</ele><time>2026-04-06T15:58:23.999Z</time></trkpt><trkpt lat="45.773165014000114" lon="11.456683226296317"><ele>252.0</ele><time>2026-04-06T15:58:24.999Z</time></trkpt><trkpt lat="45.77309066955582" lon="11.456792934727671"><ele>252.0</ele><time>2026-04-06T15:58:25.999Z</time></trkpt><trkpt lat="45.773029689981094" lon="11.456896112187096"><ele>252.0</ele><time>2026-04-06T15:58:26.999Z</time></trkpt><trkpt lat="45.77299425180321" lon="11.457011048402038"><ele>252.0</ele><time>2026-04-06T15:58:27.999Z</time></trkpt><trkpt lat="45.7729742066593" lon="11.4571454591895"><ele>252.0</ele><time>2026-04-06T15:58:28.999Z</time></trkpt><trkpt lat="45.7729853231441" lon="11.457296872685298"><ele>252.39999999999998</ele><time>2026-04-06T15:58:29.999Z</time></trkpt><trkpt lat="45.77300993385777" lon="11.457445420025795"><ele>252.79999999999998</ele><time>2026-04-06T15:58:30.999Z</time></trkpt><trkpt lat="45.77302892027998" lon="11.457594400513644"><ele>253.2</ele><time>2026-04-06T15:58:31.999Z</time></trkpt><trkpt lat="45.77303986444673" lon="11.457721226485416"><ele>253.6</ele><time>2026-04-06T15:58:32.999Z</time></trkpt><trkpt lat="45.77305537872375" lon="11.457836257820814"><ele>254.0</ele><time>2026-04-06T15:58:33.999Z</time></trkpt><trkpt lat="45.77310043471859" lon="11.457925899575768"><ele>253.16666666666669</ele><time>2026-04-06T15:58:34.999Z</time></trkpt><trkpt lat="45.7731792189835" lon="11.457983484612484"><ele>252.33333333333334</ele><time>2026-04-06T15:58:35.999Z</time></trkpt><trkpt lat="45.77326954954389" lon="11.458011632441329"><ele>251.5</ele><time>2026-04-06T15:58:36.999Z</time></trkpt><trkpt lat="45.773353811160916" lon="11.458052912761554"><ele>250.66666666666669</ele><time>2026-04-06T15:58:37.999Z</time></trkpt><trkpt lat="45.773436563279056" lon="11.458080846147636"><ele>249.83333333333334</ele><time>2026-04-06T15:58:38.999Z</time></trkpt><trkpt lat="45.77346344309677" lon="11.4581653865254"><ele>249.0</ele><time>2026-04-06T15:58:39.999Z</time></trkpt><trkpt lat="45.77345995648213" lon="11.458267918068808"><ele>249.0</ele><time>2026-04-06T15:58:40.999Z</time></trkpt><trkpt lat="45.773408128686505" lon="11.45836469323102"><ele>248.99999999999997</ele><time>2026-04-06T15:58:41.999Z</time></trkpt><trkpt lat="45.77332953620737" lon="11.458431050733182"><ele>248.99999999999997</ele><time>2026-04-06T15:58:42.999Z</time></trkpt><trkpt lat="45.77323518763772" lon="11.45848144112399"><ele>249.0</ele><time>2026-04-06T15:58:43.999Z</time></trkpt><trkpt lat="45.77313008142552" lon="11.458534040704958"><ele>249.0</ele><time>2026-04-06T15:58:44.999Z</time></trkpt><trkpt lat="45.77302619095937" lon="11.458599909608072"><ele>249.0</ele><time>2026-04-06T15:58:45.999Z</time></trkpt><trkpt lat="45.77292348112797" lon="11.45867362336002"><ele>248.99999999999997</ele><time>2026-04-06T15:58:46.999Z</time></trkpt><trkpt lat="45.772833868393064" lon="11.458756151831103"><ele>248.99999999999997</ele><time>2026-04-06T15:58:47.999Z</time></trkpt><trkpt lat="45.772740263043445" lon="11.458828244162655"><ele>249.0</ele><time>2026-04-06T15:58:48.999Z</time></trkpt><trkpt lat="45.772645052172635" lon="11.4588578366085"><ele>249.0</ele><time>2026-04-06T15:58:49.999Z</time></trkpt><trkpt lat="45.77255688845856" lon="11.458857693158878"><ele>246.75</ele><time>2026-04-06T15:58:50.999Z</time></trkpt><trkpt lat="45.77249125597791" lon="11.458850820009902"><ele>244.5</ele><time>2026-04-06T15:58:51.999Z</time></trkpt><trkpt lat="45.77237115425408" lon="11.458893572603188"><ele>242.25</ele><time>2026-04-06T15:58:53.999Z</time></trkpt><trkpt lat="45.772309472444036" lon="11.458948937865555"><ele>240.0</ele><time>2026-04-06T15:58:55.999Z</time></trkpt><trkpt lat="45.772178899117414" lon="11.459230485156873"><ele>240.0</ele><time>2026-04-06T15:58:58.999Z</time></trkpt><trkpt lat="45.77222065571901" lon="11.459321291097261"><ele>240.0</ele><time>2026-04-06T15:59:00.999Z</time></trkpt><trkpt lat="45.77226552998258" lon="11.459418876743282"><ele>240.0</ele><time>2026-04-06T15:59:02.999Z</time></trkpt><trkpt lat="45.772309705236424" lon="11.459514942281853"><ele>240.0</ele><time>2026-04-06T15:59:04.999Z</time></trkpt><trkpt lat="45.77238596908249" lon="11.45905303340154"><ele>240.0</ele><time>2026-04-06T15:59:07.999Z</time></trkpt><trkpt lat="45.77246775743867" lon="11.45962442368659"><ele>249.0</ele><time>2026-04-06T16:00:08.999Z</time></trkpt></trkseg></trk></gpx>